<?xml version="1.0" encoding="UTF-8"?>
<gpx version="1.1" creator="https://www.youtrack.es" xsi:schemaLocation="http://www.topografix.com/GPX/1/1 http://www.topografix.com/GPX/1/1/gpx.xsd http://www.garmin.com/xmlschemas/GpxExtensions/v3 http://www.garmin.com/xmlschemas/GpxExtensionsv3.xsd http://www.garmin.com/xmlschemas/TrackPointExtension/v1 http://www.garmin.com/xmlschemas/TrackPointExtensionv1.xsd" xmlns:gpxtpx="http://www.garmin.com/xmlschemas/TrackPointExtension/v1" xmlns:gpxx="http://www.garmin.com/xmlschemas/GpxExtensions/v3" xmlns:xsi="http://www.w3.org/2001/XMLSchema-instance">
  <metadata>
    <link href="https://www.youtrack.es">
      <text>YouTrack.es</text>
    </link>
    <time>2026-05-08T11:04:02Z</time>
  </metadata>
  <trk>
    <src>https://www.youtrack.es</src>
    <link href="https://www.youtrack.es/ruta/10026-casero">
      <text>YouTrack.es</text>
    </link>
    <trkseg>
      <trkpt lat="38.2738160" lon="-0.6838130">
        <ele>93.0</ele>
        <time>2019-12-20T06:25:10Z</time>
      </trkpt>
      <trkpt lat="38.2738170" lon="-0.6838370">
        <ele>92.9</ele>
        <time>2019-12-20T06:25:15Z</time>
      </trkpt>
      <trkpt lat="38.2738180" lon="-0.6838430">
        <ele>92.9</ele>
        <time>2019-12-20T06:25:16Z</time>
      </trkpt>
      <trkpt lat="38.2738210" lon="-0.6838500">
        <ele>92.9</ele>
        <time>2019-12-20T06:25:21Z</time>
      </trkpt>
      <trkpt lat="38.2738220" lon="-0.6838400">
        <ele>92.9</ele>
        <time>2019-12-20T06:25:26Z</time>
      </trkpt>
      <trkpt lat="38.2738240" lon="-0.6838370">
        <ele>92.9</ele>
        <time>2019-12-20T06:25:29Z</time>
      </trkpt>
      <trkpt lat="38.2738250" lon="-0.6838350">
        <ele>92.9</ele>
        <time>2019-12-20T06:25:35Z</time>
      </trkpt>
      <trkpt lat="38.2738800" lon="-0.6838380">
        <ele>92.8</ele>
        <time>2019-12-20T06:25:37Z</time>
      </trkpt>
      <trkpt lat="38.2740880" lon="-0.6838390">
        <ele>92.5</ele>
        <time>2019-12-20T06:25:38Z</time>
      </trkpt>
      <trkpt lat="38.2741300" lon="-0.6838380">
        <ele>92.5</ele>
        <time>2019-12-20T06:25:40Z</time>
      </trkpt>
      <trkpt lat="38.2741420" lon="-0.6838370">
        <ele>92.5</ele>
        <time>2019-12-20T06:25:43Z</time>
      </trkpt>
      <trkpt lat="38.2741500" lon="-0.6838360">
        <ele>92.4</ele>
        <time>2019-12-20T06:25:45Z</time>
      </trkpt>
      <trkpt lat="38.2741500" lon="-0.6838330">
        <ele>92.4</ele>
        <time>2019-12-20T06:25:46Z</time>
      </trkpt>
      <trkpt lat="38.2741470" lon="-0.6838300">
        <ele>92.4</ele>
        <time>2019-12-20T06:25:48Z</time>
      </trkpt>
      <trkpt lat="38.2741450" lon="-0.6838270">
        <ele>92.4</ele>
        <time>2019-12-20T06:25:50Z</time>
      </trkpt>
      <trkpt lat="38.2740080" lon="-0.6838250">
        <ele>92.2</ele>
        <time>2019-12-20T06:25:53Z</time>
      </trkpt>
      <trkpt lat="38.2739620" lon="-0.6838250">
        <ele>92.2</ele>
        <time>2019-12-20T06:25:55Z</time>
      </trkpt>
      <trkpt lat="38.2739170" lon="-0.6838250">
        <ele>92.1</ele>
        <time>2019-12-20T06:25:57Z</time>
      </trkpt>
      <trkpt lat="38.2739060" lon="-0.6838240">
        <ele>92.1</ele>
        <time>2019-12-20T06:25:58Z</time>
      </trkpt>
      <trkpt lat="38.2738870" lon="-0.6838290">
        <ele>92.1</ele>
        <time>2019-12-20T06:25:59Z</time>
      </trkpt>
      <trkpt lat="38.2739420" lon="-0.6838300">
        <ele>92.0</ele>
        <time>2019-12-20T06:26:00Z</time>
      </trkpt>
      <trkpt lat="38.2740160" lon="-0.6838330">
        <ele>91.9</ele>
        <time>2019-12-20T06:26:02Z</time>
      </trkpt>
      <trkpt lat="38.2740620" lon="-0.6838350">
        <ele>91.8</ele>
        <time>2019-12-20T06:26:04Z</time>
      </trkpt>
      <trkpt lat="38.2740580" lon="-0.6838370">
        <ele>91.8</ele>
        <time>2019-12-20T06:26:06Z</time>
      </trkpt>
      <trkpt lat="38.2739980" lon="-0.6838390">
        <ele>92.3</ele>
        <time>2019-12-20T06:26:08Z</time>
      </trkpt>
      <trkpt lat="38.2740400" lon="-0.6838310">
        <ele>92.3</ele>
        <time>2019-12-20T06:26:10Z</time>
      </trkpt>
      <trkpt lat="38.2740100" lon="-0.6838290">
        <ele>92.3</ele>
        <time>2019-12-20T06:26:11Z</time>
      </trkpt>
      <trkpt lat="38.2740100" lon="-0.6838260">
        <ele>92.3</ele>
        <time>2019-12-20T06:26:13Z</time>
      </trkpt>
      <trkpt lat="38.2740400" lon="-0.6838250">
        <ele>92.3</ele>
        <time>2019-12-20T06:26:14Z</time>
      </trkpt>
      <trkpt lat="38.2740310" lon="-0.6838260">
        <ele>92.3</ele>
        <time>2019-12-20T06:26:15Z</time>
      </trkpt>
      <trkpt lat="38.2740550" lon="-0.6838270">
        <ele>91.9</ele>
        <time>2019-12-20T06:26:16Z</time>
      </trkpt>
      <trkpt lat="38.2740890" lon="-0.6838280">
        <ele>91.9</ele>
        <time>2019-12-20T06:26:18Z</time>
      </trkpt>
      <trkpt lat="38.2740560" lon="-0.6838310">
        <ele>91.9</ele>
        <time>2019-12-20T06:26:21Z</time>
      </trkpt>
      <trkpt lat="38.2740100" lon="-0.6838340">
        <ele>92.3</ele>
        <time>2019-12-20T06:26:23Z</time>
      </trkpt>
      <trkpt lat="38.2740000" lon="-0.6838350">
        <ele>92.3</ele>
        <time>2019-12-20T06:26:25Z</time>
      </trkpt>
      <trkpt lat="38.2739830" lon="-0.6838350">
        <ele>92.5</ele>
        <time>2019-12-20T06:26:26Z</time>
      </trkpt>
      <trkpt lat="38.2739660" lon="-0.6838350">
        <ele>92.6</ele>
        <time>2019-12-20T06:26:27Z</time>
      </trkpt>
      <trkpt lat="38.2739490" lon="-0.6838350">
        <ele>92.7</ele>
        <time>2019-12-20T06:26:28Z</time>
      </trkpt>
      <trkpt lat="38.2739200" lon="-0.6838340">
        <ele>92.9</ele>
        <time>2019-12-20T06:26:30Z</time>
      </trkpt>
      <trkpt lat="38.2739080" lon="-0.6838330">
        <ele>93.4</ele>
        <time>2019-12-20T06:26:31Z</time>
      </trkpt>
      <trkpt lat="38.2738970" lon="-0.6838330">
        <ele>93.4</ele>
        <time>2019-12-20T06:26:32Z</time>
      </trkpt>
      <trkpt lat="38.2739340" lon="-0.6838460">
        <ele>92.8</ele>
        <time>2019-12-20T06:26:41Z</time>
      </trkpt>
      <trkpt lat="38.2739080" lon="-0.6838390">
        <ele>93.4</ele>
        <time>2019-12-20T06:26:42Z</time>
      </trkpt>
      <trkpt lat="38.2738860" lon="-0.6838340">
        <ele>93.4</ele>
        <time>2019-12-20T06:26:44Z</time>
      </trkpt>
      <trkpt lat="38.2738780" lon="-0.6838320">
        <ele>93.4</ele>
        <time>2019-12-20T06:26:45Z</time>
      </trkpt>
      <trkpt lat="38.2738640" lon="-0.6838280">
        <ele>93.4</ele>
        <time>2019-12-20T06:26:47Z</time>
      </trkpt>
      <trkpt lat="38.2738530" lon="-0.6838250">
        <ele>93.4</ele>
        <time>2019-12-20T06:26:49Z</time>
      </trkpt>
      <trkpt lat="38.2738450" lon="-0.6838220">
        <ele>93.4</ele>
        <time>2019-12-20T06:26:51Z</time>
      </trkpt>
      <trkpt lat="38.2739350" lon="-0.6832960">
        <ele>137.6</ele>
        <time>2019-12-20T08:13:22Z</time>
      </trkpt>
      <trkpt lat="38.2739440" lon="-0.6832410">
        <ele>137.6</ele>
        <time>2019-12-20T08:13:23Z</time>
      </trkpt>
      <trkpt lat="38.2739520" lon="-0.6831840">
        <ele>137.6</ele>
        <time>2019-12-20T08:13:24Z</time>
      </trkpt>
      <trkpt lat="38.2739590" lon="-0.6831270">
        <ele>137.6</ele>
        <time>2019-12-20T08:13:25Z</time>
      </trkpt>
      <trkpt lat="38.2739680" lon="-0.6830710">
        <ele>137.8</ele>
        <time>2019-12-20T08:13:26Z</time>
      </trkpt>
      <trkpt lat="38.2739800" lon="-0.6830170">
        <ele>137.8</ele>
        <time>2019-12-20T08:13:27Z</time>
      </trkpt>
      <trkpt lat="38.2739900" lon="-0.6829600">
        <ele>138.0</ele>
        <time>2019-12-20T08:13:28Z</time>
      </trkpt>
      <trkpt lat="38.2739960" lon="-0.6829010">
        <ele>138.0</ele>
        <time>2019-12-20T08:13:29Z</time>
      </trkpt>
      <trkpt lat="38.2740040" lon="-0.6828390">
        <ele>138.0</ele>
        <time>2019-12-20T08:13:30Z</time>
      </trkpt>
      <trkpt lat="38.2740170" lon="-0.6827770">
        <ele>138.0</ele>
        <time>2019-12-20T08:13:31Z</time>
      </trkpt>
      <trkpt lat="38.2740280" lon="-0.6827150">
        <ele>138.0</ele>
        <time>2019-12-20T08:13:32Z</time>
      </trkpt>
      <trkpt lat="38.2740400" lon="-0.6826530">
        <ele>138.2</ele>
        <time>2019-12-20T08:13:33Z</time>
      </trkpt>
      <trkpt lat="38.2740510" lon="-0.6825920">
        <ele>138.2</ele>
        <time>2019-12-20T08:13:34Z</time>
      </trkpt>
      <trkpt lat="38.2740590" lon="-0.6825310">
        <ele>138.4</ele>
        <time>2019-12-20T08:13:35Z</time>
      </trkpt>
      <trkpt lat="38.2740680" lon="-0.6824680">
        <ele>138.4</ele>
        <time>2019-12-20T08:13:36Z</time>
      </trkpt>
      <trkpt lat="38.2740800" lon="-0.6824050">
        <ele>138.4</ele>
        <time>2019-12-20T08:13:37Z</time>
      </trkpt>
      <trkpt lat="38.2740920" lon="-0.6823390">
        <ele>138.6</ele>
        <time>2019-12-20T08:13:38Z</time>
      </trkpt>
      <trkpt lat="38.2741030" lon="-0.6822740">
        <ele>138.6</ele>
        <time>2019-12-20T08:13:39Z</time>
      </trkpt>
      <trkpt lat="38.2741160" lon="-0.6822090">
        <ele>138.6</ele>
        <time>2019-12-20T08:13:40Z</time>
      </trkpt>
      <trkpt lat="38.2741300" lon="-0.6821460">
        <ele>138.6</ele>
        <time>2019-12-20T08:13:41Z</time>
      </trkpt>
      <trkpt lat="38.2741410" lon="-0.6820850">
        <ele>138.6</ele>
        <time>2019-12-20T08:13:42Z</time>
      </trkpt>
      <trkpt lat="38.2741500" lon="-0.6820170">
        <ele>138.6</ele>
        <time>2019-12-20T08:13:43Z</time>
      </trkpt>
      <trkpt lat="38.2741610" lon="-0.6819500">
        <ele>138.6</ele>
        <time>2019-12-20T08:13:44Z</time>
      </trkpt>
      <trkpt lat="38.2741720" lon="-0.6818810">
        <ele>138.8</ele>
        <time>2019-12-20T08:13:45Z</time>
      </trkpt>
      <trkpt lat="38.2741840" lon="-0.6818120">
        <ele>138.8</ele>
        <time>2019-12-20T08:13:46Z</time>
      </trkpt>
      <trkpt lat="38.2741940" lon="-0.6817410">
        <ele>138.8</ele>
        <time>2019-12-20T08:13:47Z</time>
      </trkpt>
      <trkpt lat="38.2742050" lon="-0.6816730">
        <ele>138.8</ele>
        <time>2019-12-20T08:13:48Z</time>
      </trkpt>
      <trkpt lat="38.2742140" lon="-0.6816030">
        <ele>139.0</ele>
        <time>2019-12-20T08:13:49Z</time>
      </trkpt>
      <trkpt lat="38.2742220" lon="-0.6815340">
        <ele>138.8</ele>
        <time>2019-12-20T08:13:50Z</time>
      </trkpt>
      <trkpt lat="38.2742280" lon="-0.6814630">
        <ele>139.0</ele>
        <time>2019-12-20T08:13:51Z</time>
      </trkpt>
      <trkpt lat="38.2742380" lon="-0.6813940">
        <ele>139.0</ele>
        <time>2019-12-20T08:13:52Z</time>
      </trkpt>
      <trkpt lat="38.2742490" lon="-0.6813270">
        <ele>139.0</ele>
        <time>2019-12-20T08:13:53Z</time>
      </trkpt>
      <trkpt lat="38.2742600" lon="-0.6812600">
        <ele>139.0</ele>
        <time>2019-12-20T08:13:54Z</time>
      </trkpt>
      <trkpt lat="38.2742710" lon="-0.6811950">
        <ele>139.4</ele>
        <time>2019-12-20T08:13:55Z</time>
      </trkpt>
      <trkpt lat="38.2742840" lon="-0.6811270">
        <ele>139.2</ele>
        <time>2019-12-20T08:13:56Z</time>
      </trkpt>
      <trkpt lat="38.2742960" lon="-0.6810620">
        <ele>139.2</ele>
        <time>2019-12-20T08:13:57Z</time>
      </trkpt>
      <trkpt lat="38.2743070" lon="-0.6809980">
        <ele>139.4</ele>
        <time>2019-12-20T08:13:58Z</time>
      </trkpt>
      <trkpt lat="38.2743180" lon="-0.6809330">
        <ele>139.4</ele>
        <time>2019-12-20T08:13:59Z</time>
      </trkpt>
      <trkpt lat="38.2743280" lon="-0.6808670">
        <ele>139.4</ele>
        <time>2019-12-20T08:14:00Z</time>
      </trkpt>
      <trkpt lat="38.2743410" lon="-0.6808050">
        <ele>139.6</ele>
        <time>2019-12-20T08:14:01Z</time>
      </trkpt>
      <trkpt lat="38.2743440" lon="-0.6807390">
        <ele>139.6</ele>
        <time>2019-12-20T08:14:02Z</time>
      </trkpt>
      <trkpt lat="38.2743490" lon="-0.6806730">
        <ele>139.6</ele>
        <time>2019-12-20T08:14:03Z</time>
      </trkpt>
      <trkpt lat="38.2743560" lon="-0.6806080">
        <ele>139.8</ele>
        <time>2019-12-20T08:14:04Z</time>
      </trkpt>
      <trkpt lat="38.2743630" lon="-0.6805420">
        <ele>139.8</ele>
        <time>2019-12-20T08:14:05Z</time>
      </trkpt>
      <trkpt lat="38.2743740" lon="-0.6804770">
        <ele>139.6</ele>
        <time>2019-12-20T08:14:06Z</time>
      </trkpt>
      <trkpt lat="38.2743820" lon="-0.6804130">
        <ele>139.8</ele>
        <time>2019-12-20T08:14:07Z</time>
      </trkpt>
      <trkpt lat="38.2743850" lon="-0.6803450">
        <ele>140.0</ele>
        <time>2019-12-20T08:14:08Z</time>
      </trkpt>
      <trkpt lat="38.2743860" lon="-0.6802790">
        <ele>140.0</ele>
        <time>2019-12-20T08:14:09Z</time>
      </trkpt>
      <trkpt lat="38.2743830" lon="-0.6802140">
        <ele>140.0</ele>
        <time>2019-12-20T08:14:10Z</time>
      </trkpt>
      <trkpt lat="38.2743910" lon="-0.6801440">
        <ele>140.0</ele>
        <time>2019-12-20T08:14:11Z</time>
      </trkpt>
      <trkpt lat="38.2743990" lon="-0.6800710">
        <ele>140.0</ele>
        <time>2019-12-20T08:14:12Z</time>
      </trkpt>
      <trkpt lat="38.2744170" lon="-0.6799970">
        <ele>139.8</ele>
        <time>2019-12-20T08:14:13Z</time>
      </trkpt>
      <trkpt lat="38.2744430" lon="-0.6799280">
        <ele>140.2</ele>
        <time>2019-12-20T08:14:14Z</time>
      </trkpt>
      <trkpt lat="38.2744760" lon="-0.6798640">
        <ele>140.2</ele>
        <time>2019-12-20T08:14:15Z</time>
      </trkpt>
      <trkpt lat="38.2745030" lon="-0.6797980">
        <ele>140.2</ele>
        <time>2019-12-20T08:14:16Z</time>
      </trkpt>
      <trkpt lat="38.2745260" lon="-0.6797280">
        <ele>140.4</ele>
        <time>2019-12-20T08:14:17Z</time>
      </trkpt>
      <trkpt lat="38.2745420" lon="-0.6796570">
        <ele>140.4</ele>
        <time>2019-12-20T08:14:18Z</time>
      </trkpt>
      <trkpt lat="38.2745550" lon="-0.6795840">
        <ele>140.4</ele>
        <time>2019-12-20T08:14:19Z</time>
      </trkpt>
      <trkpt lat="38.2745650" lon="-0.6795090">
        <ele>140.6</ele>
        <time>2019-12-20T08:14:20Z</time>
      </trkpt>
      <trkpt lat="38.2745780" lon="-0.6794360">
        <ele>140.4</ele>
        <time>2019-12-20T08:14:21Z</time>
      </trkpt>
      <trkpt lat="38.2745900" lon="-0.6793650">
        <ele>141.0</ele>
        <time>2019-12-20T08:14:22Z</time>
      </trkpt>
      <trkpt lat="38.2746050" lon="-0.6792930">
        <ele>141.0</ele>
        <time>2019-12-20T08:14:23Z</time>
      </trkpt>
      <trkpt lat="38.2746210" lon="-0.6792240">
        <ele>141.2</ele>
        <time>2019-12-20T08:14:24Z</time>
      </trkpt>
      <trkpt lat="38.2746380" lon="-0.6791530">
        <ele>141.2</ele>
        <time>2019-12-20T08:14:25Z</time>
      </trkpt>
      <trkpt lat="38.2746550" lon="-0.6790800">
        <ele>141.0</ele>
        <time>2019-12-20T08:14:26Z</time>
      </trkpt>
      <trkpt lat="38.2746690" lon="-0.6790020">
        <ele>141.0</ele>
        <time>2019-12-20T08:14:27Z</time>
      </trkpt>
      <trkpt lat="38.2746840" lon="-0.6789240">
        <ele>140.8</ele>
        <time>2019-12-20T08:14:28Z</time>
      </trkpt>
      <trkpt lat="38.2746960" lon="-0.6788500">
        <ele>141.0</ele>
        <time>2019-12-20T08:14:29Z</time>
      </trkpt>
      <trkpt lat="38.2747090" lon="-0.6787750">
        <ele>141.0</ele>
        <time>2019-12-20T08:14:30Z</time>
      </trkpt>
      <trkpt lat="38.2747210" lon="-0.6787000">
        <ele>141.0</ele>
        <time>2019-12-20T08:14:31Z</time>
      </trkpt>
      <trkpt lat="38.2747310" lon="-0.6786250">
        <ele>141.2</ele>
        <time>2019-12-20T08:14:32Z</time>
      </trkpt>
      <trkpt lat="38.2747440" lon="-0.6785480">
        <ele>141.2</ele>
        <time>2019-12-20T08:14:33Z</time>
      </trkpt>
      <trkpt lat="38.2747570" lon="-0.6784740">
        <ele>141.2</ele>
        <time>2019-12-20T08:14:34Z</time>
      </trkpt>
      <trkpt lat="38.2747700" lon="-0.6784000">
        <ele>141.4</ele>
        <time>2019-12-20T08:14:35Z</time>
      </trkpt>
      <trkpt lat="38.2747790" lon="-0.6783260">
        <ele>141.4</ele>
        <time>2019-12-20T08:14:36Z</time>
      </trkpt>
      <trkpt lat="38.2747860" lon="-0.6782530">
        <ele>141.4</ele>
        <time>2019-12-20T08:14:37Z</time>
      </trkpt>
      <trkpt lat="38.2747930" lon="-0.6781790">
        <ele>141.4</ele>
        <time>2019-12-20T08:14:38Z</time>
      </trkpt>
      <trkpt lat="38.2748040" lon="-0.6781040">
        <ele>141.4</ele>
        <time>2019-12-20T08:14:39Z</time>
      </trkpt>
      <trkpt lat="38.2748140" lon="-0.6780300">
        <ele>141.6</ele>
        <time>2019-12-20T08:14:40Z</time>
      </trkpt>
      <trkpt lat="38.2748240" lon="-0.6779560">
        <ele>141.6</ele>
        <time>2019-12-20T08:14:41Z</time>
      </trkpt>
      <trkpt lat="38.2748370" lon="-0.6778820">
        <ele>141.6</ele>
        <time>2019-12-20T08:14:42Z</time>
      </trkpt>
      <trkpt lat="38.2748510" lon="-0.6778080">
        <ele>141.8</ele>
        <time>2019-12-20T08:14:43Z</time>
      </trkpt>
      <trkpt lat="38.2748700" lon="-0.6777340">
        <ele>141.8</ele>
        <time>2019-12-20T08:14:44Z</time>
      </trkpt>
      <trkpt lat="38.2748830" lon="-0.6776610">
        <ele>142.0</ele>
        <time>2019-12-20T08:14:45Z</time>
      </trkpt>
      <trkpt lat="38.2748950" lon="-0.6775880">
        <ele>141.8</ele>
        <time>2019-12-20T08:14:46Z</time>
      </trkpt>
      <trkpt lat="38.2749160" lon="-0.6775150">
        <ele>142.0</ele>
        <time>2019-12-20T08:14:47Z</time>
      </trkpt>
      <trkpt lat="38.2749300" lon="-0.6774430">
        <ele>142.0</ele>
        <time>2019-12-20T08:14:48Z</time>
      </trkpt>
      <trkpt lat="38.2749440" lon="-0.6773710">
        <ele>142.0</ele>
        <time>2019-12-20T08:14:49Z</time>
      </trkpt>
      <trkpt lat="38.2749560" lon="-0.6772970">
        <ele>142.0</ele>
        <time>2019-12-20T08:14:50Z</time>
      </trkpt>
      <trkpt lat="38.2749660" lon="-0.6772200">
        <ele>142.0</ele>
        <time>2019-12-20T08:14:51Z</time>
      </trkpt>
      <trkpt lat="38.2749780" lon="-0.6771480">
        <ele>142.2</ele>
        <time>2019-12-20T08:14:52Z</time>
      </trkpt>
      <trkpt lat="38.2749890" lon="-0.6770750">
        <ele>142.2</ele>
        <time>2019-12-20T08:14:53Z</time>
      </trkpt>
      <trkpt lat="38.2749930" lon="-0.6770050">
        <ele>142.4</ele>
        <time>2019-12-20T08:14:54Z</time>
      </trkpt>
      <trkpt lat="38.2749970" lon="-0.6769320">
        <ele>142.6</ele>
        <time>2019-12-20T08:14:55Z</time>
      </trkpt>
      <trkpt lat="38.2750040" lon="-0.6768570">
        <ele>142.6</ele>
        <time>2019-12-20T08:14:56Z</time>
      </trkpt>
      <trkpt lat="38.2750080" lon="-0.6767820">
        <ele>142.6</ele>
        <time>2019-12-20T08:14:57Z</time>
      </trkpt>
      <trkpt lat="38.2750150" lon="-0.6767050">
        <ele>142.4</ele>
        <time>2019-12-20T08:14:58Z</time>
      </trkpt>
      <trkpt lat="38.2750260" lon="-0.6766300">
        <ele>142.4</ele>
        <time>2019-12-20T08:14:59Z</time>
      </trkpt>
      <trkpt lat="38.2750400" lon="-0.6765560">
        <ele>142.4</ele>
        <time>2019-12-20T08:15:00Z</time>
      </trkpt>
      <trkpt lat="38.2750500" lon="-0.6764810">
        <ele>142.4</ele>
        <time>2019-12-20T08:15:01Z</time>
      </trkpt>
      <trkpt lat="38.2750480" lon="-0.6764060">
        <ele>142.4</ele>
        <time>2019-12-20T08:15:02Z</time>
      </trkpt>
      <trkpt lat="38.2750380" lon="-0.6763330">
        <ele>142.4</ele>
        <time>2019-12-20T08:15:03Z</time>
      </trkpt>
      <trkpt lat="38.2750220" lon="-0.6762590">
        <ele>142.2</ele>
        <time>2019-12-20T08:15:04Z</time>
      </trkpt>
      <trkpt lat="38.2750030" lon="-0.6761850">
        <ele>142.4</ele>
        <time>2019-12-20T08:15:05Z</time>
      </trkpt>
      <trkpt lat="38.2749860" lon="-0.6761090">
        <ele>142.2</ele>
        <time>2019-12-20T08:15:06Z</time>
      </trkpt>
      <trkpt lat="38.2749690" lon="-0.6760320">
        <ele>142.2</ele>
        <time>2019-12-20T08:15:07Z</time>
      </trkpt>
      <trkpt lat="38.2749530" lon="-0.6759560">
        <ele>142.0</ele>
        <time>2019-12-20T08:15:08Z</time>
      </trkpt>
      <trkpt lat="38.2749360" lon="-0.6758790">
        <ele>142.0</ele>
        <time>2019-12-20T08:15:09Z</time>
      </trkpt>
      <trkpt lat="38.2749170" lon="-0.6758030">
        <ele>142.0</ele>
        <time>2019-12-20T08:15:10Z</time>
      </trkpt>
      <trkpt lat="38.2748970" lon="-0.6757250">
        <ele>142.0</ele>
        <time>2019-12-20T08:15:11Z</time>
      </trkpt>
      <trkpt lat="38.2748800" lon="-0.6756460">
        <ele>142.0</ele>
        <time>2019-12-20T08:15:12Z</time>
      </trkpt>
      <trkpt lat="38.2748610" lon="-0.6755650">
        <ele>141.8</ele>
        <time>2019-12-20T08:15:13Z</time>
      </trkpt>
      <trkpt lat="38.2748440" lon="-0.6754840">
        <ele>141.8</ele>
        <time>2019-12-20T08:15:14Z</time>
      </trkpt>
      <trkpt lat="38.2748270" lon="-0.6754020">
        <ele>141.8</ele>
        <time>2019-12-20T08:15:15Z</time>
      </trkpt>
      <trkpt lat="38.2748100" lon="-0.6753200">
        <ele>141.8</ele>
        <time>2019-12-20T08:15:16Z</time>
      </trkpt>
      <trkpt lat="38.2747920" lon="-0.6752370">
        <ele>141.6</ele>
        <time>2019-12-20T08:15:17Z</time>
      </trkpt>
      <trkpt lat="38.2747750" lon="-0.6751540">
        <ele>141.6</ele>
        <time>2019-12-20T08:15:18Z</time>
      </trkpt>
      <trkpt lat="38.2747580" lon="-0.6750700">
        <ele>141.4</ele>
        <time>2019-12-20T08:15:19Z</time>
      </trkpt>
      <trkpt lat="38.2747420" lon="-0.6749860">
        <ele>141.2</ele>
        <time>2019-12-20T08:15:20Z</time>
      </trkpt>
      <trkpt lat="38.2747260" lon="-0.6749000">
        <ele>141.2</ele>
        <time>2019-12-20T08:15:21Z</time>
      </trkpt>
      <trkpt lat="38.2747080" lon="-0.6748150">
        <ele>141.2</ele>
        <time>2019-12-20T08:15:22Z</time>
      </trkpt>
      <trkpt lat="38.2746900" lon="-0.6747300">
        <ele>141.2</ele>
        <time>2019-12-20T08:15:23Z</time>
      </trkpt>
      <trkpt lat="38.2746710" lon="-0.6746460">
        <ele>141.0</ele>
        <time>2019-12-20T08:15:24Z</time>
      </trkpt>
      <trkpt lat="38.2746540" lon="-0.6745600">
        <ele>140.8</ele>
        <time>2019-12-20T08:15:25Z</time>
      </trkpt>
      <trkpt lat="38.2746360" lon="-0.6744740">
        <ele>140.8</ele>
        <time>2019-12-20T08:15:26Z</time>
      </trkpt>
      <trkpt lat="38.2746180" lon="-0.6743890">
        <ele>140.8</ele>
        <time>2019-12-20T08:15:27Z</time>
      </trkpt>
      <trkpt lat="38.2746000" lon="-0.6743040">
        <ele>140.6</ele>
        <time>2019-12-20T08:15:28Z</time>
      </trkpt>
      <trkpt lat="38.2745800" lon="-0.6742170">
        <ele>140.4</ele>
        <time>2019-12-20T08:15:29Z</time>
      </trkpt>
      <trkpt lat="38.2745590" lon="-0.6741310">
        <ele>140.2</ele>
        <time>2019-12-20T08:15:30Z</time>
      </trkpt>
      <trkpt lat="38.2745390" lon="-0.6740430">
        <ele>140.2</ele>
        <time>2019-12-20T08:15:31Z</time>
      </trkpt>
      <trkpt lat="38.2745210" lon="-0.6739550">
        <ele>140.2</ele>
        <time>2019-12-20T08:15:32Z</time>
      </trkpt>
      <trkpt lat="38.2745030" lon="-0.6738670">
        <ele>140.2</ele>
        <time>2019-12-20T08:15:33Z</time>
      </trkpt>
      <trkpt lat="38.2744870" lon="-0.6737810">
        <ele>140.0</ele>
        <time>2019-12-20T08:15:34Z</time>
      </trkpt>
      <trkpt lat="38.2744680" lon="-0.6736950">
        <ele>139.8</ele>
        <time>2019-12-20T08:15:35Z</time>
      </trkpt>
      <trkpt lat="38.2744480" lon="-0.6736110">
        <ele>139.8</ele>
        <time>2019-12-20T08:15:36Z</time>
      </trkpt>
      <trkpt lat="38.2744170" lon="-0.6735340">
        <ele>139.6</ele>
        <time>2019-12-20T08:15:37Z</time>
      </trkpt>
      <trkpt lat="38.2743730" lon="-0.6734740">
        <ele>139.4</ele>
        <time>2019-12-20T08:15:38Z</time>
      </trkpt>
      <trkpt lat="38.2743220" lon="-0.6734240">
        <ele>139.4</ele>
        <time>2019-12-20T08:15:39Z</time>
      </trkpt>
      <trkpt lat="38.2742720" lon="-0.6733730">
        <ele>139.4</ele>
        <time>2019-12-20T08:15:40Z</time>
      </trkpt>
      <trkpt lat="38.2742300" lon="-0.6733110">
        <ele>139.6</ele>
        <time>2019-12-20T08:15:41Z</time>
      </trkpt>
      <trkpt lat="38.2742020" lon="-0.6732380">
        <ele>139.6</ele>
        <time>2019-12-20T08:15:42Z</time>
      </trkpt>
      <trkpt lat="38.2741900" lon="-0.6731560">
        <ele>139.4</ele>
        <time>2019-12-20T08:15:43Z</time>
      </trkpt>
      <trkpt lat="38.2741930" lon="-0.6730670">
        <ele>139.2</ele>
        <time>2019-12-20T08:15:44Z</time>
      </trkpt>
      <trkpt lat="38.2742090" lon="-0.6729790">
        <ele>139.0</ele>
        <time>2019-12-20T08:15:45Z</time>
      </trkpt>
      <trkpt lat="38.2742310" lon="-0.6728950">
        <ele>138.8</ele>
        <time>2019-12-20T08:15:46Z</time>
      </trkpt>
      <trkpt lat="38.2742440" lon="-0.6728120">
        <ele>138.6</ele>
        <time>2019-12-20T08:15:47Z</time>
      </trkpt>
      <trkpt lat="38.2742380" lon="-0.6727260">
        <ele>138.6</ele>
        <time>2019-12-20T08:15:48Z</time>
      </trkpt>
      <trkpt lat="38.2742190" lon="-0.6726460">
        <ele>138.4</ele>
        <time>2019-12-20T08:15:49Z</time>
      </trkpt>
      <trkpt lat="38.2741910" lon="-0.6725690">
        <ele>138.2</ele>
        <time>2019-12-20T08:15:50Z</time>
      </trkpt>
      <trkpt lat="38.2741620" lon="-0.6724970">
        <ele>138.2</ele>
        <time>2019-12-20T08:15:51Z</time>
      </trkpt>
      <trkpt lat="38.2741260" lon="-0.6724240">
        <ele>138.0</ele>
        <time>2019-12-20T08:15:52Z</time>
      </trkpt>
      <trkpt lat="38.2740870" lon="-0.6723550">
        <ele>137.8</ele>
        <time>2019-12-20T08:15:53Z</time>
      </trkpt>
      <trkpt lat="38.2740460" lon="-0.6722830">
        <ele>138.0</ele>
        <time>2019-12-20T08:15:54Z</time>
      </trkpt>
      <trkpt lat="38.2740030" lon="-0.6722130">
        <ele>137.6</ele>
        <time>2019-12-20T08:15:55Z</time>
      </trkpt>
      <trkpt lat="38.2739570" lon="-0.6721440">
        <ele>137.6</ele>
        <time>2019-12-20T08:15:56Z</time>
      </trkpt>
      <trkpt lat="38.2739100" lon="-0.6720790">
        <ele>137.4</ele>
        <time>2019-12-20T08:15:57Z</time>
      </trkpt>
      <trkpt lat="38.2738600" lon="-0.6720160">
        <ele>137.4</ele>
        <time>2019-12-20T08:15:58Z</time>
      </trkpt>
      <trkpt lat="38.2738090" lon="-0.6719570">
        <ele>137.2</ele>
        <time>2019-12-20T08:15:59Z</time>
      </trkpt>
      <trkpt lat="38.2737560" lon="-0.6718970">
        <ele>136.8</ele>
        <time>2019-12-20T08:16:00Z</time>
      </trkpt>
      <trkpt lat="38.2737000" lon="-0.6718400">
        <ele>136.6</ele>
        <time>2019-12-20T08:16:01Z</time>
      </trkpt>
      <trkpt lat="38.2736420" lon="-0.6717860">
        <ele>136.8</ele>
        <time>2019-12-20T08:16:02Z</time>
      </trkpt>
      <trkpt lat="38.2735830" lon="-0.6717350">
        <ele>136.8</ele>
        <time>2019-12-20T08:16:03Z</time>
      </trkpt>
      <trkpt lat="38.2735210" lon="-0.6716860">
        <ele>136.8</ele>
        <time>2019-12-20T08:16:04Z</time>
      </trkpt>
      <trkpt lat="38.2734600" lon="-0.6716420">
        <ele>136.6</ele>
        <time>2019-12-20T08:16:05Z</time>
      </trkpt>
      <trkpt lat="38.2733970" lon="-0.6716020">
        <ele>136.4</ele>
        <time>2019-12-20T08:16:06Z</time>
      </trkpt>
      <trkpt lat="38.2733330" lon="-0.6715660">
        <ele>136.4</ele>
        <time>2019-12-20T08:16:07Z</time>
      </trkpt>
      <trkpt lat="38.2732670" lon="-0.6715330">
        <ele>136.4</ele>
        <time>2019-12-20T08:16:08Z</time>
      </trkpt>
      <trkpt lat="38.2732010" lon="-0.6715020">
        <ele>136.2</ele>
        <time>2019-12-20T08:16:09Z</time>
      </trkpt>
      <trkpt lat="38.2731360" lon="-0.6714730">
        <ele>136.0</ele>
        <time>2019-12-20T08:16:10Z</time>
      </trkpt>
      <trkpt lat="38.2730710" lon="-0.6714450">
        <ele>136.0</ele>
        <time>2019-12-20T08:16:11Z</time>
      </trkpt>
      <trkpt lat="38.2730060" lon="-0.6714180">
        <ele>136.2</ele>
        <time>2019-12-20T08:16:12Z</time>
      </trkpt>
      <trkpt lat="38.2729430" lon="-0.6713920">
        <ele>136.2</ele>
        <time>2019-12-20T08:16:13Z</time>
      </trkpt>
      <trkpt lat="38.2728820" lon="-0.6713670">
        <ele>136.0</ele>
        <time>2019-12-20T08:16:14Z</time>
      </trkpt>
      <trkpt lat="38.2728300" lon="-0.6713510">
        <ele>136.2</ele>
        <time>2019-12-20T08:16:15Z</time>
      </trkpt>
      <trkpt lat="38.2727930" lon="-0.6713460">
        <ele>136.2</ele>
        <time>2019-12-20T08:16:16Z</time>
      </trkpt>
      <trkpt lat="38.2727660" lon="-0.6713510">
        <ele>136.4</ele>
        <time>2019-12-20T08:16:17Z</time>
      </trkpt>
      <trkpt lat="38.2727450" lon="-0.6713510">
        <ele>136.4</ele>
        <time>2019-12-20T08:16:18Z</time>
      </trkpt>
      <trkpt lat="38.2727270" lon="-0.6713590">
        <ele>136.4</ele>
        <time>2019-12-20T08:16:19Z</time>
      </trkpt>
      <trkpt lat="38.2726990" lon="-0.6713660">
        <ele>136.2</ele>
        <time>2019-12-20T08:16:20Z</time>
      </trkpt>
      <trkpt lat="38.2726710" lon="-0.6713800">
        <ele>136.2</ele>
        <time>2019-12-20T08:16:21Z</time>
      </trkpt>
      <trkpt lat="38.2726380" lon="-0.6714000">
        <ele>136.2</ele>
        <time>2019-12-20T08:16:22Z</time>
      </trkpt>
      <trkpt lat="38.2725990" lon="-0.6714150">
        <ele>136.2</ele>
        <time>2019-12-20T08:16:23Z</time>
      </trkpt>
      <trkpt lat="38.2725570" lon="-0.6714280">
        <ele>136.0</ele>
        <time>2019-12-20T08:16:24Z</time>
      </trkpt>
      <trkpt lat="38.2725110" lon="-0.6714370">
        <ele>136.0</ele>
        <time>2019-12-20T08:16:25Z</time>
      </trkpt>
      <trkpt lat="38.2724620" lon="-0.6714380">
        <ele>136.0</ele>
        <time>2019-12-20T08:16:26Z</time>
      </trkpt>
      <trkpt lat="38.2724110" lon="-0.6714290">
        <ele>136.0</ele>
        <time>2019-12-20T08:16:27Z</time>
      </trkpt>
      <trkpt lat="38.2723610" lon="-0.6714130">
        <ele>135.8</ele>
        <time>2019-12-20T08:16:28Z</time>
      </trkpt>
      <trkpt lat="38.2723090" lon="-0.6713860">
        <ele>135.8</ele>
        <time>2019-12-20T08:16:29Z</time>
      </trkpt>
      <trkpt lat="38.2722610" lon="-0.6713470">
        <ele>135.6</ele>
        <time>2019-12-20T08:16:30Z</time>
      </trkpt>
      <trkpt lat="38.2722190" lon="-0.6713000">
        <ele>135.6</ele>
        <time>2019-12-20T08:16:31Z</time>
      </trkpt>
      <trkpt lat="38.2721820" lon="-0.6712430">
        <ele>135.6</ele>
        <time>2019-12-20T08:16:32Z</time>
      </trkpt>
      <trkpt lat="38.2721520" lon="-0.6711750">
        <ele>135.2</ele>
        <time>2019-12-20T08:16:33Z</time>
      </trkpt>
      <trkpt lat="38.2721270" lon="-0.6711010">
        <ele>135.2</ele>
        <time>2019-12-20T08:16:34Z</time>
      </trkpt>
      <trkpt lat="38.2721110" lon="-0.6710180">
        <ele>135.2</ele>
        <time>2019-12-20T08:16:35Z</time>
      </trkpt>
      <trkpt lat="38.2721070" lon="-0.6709300">
        <ele>135.2</ele>
        <time>2019-12-20T08:16:36Z</time>
      </trkpt>
      <trkpt lat="38.2721150" lon="-0.6708380">
        <ele>135.0</ele>
        <time>2019-12-20T08:16:37Z</time>
      </trkpt>
      <trkpt lat="38.2721350" lon="-0.6707480">
        <ele>135.2</ele>
        <time>2019-12-20T08:16:38Z</time>
      </trkpt>
      <trkpt lat="38.2721670" lon="-0.6706660">
        <ele>135.2</ele>
        <time>2019-12-20T08:16:39Z</time>
      </trkpt>
      <trkpt lat="38.2722100" lon="-0.6705930">
        <ele>135.2</ele>
        <time>2019-12-20T08:16:40Z</time>
      </trkpt>
      <trkpt lat="38.2722620" lon="-0.6705320">
        <ele>135.4</ele>
        <time>2019-12-20T08:16:41Z</time>
      </trkpt>
      <trkpt lat="38.2723210" lon="-0.6704880">
        <ele>135.6</ele>
        <time>2019-12-20T08:16:42Z</time>
      </trkpt>
      <trkpt lat="38.2723810" lon="-0.6704490">
        <ele>135.8</ele>
        <time>2019-12-20T08:16:43Z</time>
      </trkpt>
      <trkpt lat="38.2724410" lon="-0.6704120">
        <ele>136.0</ele>
        <time>2019-12-20T08:16:44Z</time>
      </trkpt>
      <trkpt lat="38.2724970" lon="-0.6703610">
        <ele>136.0</ele>
        <time>2019-12-20T08:16:45Z</time>
      </trkpt>
      <trkpt lat="38.2725400" lon="-0.6702940">
        <ele>136.0</ele>
        <time>2019-12-20T08:16:46Z</time>
      </trkpt>
      <trkpt lat="38.2725710" lon="-0.6702140">
        <ele>136.2</ele>
        <time>2019-12-20T08:16:47Z</time>
      </trkpt>
      <trkpt lat="38.2725930" lon="-0.6701250">
        <ele>136.4</ele>
        <time>2019-12-20T08:16:48Z</time>
      </trkpt>
      <trkpt lat="38.2726130" lon="-0.6700380">
        <ele>136.4</ele>
        <time>2019-12-20T08:16:49Z</time>
      </trkpt>
      <trkpt lat="38.2726360" lon="-0.6699510">
        <ele>136.4</ele>
        <time>2019-12-20T08:16:50Z</time>
      </trkpt>
      <trkpt lat="38.2726590" lon="-0.6698620">
        <ele>136.6</ele>
        <time>2019-12-20T08:16:51Z</time>
      </trkpt>
      <trkpt lat="38.2726810" lon="-0.6697720">
        <ele>136.6</ele>
        <time>2019-12-20T08:16:52Z</time>
      </trkpt>
      <trkpt lat="38.2727050" lon="-0.6696800">
        <ele>136.6</ele>
        <time>2019-12-20T08:16:53Z</time>
      </trkpt>
      <trkpt lat="38.2727280" lon="-0.6695880">
        <ele>136.6</ele>
        <time>2019-12-20T08:16:54Z</time>
      </trkpt>
      <trkpt lat="38.2727500" lon="-0.6694990">
        <ele>136.4</ele>
        <time>2019-12-20T08:16:55Z</time>
      </trkpt>
      <trkpt lat="38.2727740" lon="-0.6694090">
        <ele>136.8</ele>
        <time>2019-12-20T08:16:56Z</time>
      </trkpt>
      <trkpt lat="38.2727980" lon="-0.6693180">
        <ele>136.6</ele>
        <time>2019-12-20T08:16:57Z</time>
      </trkpt>
      <trkpt lat="38.2728220" lon="-0.6692270">
        <ele>136.8</ele>
        <time>2019-12-20T08:16:58Z</time>
      </trkpt>
      <trkpt lat="38.2728460" lon="-0.6691380">
        <ele>136.6</ele>
        <time>2019-12-20T08:16:59Z</time>
      </trkpt>
      <trkpt lat="38.2728700" lon="-0.6690490">
        <ele>136.8</ele>
        <time>2019-12-20T08:17:00Z</time>
      </trkpt>
      <trkpt lat="38.2728920" lon="-0.6689600">
        <ele>136.8</ele>
        <time>2019-12-20T08:17:01Z</time>
      </trkpt>
      <trkpt lat="38.2729160" lon="-0.6688710">
        <ele>136.8</ele>
        <time>2019-12-20T08:17:02Z</time>
      </trkpt>
      <trkpt lat="38.2729400" lon="-0.6687810">
        <ele>137.0</ele>
        <time>2019-12-20T08:17:03Z</time>
      </trkpt>
      <trkpt lat="38.2729640" lon="-0.6686900">
        <ele>137.0</ele>
        <time>2019-12-20T08:17:04Z</time>
      </trkpt>
      <trkpt lat="38.2729890" lon="-0.6685980">
        <ele>137.0</ele>
        <time>2019-12-20T08:17:05Z</time>
      </trkpt>
      <trkpt lat="38.2730130" lon="-0.6685060">
        <ele>137.0</ele>
        <time>2019-12-20T08:17:06Z</time>
      </trkpt>
      <trkpt lat="38.2730370" lon="-0.6684160">
        <ele>137.0</ele>
        <time>2019-12-20T08:17:07Z</time>
      </trkpt>
      <trkpt lat="38.2730610" lon="-0.6683250">
        <ele>137.2</ele>
        <time>2019-12-20T08:17:08Z</time>
      </trkpt>
      <trkpt lat="38.2730850" lon="-0.6682340">
        <ele>137.2</ele>
        <time>2019-12-20T08:17:09Z</time>
      </trkpt>
      <trkpt lat="38.2731080" lon="-0.6681420">
        <ele>137.2</ele>
        <time>2019-12-20T08:17:10Z</time>
      </trkpt>
      <trkpt lat="38.2731310" lon="-0.6680510">
        <ele>137.2</ele>
        <time>2019-12-20T08:17:11Z</time>
      </trkpt>
      <trkpt lat="38.2731540" lon="-0.6679600">
        <ele>137.2</ele>
        <time>2019-12-20T08:17:12Z</time>
      </trkpt>
      <trkpt lat="38.2731780" lon="-0.6678680">
        <ele>137.2</ele>
        <time>2019-12-20T08:17:13Z</time>
      </trkpt>
      <trkpt lat="38.2732010" lon="-0.6677770">
        <ele>137.4</ele>
        <time>2019-12-20T08:17:14Z</time>
      </trkpt>
      <trkpt lat="38.2732250" lon="-0.6676850">
        <ele>137.4</ele>
        <time>2019-12-20T08:17:15Z</time>
      </trkpt>
      <trkpt lat="38.2732480" lon="-0.6675920">
        <ele>137.4</ele>
        <time>2019-12-20T08:17:16Z</time>
      </trkpt>
      <trkpt lat="38.2732710" lon="-0.6674980">
        <ele>137.2</ele>
        <time>2019-12-20T08:17:17Z</time>
      </trkpt>
      <trkpt lat="38.2732960" lon="-0.6674040">
        <ele>137.2</ele>
        <time>2019-12-20T08:17:18Z</time>
      </trkpt>
      <trkpt lat="38.2733210" lon="-0.6673100">
        <ele>137.2</ele>
        <time>2019-12-20T08:17:19Z</time>
      </trkpt>
      <trkpt lat="38.2733450" lon="-0.6672170">
        <ele>137.2</ele>
        <time>2019-12-20T08:17:20Z</time>
      </trkpt>
      <trkpt lat="38.2733690" lon="-0.6671250">
        <ele>137.2</ele>
        <time>2019-12-20T08:17:21Z</time>
      </trkpt>
      <trkpt lat="38.2733940" lon="-0.6670350">
        <ele>137.4</ele>
        <time>2019-12-20T08:17:22Z</time>
      </trkpt>
      <trkpt lat="38.2734170" lon="-0.6669430">
        <ele>137.4</ele>
        <time>2019-12-20T08:17:23Z</time>
      </trkpt>
      <trkpt lat="38.2734420" lon="-0.6668510">
        <ele>137.4</ele>
        <time>2019-12-20T08:17:24Z</time>
      </trkpt>
      <trkpt lat="38.2734670" lon="-0.6667580">
        <ele>137.4</ele>
        <time>2019-12-20T08:17:25Z</time>
      </trkpt>
      <trkpt lat="38.2734910" lon="-0.6666660">
        <ele>137.4</ele>
        <time>2019-12-20T08:17:26Z</time>
      </trkpt>
      <trkpt lat="38.2735160" lon="-0.6665730">
        <ele>137.4</ele>
        <time>2019-12-20T08:17:27Z</time>
      </trkpt>
      <trkpt lat="38.2735420" lon="-0.6664790">
        <ele>137.2</ele>
        <time>2019-12-20T08:17:28Z</time>
      </trkpt>
      <trkpt lat="38.2735670" lon="-0.6663860">
        <ele>137.0</ele>
        <time>2019-12-20T08:17:29Z</time>
      </trkpt>
      <trkpt lat="38.2735940" lon="-0.6662930">
        <ele>137.0</ele>
        <time>2019-12-20T08:17:30Z</time>
      </trkpt>
      <trkpt lat="38.2736190" lon="-0.6662000">
        <ele>137.0</ele>
        <time>2019-12-20T08:17:31Z</time>
      </trkpt>
      <trkpt lat="38.2736420" lon="-0.6661050">
        <ele>137.0</ele>
        <time>2019-12-20T08:17:32Z</time>
      </trkpt>
      <trkpt lat="38.2736640" lon="-0.6660100">
        <ele>137.4</ele>
        <time>2019-12-20T08:17:33Z</time>
      </trkpt>
      <trkpt lat="38.2736910" lon="-0.6659150">
        <ele>137.2</ele>
        <time>2019-12-20T08:17:34Z</time>
      </trkpt>
      <trkpt lat="38.2737160" lon="-0.6658220">
        <ele>137.0</ele>
        <time>2019-12-20T08:17:35Z</time>
      </trkpt>
      <trkpt lat="38.2737400" lon="-0.6657280">
        <ele>137.0</ele>
        <time>2019-12-20T08:17:36Z</time>
      </trkpt>
      <trkpt lat="38.2737630" lon="-0.6656320">
        <ele>137.0</ele>
        <time>2019-12-20T08:17:37Z</time>
      </trkpt>
      <trkpt lat="38.2737800" lon="-0.6655350">
        <ele>136.8</ele>
        <time>2019-12-20T08:17:38Z</time>
      </trkpt>
      <trkpt lat="38.2737800" lon="-0.6654360">
        <ele>136.6</ele>
        <time>2019-12-20T08:17:39Z</time>
      </trkpt>
      <trkpt lat="38.2737620" lon="-0.6653420">
        <ele>136.4</ele>
        <time>2019-12-20T08:17:40Z</time>
      </trkpt>
      <trkpt lat="38.2737280" lon="-0.6652580">
        <ele>136.6</ele>
        <time>2019-12-20T08:17:41Z</time>
      </trkpt>
      <trkpt lat="38.2736850" lon="-0.6651820">
        <ele>136.6</ele>
        <time>2019-12-20T08:17:42Z</time>
      </trkpt>
      <trkpt lat="38.2736300" lon="-0.6651180">
        <ele>136.2</ele>
        <time>2019-12-20T08:17:43Z</time>
      </trkpt>
      <trkpt lat="38.2735640" lon="-0.6650660">
        <ele>136.0</ele>
        <time>2019-12-20T08:17:44Z</time>
      </trkpt>
      <trkpt lat="38.2734910" lon="-0.6650300">
        <ele>135.8</ele>
        <time>2019-12-20T08:17:45Z</time>
      </trkpt>
      <trkpt lat="38.2734160" lon="-0.6650040">
        <ele>135.6</ele>
        <time>2019-12-20T08:17:46Z</time>
      </trkpt>
      <trkpt lat="38.2733410" lon="-0.6649700">
        <ele>135.4</ele>
        <time>2019-12-20T08:17:47Z</time>
      </trkpt>
      <trkpt lat="38.2732670" lon="-0.6649350">
        <ele>135.6</ele>
        <time>2019-12-20T08:17:48Z</time>
      </trkpt>
      <trkpt lat="38.2731920" lon="-0.6649040">
        <ele>135.4</ele>
        <time>2019-12-20T08:17:49Z</time>
      </trkpt>
      <trkpt lat="38.2731160" lon="-0.6648740">
        <ele>135.2</ele>
        <time>2019-12-20T08:17:50Z</time>
      </trkpt>
      <trkpt lat="38.2730400" lon="-0.6648460">
        <ele>135.0</ele>
        <time>2019-12-20T08:17:51Z</time>
      </trkpt>
      <trkpt lat="38.2729670" lon="-0.6648180">
        <ele>134.8</ele>
        <time>2019-12-20T08:17:52Z</time>
      </trkpt>
      <trkpt lat="38.2728930" lon="-0.6647860">
        <ele>134.6</ele>
        <time>2019-12-20T08:17:53Z</time>
      </trkpt>
      <trkpt lat="38.2728190" lon="-0.6647540">
        <ele>134.6</ele>
        <time>2019-12-20T08:17:54Z</time>
      </trkpt>
      <trkpt lat="38.2727450" lon="-0.6647190">
        <ele>134.4</ele>
        <time>2019-12-20T08:17:55Z</time>
      </trkpt>
      <trkpt lat="38.2726710" lon="-0.6646840">
        <ele>134.2</ele>
        <time>2019-12-20T08:17:56Z</time>
      </trkpt>
      <trkpt lat="38.2725980" lon="-0.6646500">
        <ele>134.2</ele>
        <time>2019-12-20T08:17:57Z</time>
      </trkpt>
      <trkpt lat="38.2725280" lon="-0.6646110">
        <ele>134.0</ele>
        <time>2019-12-20T08:17:58Z</time>
      </trkpt>
      <trkpt lat="38.2724510" lon="-0.6645730">
        <ele>134.0</ele>
        <time>2019-12-20T08:17:59Z</time>
      </trkpt>
      <trkpt lat="38.2723750" lon="-0.6645470">
        <ele>134.0</ele>
        <time>2019-12-20T08:18:00Z</time>
      </trkpt>
      <trkpt lat="38.2722980" lon="-0.6645290">
        <ele>134.0</ele>
        <time>2019-12-20T08:18:01Z</time>
      </trkpt>
      <trkpt lat="38.2722220" lon="-0.6644960">
        <ele>133.6</ele>
        <time>2019-12-20T08:18:02Z</time>
      </trkpt>
      <trkpt lat="38.2721470" lon="-0.6644690">
        <ele>133.6</ele>
        <time>2019-12-20T08:18:03Z</time>
      </trkpt>
      <trkpt lat="38.2720710" lon="-0.6644340">
        <ele>133.4</ele>
        <time>2019-12-20T08:18:04Z</time>
      </trkpt>
      <trkpt lat="38.2720000" lon="-0.6644010">
        <ele>133.2</ele>
        <time>2019-12-20T08:18:05Z</time>
      </trkpt>
      <trkpt lat="38.2719260" lon="-0.6643670">
        <ele>133.4</ele>
        <time>2019-12-20T08:18:06Z</time>
      </trkpt>
      <trkpt lat="38.2718530" lon="-0.6643330">
        <ele>133.2</ele>
        <time>2019-12-20T08:18:07Z</time>
      </trkpt>
      <trkpt lat="38.2717800" lon="-0.6642980">
        <ele>133.0</ele>
        <time>2019-12-20T08:18:08Z</time>
      </trkpt>
      <trkpt lat="38.2717070" lon="-0.6642590">
        <ele>132.8</ele>
        <time>2019-12-20T08:18:09Z</time>
      </trkpt>
      <trkpt lat="38.2716370" lon="-0.6642210">
        <ele>132.8</ele>
        <time>2019-12-20T08:18:10Z</time>
      </trkpt>
      <trkpt lat="38.2715660" lon="-0.6641830">
        <ele>132.4</ele>
        <time>2019-12-20T08:18:11Z</time>
      </trkpt>
      <trkpt lat="38.2714950" lon="-0.6641420">
        <ele>132.8</ele>
        <time>2019-12-20T08:18:12Z</time>
      </trkpt>
      <trkpt lat="38.2714220" lon="-0.6641040">
        <ele>132.6</ele>
        <time>2019-12-20T08:18:13Z</time>
      </trkpt>
      <trkpt lat="38.2713490" lon="-0.6640720">
        <ele>132.4</ele>
        <time>2019-12-20T08:18:14Z</time>
      </trkpt>
      <trkpt lat="38.2712760" lon="-0.6640400">
        <ele>132.2</ele>
        <time>2019-12-20T08:18:15Z</time>
      </trkpt>
      <trkpt lat="38.2712020" lon="-0.6640060">
        <ele>132.2</ele>
        <time>2019-12-20T08:18:16Z</time>
      </trkpt>
      <trkpt lat="38.2711300" lon="-0.6639760">
        <ele>132.0</ele>
        <time>2019-12-20T08:18:17Z</time>
      </trkpt>
      <trkpt lat="38.2710580" lon="-0.6639440">
        <ele>132.0</ele>
        <time>2019-12-20T08:18:18Z</time>
      </trkpt>
      <trkpt lat="38.2709840" lon="-0.6639130">
        <ele>131.8</ele>
        <time>2019-12-20T08:18:19Z</time>
      </trkpt>
      <trkpt lat="38.2709120" lon="-0.6638830">
        <ele>131.4</ele>
        <time>2019-12-20T08:18:20Z</time>
      </trkpt>
      <trkpt lat="38.2708380" lon="-0.6638520">
        <ele>131.4</ele>
        <time>2019-12-20T08:18:21Z</time>
      </trkpt>
      <trkpt lat="38.2707640" lon="-0.6638230">
        <ele>131.2</ele>
        <time>2019-12-20T08:18:22Z</time>
      </trkpt>
      <trkpt lat="38.2706910" lon="-0.6637910">
        <ele>130.8</ele>
        <time>2019-12-20T08:18:23Z</time>
      </trkpt>
      <trkpt lat="38.2706190" lon="-0.6637600">
        <ele>130.6</ele>
        <time>2019-12-20T08:18:24Z</time>
      </trkpt>
      <trkpt lat="38.2705480" lon="-0.6637280">
        <ele>130.4</ele>
        <time>2019-12-20T08:18:25Z</time>
      </trkpt>
      <trkpt lat="38.2704780" lon="-0.6636950">
        <ele>130.4</ele>
        <time>2019-12-20T08:18:26Z</time>
      </trkpt>
      <trkpt lat="38.2704090" lon="-0.6636650">
        <ele>130.2</ele>
        <time>2019-12-20T08:18:27Z</time>
      </trkpt>
      <trkpt lat="38.2703400" lon="-0.6636350">
        <ele>130.2</ele>
        <time>2019-12-20T08:18:28Z</time>
      </trkpt>
      <trkpt lat="38.2702720" lon="-0.6636070">
        <ele>130.0</ele>
        <time>2019-12-20T08:18:29Z</time>
      </trkpt>
      <trkpt lat="38.2702050" lon="-0.6635770">
        <ele>129.8</ele>
        <time>2019-12-20T08:18:30Z</time>
      </trkpt>
      <trkpt lat="38.2701400" lon="-0.6635480">
        <ele>129.8</ele>
        <time>2019-12-20T08:18:31Z</time>
      </trkpt>
      <trkpt lat="38.2700740" lon="-0.6635190">
        <ele>129.4</ele>
        <time>2019-12-20T08:18:32Z</time>
      </trkpt>
      <trkpt lat="38.2700100" lon="-0.6634920">
        <ele>129.4</ele>
        <time>2019-12-20T08:18:33Z</time>
      </trkpt>
      <trkpt lat="38.2699460" lon="-0.6634650">
        <ele>129.2</ele>
        <time>2019-12-20T08:18:34Z</time>
      </trkpt>
      <trkpt lat="38.2698850" lon="-0.6634390">
        <ele>129.2</ele>
        <time>2019-12-20T08:18:35Z</time>
      </trkpt>
      <trkpt lat="38.2698300" lon="-0.6634150">
        <ele>128.8</ele>
        <time>2019-12-20T08:18:36Z</time>
      </trkpt>
      <trkpt lat="38.2697830" lon="-0.6633960">
        <ele>128.8</ele>
        <time>2019-12-20T08:18:37Z</time>
      </trkpt>
      <trkpt lat="38.2697400" lon="-0.6633780">
        <ele>128.8</ele>
        <time>2019-12-20T08:18:38Z</time>
      </trkpt>
      <trkpt lat="38.2697020" lon="-0.6633590">
        <ele>128.6</ele>
        <time>2019-12-20T08:18:39Z</time>
      </trkpt>
      <trkpt lat="38.2696650" lon="-0.6633410">
        <ele>128.4</ele>
        <time>2019-12-20T08:18:40Z</time>
      </trkpt>
      <trkpt lat="38.2696260" lon="-0.6633220">
        <ele>128.6</ele>
        <time>2019-12-20T08:18:41Z</time>
      </trkpt>
      <trkpt lat="38.2695850" lon="-0.6633050">
        <ele>128.6</ele>
        <time>2019-12-20T08:18:42Z</time>
      </trkpt>
      <trkpt lat="38.2695420" lon="-0.6632890">
        <ele>128.4</ele>
        <time>2019-12-20T08:18:43Z</time>
      </trkpt>
      <trkpt lat="38.2695010" lon="-0.6632790">
        <ele>128.4</ele>
        <time>2019-12-20T08:18:44Z</time>
      </trkpt>
      <trkpt lat="38.2694680" lon="-0.6632790">
        <ele>128.4</ele>
        <time>2019-12-20T08:18:45Z</time>
      </trkpt>
      <trkpt lat="38.2694440" lon="-0.6632810">
        <ele>128.2</ele>
        <time>2019-12-20T08:18:46Z</time>
      </trkpt>
      <trkpt lat="38.2694240" lon="-0.6632830">
        <ele>128.0</ele>
        <time>2019-12-20T08:18:47Z</time>
      </trkpt>
      <trkpt lat="38.2694100" lon="-0.6632810">
        <ele>128.2</ele>
        <time>2019-12-20T08:18:48Z</time>
      </trkpt>
      <trkpt lat="38.2694000" lon="-0.6632800">
        <ele>128.0</ele>
        <time>2019-12-20T08:18:49Z</time>
      </trkpt>
      <trkpt lat="38.2693900" lon="-0.6632770">
        <ele>128.2</ele>
        <time>2019-12-20T08:18:50Z</time>
      </trkpt>
      <trkpt lat="38.2693810" lon="-0.6632760">
        <ele>128.0</ele>
        <time>2019-12-20T08:18:51Z</time>
      </trkpt>
      <trkpt lat="38.2693650" lon="-0.6632580">
        <ele>127.8</ele>
        <time>2019-12-20T08:18:52Z</time>
      </trkpt>
      <trkpt lat="38.2693510" lon="-0.6632350">
        <ele>127.8</ele>
        <time>2019-12-20T08:18:53Z</time>
      </trkpt>
      <trkpt lat="38.2693390" lon="-0.6631940">
        <ele>127.8</ele>
        <time>2019-12-20T08:18:54Z</time>
      </trkpt>
      <trkpt lat="38.2693270" lon="-0.6631540">
        <ele>127.8</ele>
        <time>2019-12-20T08:18:55Z</time>
      </trkpt>
      <trkpt lat="38.2693190" lon="-0.6630980">
        <ele>127.8</ele>
        <time>2019-12-20T08:18:56Z</time>
      </trkpt>
      <trkpt lat="38.2693100" lon="-0.6630420">
        <ele>127.8</ele>
        <time>2019-12-20T08:18:57Z</time>
      </trkpt>
      <trkpt lat="38.2693040" lon="-0.6629790">
        <ele>127.8</ele>
        <time>2019-12-20T08:18:58Z</time>
      </trkpt>
      <trkpt lat="38.2692970" lon="-0.6629170">
        <ele>127.8</ele>
        <time>2019-12-20T08:18:59Z</time>
      </trkpt>
      <trkpt lat="38.2692880" lon="-0.6628510">
        <ele>127.8</ele>
        <time>2019-12-20T08:19:00Z</time>
      </trkpt>
      <trkpt lat="38.2692840" lon="-0.6628170">
        <ele>127.8</ele>
        <time>2019-12-20T08:19:01Z</time>
      </trkpt>
      <trkpt lat="38.2692800" lon="-0.6627840">
        <ele>127.8</ele>
        <time>2019-12-20T08:19:02Z</time>
      </trkpt>
      <trkpt lat="38.2692720" lon="-0.6627160">
        <ele>127.8</ele>
        <time>2019-12-20T08:19:03Z</time>
      </trkpt>
      <trkpt lat="38.2692620" lon="-0.6626440">
        <ele>127.8</ele>
        <time>2019-12-20T08:19:04Z</time>
      </trkpt>
      <trkpt lat="38.2692410" lon="-0.6624990">
        <ele>127.8</ele>
        <time>2019-12-20T08:19:05Z</time>
      </trkpt>
      <trkpt lat="38.2692360" lon="-0.6624620">
        <ele>127.4</ele>
        <time>2019-12-20T08:19:06Z</time>
      </trkpt>
      <trkpt lat="38.2692300" lon="-0.6624250">
        <ele>127.4</ele>
        <time>2019-12-20T08:19:07Z</time>
      </trkpt>
      <trkpt lat="38.2692160" lon="-0.6623500">
        <ele>127.6</ele>
        <time>2019-12-20T08:19:08Z</time>
      </trkpt>
      <trkpt lat="38.2692030" lon="-0.6622750">
        <ele>127.4</ele>
        <time>2019-12-20T08:19:09Z</time>
      </trkpt>
      <trkpt lat="38.2691790" lon="-0.6621260">
        <ele>127.4</ele>
        <time>2019-12-20T08:19:10Z</time>
      </trkpt>
      <trkpt lat="38.2691730" lon="-0.6620880">
        <ele>127.4</ele>
        <time>2019-12-20T08:19:11Z</time>
      </trkpt>
      <trkpt lat="38.2691670" lon="-0.6620510">
        <ele>127.4</ele>
        <time>2019-12-20T08:19:12Z</time>
      </trkpt>
      <trkpt lat="38.2691550" lon="-0.6619760">
        <ele>127.4</ele>
        <time>2019-12-20T08:19:13Z</time>
      </trkpt>
      <trkpt lat="38.2691410" lon="-0.6619000">
        <ele>127.4</ele>
        <time>2019-12-20T08:19:14Z</time>
      </trkpt>
      <trkpt lat="38.2691300" lon="-0.6618240">
        <ele>127.8</ele>
        <time>2019-12-20T08:19:15Z</time>
      </trkpt>
      <trkpt lat="38.2691090" lon="-0.6616780">
        <ele>128.0</ele>
        <time>2019-12-20T08:19:16Z</time>
      </trkpt>
      <trkpt lat="38.2691040" lon="-0.6616430">
        <ele>128.6</ele>
        <time>2019-12-20T08:19:17Z</time>
      </trkpt>
      <trkpt lat="38.2690980" lon="-0.6616090">
        <ele>128.8</ele>
        <time>2019-12-20T08:19:18Z</time>
      </trkpt>
      <trkpt lat="38.2690830" lon="-0.6614820">
        <ele>129.4</ele>
        <time>2019-12-20T08:19:19Z</time>
      </trkpt>
      <trkpt lat="38.2690780" lon="-0.6614200">
        <ele>129.6</ele>
        <time>2019-12-20T08:19:20Z</time>
      </trkpt>
      <trkpt lat="38.2690710" lon="-0.6613600">
        <ele>130.2</ele>
        <time>2019-12-20T08:19:21Z</time>
      </trkpt>
      <trkpt lat="38.2690640" lon="-0.6613010">
        <ele>130.6</ele>
        <time>2019-12-20T08:19:22Z</time>
      </trkpt>
      <trkpt lat="38.2690610" lon="-0.6612720">
        <ele>131.0</ele>
        <time>2019-12-20T08:19:23Z</time>
      </trkpt>
      <trkpt lat="38.2690580" lon="-0.6612430">
        <ele>131.4</ele>
        <time>2019-12-20T08:19:24Z</time>
      </trkpt>
      <trkpt lat="38.2690550" lon="-0.6611860">
        <ele>131.8</ele>
        <time>2019-12-20T08:19:25Z</time>
      </trkpt>
      <trkpt lat="38.2690580" lon="-0.6611280">
        <ele>132.2</ele>
        <time>2019-12-20T08:19:26Z</time>
      </trkpt>
      <trkpt lat="38.2690640" lon="-0.6610070">
        <ele>132.4</ele>
        <time>2019-12-20T08:19:27Z</time>
      </trkpt>
      <trkpt lat="38.2690650" lon="-0.6609750">
        <ele>132.2</ele>
        <time>2019-12-20T08:19:28Z</time>
      </trkpt>
      <trkpt lat="38.2690650" lon="-0.6609420">
        <ele>132.4</ele>
        <time>2019-12-20T08:19:29Z</time>
      </trkpt>
      <trkpt lat="38.2690670" lon="-0.6608440">
        <ele>132.4</ele>
        <time>2019-12-20T08:19:30Z</time>
      </trkpt>
      <trkpt lat="38.2690670" lon="-0.6608110">
        <ele>132.4</ele>
        <time>2019-12-20T08:19:31Z</time>
      </trkpt>
      <trkpt lat="38.2690680" lon="-0.6606750">
        <ele>132.4</ele>
        <time>2019-12-20T08:19:32Z</time>
      </trkpt>
      <trkpt lat="38.2690700" lon="-0.6606060">
        <ele>132.6</ele>
        <time>2019-12-20T08:19:33Z</time>
      </trkpt>
      <trkpt lat="38.2690710" lon="-0.6605700">
        <ele>132.6</ele>
        <time>2019-12-20T08:19:34Z</time>
      </trkpt>
      <trkpt lat="38.2690710" lon="-0.6605330">
        <ele>132.6</ele>
        <time>2019-12-20T08:19:35Z</time>
      </trkpt>
      <trkpt lat="38.2690720" lon="-0.6604610">
        <ele>132.6</ele>
        <time>2019-12-20T08:19:36Z</time>
      </trkpt>
      <trkpt lat="38.2690740" lon="-0.6603870">
        <ele>132.6</ele>
        <time>2019-12-20T08:19:37Z</time>
      </trkpt>
      <trkpt lat="38.2690800" lon="-0.6602370">
        <ele>132.6</ele>
        <time>2019-12-20T08:19:38Z</time>
      </trkpt>
      <trkpt lat="38.2690810" lon="-0.6601590">
        <ele>132.4</ele>
        <time>2019-12-20T08:19:39Z</time>
      </trkpt>
      <trkpt lat="38.2690830" lon="-0.6600780">
        <ele>132.0</ele>
        <time>2019-12-20T08:19:40Z</time>
      </trkpt>
      <trkpt lat="38.2690860" lon="-0.6600350">
        <ele>131.6</ele>
        <time>2019-12-20T08:19:41Z</time>
      </trkpt>
      <trkpt lat="38.2690890" lon="-0.6599920">
        <ele>131.4</ele>
        <time>2019-12-20T08:19:42Z</time>
      </trkpt>
      <trkpt lat="38.2691010" lon="-0.6598600">
        <ele>130.8</ele>
        <time>2019-12-20T08:19:43Z</time>
      </trkpt>
      <trkpt lat="38.2691060" lon="-0.6598140">
        <ele>130.2</ele>
        <time>2019-12-20T08:19:44Z</time>
      </trkpt>
      <trkpt lat="38.2691460" lon="-0.6596220">
        <ele>129.8</ele>
        <time>2019-12-20T08:19:45Z</time>
      </trkpt>
      <trkpt lat="38.2691750" lon="-0.6595200">
        <ele>129.4</ele>
        <time>2019-12-20T08:19:46Z</time>
      </trkpt>
      <trkpt lat="38.2691920" lon="-0.6594690">
        <ele>128.4</ele>
        <time>2019-12-20T08:19:47Z</time>
      </trkpt>
      <trkpt lat="38.2692080" lon="-0.6594170">
        <ele>127.8</ele>
        <time>2019-12-20T08:19:48Z</time>
      </trkpt>
      <trkpt lat="38.2692450" lon="-0.6593080">
        <ele>127.0</ele>
        <time>2019-12-20T08:19:49Z</time>
      </trkpt>
      <trkpt lat="38.2692980" lon="-0.6591390">
        <ele>126.4</ele>
        <time>2019-12-20T08:19:50Z</time>
      </trkpt>
      <trkpt lat="38.2693150" lon="-0.6590800">
        <ele>126.0</ele>
        <time>2019-12-20T08:19:51Z</time>
      </trkpt>
      <trkpt lat="38.2693640" lon="-0.6589010">
        <ele>125.8</ele>
        <time>2019-12-20T08:19:52Z</time>
      </trkpt>
      <trkpt lat="38.2693790" lon="-0.6588400">
        <ele>126.0</ele>
        <time>2019-12-20T08:19:53Z</time>
      </trkpt>
      <trkpt lat="38.2694080" lon="-0.6587220">
        <ele>125.8</ele>
        <time>2019-12-20T08:19:54Z</time>
      </trkpt>
      <trkpt lat="38.2694370" lon="-0.6586030">
        <ele>125.8</ele>
        <time>2019-12-20T08:19:55Z</time>
      </trkpt>
      <trkpt lat="38.2694660" lon="-0.6584860">
        <ele>125.6</ele>
        <time>2019-12-20T08:19:56Z</time>
      </trkpt>
      <trkpt lat="38.2694940" lon="-0.6583700">
        <ele>125.6</ele>
        <time>2019-12-20T08:19:57Z</time>
      </trkpt>
      <trkpt lat="38.2695210" lon="-0.6582550">
        <ele>125.6</ele>
        <time>2019-12-20T08:19:58Z</time>
      </trkpt>
      <trkpt lat="38.2695720" lon="-0.6580290">
        <ele>125.8</ele>
        <time>2019-12-20T08:19:59Z</time>
      </trkpt>
      <trkpt lat="38.2695950" lon="-0.6579170">
        <ele>125.6</ele>
        <time>2019-12-20T08:20:00Z</time>
      </trkpt>
      <trkpt lat="38.2696060" lon="-0.6578610">
        <ele>125.8</ele>
        <time>2019-12-20T08:20:01Z</time>
      </trkpt>
      <trkpt lat="38.2696160" lon="-0.6578050">
        <ele>126.0</ele>
        <time>2019-12-20T08:20:02Z</time>
      </trkpt>
      <trkpt lat="38.2696310" lon="-0.6576920">
        <ele>125.8</ele>
        <time>2019-12-20T08:20:03Z</time>
      </trkpt>
      <trkpt lat="38.2696580" lon="-0.6574690">
        <ele>126.0</ele>
        <time>2019-12-20T08:20:04Z</time>
      </trkpt>
      <trkpt lat="38.2696650" lon="-0.6574150">
        <ele>125.8</ele>
        <time>2019-12-20T08:20:05Z</time>
      </trkpt>
      <trkpt lat="38.2696720" lon="-0.6573600">
        <ele>125.8</ele>
        <time>2019-12-20T08:20:06Z</time>
      </trkpt>
      <trkpt lat="38.2696820" lon="-0.6572510">
        <ele>125.6</ele>
        <time>2019-12-20T08:20:07Z</time>
      </trkpt>
      <trkpt lat="38.2696920" lon="-0.6571420">
        <ele>125.6</ele>
        <time>2019-12-20T08:20:08Z</time>
      </trkpt>
      <trkpt lat="38.2697020" lon="-0.6570350">
        <ele>126.0</ele>
        <time>2019-12-20T08:20:09Z</time>
      </trkpt>
      <trkpt lat="38.2697230" lon="-0.6568250">
        <ele>126.0</ele>
        <time>2019-12-20T08:20:10Z</time>
      </trkpt>
      <trkpt lat="38.2697330" lon="-0.6567200">
        <ele>126.0</ele>
        <time>2019-12-20T08:20:11Z</time>
      </trkpt>
      <trkpt lat="38.2697400" lon="-0.6566680">
        <ele>126.0</ele>
        <time>2019-12-20T08:20:12Z</time>
      </trkpt>
      <trkpt lat="38.2697460" lon="-0.6566150">
        <ele>126.0</ele>
        <time>2019-12-20T08:20:13Z</time>
      </trkpt>
      <trkpt lat="38.2697660" lon="-0.6564570">
        <ele>125.6</ele>
        <time>2019-12-20T08:20:14Z</time>
      </trkpt>
      <trkpt lat="38.2697730" lon="-0.6564040">
        <ele>125.6</ele>
        <time>2019-12-20T08:20:15Z</time>
      </trkpt>
      <trkpt lat="38.2697940" lon="-0.6562460">
        <ele>125.6</ele>
        <time>2019-12-20T08:20:16Z</time>
      </trkpt>
      <trkpt lat="38.2698010" lon="-0.6561930">
        <ele>125.6</ele>
        <time>2019-12-20T08:20:17Z</time>
      </trkpt>
      <trkpt lat="38.2698210" lon="-0.6560350">
        <ele>125.6</ele>
        <time>2019-12-20T08:20:18Z</time>
      </trkpt>
      <trkpt lat="38.2698280" lon="-0.6559820">
        <ele>125.6</ele>
        <time>2019-12-20T08:20:19Z</time>
      </trkpt>
      <trkpt lat="38.2698420" lon="-0.6558770">
        <ele>125.6</ele>
        <time>2019-12-20T08:20:20Z</time>
      </trkpt>
      <trkpt lat="38.2698710" lon="-0.6556660">
        <ele>125.6</ele>
        <time>2019-12-20T08:20:21Z</time>
      </trkpt>
      <trkpt lat="38.2698780" lon="-0.6556130">
        <ele>125.6</ele>
        <time>2019-12-20T08:20:22Z</time>
      </trkpt>
      <trkpt lat="38.2698850" lon="-0.6555600">
        <ele>125.6</ele>
        <time>2019-12-20T08:20:23Z</time>
      </trkpt>
      <trkpt lat="38.2699150" lon="-0.6553510">
        <ele>125.4</ele>
        <time>2019-12-20T08:20:24Z</time>
      </trkpt>
      <trkpt lat="38.2699230" lon="-0.6553000">
        <ele>125.6</ele>
        <time>2019-12-20T08:20:25Z</time>
      </trkpt>
      <trkpt lat="38.2699300" lon="-0.6552480">
        <ele>125.6</ele>
        <time>2019-12-20T08:20:26Z</time>
      </trkpt>
      <trkpt lat="38.2699460" lon="-0.6551450">
        <ele>125.6</ele>
        <time>2019-12-20T08:20:27Z</time>
      </trkpt>
      <trkpt lat="38.2699610" lon="-0.6550440">
        <ele>125.6</ele>
        <time>2019-12-20T08:20:28Z</time>
      </trkpt>
      <trkpt lat="38.2699870" lon="-0.6548410">
        <ele>125.8</ele>
        <time>2019-12-20T08:20:29Z</time>
      </trkpt>
      <trkpt lat="38.2699940" lon="-0.6547910">
        <ele>125.8</ele>
        <time>2019-12-20T08:20:30Z</time>
      </trkpt>
      <trkpt lat="38.2700000" lon="-0.6547400">
        <ele>125.6</ele>
        <time>2019-12-20T08:20:31Z</time>
      </trkpt>
      <trkpt lat="38.2700130" lon="-0.6546380">
        <ele>125.8</ele>
        <time>2019-12-20T08:20:32Z</time>
      </trkpt>
      <trkpt lat="38.2700280" lon="-0.6545370">
        <ele>125.6</ele>
        <time>2019-12-20T08:20:33Z</time>
      </trkpt>
      <trkpt lat="38.2700430" lon="-0.6544360">
        <ele>125.6</ele>
        <time>2019-12-20T08:20:34Z</time>
      </trkpt>
      <trkpt lat="38.2700580" lon="-0.6543380">
        <ele>125.8</ele>
        <time>2019-12-20T08:20:35Z</time>
      </trkpt>
      <trkpt lat="38.2700710" lon="-0.6542390">
        <ele>125.8</ele>
        <time>2019-12-20T08:20:36Z</time>
      </trkpt>
      <trkpt lat="38.2700960" lon="-0.6540410">
        <ele>126.0</ele>
        <time>2019-12-20T08:20:37Z</time>
      </trkpt>
      <trkpt lat="38.2701070" lon="-0.6539410">
        <ele>126.0</ele>
        <time>2019-12-20T08:20:38Z</time>
      </trkpt>
      <trkpt lat="38.2701120" lon="-0.6538910">
        <ele>126.0</ele>
        <time>2019-12-20T08:20:39Z</time>
      </trkpt>
      <trkpt lat="38.2701170" lon="-0.6538410">
        <ele>126.2</ele>
        <time>2019-12-20T08:20:40Z</time>
      </trkpt>
      <trkpt lat="38.2701260" lon="-0.6537410">
        <ele>126.2</ele>
        <time>2019-12-20T08:20:41Z</time>
      </trkpt>
      <trkpt lat="38.2701350" lon="-0.6536410">
        <ele>126.2</ele>
        <time>2019-12-20T08:20:42Z</time>
      </trkpt>
      <trkpt lat="38.2701440" lon="-0.6535410">
        <ele>126.4</ele>
        <time>2019-12-20T08:20:43Z</time>
      </trkpt>
      <trkpt lat="38.2701580" lon="-0.6533400">
        <ele>126.4</ele>
        <time>2019-12-20T08:20:44Z</time>
      </trkpt>
      <trkpt lat="38.2701660" lon="-0.6532430">
        <ele>126.6</ele>
        <time>2019-12-20T08:20:45Z</time>
      </trkpt>
      <trkpt lat="38.2701700" lon="-0.6531930">
        <ele>126.6</ele>
        <time>2019-12-20T08:20:46Z</time>
      </trkpt>
      <trkpt lat="38.2701730" lon="-0.6531430">
        <ele>126.6</ele>
        <time>2019-12-20T08:20:47Z</time>
      </trkpt>
      <trkpt lat="38.2701790" lon="-0.6530440">
        <ele>126.6</ele>
        <time>2019-12-20T08:20:48Z</time>
      </trkpt>
      <trkpt lat="38.2701930" lon="-0.6528450">
        <ele>126.8</ele>
        <time>2019-12-20T08:20:49Z</time>
      </trkpt>
      <trkpt lat="38.2701970" lon="-0.6527960">
        <ele>127.0</ele>
        <time>2019-12-20T08:20:50Z</time>
      </trkpt>
      <trkpt lat="38.2702000" lon="-0.6527460">
        <ele>127.0</ele>
        <time>2019-12-20T08:20:51Z</time>
      </trkpt>
      <trkpt lat="38.2702070" lon="-0.6526470">
        <ele>127.0</ele>
        <time>2019-12-20T08:20:52Z</time>
      </trkpt>
      <trkpt lat="38.2702190" lon="-0.6524490">
        <ele>126.8</ele>
        <time>2019-12-20T08:20:53Z</time>
      </trkpt>
      <trkpt lat="38.2702240" lon="-0.6523490">
        <ele>126.8</ele>
        <time>2019-12-20T08:20:54Z</time>
      </trkpt>
      <trkpt lat="38.2702270" lon="-0.6523000">
        <ele>127.2</ele>
        <time>2019-12-20T08:20:55Z</time>
      </trkpt>
      <trkpt lat="38.2702300" lon="-0.6522510">
        <ele>126.8</ele>
        <time>2019-12-20T08:20:56Z</time>
      </trkpt>
      <trkpt lat="38.2702350" lon="-0.6521520">
        <ele>127.0</ele>
        <time>2019-12-20T08:20:57Z</time>
      </trkpt>
      <trkpt lat="38.2702400" lon="-0.6520530">
        <ele>127.0</ele>
        <time>2019-12-20T08:20:58Z</time>
      </trkpt>
      <trkpt lat="38.2702470" lon="-0.6518520">
        <ele>127.0</ele>
        <time>2019-12-20T08:20:59Z</time>
      </trkpt>
      <trkpt lat="38.2702500" lon="-0.6518020">
        <ele>127.0</ele>
        <time>2019-12-20T08:21:00Z</time>
      </trkpt>
      <trkpt lat="38.2702520" lon="-0.6517520">
        <ele>127.0</ele>
        <time>2019-12-20T08:21:01Z</time>
      </trkpt>
      <trkpt lat="38.2702590" lon="-0.6516010">
        <ele>127.2</ele>
        <time>2019-12-20T08:21:02Z</time>
      </trkpt>
      <trkpt lat="38.2702620" lon="-0.6515500">
        <ele>127.0</ele>
        <time>2019-12-20T08:21:03Z</time>
      </trkpt>
      <trkpt lat="38.2702720" lon="-0.6513470">
        <ele>127.0</ele>
        <time>2019-12-20T08:21:04Z</time>
      </trkpt>
      <trkpt lat="38.2702750" lon="-0.6512470">
        <ele>127.4</ele>
        <time>2019-12-20T08:21:05Z</time>
      </trkpt>
      <trkpt lat="38.2702760" lon="-0.6511730">
        <ele>127.6</ele>
        <time>2019-12-20T08:21:06Z</time>
      </trkpt>
      <trkpt lat="38.2702770" lon="-0.6510980">
        <ele>127.2</ele>
        <time>2019-12-20T08:21:07Z</time>
      </trkpt>
      <trkpt lat="38.2702790" lon="-0.6509490">
        <ele>127.2</ele>
        <time>2019-12-20T08:21:08Z</time>
      </trkpt>
      <trkpt lat="38.2702780" lon="-0.6508490">
        <ele>127.0</ele>
        <time>2019-12-20T08:21:09Z</time>
      </trkpt>
      <trkpt lat="38.2702810" lon="-0.6507480">
        <ele>127.0</ele>
        <time>2019-12-20T08:21:10Z</time>
      </trkpt>
      <trkpt lat="38.2702850" lon="-0.6506980">
        <ele>127.0</ele>
        <time>2019-12-20T08:21:11Z</time>
      </trkpt>
      <trkpt lat="38.2702880" lon="-0.6506480">
        <ele>126.8</ele>
        <time>2019-12-20T08:21:12Z</time>
      </trkpt>
      <trkpt lat="38.2702930" lon="-0.6505440">
        <ele>127.0</ele>
        <time>2019-12-20T08:21:13Z</time>
      </trkpt>
      <trkpt lat="38.2702970" lon="-0.6504450">
        <ele>126.8</ele>
        <time>2019-12-20T08:21:14Z</time>
      </trkpt>
      <trkpt lat="38.2703030" lon="-0.6502440">
        <ele>126.8</ele>
        <time>2019-12-20T08:21:15Z</time>
      </trkpt>
      <trkpt lat="38.2703070" lon="-0.6501430">
        <ele>126.6</ele>
        <time>2019-12-20T08:21:16Z</time>
      </trkpt>
      <trkpt lat="38.2703110" lon="-0.6500910">
        <ele>126.6</ele>
        <time>2019-12-20T08:21:17Z</time>
      </trkpt>
      <trkpt lat="38.2703140" lon="-0.6500390">
        <ele>126.6</ele>
        <time>2019-12-20T08:21:18Z</time>
      </trkpt>
      <trkpt lat="38.2703220" lon="-0.6499340">
        <ele>126.4</ele>
        <time>2019-12-20T08:21:19Z</time>
      </trkpt>
      <trkpt lat="38.2703320" lon="-0.6497260">
        <ele>126.4</ele>
        <time>2019-12-20T08:21:20Z</time>
      </trkpt>
      <trkpt lat="38.2703340" lon="-0.6496730">
        <ele>126.6</ele>
        <time>2019-12-20T08:21:21Z</time>
      </trkpt>
      <trkpt lat="38.2703360" lon="-0.6496190">
        <ele>126.4</ele>
        <time>2019-12-20T08:21:22Z</time>
      </trkpt>
      <trkpt lat="38.2703400" lon="-0.6495130">
        <ele>126.6</ele>
        <time>2019-12-20T08:21:23Z</time>
      </trkpt>
      <trkpt lat="38.2703450" lon="-0.6494060">
        <ele>126.4</ele>
        <time>2019-12-20T08:21:24Z</time>
      </trkpt>
      <trkpt lat="38.2703490" lon="-0.6492990">
        <ele>126.2</ele>
        <time>2019-12-20T08:21:25Z</time>
      </trkpt>
      <trkpt lat="38.2703530" lon="-0.6491930">
        <ele>126.2</ele>
        <time>2019-12-20T08:21:26Z</time>
      </trkpt>
      <trkpt lat="38.2703570" lon="-0.6490880">
        <ele>126.2</ele>
        <time>2019-12-20T08:21:27Z</time>
      </trkpt>
      <trkpt lat="38.2703610" lon="-0.6489840">
        <ele>126.2</ele>
        <time>2019-12-20T08:21:28Z</time>
      </trkpt>
      <trkpt lat="38.2703680" lon="-0.6487760">
        <ele>126.2</ele>
        <time>2019-12-20T08:21:29Z</time>
      </trkpt>
      <trkpt lat="38.2703740" lon="-0.6486710">
        <ele>126.2</ele>
        <time>2019-12-20T08:21:30Z</time>
      </trkpt>
      <trkpt lat="38.2703810" lon="-0.6485680">
        <ele>126.4</ele>
        <time>2019-12-20T08:21:31Z</time>
      </trkpt>
      <trkpt lat="38.2703880" lon="-0.6484640">
        <ele>126.4</ele>
        <time>2019-12-20T08:21:32Z</time>
      </trkpt>
      <trkpt lat="38.2703930" lon="-0.6484130">
        <ele>126.4</ele>
        <time>2019-12-20T08:21:33Z</time>
      </trkpt>
      <trkpt lat="38.2703970" lon="-0.6483620">
        <ele>126.2</ele>
        <time>2019-12-20T08:21:34Z</time>
      </trkpt>
      <trkpt lat="38.2704060" lon="-0.6482600">
        <ele>126.2</ele>
        <time>2019-12-20T08:21:35Z</time>
      </trkpt>
      <trkpt lat="38.2704160" lon="-0.6481530">
        <ele>126.4</ele>
        <time>2019-12-20T08:21:36Z</time>
      </trkpt>
      <trkpt lat="38.2704270" lon="-0.6480460">
        <ele>126.4</ele>
        <time>2019-12-20T08:21:37Z</time>
      </trkpt>
      <trkpt lat="38.2704380" lon="-0.6479400">
        <ele>126.2</ele>
        <time>2019-12-20T08:21:38Z</time>
      </trkpt>
      <trkpt lat="38.2704500" lon="-0.6478340">
        <ele>126.0</ele>
        <time>2019-12-20T08:21:39Z</time>
      </trkpt>
      <trkpt lat="38.2704740" lon="-0.6476260">
        <ele>125.4</ele>
        <time>2019-12-20T08:21:40Z</time>
      </trkpt>
      <trkpt lat="38.2704880" lon="-0.6475210">
        <ele>125.6</ele>
        <time>2019-12-20T08:21:41Z</time>
      </trkpt>
      <trkpt lat="38.2705020" lon="-0.6474170">
        <ele>125.6</ele>
        <time>2019-12-20T08:21:42Z</time>
      </trkpt>
      <trkpt lat="38.2705100" lon="-0.6473670">
        <ele>125.4</ele>
        <time>2019-12-20T08:21:43Z</time>
      </trkpt>
      <trkpt lat="38.2705170" lon="-0.6473160">
        <ele>125.6</ele>
        <time>2019-12-20T08:21:44Z</time>
      </trkpt>
      <trkpt lat="38.2705380" lon="-0.6471630">
        <ele>125.6</ele>
        <time>2019-12-20T08:21:45Z</time>
      </trkpt>
      <trkpt lat="38.2705440" lon="-0.6471110">
        <ele>126.0</ele>
        <time>2019-12-20T08:21:46Z</time>
      </trkpt>
      <trkpt lat="38.2705760" lon="-0.6469080">
        <ele>126.0</ele>
        <time>2019-12-20T08:21:47Z</time>
      </trkpt>
      <trkpt lat="38.2705930" lon="-0.6468070">
        <ele>126.0</ele>
        <time>2019-12-20T08:21:48Z</time>
      </trkpt>
      <trkpt lat="38.2706110" lon="-0.6467060">
        <ele>126.0</ele>
        <time>2019-12-20T08:21:49Z</time>
      </trkpt>
      <trkpt lat="38.2706220" lon="-0.6466560">
        <ele>126.0</ele>
        <time>2019-12-20T08:21:50Z</time>
      </trkpt>
      <trkpt lat="38.2706320" lon="-0.6466060">
        <ele>125.8</ele>
        <time>2019-12-20T08:21:51Z</time>
      </trkpt>
      <trkpt lat="38.2706720" lon="-0.6464080">
        <ele>125.8</ele>
        <time>2019-12-20T08:21:52Z</time>
      </trkpt>
      <trkpt lat="38.2706830" lon="-0.6463590">
        <ele>125.8</ele>
        <time>2019-12-20T08:21:53Z</time>
      </trkpt>
      <trkpt lat="38.2706940" lon="-0.6463090">
        <ele>125.8</ele>
        <time>2019-12-20T08:21:54Z</time>
      </trkpt>
      <trkpt lat="38.2707170" lon="-0.6462110">
        <ele>125.6</ele>
        <time>2019-12-20T08:21:55Z</time>
      </trkpt>
      <trkpt lat="38.2707430" lon="-0.6461130">
        <ele>125.6</ele>
        <time>2019-12-20T08:21:56Z</time>
      </trkpt>
      <trkpt lat="38.2707720" lon="-0.6460170">
        <ele>125.6</ele>
        <time>2019-12-20T08:21:57Z</time>
      </trkpt>
      <trkpt lat="38.2708010" lon="-0.6459220">
        <ele>125.6</ele>
        <time>2019-12-20T08:21:58Z</time>
      </trkpt>
      <trkpt lat="38.2708300" lon="-0.6458260">
        <ele>125.6</ele>
        <time>2019-12-20T08:21:59Z</time>
      </trkpt>
      <trkpt lat="38.2708600" lon="-0.6457330">
        <ele>125.6</ele>
        <time>2019-12-20T08:22:00Z</time>
      </trkpt>
      <trkpt lat="38.2709200" lon="-0.6455450">
        <ele>125.8</ele>
        <time>2019-12-20T08:22:01Z</time>
      </trkpt>
      <trkpt lat="38.2709500" lon="-0.6454510">
        <ele>125.6</ele>
        <time>2019-12-20T08:22:02Z</time>
      </trkpt>
      <trkpt lat="38.2709660" lon="-0.6454040">
        <ele>125.6</ele>
        <time>2019-12-20T08:22:03Z</time>
      </trkpt>
      <trkpt lat="38.2709820" lon="-0.6453560">
        <ele>125.6</ele>
        <time>2019-12-20T08:22:04Z</time>
      </trkpt>
      <trkpt lat="38.2710440" lon="-0.6451680">
        <ele>125.4</ele>
        <time>2019-12-20T08:22:05Z</time>
      </trkpt>
      <trkpt lat="38.2710760" lon="-0.6450750">
        <ele>125.6</ele>
        <time>2019-12-20T08:22:06Z</time>
      </trkpt>
      <trkpt lat="38.2711080" lon="-0.6449820">
        <ele>125.4</ele>
        <time>2019-12-20T08:22:07Z</time>
      </trkpt>
      <trkpt lat="38.2711240" lon="-0.6449360">
        <ele>125.2</ele>
        <time>2019-12-20T08:22:08Z</time>
      </trkpt>
      <trkpt lat="38.2711400" lon="-0.6448890">
        <ele>125.6</ele>
        <time>2019-12-20T08:22:09Z</time>
      </trkpt>
      <trkpt lat="38.2711880" lon="-0.6447510">
        <ele>125.6</ele>
        <time>2019-12-20T08:22:10Z</time>
      </trkpt>
      <trkpt lat="38.2712030" lon="-0.6447050">
        <ele>125.6</ele>
        <time>2019-12-20T08:22:11Z</time>
      </trkpt>
      <trkpt lat="38.2712340" lon="-0.6446120">
        <ele>125.4</ele>
        <time>2019-12-20T08:22:12Z</time>
      </trkpt>
      <trkpt lat="38.2712640" lon="-0.6445190">
        <ele>125.6</ele>
        <time>2019-12-20T08:22:13Z</time>
      </trkpt>
      <trkpt lat="38.2712960" lon="-0.6444270">
        <ele>125.4</ele>
        <time>2019-12-20T08:22:14Z</time>
      </trkpt>
      <trkpt lat="38.2713590" lon="-0.6442420">
        <ele>125.6</ele>
        <time>2019-12-20T08:22:15Z</time>
      </trkpt>
      <trkpt lat="38.2713750" lon="-0.6441950">
        <ele>125.6</ele>
        <time>2019-12-20T08:22:16Z</time>
      </trkpt>
      <trkpt lat="38.2713910" lon="-0.6441470">
        <ele>125.6</ele>
        <time>2019-12-20T08:22:17Z</time>
      </trkpt>
      <trkpt lat="38.2714380" lon="-0.6440050">
        <ele>125.4</ele>
        <time>2019-12-20T08:22:18Z</time>
      </trkpt>
      <trkpt lat="38.2714540" lon="-0.6439570">
        <ele>125.6</ele>
        <time>2019-12-20T08:22:19Z</time>
      </trkpt>
      <trkpt lat="38.2715030" lon="-0.6438140">
        <ele>125.6</ele>
        <time>2019-12-20T08:22:20Z</time>
      </trkpt>
      <trkpt lat="38.2715190" lon="-0.6437660">
        <ele>125.6</ele>
        <time>2019-12-20T08:22:21Z</time>
      </trkpt>
      <trkpt lat="38.2715680" lon="-0.6436220">
        <ele>125.6</ele>
        <time>2019-12-20T08:22:22Z</time>
      </trkpt>
      <trkpt lat="38.2715840" lon="-0.6435740">
        <ele>125.4</ele>
        <time>2019-12-20T08:22:23Z</time>
      </trkpt>
      <trkpt lat="38.2716170" lon="-0.6434770">
        <ele>125.4</ele>
        <time>2019-12-20T08:22:24Z</time>
      </trkpt>
      <trkpt lat="38.2716790" lon="-0.6432820">
        <ele>125.4</ele>
        <time>2019-12-20T08:22:25Z</time>
      </trkpt>
      <trkpt lat="38.2717090" lon="-0.6431830">
        <ele>125.0</ele>
        <time>2019-12-20T08:22:26Z</time>
      </trkpt>
      <trkpt lat="38.2717240" lon="-0.6431340">
        <ele>125.0</ele>
        <time>2019-12-20T08:22:27Z</time>
      </trkpt>
      <trkpt lat="38.2717390" lon="-0.6430850">
        <ele>125.0</ele>
        <time>2019-12-20T08:22:28Z</time>
      </trkpt>
      <trkpt lat="38.2717690" lon="-0.6429870">
        <ele>125.0</ele>
        <time>2019-12-20T08:22:29Z</time>
      </trkpt>
      <trkpt lat="38.2718230" lon="-0.6427880">
        <ele>125.2</ele>
        <time>2019-12-20T08:22:30Z</time>
      </trkpt>
      <trkpt lat="38.2718360" lon="-0.6427380">
        <ele>125.2</ele>
        <time>2019-12-20T08:22:31Z</time>
      </trkpt>
      <trkpt lat="38.2718480" lon="-0.6426870">
        <ele>125.2</ele>
        <time>2019-12-20T08:22:32Z</time>
      </trkpt>
      <trkpt lat="38.2718730" lon="-0.6425850">
        <ele>125.0</ele>
        <time>2019-12-20T08:22:33Z</time>
      </trkpt>
      <trkpt lat="38.2719180" lon="-0.6423840">
        <ele>125.4</ele>
        <time>2019-12-20T08:22:34Z</time>
      </trkpt>
      <trkpt lat="38.2719390" lon="-0.6422860">
        <ele>125.2</ele>
        <time>2019-12-20T08:22:35Z</time>
      </trkpt>
      <trkpt lat="38.2719490" lon="-0.6422380">
        <ele>125.2</ele>
        <time>2019-12-20T08:22:36Z</time>
      </trkpt>
      <trkpt lat="38.2719580" lon="-0.6421900">
        <ele>125.2</ele>
        <time>2019-12-20T08:22:37Z</time>
      </trkpt>
      <trkpt lat="38.2719810" lon="-0.6420950">
        <ele>125.2</ele>
        <time>2019-12-20T08:22:38Z</time>
      </trkpt>
      <trkpt lat="38.2720240" lon="-0.6419040">
        <ele>125.4</ele>
        <time>2019-12-20T08:22:39Z</time>
      </trkpt>
      <trkpt lat="38.2720350" lon="-0.6418580">
        <ele>125.4</ele>
        <time>2019-12-20T08:22:40Z</time>
      </trkpt>
      <trkpt lat="38.2720450" lon="-0.6418110">
        <ele>125.4</ele>
        <time>2019-12-20T08:22:41Z</time>
      </trkpt>
      <trkpt lat="38.2720800" lon="-0.6416720">
        <ele>125.6</ele>
        <time>2019-12-20T08:22:42Z</time>
      </trkpt>
      <trkpt lat="38.2720940" lon="-0.6416260">
        <ele>125.6</ele>
        <time>2019-12-20T08:22:43Z</time>
      </trkpt>
      <trkpt lat="38.2721190" lon="-0.6415340">
        <ele>125.8</ele>
        <time>2019-12-20T08:22:44Z</time>
      </trkpt>
      <trkpt lat="38.2721440" lon="-0.6414430">
        <ele>125.8</ele>
        <time>2019-12-20T08:22:45Z</time>
      </trkpt>
      <trkpt lat="38.2722010" lon="-0.6412660">
        <ele>126.0</ele>
        <time>2019-12-20T08:22:46Z</time>
      </trkpt>
      <trkpt lat="38.2722300" lon="-0.6411780">
        <ele>126.4</ele>
        <time>2019-12-20T08:22:47Z</time>
      </trkpt>
      <trkpt lat="38.2722590" lon="-0.6410920">
        <ele>126.6</ele>
        <time>2019-12-20T08:22:48Z</time>
      </trkpt>
      <trkpt lat="38.2722890" lon="-0.6410050">
        <ele>126.2</ele>
        <time>2019-12-20T08:22:49Z</time>
      </trkpt>
      <trkpt lat="38.2723140" lon="-0.6409430">
        <ele>126.2</ele>
        <time>2019-12-20T08:22:50Z</time>
      </trkpt>
      <trkpt lat="38.2723390" lon="-0.6408800">
        <ele>126.2</ele>
        <time>2019-12-20T08:22:51Z</time>
      </trkpt>
      <trkpt lat="38.2723880" lon="-0.6407540">
        <ele>126.4</ele>
        <time>2019-12-20T08:22:52Z</time>
      </trkpt>
      <trkpt lat="38.2724130" lon="-0.6406930">
        <ele>126.8</ele>
        <time>2019-12-20T08:22:53Z</time>
      </trkpt>
      <trkpt lat="38.2724380" lon="-0.6406320">
        <ele>126.8</ele>
        <time>2019-12-20T08:22:54Z</time>
      </trkpt>
      <trkpt lat="38.2724870" lon="-0.6405100">
        <ele>126.8</ele>
        <time>2019-12-20T08:22:55Z</time>
      </trkpt>
      <trkpt lat="38.2725050" lon="-0.6404710">
        <ele>126.6</ele>
        <time>2019-12-20T08:22:56Z</time>
      </trkpt>
      <trkpt lat="38.2725220" lon="-0.6404310">
        <ele>126.6</ele>
        <time>2019-12-20T08:22:57Z</time>
      </trkpt>
      <trkpt lat="38.2725760" lon="-0.6403130">
        <ele>126.6</ele>
        <time>2019-12-20T08:22:58Z</time>
      </trkpt>
      <trkpt lat="38.2725940" lon="-0.6402750">
        <ele>127.0</ele>
        <time>2019-12-20T08:22:59Z</time>
      </trkpt>
      <trkpt lat="38.2726490" lon="-0.6401620">
        <ele>127.4</ele>
        <time>2019-12-20T08:23:00Z</time>
      </trkpt>
      <trkpt lat="38.2726670" lon="-0.6401250">
        <ele>127.4</ele>
        <time>2019-12-20T08:23:01Z</time>
      </trkpt>
      <trkpt lat="38.2727220" lon="-0.6400130">
        <ele>127.2</ele>
        <time>2019-12-20T08:23:02Z</time>
      </trkpt>
      <trkpt lat="38.2727410" lon="-0.6399750">
        <ele>127.2</ele>
        <time>2019-12-20T08:23:03Z</time>
      </trkpt>
      <trkpt lat="38.2727820" lon="-0.6399030">
        <ele>127.2</ele>
        <time>2019-12-20T08:23:04Z</time>
      </trkpt>
      <trkpt lat="38.2728640" lon="-0.6397570">
        <ele>127.2</ele>
        <time>2019-12-20T08:23:05Z</time>
      </trkpt>
      <trkpt lat="38.2728950" lon="-0.6397030">
        <ele>127.2</ele>
        <time>2019-12-20T08:23:06Z</time>
      </trkpt>
      <trkpt lat="38.2729260" lon="-0.6396480">
        <ele>127.2</ele>
        <time>2019-12-20T08:23:07Z</time>
      </trkpt>
      <trkpt lat="38.2729870" lon="-0.6395380">
        <ele>127.2</ele>
        <time>2019-12-20T08:23:08Z</time>
      </trkpt>
      <trkpt lat="38.2730290" lon="-0.6394650">
        <ele>127.2</ele>
        <time>2019-12-20T08:23:09Z</time>
      </trkpt>
      <trkpt lat="38.2730720" lon="-0.6393920">
        <ele>127.0</ele>
        <time>2019-12-20T08:23:10Z</time>
      </trkpt>
      <trkpt lat="38.2730940" lon="-0.6393560">
        <ele>127.2</ele>
        <time>2019-12-20T08:23:11Z</time>
      </trkpt>
      <trkpt lat="38.2731160" lon="-0.6393200">
        <ele>127.2</ele>
        <time>2019-12-20T08:23:12Z</time>
      </trkpt>
      <trkpt lat="38.2732090" lon="-0.6391750">
        <ele>127.0</ele>
        <time>2019-12-20T08:23:13Z</time>
      </trkpt>
      <trkpt lat="38.2732330" lon="-0.6391390">
        <ele>127.0</ele>
        <time>2019-12-20T08:23:14Z</time>
      </trkpt>
      <trkpt lat="38.2732560" lon="-0.6391030">
        <ele>126.8</ele>
        <time>2019-12-20T08:23:15Z</time>
      </trkpt>
      <trkpt lat="38.2733050" lon="-0.6390310">
        <ele>126.6</ele>
        <time>2019-12-20T08:23:16Z</time>
      </trkpt>
      <trkpt lat="38.2733570" lon="-0.6389580">
        <ele>126.6</ele>
        <time>2019-12-20T08:23:17Z</time>
      </trkpt>
      <trkpt lat="38.2734090" lon="-0.6388860">
        <ele>126.4</ele>
        <time>2019-12-20T08:23:18Z</time>
      </trkpt>
      <trkpt lat="38.2734650" lon="-0.6388140">
        <ele>126.6</ele>
        <time>2019-12-20T08:23:19Z</time>
      </trkpt>
      <trkpt lat="38.2735790" lon="-0.6386710">
        <ele>126.4</ele>
        <time>2019-12-20T08:23:20Z</time>
      </trkpt>
      <trkpt lat="38.2736090" lon="-0.6386350">
        <ele>126.4</ele>
        <time>2019-12-20T08:23:21Z</time>
      </trkpt>
      <trkpt lat="38.2736390" lon="-0.6385980">
        <ele>126.2</ele>
        <time>2019-12-20T08:23:22Z</time>
      </trkpt>
      <trkpt lat="38.2737560" lon="-0.6384480">
        <ele>126.2</ele>
        <time>2019-12-20T08:23:23Z</time>
      </trkpt>
      <trkpt lat="38.2737860" lon="-0.6384100">
        <ele>125.8</ele>
        <time>2019-12-20T08:23:24Z</time>
      </trkpt>
      <trkpt lat="38.2738160" lon="-0.6383720">
        <ele>126.2</ele>
        <time>2019-12-20T08:23:25Z</time>
      </trkpt>
      <trkpt lat="38.2739310" lon="-0.6382180">
        <ele>126.0</ele>
        <time>2019-12-20T08:23:26Z</time>
      </trkpt>
      <trkpt lat="38.2739890" lon="-0.6381370">
        <ele>126.2</ele>
        <time>2019-12-20T08:23:27Z</time>
      </trkpt>
      <trkpt lat="38.2740460" lon="-0.6380550">
        <ele>125.8</ele>
        <time>2019-12-20T08:23:28Z</time>
      </trkpt>
      <trkpt lat="38.2740990" lon="-0.6379710">
        <ele>125.8</ele>
        <time>2019-12-20T08:23:29Z</time>
      </trkpt>
      <trkpt lat="38.2741260" lon="-0.6379280">
        <ele>125.8</ele>
        <time>2019-12-20T08:23:30Z</time>
      </trkpt>
      <trkpt lat="38.2741520" lon="-0.6378850">
        <ele>125.6</ele>
        <time>2019-12-20T08:23:31Z</time>
      </trkpt>
      <trkpt lat="38.2742540" lon="-0.6377090">
        <ele>125.6</ele>
        <time>2019-12-20T08:23:32Z</time>
      </trkpt>
      <trkpt lat="38.2743040" lon="-0.6376220">
        <ele>125.6</ele>
        <time>2019-12-20T08:23:33Z</time>
      </trkpt>
      <trkpt lat="38.2743280" lon="-0.6375770">
        <ele>125.6</ele>
        <time>2019-12-20T08:23:34Z</time>
      </trkpt>
      <trkpt lat="38.2743510" lon="-0.6375320">
        <ele>125.6</ele>
        <time>2019-12-20T08:23:35Z</time>
      </trkpt>
      <trkpt lat="38.2744210" lon="-0.6373960">
        <ele>125.6</ele>
        <time>2019-12-20T08:23:36Z</time>
      </trkpt>
      <trkpt lat="38.2744430" lon="-0.6373490">
        <ele>125.6</ele>
        <time>2019-12-20T08:23:37Z</time>
      </trkpt>
      <trkpt lat="38.2745300" lon="-0.6371610">
        <ele>125.4</ele>
        <time>2019-12-20T08:23:38Z</time>
      </trkpt>
      <trkpt lat="38.2745510" lon="-0.6371140">
        <ele>125.6</ele>
        <time>2019-12-20T08:23:39Z</time>
      </trkpt>
      <trkpt lat="38.2745720" lon="-0.6370670">
        <ele>125.6</ele>
        <time>2019-12-20T08:23:40Z</time>
      </trkpt>
      <trkpt lat="38.2746340" lon="-0.6368760">
        <ele>125.8</ele>
        <time>2019-12-20T08:23:41Z</time>
      </trkpt>
      <trkpt lat="38.2746530" lon="-0.6368010">
        <ele>125.8</ele>
        <time>2019-12-20T08:23:42Z</time>
      </trkpt>
      <trkpt lat="38.2746720" lon="-0.6367260">
        <ele>125.6</ele>
        <time>2019-12-20T08:23:43Z</time>
      </trkpt>
      <trkpt lat="38.2747100" lon="-0.6365750">
        <ele>125.6</ele>
        <time>2019-12-20T08:23:44Z</time>
      </trkpt>
      <trkpt lat="38.2747330" lon="-0.6364750">
        <ele>125.8</ele>
        <time>2019-12-20T08:23:45Z</time>
      </trkpt>
      <trkpt lat="38.2747560" lon="-0.6363740">
        <ele>125.8</ele>
        <time>2019-12-20T08:23:46Z</time>
      </trkpt>
      <trkpt lat="38.2747670" lon="-0.6363240">
        <ele>125.8</ele>
        <time>2019-12-20T08:23:47Z</time>
      </trkpt>
      <trkpt lat="38.2747770" lon="-0.6362740">
        <ele>126.2</ele>
        <time>2019-12-20T08:23:48Z</time>
      </trkpt>
      <trkpt lat="38.2748070" lon="-0.6361240">
        <ele>126.2</ele>
        <time>2019-12-20T08:23:49Z</time>
      </trkpt>
      <trkpt lat="38.2748160" lon="-0.6360740">
        <ele>126.2</ele>
        <time>2019-12-20T08:23:50Z</time>
      </trkpt>
      <trkpt lat="38.2748540" lon="-0.6358760">
        <ele>126.0</ele>
        <time>2019-12-20T08:23:51Z</time>
      </trkpt>
      <trkpt lat="38.2748720" lon="-0.6357770">
        <ele>125.8</ele>
        <time>2019-12-20T08:23:52Z</time>
      </trkpt>
      <trkpt lat="38.2748870" lon="-0.6357040">
        <ele>125.8</ele>
        <time>2019-12-20T08:23:53Z</time>
      </trkpt>
      <trkpt lat="38.2749020" lon="-0.6356300">
        <ele>125.6</ele>
        <time>2019-12-20T08:23:54Z</time>
      </trkpt>
      <trkpt lat="38.2749320" lon="-0.6354830">
        <ele>125.8</ele>
        <time>2019-12-20T08:23:55Z</time>
      </trkpt>
      <trkpt lat="38.2749470" lon="-0.6354090">
        <ele>126.0</ele>
        <time>2019-12-20T08:23:56Z</time>
      </trkpt>
      <trkpt lat="38.2749620" lon="-0.6353350">
        <ele>126.0</ele>
        <time>2019-12-20T08:23:57Z</time>
      </trkpt>
      <trkpt lat="38.2749920" lon="-0.6351870">
        <ele>126.0</ele>
        <time>2019-12-20T08:23:58Z</time>
      </trkpt>
      <trkpt lat="38.2750000" lon="-0.6351370">
        <ele>126.0</ele>
        <time>2019-12-20T08:23:59Z</time>
      </trkpt>
      <trkpt lat="38.2750070" lon="-0.6350870">
        <ele>126.2</ele>
        <time>2019-12-20T08:24:00Z</time>
      </trkpt>
      <trkpt lat="38.2750240" lon="-0.6349880">
        <ele>126.2</ele>
        <time>2019-12-20T08:24:01Z</time>
      </trkpt>
      <trkpt lat="38.2750420" lon="-0.6348910">
        <ele>126.0</ele>
        <time>2019-12-20T08:24:02Z</time>
      </trkpt>
      <trkpt lat="38.2750600" lon="-0.6347930">
        <ele>126.2</ele>
        <time>2019-12-20T08:24:03Z</time>
      </trkpt>
      <trkpt lat="38.2750790" lon="-0.6346960">
        <ele>126.2</ele>
        <time>2019-12-20T08:24:04Z</time>
      </trkpt>
      <trkpt lat="38.2751200" lon="-0.6345040">
        <ele>126.2</ele>
        <time>2019-12-20T08:24:05Z</time>
      </trkpt>
      <trkpt lat="38.2751330" lon="-0.6344570">
        <ele>126.2</ele>
        <time>2019-12-20T08:24:06Z</time>
      </trkpt>
      <trkpt lat="38.2751450" lon="-0.6344100">
        <ele>126.4</ele>
        <time>2019-12-20T08:24:07Z</time>
      </trkpt>
      <trkpt lat="38.2751730" lon="-0.6343180">
        <ele>126.6</ele>
        <time>2019-12-20T08:24:08Z</time>
      </trkpt>
      <trkpt lat="38.2752400" lon="-0.6341380">
        <ele>126.6</ele>
        <time>2019-12-20T08:24:09Z</time>
      </trkpt>
      <trkpt lat="38.2752610" lon="-0.6340960">
        <ele>126.8</ele>
        <time>2019-12-20T08:24:10Z</time>
      </trkpt>
      <trkpt lat="38.2752820" lon="-0.6340530">
        <ele>126.6</ele>
        <time>2019-12-20T08:24:11Z</time>
      </trkpt>
      <trkpt lat="38.2753450" lon="-0.6339270">
        <ele>126.6</ele>
        <time>2019-12-20T08:24:12Z</time>
      </trkpt>
      <trkpt lat="38.2753660" lon="-0.6338850">
        <ele>126.6</ele>
        <time>2019-12-20T08:24:13Z</time>
      </trkpt>
      <trkpt lat="38.2754570" lon="-0.6337260">
        <ele>126.6</ele>
        <time>2019-12-20T08:24:14Z</time>
      </trkpt>
      <trkpt lat="38.2754930" lon="-0.6336680">
        <ele>126.8</ele>
        <time>2019-12-20T08:24:15Z</time>
      </trkpt>
      <trkpt lat="38.2755280" lon="-0.6336090">
        <ele>126.8</ele>
        <time>2019-12-20T08:24:16Z</time>
      </trkpt>
      <trkpt lat="38.2755990" lon="-0.6334910">
        <ele>127.0</ele>
        <time>2019-12-20T08:24:17Z</time>
      </trkpt>
      <trkpt lat="38.2756220" lon="-0.6334520">
        <ele>127.2</ele>
        <time>2019-12-20T08:24:18Z</time>
      </trkpt>
      <trkpt lat="38.2756440" lon="-0.6334120">
        <ele>127.2</ele>
        <time>2019-12-20T08:24:19Z</time>
      </trkpt>
      <trkpt lat="38.2756910" lon="-0.6333350">
        <ele>127.0</ele>
        <time>2019-12-20T08:24:20Z</time>
      </trkpt>
      <trkpt lat="38.2757820" lon="-0.6331810">
        <ele>127.0</ele>
        <time>2019-12-20T08:24:21Z</time>
      </trkpt>
      <trkpt lat="38.2758050" lon="-0.6331430">
        <ele>127.0</ele>
        <time>2019-12-20T08:24:22Z</time>
      </trkpt>
      <trkpt lat="38.2758270" lon="-0.6331040">
        <ele>127.2</ele>
        <time>2019-12-20T08:24:23Z</time>
      </trkpt>
      <trkpt lat="38.2758710" lon="-0.6330280">
        <ele>127.4</ele>
        <time>2019-12-20T08:24:24Z</time>
      </trkpt>
      <trkpt lat="38.2759180" lon="-0.6329510">
        <ele>127.4</ele>
        <time>2019-12-20T08:24:25Z</time>
      </trkpt>
      <trkpt lat="38.2760090" lon="-0.6327970">
        <ele>127.6</ele>
        <time>2019-12-20T08:24:26Z</time>
      </trkpt>
      <trkpt lat="38.2760550" lon="-0.6327180">
        <ele>127.8</ele>
        <time>2019-12-20T08:24:27Z</time>
      </trkpt>
      <trkpt lat="38.2760780" lon="-0.6326800">
        <ele>128.0</ele>
        <time>2019-12-20T08:24:28Z</time>
      </trkpt>
      <trkpt lat="38.2761010" lon="-0.6326410">
        <ele>128.0</ele>
        <time>2019-12-20T08:24:29Z</time>
      </trkpt>
      <trkpt lat="38.2761960" lon="-0.6324880">
        <ele>127.8</ele>
        <time>2019-12-20T08:24:30Z</time>
      </trkpt>
      <trkpt lat="38.2762200" lon="-0.6324500">
        <ele>128.0</ele>
        <time>2019-12-20T08:24:31Z</time>
      </trkpt>
      <trkpt lat="38.2762440" lon="-0.6324110">
        <ele>128.0</ele>
        <time>2019-12-20T08:24:32Z</time>
      </trkpt>
      <trkpt lat="38.2763160" lon="-0.6322930">
        <ele>128.0</ele>
        <time>2019-12-20T08:24:33Z</time>
      </trkpt>
      <trkpt lat="38.2763400" lon="-0.6322530">
        <ele>128.2</ele>
        <time>2019-12-20T08:24:34Z</time>
      </trkpt>
      <trkpt lat="38.2763870" lon="-0.6321740">
        <ele>128.2</ele>
        <time>2019-12-20T08:24:35Z</time>
      </trkpt>
      <trkpt lat="38.2764820" lon="-0.6320170">
        <ele>128.6</ele>
        <time>2019-12-20T08:24:36Z</time>
      </trkpt>
      <trkpt lat="38.2765060" lon="-0.6319780">
        <ele>128.6</ele>
        <time>2019-12-20T08:24:37Z</time>
      </trkpt>
      <trkpt lat="38.2765300" lon="-0.6319380">
        <ele>128.6</ele>
        <time>2019-12-20T08:24:38Z</time>
      </trkpt>
      <trkpt lat="38.2766250" lon="-0.6317820">
        <ele>128.8</ele>
        <time>2019-12-20T08:24:39Z</time>
      </trkpt>
      <trkpt lat="38.2766490" lon="-0.6317430">
        <ele>128.8</ele>
        <time>2019-12-20T08:24:40Z</time>
      </trkpt>
      <trkpt lat="38.2766720" lon="-0.6317040">
        <ele>129.2</ele>
        <time>2019-12-20T08:24:41Z</time>
      </trkpt>
      <trkpt lat="38.2767190" lon="-0.6316270">
        <ele>129.2</ele>
        <time>2019-12-20T08:24:42Z</time>
      </trkpt>
      <trkpt lat="38.2767680" lon="-0.6315500">
        <ele>129.6</ele>
        <time>2019-12-20T08:24:43Z</time>
      </trkpt>
      <trkpt lat="38.2768640" lon="-0.6313950">
        <ele>129.4</ele>
        <time>2019-12-20T08:24:44Z</time>
      </trkpt>
      <trkpt lat="38.2769010" lon="-0.6313370">
        <ele>129.4</ele>
        <time>2019-12-20T08:24:45Z</time>
      </trkpt>
      <trkpt lat="38.2769380" lon="-0.6312790">
        <ele>129.4</ele>
        <time>2019-12-20T08:24:46Z</time>
      </trkpt>
      <trkpt lat="38.2770120" lon="-0.6311630">
        <ele>129.4</ele>
        <time>2019-12-20T08:24:47Z</time>
      </trkpt>
      <trkpt lat="38.2770610" lon="-0.6310850">
        <ele>129.4</ele>
        <time>2019-12-20T08:24:48Z</time>
      </trkpt>
      <trkpt lat="38.2771100" lon="-0.6310070">
        <ele>129.8</ele>
        <time>2019-12-20T08:24:49Z</time>
      </trkpt>
      <trkpt lat="38.2771360" lon="-0.6309690">
        <ele>129.8</ele>
        <time>2019-12-20T08:24:50Z</time>
      </trkpt>
      <trkpt lat="38.2771610" lon="-0.6309300">
        <ele>130.0</ele>
        <time>2019-12-20T08:24:51Z</time>
      </trkpt>
      <trkpt lat="38.2772360" lon="-0.6308150">
        <ele>130.0</ele>
        <time>2019-12-20T08:24:52Z</time>
      </trkpt>
      <trkpt lat="38.2772610" lon="-0.6307760">
        <ele>130.2</ele>
        <time>2019-12-20T08:24:53Z</time>
      </trkpt>
      <trkpt lat="38.2773120" lon="-0.6306980">
        <ele>130.4</ele>
        <time>2019-12-20T08:24:54Z</time>
      </trkpt>
      <trkpt lat="38.2773630" lon="-0.6306200">
        <ele>130.0</ele>
        <time>2019-12-20T08:24:55Z</time>
      </trkpt>
      <trkpt lat="38.2774160" lon="-0.6305410">
        <ele>130.0</ele>
        <time>2019-12-20T08:24:56Z</time>
      </trkpt>
      <trkpt lat="38.2775200" lon="-0.6303830">
        <ele>130.0</ele>
        <time>2019-12-20T08:24:57Z</time>
      </trkpt>
      <trkpt lat="38.2775470" lon="-0.6303440">
        <ele>130.4</ele>
        <time>2019-12-20T08:24:58Z</time>
      </trkpt>
      <trkpt lat="38.2775730" lon="-0.6303050">
        <ele>130.6</ele>
        <time>2019-12-20T08:24:59Z</time>
      </trkpt>
      <trkpt lat="38.2776260" lon="-0.6302270">
        <ele>130.8</ele>
        <time>2019-12-20T08:25:00Z</time>
      </trkpt>
      <trkpt lat="38.2776800" lon="-0.6301480">
        <ele>130.6</ele>
        <time>2019-12-20T08:25:01Z</time>
      </trkpt>
      <trkpt lat="38.2777320" lon="-0.6300710">
        <ele>130.6</ele>
        <time>2019-12-20T08:25:02Z</time>
      </trkpt>
      <trkpt lat="38.2777840" lon="-0.6299920">
        <ele>130.8</ele>
        <time>2019-12-20T08:25:03Z</time>
      </trkpt>
      <trkpt lat="38.2778910" lon="-0.6298330">
        <ele>130.8</ele>
        <time>2019-12-20T08:25:04Z</time>
      </trkpt>
      <trkpt lat="38.2779180" lon="-0.6297940">
        <ele>131.0</ele>
        <time>2019-12-20T08:25:05Z</time>
      </trkpt>
      <trkpt lat="38.2779440" lon="-0.6297540">
        <ele>130.8</ele>
        <time>2019-12-20T08:25:06Z</time>
      </trkpt>
      <trkpt lat="38.2780520" lon="-0.6295940">
        <ele>130.6</ele>
        <time>2019-12-20T08:25:07Z</time>
      </trkpt>
      <trkpt lat="38.2780800" lon="-0.6295540">
        <ele>130.6</ele>
        <time>2019-12-20T08:25:08Z</time>
      </trkpt>
      <trkpt lat="38.2781070" lon="-0.6295140">
        <ele>130.6</ele>
        <time>2019-12-20T08:25:09Z</time>
      </trkpt>
      <trkpt lat="38.2781630" lon="-0.6294330">
        <ele>130.6</ele>
        <time>2019-12-20T08:25:10Z</time>
      </trkpt>
      <trkpt lat="38.2782210" lon="-0.6293540">
        <ele>130.8</ele>
        <time>2019-12-20T08:25:11Z</time>
      </trkpt>
      <trkpt lat="38.2782780" lon="-0.6292740">
        <ele>130.4</ele>
        <time>2019-12-20T08:25:12Z</time>
      </trkpt>
      <trkpt lat="38.2783360" lon="-0.6291940">
        <ele>130.2</ele>
        <time>2019-12-20T08:25:13Z</time>
      </trkpt>
      <trkpt lat="38.2784500" lon="-0.6290300">
        <ele>130.2</ele>
        <time>2019-12-20T08:25:14Z</time>
      </trkpt>
      <trkpt lat="38.2784800" lon="-0.6289900">
        <ele>130.0</ele>
        <time>2019-12-20T08:25:15Z</time>
      </trkpt>
      <trkpt lat="38.2785090" lon="-0.6289490">
        <ele>129.6</ele>
        <time>2019-12-20T08:25:16Z</time>
      </trkpt>
      <trkpt lat="38.2786280" lon="-0.6287900">
        <ele>129.6</ele>
        <time>2019-12-20T08:25:17Z</time>
      </trkpt>
      <trkpt lat="38.2786590" lon="-0.6287490">
        <ele>129.8</ele>
        <time>2019-12-20T08:25:18Z</time>
      </trkpt>
      <trkpt lat="38.2786890" lon="-0.6287080">
        <ele>129.8</ele>
        <time>2019-12-20T08:25:19Z</time>
      </trkpt>
      <trkpt lat="38.2787490" lon="-0.6286250">
        <ele>129.4</ele>
        <time>2019-12-20T08:25:20Z</time>
      </trkpt>
      <trkpt lat="38.2788090" lon="-0.6285410">
        <ele>129.4</ele>
        <time>2019-12-20T08:25:21Z</time>
      </trkpt>
      <trkpt lat="38.2788710" lon="-0.6284580">
        <ele>129.2</ele>
        <time>2019-12-20T08:25:22Z</time>
      </trkpt>
      <trkpt lat="38.2789950" lon="-0.6282940">
        <ele>129.4</ele>
        <time>2019-12-20T08:25:23Z</time>
      </trkpt>
      <trkpt lat="38.2790260" lon="-0.6282540">
        <ele>129.4</ele>
        <time>2019-12-20T08:25:24Z</time>
      </trkpt>
      <trkpt lat="38.2790570" lon="-0.6282130">
        <ele>129.2</ele>
        <time>2019-12-20T08:25:25Z</time>
      </trkpt>
      <trkpt lat="38.2791500" lon="-0.6280920">
        <ele>129.0</ele>
        <time>2019-12-20T08:25:26Z</time>
      </trkpt>
      <trkpt lat="38.2791810" lon="-0.6280510">
        <ele>129.0</ele>
        <time>2019-12-20T08:25:27Z</time>
      </trkpt>
      <trkpt lat="38.2792440" lon="-0.6279710">
        <ele>128.8</ele>
        <time>2019-12-20T08:25:28Z</time>
      </trkpt>
      <trkpt lat="38.2793070" lon="-0.6278920">
        <ele>128.8</ele>
        <time>2019-12-20T08:25:29Z</time>
      </trkpt>
      <trkpt lat="38.2793700" lon="-0.6278120">
        <ele>128.8</ele>
        <time>2019-12-20T08:25:30Z</time>
      </trkpt>
      <trkpt lat="38.2794340" lon="-0.6277320">
        <ele>128.8</ele>
        <time>2019-12-20T08:25:31Z</time>
      </trkpt>
      <trkpt lat="38.2795630" lon="-0.6275740">
        <ele>128.8</ele>
        <time>2019-12-20T08:25:32Z</time>
      </trkpt>
      <trkpt lat="38.2795960" lon="-0.6275350">
        <ele>128.8</ele>
        <time>2019-12-20T08:25:33Z</time>
      </trkpt>
      <trkpt lat="38.2796280" lon="-0.6274960">
        <ele>128.8</ele>
        <time>2019-12-20T08:25:34Z</time>
      </trkpt>
      <trkpt lat="38.2796930" lon="-0.6274170">
        <ele>128.8</ele>
        <time>2019-12-20T08:25:35Z</time>
      </trkpt>
      <trkpt lat="38.2797580" lon="-0.6273370">
        <ele>129.0</ele>
        <time>2019-12-20T08:25:36Z</time>
      </trkpt>
      <trkpt lat="38.2798230" lon="-0.6272590">
        <ele>128.8</ele>
        <time>2019-12-20T08:25:37Z</time>
      </trkpt>
      <trkpt lat="38.2799540" lon="-0.6271020">
        <ele>128.6</ele>
        <time>2019-12-20T08:25:38Z</time>
      </trkpt>
      <trkpt lat="38.2799870" lon="-0.6270630">
        <ele>128.8</ele>
        <time>2019-12-20T08:25:39Z</time>
      </trkpt>
      <trkpt lat="38.2800190" lon="-0.6270230">
        <ele>128.8</ele>
        <time>2019-12-20T08:25:40Z</time>
      </trkpt>
      <trkpt lat="38.2801480" lon="-0.6268640">
        <ele>129.0</ele>
        <time>2019-12-20T08:25:41Z</time>
      </trkpt>
      <trkpt lat="38.2801800" lon="-0.6268230">
        <ele>129.0</ele>
        <time>2019-12-20T08:25:42Z</time>
      </trkpt>
      <trkpt lat="38.2802110" lon="-0.6267810">
        <ele>128.8</ele>
        <time>2019-12-20T08:25:43Z</time>
      </trkpt>
      <trkpt lat="38.2802720" lon="-0.6266970">
        <ele>128.8</ele>
        <time>2019-12-20T08:25:44Z</time>
      </trkpt>
      <trkpt lat="38.2803310" lon="-0.6266100">
        <ele>129.0</ele>
        <time>2019-12-20T08:25:45Z</time>
      </trkpt>
      <trkpt lat="38.2803880" lon="-0.6265220">
        <ele>129.0</ele>
        <time>2019-12-20T08:25:46Z</time>
      </trkpt>
      <trkpt lat="38.2805000" lon="-0.6263400">
        <ele>128.8</ele>
        <time>2019-12-20T08:25:47Z</time>
      </trkpt>
      <trkpt lat="38.2805280" lon="-0.6262940">
        <ele>128.6</ele>
        <time>2019-12-20T08:25:48Z</time>
      </trkpt>
      <trkpt lat="38.2805550" lon="-0.6262480">
        <ele>128.6</ele>
        <time>2019-12-20T08:25:49Z</time>
      </trkpt>
      <trkpt lat="38.2806500" lon="-0.6260870">
        <ele>128.8</ele>
        <time>2019-12-20T08:25:50Z</time>
      </trkpt>
      <trkpt lat="38.2806900" lon="-0.6260170">
        <ele>128.6</ele>
        <time>2019-12-20T08:25:51Z</time>
      </trkpt>
      <trkpt lat="38.2807700" lon="-0.6258770">
        <ele>128.6</ele>
        <time>2019-12-20T08:25:52Z</time>
      </trkpt>
      <trkpt lat="38.2808220" lon="-0.6257840">
        <ele>128.6</ele>
        <time>2019-12-20T08:25:53Z</time>
      </trkpt>
      <trkpt lat="38.2808480" lon="-0.6257370">
        <ele>128.8</ele>
        <time>2019-12-20T08:25:54Z</time>
      </trkpt>
      <trkpt lat="38.2808740" lon="-0.6256900">
        <ele>129.0</ele>
        <time>2019-12-20T08:25:55Z</time>
      </trkpt>
      <trkpt lat="38.2809260" lon="-0.6255960">
        <ele>129.2</ele>
        <time>2019-12-20T08:25:56Z</time>
      </trkpt>
      <trkpt lat="38.2809790" lon="-0.6255020">
        <ele>129.2</ele>
        <time>2019-12-20T08:25:57Z</time>
      </trkpt>
      <trkpt lat="38.2810300" lon="-0.6254090">
        <ele>129.0</ele>
        <time>2019-12-20T08:25:58Z</time>
      </trkpt>
      <trkpt lat="38.2811300" lon="-0.6252200">
        <ele>128.8</ele>
        <time>2019-12-20T08:25:59Z</time>
      </trkpt>
      <trkpt lat="38.2811810" lon="-0.6251250">
        <ele>128.8</ele>
        <time>2019-12-20T08:26:00Z</time>
      </trkpt>
      <trkpt lat="38.2812060" lon="-0.6250780">
        <ele>128.8</ele>
        <time>2019-12-20T08:26:01Z</time>
      </trkpt>
      <trkpt lat="38.2812310" lon="-0.6250310">
        <ele>128.8</ele>
        <time>2019-12-20T08:26:02Z</time>
      </trkpt>
      <trkpt lat="38.2812810" lon="-0.6249380">
        <ele>128.8</ele>
        <time>2019-12-20T08:26:03Z</time>
      </trkpt>
      <trkpt lat="38.2813310" lon="-0.6248450">
        <ele>128.6</ele>
        <time>2019-12-20T08:26:04Z</time>
      </trkpt>
      <trkpt lat="38.2813790" lon="-0.6247510">
        <ele>128.8</ele>
        <time>2019-12-20T08:26:05Z</time>
      </trkpt>
      <trkpt lat="38.2814280" lon="-0.6246590">
        <ele>128.6</ele>
        <time>2019-12-20T08:26:06Z</time>
      </trkpt>
      <trkpt lat="38.2814760" lon="-0.6245650">
        <ele>128.6</ele>
        <time>2019-12-20T08:26:07Z</time>
      </trkpt>
      <trkpt lat="38.2815230" lon="-0.6244720">
        <ele>128.8</ele>
        <time>2019-12-20T08:26:08Z</time>
      </trkpt>
      <trkpt lat="38.2815700" lon="-0.6243770">
        <ele>128.8</ele>
        <time>2019-12-20T08:26:09Z</time>
      </trkpt>
      <trkpt lat="38.2816610" lon="-0.6241880">
        <ele>128.6</ele>
        <time>2019-12-20T08:26:10Z</time>
      </trkpt>
      <trkpt lat="38.2817050" lon="-0.6240930">
        <ele>128.4</ele>
        <time>2019-12-20T08:26:11Z</time>
      </trkpt>
      <trkpt lat="38.2817270" lon="-0.6240460">
        <ele>128.8</ele>
        <time>2019-12-20T08:26:12Z</time>
      </trkpt>
      <trkpt lat="38.2817490" lon="-0.6239980">
        <ele>128.8</ele>
        <time>2019-12-20T08:26:13Z</time>
      </trkpt>
      <trkpt lat="38.2818340" lon="-0.6238090">
        <ele>128.8</ele>
        <time>2019-12-20T08:26:14Z</time>
      </trkpt>
      <trkpt lat="38.2818760" lon="-0.6237140">
        <ele>128.8</ele>
        <time>2019-12-20T08:26:15Z</time>
      </trkpt>
      <trkpt lat="38.2818970" lon="-0.6236660">
        <ele>128.8</ele>
        <time>2019-12-20T08:26:16Z</time>
      </trkpt>
      <trkpt lat="38.2819180" lon="-0.6236180">
        <ele>129.0</ele>
        <time>2019-12-20T08:26:17Z</time>
      </trkpt>
      <trkpt lat="38.2819790" lon="-0.6234720">
        <ele>129.2</ele>
        <time>2019-12-20T08:26:18Z</time>
      </trkpt>
      <trkpt lat="38.2819990" lon="-0.6234220">
        <ele>128.8</ele>
        <time>2019-12-20T08:26:19Z</time>
      </trkpt>
      <trkpt lat="38.2820670" lon="-0.6232490">
        <ele>128.8</ele>
        <time>2019-12-20T08:26:20Z</time>
      </trkpt>
      <trkpt lat="38.2820960" lon="-0.6231740">
        <ele>128.8</ele>
        <time>2019-12-20T08:26:21Z</time>
      </trkpt>
      <trkpt lat="38.2821530" lon="-0.6230240">
        <ele>129.0</ele>
        <time>2019-12-20T08:26:22Z</time>
      </trkpt>
      <trkpt lat="38.2821740" lon="-0.6229750">
        <ele>128.8</ele>
        <time>2019-12-20T08:26:23Z</time>
      </trkpt>
      <trkpt lat="38.2821950" lon="-0.6229250">
        <ele>128.8</ele>
        <time>2019-12-20T08:26:24Z</time>
      </trkpt>
      <trkpt lat="38.2822810" lon="-0.6227290">
        <ele>129.0</ele>
        <time>2019-12-20T08:26:25Z</time>
      </trkpt>
      <trkpt lat="38.2823020" lon="-0.6226790">
        <ele>129.0</ele>
        <time>2019-12-20T08:26:26Z</time>
      </trkpt>
      <trkpt lat="38.2823220" lon="-0.6226280">
        <ele>129.0</ele>
        <time>2019-12-20T08:26:27Z</time>
      </trkpt>
      <trkpt lat="38.2823840" lon="-0.6224750">
        <ele>128.8</ele>
        <time>2019-12-20T08:26:28Z</time>
      </trkpt>
      <trkpt lat="38.2824040" lon="-0.6224230">
        <ele>128.8</ele>
        <time>2019-12-20T08:26:29Z</time>
      </trkpt>
      <trkpt lat="38.2824470" lon="-0.6223210">
        <ele>128.6</ele>
        <time>2019-12-20T08:26:30Z</time>
      </trkpt>
      <trkpt lat="38.2824920" lon="-0.6222180">
        <ele>128.2</ele>
        <time>2019-12-20T08:26:31Z</time>
      </trkpt>
      <trkpt lat="38.2825860" lon="-0.6220130">
        <ele>128.0</ele>
        <time>2019-12-20T08:26:32Z</time>
      </trkpt>
      <trkpt lat="38.2826110" lon="-0.6219610">
        <ele>128.0</ele>
        <time>2019-12-20T08:26:33Z</time>
      </trkpt>
      <trkpt lat="38.2826350" lon="-0.6219090">
        <ele>127.8</ele>
        <time>2019-12-20T08:26:34Z</time>
      </trkpt>
      <trkpt lat="38.2827340" lon="-0.6216980">
        <ele>127.8</ele>
        <time>2019-12-20T08:26:35Z</time>
      </trkpt>
      <trkpt lat="38.2827710" lon="-0.6216190">
        <ele>127.6</ele>
        <time>2019-12-20T08:26:36Z</time>
      </trkpt>
      <trkpt lat="38.2828080" lon="-0.6215390">
        <ele>127.4</ele>
        <time>2019-12-20T08:26:37Z</time>
      </trkpt>
      <trkpt lat="38.2828810" lon="-0.6213790">
        <ele>127.8</ele>
        <time>2019-12-20T08:26:38Z</time>
      </trkpt>
      <trkpt lat="38.2829190" lon="-0.6212990">
        <ele>127.6</ele>
        <time>2019-12-20T08:26:39Z</time>
      </trkpt>
      <trkpt lat="38.2829560" lon="-0.6212190">
        <ele>127.4</ele>
        <time>2019-12-20T08:26:40Z</time>
      </trkpt>
      <trkpt lat="38.2830310" lon="-0.6210590">
        <ele>127.2</ele>
        <time>2019-12-20T08:26:41Z</time>
      </trkpt>
      <trkpt lat="38.2830560" lon="-0.6210060">
        <ele>127.2</ele>
        <time>2019-12-20T08:26:42Z</time>
      </trkpt>
      <trkpt lat="38.2830810" lon="-0.6209520">
        <ele>126.8</ele>
        <time>2019-12-20T08:26:43Z</time>
      </trkpt>
      <trkpt lat="38.2831570" lon="-0.6207910">
        <ele>126.8</ele>
        <time>2019-12-20T08:26:44Z</time>
      </trkpt>
      <trkpt lat="38.2832320" lon="-0.6206300">
        <ele>126.8</ele>
        <time>2019-12-20T08:26:45Z</time>
      </trkpt>
      <trkpt lat="38.2832560" lon="-0.6205760">
        <ele>126.6</ele>
        <time>2019-12-20T08:26:46Z</time>
      </trkpt>
      <trkpt lat="38.2832800" lon="-0.6205220">
        <ele>126.6</ele>
        <time>2019-12-20T08:26:47Z</time>
      </trkpt>
      <trkpt lat="38.2833500" lon="-0.6203580">
        <ele>126.6</ele>
        <time>2019-12-20T08:26:48Z</time>
      </trkpt>
      <trkpt lat="38.2833710" lon="-0.6203020">
        <ele>126.6</ele>
        <time>2019-12-20T08:26:49Z</time>
      </trkpt>
      <trkpt lat="38.2834340" lon="-0.6201340">
        <ele>126.6</ele>
        <time>2019-12-20T08:26:50Z</time>
      </trkpt>
      <trkpt lat="38.2834530" lon="-0.6200780">
        <ele>126.6</ele>
        <time>2019-12-20T08:26:51Z</time>
      </trkpt>
      <trkpt lat="38.2835200" lon="-0.6198500">
        <ele>126.8</ele>
        <time>2019-12-20T08:26:52Z</time>
      </trkpt>
      <trkpt lat="38.2835330" lon="-0.6197920">
        <ele>126.6</ele>
        <time>2019-12-20T08:26:53Z</time>
      </trkpt>
      <trkpt lat="38.2835450" lon="-0.6197330">
        <ele>126.8</ele>
        <time>2019-12-20T08:26:54Z</time>
      </trkpt>
      <trkpt lat="38.2835690" lon="-0.6196150">
        <ele>126.6</ele>
        <time>2019-12-20T08:26:55Z</time>
      </trkpt>
      <trkpt lat="38.2835920" lon="-0.6194990">
        <ele>126.6</ele>
        <time>2019-12-20T08:26:56Z</time>
      </trkpt>
      <trkpt lat="38.2836320" lon="-0.6192680">
        <ele>126.6</ele>
        <time>2019-12-20T08:26:57Z</time>
      </trkpt>
      <trkpt lat="38.2836410" lon="-0.6192110">
        <ele>127.0</ele>
        <time>2019-12-20T08:26:58Z</time>
      </trkpt>
      <trkpt lat="38.2836500" lon="-0.6191530">
        <ele>126.6</ele>
        <time>2019-12-20T08:26:59Z</time>
      </trkpt>
      <trkpt lat="38.2836860" lon="-0.6189220">
        <ele>126.4</ele>
        <time>2019-12-20T08:27:00Z</time>
      </trkpt>
      <trkpt lat="38.2837050" lon="-0.6188070">
        <ele>126.2</ele>
        <time>2019-12-20T08:27:01Z</time>
      </trkpt>
      <trkpt lat="38.2837250" lon="-0.6186940">
        <ele>126.2</ele>
        <time>2019-12-20T08:27:02Z</time>
      </trkpt>
      <trkpt lat="38.2837350" lon="-0.6186380">
        <ele>126.2</ele>
        <time>2019-12-20T08:27:03Z</time>
      </trkpt>
      <trkpt lat="38.2837440" lon="-0.6185810">
        <ele>126.2</ele>
        <time>2019-12-20T08:27:04Z</time>
      </trkpt>
      <trkpt lat="38.2837820" lon="-0.6183590">
        <ele>126.2</ele>
        <time>2019-12-20T08:27:05Z</time>
      </trkpt>
      <trkpt lat="38.2837920" lon="-0.6183040">
        <ele>126.0</ele>
        <time>2019-12-20T08:27:06Z</time>
      </trkpt>
      <trkpt lat="38.2838010" lon="-0.6182480">
        <ele>126.0</ele>
        <time>2019-12-20T08:27:07Z</time>
      </trkpt>
      <trkpt lat="38.2838210" lon="-0.6181370">
        <ele>126.0</ele>
        <time>2019-12-20T08:27:08Z</time>
      </trkpt>
      <trkpt lat="38.2838400" lon="-0.6180270">
        <ele>125.8</ele>
        <time>2019-12-20T08:27:09Z</time>
      </trkpt>
      <trkpt lat="38.2838610" lon="-0.6179170">
        <ele>126.0</ele>
        <time>2019-12-20T08:27:10Z</time>
      </trkpt>
      <trkpt lat="38.2838990" lon="-0.6176980">
        <ele>126.0</ele>
        <time>2019-12-20T08:27:11Z</time>
      </trkpt>
      <trkpt lat="38.2839090" lon="-0.6176450">
        <ele>126.0</ele>
        <time>2019-12-20T08:27:12Z</time>
      </trkpt>
      <trkpt lat="38.2839180" lon="-0.6175920">
        <ele>126.0</ele>
        <time>2019-12-20T08:27:13Z</time>
      </trkpt>
      <trkpt lat="38.2839550" lon="-0.6173850">
        <ele>126.2</ele>
        <time>2019-12-20T08:27:14Z</time>
      </trkpt>
      <trkpt lat="38.2839630" lon="-0.6173340">
        <ele>126.2</ele>
        <time>2019-12-20T08:27:15Z</time>
      </trkpt>
      <trkpt lat="38.2839710" lon="-0.6172830">
        <ele>126.4</ele>
        <time>2019-12-20T08:27:16Z</time>
      </trkpt>
      <trkpt lat="38.2839990" lon="-0.6170840">
        <ele>127.4</ele>
        <time>2019-12-20T08:27:17Z</time>
      </trkpt>
      <trkpt lat="38.2840050" lon="-0.6170340">
        <ele>127.0</ele>
        <time>2019-12-20T08:27:18Z</time>
      </trkpt>
      <trkpt lat="38.2840110" lon="-0.6169840">
        <ele>126.8</ele>
        <time>2019-12-20T08:27:19Z</time>
      </trkpt>
      <trkpt lat="38.2840270" lon="-0.6167830">
        <ele>126.8</ele>
        <time>2019-12-20T08:27:20Z</time>
      </trkpt>
      <trkpt lat="38.2840280" lon="-0.6167330">
        <ele>126.8</ele>
        <time>2019-12-20T08:27:21Z</time>
      </trkpt>
      <trkpt lat="38.2840280" lon="-0.6166820">
        <ele>126.6</ele>
        <time>2019-12-20T08:27:22Z</time>
      </trkpt>
      <trkpt lat="38.2840220" lon="-0.6165820">
        <ele>126.6</ele>
        <time>2019-12-20T08:27:23Z</time>
      </trkpt>
      <trkpt lat="38.2840100" lon="-0.6164830">
        <ele>126.6</ele>
        <time>2019-12-20T08:27:24Z</time>
      </trkpt>
      <trkpt lat="38.2839700" lon="-0.6162920">
        <ele>126.6</ele>
        <time>2019-12-20T08:27:25Z</time>
      </trkpt>
      <trkpt lat="38.2839430" lon="-0.6162000">
        <ele>126.6</ele>
        <time>2019-12-20T08:27:26Z</time>
      </trkpt>
      <trkpt lat="38.2839280" lon="-0.6161550">
        <ele>126.4</ele>
        <time>2019-12-20T08:27:27Z</time>
      </trkpt>
      <trkpt lat="38.2839120" lon="-0.6161100">
        <ele>126.4</ele>
        <time>2019-12-20T08:27:28Z</time>
      </trkpt>
      <trkpt lat="38.2838570" lon="-0.6159530">
        <ele>126.2</ele>
        <time>2019-12-20T08:27:29Z</time>
      </trkpt>
      <trkpt lat="38.2838320" lon="-0.6158860">
        <ele>126.2</ele>
        <time>2019-12-20T08:27:30Z</time>
      </trkpt>
      <trkpt lat="38.2837830" lon="-0.6157520">
        <ele>126.0</ele>
        <time>2019-12-20T08:27:31Z</time>
      </trkpt>
      <trkpt lat="38.2837680" lon="-0.6157070">
        <ele>126.6</ele>
        <time>2019-12-20T08:27:32Z</time>
      </trkpt>
      <trkpt lat="38.2837530" lon="-0.6156620">
        <ele>126.8</ele>
        <time>2019-12-20T08:27:33Z</time>
      </trkpt>
      <trkpt lat="38.2837210" lon="-0.6155700">
        <ele>126.4</ele>
        <time>2019-12-20T08:27:34Z</time>
      </trkpt>
      <trkpt lat="38.2836950" lon="-0.6154790">
        <ele>126.4</ele>
        <time>2019-12-20T08:27:35Z</time>
      </trkpt>
      <trkpt lat="38.2836630" lon="-0.6153890">
        <ele>126.0</ele>
        <time>2019-12-20T08:27:36Z</time>
      </trkpt>
      <trkpt lat="38.2836370" lon="-0.6152940">
        <ele>125.6</ele>
        <time>2019-12-20T08:27:37Z</time>
      </trkpt>
      <trkpt lat="38.2836050" lon="-0.6152000">
        <ele>125.6</ele>
        <time>2019-12-20T08:27:38Z</time>
      </trkpt>
      <trkpt lat="38.2835400" lon="-0.6150170">
        <ele>125.2</ele>
        <time>2019-12-20T08:27:39Z</time>
      </trkpt>
      <trkpt lat="38.2835220" lon="-0.6149740">
        <ele>125.6</ele>
        <time>2019-12-20T08:27:40Z</time>
      </trkpt>
      <trkpt lat="38.2835030" lon="-0.6149310">
        <ele>126.2</ele>
        <time>2019-12-20T08:27:41Z</time>
      </trkpt>
      <trkpt lat="38.2834670" lon="-0.6148360">
        <ele>125.2</ele>
        <time>2019-12-20T08:27:42Z</time>
      </trkpt>
      <trkpt lat="38.2834310" lon="-0.6147420">
        <ele>125.0</ele>
        <time>2019-12-20T08:27:43Z</time>
      </trkpt>
      <trkpt lat="38.2833950" lon="-0.6146440">
        <ele>124.8</ele>
        <time>2019-12-20T08:27:44Z</time>
      </trkpt>
      <trkpt lat="38.2833600" lon="-0.6145460">
        <ele>125.0</ele>
        <time>2019-12-20T08:27:45Z</time>
      </trkpt>
      <trkpt lat="38.2833270" lon="-0.6144470">
        <ele>124.8</ele>
        <time>2019-12-20T08:27:46Z</time>
      </trkpt>
      <trkpt lat="38.2832770" lon="-0.6142500">
        <ele>124.8</ele>
        <time>2019-12-20T08:27:47Z</time>
      </trkpt>
      <trkpt lat="38.2832680" lon="-0.6141980">
        <ele>124.4</ele>
        <time>2019-12-20T08:27:48Z</time>
      </trkpt>
      <trkpt lat="38.2832580" lon="-0.6141470">
        <ele>124.4</ele>
        <time>2019-12-20T08:27:49Z</time>
      </trkpt>
      <trkpt lat="38.2832450" lon="-0.6140420">
        <ele>124.4</ele>
        <time>2019-12-20T08:27:50Z</time>
      </trkpt>
      <trkpt lat="38.2832280" lon="-0.6138320">
        <ele>124.4</ele>
        <time>2019-12-20T08:27:51Z</time>
      </trkpt>
      <trkpt lat="38.2832230" lon="-0.6137770">
        <ele>124.2</ele>
        <time>2019-12-20T08:27:52Z</time>
      </trkpt>
      <trkpt lat="38.2832180" lon="-0.6137230">
        <ele>124.0</ele>
        <time>2019-12-20T08:27:53Z</time>
      </trkpt>
      <trkpt lat="38.2832100" lon="-0.6136150">
        <ele>124.0</ele>
        <time>2019-12-20T08:27:54Z</time>
      </trkpt>
      <trkpt lat="38.2831940" lon="-0.6134050">
        <ele>123.8</ele>
        <time>2019-12-20T08:27:55Z</time>
      </trkpt>
      <trkpt lat="38.2831820" lon="-0.6133000">
        <ele>124.0</ele>
        <time>2019-12-20T08:27:56Z</time>
      </trkpt>
      <trkpt lat="38.2831730" lon="-0.6132490">
        <ele>124.0</ele>
        <time>2019-12-20T08:27:57Z</time>
      </trkpt>
      <trkpt lat="38.2831640" lon="-0.6131980">
        <ele>124.0</ele>
        <time>2019-12-20T08:27:58Z</time>
      </trkpt>
      <trkpt lat="38.2830960" lon="-0.6130070">
        <ele>123.8</ele>
        <time>2019-12-20T08:27:59Z</time>
      </trkpt>
      <trkpt lat="38.2830740" lon="-0.6129640">
        <ele>123.8</ele>
        <time>2019-12-20T08:28:00Z</time>
      </trkpt>
      <trkpt lat="38.2830510" lon="-0.6129220">
        <ele>124.0</ele>
        <time>2019-12-20T08:28:01Z</time>
      </trkpt>
      <trkpt lat="38.2829570" lon="-0.6127580">
        <ele>124.0</ele>
        <time>2019-12-20T08:28:02Z</time>
      </trkpt>
      <trkpt lat="38.2829110" lon="-0.6126760">
        <ele>124.2</ele>
        <time>2019-12-20T08:28:03Z</time>
      </trkpt>
      <trkpt lat="38.2828890" lon="-0.6126340">
        <ele>124.0</ele>
        <time>2019-12-20T08:28:04Z</time>
      </trkpt>
      <trkpt lat="38.2828670" lon="-0.6125930">
        <ele>123.4</ele>
        <time>2019-12-20T08:28:05Z</time>
      </trkpt>
      <trkpt lat="38.2828030" lon="-0.6124680">
        <ele>123.0</ele>
        <time>2019-12-20T08:28:06Z</time>
      </trkpt>
      <trkpt lat="38.2827820" lon="-0.6124250">
        <ele>123.0</ele>
        <time>2019-12-20T08:28:07Z</time>
      </trkpt>
      <trkpt lat="38.2827240" lon="-0.6122960">
        <ele>123.2</ele>
        <time>2019-12-20T08:28:08Z</time>
      </trkpt>
      <trkpt lat="38.2827060" lon="-0.6122530">
        <ele>123.6</ele>
        <time>2019-12-20T08:28:09Z</time>
      </trkpt>
      <trkpt lat="38.2826710" lon="-0.6121630">
        <ele>123.4</ele>
        <time>2019-12-20T08:28:10Z</time>
      </trkpt>
      <trkpt lat="38.2826430" lon="-0.6120690">
        <ele>123.2</ele>
        <time>2019-12-20T08:28:11Z</time>
      </trkpt>
      <trkpt lat="38.2826230" lon="-0.6119700">
        <ele>123.4</ele>
        <time>2019-12-20T08:28:12Z</time>
      </trkpt>
      <trkpt lat="38.2826150" lon="-0.6118700">
        <ele>123.4</ele>
        <time>2019-12-20T08:28:13Z</time>
      </trkpt>
      <trkpt lat="38.2826290" lon="-0.6116680">
        <ele>123.6</ele>
        <time>2019-12-20T08:28:14Z</time>
      </trkpt>
      <trkpt lat="38.2826430" lon="-0.6116200">
        <ele>123.4</ele>
        <time>2019-12-20T08:28:15Z</time>
      </trkpt>
      <trkpt lat="38.2826560" lon="-0.6115720">
        <ele>123.4</ele>
        <time>2019-12-20T08:28:16Z</time>
      </trkpt>
      <trkpt lat="38.2827090" lon="-0.6114060">
        <ele>123.0</ele>
        <time>2019-12-20T08:28:17Z</time>
      </trkpt>
      <trkpt lat="38.2827350" lon="-0.6113350">
        <ele>123.0</ele>
        <time>2019-12-20T08:28:18Z</time>
      </trkpt>
      <trkpt lat="38.2827880" lon="-0.6111930">
        <ele>123.0</ele>
        <time>2019-12-20T08:28:19Z</time>
      </trkpt>
      <trkpt lat="38.2828070" lon="-0.6111460">
        <ele>123.0</ele>
        <time>2019-12-20T08:28:20Z</time>
      </trkpt>
      <trkpt lat="38.2828260" lon="-0.6110980">
        <ele>123.0</ele>
        <time>2019-12-20T08:28:21Z</time>
      </trkpt>
      <trkpt lat="38.2828640" lon="-0.6110040">
        <ele>123.0</ele>
        <time>2019-12-20T08:28:22Z</time>
      </trkpt>
      <trkpt lat="38.2829030" lon="-0.6109080">
        <ele>122.6</ele>
        <time>2019-12-20T08:28:23Z</time>
      </trkpt>
      <trkpt lat="38.2829430" lon="-0.6108120">
        <ele>122.2</ele>
        <time>2019-12-20T08:28:24Z</time>
      </trkpt>
      <trkpt lat="38.2829830" lon="-0.6107150">
        <ele>121.8</ele>
        <time>2019-12-20T08:28:25Z</time>
      </trkpt>
      <trkpt lat="38.2830240" lon="-0.6106160">
        <ele>121.8</ele>
        <time>2019-12-20T08:28:26Z</time>
      </trkpt>
      <trkpt lat="38.2830700" lon="-0.6105180">
        <ele>122.0</ele>
        <time>2019-12-20T08:28:27Z</time>
      </trkpt>
      <trkpt lat="38.2831140" lon="-0.6104200">
        <ele>121.8</ele>
        <time>2019-12-20T08:28:28Z</time>
      </trkpt>
      <trkpt lat="38.2831550" lon="-0.6103200">
        <ele>121.6</ele>
        <time>2019-12-20T08:28:29Z</time>
      </trkpt>
      <trkpt lat="38.2831980" lon="-0.6102210">
        <ele>121.6</ele>
        <time>2019-12-20T08:28:30Z</time>
      </trkpt>
      <trkpt lat="38.2832400" lon="-0.6101220">
        <ele>121.6</ele>
        <time>2019-12-20T08:28:31Z</time>
      </trkpt>
      <trkpt lat="38.2833230" lon="-0.6099240">
        <ele>121.6</ele>
        <time>2019-12-20T08:28:32Z</time>
      </trkpt>
      <trkpt lat="38.2833630" lon="-0.6098250">
        <ele>121.8</ele>
        <time>2019-12-20T08:28:33Z</time>
      </trkpt>
      <trkpt lat="38.2834020" lon="-0.6097250">
        <ele>121.8</ele>
        <time>2019-12-20T08:28:34Z</time>
      </trkpt>
      <trkpt lat="38.2834210" lon="-0.6096750">
        <ele>121.6</ele>
        <time>2019-12-20T08:28:35Z</time>
      </trkpt>
      <trkpt lat="38.2834390" lon="-0.6096240">
        <ele>121.8</ele>
        <time>2019-12-20T08:28:36Z</time>
      </trkpt>
      <trkpt lat="38.2835120" lon="-0.6094240">
        <ele>121.6</ele>
        <time>2019-12-20T08:28:37Z</time>
      </trkpt>
      <trkpt lat="38.2835410" lon="-0.6093510">
        <ele>121.4</ele>
        <time>2019-12-20T08:28:38Z</time>
      </trkpt>
      <trkpt lat="38.2835690" lon="-0.6092770">
        <ele>121.2</ele>
        <time>2019-12-20T08:28:39Z</time>
      </trkpt>
      <trkpt lat="38.2836250" lon="-0.6091290">
        <ele>121.2</ele>
        <time>2019-12-20T08:28:40Z</time>
      </trkpt>
      <trkpt lat="38.2836660" lon="-0.6090340">
        <ele>121.2</ele>
        <time>2019-12-20T08:28:41Z</time>
      </trkpt>
      <trkpt lat="38.2836880" lon="-0.6089870">
        <ele>121.2</ele>
        <time>2019-12-20T08:28:42Z</time>
      </trkpt>
      <trkpt lat="38.2837100" lon="-0.6089390">
        <ele>121.4</ele>
        <time>2019-12-20T08:28:43Z</time>
      </trkpt>
      <trkpt lat="38.2837980" lon="-0.6087510">
        <ele>121.4</ele>
        <time>2019-12-20T08:28:44Z</time>
      </trkpt>
      <trkpt lat="38.2838400" lon="-0.6086550">
        <ele>121.4</ele>
        <time>2019-12-20T08:28:45Z</time>
      </trkpt>
      <trkpt lat="38.2838610" lon="-0.6086080">
        <ele>121.6</ele>
        <time>2019-12-20T08:28:46Z</time>
      </trkpt>
      <trkpt lat="38.2838820" lon="-0.6085600">
        <ele>121.6</ele>
        <time>2019-12-20T08:28:47Z</time>
      </trkpt>
      <trkpt lat="38.2839250" lon="-0.6084660">
        <ele>121.8</ele>
        <time>2019-12-20T08:28:48Z</time>
      </trkpt>
      <trkpt lat="38.2839680" lon="-0.6083720">
        <ele>121.8</ele>
        <time>2019-12-20T08:28:49Z</time>
      </trkpt>
      <trkpt lat="38.2840120" lon="-0.6082780">
        <ele>121.8</ele>
        <time>2019-12-20T08:28:50Z</time>
      </trkpt>
      <trkpt lat="38.2841040" lon="-0.6080930">
        <ele>121.8</ele>
        <time>2019-12-20T08:28:51Z</time>
      </trkpt>
      <trkpt lat="38.2841270" lon="-0.6080470">
        <ele>121.8</ele>
        <time>2019-12-20T08:28:52Z</time>
      </trkpt>
      <trkpt lat="38.2841490" lon="-0.6080010">
        <ele>122.0</ele>
        <time>2019-12-20T08:28:53Z</time>
      </trkpt>
      <trkpt lat="38.2841920" lon="-0.6079080">
        <ele>122.0</ele>
        <time>2019-12-20T08:28:54Z</time>
      </trkpt>
      <trkpt lat="38.2842340" lon="-0.6078140">
        <ele>121.8</ele>
        <time>2019-12-20T08:28:55Z</time>
      </trkpt>
      <trkpt lat="38.2842750" lon="-0.6077200">
        <ele>121.8</ele>
        <time>2019-12-20T08:28:56Z</time>
      </trkpt>
      <trkpt lat="38.2843390" lon="-0.6075150">
        <ele>121.8</ele>
        <time>2019-12-20T08:28:57Z</time>
      </trkpt>
      <trkpt lat="38.2843470" lon="-0.6074620">
        <ele>122.2</ele>
        <time>2019-12-20T08:28:58Z</time>
      </trkpt>
      <trkpt lat="38.2843550" lon="-0.6074080">
        <ele>121.8</ele>
        <time>2019-12-20T08:28:59Z</time>
      </trkpt>
      <trkpt lat="38.2843540" lon="-0.6073000">
        <ele>121.8</ele>
        <time>2019-12-20T08:29:00Z</time>
      </trkpt>
      <trkpt lat="38.2843400" lon="-0.6071930">
        <ele>121.8</ele>
        <time>2019-12-20T08:29:01Z</time>
      </trkpt>
      <trkpt lat="38.2842890" lon="-0.6069920">
        <ele>121.8</ele>
        <time>2019-12-20T08:29:02Z</time>
      </trkpt>
      <trkpt lat="38.2842570" lon="-0.6068920">
        <ele>121.8</ele>
        <time>2019-12-20T08:29:03Z</time>
      </trkpt>
      <trkpt lat="38.2842410" lon="-0.6068420">
        <ele>122.2</ele>
        <time>2019-12-20T08:29:04Z</time>
      </trkpt>
      <trkpt lat="38.2842250" lon="-0.6067930">
        <ele>122.0</ele>
        <time>2019-12-20T08:29:05Z</time>
      </trkpt>
      <trkpt lat="38.2841940" lon="-0.6066930">
        <ele>121.6</ele>
        <time>2019-12-20T08:29:06Z</time>
      </trkpt>
      <trkpt lat="38.2841630" lon="-0.6065910">
        <ele>121.4</ele>
        <time>2019-12-20T08:29:07Z</time>
      </trkpt>
      <trkpt lat="38.2841290" lon="-0.6064900">
        <ele>121.4</ele>
        <time>2019-12-20T08:29:08Z</time>
      </trkpt>
      <trkpt lat="38.2840960" lon="-0.6063910">
        <ele>121.6</ele>
        <time>2019-12-20T08:29:09Z</time>
      </trkpt>
      <trkpt lat="38.2840600" lon="-0.6062930">
        <ele>121.4</ele>
        <time>2019-12-20T08:29:10Z</time>
      </trkpt>
      <trkpt lat="38.2840220" lon="-0.6061940">
        <ele>121.0</ele>
        <time>2019-12-20T08:29:11Z</time>
      </trkpt>
      <trkpt lat="38.2839870" lon="-0.6060930">
        <ele>121.2</ele>
        <time>2019-12-20T08:29:12Z</time>
      </trkpt>
      <trkpt lat="38.2839500" lon="-0.6059970">
        <ele>121.4</ele>
        <time>2019-12-20T08:29:13Z</time>
      </trkpt>
      <trkpt lat="38.2839090" lon="-0.6059040">
        <ele>121.0</ele>
        <time>2019-12-20T08:29:14Z</time>
      </trkpt>
      <trkpt lat="38.2838670" lon="-0.6058130">
        <ele>120.8</ele>
        <time>2019-12-20T08:29:15Z</time>
      </trkpt>
      <trkpt lat="38.2838230" lon="-0.6057250">
        <ele>120.8</ele>
        <time>2019-12-20T08:29:16Z</time>
      </trkpt>
      <trkpt lat="38.2837330" lon="-0.6055550">
        <ele>121.0</ele>
        <time>2019-12-20T08:29:17Z</time>
      </trkpt>
      <trkpt lat="38.2836920" lon="-0.6055000">
        <ele>120.8</ele>
        <time>2019-12-20T08:29:18Z</time>
      </trkpt>
      <trkpt lat="38.2836510" lon="-0.6054460">
        <ele>120.6</ele>
        <time>2019-12-20T08:29:19Z</time>
      </trkpt>
      <trkpt lat="38.2835680" lon="-0.6053380">
        <ele>120.8</ele>
        <time>2019-12-20T08:29:20Z</time>
      </trkpt>
      <trkpt lat="38.2835070" lon="-0.6052770">
        <ele>120.6</ele>
        <time>2019-12-20T08:29:21Z</time>
      </trkpt>
      <trkpt lat="38.2834760" lon="-0.6052460">
        <ele>120.8</ele>
        <time>2019-12-20T08:29:22Z</time>
      </trkpt>
      <trkpt lat="38.2834450" lon="-0.6052160">
        <ele>120.8</ele>
        <time>2019-12-20T08:29:23Z</time>
      </trkpt>
      <trkpt lat="38.2833910" lon="-0.6051530">
        <ele>120.4</ele>
        <time>2019-12-20T08:29:24Z</time>
      </trkpt>
      <trkpt lat="38.2833430" lon="-0.6050750">
        <ele>120.2</ele>
        <time>2019-12-20T08:29:25Z</time>
      </trkpt>
      <trkpt lat="38.2833030" lon="-0.6049870">
        <ele>120.8</ele>
        <time>2019-12-20T08:29:26Z</time>
      </trkpt>
      <trkpt lat="38.2832580" lon="-0.6047830">
        <ele>120.4</ele>
        <time>2019-12-20T08:29:27Z</time>
      </trkpt>
      <trkpt lat="38.2832540" lon="-0.6046740">
        <ele>120.6</ele>
        <time>2019-12-20T08:29:28Z</time>
      </trkpt>
      <trkpt lat="38.2832570" lon="-0.6046180">
        <ele>120.2</ele>
        <time>2019-12-20T08:29:29Z</time>
      </trkpt>
      <trkpt lat="38.2832590" lon="-0.6045620">
        <ele>119.2</ele>
        <time>2019-12-20T08:29:30Z</time>
      </trkpt>
      <trkpt lat="38.2832740" lon="-0.6044520">
        <ele>119.0</ele>
        <time>2019-12-20T08:29:31Z</time>
      </trkpt>
      <trkpt lat="38.2832940" lon="-0.6043410">
        <ele>118.8</ele>
        <time>2019-12-20T08:29:32Z</time>
      </trkpt>
      <trkpt lat="38.2833430" lon="-0.6041170">
        <ele>118.8</ele>
        <time>2019-12-20T08:29:33Z</time>
      </trkpt>
      <trkpt lat="38.2833640" lon="-0.6040360">
        <ele>118.8</ele>
        <time>2019-12-20T08:29:34Z</time>
      </trkpt>
      <trkpt lat="38.2833840" lon="-0.6039550">
        <ele>118.6</ele>
        <time>2019-12-20T08:29:35Z</time>
      </trkpt>
      <trkpt lat="38.2834250" lon="-0.6037930">
        <ele>118.8</ele>
        <time>2019-12-20T08:29:36Z</time>
      </trkpt>
      <trkpt lat="38.2834400" lon="-0.6037400">
        <ele>118.6</ele>
        <time>2019-12-20T08:29:37Z</time>
      </trkpt>
      <trkpt lat="38.2834540" lon="-0.6036870">
        <ele>118.6</ele>
        <time>2019-12-20T08:29:38Z</time>
      </trkpt>
      <trkpt lat="38.2835090" lon="-0.6034770">
        <ele>118.4</ele>
        <time>2019-12-20T08:29:39Z</time>
      </trkpt>
      <trkpt lat="38.2835240" lon="-0.6034240">
        <ele>118.2</ele>
        <time>2019-12-20T08:29:40Z</time>
      </trkpt>
      <trkpt lat="38.2835380" lon="-0.6033710">
        <ele>119.2</ele>
        <time>2019-12-20T08:29:41Z</time>
      </trkpt>
      <trkpt lat="38.2835810" lon="-0.6032120">
        <ele>118.8</ele>
        <time>2019-12-20T08:29:42Z</time>
      </trkpt>
      <trkpt lat="38.2835950" lon="-0.6031580">
        <ele>118.8</ele>
        <time>2019-12-20T08:29:43Z</time>
      </trkpt>
      <trkpt lat="38.2836240" lon="-0.6030510">
        <ele>119.0</ele>
        <time>2019-12-20T08:29:44Z</time>
      </trkpt>
      <trkpt lat="38.2836540" lon="-0.6029450">
        <ele>118.8</ele>
        <time>2019-12-20T08:29:45Z</time>
      </trkpt>
      <trkpt lat="38.2837120" lon="-0.6027350">
        <ele>118.6</ele>
        <time>2019-12-20T08:29:46Z</time>
      </trkpt>
      <trkpt lat="38.2837270" lon="-0.6026830">
        <ele>118.6</ele>
        <time>2019-12-20T08:29:47Z</time>
      </trkpt>
      <trkpt lat="38.2837420" lon="-0.6026300">
        <ele>118.6</ele>
        <time>2019-12-20T08:29:48Z</time>
      </trkpt>
      <trkpt lat="38.2838000" lon="-0.6024230">
        <ele>118.6</ele>
        <time>2019-12-20T08:29:49Z</time>
      </trkpt>
      <trkpt lat="38.2838140" lon="-0.6023720">
        <ele>119.0</ele>
        <time>2019-12-20T08:29:50Z</time>
      </trkpt>
      <trkpt lat="38.2838280" lon="-0.6023200">
        <ele>119.0</ele>
        <time>2019-12-20T08:29:51Z</time>
      </trkpt>
      <trkpt lat="38.2838700" lon="-0.6021660">
        <ele>119.0</ele>
        <time>2019-12-20T08:29:52Z</time>
      </trkpt>
      <trkpt lat="38.2838850" lon="-0.6021140">
        <ele>119.0</ele>
        <time>2019-12-20T08:29:53Z</time>
      </trkpt>
      <trkpt lat="38.2839430" lon="-0.6019130">
        <ele>119.2</ele>
        <time>2019-12-20T08:29:54Z</time>
      </trkpt>
      <trkpt lat="38.2839740" lon="-0.6018130">
        <ele>119.0</ele>
        <time>2019-12-20T08:29:55Z</time>
      </trkpt>
      <trkpt lat="38.2839920" lon="-0.6017650">
        <ele>119.2</ele>
        <time>2019-12-20T08:29:56Z</time>
      </trkpt>
      <trkpt lat="38.2840090" lon="-0.6017160">
        <ele>119.4</ele>
        <time>2019-12-20T08:29:57Z</time>
      </trkpt>
      <trkpt lat="38.2840620" lon="-0.6015700">
        <ele>119.6</ele>
        <time>2019-12-20T08:29:58Z</time>
      </trkpt>
      <trkpt lat="38.2840800" lon="-0.6015210">
        <ele>119.2</ele>
        <time>2019-12-20T08:29:59Z</time>
      </trkpt>
      <trkpt lat="38.2841580" lon="-0.6013280">
        <ele>119.2</ele>
        <time>2019-12-20T08:30:00Z</time>
      </trkpt>
      <trkpt lat="38.2841870" lon="-0.6012560">
        <ele>119.0</ele>
        <time>2019-12-20T08:30:01Z</time>
      </trkpt>
      <trkpt lat="38.2842160" lon="-0.6011830">
        <ele>119.2</ele>
        <time>2019-12-20T08:30:02Z</time>
      </trkpt>
      <trkpt lat="38.2842740" lon="-0.6010370">
        <ele>119.2</ele>
        <time>2019-12-20T08:30:03Z</time>
      </trkpt>
      <trkpt lat="38.2842930" lon="-0.6009880">
        <ele>119.4</ele>
        <time>2019-12-20T08:30:04Z</time>
      </trkpt>
      <trkpt lat="38.2843120" lon="-0.6009390">
        <ele>119.4</ele>
        <time>2019-12-20T08:30:05Z</time>
      </trkpt>
      <trkpt lat="38.2843500" lon="-0.6008410">
        <ele>119.4</ele>
        <time>2019-12-20T08:30:06Z</time>
      </trkpt>
      <trkpt lat="38.2844280" lon="-0.6006400">
        <ele>119.4</ele>
        <time>2019-12-20T08:30:07Z</time>
      </trkpt>
      <trkpt lat="38.2844660" lon="-0.6005380">
        <ele>119.2</ele>
        <time>2019-12-20T08:30:08Z</time>
      </trkpt>
      <trkpt lat="38.2844950" lon="-0.6004620">
        <ele>119.0</ele>
        <time>2019-12-20T08:30:09Z</time>
      </trkpt>
      <trkpt lat="38.2845230" lon="-0.6003860">
        <ele>119.2</ele>
        <time>2019-12-20T08:30:10Z</time>
      </trkpt>
      <trkpt lat="38.2845790" lon="-0.6002330">
        <ele>119.6</ele>
        <time>2019-12-20T08:30:11Z</time>
      </trkpt>
      <trkpt lat="38.2846110" lon="-0.6001300">
        <ele>118.8</ele>
        <time>2019-12-20T08:30:12Z</time>
      </trkpt>
      <trkpt lat="38.2846280" lon="-0.6000490">
        <ele>119.2</ele>
        <time>2019-12-20T08:30:13Z</time>
      </trkpt>
      <trkpt lat="38.2846440" lon="-0.5999680">
        <ele>119.0</ele>
        <time>2019-12-20T08:30:14Z</time>
      </trkpt>
      <trkpt lat="38.2846760" lon="-0.5998050">
        <ele>120.0</ele>
        <time>2019-12-20T08:30:15Z</time>
      </trkpt>
      <trkpt lat="38.2846870" lon="-0.5996960">
        <ele>119.4</ele>
        <time>2019-12-20T08:30:16Z</time>
      </trkpt>
      <trkpt lat="38.2846880" lon="-0.5996140">
        <ele>119.0</ele>
        <time>2019-12-20T08:30:17Z</time>
      </trkpt>
      <trkpt lat="38.2846880" lon="-0.5995320">
        <ele>119.2</ele>
        <time>2019-12-20T08:30:18Z</time>
      </trkpt>
      <trkpt lat="38.2846890" lon="-0.5993670">
        <ele>119.2</ele>
        <time>2019-12-20T08:30:19Z</time>
      </trkpt>
      <trkpt lat="38.2846860" lon="-0.5992580">
        <ele>119.0</ele>
        <time>2019-12-20T08:30:20Z</time>
      </trkpt>
      <trkpt lat="38.2846840" lon="-0.5991490">
        <ele>119.2</ele>
        <time>2019-12-20T08:30:21Z</time>
      </trkpt>
      <trkpt lat="38.2846840" lon="-0.5990390">
        <ele>119.2</ele>
        <time>2019-12-20T08:30:22Z</time>
      </trkpt>
      <trkpt lat="38.2846830" lon="-0.5989290">
        <ele>118.6</ele>
        <time>2019-12-20T08:30:23Z</time>
      </trkpt>
      <trkpt lat="38.2846840" lon="-0.5988740">
        <ele>118.4</ele>
        <time>2019-12-20T08:30:24Z</time>
      </trkpt>
      <trkpt lat="38.2846850" lon="-0.5988190">
        <ele>118.2</ele>
        <time>2019-12-20T08:30:25Z</time>
      </trkpt>
      <trkpt lat="38.2847090" lon="-0.5985950">
        <ele>118.2</ele>
        <time>2019-12-20T08:30:26Z</time>
      </trkpt>
      <trkpt lat="38.2847200" lon="-0.5985390">
        <ele>118.0</ele>
        <time>2019-12-20T08:30:27Z</time>
      </trkpt>
      <trkpt lat="38.2847300" lon="-0.5984820">
        <ele>117.8</ele>
        <time>2019-12-20T08:30:28Z</time>
      </trkpt>
      <trkpt lat="38.2847650" lon="-0.5983150">
        <ele>117.6</ele>
        <time>2019-12-20T08:30:29Z</time>
      </trkpt>
      <trkpt lat="38.2847790" lon="-0.5982600">
        <ele>117.4</ele>
        <time>2019-12-20T08:30:30Z</time>
      </trkpt>
      <trkpt lat="38.2848300" lon="-0.5980740">
        <ele>117.0</ele>
        <time>2019-12-20T08:30:31Z</time>
      </trkpt>
      <trkpt lat="38.2848530" lon="-0.5979970">
        <ele>117.0</ele>
        <time>2019-12-20T08:30:32Z</time>
      </trkpt>
      <trkpt lat="38.2848980" lon="-0.5978420">
        <ele>116.8</ele>
        <time>2019-12-20T08:30:33Z</time>
      </trkpt>
      <trkpt lat="38.2849220" lon="-0.5977640">
        <ele>116.8</ele>
        <time>2019-12-20T08:30:34Z</time>
      </trkpt>
      <trkpt lat="38.2849450" lon="-0.5976850">
        <ele>116.8</ele>
        <time>2019-12-20T08:30:35Z</time>
      </trkpt>
      <trkpt lat="38.2849920" lon="-0.5975280">
        <ele>117.2</ele>
        <time>2019-12-20T08:30:36Z</time>
      </trkpt>
      <trkpt lat="38.2850080" lon="-0.5974760">
        <ele>116.8</ele>
        <time>2019-12-20T08:30:37Z</time>
      </trkpt>
      <trkpt lat="38.2850240" lon="-0.5974230">
        <ele>117.4</ele>
        <time>2019-12-20T08:30:38Z</time>
      </trkpt>
      <trkpt lat="38.2850720" lon="-0.5972650">
        <ele>116.4</ele>
        <time>2019-12-20T08:30:39Z</time>
      </trkpt>
      <trkpt lat="38.2850870" lon="-0.5972120">
        <ele>116.6</ele>
        <time>2019-12-20T08:30:40Z</time>
      </trkpt>
      <trkpt lat="38.2851440" lon="-0.5969970">
        <ele>116.6</ele>
        <time>2019-12-20T08:30:41Z</time>
      </trkpt>
      <trkpt lat="38.2851580" lon="-0.5969430">
        <ele>116.4</ele>
        <time>2019-12-20T08:30:42Z</time>
      </trkpt>
      <trkpt lat="38.2851710" lon="-0.5968890">
        <ele>116.6</ele>
        <time>2019-12-20T08:30:43Z</time>
      </trkpt>
      <trkpt lat="38.2852050" lon="-0.5966680">
        <ele>117.0</ele>
        <time>2019-12-20T08:30:44Z</time>
      </trkpt>
      <trkpt lat="38.2852090" lon="-0.5966130">
        <ele>117.2</ele>
        <time>2019-12-20T08:30:45Z</time>
      </trkpt>
      <trkpt lat="38.2852130" lon="-0.5965570">
        <ele>116.6</ele>
        <time>2019-12-20T08:30:46Z</time>
      </trkpt>
      <trkpt lat="38.2852160" lon="-0.5963300">
        <ele>116.6</ele>
        <time>2019-12-20T08:30:47Z</time>
      </trkpt>
      <trkpt lat="38.2852170" lon="-0.5962450">
        <ele>117.0</ele>
        <time>2019-12-20T08:30:48Z</time>
      </trkpt>
      <trkpt lat="38.2852180" lon="-0.5961590">
        <ele>116.6</ele>
        <time>2019-12-20T08:30:49Z</time>
      </trkpt>
      <trkpt lat="38.2852190" lon="-0.5959880">
        <ele>115.8</ele>
        <time>2019-12-20T08:30:50Z</time>
      </trkpt>
      <trkpt lat="38.2852210" lon="-0.5958730">
        <ele>115.6</ele>
        <time>2019-12-20T08:30:51Z</time>
      </trkpt>
      <trkpt lat="38.2852220" lon="-0.5958170">
        <ele>115.4</ele>
        <time>2019-12-20T08:30:52Z</time>
      </trkpt>
      <trkpt lat="38.2852220" lon="-0.5957600">
        <ele>115.4</ele>
        <time>2019-12-20T08:30:53Z</time>
      </trkpt>
      <trkpt lat="38.2852230" lon="-0.5955630">
        <ele>115.8</ele>
        <time>2019-12-20T08:30:54Z</time>
      </trkpt>
      <trkpt lat="38.2852230" lon="-0.5954780">
        <ele>115.6</ele>
        <time>2019-12-20T08:30:55Z</time>
      </trkpt>
      <trkpt lat="38.2852230" lon="-0.5953090">
        <ele>115.4</ele>
        <time>2019-12-20T08:30:56Z</time>
      </trkpt>
      <trkpt lat="38.2852230" lon="-0.5952520">
        <ele>115.6</ele>
        <time>2019-12-20T08:30:57Z</time>
      </trkpt>
      <trkpt lat="38.2852220" lon="-0.5951950">
        <ele>115.4</ele>
        <time>2019-12-20T08:30:58Z</time>
      </trkpt>
      <trkpt lat="38.2852220" lon="-0.5949620">
        <ele>115.4</ele>
        <time>2019-12-20T08:30:59Z</time>
      </trkpt>
      <trkpt lat="38.2852230" lon="-0.5948750">
        <ele>115.6</ele>
        <time>2019-12-20T08:31:00Z</time>
      </trkpt>
      <trkpt lat="38.2852230" lon="-0.5947880">
        <ele>115.8</ele>
        <time>2019-12-20T08:31:01Z</time>
      </trkpt>
      <trkpt lat="38.2852240" lon="-0.5946140">
        <ele>116.0</ele>
        <time>2019-12-20T08:31:02Z</time>
      </trkpt>
      <trkpt lat="38.2852250" lon="-0.5945560">
        <ele>115.8</ele>
        <time>2019-12-20T08:31:03Z</time>
      </trkpt>
      <trkpt lat="38.2852250" lon="-0.5944980">
        <ele>115.4</ele>
        <time>2019-12-20T08:31:04Z</time>
      </trkpt>
      <trkpt lat="38.2852250" lon="-0.5943230">
        <ele>115.2</ele>
        <time>2019-12-20T08:31:05Z</time>
      </trkpt>
      <trkpt lat="38.2852250" lon="-0.5942650">
        <ele>115.2</ele>
        <time>2019-12-20T08:31:06Z</time>
      </trkpt>
      <trkpt lat="38.2852260" lon="-0.5940350">
        <ele>115.2</ele>
        <time>2019-12-20T08:31:07Z</time>
      </trkpt>
      <trkpt lat="38.2852290" lon="-0.5939500">
        <ele>115.0</ele>
        <time>2019-12-20T08:31:08Z</time>
      </trkpt>
      <trkpt lat="38.2852320" lon="-0.5938640">
        <ele>114.8</ele>
        <time>2019-12-20T08:31:09Z</time>
      </trkpt>
      <trkpt lat="38.2852380" lon="-0.5936920">
        <ele>114.8</ele>
        <time>2019-12-20T08:31:10Z</time>
      </trkpt>
      <trkpt lat="38.2852540" lon="-0.5935810">
        <ele>114.8</ele>
        <time>2019-12-20T08:31:11Z</time>
      </trkpt>
      <trkpt lat="38.2852670" lon="-0.5935280">
        <ele>114.6</ele>
        <time>2019-12-20T08:31:12Z</time>
      </trkpt>
      <trkpt lat="38.2852790" lon="-0.5934740">
        <ele>114.8</ele>
        <time>2019-12-20T08:31:13Z</time>
      </trkpt>
      <trkpt lat="38.2853200" lon="-0.5933140">
        <ele>114.8</ele>
        <time>2019-12-20T08:31:14Z</time>
      </trkpt>
      <trkpt lat="38.2853350" lon="-0.5932620">
        <ele>114.8</ele>
        <time>2019-12-20T08:31:15Z</time>
      </trkpt>
      <trkpt lat="38.2853680" lon="-0.5931650">
        <ele>114.8</ele>
        <time>2019-12-20T08:31:16Z</time>
      </trkpt>
      <trkpt lat="38.2854090" lon="-0.5930700">
        <ele>114.4</ele>
        <time>2019-12-20T08:31:17Z</time>
      </trkpt>
      <trkpt lat="38.2854560" lon="-0.5929760">
        <ele>114.4</ele>
        <time>2019-12-20T08:31:18Z</time>
      </trkpt>
      <trkpt lat="38.2855060" lon="-0.5928830">
        <ele>114.2</ele>
        <time>2019-12-20T08:31:19Z</time>
      </trkpt>
      <trkpt lat="38.2856120" lon="-0.5927000">
        <ele>114.0</ele>
        <time>2019-12-20T08:31:20Z</time>
      </trkpt>
      <trkpt lat="38.2856660" lon="-0.5926080">
        <ele>113.8</ele>
        <time>2019-12-20T08:31:21Z</time>
      </trkpt>
      <trkpt lat="38.2857200" lon="-0.5925170">
        <ele>113.8</ele>
        <time>2019-12-20T08:31:22Z</time>
      </trkpt>
      <trkpt lat="38.2857470" lon="-0.5924720">
        <ele>114.0</ele>
        <time>2019-12-20T08:31:23Z</time>
      </trkpt>
      <trkpt lat="38.2857740" lon="-0.5924260">
        <ele>113.8</ele>
        <time>2019-12-20T08:31:24Z</time>
      </trkpt>
      <trkpt lat="38.2858830" lon="-0.5922440">
        <ele>113.8</ele>
        <time>2019-12-20T08:31:25Z</time>
      </trkpt>
      <trkpt lat="38.2859370" lon="-0.5921510">
        <ele>113.8</ele>
        <time>2019-12-20T08:31:26Z</time>
      </trkpt>
      <trkpt lat="38.2859790" lon="-0.5920820">
        <ele>113.8</ele>
        <time>2019-12-20T08:31:27Z</time>
      </trkpt>
      <trkpt lat="38.2860200" lon="-0.5920130">
        <ele>113.6</ele>
        <time>2019-12-20T08:31:28Z</time>
      </trkpt>
      <trkpt lat="38.2861020" lon="-0.5918740">
        <ele>113.8</ele>
        <time>2019-12-20T08:31:29Z</time>
      </trkpt>
      <trkpt lat="38.2861580" lon="-0.5917820">
        <ele>113.8</ele>
        <time>2019-12-20T08:31:30Z</time>
      </trkpt>
      <trkpt lat="38.2862140" lon="-0.5916890">
        <ele>113.6</ele>
        <time>2019-12-20T08:31:31Z</time>
      </trkpt>
      <trkpt lat="38.2862410" lon="-0.5916430">
        <ele>113.6</ele>
        <time>2019-12-20T08:31:32Z</time>
      </trkpt>
      <trkpt lat="38.2862680" lon="-0.5915970">
        <ele>113.6</ele>
        <time>2019-12-20T08:31:33Z</time>
      </trkpt>
      <trkpt lat="38.2863250" lon="-0.5915040">
        <ele>113.8</ele>
        <time>2019-12-20T08:31:34Z</time>
      </trkpt>
      <trkpt lat="38.2864340" lon="-0.5913210">
        <ele>113.6</ele>
        <time>2019-12-20T08:31:35Z</time>
      </trkpt>
      <trkpt lat="38.2864610" lon="-0.5912750">
        <ele>113.4</ele>
        <time>2019-12-20T08:31:36Z</time>
      </trkpt>
      <trkpt lat="38.2864870" lon="-0.5912290">
        <ele>113.6</ele>
        <time>2019-12-20T08:31:37Z</time>
      </trkpt>
      <trkpt lat="38.2865670" lon="-0.5910910">
        <ele>113.6</ele>
        <time>2019-12-20T08:31:38Z</time>
      </trkpt>
      <trkpt lat="38.2865940" lon="-0.5910440">
        <ele>113.6</ele>
        <time>2019-12-20T08:31:39Z</time>
      </trkpt>
      <trkpt lat="38.2867040" lon="-0.5908600">
        <ele>113.4</ele>
        <time>2019-12-20T08:31:40Z</time>
      </trkpt>
      <trkpt lat="38.2867570" lon="-0.5907680">
        <ele>113.6</ele>
        <time>2019-12-20T08:31:41Z</time>
      </trkpt>
      <trkpt lat="38.2867840" lon="-0.5907220">
        <ele>114.0</ele>
        <time>2019-12-20T08:31:42Z</time>
      </trkpt>
      <trkpt lat="38.2868110" lon="-0.5906760">
        <ele>113.8</ele>
        <time>2019-12-20T08:31:43Z</time>
      </trkpt>
      <trkpt lat="38.2868640" lon="-0.5905830">
        <ele>114.0</ele>
        <time>2019-12-20T08:31:44Z</time>
      </trkpt>
      <trkpt lat="38.2869660" lon="-0.5903910">
        <ele>114.0</ele>
        <time>2019-12-20T08:31:45Z</time>
      </trkpt>
      <trkpt lat="38.2870150" lon="-0.5902910">
        <ele>113.8</ele>
        <time>2019-12-20T08:31:46Z</time>
      </trkpt>
      <trkpt lat="38.2870620" lon="-0.5901900">
        <ele>113.4</ele>
        <time>2019-12-20T08:31:47Z</time>
      </trkpt>
      <trkpt lat="38.2871050" lon="-0.5900860">
        <ele>113.4</ele>
        <time>2019-12-20T08:31:48Z</time>
      </trkpt>
      <trkpt lat="38.2871360" lon="-0.5900060">
        <ele>113.4</ele>
        <time>2019-12-20T08:31:49Z</time>
      </trkpt>
      <trkpt lat="38.2871660" lon="-0.5899250">
        <ele>113.4</ele>
        <time>2019-12-20T08:31:50Z</time>
      </trkpt>
      <trkpt lat="38.2872260" lon="-0.5897640">
        <ele>113.6</ele>
        <time>2019-12-20T08:31:51Z</time>
      </trkpt>
      <trkpt lat="38.2872450" lon="-0.5897090">
        <ele>113.4</ele>
        <time>2019-12-20T08:31:52Z</time>
      </trkpt>
      <trkpt lat="38.2872640" lon="-0.5896540">
        <ele>113.0</ele>
        <time>2019-12-20T08:31:53Z</time>
      </trkpt>
      <trkpt lat="38.2873200" lon="-0.5894880">
        <ele>113.0</ele>
        <time>2019-12-20T08:31:54Z</time>
      </trkpt>
      <trkpt lat="38.2873370" lon="-0.5894320">
        <ele>113.0</ele>
        <time>2019-12-20T08:31:55Z</time>
      </trkpt>
      <trkpt lat="38.2874050" lon="-0.5892080">
        <ele>113.0</ele>
        <time>2019-12-20T08:31:56Z</time>
      </trkpt>
      <trkpt lat="38.2874320" lon="-0.5891250">
        <ele>112.8</ele>
        <time>2019-12-20T08:31:57Z</time>
      </trkpt>
      <trkpt lat="38.2874580" lon="-0.5890410">
        <ele>112.8</ele>
        <time>2019-12-20T08:31:58Z</time>
      </trkpt>
      <trkpt lat="38.2875110" lon="-0.5888740">
        <ele>112.8</ele>
        <time>2019-12-20T08:31:59Z</time>
      </trkpt>
      <trkpt lat="38.2875280" lon="-0.5888190">
        <ele>112.8</ele>
        <time>2019-12-20T08:32:00Z</time>
      </trkpt>
      <trkpt lat="38.2875450" lon="-0.5887630">
        <ele>112.8</ele>
        <time>2019-12-20T08:32:01Z</time>
      </trkpt>
      <trkpt lat="38.2876130" lon="-0.5885450">
        <ele>112.8</ele>
        <time>2019-12-20T08:32:02Z</time>
      </trkpt>
      <trkpt lat="38.2876300" lon="-0.5884910">
        <ele>113.0</ele>
        <time>2019-12-20T08:32:03Z</time>
      </trkpt>
      <trkpt lat="38.2876460" lon="-0.5884370">
        <ele>113.2</ele>
        <time>2019-12-20T08:32:04Z</time>
      </trkpt>
      <trkpt lat="38.2876970" lon="-0.5882750">
        <ele>113.0</ele>
        <time>2019-12-20T08:32:05Z</time>
      </trkpt>
      <trkpt lat="38.2877140" lon="-0.5882210">
        <ele>113.0</ele>
        <time>2019-12-20T08:32:06Z</time>
      </trkpt>
      <trkpt lat="38.2877670" lon="-0.5880600">
        <ele>112.8</ele>
        <time>2019-12-20T08:32:07Z</time>
      </trkpt>
      <trkpt lat="38.2877840" lon="-0.5880060">
        <ele>113.0</ele>
        <time>2019-12-20T08:32:08Z</time>
      </trkpt>
      <trkpt lat="38.2878360" lon="-0.5878420">
        <ele>113.2</ele>
        <time>2019-12-20T08:32:09Z</time>
      </trkpt>
      <trkpt lat="38.2878530" lon="-0.5877860">
        <ele>113.0</ele>
        <time>2019-12-20T08:32:10Z</time>
      </trkpt>
      <trkpt lat="38.2879190" lon="-0.5875620">
        <ele>112.8</ele>
        <time>2019-12-20T08:32:11Z</time>
      </trkpt>
      <trkpt lat="38.2879340" lon="-0.5875050">
        <ele>112.6</ele>
        <time>2019-12-20T08:32:12Z</time>
      </trkpt>
      <trkpt lat="38.2879490" lon="-0.5874480">
        <ele>112.6</ele>
        <time>2019-12-20T08:32:13Z</time>
      </trkpt>
      <trkpt lat="38.2879920" lon="-0.5872750">
        <ele>112.4</ele>
        <time>2019-12-20T08:32:14Z</time>
      </trkpt>
      <trkpt lat="38.2880050" lon="-0.5872170">
        <ele>111.8</ele>
        <time>2019-12-20T08:32:15Z</time>
      </trkpt>
      <trkpt lat="38.2880440" lon="-0.5869830">
        <ele>111.8</ele>
        <time>2019-12-20T08:32:16Z</time>
      </trkpt>
      <trkpt lat="38.2880500" lon="-0.5869230">
        <ele>111.6</ele>
        <time>2019-12-20T08:32:17Z</time>
      </trkpt>
      <trkpt lat="38.2880550" lon="-0.5868630">
        <ele>111.6</ele>
        <time>2019-12-20T08:32:18Z</time>
      </trkpt>
      <trkpt lat="38.2880480" lon="-0.5866210">
        <ele>111.2</ele>
        <time>2019-12-20T08:32:19Z</time>
      </trkpt>
      <trkpt lat="38.2880310" lon="-0.5865330">
        <ele>111.2</ele>
        <time>2019-12-20T08:32:20Z</time>
      </trkpt>
      <trkpt lat="38.2880130" lon="-0.5864460">
        <ele>111.0</ele>
        <time>2019-12-20T08:32:21Z</time>
      </trkpt>
      <trkpt lat="38.2879770" lon="-0.5862720">
        <ele>111.0</ele>
        <time>2019-12-20T08:32:22Z</time>
      </trkpt>
      <trkpt lat="38.2879640" lon="-0.5862140">
        <ele>111.0</ele>
        <time>2019-12-20T08:32:23Z</time>
      </trkpt>
      <trkpt lat="38.2879510" lon="-0.5861570">
        <ele>110.8</ele>
        <time>2019-12-20T08:32:24Z</time>
      </trkpt>
      <trkpt lat="38.2879250" lon="-0.5860440">
        <ele>110.6</ele>
        <time>2019-12-20T08:32:25Z</time>
      </trkpt>
      <trkpt lat="38.2878680" lon="-0.5858180">
        <ele>110.2</ele>
        <time>2019-12-20T08:32:26Z</time>
      </trkpt>
      <trkpt lat="38.2878400" lon="-0.5857060">
        <ele>109.8</ele>
        <time>2019-12-20T08:32:27Z</time>
      </trkpt>
      <trkpt lat="38.2878090" lon="-0.5855950">
        <ele>110.0</ele>
        <time>2019-12-20T08:32:28Z</time>
      </trkpt>
      <trkpt lat="38.2877950" lon="-0.5855390">
        <ele>109.8</ele>
        <time>2019-12-20T08:32:29Z</time>
      </trkpt>
      <trkpt lat="38.2877810" lon="-0.5854840">
        <ele>111.0</ele>
        <time>2019-12-20T08:32:30Z</time>
      </trkpt>
      <trkpt lat="38.2877400" lon="-0.5853160">
        <ele>110.2</ele>
        <time>2019-12-20T08:32:31Z</time>
      </trkpt>
      <trkpt lat="38.2877280" lon="-0.5852600">
        <ele>110.0</ele>
        <time>2019-12-20T08:32:32Z</time>
      </trkpt>
      <trkpt lat="38.2876900" lon="-0.5850920">
        <ele>110.0</ele>
        <time>2019-12-20T08:32:33Z</time>
      </trkpt>
      <trkpt lat="38.2876770" lon="-0.5850360">
        <ele>109.4</ele>
        <time>2019-12-20T08:32:34Z</time>
      </trkpt>
      <trkpt lat="38.2876500" lon="-0.5849270">
        <ele>109.4</ele>
        <time>2019-12-20T08:32:35Z</time>
      </trkpt>
      <trkpt lat="38.2876220" lon="-0.5848160">
        <ele>109.2</ele>
        <time>2019-12-20T08:32:36Z</time>
      </trkpt>
      <trkpt lat="38.2875660" lon="-0.5845940">
        <ele>109.0</ele>
        <time>2019-12-20T08:32:37Z</time>
      </trkpt>
      <trkpt lat="38.2875530" lon="-0.5845390">
        <ele>109.2</ele>
        <time>2019-12-20T08:32:38Z</time>
      </trkpt>
      <trkpt lat="38.2875390" lon="-0.5844850">
        <ele>109.4</ele>
        <time>2019-12-20T08:32:39Z</time>
      </trkpt>
      <trkpt lat="38.2875110" lon="-0.5843760">
        <ele>109.0</ele>
        <time>2019-12-20T08:32:40Z</time>
      </trkpt>
      <trkpt lat="38.2874590" lon="-0.5841590">
        <ele>108.6</ele>
        <time>2019-12-20T08:32:41Z</time>
      </trkpt>
      <trkpt lat="38.2874350" lon="-0.5840510">
        <ele>109.0</ele>
        <time>2019-12-20T08:32:42Z</time>
      </trkpt>
      <trkpt lat="38.2874090" lon="-0.5839410">
        <ele>108.6</ele>
        <time>2019-12-20T08:32:43Z</time>
      </trkpt>
      <trkpt lat="38.2873990" lon="-0.5838560">
        <ele>108.2</ele>
        <time>2019-12-20T08:32:44Z</time>
      </trkpt>
      <trkpt lat="38.2873890" lon="-0.5837720">
        <ele>108.0</ele>
        <time>2019-12-20T08:32:45Z</time>
      </trkpt>
      <trkpt lat="38.2873680" lon="-0.5836040">
        <ele>108.0</ele>
        <time>2019-12-20T08:32:46Z</time>
      </trkpt>
      <trkpt lat="38.2873710" lon="-0.5835480">
        <ele>108.2</ele>
        <time>2019-12-20T08:32:47Z</time>
      </trkpt>
      <trkpt lat="38.2873740" lon="-0.5834910">
        <ele>108.2</ele>
        <time>2019-12-20T08:32:48Z</time>
      </trkpt>
      <trkpt lat="38.2874120" lon="-0.5832700">
        <ele>108.2</ele>
        <time>2019-12-20T08:32:49Z</time>
      </trkpt>
      <trkpt lat="38.2874260" lon="-0.5832180">
        <ele>107.8</ele>
        <time>2019-12-20T08:32:50Z</time>
      </trkpt>
      <trkpt lat="38.2874400" lon="-0.5831650">
        <ele>108.0</ele>
        <time>2019-12-20T08:32:51Z</time>
      </trkpt>
      <trkpt lat="38.2874810" lon="-0.5829540">
        <ele>108.0</ele>
        <time>2019-12-20T08:32:52Z</time>
      </trkpt>
      <trkpt lat="38.2874870" lon="-0.5829010">
        <ele>107.6</ele>
        <time>2019-12-20T08:32:53Z</time>
      </trkpt>
      <trkpt lat="38.2874920" lon="-0.5828470">
        <ele>107.4</ele>
        <time>2019-12-20T08:32:54Z</time>
      </trkpt>
      <trkpt lat="38.2875100" lon="-0.5827440">
        <ele>107.4</ele>
        <time>2019-12-20T08:32:55Z</time>
      </trkpt>
      <trkpt lat="38.2875940" lon="-0.5826000">
        <ele>107.4</ele>
        <time>2019-12-20T08:32:56Z</time>
      </trkpt>
      <trkpt lat="38.2876550" lon="-0.5825670">
        <ele>107.4</ele>
        <time>2019-12-20T08:32:57Z</time>
      </trkpt>
      <trkpt lat="38.2876880" lon="-0.5825710">
        <ele>107.4</ele>
        <time>2019-12-20T08:32:58Z</time>
      </trkpt>
      <trkpt lat="38.2877210" lon="-0.5825750">
        <ele>107.2</ele>
        <time>2019-12-20T08:32:59Z</time>
      </trkpt>
      <trkpt lat="38.2878120" lon="-0.5826080">
        <ele>107.2</ele>
        <time>2019-12-20T08:33:00Z</time>
      </trkpt>
      <trkpt lat="38.2878370" lon="-0.5826330">
        <ele>107.4</ele>
        <time>2019-12-20T08:33:01Z</time>
      </trkpt>
      <trkpt lat="38.2878740" lon="-0.5826970">
        <ele>107.2</ele>
        <time>2019-12-20T08:33:02Z</time>
      </trkpt>
      <trkpt lat="38.2878990" lon="-0.5827690">
        <ele>107.0</ele>
        <time>2019-12-20T08:33:03Z</time>
      </trkpt>
      <trkpt lat="38.2879190" lon="-0.5828420">
        <ele>107.0</ele>
        <time>2019-12-20T08:33:04Z</time>
      </trkpt>
      <trkpt lat="38.2879550" lon="-0.5829880">
        <ele>107.4</ele>
        <time>2019-12-20T08:33:05Z</time>
      </trkpt>
      <trkpt lat="38.2879900" lon="-0.5830480">
        <ele>107.6</ele>
        <time>2019-12-20T08:33:06Z</time>
      </trkpt>
      <trkpt lat="38.2880120" lon="-0.5830750">
        <ele>107.8</ele>
        <time>2019-12-20T08:33:07Z</time>
      </trkpt>
      <trkpt lat="38.2880330" lon="-0.5831020">
        <ele>107.8</ele>
        <time>2019-12-20T08:33:08Z</time>
      </trkpt>
      <trkpt lat="38.2880790" lon="-0.5831530">
        <ele>107.8</ele>
        <time>2019-12-20T08:33:09Z</time>
      </trkpt>
      <trkpt lat="38.2881710" lon="-0.5832540">
        <ele>108.0</ele>
        <time>2019-12-20T08:33:10Z</time>
      </trkpt>
      <trkpt lat="38.2882160" lon="-0.5833060">
        <ele>108.6</ele>
        <time>2019-12-20T08:33:11Z</time>
      </trkpt>
      <trkpt lat="38.2882620" lon="-0.5833570">
        <ele>108.6</ele>
        <time>2019-12-20T08:33:12Z</time>
      </trkpt>
      <trkpt lat="38.2882990" lon="-0.5833930">
        <ele>108.6</ele>
        <time>2019-12-20T08:33:13Z</time>
      </trkpt>
      <trkpt lat="38.2883350" lon="-0.5834290">
        <ele>108.6</ele>
        <time>2019-12-20T08:33:14Z</time>
      </trkpt>
      <trkpt lat="38.2884080" lon="-0.5835010">
        <ele>108.8</ele>
        <time>2019-12-20T08:33:15Z</time>
      </trkpt>
      <trkpt lat="38.2884350" lon="-0.5835210">
        <ele>109.0</ele>
        <time>2019-12-20T08:33:16Z</time>
      </trkpt>
      <trkpt lat="38.2884620" lon="-0.5835420">
        <ele>109.0</ele>
        <time>2019-12-20T08:33:17Z</time>
      </trkpt>
      <trkpt lat="38.2885440" lon="-0.5835980">
        <ele>109.0</ele>
        <time>2019-12-20T08:33:18Z</time>
      </trkpt>
      <trkpt lat="38.2885710" lon="-0.5836130">
        <ele>109.2</ele>
        <time>2019-12-20T08:33:19Z</time>
      </trkpt>
      <trkpt lat="38.2886880" lon="-0.5836410">
        <ele>109.2</ele>
        <time>2019-12-20T08:33:20Z</time>
      </trkpt>
      <trkpt lat="38.2887170" lon="-0.5836440">
        <ele>109.2</ele>
        <time>2019-12-20T08:33:21Z</time>
      </trkpt>
      <trkpt lat="38.2887450" lon="-0.5836470">
        <ele>109.4</ele>
        <time>2019-12-20T08:33:22Z</time>
      </trkpt>
      <trkpt lat="38.2888480" lon="-0.5836500">
        <ele>109.6</ele>
        <time>2019-12-20T08:33:23Z</time>
      </trkpt>
      <trkpt lat="38.2888730" lon="-0.5836490">
        <ele>109.8</ele>
        <time>2019-12-20T08:33:24Z</time>
      </trkpt>
      <trkpt lat="38.2888970" lon="-0.5836480">
        <ele>109.8</ele>
        <time>2019-12-20T08:33:25Z</time>
      </trkpt>
      <trkpt lat="38.2889730" lon="-0.5836330">
        <ele>110.0</ele>
        <time>2019-12-20T08:33:26Z</time>
      </trkpt>
      <trkpt lat="38.2889980" lon="-0.5836260">
        <ele>110.2</ele>
        <time>2019-12-20T08:33:27Z</time>
      </trkpt>
      <trkpt lat="38.2890220" lon="-0.5836190">
        <ele>110.6</ele>
        <time>2019-12-20T08:33:28Z</time>
      </trkpt>
      <trkpt lat="38.2890400" lon="-0.5836180">
        <ele>110.8</ele>
        <time>2019-12-20T08:33:29Z</time>
      </trkpt>
      <trkpt lat="38.2890580" lon="-0.5836160">
        <ele>110.6</ele>
        <time>2019-12-20T08:33:30Z</time>
      </trkpt>
      <trkpt lat="38.2890580" lon="-0.5836160">
        <ele>110.8</ele>
        <time>2019-12-20T08:33:31Z</time>
      </trkpt>
      <trkpt lat="38.2890750" lon="-0.5836130">
        <ele>110.8</ele>
        <time>2019-12-20T08:33:32Z</time>
      </trkpt>
      <trkpt lat="38.2892140" lon="-0.5836300">
        <ele>112.2</ele>
        <time>2019-12-20T08:35:32Z</time>
      </trkpt>
      <trkpt lat="38.2892430" lon="-0.5836380">
        <ele>112.8</ele>
        <time>2019-12-20T08:35:33Z</time>
      </trkpt>
      <trkpt lat="38.2892770" lon="-0.5836480">
        <ele>112.8</ele>
        <time>2019-12-20T08:35:34Z</time>
      </trkpt>
      <trkpt lat="38.2893120" lon="-0.5836620">
        <ele>112.8</ele>
        <time>2019-12-20T08:35:35Z</time>
      </trkpt>
      <trkpt lat="38.2893500" lon="-0.5836790">
        <ele>112.6</ele>
        <time>2019-12-20T08:35:36Z</time>
      </trkpt>
      <trkpt lat="38.2893900" lon="-0.5836990">
        <ele>112.6</ele>
        <time>2019-12-20T08:35:37Z</time>
      </trkpt>
      <trkpt lat="38.2894330" lon="-0.5837190">
        <ele>112.8</ele>
        <time>2019-12-20T08:35:38Z</time>
      </trkpt>
      <trkpt lat="38.2894790" lon="-0.5837420">
        <ele>113.0</ele>
        <time>2019-12-20T08:35:39Z</time>
      </trkpt>
      <trkpt lat="38.2895250" lon="-0.5837680">
        <ele>113.0</ele>
        <time>2019-12-20T08:35:40Z</time>
      </trkpt>
      <trkpt lat="38.2895730" lon="-0.5837940">
        <ele>112.8</ele>
        <time>2019-12-20T08:35:41Z</time>
      </trkpt>
      <trkpt lat="38.2896210" lon="-0.5838200">
        <ele>112.6</ele>
        <time>2019-12-20T08:35:42Z</time>
      </trkpt>
      <trkpt lat="38.2896690" lon="-0.5838450">
        <ele>112.6</ele>
        <time>2019-12-20T08:35:43Z</time>
      </trkpt>
      <trkpt lat="38.2897060" lon="-0.5838650">
        <ele>112.8</ele>
        <time>2019-12-20T08:35:44Z</time>
      </trkpt>
      <trkpt lat="38.2897430" lon="-0.5838860">
        <ele>113.2</ele>
        <time>2019-12-20T08:35:45Z</time>
      </trkpt>
      <trkpt lat="38.2898160" lon="-0.5839280">
        <ele>113.4</ele>
        <time>2019-12-20T08:35:46Z</time>
      </trkpt>
      <trkpt lat="38.2898650" lon="-0.5839570">
        <ele>113.6</ele>
        <time>2019-12-20T08:35:47Z</time>
      </trkpt>
      <trkpt lat="38.2899130" lon="-0.5839870">
        <ele>114.2</ele>
        <time>2019-12-20T08:35:48Z</time>
      </trkpt>
      <trkpt lat="38.2899600" lon="-0.5840180">
        <ele>114.2</ele>
        <time>2019-12-20T08:35:49Z</time>
      </trkpt>
      <trkpt lat="38.2900070" lon="-0.5840470">
        <ele>114.2</ele>
        <time>2019-12-20T08:35:50Z</time>
      </trkpt>
      <trkpt lat="38.2900560" lon="-0.5840780">
        <ele>114.4</ele>
        <time>2019-12-20T08:35:51Z</time>
      </trkpt>
      <trkpt lat="38.2901040" lon="-0.5841120">
        <ele>114.8</ele>
        <time>2019-12-20T08:35:52Z</time>
      </trkpt>
      <trkpt lat="38.2901530" lon="-0.5841430">
        <ele>115.0</ele>
        <time>2019-12-20T08:35:53Z</time>
      </trkpt>
      <trkpt lat="38.2902020" lon="-0.5841730">
        <ele>115.0</ele>
        <time>2019-12-20T08:35:54Z</time>
      </trkpt>
      <trkpt lat="38.2902520" lon="-0.5842030">
        <ele>114.8</ele>
        <time>2019-12-20T08:35:55Z</time>
      </trkpt>
      <trkpt lat="38.2903010" lon="-0.5842350">
        <ele>115.0</ele>
        <time>2019-12-20T08:35:56Z</time>
      </trkpt>
      <trkpt lat="38.2903490" lon="-0.5842670">
        <ele>115.0</ele>
        <time>2019-12-20T08:35:57Z</time>
      </trkpt>
      <trkpt lat="38.2903970" lon="-0.5842970">
        <ele>115.0</ele>
        <time>2019-12-20T08:35:58Z</time>
      </trkpt>
      <trkpt lat="38.2904440" lon="-0.5843290">
        <ele>114.8</ele>
        <time>2019-12-20T08:35:59Z</time>
      </trkpt>
      <trkpt lat="38.2904930" lon="-0.5843590">
        <ele>114.8</ele>
        <time>2019-12-20T08:36:00Z</time>
      </trkpt>
      <trkpt lat="38.2905410" lon="-0.5843880">
        <ele>115.2</ele>
        <time>2019-12-20T08:36:01Z</time>
      </trkpt>
      <trkpt lat="38.2905880" lon="-0.5844120">
        <ele>115.6</ele>
        <time>2019-12-20T08:36:02Z</time>
      </trkpt>
      <trkpt lat="38.2906380" lon="-0.5844190">
        <ele>115.0</ele>
        <time>2019-12-20T08:36:03Z</time>
      </trkpt>
      <trkpt lat="38.2906810" lon="-0.5843970">
        <ele>115.2</ele>
        <time>2019-12-20T08:36:04Z</time>
      </trkpt>
      <trkpt lat="38.2907150" lon="-0.5843560">
        <ele>115.2</ele>
        <time>2019-12-20T08:36:05Z</time>
      </trkpt>
      <trkpt lat="38.2907400" lon="-0.5843020">
        <ele>116.0</ele>
        <time>2019-12-20T08:36:06Z</time>
      </trkpt>
      <trkpt lat="38.2907630" lon="-0.5842420">
        <ele>115.8</ele>
        <time>2019-12-20T08:36:07Z</time>
      </trkpt>
      <trkpt lat="38.2907810" lon="-0.5841750">
        <ele>115.6</ele>
        <time>2019-12-20T08:36:08Z</time>
      </trkpt>
      <trkpt lat="38.2908010" lon="-0.5841030">
        <ele>115.4</ele>
        <time>2019-12-20T08:36:09Z</time>
      </trkpt>
      <trkpt lat="38.2908210" lon="-0.5840310">
        <ele>115.0</ele>
        <time>2019-12-20T08:36:10Z</time>
      </trkpt>
      <trkpt lat="38.2908510" lon="-0.5839610">
        <ele>114.4</ele>
        <time>2019-12-20T08:36:11Z</time>
      </trkpt>
      <trkpt lat="38.2908810" lon="-0.5838940">
        <ele>114.6</ele>
        <time>2019-12-20T08:36:12Z</time>
      </trkpt>
      <trkpt lat="38.2909100" lon="-0.5838280">
        <ele>114.6</ele>
        <time>2019-12-20T08:36:13Z</time>
      </trkpt>
      <trkpt lat="38.2909330" lon="-0.5837550">
        <ele>114.8</ele>
        <time>2019-12-20T08:36:14Z</time>
      </trkpt>
      <trkpt lat="38.2909600" lon="-0.5836800">
        <ele>115.0</ele>
        <time>2019-12-20T08:36:15Z</time>
      </trkpt>
      <trkpt lat="38.2909890" lon="-0.5836100">
        <ele>114.8</ele>
        <time>2019-12-20T08:36:16Z</time>
      </trkpt>
      <trkpt lat="38.2910150" lon="-0.5835440">
        <ele>114.8</ele>
        <time>2019-12-20T08:36:17Z</time>
      </trkpt>
      <trkpt lat="38.2910470" lon="-0.5834890">
        <ele>114.8</ele>
        <time>2019-12-20T08:36:18Z</time>
      </trkpt>
      <trkpt lat="38.2910810" lon="-0.5834430">
        <ele>114.8</ele>
        <time>2019-12-20T08:36:19Z</time>
      </trkpt>
      <trkpt lat="38.2911200" lon="-0.5834150">
        <ele>114.8</ele>
        <time>2019-12-20T08:36:20Z</time>
      </trkpt>
      <trkpt lat="38.2911650" lon="-0.5834140">
        <ele>115.0</ele>
        <time>2019-12-20T08:36:21Z</time>
      </trkpt>
      <trkpt lat="38.2912060" lon="-0.5834240">
        <ele>115.2</ele>
        <time>2019-12-20T08:36:22Z</time>
      </trkpt>
      <trkpt lat="38.2912510" lon="-0.5834440">
        <ele>115.4</ele>
        <time>2019-12-20T08:36:23Z</time>
      </trkpt>
      <trkpt lat="38.2912950" lon="-0.5834660">
        <ele>115.4</ele>
        <time>2019-12-20T08:36:24Z</time>
      </trkpt>
      <trkpt lat="38.2913400" lon="-0.5834890">
        <ele>115.0</ele>
        <time>2019-12-20T08:36:25Z</time>
      </trkpt>
      <trkpt lat="38.2913870" lon="-0.5835100">
        <ele>114.8</ele>
        <time>2019-12-20T08:36:26Z</time>
      </trkpt>
      <trkpt lat="38.2914340" lon="-0.5835320">
        <ele>114.8</ele>
        <time>2019-12-20T08:36:27Z</time>
      </trkpt>
      <trkpt lat="38.2914820" lon="-0.5835530">
        <ele>114.6</ele>
        <time>2019-12-20T08:36:28Z</time>
      </trkpt>
      <trkpt lat="38.2915280" lon="-0.5835760">
        <ele>114.6</ele>
        <time>2019-12-20T08:36:29Z</time>
      </trkpt>
      <trkpt lat="38.2915750" lon="-0.5835990">
        <ele>115.4</ele>
        <time>2019-12-20T08:36:30Z</time>
      </trkpt>
      <trkpt lat="38.2916230" lon="-0.5836220">
        <ele>115.4</ele>
        <time>2019-12-20T08:36:31Z</time>
      </trkpt>
      <trkpt lat="38.2916720" lon="-0.5836430">
        <ele>115.4</ele>
        <time>2019-12-20T08:36:32Z</time>
      </trkpt>
      <trkpt lat="38.2917220" lon="-0.5836650">
        <ele>115.4</ele>
        <time>2019-12-20T08:36:33Z</time>
      </trkpt>
      <trkpt lat="38.2917730" lon="-0.5836860">
        <ele>115.4</ele>
        <time>2019-12-20T08:36:34Z</time>
      </trkpt>
      <trkpt lat="38.2918220" lon="-0.5837090">
        <ele>115.4</ele>
        <time>2019-12-20T08:36:35Z</time>
      </trkpt>
      <trkpt lat="38.2918730" lon="-0.5837300">
        <ele>115.4</ele>
        <time>2019-12-20T08:36:36Z</time>
      </trkpt>
      <trkpt lat="38.2919240" lon="-0.5837510">
        <ele>115.2</ele>
        <time>2019-12-20T08:36:37Z</time>
      </trkpt>
      <trkpt lat="38.2919740" lon="-0.5837740">
        <ele>115.4</ele>
        <time>2019-12-20T08:36:38Z</time>
      </trkpt>
      <trkpt lat="38.2920120" lon="-0.5837920">
        <ele>115.6</ele>
        <time>2019-12-20T08:36:39Z</time>
      </trkpt>
      <trkpt lat="38.2920500" lon="-0.5838100">
        <ele>115.6</ele>
        <time>2019-12-20T08:36:40Z</time>
      </trkpt>
      <trkpt lat="38.2921250" lon="-0.5838470">
        <ele>115.8</ele>
        <time>2019-12-20T08:36:41Z</time>
      </trkpt>
      <trkpt lat="38.2921780" lon="-0.5838720">
        <ele>115.8</ele>
        <time>2019-12-20T08:36:42Z</time>
      </trkpt>
      <trkpt lat="38.2922300" lon="-0.5838950">
        <ele>115.8</ele>
        <time>2019-12-20T08:36:43Z</time>
      </trkpt>
      <trkpt lat="38.2922800" lon="-0.5839180">
        <ele>116.0</ele>
        <time>2019-12-20T08:36:44Z</time>
      </trkpt>
      <trkpt lat="38.2923330" lon="-0.5839430">
        <ele>116.0</ele>
        <time>2019-12-20T08:36:45Z</time>
      </trkpt>
      <trkpt lat="38.2923880" lon="-0.5839690">
        <ele>116.0</ele>
        <time>2019-12-20T08:36:46Z</time>
      </trkpt>
      <trkpt lat="38.2924430" lon="-0.5839940">
        <ele>116.2</ele>
        <time>2019-12-20T08:36:47Z</time>
      </trkpt>
      <trkpt lat="38.2924960" lon="-0.5840190">
        <ele>116.2</ele>
        <time>2019-12-20T08:36:48Z</time>
      </trkpt>
      <trkpt lat="38.2925500" lon="-0.5840450">
        <ele>116.0</ele>
        <time>2019-12-20T08:36:49Z</time>
      </trkpt>
      <trkpt lat="38.2926030" lon="-0.5840670">
        <ele>115.8</ele>
        <time>2019-12-20T08:36:50Z</time>
      </trkpt>
      <trkpt lat="38.2926560" lon="-0.5840870">
        <ele>115.8</ele>
        <time>2019-12-20T08:36:51Z</time>
      </trkpt>
      <trkpt lat="38.2927080" lon="-0.5841060">
        <ele>115.8</ele>
        <time>2019-12-20T08:36:52Z</time>
      </trkpt>
      <trkpt lat="38.2927590" lon="-0.5841290">
        <ele>116.0</ele>
        <time>2019-12-20T08:36:53Z</time>
      </trkpt>
      <trkpt lat="38.2928090" lon="-0.5841520">
        <ele>116.2</ele>
        <time>2019-12-20T08:36:54Z</time>
      </trkpt>
      <trkpt lat="38.2928600" lon="-0.5841760">
        <ele>116.6</ele>
        <time>2019-12-20T08:36:55Z</time>
      </trkpt>
      <trkpt lat="38.2929110" lon="-0.5842000">
        <ele>117.0</ele>
        <time>2019-12-20T08:36:56Z</time>
      </trkpt>
      <trkpt lat="38.2929610" lon="-0.5842220">
        <ele>117.0</ele>
        <time>2019-12-20T08:36:57Z</time>
      </trkpt>
      <trkpt lat="38.2930100" lon="-0.5842430">
        <ele>117.0</ele>
        <time>2019-12-20T08:36:58Z</time>
      </trkpt>
      <trkpt lat="38.2930600" lon="-0.5842690">
        <ele>116.8</ele>
        <time>2019-12-20T08:36:59Z</time>
      </trkpt>
      <trkpt lat="38.2931110" lon="-0.5842910">
        <ele>116.8</ele>
        <time>2019-12-20T08:37:00Z</time>
      </trkpt>
      <trkpt lat="38.2931610" lon="-0.5843130">
        <ele>117.0</ele>
        <time>2019-12-20T08:37:01Z</time>
      </trkpt>
      <trkpt lat="38.2932110" lon="-0.5843320">
        <ele>117.2</ele>
        <time>2019-12-20T08:37:02Z</time>
      </trkpt>
      <trkpt lat="38.2932610" lon="-0.5843540">
        <ele>117.2</ele>
        <time>2019-12-20T08:37:03Z</time>
      </trkpt>
      <trkpt lat="38.2933100" lon="-0.5843760">
        <ele>117.0</ele>
        <time>2019-12-20T08:37:04Z</time>
      </trkpt>
      <trkpt lat="38.2933590" lon="-0.5843990">
        <ele>116.6</ele>
        <time>2019-12-20T08:37:05Z</time>
      </trkpt>
      <trkpt lat="38.2934090" lon="-0.5844220">
        <ele>116.6</ele>
        <time>2019-12-20T08:37:06Z</time>
      </trkpt>
      <trkpt lat="38.2934570" lon="-0.5844450">
        <ele>116.8</ele>
        <time>2019-12-20T08:37:07Z</time>
      </trkpt>
      <trkpt lat="38.2935060" lon="-0.5844680">
        <ele>116.8</ele>
        <time>2019-12-20T08:37:08Z</time>
      </trkpt>
      <trkpt lat="38.2935540" lon="-0.5844890">
        <ele>116.8</ele>
        <time>2019-12-20T08:37:09Z</time>
      </trkpt>
      <trkpt lat="38.2936020" lon="-0.5845090">
        <ele>117.2</ele>
        <time>2019-12-20T08:37:10Z</time>
      </trkpt>
      <trkpt lat="38.2936510" lon="-0.5845290">
        <ele>117.2</ele>
        <time>2019-12-20T08:37:11Z</time>
      </trkpt>
      <trkpt lat="38.2936980" lon="-0.5845480">
        <ele>117.2</ele>
        <time>2019-12-20T08:37:12Z</time>
      </trkpt>
      <trkpt lat="38.2937460" lon="-0.5845670">
        <ele>117.4</ele>
        <time>2019-12-20T08:37:13Z</time>
      </trkpt>
      <trkpt lat="38.2937930" lon="-0.5845850">
        <ele>117.6</ele>
        <time>2019-12-20T08:37:14Z</time>
      </trkpt>
      <trkpt lat="38.2938420" lon="-0.5846000">
        <ele>117.6</ele>
        <time>2019-12-20T08:37:15Z</time>
      </trkpt>
      <trkpt lat="38.2938930" lon="-0.5846130">
        <ele>118.0</ele>
        <time>2019-12-20T08:37:16Z</time>
      </trkpt>
      <trkpt lat="38.2939430" lon="-0.5846300">
        <ele>118.0</ele>
        <time>2019-12-20T08:37:17Z</time>
      </trkpt>
      <trkpt lat="38.2939920" lon="-0.5846520">
        <ele>117.8</ele>
        <time>2019-12-20T08:37:18Z</time>
      </trkpt>
      <trkpt lat="38.2940410" lon="-0.5846730">
        <ele>117.8</ele>
        <time>2019-12-20T08:37:19Z</time>
      </trkpt>
      <trkpt lat="38.2940900" lon="-0.5846940">
        <ele>117.8</ele>
        <time>2019-12-20T08:37:20Z</time>
      </trkpt>
      <trkpt lat="38.2941380" lon="-0.5847140">
        <ele>117.8</ele>
        <time>2019-12-20T08:37:21Z</time>
      </trkpt>
      <trkpt lat="38.2941860" lon="-0.5847320">
        <ele>118.0</ele>
        <time>2019-12-20T08:37:22Z</time>
      </trkpt>
      <trkpt lat="38.2942310" lon="-0.5847500">
        <ele>118.2</ele>
        <time>2019-12-20T08:37:23Z</time>
      </trkpt>
      <trkpt lat="38.2942770" lon="-0.5847670">
        <ele>118.0</ele>
        <time>2019-12-20T08:37:24Z</time>
      </trkpt>
      <trkpt lat="38.2943220" lon="-0.5847650">
        <ele>118.4</ele>
        <time>2019-12-20T08:37:25Z</time>
      </trkpt>
      <trkpt lat="38.2943640" lon="-0.5847400">
        <ele>118.4</ele>
        <time>2019-12-20T08:37:26Z</time>
      </trkpt>
      <trkpt lat="38.2943970" lon="-0.5847010">
        <ele>118.6</ele>
        <time>2019-12-20T08:37:27Z</time>
      </trkpt>
      <trkpt lat="38.2944230" lon="-0.5846500">
        <ele>118.4</ele>
        <time>2019-12-20T08:37:28Z</time>
      </trkpt>
      <trkpt lat="38.2944450" lon="-0.5845970">
        <ele>118.4</ele>
        <time>2019-12-20T08:37:29Z</time>
      </trkpt>
      <trkpt lat="38.2944710" lon="-0.5845430">
        <ele>118.2</ele>
        <time>2019-12-20T08:37:30Z</time>
      </trkpt>
      <trkpt lat="38.2944970" lon="-0.5844900">
        <ele>118.0</ele>
        <time>2019-12-20T08:37:31Z</time>
      </trkpt>
      <trkpt lat="38.2945240" lon="-0.5844300">
        <ele>118.2</ele>
        <time>2019-12-20T08:37:32Z</time>
      </trkpt>
      <trkpt lat="38.2945470" lon="-0.5843690">
        <ele>118.0</ele>
        <time>2019-12-20T08:37:33Z</time>
      </trkpt>
      <trkpt lat="38.2945690" lon="-0.5843080">
        <ele>118.0</ele>
        <time>2019-12-20T08:37:34Z</time>
      </trkpt>
      <trkpt lat="38.2945960" lon="-0.5842490">
        <ele>118.2</ele>
        <time>2019-12-20T08:37:35Z</time>
      </trkpt>
      <trkpt lat="38.2946210" lon="-0.5841870">
        <ele>118.2</ele>
        <time>2019-12-20T08:37:36Z</time>
      </trkpt>
      <trkpt lat="38.2946490" lon="-0.5841250">
        <ele>118.0</ele>
        <time>2019-12-20T08:37:37Z</time>
      </trkpt>
      <trkpt lat="38.2946770" lon="-0.5840590">
        <ele>117.6</ele>
        <time>2019-12-20T08:37:38Z</time>
      </trkpt>
      <trkpt lat="38.2947060" lon="-0.5839930">
        <ele>117.4</ele>
        <time>2019-12-20T08:37:39Z</time>
      </trkpt>
      <trkpt lat="38.2947430" lon="-0.5839230">
        <ele>117.2</ele>
        <time>2019-12-20T08:37:40Z</time>
      </trkpt>
      <trkpt lat="38.2947790" lon="-0.5838580">
        <ele>117.0</ele>
        <time>2019-12-20T08:37:41Z</time>
      </trkpt>
      <trkpt lat="38.2948160" lon="-0.5837920">
        <ele>117.0</ele>
        <time>2019-12-20T08:37:42Z</time>
      </trkpt>
      <trkpt lat="38.2948490" lon="-0.5837240">
        <ele>116.8</ele>
        <time>2019-12-20T08:37:43Z</time>
      </trkpt>
      <trkpt lat="38.2948820" lon="-0.5836540">
        <ele>116.8</ele>
        <time>2019-12-20T08:37:44Z</time>
      </trkpt>
      <trkpt lat="38.2949140" lon="-0.5835840">
        <ele>117.0</ele>
        <time>2019-12-20T08:37:45Z</time>
      </trkpt>
      <trkpt lat="38.2949460" lon="-0.5835110">
        <ele>117.2</ele>
        <time>2019-12-20T08:37:46Z</time>
      </trkpt>
      <trkpt lat="38.2949770" lon="-0.5834370">
        <ele>117.4</ele>
        <time>2019-12-20T08:37:47Z</time>
      </trkpt>
      <trkpt lat="38.2950100" lon="-0.5833610">
        <ele>117.2</ele>
        <time>2019-12-20T08:37:48Z</time>
      </trkpt>
      <trkpt lat="38.2950430" lon="-0.5832850">
        <ele>117.2</ele>
        <time>2019-12-20T08:37:49Z</time>
      </trkpt>
      <trkpt lat="38.2950810" lon="-0.5832100">
        <ele>117.4</ele>
        <time>2019-12-20T08:37:50Z</time>
      </trkpt>
      <trkpt lat="38.2951170" lon="-0.5831360">
        <ele>117.6</ele>
        <time>2019-12-20T08:37:51Z</time>
      </trkpt>
      <trkpt lat="38.2951570" lon="-0.5830620">
        <ele>117.6</ele>
        <time>2019-12-20T08:37:52Z</time>
      </trkpt>
      <trkpt lat="38.2952010" lon="-0.5829890">
        <ele>117.6</ele>
        <time>2019-12-20T08:37:53Z</time>
      </trkpt>
      <trkpt lat="38.2952460" lon="-0.5829170">
        <ele>117.8</ele>
        <time>2019-12-20T08:37:54Z</time>
      </trkpt>
      <trkpt lat="38.2952870" lon="-0.5828440">
        <ele>117.6</ele>
        <time>2019-12-20T08:37:55Z</time>
      </trkpt>
      <trkpt lat="38.2953260" lon="-0.5827670">
        <ele>117.6</ele>
        <time>2019-12-20T08:37:56Z</time>
      </trkpt>
      <trkpt lat="38.2953650" lon="-0.5826900">
        <ele>117.8</ele>
        <time>2019-12-20T08:37:57Z</time>
      </trkpt>
      <trkpt lat="38.2954040" lon="-0.5826100">
        <ele>117.8</ele>
        <time>2019-12-20T08:37:58Z</time>
      </trkpt>
      <trkpt lat="38.2954490" lon="-0.5825330">
        <ele>117.8</ele>
        <time>2019-12-20T08:37:59Z</time>
      </trkpt>
      <trkpt lat="38.2954850" lon="-0.5824530">
        <ele>117.8</ele>
        <time>2019-12-20T08:38:00Z</time>
      </trkpt>
      <trkpt lat="38.2955230" lon="-0.5823720">
        <ele>117.6</ele>
        <time>2019-12-20T08:38:01Z</time>
      </trkpt>
      <trkpt lat="38.2955600" lon="-0.5822880">
        <ele>117.2</ele>
        <time>2019-12-20T08:38:02Z</time>
      </trkpt>
      <trkpt lat="38.2955980" lon="-0.5822030">
        <ele>117.0</ele>
        <time>2019-12-20T08:38:03Z</time>
      </trkpt>
      <trkpt lat="38.2956350" lon="-0.5821190">
        <ele>117.0</ele>
        <time>2019-12-20T08:38:04Z</time>
      </trkpt>
      <trkpt lat="38.2956700" lon="-0.5820340">
        <ele>117.0</ele>
        <time>2019-12-20T08:38:05Z</time>
      </trkpt>
      <trkpt lat="38.2957070" lon="-0.5819500">
        <ele>117.0</ele>
        <time>2019-12-20T08:38:06Z</time>
      </trkpt>
      <trkpt lat="38.2957460" lon="-0.5818670">
        <ele>116.8</ele>
        <time>2019-12-20T08:38:07Z</time>
      </trkpt>
      <trkpt lat="38.2957810" lon="-0.5817810">
        <ele>117.0</ele>
        <time>2019-12-20T08:38:08Z</time>
      </trkpt>
      <trkpt lat="38.2958170" lon="-0.5816960">
        <ele>117.2</ele>
        <time>2019-12-20T08:38:09Z</time>
      </trkpt>
      <trkpt lat="38.2958550" lon="-0.5816090">
        <ele>117.2</ele>
        <time>2019-12-20T08:38:10Z</time>
      </trkpt>
      <trkpt lat="38.2958950" lon="-0.5815210">
        <ele>117.2</ele>
        <time>2019-12-20T08:38:11Z</time>
      </trkpt>
      <trkpt lat="38.2959340" lon="-0.5814320">
        <ele>117.2</ele>
        <time>2019-12-20T08:38:12Z</time>
      </trkpt>
      <trkpt lat="38.2959730" lon="-0.5813430">
        <ele>117.2</ele>
        <time>2019-12-20T08:38:13Z</time>
      </trkpt>
      <trkpt lat="38.2960130" lon="-0.5812550">
        <ele>117.4</ele>
        <time>2019-12-20T08:38:14Z</time>
      </trkpt>
      <trkpt lat="38.2960510" lon="-0.5811650">
        <ele>117.4</ele>
        <time>2019-12-20T08:38:15Z</time>
      </trkpt>
      <trkpt lat="38.2960890" lon="-0.5810750">
        <ele>117.6</ele>
        <time>2019-12-20T08:38:16Z</time>
      </trkpt>
      <trkpt lat="38.2961300" lon="-0.5809860">
        <ele>117.8</ele>
        <time>2019-12-20T08:38:17Z</time>
      </trkpt>
      <trkpt lat="38.2961710" lon="-0.5808970">
        <ele>117.8</ele>
        <time>2019-12-20T08:38:18Z</time>
      </trkpt>
      <trkpt lat="38.2962100" lon="-0.5808090">
        <ele>118.0</ele>
        <time>2019-12-20T08:38:19Z</time>
      </trkpt>
      <trkpt lat="38.2962480" lon="-0.5807210">
        <ele>118.0</ele>
        <time>2019-12-20T08:38:20Z</time>
      </trkpt>
      <trkpt lat="38.2962890" lon="-0.5806360">
        <ele>118.6</ele>
        <time>2019-12-20T08:38:21Z</time>
      </trkpt>
      <trkpt lat="38.2963280" lon="-0.5805470">
        <ele>118.6</ele>
        <time>2019-12-20T08:38:22Z</time>
      </trkpt>
      <trkpt lat="38.2963690" lon="-0.5804570">
        <ele>118.6</ele>
        <time>2019-12-20T08:38:23Z</time>
      </trkpt>
      <trkpt lat="38.2964100" lon="-0.5803680">
        <ele>118.6</ele>
        <time>2019-12-20T08:38:24Z</time>
      </trkpt>
      <trkpt lat="38.2964490" lon="-0.5802790">
        <ele>118.8</ele>
        <time>2019-12-20T08:38:25Z</time>
      </trkpt>
      <trkpt lat="38.2964890" lon="-0.5801910">
        <ele>118.8</ele>
        <time>2019-12-20T08:38:26Z</time>
      </trkpt>
      <trkpt lat="38.2965280" lon="-0.5801040">
        <ele>119.0</ele>
        <time>2019-12-20T08:38:27Z</time>
      </trkpt>
      <trkpt lat="38.2965680" lon="-0.5800190">
        <ele>119.0</ele>
        <time>2019-12-20T08:38:28Z</time>
      </trkpt>
      <trkpt lat="38.2966060" lon="-0.5799350">
        <ele>119.0</ele>
        <time>2019-12-20T08:38:29Z</time>
      </trkpt>
      <trkpt lat="38.2966470" lon="-0.5798540">
        <ele>119.2</ele>
        <time>2019-12-20T08:38:30Z</time>
      </trkpt>
      <trkpt lat="38.2966880" lon="-0.5797750">
        <ele>119.2</ele>
        <time>2019-12-20T08:38:31Z</time>
      </trkpt>
      <trkpt lat="38.2967260" lon="-0.5796950">
        <ele>119.2</ele>
        <time>2019-12-20T08:38:32Z</time>
      </trkpt>
      <trkpt lat="38.2967620" lon="-0.5796140">
        <ele>119.2</ele>
        <time>2019-12-20T08:38:33Z</time>
      </trkpt>
      <trkpt lat="38.2967980" lon="-0.5795320">
        <ele>119.6</ele>
        <time>2019-12-20T08:38:34Z</time>
      </trkpt>
      <trkpt lat="38.2968370" lon="-0.5794540">
        <ele>120.2</ele>
        <time>2019-12-20T08:38:35Z</time>
      </trkpt>
      <trkpt lat="38.2968760" lon="-0.5793760">
        <ele>120.4</ele>
        <time>2019-12-20T08:38:36Z</time>
      </trkpt>
      <trkpt lat="38.2969150" lon="-0.5792990">
        <ele>120.4</ele>
        <time>2019-12-20T08:38:37Z</time>
      </trkpt>
      <trkpt lat="38.2969550" lon="-0.5792240">
        <ele>120.8</ele>
        <time>2019-12-20T08:38:38Z</time>
      </trkpt>
      <trkpt lat="38.2969940" lon="-0.5791500">
        <ele>120.4</ele>
        <time>2019-12-20T08:38:39Z</time>
      </trkpt>
      <trkpt lat="38.2970320" lon="-0.5790760">
        <ele>120.4</ele>
        <time>2019-12-20T08:38:40Z</time>
      </trkpt>
      <trkpt lat="38.2970670" lon="-0.5790010">
        <ele>120.8</ele>
        <time>2019-12-20T08:38:41Z</time>
      </trkpt>
      <trkpt lat="38.2971010" lon="-0.5789260">
        <ele>121.2</ele>
        <time>2019-12-20T08:38:42Z</time>
      </trkpt>
      <trkpt lat="38.2971210" lon="-0.5788740">
        <ele>121.2</ele>
        <time>2019-12-20T08:38:43Z</time>
      </trkpt>
      <trkpt lat="38.2971400" lon="-0.5788210">
        <ele>121.6</ele>
        <time>2019-12-20T08:38:44Z</time>
      </trkpt>
      <trkpt lat="38.2971790" lon="-0.5787150">
        <ele>121.4</ele>
        <time>2019-12-20T08:38:45Z</time>
      </trkpt>
      <trkpt lat="38.2971960" lon="-0.5786510">
        <ele>121.4</ele>
        <time>2019-12-20T08:38:46Z</time>
      </trkpt>
      <trkpt lat="38.2972120" lon="-0.5786090">
        <ele>121.4</ele>
        <time>2019-12-20T08:38:47Z</time>
      </trkpt>
      <trkpt lat="38.2972350" lon="-0.5785940">
        <ele>121.2</ele>
        <time>2019-12-20T08:38:48Z</time>
      </trkpt>
      <trkpt lat="38.2972570" lon="-0.5786020">
        <ele>121.2</ele>
        <time>2019-12-20T08:38:49Z</time>
      </trkpt>
      <trkpt lat="38.2972740" lon="-0.5786220">
        <ele>121.2</ele>
        <time>2019-12-20T08:38:50Z</time>
      </trkpt>
      <trkpt lat="38.2972900" lon="-0.5786410">
        <ele>121.2</ele>
        <time>2019-12-20T08:38:51Z</time>
      </trkpt>
      <trkpt lat="38.2973000" lon="-0.5786580">
        <ele>121.2</ele>
        <time>2019-12-20T08:38:52Z</time>
      </trkpt>
      <trkpt lat="38.2973100" lon="-0.5786680">
        <ele>121.2</ele>
        <time>2019-12-20T08:38:53Z</time>
      </trkpt>
      <trkpt lat="38.2973200" lon="-0.5786750">
        <ele>121.4</ele>
        <time>2019-12-20T08:38:54Z</time>
      </trkpt>
      <trkpt lat="38.2973300" lon="-0.5786810">
        <ele>121.2</ele>
        <time>2019-12-20T08:38:55Z</time>
      </trkpt>
      <trkpt lat="38.2973400" lon="-0.5786870">
        <ele>121.2</ele>
        <time>2019-12-20T08:38:56Z</time>
      </trkpt>
      <trkpt lat="38.2973480" lon="-0.5786910">
        <ele>121.2</ele>
        <time>2019-12-20T08:38:57Z</time>
      </trkpt>
      <trkpt lat="38.2973580" lon="-0.5786930">
        <ele>121.2</ele>
        <time>2019-12-20T08:38:58Z</time>
      </trkpt>
      <trkpt lat="38.2973720" lon="-0.5787060">
        <ele>121.4</ele>
        <time>2019-12-20T08:38:59Z</time>
      </trkpt>
      <trkpt lat="38.2973920" lon="-0.5787250">
        <ele>121.6</ele>
        <time>2019-12-20T08:39:00Z</time>
      </trkpt>
      <trkpt lat="38.2974160" lon="-0.5787510">
        <ele>121.4</ele>
        <time>2019-12-20T08:39:01Z</time>
      </trkpt>
      <trkpt lat="38.2974510" lon="-0.5787770">
        <ele>121.6</ele>
        <time>2019-12-20T08:39:02Z</time>
      </trkpt>
      <trkpt lat="38.2974930" lon="-0.5787980">
        <ele>121.8</ele>
        <time>2019-12-20T08:39:03Z</time>
      </trkpt>
      <trkpt lat="38.2975380" lon="-0.5788110">
        <ele>122.0</ele>
        <time>2019-12-20T08:39:04Z</time>
      </trkpt>
      <trkpt lat="38.2975870" lon="-0.5788220">
        <ele>121.8</ele>
        <time>2019-12-20T08:39:05Z</time>
      </trkpt>
      <trkpt lat="38.2976340" lon="-0.5788350">
        <ele>121.6</ele>
        <time>2019-12-20T08:39:06Z</time>
      </trkpt>
      <trkpt lat="38.2976810" lon="-0.5788480">
        <ele>121.6</ele>
        <time>2019-12-20T08:39:07Z</time>
      </trkpt>
      <trkpt lat="38.2977300" lon="-0.5788550">
        <ele>121.8</ele>
        <time>2019-12-20T08:39:08Z</time>
      </trkpt>
      <trkpt lat="38.2977780" lon="-0.5788570">
        <ele>122.0</ele>
        <time>2019-12-20T08:39:09Z</time>
      </trkpt>
      <trkpt lat="38.2978160" lon="-0.5788570">
        <ele>122.2</ele>
        <time>2019-12-20T08:39:10Z</time>
      </trkpt>
      <trkpt lat="38.2978530" lon="-0.5788570">
        <ele>122.2</ele>
        <time>2019-12-20T08:39:11Z</time>
      </trkpt>
      <trkpt lat="38.2979280" lon="-0.5788570">
        <ele>122.6</ele>
        <time>2019-12-20T08:39:12Z</time>
      </trkpt>
      <trkpt lat="38.2979780" lon="-0.5788630">
        <ele>122.8</ele>
        <time>2019-12-20T08:39:13Z</time>
      </trkpt>
      <trkpt lat="38.2980250" lon="-0.5788780">
        <ele>122.8</ele>
        <time>2019-12-20T08:39:14Z</time>
      </trkpt>
      <trkpt lat="38.2980690" lon="-0.5789070">
        <ele>122.8</ele>
        <time>2019-12-20T08:39:15Z</time>
      </trkpt>
      <trkpt lat="38.2981110" lon="-0.5789420">
        <ele>123.0</ele>
        <time>2019-12-20T08:39:16Z</time>
      </trkpt>
      <trkpt lat="38.2981510" lon="-0.5789830">
        <ele>123.4</ele>
        <time>2019-12-20T08:39:17Z</time>
      </trkpt>
      <trkpt lat="38.2981890" lon="-0.5790290">
        <ele>123.2</ele>
        <time>2019-12-20T08:39:18Z</time>
      </trkpt>
      <trkpt lat="38.2982260" lon="-0.5790790">
        <ele>123.2</ele>
        <time>2019-12-20T08:39:19Z</time>
      </trkpt>
      <trkpt lat="38.2982630" lon="-0.5791290">
        <ele>123.4</ele>
        <time>2019-12-20T08:39:20Z</time>
      </trkpt>
      <trkpt lat="38.2982930" lon="-0.5791670">
        <ele>123.4</ele>
        <time>2019-12-20T08:39:21Z</time>
      </trkpt>
      <trkpt lat="38.2983220" lon="-0.5792050">
        <ele>123.2</ele>
        <time>2019-12-20T08:39:22Z</time>
      </trkpt>
      <trkpt lat="38.2983800" lon="-0.5792810">
        <ele>123.2</ele>
        <time>2019-12-20T08:39:23Z</time>
      </trkpt>
      <trkpt lat="38.2984200" lon="-0.5793310">
        <ele>123.2</ele>
        <time>2019-12-20T08:39:24Z</time>
      </trkpt>
      <trkpt lat="38.2984600" lon="-0.5793810">
        <ele>123.0</ele>
        <time>2019-12-20T08:39:25Z</time>
      </trkpt>
      <trkpt lat="38.2984990" lon="-0.5794330">
        <ele>123.0</ele>
        <time>2019-12-20T08:39:26Z</time>
      </trkpt>
      <trkpt lat="38.2985390" lon="-0.5794830">
        <ele>123.0</ele>
        <time>2019-12-20T08:39:27Z</time>
      </trkpt>
      <trkpt lat="38.2985800" lon="-0.5795320">
        <ele>123.0</ele>
        <time>2019-12-20T08:39:28Z</time>
      </trkpt>
      <trkpt lat="38.2986210" lon="-0.5795800">
        <ele>123.0</ele>
        <time>2019-12-20T08:39:29Z</time>
      </trkpt>
      <trkpt lat="38.2986610" lon="-0.5796290">
        <ele>123.2</ele>
        <time>2019-12-20T08:39:30Z</time>
      </trkpt>
      <trkpt lat="38.2987010" lon="-0.5796780">
        <ele>123.2</ele>
        <time>2019-12-20T08:39:31Z</time>
      </trkpt>
      <trkpt lat="38.2987410" lon="-0.5797270">
        <ele>123.4</ele>
        <time>2019-12-20T08:39:32Z</time>
      </trkpt>
      <trkpt lat="38.2987710" lon="-0.5797640">
        <ele>123.4</ele>
        <time>2019-12-20T08:39:33Z</time>
      </trkpt>
      <trkpt lat="38.2988000" lon="-0.5798010">
        <ele>123.4</ele>
        <time>2019-12-20T08:39:34Z</time>
      </trkpt>
      <trkpt lat="38.2988590" lon="-0.5798760">
        <ele>123.4</ele>
        <time>2019-12-20T08:39:35Z</time>
      </trkpt>
      <trkpt lat="38.2988980" lon="-0.5799240">
        <ele>123.2</ele>
        <time>2019-12-20T08:39:36Z</time>
      </trkpt>
      <trkpt lat="38.2989390" lon="-0.5799730">
        <ele>123.2</ele>
        <time>2019-12-20T08:39:37Z</time>
      </trkpt>
      <trkpt lat="38.2989780" lon="-0.5800220">
        <ele>123.2</ele>
        <time>2019-12-20T08:39:38Z</time>
      </trkpt>
      <trkpt lat="38.2990180" lon="-0.5800730">
        <ele>123.4</ele>
        <time>2019-12-20T08:39:39Z</time>
      </trkpt>
      <trkpt lat="38.2990560" lon="-0.5801230">
        <ele>123.4</ele>
        <time>2019-12-20T08:39:40Z</time>
      </trkpt>
      <trkpt lat="38.2990950" lon="-0.5801740">
        <ele>123.2</ele>
        <time>2019-12-20T08:39:41Z</time>
      </trkpt>
      <trkpt lat="38.2991330" lon="-0.5802240">
        <ele>123.4</ele>
        <time>2019-12-20T08:39:42Z</time>
      </trkpt>
      <trkpt lat="38.2991620" lon="-0.5802590">
        <ele>123.4</ele>
        <time>2019-12-20T08:39:43Z</time>
      </trkpt>
      <trkpt lat="38.2991900" lon="-0.5802940">
        <ele>123.6</ele>
        <time>2019-12-20T08:39:44Z</time>
      </trkpt>
      <trkpt lat="38.2992470" lon="-0.5803650">
        <ele>124.0</ele>
        <time>2019-12-20T08:39:45Z</time>
      </trkpt>
      <trkpt lat="38.2992840" lon="-0.5804100">
        <ele>124.2</ele>
        <time>2019-12-20T08:39:46Z</time>
      </trkpt>
      <trkpt lat="38.2993180" lon="-0.5804530">
        <ele>124.4</ele>
        <time>2019-12-20T08:39:47Z</time>
      </trkpt>
      <trkpt lat="38.2993510" lon="-0.5804950">
        <ele>125.0</ele>
        <time>2019-12-20T08:39:48Z</time>
      </trkpt>
      <trkpt lat="38.2993830" lon="-0.5805350">
        <ele>125.2</ele>
        <time>2019-12-20T08:39:49Z</time>
      </trkpt>
      <trkpt lat="38.2994150" lon="-0.5805730">
        <ele>125.6</ele>
        <time>2019-12-20T08:39:50Z</time>
      </trkpt>
      <trkpt lat="38.2994440" lon="-0.5806100">
        <ele>125.6</ele>
        <time>2019-12-20T08:39:51Z</time>
      </trkpt>
      <trkpt lat="38.2994710" lon="-0.5806440">
        <ele>126.2</ele>
        <time>2019-12-20T08:39:52Z</time>
      </trkpt>
      <trkpt lat="38.2995180" lon="-0.5807100">
        <ele>126.6</ele>
        <time>2019-12-20T08:39:54Z</time>
      </trkpt>
      <trkpt lat="38.2995390" lon="-0.5807450">
        <ele>126.8</ele>
        <time>2019-12-20T08:39:55Z</time>
      </trkpt>
      <trkpt lat="38.2995600" lon="-0.5807790">
        <ele>126.8</ele>
        <time>2019-12-20T08:39:56Z</time>
      </trkpt>
      <trkpt lat="38.2995820" lon="-0.5808120">
        <ele>127.0</ele>
        <time>2019-12-20T08:39:57Z</time>
      </trkpt>
      <trkpt lat="38.2996040" lon="-0.5808460">
        <ele>127.2</ele>
        <time>2019-12-20T08:39:58Z</time>
      </trkpt>
      <trkpt lat="38.2996240" lon="-0.5808800">
        <ele>127.6</ele>
        <time>2019-12-20T08:39:59Z</time>
      </trkpt>
      <trkpt lat="38.2996440" lon="-0.5809140">
        <ele>127.4</ele>
        <time>2019-12-20T08:40:00Z</time>
      </trkpt>
      <trkpt lat="38.2996630" lon="-0.5809490">
        <ele>127.8</ele>
        <time>2019-12-20T08:40:01Z</time>
      </trkpt>
      <trkpt lat="38.2996810" lon="-0.5809850">
        <ele>128.2</ele>
        <time>2019-12-20T08:40:02Z</time>
      </trkpt>
      <trkpt lat="38.2997000" lon="-0.5810210">
        <ele>128.2</ele>
        <time>2019-12-20T08:40:03Z</time>
      </trkpt>
      <trkpt lat="38.2997170" lon="-0.5810570">
        <ele>128.4</ele>
        <time>2019-12-20T08:40:04Z</time>
      </trkpt>
      <trkpt lat="38.2997360" lon="-0.5810930">
        <ele>128.8</ele>
        <time>2019-12-20T08:40:05Z</time>
      </trkpt>
      <trkpt lat="38.2997550" lon="-0.5811280">
        <ele>129.0</ele>
        <time>2019-12-20T08:40:06Z</time>
      </trkpt>
      <trkpt lat="38.2997730" lon="-0.5811620">
        <ele>129.2</ele>
        <time>2019-12-20T08:40:07Z</time>
      </trkpt>
      <trkpt lat="38.2997910" lon="-0.5811960">
        <ele>129.4</ele>
        <time>2019-12-20T08:40:08Z</time>
      </trkpt>
      <trkpt lat="38.2998070" lon="-0.5812320">
        <ele>129.6</ele>
        <time>2019-12-20T08:40:09Z</time>
      </trkpt>
      <trkpt lat="38.2998240" lon="-0.5812680">
        <ele>129.8</ele>
        <time>2019-12-20T08:40:10Z</time>
      </trkpt>
      <trkpt lat="38.2998410" lon="-0.5813040">
        <ele>130.0</ele>
        <time>2019-12-20T08:40:11Z</time>
      </trkpt>
      <trkpt lat="38.2998570" lon="-0.5813420">
        <ele>130.2</ele>
        <time>2019-12-20T08:40:12Z</time>
      </trkpt>
      <trkpt lat="38.2998720" lon="-0.5813810">
        <ele>130.4</ele>
        <time>2019-12-20T08:40:13Z</time>
      </trkpt>
      <trkpt lat="38.2998870" lon="-0.5814210">
        <ele>130.4</ele>
        <time>2019-12-20T08:40:14Z</time>
      </trkpt>
      <trkpt lat="38.2999020" lon="-0.5814600">
        <ele>130.4</ele>
        <time>2019-12-20T08:40:15Z</time>
      </trkpt>
      <trkpt lat="38.2999170" lon="-0.5814990">
        <ele>130.6</ele>
        <time>2019-12-20T08:40:16Z</time>
      </trkpt>
      <trkpt lat="38.2999330" lon="-0.5815390">
        <ele>130.8</ele>
        <time>2019-12-20T08:40:17Z</time>
      </trkpt>
      <trkpt lat="38.2999490" lon="-0.5815780">
        <ele>131.0</ele>
        <time>2019-12-20T08:40:18Z</time>
      </trkpt>
      <trkpt lat="38.2999640" lon="-0.5816170">
        <ele>131.2</ele>
        <time>2019-12-20T08:40:19Z</time>
      </trkpt>
      <trkpt lat="38.2999790" lon="-0.5816580">
        <ele>131.4</ele>
        <time>2019-12-20T08:40:20Z</time>
      </trkpt>
      <trkpt lat="38.2999920" lon="-0.5816990">
        <ele>131.4</ele>
        <time>2019-12-20T08:40:21Z</time>
      </trkpt>
      <trkpt lat="38.3000060" lon="-0.5817400">
        <ele>131.6</ele>
        <time>2019-12-20T08:40:22Z</time>
      </trkpt>
      <trkpt lat="38.3000190" lon="-0.5817820">
        <ele>131.8</ele>
        <time>2019-12-20T08:40:23Z</time>
      </trkpt>
      <trkpt lat="38.3000330" lon="-0.5818240">
        <ele>132.0</ele>
        <time>2019-12-20T08:40:24Z</time>
      </trkpt>
      <trkpt lat="38.3000460" lon="-0.5818660">
        <ele>132.0</ele>
        <time>2019-12-20T08:40:25Z</time>
      </trkpt>
      <trkpt lat="38.3000590" lon="-0.5819100">
        <ele>132.4</ele>
        <time>2019-12-20T08:40:26Z</time>
      </trkpt>
      <trkpt lat="38.3000710" lon="-0.5819530">
        <ele>132.6</ele>
        <time>2019-12-20T08:40:27Z</time>
      </trkpt>
      <trkpt lat="38.3000840" lon="-0.5819960">
        <ele>132.6</ele>
        <time>2019-12-20T08:40:28Z</time>
      </trkpt>
      <trkpt lat="38.3000970" lon="-0.5820400">
        <ele>132.8</ele>
        <time>2019-12-20T08:40:29Z</time>
      </trkpt>
      <trkpt lat="38.3001100" lon="-0.5820850">
        <ele>133.0</ele>
        <time>2019-12-20T08:40:30Z</time>
      </trkpt>
      <trkpt lat="38.3001230" lon="-0.5821310">
        <ele>133.2</ele>
        <time>2019-12-20T08:40:31Z</time>
      </trkpt>
      <trkpt lat="38.3001340" lon="-0.5821770">
        <ele>133.2</ele>
        <time>2019-12-20T08:40:32Z</time>
      </trkpt>
      <trkpt lat="38.3001440" lon="-0.5822250">
        <ele>133.4</ele>
        <time>2019-12-20T08:40:33Z</time>
      </trkpt>
      <trkpt lat="38.3001560" lon="-0.5822740">
        <ele>133.6</ele>
        <time>2019-12-20T08:40:34Z</time>
      </trkpt>
      <trkpt lat="38.3001680" lon="-0.5823210">
        <ele>133.8</ele>
        <time>2019-12-20T08:40:35Z</time>
      </trkpt>
      <trkpt lat="38.3001790" lon="-0.5823680">
        <ele>133.8</ele>
        <time>2019-12-20T08:40:36Z</time>
      </trkpt>
      <trkpt lat="38.3001890" lon="-0.5824180">
        <ele>134.0</ele>
        <time>2019-12-20T08:40:37Z</time>
      </trkpt>
      <trkpt lat="38.3002000" lon="-0.5824670">
        <ele>134.2</ele>
        <time>2019-12-20T08:40:38Z</time>
      </trkpt>
      <trkpt lat="38.3002130" lon="-0.5825200">
        <ele>134.2</ele>
        <time>2019-12-20T08:40:39Z</time>
      </trkpt>
      <trkpt lat="38.3002240" lon="-0.5825700">
        <ele>134.2</ele>
        <time>2019-12-20T08:40:40Z</time>
      </trkpt>
      <trkpt lat="38.3002350" lon="-0.5826200">
        <ele>134.4</ele>
        <time>2019-12-20T08:40:41Z</time>
      </trkpt>
      <trkpt lat="38.3002470" lon="-0.5826560">
        <ele>134.8</ele>
        <time>2019-12-20T08:40:42Z</time>
      </trkpt>
      <trkpt lat="38.3002580" lon="-0.5827000">
        <ele>134.8</ele>
        <time>2019-12-20T08:40:43Z</time>
      </trkpt>
      <trkpt lat="38.3002690" lon="-0.5827510">
        <ele>134.8</ele>
        <time>2019-12-20T08:40:44Z</time>
      </trkpt>
      <trkpt lat="38.3002820" lon="-0.5828070">
        <ele>134.8</ele>
        <time>2019-12-20T08:40:45Z</time>
      </trkpt>
      <trkpt lat="38.3002950" lon="-0.5828630">
        <ele>135.0</ele>
        <time>2019-12-20T08:40:46Z</time>
      </trkpt>
      <trkpt lat="38.3003080" lon="-0.5829190">
        <ele>135.0</ele>
        <time>2019-12-20T08:40:47Z</time>
      </trkpt>
      <trkpt lat="38.3003190" lon="-0.5829740">
        <ele>135.2</ele>
        <time>2019-12-20T08:40:48Z</time>
      </trkpt>
      <trkpt lat="38.3003300" lon="-0.5830300">
        <ele>135.2</ele>
        <time>2019-12-20T08:40:49Z</time>
      </trkpt>
      <trkpt lat="38.3003410" lon="-0.5830870">
        <ele>135.2</ele>
        <time>2019-12-20T08:40:50Z</time>
      </trkpt>
      <trkpt lat="38.3003530" lon="-0.5831450">
        <ele>135.2</ele>
        <time>2019-12-20T08:40:51Z</time>
      </trkpt>
      <trkpt lat="38.3003660" lon="-0.5832030">
        <ele>135.4</ele>
        <time>2019-12-20T08:40:52Z</time>
      </trkpt>
      <trkpt lat="38.3003800" lon="-0.5832610">
        <ele>135.2</ele>
        <time>2019-12-20T08:40:53Z</time>
      </trkpt>
      <trkpt lat="38.3003930" lon="-0.5833200">
        <ele>135.4</ele>
        <time>2019-12-20T08:40:54Z</time>
      </trkpt>
      <trkpt lat="38.3004060" lon="-0.5833790">
        <ele>135.4</ele>
        <time>2019-12-20T08:40:55Z</time>
      </trkpt>
      <trkpt lat="38.3004190" lon="-0.5834390">
        <ele>135.4</ele>
        <time>2019-12-20T08:40:56Z</time>
      </trkpt>
      <trkpt lat="38.3004300" lon="-0.5834970">
        <ele>135.8</ele>
        <time>2019-12-20T08:40:57Z</time>
      </trkpt>
      <trkpt lat="38.3004430" lon="-0.5835550">
        <ele>135.8</ele>
        <time>2019-12-20T08:40:58Z</time>
      </trkpt>
      <trkpt lat="38.3004550" lon="-0.5836130">
        <ele>135.8</ele>
        <time>2019-12-20T08:40:59Z</time>
      </trkpt>
      <trkpt lat="38.3004680" lon="-0.5836720">
        <ele>135.8</ele>
        <time>2019-12-20T08:41:00Z</time>
      </trkpt>
      <trkpt lat="38.3004820" lon="-0.5837320">
        <ele>135.8</ele>
        <time>2019-12-20T08:41:01Z</time>
      </trkpt>
      <trkpt lat="38.3004970" lon="-0.5837930">
        <ele>135.8</ele>
        <time>2019-12-20T08:41:02Z</time>
      </trkpt>
      <trkpt lat="38.3005120" lon="-0.5838500">
        <ele>135.8</ele>
        <time>2019-12-20T08:41:03Z</time>
      </trkpt>
      <trkpt lat="38.3005280" lon="-0.5839110">
        <ele>135.8</ele>
        <time>2019-12-20T08:41:04Z</time>
      </trkpt>
      <trkpt lat="38.3005520" lon="-0.5839780">
        <ele>135.8</ele>
        <time>2019-12-20T08:41:05Z</time>
      </trkpt>
      <trkpt lat="38.3005690" lon="-0.5840430">
        <ele>135.8</ele>
        <time>2019-12-20T08:41:06Z</time>
      </trkpt>
      <trkpt lat="38.3005840" lon="-0.5841060">
        <ele>135.8</ele>
        <time>2019-12-20T08:41:07Z</time>
      </trkpt>
      <trkpt lat="38.3006000" lon="-0.5841710">
        <ele>135.8</ele>
        <time>2019-12-20T08:41:08Z</time>
      </trkpt>
      <trkpt lat="38.3006160" lon="-0.5842330">
        <ele>135.8</ele>
        <time>2019-12-20T08:41:09Z</time>
      </trkpt>
      <trkpt lat="38.3006340" lon="-0.5842980">
        <ele>136.0</ele>
        <time>2019-12-20T08:41:10Z</time>
      </trkpt>
      <trkpt lat="38.3006500" lon="-0.5843610">
        <ele>136.2</ele>
        <time>2019-12-20T08:41:11Z</time>
      </trkpt>
      <trkpt lat="38.3006630" lon="-0.5844250">
        <ele>136.4</ele>
        <time>2019-12-20T08:41:12Z</time>
      </trkpt>
      <trkpt lat="38.3006760" lon="-0.5844910">
        <ele>136.6</ele>
        <time>2019-12-20T08:41:13Z</time>
      </trkpt>
      <trkpt lat="38.3006900" lon="-0.5845580">
        <ele>136.2</ele>
        <time>2019-12-20T08:41:14Z</time>
      </trkpt>
      <trkpt lat="38.3007050" lon="-0.5846240">
        <ele>136.2</ele>
        <time>2019-12-20T08:41:15Z</time>
      </trkpt>
      <trkpt lat="38.3007200" lon="-0.5846900">
        <ele>136.2</ele>
        <time>2019-12-20T08:41:16Z</time>
      </trkpt>
      <trkpt lat="38.3007350" lon="-0.5847580">
        <ele>136.2</ele>
        <time>2019-12-20T08:41:17Z</time>
      </trkpt>
      <trkpt lat="38.3007470" lon="-0.5848080">
        <ele>136.4</ele>
        <time>2019-12-20T08:41:18Z</time>
      </trkpt>
      <trkpt lat="38.3007580" lon="-0.5848590">
        <ele>136.4</ele>
        <time>2019-12-20T08:41:19Z</time>
      </trkpt>
      <trkpt lat="38.3007800" lon="-0.5849610">
        <ele>136.4</ele>
        <time>2019-12-20T08:41:20Z</time>
      </trkpt>
      <trkpt lat="38.3007950" lon="-0.5850270">
        <ele>136.4</ele>
        <time>2019-12-20T08:41:21Z</time>
      </trkpt>
      <trkpt lat="38.3008100" lon="-0.5850950">
        <ele>136.6</ele>
        <time>2019-12-20T08:41:22Z</time>
      </trkpt>
      <trkpt lat="38.3008250" lon="-0.5851620">
        <ele>136.4</ele>
        <time>2019-12-20T08:41:23Z</time>
      </trkpt>
      <trkpt lat="38.3008390" lon="-0.5852290">
        <ele>136.6</ele>
        <time>2019-12-20T08:41:24Z</time>
      </trkpt>
      <trkpt lat="38.3008550" lon="-0.5852950">
        <ele>136.6</ele>
        <time>2019-12-20T08:41:25Z</time>
      </trkpt>
      <trkpt lat="38.3008700" lon="-0.5853620">
        <ele>136.4</ele>
        <time>2019-12-20T08:41:26Z</time>
      </trkpt>
      <trkpt lat="38.3008850" lon="-0.5854280">
        <ele>136.6</ele>
        <time>2019-12-20T08:41:27Z</time>
      </trkpt>
      <trkpt lat="38.3009000" lon="-0.5854940">
        <ele>136.8</ele>
        <time>2019-12-20T08:41:28Z</time>
      </trkpt>
      <trkpt lat="38.3009150" lon="-0.5855600">
        <ele>137.0</ele>
        <time>2019-12-20T08:41:29Z</time>
      </trkpt>
      <trkpt lat="38.3009300" lon="-0.5856260">
        <ele>137.0</ele>
        <time>2019-12-20T08:41:30Z</time>
      </trkpt>
      <trkpt lat="38.3009460" lon="-0.5856930">
        <ele>137.0</ele>
        <time>2019-12-20T08:41:31Z</time>
      </trkpt>
      <trkpt lat="38.3009620" lon="-0.5857590">
        <ele>136.8</ele>
        <time>2019-12-20T08:41:32Z</time>
      </trkpt>
      <trkpt lat="38.3009790" lon="-0.5858250">
        <ele>136.6</ele>
        <time>2019-12-20T08:41:33Z</time>
      </trkpt>
      <trkpt lat="38.3009950" lon="-0.5858890">
        <ele>136.8</ele>
        <time>2019-12-20T08:41:34Z</time>
      </trkpt>
      <trkpt lat="38.3010070" lon="-0.5859550">
        <ele>136.8</ele>
        <time>2019-12-20T08:41:35Z</time>
      </trkpt>
      <trkpt lat="38.3010180" lon="-0.5860210">
        <ele>136.8</ele>
        <time>2019-12-20T08:41:36Z</time>
      </trkpt>
      <trkpt lat="38.3010300" lon="-0.5860870">
        <ele>136.8</ele>
        <time>2019-12-20T08:41:37Z</time>
      </trkpt>
      <trkpt lat="38.3010430" lon="-0.5861540">
        <ele>137.0</ele>
        <time>2019-12-20T08:41:38Z</time>
      </trkpt>
      <trkpt lat="38.3010560" lon="-0.5862200">
        <ele>137.0</ele>
        <time>2019-12-20T08:41:39Z</time>
      </trkpt>
      <trkpt lat="38.3010710" lon="-0.5862870">
        <ele>137.0</ele>
        <time>2019-12-20T08:41:40Z</time>
      </trkpt>
      <trkpt lat="38.3010850" lon="-0.5863540">
        <ele>137.0</ele>
        <time>2019-12-20T08:41:41Z</time>
      </trkpt>
      <trkpt lat="38.3011000" lon="-0.5864230">
        <ele>137.2</ele>
        <time>2019-12-20T08:41:42Z</time>
      </trkpt>
      <trkpt lat="38.3011140" lon="-0.5864920">
        <ele>137.2</ele>
        <time>2019-12-20T08:41:43Z</time>
      </trkpt>
      <trkpt lat="38.3011280" lon="-0.5865600">
        <ele>137.2</ele>
        <time>2019-12-20T08:41:44Z</time>
      </trkpt>
      <trkpt lat="38.3011410" lon="-0.5866280">
        <ele>137.2</ele>
        <time>2019-12-20T08:41:45Z</time>
      </trkpt>
      <trkpt lat="38.3011560" lon="-0.5866950">
        <ele>137.4</ele>
        <time>2019-12-20T08:41:46Z</time>
      </trkpt>
      <trkpt lat="38.3011700" lon="-0.5867620">
        <ele>137.2</ele>
        <time>2019-12-20T08:41:47Z</time>
      </trkpt>
      <trkpt lat="38.3011840" lon="-0.5868280">
        <ele>137.2</ele>
        <time>2019-12-20T08:41:48Z</time>
      </trkpt>
      <trkpt lat="38.3011990" lon="-0.5868940">
        <ele>137.2</ele>
        <time>2019-12-20T08:41:49Z</time>
      </trkpt>
      <trkpt lat="38.3012130" lon="-0.5869600">
        <ele>137.2</ele>
        <time>2019-12-20T08:41:50Z</time>
      </trkpt>
      <trkpt lat="38.3012270" lon="-0.5870250">
        <ele>137.4</ele>
        <time>2019-12-20T08:41:51Z</time>
      </trkpt>
      <trkpt lat="38.3012420" lon="-0.5870910">
        <ele>137.6</ele>
        <time>2019-12-20T08:41:52Z</time>
      </trkpt>
      <trkpt lat="38.3012570" lon="-0.5871560">
        <ele>137.4</ele>
        <time>2019-12-20T08:41:53Z</time>
      </trkpt>
      <trkpt lat="38.3012730" lon="-0.5872210">
        <ele>137.4</ele>
        <time>2019-12-20T08:41:54Z</time>
      </trkpt>
      <trkpt lat="38.3012880" lon="-0.5872860">
        <ele>137.4</ele>
        <time>2019-12-20T08:41:55Z</time>
      </trkpt>
      <trkpt lat="38.3013030" lon="-0.5873500">
        <ele>137.4</ele>
        <time>2019-12-20T08:41:56Z</time>
      </trkpt>
      <trkpt lat="38.3013180" lon="-0.5874130">
        <ele>137.6</ele>
        <time>2019-12-20T08:41:57Z</time>
      </trkpt>
      <trkpt lat="38.3013320" lon="-0.5874770">
        <ele>137.4</ele>
        <time>2019-12-20T08:41:58Z</time>
      </trkpt>
      <trkpt lat="38.3013460" lon="-0.5875410">
        <ele>137.6</ele>
        <time>2019-12-20T08:41:59Z</time>
      </trkpt>
      <trkpt lat="38.3013590" lon="-0.5876040">
        <ele>137.6</ele>
        <time>2019-12-20T08:42:00Z</time>
      </trkpt>
      <trkpt lat="38.3013730" lon="-0.5876680">
        <ele>137.6</ele>
        <time>2019-12-20T08:42:01Z</time>
      </trkpt>
      <trkpt lat="38.3013880" lon="-0.5877300">
        <ele>137.8</ele>
        <time>2019-12-20T08:42:02Z</time>
      </trkpt>
      <trkpt lat="38.3014030" lon="-0.5877940">
        <ele>138.0</ele>
        <time>2019-12-20T08:42:03Z</time>
      </trkpt>
      <trkpt lat="38.3014160" lon="-0.5878590">
        <ele>138.0</ele>
        <time>2019-12-20T08:42:04Z</time>
      </trkpt>
      <trkpt lat="38.3014300" lon="-0.5879250">
        <ele>138.0</ele>
        <time>2019-12-20T08:42:05Z</time>
      </trkpt>
      <trkpt lat="38.3014440" lon="-0.5879910">
        <ele>138.0</ele>
        <time>2019-12-20T08:42:06Z</time>
      </trkpt>
      <trkpt lat="38.3014570" lon="-0.5880560">
        <ele>138.0</ele>
        <time>2019-12-20T08:42:07Z</time>
      </trkpt>
      <trkpt lat="38.3014710" lon="-0.5881210">
        <ele>138.0</ele>
        <time>2019-12-20T08:42:08Z</time>
      </trkpt>
      <trkpt lat="38.3014850" lon="-0.5881860">
        <ele>138.0</ele>
        <time>2019-12-20T08:42:09Z</time>
      </trkpt>
      <trkpt lat="38.3014990" lon="-0.5882510">
        <ele>138.0</ele>
        <time>2019-12-20T08:42:10Z</time>
      </trkpt>
      <trkpt lat="38.3015140" lon="-0.5883150">
        <ele>138.0</ele>
        <time>2019-12-20T08:42:11Z</time>
      </trkpt>
      <trkpt lat="38.3015280" lon="-0.5883790">
        <ele>138.0</ele>
        <time>2019-12-20T08:42:12Z</time>
      </trkpt>
      <trkpt lat="38.3015420" lon="-0.5884440">
        <ele>138.0</ele>
        <time>2019-12-20T08:42:13Z</time>
      </trkpt>
      <trkpt lat="38.3015550" lon="-0.5885090">
        <ele>138.4</ele>
        <time>2019-12-20T08:42:14Z</time>
      </trkpt>
      <trkpt lat="38.3015700" lon="-0.5885730">
        <ele>138.2</ele>
        <time>2019-12-20T08:42:15Z</time>
      </trkpt>
      <trkpt lat="38.3015850" lon="-0.5886370">
        <ele>138.0</ele>
        <time>2019-12-20T08:42:16Z</time>
      </trkpt>
      <trkpt lat="38.3016000" lon="-0.5887010">
        <ele>138.2</ele>
        <time>2019-12-20T08:42:17Z</time>
      </trkpt>
      <trkpt lat="38.3016130" lon="-0.5887660">
        <ele>138.2</ele>
        <time>2019-12-20T08:42:18Z</time>
      </trkpt>
      <trkpt lat="38.3016270" lon="-0.5888300">
        <ele>138.4</ele>
        <time>2019-12-20T08:42:19Z</time>
      </trkpt>
      <trkpt lat="38.3016420" lon="-0.5888950">
        <ele>138.6</ele>
        <time>2019-12-20T08:42:20Z</time>
      </trkpt>
      <trkpt lat="38.3016560" lon="-0.5889600">
        <ele>138.6</ele>
        <time>2019-12-20T08:42:21Z</time>
      </trkpt>
      <trkpt lat="38.3016700" lon="-0.5890240">
        <ele>138.6</ele>
        <time>2019-12-20T08:42:22Z</time>
      </trkpt>
      <trkpt lat="38.3016840" lon="-0.5890890">
        <ele>138.6</ele>
        <time>2019-12-20T08:42:23Z</time>
      </trkpt>
      <trkpt lat="38.3016990" lon="-0.5891540">
        <ele>138.6</ele>
        <time>2019-12-20T08:42:24Z</time>
      </trkpt>
      <trkpt lat="38.3017130" lon="-0.5892200">
        <ele>138.8</ele>
        <time>2019-12-20T08:42:25Z</time>
      </trkpt>
      <trkpt lat="38.3017280" lon="-0.5892860">
        <ele>138.8</ele>
        <time>2019-12-20T08:42:26Z</time>
      </trkpt>
      <trkpt lat="38.3017420" lon="-0.5893520">
        <ele>139.0</ele>
        <time>2019-12-20T08:42:27Z</time>
      </trkpt>
      <trkpt lat="38.3017570" lon="-0.5894190">
        <ele>138.8</ele>
        <time>2019-12-20T08:42:28Z</time>
      </trkpt>
      <trkpt lat="38.3017730" lon="-0.5894860">
        <ele>138.8</ele>
        <time>2019-12-20T08:42:29Z</time>
      </trkpt>
      <trkpt lat="38.3017880" lon="-0.5895530">
        <ele>139.0</ele>
        <time>2019-12-20T08:42:30Z</time>
      </trkpt>
      <trkpt lat="38.3018030" lon="-0.5896200">
        <ele>139.0</ele>
        <time>2019-12-20T08:42:31Z</time>
      </trkpt>
      <trkpt lat="38.3018190" lon="-0.5896880">
        <ele>139.0</ele>
        <time>2019-12-20T08:42:32Z</time>
      </trkpt>
      <trkpt lat="38.3018360" lon="-0.5897560">
        <ele>139.2</ele>
        <time>2019-12-20T08:42:33Z</time>
      </trkpt>
      <trkpt lat="38.3018510" lon="-0.5898230">
        <ele>139.0</ele>
        <time>2019-12-20T08:42:34Z</time>
      </trkpt>
      <trkpt lat="38.3018660" lon="-0.5898910">
        <ele>139.0</ele>
        <time>2019-12-20T08:42:35Z</time>
      </trkpt>
      <trkpt lat="38.3018810" lon="-0.5899580">
        <ele>139.2</ele>
        <time>2019-12-20T08:42:36Z</time>
      </trkpt>
      <trkpt lat="38.3018940" lon="-0.5900270">
        <ele>139.0</ele>
        <time>2019-12-20T08:42:37Z</time>
      </trkpt>
      <trkpt lat="38.3019070" lon="-0.5900960">
        <ele>139.4</ele>
        <time>2019-12-20T08:42:38Z</time>
      </trkpt>
      <trkpt lat="38.3019200" lon="-0.5901650">
        <ele>139.2</ele>
        <time>2019-12-20T08:42:39Z</time>
      </trkpt>
      <trkpt lat="38.3019310" lon="-0.5902360">
        <ele>139.2</ele>
        <time>2019-12-20T08:42:40Z</time>
      </trkpt>
      <trkpt lat="38.3019420" lon="-0.5903060">
        <ele>139.4</ele>
        <time>2019-12-20T08:42:41Z</time>
      </trkpt>
      <trkpt lat="38.3019530" lon="-0.5903780">
        <ele>139.6</ele>
        <time>2019-12-20T08:42:42Z</time>
      </trkpt>
      <trkpt lat="38.3019670" lon="-0.5904500">
        <ele>139.6</ele>
        <time>2019-12-20T08:42:43Z</time>
      </trkpt>
      <trkpt lat="38.3019800" lon="-0.5905220">
        <ele>139.2</ele>
        <time>2019-12-20T08:42:44Z</time>
      </trkpt>
      <trkpt lat="38.3019930" lon="-0.5905930">
        <ele>139.0</ele>
        <time>2019-12-20T08:42:45Z</time>
      </trkpt>
      <trkpt lat="38.3020070" lon="-0.5906640">
        <ele>139.0</ele>
        <time>2019-12-20T08:42:46Z</time>
      </trkpt>
      <trkpt lat="38.3020240" lon="-0.5907350">
        <ele>139.0</ele>
        <time>2019-12-20T08:42:47Z</time>
      </trkpt>
      <trkpt lat="38.3020400" lon="-0.5908050">
        <ele>139.0</ele>
        <time>2019-12-20T08:42:48Z</time>
      </trkpt>
      <trkpt lat="38.3020570" lon="-0.5908760">
        <ele>138.8</ele>
        <time>2019-12-20T08:42:49Z</time>
      </trkpt>
      <trkpt lat="38.3020740" lon="-0.5909470">
        <ele>138.8</ele>
        <time>2019-12-20T08:42:50Z</time>
      </trkpt>
      <trkpt lat="38.3020920" lon="-0.5910150">
        <ele>138.6</ele>
        <time>2019-12-20T08:42:51Z</time>
      </trkpt>
      <trkpt lat="38.3021110" lon="-0.5910860">
        <ele>138.8</ele>
        <time>2019-12-20T08:42:52Z</time>
      </trkpt>
      <trkpt lat="38.3021290" lon="-0.5911550">
        <ele>138.8</ele>
        <time>2019-12-20T08:42:53Z</time>
      </trkpt>
      <trkpt lat="38.3021480" lon="-0.5912240">
        <ele>138.6</ele>
        <time>2019-12-20T08:42:54Z</time>
      </trkpt>
      <trkpt lat="38.3021660" lon="-0.5912960">
        <ele>138.6</ele>
        <time>2019-12-20T08:42:55Z</time>
      </trkpt>
      <trkpt lat="38.3021840" lon="-0.5913670">
        <ele>138.4</ele>
        <time>2019-12-20T08:42:56Z</time>
      </trkpt>
      <trkpt lat="38.3022030" lon="-0.5914380">
        <ele>138.6</ele>
        <time>2019-12-20T08:42:57Z</time>
      </trkpt>
      <trkpt lat="38.3022220" lon="-0.5915090">
        <ele>138.6</ele>
        <time>2019-12-20T08:42:58Z</time>
      </trkpt>
      <trkpt lat="38.3022410" lon="-0.5915820">
        <ele>138.6</ele>
        <time>2019-12-20T08:42:59Z</time>
      </trkpt>
      <trkpt lat="38.3022610" lon="-0.5916540">
        <ele>138.6</ele>
        <time>2019-12-20T08:43:00Z</time>
      </trkpt>
      <trkpt lat="38.3022810" lon="-0.5917260">
        <ele>138.4</ele>
        <time>2019-12-20T08:43:01Z</time>
      </trkpt>
      <trkpt lat="38.3023000" lon="-0.5917990">
        <ele>138.6</ele>
        <time>2019-12-20T08:43:02Z</time>
      </trkpt>
      <trkpt lat="38.3023200" lon="-0.5918720">
        <ele>138.4</ele>
        <time>2019-12-20T08:43:03Z</time>
      </trkpt>
      <trkpt lat="38.3023410" lon="-0.5919420">
        <ele>138.4</ele>
        <time>2019-12-20T08:43:04Z</time>
      </trkpt>
      <trkpt lat="38.3023610" lon="-0.5920130">
        <ele>138.4</ele>
        <time>2019-12-20T08:43:05Z</time>
      </trkpt>
      <trkpt lat="38.3023840" lon="-0.5920860">
        <ele>138.4</ele>
        <time>2019-12-20T08:43:06Z</time>
      </trkpt>
      <trkpt lat="38.3024060" lon="-0.5921580">
        <ele>138.2</ele>
        <time>2019-12-20T08:43:07Z</time>
      </trkpt>
      <trkpt lat="38.3024280" lon="-0.5922300">
        <ele>138.2</ele>
        <time>2019-12-20T08:43:08Z</time>
      </trkpt>
      <trkpt lat="38.3024490" lon="-0.5923030">
        <ele>138.2</ele>
        <time>2019-12-20T08:43:09Z</time>
      </trkpt>
      <trkpt lat="38.3024710" lon="-0.5923750">
        <ele>138.0</ele>
        <time>2019-12-20T08:43:10Z</time>
      </trkpt>
      <trkpt lat="38.3024940" lon="-0.5924470">
        <ele>138.2</ele>
        <time>2019-12-20T08:43:11Z</time>
      </trkpt>
      <trkpt lat="38.3025170" lon="-0.5925200">
        <ele>138.0</ele>
        <time>2019-12-20T08:43:12Z</time>
      </trkpt>
      <trkpt lat="38.3025380" lon="-0.5925920">
        <ele>138.0</ele>
        <time>2019-12-20T08:43:13Z</time>
      </trkpt>
      <trkpt lat="38.3025600" lon="-0.5926630">
        <ele>138.0</ele>
        <time>2019-12-20T08:43:14Z</time>
      </trkpt>
      <trkpt lat="38.3025830" lon="-0.5927340">
        <ele>138.0</ele>
        <time>2019-12-20T08:43:15Z</time>
      </trkpt>
      <trkpt lat="38.3026060" lon="-0.5928060">
        <ele>138.0</ele>
        <time>2019-12-20T08:43:16Z</time>
      </trkpt>
      <trkpt lat="38.3026300" lon="-0.5928770">
        <ele>138.0</ele>
        <time>2019-12-20T08:43:17Z</time>
      </trkpt>
      <trkpt lat="38.3026540" lon="-0.5929460">
        <ele>138.0</ele>
        <time>2019-12-20T08:43:18Z</time>
      </trkpt>
      <trkpt lat="38.3026790" lon="-0.5930170">
        <ele>137.8</ele>
        <time>2019-12-20T08:43:19Z</time>
      </trkpt>
      <trkpt lat="38.3027040" lon="-0.5930870">
        <ele>137.8</ele>
        <time>2019-12-20T08:43:20Z</time>
      </trkpt>
      <trkpt lat="38.3027290" lon="-0.5931580">
        <ele>138.0</ele>
        <time>2019-12-20T08:43:21Z</time>
      </trkpt>
      <trkpt lat="38.3027550" lon="-0.5932290">
        <ele>137.8</ele>
        <time>2019-12-20T08:43:22Z</time>
      </trkpt>
      <trkpt lat="38.3027800" lon="-0.5933000">
        <ele>137.6</ele>
        <time>2019-12-20T08:43:23Z</time>
      </trkpt>
      <trkpt lat="38.3028050" lon="-0.5933700">
        <ele>137.6</ele>
        <time>2019-12-20T08:43:24Z</time>
      </trkpt>
      <trkpt lat="38.3028310" lon="-0.5934400">
        <ele>137.6</ele>
        <time>2019-12-20T08:43:25Z</time>
      </trkpt>
      <trkpt lat="38.3028560" lon="-0.5935110">
        <ele>137.6</ele>
        <time>2019-12-20T08:43:26Z</time>
      </trkpt>
      <trkpt lat="38.3028800" lon="-0.5935830">
        <ele>137.4</ele>
        <time>2019-12-20T08:43:27Z</time>
      </trkpt>
      <trkpt lat="38.3029030" lon="-0.5936550">
        <ele>137.6</ele>
        <time>2019-12-20T08:43:28Z</time>
      </trkpt>
      <trkpt lat="38.3029260" lon="-0.5937260">
        <ele>137.6</ele>
        <time>2019-12-20T08:43:29Z</time>
      </trkpt>
      <trkpt lat="38.3029500" lon="-0.5937970">
        <ele>137.6</ele>
        <time>2019-12-20T08:43:30Z</time>
      </trkpt>
      <trkpt lat="38.3029720" lon="-0.5938680">
        <ele>137.6</ele>
        <time>2019-12-20T08:43:31Z</time>
      </trkpt>
      <trkpt lat="38.3029940" lon="-0.5939410">
        <ele>137.6</ele>
        <time>2019-12-20T08:43:32Z</time>
      </trkpt>
      <trkpt lat="38.3030160" lon="-0.5940150">
        <ele>137.6</ele>
        <time>2019-12-20T08:43:33Z</time>
      </trkpt>
      <trkpt lat="38.3030370" lon="-0.5940880">
        <ele>137.6</ele>
        <time>2019-12-20T08:43:34Z</time>
      </trkpt>
      <trkpt lat="38.3030580" lon="-0.5941610">
        <ele>137.8</ele>
        <time>2019-12-20T08:43:35Z</time>
      </trkpt>
      <trkpt lat="38.3030790" lon="-0.5942340">
        <ele>137.8</ele>
        <time>2019-12-20T08:43:36Z</time>
      </trkpt>
      <trkpt lat="38.3031010" lon="-0.5943060">
        <ele>137.8</ele>
        <time>2019-12-20T08:43:37Z</time>
      </trkpt>
      <trkpt lat="38.3031200" lon="-0.5943770">
        <ele>138.0</ele>
        <time>2019-12-20T08:43:38Z</time>
      </trkpt>
      <trkpt lat="38.3031390" lon="-0.5944460">
        <ele>138.2</ele>
        <time>2019-12-20T08:43:39Z</time>
      </trkpt>
      <trkpt lat="38.3031570" lon="-0.5945160">
        <ele>138.2</ele>
        <time>2019-12-20T08:43:40Z</time>
      </trkpt>
      <trkpt lat="38.3031750" lon="-0.5945860">
        <ele>138.2</ele>
        <time>2019-12-20T08:43:41Z</time>
      </trkpt>
      <trkpt lat="38.3031910" lon="-0.5946550">
        <ele>138.6</ele>
        <time>2019-12-20T08:43:42Z</time>
      </trkpt>
      <trkpt lat="38.3032060" lon="-0.5947250">
        <ele>138.6</ele>
        <time>2019-12-20T08:43:43Z</time>
      </trkpt>
      <trkpt lat="38.3032200" lon="-0.5947940">
        <ele>138.8</ele>
        <time>2019-12-20T08:43:44Z</time>
      </trkpt>
      <trkpt lat="38.3032340" lon="-0.5948640">
        <ele>138.8</ele>
        <time>2019-12-20T08:43:45Z</time>
      </trkpt>
      <trkpt lat="38.3032500" lon="-0.5949350">
        <ele>138.8</ele>
        <time>2019-12-20T08:43:46Z</time>
      </trkpt>
      <trkpt lat="38.3032630" lon="-0.5950040">
        <ele>138.8</ele>
        <time>2019-12-20T08:43:47Z</time>
      </trkpt>
      <trkpt lat="38.3032770" lon="-0.5950740">
        <ele>138.8</ele>
        <time>2019-12-20T08:43:48Z</time>
      </trkpt>
      <trkpt lat="38.3032910" lon="-0.5951420">
        <ele>139.0</ele>
        <time>2019-12-20T08:43:49Z</time>
      </trkpt>
      <trkpt lat="38.3033030" lon="-0.5952060">
        <ele>139.2</ele>
        <time>2019-12-20T08:43:50Z</time>
      </trkpt>
      <trkpt lat="38.3033160" lon="-0.5952700">
        <ele>139.4</ele>
        <time>2019-12-20T08:43:51Z</time>
      </trkpt>
      <trkpt lat="38.3033280" lon="-0.5953320">
        <ele>139.6</ele>
        <time>2019-12-20T08:43:52Z</time>
      </trkpt>
      <trkpt lat="38.3033380" lon="-0.5953910">
        <ele>139.8</ele>
        <time>2019-12-20T08:43:53Z</time>
      </trkpt>
      <trkpt lat="38.3033480" lon="-0.5954500">
        <ele>139.8</ele>
        <time>2019-12-20T08:43:54Z</time>
      </trkpt>
      <trkpt lat="38.3033570" lon="-0.5955090">
        <ele>139.8</ele>
        <time>2019-12-20T08:43:55Z</time>
      </trkpt>
      <trkpt lat="38.3033650" lon="-0.5955680">
        <ele>140.0</ele>
        <time>2019-12-20T08:43:56Z</time>
      </trkpt>
      <trkpt lat="38.3033730" lon="-0.5956280">
        <ele>140.2</ele>
        <time>2019-12-20T08:43:57Z</time>
      </trkpt>
      <trkpt lat="38.3033820" lon="-0.5956870">
        <ele>140.4</ele>
        <time>2019-12-20T08:43:58Z</time>
      </trkpt>
      <trkpt lat="38.3033910" lon="-0.5957470">
        <ele>140.6</ele>
        <time>2019-12-20T08:43:59Z</time>
      </trkpt>
      <trkpt lat="38.3034000" lon="-0.5958050">
        <ele>140.8</ele>
        <time>2019-12-20T08:44:00Z</time>
      </trkpt>
      <trkpt lat="38.3034080" lon="-0.5958630">
        <ele>140.8</ele>
        <time>2019-12-20T08:44:01Z</time>
      </trkpt>
      <trkpt lat="38.3034160" lon="-0.5959210">
        <ele>141.0</ele>
        <time>2019-12-20T08:44:02Z</time>
      </trkpt>
      <trkpt lat="38.3034230" lon="-0.5959790">
        <ele>141.2</ele>
        <time>2019-12-20T08:44:03Z</time>
      </trkpt>
      <trkpt lat="38.3034300" lon="-0.5960370">
        <ele>141.4</ele>
        <time>2019-12-20T08:44:04Z</time>
      </trkpt>
      <trkpt lat="38.3034360" lon="-0.5960960">
        <ele>141.2</ele>
        <time>2019-12-20T08:44:05Z</time>
      </trkpt>
      <trkpt lat="38.3034420" lon="-0.5961560">
        <ele>141.4</ele>
        <time>2019-12-20T08:44:06Z</time>
      </trkpt>
      <trkpt lat="38.3034490" lon="-0.5962140">
        <ele>141.6</ele>
        <time>2019-12-20T08:44:07Z</time>
      </trkpt>
      <trkpt lat="38.3034550" lon="-0.5962730">
        <ele>141.8</ele>
        <time>2019-12-20T08:44:08Z</time>
      </trkpt>
      <trkpt lat="38.3034620" lon="-0.5963330">
        <ele>142.0</ele>
        <time>2019-12-20T08:44:09Z</time>
      </trkpt>
      <trkpt lat="38.3034700" lon="-0.5963920">
        <ele>142.2</ele>
        <time>2019-12-20T08:44:10Z</time>
      </trkpt>
      <trkpt lat="38.3034770" lon="-0.5964510">
        <ele>142.4</ele>
        <time>2019-12-20T08:44:11Z</time>
      </trkpt>
      <trkpt lat="38.3034860" lon="-0.5965100">
        <ele>142.6</ele>
        <time>2019-12-20T08:44:12Z</time>
      </trkpt>
      <trkpt lat="38.3034930" lon="-0.5965700">
        <ele>142.8</ele>
        <time>2019-12-20T08:44:13Z</time>
      </trkpt>
      <trkpt lat="38.3034970" lon="-0.5966290">
        <ele>143.0</ele>
        <time>2019-12-20T08:44:14Z</time>
      </trkpt>
      <trkpt lat="38.3035010" lon="-0.5966890">
        <ele>143.0</ele>
        <time>2019-12-20T08:44:15Z</time>
      </trkpt>
      <trkpt lat="38.3035060" lon="-0.5967490">
        <ele>143.2</ele>
        <time>2019-12-20T08:44:16Z</time>
      </trkpt>
      <trkpt lat="38.3035110" lon="-0.5968090">
        <ele>143.4</ele>
        <time>2019-12-20T08:44:17Z</time>
      </trkpt>
      <trkpt lat="38.3035160" lon="-0.5968690">
        <ele>143.6</ele>
        <time>2019-12-20T08:44:18Z</time>
      </trkpt>
      <trkpt lat="38.3035200" lon="-0.5969260">
        <ele>143.8</ele>
        <time>2019-12-20T08:44:19Z</time>
      </trkpt>
      <trkpt lat="38.3035220" lon="-0.5969850">
        <ele>144.0</ele>
        <time>2019-12-20T08:44:20Z</time>
      </trkpt>
      <trkpt lat="38.3035230" lon="-0.5970440">
        <ele>144.0</ele>
        <time>2019-12-20T08:44:21Z</time>
      </trkpt>
      <trkpt lat="38.3035250" lon="-0.5971030">
        <ele>144.2</ele>
        <time>2019-12-20T08:44:22Z</time>
      </trkpt>
      <trkpt lat="38.3035280" lon="-0.5971610">
        <ele>144.6</ele>
        <time>2019-12-20T08:44:23Z</time>
      </trkpt>
      <trkpt lat="38.3035310" lon="-0.5972200">
        <ele>144.6</ele>
        <time>2019-12-20T08:44:24Z</time>
      </trkpt>
      <trkpt lat="38.3035350" lon="-0.5972780">
        <ele>144.8</ele>
        <time>2019-12-20T08:44:25Z</time>
      </trkpt>
      <trkpt lat="38.3035390" lon="-0.5973360">
        <ele>145.0</ele>
        <time>2019-12-20T08:44:26Z</time>
      </trkpt>
      <trkpt lat="38.3035410" lon="-0.5973940">
        <ele>145.2</ele>
        <time>2019-12-20T08:44:27Z</time>
      </trkpt>
      <trkpt lat="38.3035440" lon="-0.5974510">
        <ele>145.4</ele>
        <time>2019-12-20T08:44:28Z</time>
      </trkpt>
      <trkpt lat="38.3035470" lon="-0.5975100">
        <ele>145.6</ele>
        <time>2019-12-20T08:44:29Z</time>
      </trkpt>
      <trkpt lat="38.3035490" lon="-0.5975680">
        <ele>145.6</ele>
        <time>2019-12-20T08:44:30Z</time>
      </trkpt>
      <trkpt lat="38.3035500" lon="-0.5976270">
        <ele>146.0</ele>
        <time>2019-12-20T08:44:31Z</time>
      </trkpt>
      <trkpt lat="38.3035500" lon="-0.5976840">
        <ele>146.0</ele>
        <time>2019-12-20T08:44:32Z</time>
      </trkpt>
      <trkpt lat="38.3035490" lon="-0.5977420">
        <ele>146.2</ele>
        <time>2019-12-20T08:44:33Z</time>
      </trkpt>
      <trkpt lat="38.3035460" lon="-0.5977990">
        <ele>146.2</ele>
        <time>2019-12-20T08:44:34Z</time>
      </trkpt>
      <trkpt lat="38.3035430" lon="-0.5978560">
        <ele>146.4</ele>
        <time>2019-12-20T08:44:35Z</time>
      </trkpt>
      <trkpt lat="38.3035390" lon="-0.5979130">
        <ele>146.6</ele>
        <time>2019-12-20T08:44:36Z</time>
      </trkpt>
      <trkpt lat="38.3035340" lon="-0.5979690">
        <ele>146.6</ele>
        <time>2019-12-20T08:44:37Z</time>
      </trkpt>
      <trkpt lat="38.3035270" lon="-0.5980250">
        <ele>146.8</ele>
        <time>2019-12-20T08:44:38Z</time>
      </trkpt>
      <trkpt lat="38.3035170" lon="-0.5980800">
        <ele>146.8</ele>
        <time>2019-12-20T08:44:39Z</time>
      </trkpt>
      <trkpt lat="38.3035040" lon="-0.5981340">
        <ele>147.0</ele>
        <time>2019-12-20T08:44:40Z</time>
      </trkpt>
      <trkpt lat="38.3034850" lon="-0.5981860">
        <ele>147.0</ele>
        <time>2019-12-20T08:44:41Z</time>
      </trkpt>
      <trkpt lat="38.3034620" lon="-0.5982350">
        <ele>147.0</ele>
        <time>2019-12-20T08:44:42Z</time>
      </trkpt>
      <trkpt lat="38.3034360" lon="-0.5982830">
        <ele>147.2</ele>
        <time>2019-12-20T08:44:43Z</time>
      </trkpt>
      <trkpt lat="38.3034140" lon="-0.5983320">
        <ele>147.2</ele>
        <time>2019-12-20T08:44:44Z</time>
      </trkpt>
      <trkpt lat="38.3033980" lon="-0.5983840">
        <ele>147.2</ele>
        <time>2019-12-20T08:44:45Z</time>
      </trkpt>
      <trkpt lat="38.3033860" lon="-0.5984380">
        <ele>147.2</ele>
        <time>2019-12-20T08:44:46Z</time>
      </trkpt>
      <trkpt lat="38.3033750" lon="-0.5984940">
        <ele>147.4</ele>
        <time>2019-12-20T08:44:47Z</time>
      </trkpt>
      <trkpt lat="38.3033680" lon="-0.5985510">
        <ele>147.4</ele>
        <time>2019-12-20T08:44:48Z</time>
      </trkpt>
      <trkpt lat="38.3033690" lon="-0.5986080">
        <ele>147.4</ele>
        <time>2019-12-20T08:44:49Z</time>
      </trkpt>
      <trkpt lat="38.3033750" lon="-0.5986670">
        <ele>147.6</ele>
        <time>2019-12-20T08:44:50Z</time>
      </trkpt>
      <trkpt lat="38.3033850" lon="-0.5987250">
        <ele>147.6</ele>
        <time>2019-12-20T08:44:51Z</time>
      </trkpt>
      <trkpt lat="38.3033950" lon="-0.5987840">
        <ele>147.4</ele>
        <time>2019-12-20T08:44:52Z</time>
      </trkpt>
      <trkpt lat="38.3034050" lon="-0.5988450">
        <ele>147.6</ele>
        <time>2019-12-20T08:44:53Z</time>
      </trkpt>
      <trkpt lat="38.3034200" lon="-0.5989040">
        <ele>147.6</ele>
        <time>2019-12-20T08:44:54Z</time>
      </trkpt>
      <trkpt lat="38.3034390" lon="-0.5989600">
        <ele>147.8</ele>
        <time>2019-12-20T08:44:55Z</time>
      </trkpt>
      <trkpt lat="38.3034610" lon="-0.5990170">
        <ele>147.8</ele>
        <time>2019-12-20T08:44:56Z</time>
      </trkpt>
      <trkpt lat="38.3034800" lon="-0.5990750">
        <ele>147.8</ele>
        <time>2019-12-20T08:44:57Z</time>
      </trkpt>
      <trkpt lat="38.3034960" lon="-0.5991360">
        <ele>148.0</ele>
        <time>2019-12-20T08:44:58Z</time>
      </trkpt>
      <trkpt lat="38.3035060" lon="-0.5991970">
        <ele>148.0</ele>
        <time>2019-12-20T08:44:59Z</time>
      </trkpt>
      <trkpt lat="38.3035100" lon="-0.5992610">
        <ele>148.0</ele>
        <time>2019-12-20T08:45:00Z</time>
      </trkpt>
      <trkpt lat="38.3035100" lon="-0.5993260">
        <ele>148.0</ele>
        <time>2019-12-20T08:45:01Z</time>
      </trkpt>
      <trkpt lat="38.3035080" lon="-0.5993910">
        <ele>148.0</ele>
        <time>2019-12-20T08:45:02Z</time>
      </trkpt>
      <trkpt lat="38.3035070" lon="-0.5994550">
        <ele>148.0</ele>
        <time>2019-12-20T08:45:03Z</time>
      </trkpt>
      <trkpt lat="38.3035050" lon="-0.5995210">
        <ele>148.2</ele>
        <time>2019-12-20T08:45:04Z</time>
      </trkpt>
      <trkpt lat="38.3035020" lon="-0.5995870">
        <ele>148.2</ele>
        <time>2019-12-20T08:45:05Z</time>
      </trkpt>
      <trkpt lat="38.3034980" lon="-0.5996540">
        <ele>148.2</ele>
        <time>2019-12-20T08:45:06Z</time>
      </trkpt>
      <trkpt lat="38.3034950" lon="-0.5997210">
        <ele>148.2</ele>
        <time>2019-12-20T08:45:07Z</time>
      </trkpt>
      <trkpt lat="38.3034910" lon="-0.5997890">
        <ele>148.4</ele>
        <time>2019-12-20T08:45:08Z</time>
      </trkpt>
      <trkpt lat="38.3034860" lon="-0.5998570">
        <ele>148.4</ele>
        <time>2019-12-20T08:45:09Z</time>
      </trkpt>
      <trkpt lat="38.3034810" lon="-0.5999270">
        <ele>148.4</ele>
        <time>2019-12-20T08:45:10Z</time>
      </trkpt>
      <trkpt lat="38.3034740" lon="-0.5999970">
        <ele>148.4</ele>
        <time>2019-12-20T08:45:11Z</time>
      </trkpt>
      <trkpt lat="38.3034680" lon="-0.6000660">
        <ele>148.2</ele>
        <time>2019-12-20T08:45:12Z</time>
      </trkpt>
      <trkpt lat="38.3034630" lon="-0.6001360">
        <ele>148.4</ele>
        <time>2019-12-20T08:45:13Z</time>
      </trkpt>
      <trkpt lat="38.3034570" lon="-0.6002070">
        <ele>148.4</ele>
        <time>2019-12-20T08:45:14Z</time>
      </trkpt>
      <trkpt lat="38.3034520" lon="-0.6002770">
        <ele>148.4</ele>
        <time>2019-12-20T08:45:15Z</time>
      </trkpt>
      <trkpt lat="38.3034470" lon="-0.6003470">
        <ele>148.4</ele>
        <time>2019-12-20T08:45:16Z</time>
      </trkpt>
      <trkpt lat="38.3034430" lon="-0.6004170">
        <ele>148.4</ele>
        <time>2019-12-20T08:45:17Z</time>
      </trkpt>
      <trkpt lat="38.3034400" lon="-0.6004860">
        <ele>148.6</ele>
        <time>2019-12-20T08:45:18Z</time>
      </trkpt>
      <trkpt lat="38.3034370" lon="-0.6005570">
        <ele>148.8</ele>
        <time>2019-12-20T08:45:19Z</time>
      </trkpt>
      <trkpt lat="38.3034360" lon="-0.6006290">
        <ele>148.8</ele>
        <time>2019-12-20T08:45:20Z</time>
      </trkpt>
      <trkpt lat="38.3034370" lon="-0.6006960">
        <ele>148.8</ele>
        <time>2019-12-20T08:45:21Z</time>
      </trkpt>
      <trkpt lat="38.3034340" lon="-0.6007650">
        <ele>148.6</ele>
        <time>2019-12-20T08:45:22Z</time>
      </trkpt>
      <trkpt lat="38.3034290" lon="-0.6008360">
        <ele>148.8</ele>
        <time>2019-12-20T08:45:23Z</time>
      </trkpt>
      <trkpt lat="38.3034250" lon="-0.6009070">
        <ele>148.8</ele>
        <time>2019-12-20T08:45:24Z</time>
      </trkpt>
      <trkpt lat="38.3034200" lon="-0.6009790">
        <ele>148.8</ele>
        <time>2019-12-20T08:45:25Z</time>
      </trkpt>
      <trkpt lat="38.3034150" lon="-0.6010530">
        <ele>149.0</ele>
        <time>2019-12-20T08:45:26Z</time>
      </trkpt>
      <trkpt lat="38.3034120" lon="-0.6011260">
        <ele>149.0</ele>
        <time>2019-12-20T08:45:27Z</time>
      </trkpt>
      <trkpt lat="38.3034080" lon="-0.6011980">
        <ele>149.2</ele>
        <time>2019-12-20T08:45:28Z</time>
      </trkpt>
      <trkpt lat="38.3034050" lon="-0.6012720">
        <ele>149.2</ele>
        <time>2019-12-20T08:45:29Z</time>
      </trkpt>
      <trkpt lat="38.3034030" lon="-0.6013440">
        <ele>149.0</ele>
        <time>2019-12-20T08:45:30Z</time>
      </trkpt>
      <trkpt lat="38.3033990" lon="-0.6014170">
        <ele>149.2</ele>
        <time>2019-12-20T08:45:31Z</time>
      </trkpt>
      <trkpt lat="38.3033930" lon="-0.6014880">
        <ele>149.4</ele>
        <time>2019-12-20T08:45:32Z</time>
      </trkpt>
      <trkpt lat="38.3033890" lon="-0.6015590">
        <ele>149.4</ele>
        <time>2019-12-20T08:45:33Z</time>
      </trkpt>
      <trkpt lat="38.3033860" lon="-0.6016290">
        <ele>149.6</ele>
        <time>2019-12-20T08:45:34Z</time>
      </trkpt>
      <trkpt lat="38.3033840" lon="-0.6017000">
        <ele>149.6</ele>
        <time>2019-12-20T08:45:35Z</time>
      </trkpt>
      <trkpt lat="38.3033800" lon="-0.6017710">
        <ele>149.8</ele>
        <time>2019-12-20T08:45:36Z</time>
      </trkpt>
      <trkpt lat="38.3033750" lon="-0.6018420">
        <ele>149.8</ele>
        <time>2019-12-20T08:45:37Z</time>
      </trkpt>
      <trkpt lat="38.3033720" lon="-0.6019110">
        <ele>150.0</ele>
        <time>2019-12-20T08:45:38Z</time>
      </trkpt>
      <trkpt lat="38.3033680" lon="-0.6019810">
        <ele>150.0</ele>
        <time>2019-12-20T08:45:39Z</time>
      </trkpt>
      <trkpt lat="38.3033650" lon="-0.6020520">
        <ele>150.0</ele>
        <time>2019-12-20T08:45:40Z</time>
      </trkpt>
      <trkpt lat="38.3033620" lon="-0.6021230">
        <ele>150.0</ele>
        <time>2019-12-20T08:45:41Z</time>
      </trkpt>
      <trkpt lat="38.3033580" lon="-0.6021940">
        <ele>150.0</ele>
        <time>2019-12-20T08:45:42Z</time>
      </trkpt>
      <trkpt lat="38.3033550" lon="-0.6022660">
        <ele>150.2</ele>
        <time>2019-12-20T08:45:43Z</time>
      </trkpt>
      <trkpt lat="38.3033520" lon="-0.6023380">
        <ele>150.0</ele>
        <time>2019-12-20T08:45:44Z</time>
      </trkpt>
      <trkpt lat="38.3033490" lon="-0.6024110">
        <ele>150.2</ele>
        <time>2019-12-20T08:45:45Z</time>
      </trkpt>
      <trkpt lat="38.3033450" lon="-0.6024850">
        <ele>150.4</ele>
        <time>2019-12-20T08:45:46Z</time>
      </trkpt>
      <trkpt lat="38.3033410" lon="-0.6025580">
        <ele>150.4</ele>
        <time>2019-12-20T08:45:47Z</time>
      </trkpt>
      <trkpt lat="38.3033360" lon="-0.6026320">
        <ele>150.2</ele>
        <time>2019-12-20T08:45:48Z</time>
      </trkpt>
      <trkpt lat="38.3033320" lon="-0.6027040">
        <ele>150.4</ele>
        <time>2019-12-20T08:45:49Z</time>
      </trkpt>
      <trkpt lat="38.3033270" lon="-0.6027780">
        <ele>150.4</ele>
        <time>2019-12-20T08:45:50Z</time>
      </trkpt>
      <trkpt lat="38.3033230" lon="-0.6028510">
        <ele>150.6</ele>
        <time>2019-12-20T08:45:51Z</time>
      </trkpt>
      <trkpt lat="38.3033190" lon="-0.6029250">
        <ele>150.6</ele>
        <time>2019-12-20T08:45:52Z</time>
      </trkpt>
      <trkpt lat="38.3033150" lon="-0.6030000">
        <ele>150.4</ele>
        <time>2019-12-20T08:45:53Z</time>
      </trkpt>
      <trkpt lat="38.3033110" lon="-0.6030730">
        <ele>150.6</ele>
        <time>2019-12-20T08:45:54Z</time>
      </trkpt>
      <trkpt lat="38.3033060" lon="-0.6031460">
        <ele>150.6</ele>
        <time>2019-12-20T08:45:55Z</time>
      </trkpt>
      <trkpt lat="38.3033010" lon="-0.6032200">
        <ele>150.6</ele>
        <time>2019-12-20T08:45:56Z</time>
      </trkpt>
      <trkpt lat="38.3032940" lon="-0.6032940">
        <ele>150.6</ele>
        <time>2019-12-20T08:45:57Z</time>
      </trkpt>
      <trkpt lat="38.3032860" lon="-0.6033700">
        <ele>150.6</ele>
        <time>2019-12-20T08:45:58Z</time>
      </trkpt>
      <trkpt lat="38.3032780" lon="-0.6034470">
        <ele>151.0</ele>
        <time>2019-12-20T08:45:59Z</time>
      </trkpt>
      <trkpt lat="38.3032710" lon="-0.6035220">
        <ele>150.8</ele>
        <time>2019-12-20T08:46:00Z</time>
      </trkpt>
      <trkpt lat="38.3032630" lon="-0.6035970">
        <ele>150.8</ele>
        <time>2019-12-20T08:46:01Z</time>
      </trkpt>
      <trkpt lat="38.3032530" lon="-0.6036720">
        <ele>150.8</ele>
        <time>2019-12-20T08:46:02Z</time>
      </trkpt>
      <trkpt lat="38.3032430" lon="-0.6037460">
        <ele>151.0</ele>
        <time>2019-12-20T08:46:03Z</time>
      </trkpt>
      <trkpt lat="38.3032340" lon="-0.6038210">
        <ele>150.8</ele>
        <time>2019-12-20T08:46:04Z</time>
      </trkpt>
      <trkpt lat="38.3032250" lon="-0.6038970">
        <ele>151.0</ele>
        <time>2019-12-20T08:46:05Z</time>
      </trkpt>
      <trkpt lat="38.3032160" lon="-0.6039720">
        <ele>151.0</ele>
        <time>2019-12-20T08:46:06Z</time>
      </trkpt>
      <trkpt lat="38.3032050" lon="-0.6040470">
        <ele>151.0</ele>
        <time>2019-12-20T08:46:07Z</time>
      </trkpt>
      <trkpt lat="38.3031940" lon="-0.6041220">
        <ele>151.2</ele>
        <time>2019-12-20T08:46:08Z</time>
      </trkpt>
      <trkpt lat="38.3031830" lon="-0.6041990">
        <ele>151.0</ele>
        <time>2019-12-20T08:46:09Z</time>
      </trkpt>
      <trkpt lat="38.3031720" lon="-0.6042750">
        <ele>151.2</ele>
        <time>2019-12-20T08:46:10Z</time>
      </trkpt>
      <trkpt lat="38.3031600" lon="-0.6043500">
        <ele>151.0</ele>
        <time>2019-12-20T08:46:11Z</time>
      </trkpt>
      <trkpt lat="38.3031470" lon="-0.6044250">
        <ele>151.4</ele>
        <time>2019-12-20T08:46:12Z</time>
      </trkpt>
      <trkpt lat="38.3031350" lon="-0.6045010">
        <ele>151.4</ele>
        <time>2019-12-20T08:46:13Z</time>
      </trkpt>
      <trkpt lat="38.3031210" lon="-0.6045780">
        <ele>151.4</ele>
        <time>2019-12-20T08:46:14Z</time>
      </trkpt>
      <trkpt lat="38.3031070" lon="-0.6046560">
        <ele>151.6</ele>
        <time>2019-12-20T08:46:15Z</time>
      </trkpt>
      <trkpt lat="38.3030930" lon="-0.6047320">
        <ele>151.4</ele>
        <time>2019-12-20T08:46:16Z</time>
      </trkpt>
      <trkpt lat="38.3030770" lon="-0.6048070">
        <ele>151.6</ele>
        <time>2019-12-20T08:46:17Z</time>
      </trkpt>
      <trkpt lat="38.3030630" lon="-0.6048840">
        <ele>151.6</ele>
        <time>2019-12-20T08:46:18Z</time>
      </trkpt>
      <trkpt lat="38.3030480" lon="-0.6049610">
        <ele>151.6</ele>
        <time>2019-12-20T08:46:19Z</time>
      </trkpt>
      <trkpt lat="38.3030300" lon="-0.6050380">
        <ele>151.6</ele>
        <time>2019-12-20T08:46:20Z</time>
      </trkpt>
      <trkpt lat="38.3030130" lon="-0.6051160">
        <ele>151.6</ele>
        <time>2019-12-20T08:46:21Z</time>
      </trkpt>
      <trkpt lat="38.3029960" lon="-0.6051930">
        <ele>151.6</ele>
        <time>2019-12-20T08:46:22Z</time>
      </trkpt>
      <trkpt lat="38.3029800" lon="-0.6052700">
        <ele>151.8</ele>
        <time>2019-12-20T08:46:23Z</time>
      </trkpt>
      <trkpt lat="38.3029620" lon="-0.6053460">
        <ele>151.6</ele>
        <time>2019-12-20T08:46:24Z</time>
      </trkpt>
      <trkpt lat="38.3029450" lon="-0.6054210">
        <ele>151.8</ele>
        <time>2019-12-20T08:46:25Z</time>
      </trkpt>
      <trkpt lat="38.3029260" lon="-0.6054970">
        <ele>151.8</ele>
        <time>2019-12-20T08:46:26Z</time>
      </trkpt>
      <trkpt lat="38.3029060" lon="-0.6055710">
        <ele>151.8</ele>
        <time>2019-12-20T08:46:27Z</time>
      </trkpt>
      <trkpt lat="38.3028880" lon="-0.6056470">
        <ele>151.8</ele>
        <time>2019-12-20T08:46:28Z</time>
      </trkpt>
      <trkpt lat="38.3028670" lon="-0.6057210">
        <ele>152.0</ele>
        <time>2019-12-20T08:46:29Z</time>
      </trkpt>
      <trkpt lat="38.3028520" lon="-0.6057770">
        <ele>152.0</ele>
        <time>2019-12-20T08:46:30Z</time>
      </trkpt>
      <trkpt lat="38.3028370" lon="-0.6058320">
        <ele>152.2</ele>
        <time>2019-12-20T08:46:31Z</time>
      </trkpt>
      <trkpt lat="38.3028070" lon="-0.6059430">
        <ele>152.2</ele>
        <time>2019-12-20T08:46:32Z</time>
      </trkpt>
      <trkpt lat="38.3027860" lon="-0.6060170">
        <ele>152.2</ele>
        <time>2019-12-20T08:46:33Z</time>
      </trkpt>
      <trkpt lat="38.3027650" lon="-0.6060910">
        <ele>152.2</ele>
        <time>2019-12-20T08:46:34Z</time>
      </trkpt>
      <trkpt lat="38.3027440" lon="-0.6061670">
        <ele>152.2</ele>
        <time>2019-12-20T08:46:35Z</time>
      </trkpt>
      <trkpt lat="38.3027280" lon="-0.6062240">
        <ele>152.2</ele>
        <time>2019-12-20T08:46:36Z</time>
      </trkpt>
      <trkpt lat="38.3027110" lon="-0.6062800">
        <ele>152.4</ele>
        <time>2019-12-20T08:46:37Z</time>
      </trkpt>
      <trkpt lat="38.3026780" lon="-0.6063920">
        <ele>152.4</ele>
        <time>2019-12-20T08:46:38Z</time>
      </trkpt>
      <trkpt lat="38.3026540" lon="-0.6064670">
        <ele>152.4</ele>
        <time>2019-12-20T08:46:39Z</time>
      </trkpt>
      <trkpt lat="38.3026290" lon="-0.6065430">
        <ele>152.4</ele>
        <time>2019-12-20T08:46:40Z</time>
      </trkpt>
      <trkpt lat="38.3026050" lon="-0.6066200">
        <ele>152.2</ele>
        <time>2019-12-20T08:46:41Z</time>
      </trkpt>
      <trkpt lat="38.3025800" lon="-0.6066960">
        <ele>152.6</ele>
        <time>2019-12-20T08:46:42Z</time>
      </trkpt>
      <trkpt lat="38.3025550" lon="-0.6067720">
        <ele>152.8</ele>
        <time>2019-12-20T08:46:43Z</time>
      </trkpt>
      <trkpt lat="38.3025290" lon="-0.6068470">
        <ele>152.8</ele>
        <time>2019-12-20T08:46:44Z</time>
      </trkpt>
      <trkpt lat="38.3025030" lon="-0.6069240">
        <ele>152.4</ele>
        <time>2019-12-20T08:46:45Z</time>
      </trkpt>
      <trkpt lat="38.3024770" lon="-0.6070010">
        <ele>152.6</ele>
        <time>2019-12-20T08:46:46Z</time>
      </trkpt>
      <trkpt lat="38.3024520" lon="-0.6070780">
        <ele>152.2</ele>
        <time>2019-12-20T08:46:47Z</time>
      </trkpt>
      <trkpt lat="38.3024280" lon="-0.6071540">
        <ele>152.2</ele>
        <time>2019-12-20T08:46:48Z</time>
      </trkpt>
      <trkpt lat="38.3024050" lon="-0.6072330">
        <ele>152.2</ele>
        <time>2019-12-20T08:46:49Z</time>
      </trkpt>
      <trkpt lat="38.3023820" lon="-0.6073110">
        <ele>152.4</ele>
        <time>2019-12-20T08:46:50Z</time>
      </trkpt>
      <trkpt lat="38.3023590" lon="-0.6073890">
        <ele>152.2</ele>
        <time>2019-12-20T08:46:51Z</time>
      </trkpt>
      <trkpt lat="38.3023350" lon="-0.6074650">
        <ele>152.4</ele>
        <time>2019-12-20T08:46:52Z</time>
      </trkpt>
      <trkpt lat="38.3023110" lon="-0.6075430">
        <ele>152.4</ele>
        <time>2019-12-20T08:46:53Z</time>
      </trkpt>
      <trkpt lat="38.3022880" lon="-0.6076230">
        <ele>152.2</ele>
        <time>2019-12-20T08:46:54Z</time>
      </trkpt>
      <trkpt lat="38.3022640" lon="-0.6077020">
        <ele>152.4</ele>
        <time>2019-12-20T08:46:55Z</time>
      </trkpt>
      <trkpt lat="38.3022390" lon="-0.6077810">
        <ele>152.0</ele>
        <time>2019-12-20T08:46:56Z</time>
      </trkpt>
      <trkpt lat="38.3022140" lon="-0.6078620">
        <ele>152.2</ele>
        <time>2019-12-20T08:46:57Z</time>
      </trkpt>
      <trkpt lat="38.3021900" lon="-0.6079420">
        <ele>152.2</ele>
        <time>2019-12-20T08:46:58Z</time>
      </trkpt>
      <trkpt lat="38.3021660" lon="-0.6080220">
        <ele>152.2</ele>
        <time>2019-12-20T08:46:59Z</time>
      </trkpt>
      <trkpt lat="38.3021410" lon="-0.6081020">
        <ele>152.2</ele>
        <time>2019-12-20T08:47:00Z</time>
      </trkpt>
      <trkpt lat="38.3021230" lon="-0.6081620">
        <ele>152.0</ele>
        <time>2019-12-20T08:47:01Z</time>
      </trkpt>
      <trkpt lat="38.3021040" lon="-0.6082220">
        <ele>151.8</ele>
        <time>2019-12-20T08:47:02Z</time>
      </trkpt>
      <trkpt lat="38.3020670" lon="-0.6083420">
        <ele>152.0</ele>
        <time>2019-12-20T08:47:03Z</time>
      </trkpt>
      <trkpt lat="38.3020430" lon="-0.6084220">
        <ele>152.0</ele>
        <time>2019-12-20T08:47:04Z</time>
      </trkpt>
      <trkpt lat="38.3020180" lon="-0.6085020">
        <ele>151.8</ele>
        <time>2019-12-20T08:47:05Z</time>
      </trkpt>
      <trkpt lat="38.3020000" lon="-0.6085630">
        <ele>151.8</ele>
        <time>2019-12-20T08:47:06Z</time>
      </trkpt>
      <trkpt lat="38.3019820" lon="-0.6086240">
        <ele>151.6</ele>
        <time>2019-12-20T08:47:07Z</time>
      </trkpt>
      <trkpt lat="38.3019460" lon="-0.6087450">
        <ele>151.8</ele>
        <time>2019-12-20T08:47:08Z</time>
      </trkpt>
      <trkpt lat="38.3019210" lon="-0.6088260">
        <ele>151.6</ele>
        <time>2019-12-20T08:47:09Z</time>
      </trkpt>
      <trkpt lat="38.3018940" lon="-0.6089060">
        <ele>151.6</ele>
        <time>2019-12-20T08:47:10Z</time>
      </trkpt>
      <trkpt lat="38.3018750" lon="-0.6089670">
        <ele>151.6</ele>
        <time>2019-12-20T08:47:11Z</time>
      </trkpt>
      <trkpt lat="38.3018560" lon="-0.6090280">
        <ele>151.6</ele>
        <time>2019-12-20T08:47:12Z</time>
      </trkpt>
      <trkpt lat="38.3018180" lon="-0.6091490">
        <ele>151.6</ele>
        <time>2019-12-20T08:47:13Z</time>
      </trkpt>
      <trkpt lat="38.3017930" lon="-0.6092290">
        <ele>151.4</ele>
        <time>2019-12-20T08:47:14Z</time>
      </trkpt>
      <trkpt lat="38.3017670" lon="-0.6093090">
        <ele>151.4</ele>
        <time>2019-12-20T08:47:15Z</time>
      </trkpt>
      <trkpt lat="38.3017420" lon="-0.6093900">
        <ele>151.4</ele>
        <time>2019-12-20T08:47:16Z</time>
      </trkpt>
      <trkpt lat="38.3017180" lon="-0.6094710">
        <ele>151.6</ele>
        <time>2019-12-20T08:47:17Z</time>
      </trkpt>
      <trkpt lat="38.3016930" lon="-0.6095520">
        <ele>151.4</ele>
        <time>2019-12-20T08:47:18Z</time>
      </trkpt>
      <trkpt lat="38.3016670" lon="-0.6096320">
        <ele>151.6</ele>
        <time>2019-12-20T08:47:19Z</time>
      </trkpt>
      <trkpt lat="38.3016420" lon="-0.6097130">
        <ele>151.4</ele>
        <time>2019-12-20T08:47:20Z</time>
      </trkpt>
      <trkpt lat="38.3016200" lon="-0.6097950">
        <ele>151.2</ele>
        <time>2019-12-20T08:47:21Z</time>
      </trkpt>
      <trkpt lat="38.3015970" lon="-0.6098760">
        <ele>151.2</ele>
        <time>2019-12-20T08:47:22Z</time>
      </trkpt>
      <trkpt lat="38.3015750" lon="-0.6099570">
        <ele>151.2</ele>
        <time>2019-12-20T08:47:23Z</time>
      </trkpt>
      <trkpt lat="38.3015510" lon="-0.6100370">
        <ele>151.2</ele>
        <time>2019-12-20T08:47:24Z</time>
      </trkpt>
      <trkpt lat="38.3015290" lon="-0.6101180">
        <ele>151.2</ele>
        <time>2019-12-20T08:47:25Z</time>
      </trkpt>
      <trkpt lat="38.3015080" lon="-0.6102000">
        <ele>151.0</ele>
        <time>2019-12-20T08:47:26Z</time>
      </trkpt>
      <trkpt lat="38.3014850" lon="-0.6102800">
        <ele>151.2</ele>
        <time>2019-12-20T08:47:27Z</time>
      </trkpt>
      <trkpt lat="38.3014600" lon="-0.6103600">
        <ele>151.2</ele>
        <time>2019-12-20T08:47:28Z</time>
      </trkpt>
      <trkpt lat="38.3014350" lon="-0.6104410">
        <ele>151.2</ele>
        <time>2019-12-20T08:47:29Z</time>
      </trkpt>
      <trkpt lat="38.3014110" lon="-0.6105220">
        <ele>151.0</ele>
        <time>2019-12-20T08:47:30Z</time>
      </trkpt>
      <trkpt lat="38.3013850" lon="-0.6106030">
        <ele>151.4</ele>
        <time>2019-12-20T08:47:31Z</time>
      </trkpt>
      <trkpt lat="38.3013590" lon="-0.6106830">
        <ele>151.4</ele>
        <time>2019-12-20T08:47:32Z</time>
      </trkpt>
      <trkpt lat="38.3013340" lon="-0.6107640">
        <ele>151.2</ele>
        <time>2019-12-20T08:47:33Z</time>
      </trkpt>
      <trkpt lat="38.3013090" lon="-0.6108450">
        <ele>151.2</ele>
        <time>2019-12-20T08:47:34Z</time>
      </trkpt>
      <trkpt lat="38.3012820" lon="-0.6109250">
        <ele>151.2</ele>
        <time>2019-12-20T08:47:35Z</time>
      </trkpt>
      <trkpt lat="38.3012550" lon="-0.6110040">
        <ele>151.0</ele>
        <time>2019-12-20T08:47:36Z</time>
      </trkpt>
      <trkpt lat="38.3012280" lon="-0.6110850">
        <ele>151.0</ele>
        <time>2019-12-20T08:47:37Z</time>
      </trkpt>
      <trkpt lat="38.3012010" lon="-0.6111650">
        <ele>151.0</ele>
        <time>2019-12-20T08:47:38Z</time>
      </trkpt>
      <trkpt lat="38.3011740" lon="-0.6112450">
        <ele>151.0</ele>
        <time>2019-12-20T08:47:39Z</time>
      </trkpt>
      <trkpt lat="38.3011460" lon="-0.6113250">
        <ele>151.0</ele>
        <time>2019-12-20T08:47:40Z</time>
      </trkpt>
      <trkpt lat="38.3011180" lon="-0.6114060">
        <ele>150.8</ele>
        <time>2019-12-20T08:47:41Z</time>
      </trkpt>
      <trkpt lat="38.3010910" lon="-0.6114850">
        <ele>151.0</ele>
        <time>2019-12-20T08:47:42Z</time>
      </trkpt>
      <trkpt lat="38.3010640" lon="-0.6115640">
        <ele>151.0</ele>
        <time>2019-12-20T08:47:43Z</time>
      </trkpt>
      <trkpt lat="38.3010360" lon="-0.6116440">
        <ele>150.8</ele>
        <time>2019-12-20T08:47:44Z</time>
      </trkpt>
      <trkpt lat="38.3010160" lon="-0.6117050">
        <ele>150.8</ele>
        <time>2019-12-20T08:47:45Z</time>
      </trkpt>
      <trkpt lat="38.3009950" lon="-0.6117660">
        <ele>150.6</ele>
        <time>2019-12-20T08:47:46Z</time>
      </trkpt>
      <trkpt lat="38.3009530" lon="-0.6118870">
        <ele>150.8</ele>
        <time>2019-12-20T08:47:47Z</time>
      </trkpt>
      <trkpt lat="38.3009260" lon="-0.6119680">
        <ele>150.6</ele>
        <time>2019-12-20T08:47:48Z</time>
      </trkpt>
      <trkpt lat="38.3008980" lon="-0.6120460">
        <ele>150.6</ele>
        <time>2019-12-20T08:47:49Z</time>
      </trkpt>
      <trkpt lat="38.3008770" lon="-0.6121060">
        <ele>150.4</ele>
        <time>2019-12-20T08:47:50Z</time>
      </trkpt>
      <trkpt lat="38.3008560" lon="-0.6121660">
        <ele>150.6</ele>
        <time>2019-12-20T08:47:51Z</time>
      </trkpt>
      <trkpt lat="38.3008130" lon="-0.6122850">
        <ele>150.4</ele>
        <time>2019-12-20T08:47:52Z</time>
      </trkpt>
      <trkpt lat="38.3007860" lon="-0.6123640">
        <ele>150.4</ele>
        <time>2019-12-20T08:47:53Z</time>
      </trkpt>
      <trkpt lat="38.3007590" lon="-0.6124430">
        <ele>150.0</ele>
        <time>2019-12-20T08:47:54Z</time>
      </trkpt>
      <trkpt lat="38.3007320" lon="-0.6125220">
        <ele>150.2</ele>
        <time>2019-12-20T08:47:55Z</time>
      </trkpt>
      <trkpt lat="38.3007040" lon="-0.6125990">
        <ele>150.2</ele>
        <time>2019-12-20T08:47:56Z</time>
      </trkpt>
      <trkpt lat="38.3006770" lon="-0.6126770">
        <ele>150.2</ele>
        <time>2019-12-20T08:47:57Z</time>
      </trkpt>
      <trkpt lat="38.3006500" lon="-0.6127540">
        <ele>150.2</ele>
        <time>2019-12-20T08:47:58Z</time>
      </trkpt>
      <trkpt lat="38.3006230" lon="-0.6128320">
        <ele>150.0</ele>
        <time>2019-12-20T08:47:59Z</time>
      </trkpt>
      <trkpt lat="38.3005950" lon="-0.6129080">
        <ele>150.2</ele>
        <time>2019-12-20T08:48:00Z</time>
      </trkpt>
      <trkpt lat="38.3005670" lon="-0.6129840">
        <ele>150.2</ele>
        <time>2019-12-20T08:48:01Z</time>
      </trkpt>
      <trkpt lat="38.3005400" lon="-0.6130590">
        <ele>150.0</ele>
        <time>2019-12-20T08:48:02Z</time>
      </trkpt>
      <trkpt lat="38.3005120" lon="-0.6131340">
        <ele>150.0</ele>
        <time>2019-12-20T08:48:03Z</time>
      </trkpt>
      <trkpt lat="38.3004860" lon="-0.6132100">
        <ele>150.0</ele>
        <time>2019-12-20T08:48:04Z</time>
      </trkpt>
      <trkpt lat="38.3004670" lon="-0.6132670">
        <ele>149.8</ele>
        <time>2019-12-20T08:48:05Z</time>
      </trkpt>
      <trkpt lat="38.3004470" lon="-0.6133230">
        <ele>149.6</ele>
        <time>2019-12-20T08:48:06Z</time>
      </trkpt>
      <trkpt lat="38.3004070" lon="-0.6134360">
        <ele>149.8</ele>
        <time>2019-12-20T08:48:07Z</time>
      </trkpt>
      <trkpt lat="38.3003810" lon="-0.6135110">
        <ele>149.6</ele>
        <time>2019-12-20T08:48:08Z</time>
      </trkpt>
      <trkpt lat="38.3003540" lon="-0.6135850">
        <ele>149.6</ele>
        <time>2019-12-20T08:48:09Z</time>
      </trkpt>
      <trkpt lat="38.3003280" lon="-0.6136590">
        <ele>149.4</ele>
        <time>2019-12-20T08:48:10Z</time>
      </trkpt>
      <trkpt lat="38.3003020" lon="-0.6137330">
        <ele>149.4</ele>
        <time>2019-12-20T08:48:11Z</time>
      </trkpt>
      <trkpt lat="38.3002770" lon="-0.6138070">
        <ele>149.4</ele>
        <time>2019-12-20T08:48:12Z</time>
      </trkpt>
      <trkpt lat="38.3002510" lon="-0.6138810">
        <ele>149.4</ele>
        <time>2019-12-20T08:48:13Z</time>
      </trkpt>
      <trkpt lat="38.3002240" lon="-0.6139520">
        <ele>149.2</ele>
        <time>2019-12-20T08:48:14Z</time>
      </trkpt>
      <trkpt lat="38.3002040" lon="-0.6140070">
        <ele>149.2</ele>
        <time>2019-12-20T08:48:15Z</time>
      </trkpt>
      <trkpt lat="38.3001830" lon="-0.6140620">
        <ele>149.0</ele>
        <time>2019-12-20T08:48:16Z</time>
      </trkpt>
      <trkpt lat="38.3001410" lon="-0.6141720">
        <ele>149.2</ele>
        <time>2019-12-20T08:48:17Z</time>
      </trkpt>
      <trkpt lat="38.3001140" lon="-0.6142440">
        <ele>149.0</ele>
        <time>2019-12-20T08:48:18Z</time>
      </trkpt>
      <trkpt lat="38.3000870" lon="-0.6143150">
        <ele>149.0</ele>
        <time>2019-12-20T08:48:19Z</time>
      </trkpt>
      <trkpt lat="38.3000600" lon="-0.6143870">
        <ele>149.2</ele>
        <time>2019-12-20T08:48:20Z</time>
      </trkpt>
      <trkpt lat="38.3000330" lon="-0.6144580">
        <ele>149.2</ele>
        <time>2019-12-20T08:48:21Z</time>
      </trkpt>
      <trkpt lat="38.3000130" lon="-0.6145120">
        <ele>149.0</ele>
        <time>2019-12-20T08:48:22Z</time>
      </trkpt>
      <trkpt lat="38.2999930" lon="-0.6145660">
        <ele>149.2</ele>
        <time>2019-12-20T08:48:23Z</time>
      </trkpt>
      <trkpt lat="38.2999520" lon="-0.6146730">
        <ele>149.0</ele>
        <time>2019-12-20T08:48:24Z</time>
      </trkpt>
      <trkpt lat="38.2999290" lon="-0.6147480">
        <ele>148.8</ele>
        <time>2019-12-20T08:48:25Z</time>
      </trkpt>
      <trkpt lat="38.2999040" lon="-0.6148220">
        <ele>148.8</ele>
        <time>2019-12-20T08:48:26Z</time>
      </trkpt>
      <trkpt lat="38.2998760" lon="-0.6148940">
        <ele>148.6</ele>
        <time>2019-12-20T08:48:27Z</time>
      </trkpt>
      <trkpt lat="38.2998460" lon="-0.6149660">
        <ele>148.4</ele>
        <time>2019-12-20T08:48:28Z</time>
      </trkpt>
      <trkpt lat="38.2998180" lon="-0.6150400">
        <ele>148.4</ele>
        <time>2019-12-20T08:48:29Z</time>
      </trkpt>
      <trkpt lat="38.2997900" lon="-0.6151130">
        <ele>148.4</ele>
        <time>2019-12-20T08:48:30Z</time>
      </trkpt>
      <trkpt lat="38.2997610" lon="-0.6151870">
        <ele>148.2</ele>
        <time>2019-12-20T08:48:31Z</time>
      </trkpt>
      <trkpt lat="38.2997320" lon="-0.6152610">
        <ele>148.0</ele>
        <time>2019-12-20T08:48:32Z</time>
      </trkpt>
      <trkpt lat="38.2997010" lon="-0.6153330">
        <ele>147.8</ele>
        <time>2019-12-20T08:48:33Z</time>
      </trkpt>
      <trkpt lat="38.2996650" lon="-0.6154010">
        <ele>147.8</ele>
        <time>2019-12-20T08:48:34Z</time>
      </trkpt>
      <trkpt lat="38.2996210" lon="-0.6154640">
        <ele>147.6</ele>
        <time>2019-12-20T08:48:35Z</time>
      </trkpt>
      <trkpt lat="38.2995710" lon="-0.6155200">
        <ele>147.6</ele>
        <time>2019-12-20T08:48:36Z</time>
      </trkpt>
      <trkpt lat="38.2995170" lon="-0.6155620">
        <ele>147.8</ele>
        <time>2019-12-20T08:48:37Z</time>
      </trkpt>
      <trkpt lat="38.2994620" lon="-0.6156000">
        <ele>147.8</ele>
        <time>2019-12-20T08:48:38Z</time>
      </trkpt>
      <trkpt lat="38.2994080" lon="-0.6156360">
        <ele>147.8</ele>
        <time>2019-12-20T08:48:39Z</time>
      </trkpt>
      <trkpt lat="38.2993570" lon="-0.6156730">
        <ele>147.8</ele>
        <time>2019-12-20T08:48:40Z</time>
      </trkpt>
      <trkpt lat="38.2993070" lon="-0.6157150">
        <ele>147.8</ele>
        <time>2019-12-20T08:48:41Z</time>
      </trkpt>
      <trkpt lat="38.2992630" lon="-0.6157650">
        <ele>147.8</ele>
        <time>2019-12-20T08:48:42Z</time>
      </trkpt>
      <trkpt lat="38.2992290" lon="-0.6158240">
        <ele>148.0</ele>
        <time>2019-12-20T08:48:43Z</time>
      </trkpt>
      <trkpt lat="38.2991980" lon="-0.6158890">
        <ele>147.8</ele>
        <time>2019-12-20T08:48:44Z</time>
      </trkpt>
      <trkpt lat="38.2991720" lon="-0.6159550">
        <ele>147.8</ele>
        <time>2019-12-20T08:48:45Z</time>
      </trkpt>
      <trkpt lat="38.2991490" lon="-0.6160250">
        <ele>147.8</ele>
        <time>2019-12-20T08:48:46Z</time>
      </trkpt>
      <trkpt lat="38.2991290" lon="-0.6160970">
        <ele>147.8</ele>
        <time>2019-12-20T08:48:47Z</time>
      </trkpt>
      <trkpt lat="38.2991220" lon="-0.6161730">
        <ele>147.8</ele>
        <time>2019-12-20T08:48:48Z</time>
      </trkpt>
      <trkpt lat="38.2991280" lon="-0.6162480">
        <ele>147.8</ele>
        <time>2019-12-20T08:48:49Z</time>
      </trkpt>
      <trkpt lat="38.2991400" lon="-0.6163220">
        <ele>147.8</ele>
        <time>2019-12-20T08:48:50Z</time>
      </trkpt>
      <trkpt lat="38.2991550" lon="-0.6163960">
        <ele>147.8</ele>
        <time>2019-12-20T08:48:51Z</time>
      </trkpt>
      <trkpt lat="38.2991720" lon="-0.6164700">
        <ele>147.4</ele>
        <time>2019-12-20T08:48:52Z</time>
      </trkpt>
      <trkpt lat="38.2991860" lon="-0.6165460">
        <ele>147.4</ele>
        <time>2019-12-20T08:48:53Z</time>
      </trkpt>
      <trkpt lat="38.2991920" lon="-0.6166240">
        <ele>147.4</ele>
        <time>2019-12-20T08:48:54Z</time>
      </trkpt>
      <trkpt lat="38.2991860" lon="-0.6167050">
        <ele>147.4</ele>
        <time>2019-12-20T08:48:55Z</time>
      </trkpt>
      <trkpt lat="38.2991710" lon="-0.6167820">
        <ele>147.2</ele>
        <time>2019-12-20T08:48:56Z</time>
      </trkpt>
      <trkpt lat="38.2991470" lon="-0.6168540">
        <ele>147.4</ele>
        <time>2019-12-20T08:48:57Z</time>
      </trkpt>
      <trkpt lat="38.2991210" lon="-0.6169250">
        <ele>147.4</ele>
        <time>2019-12-20T08:48:58Z</time>
      </trkpt>
      <trkpt lat="38.2990960" lon="-0.6169950">
        <ele>147.6</ele>
        <time>2019-12-20T08:48:59Z</time>
      </trkpt>
      <trkpt lat="38.2990720" lon="-0.6170630">
        <ele>147.8</ele>
        <time>2019-12-20T08:49:00Z</time>
      </trkpt>
      <trkpt lat="38.2990490" lon="-0.6171300">
        <ele>147.8</ele>
        <time>2019-12-20T08:49:01Z</time>
      </trkpt>
      <trkpt lat="38.2990270" lon="-0.6171980">
        <ele>147.8</ele>
        <time>2019-12-20T08:49:02Z</time>
      </trkpt>
      <trkpt lat="38.2990020" lon="-0.6172660">
        <ele>148.0</ele>
        <time>2019-12-20T08:49:03Z</time>
      </trkpt>
      <trkpt lat="38.2989770" lon="-0.6173320">
        <ele>148.0</ele>
        <time>2019-12-20T08:49:04Z</time>
      </trkpt>
      <trkpt lat="38.2989520" lon="-0.6173990">
        <ele>148.2</ele>
        <time>2019-12-20T08:49:05Z</time>
      </trkpt>
      <trkpt lat="38.2989270" lon="-0.6174660">
        <ele>148.4</ele>
        <time>2019-12-20T08:49:06Z</time>
      </trkpt>
      <trkpt lat="38.2989020" lon="-0.6175340">
        <ele>148.4</ele>
        <time>2019-12-20T08:49:07Z</time>
      </trkpt>
      <trkpt lat="38.2988780" lon="-0.6176020">
        <ele>148.4</ele>
        <time>2019-12-20T08:49:08Z</time>
      </trkpt>
      <trkpt lat="38.2988520" lon="-0.6176700">
        <ele>148.4</ele>
        <time>2019-12-20T08:49:09Z</time>
      </trkpt>
      <trkpt lat="38.2988270" lon="-0.6177410">
        <ele>148.4</ele>
        <time>2019-12-20T08:49:10Z</time>
      </trkpt>
      <trkpt lat="38.2988030" lon="-0.6178110">
        <ele>148.6</ele>
        <time>2019-12-20T08:49:11Z</time>
      </trkpt>
      <trkpt lat="38.2987790" lon="-0.6178800">
        <ele>148.6</ele>
        <time>2019-12-20T08:49:12Z</time>
      </trkpt>
      <trkpt lat="38.2987530" lon="-0.6179490">
        <ele>148.8</ele>
        <time>2019-12-20T08:49:13Z</time>
      </trkpt>
      <trkpt lat="38.2987270" lon="-0.6180180">
        <ele>148.8</ele>
        <time>2019-12-20T08:49:14Z</time>
      </trkpt>
      <trkpt lat="38.2987010" lon="-0.6180870">
        <ele>148.8</ele>
        <time>2019-12-20T08:49:15Z</time>
      </trkpt>
      <trkpt lat="38.2986740" lon="-0.6181560">
        <ele>149.0</ele>
        <time>2019-12-20T08:49:16Z</time>
      </trkpt>
      <trkpt lat="38.2986480" lon="-0.6182250">
        <ele>148.8</ele>
        <time>2019-12-20T08:49:17Z</time>
      </trkpt>
      <trkpt lat="38.2986210" lon="-0.6182940">
        <ele>149.0</ele>
        <time>2019-12-20T08:49:18Z</time>
      </trkpt>
      <trkpt lat="38.2985950" lon="-0.6183630">
        <ele>149.0</ele>
        <time>2019-12-20T08:49:19Z</time>
      </trkpt>
      <trkpt lat="38.2985680" lon="-0.6184330">
        <ele>149.0</ele>
        <time>2019-12-20T08:49:20Z</time>
      </trkpt>
      <trkpt lat="38.2985410" lon="-0.6185020">
        <ele>149.2</ele>
        <time>2019-12-20T08:49:21Z</time>
      </trkpt>
      <trkpt lat="38.2985150" lon="-0.6185710">
        <ele>149.2</ele>
        <time>2019-12-20T08:49:22Z</time>
      </trkpt>
      <trkpt lat="38.2984890" lon="-0.6186400">
        <ele>149.4</ele>
        <time>2019-12-20T08:49:23Z</time>
      </trkpt>
      <trkpt lat="38.2984620" lon="-0.6187080">
        <ele>149.4</ele>
        <time>2019-12-20T08:49:24Z</time>
      </trkpt>
      <trkpt lat="38.2984420" lon="-0.6187600">
        <ele>149.6</ele>
        <time>2019-12-20T08:49:25Z</time>
      </trkpt>
      <trkpt lat="38.2984220" lon="-0.6188110">
        <ele>149.8</ele>
        <time>2019-12-20T08:49:26Z</time>
      </trkpt>
      <trkpt lat="38.2983820" lon="-0.6189130">
        <ele>149.6</ele>
        <time>2019-12-20T08:49:27Z</time>
      </trkpt>
      <trkpt lat="38.2983570" lon="-0.6189810">
        <ele>149.8</ele>
        <time>2019-12-20T08:49:28Z</time>
      </trkpt>
      <trkpt lat="38.2983310" lon="-0.6190500">
        <ele>149.8</ele>
        <time>2019-12-20T08:49:29Z</time>
      </trkpt>
      <trkpt lat="38.2983050" lon="-0.6191170">
        <ele>150.0</ele>
        <time>2019-12-20T08:49:30Z</time>
      </trkpt>
      <trkpt lat="38.2982860" lon="-0.6191680">
        <ele>150.0</ele>
        <time>2019-12-20T08:49:31Z</time>
      </trkpt>
      <trkpt lat="38.2982670" lon="-0.6192190">
        <ele>150.0</ele>
        <time>2019-12-20T08:49:32Z</time>
      </trkpt>
      <trkpt lat="38.2982280" lon="-0.6193200">
        <ele>150.0</ele>
        <time>2019-12-20T08:49:33Z</time>
      </trkpt>
      <trkpt lat="38.2982040" lon="-0.6193900">
        <ele>150.0</ele>
        <time>2019-12-20T08:49:34Z</time>
      </trkpt>
      <trkpt lat="38.2981800" lon="-0.6194590">
        <ele>150.0</ele>
        <time>2019-12-20T08:49:35Z</time>
      </trkpt>
      <trkpt lat="38.2981560" lon="-0.6195270">
        <ele>150.0</ele>
        <time>2019-12-20T08:49:36Z</time>
      </trkpt>
      <trkpt lat="38.2981320" lon="-0.6195950">
        <ele>150.0</ele>
        <time>2019-12-20T08:49:37Z</time>
      </trkpt>
      <trkpt lat="38.2981070" lon="-0.6196630">
        <ele>150.0</ele>
        <time>2019-12-20T08:49:38Z</time>
      </trkpt>
      <trkpt lat="38.2980900" lon="-0.6197150">
        <ele>150.0</ele>
        <time>2019-12-20T08:49:39Z</time>
      </trkpt>
      <trkpt lat="38.2980720" lon="-0.6197660">
        <ele>150.0</ele>
        <time>2019-12-20T08:49:40Z</time>
      </trkpt>
      <trkpt lat="38.2980360" lon="-0.6198680">
        <ele>150.0</ele>
        <time>2019-12-20T08:49:41Z</time>
      </trkpt>
      <trkpt lat="38.2980130" lon="-0.6199360">
        <ele>150.2</ele>
        <time>2019-12-20T08:49:42Z</time>
      </trkpt>
      <trkpt lat="38.2979910" lon="-0.6200040">
        <ele>150.2</ele>
        <time>2019-12-20T08:49:43Z</time>
      </trkpt>
      <trkpt lat="38.2979690" lon="-0.6200730">
        <ele>150.4</ele>
        <time>2019-12-20T08:49:44Z</time>
      </trkpt>
      <trkpt lat="38.2979460" lon="-0.6201400">
        <ele>150.4</ele>
        <time>2019-12-20T08:49:45Z</time>
      </trkpt>
      <trkpt lat="38.2979220" lon="-0.6202080">
        <ele>150.4</ele>
        <time>2019-12-20T08:49:46Z</time>
      </trkpt>
      <trkpt lat="38.2978990" lon="-0.6202780">
        <ele>150.4</ele>
        <time>2019-12-20T08:49:47Z</time>
      </trkpt>
      <trkpt lat="38.2978750" lon="-0.6203490">
        <ele>150.4</ele>
        <time>2019-12-20T08:49:48Z</time>
      </trkpt>
      <trkpt lat="38.2978520" lon="-0.6204170">
        <ele>150.4</ele>
        <time>2019-12-20T08:49:49Z</time>
      </trkpt>
      <trkpt lat="38.2978290" lon="-0.6204860">
        <ele>150.4</ele>
        <time>2019-12-20T08:49:50Z</time>
      </trkpt>
      <trkpt lat="38.2978060" lon="-0.6205570">
        <ele>150.4</ele>
        <time>2019-12-20T08:49:51Z</time>
      </trkpt>
      <trkpt lat="38.2977840" lon="-0.6206290">
        <ele>150.4</ele>
        <time>2019-12-20T08:49:52Z</time>
      </trkpt>
      <trkpt lat="38.2977630" lon="-0.6207000">
        <ele>150.4</ele>
        <time>2019-12-20T08:49:53Z</time>
      </trkpt>
      <trkpt lat="38.2977410" lon="-0.6207710">
        <ele>150.4</ele>
        <time>2019-12-20T08:49:54Z</time>
      </trkpt>
      <trkpt lat="38.2977190" lon="-0.6208430">
        <ele>150.4</ele>
        <time>2019-12-20T08:49:55Z</time>
      </trkpt>
      <trkpt lat="38.2976970" lon="-0.6209150">
        <ele>150.2</ele>
        <time>2019-12-20T08:49:56Z</time>
      </trkpt>
      <trkpt lat="38.2976750" lon="-0.6209890">
        <ele>150.2</ele>
        <time>2019-12-20T08:49:57Z</time>
      </trkpt>
      <trkpt lat="38.2976530" lon="-0.6210640">
        <ele>150.2</ele>
        <time>2019-12-20T08:49:58Z</time>
      </trkpt>
      <trkpt lat="38.2976310" lon="-0.6211380">
        <ele>150.2</ele>
        <time>2019-12-20T08:49:59Z</time>
      </trkpt>
      <trkpt lat="38.2976090" lon="-0.6212150">
        <ele>150.2</ele>
        <time>2019-12-20T08:50:00Z</time>
      </trkpt>
      <trkpt lat="38.2975870" lon="-0.6212930">
        <ele>150.0</ele>
        <time>2019-12-20T08:50:01Z</time>
      </trkpt>
      <trkpt lat="38.2975660" lon="-0.6213720">
        <ele>149.8</ele>
        <time>2019-12-20T08:50:02Z</time>
      </trkpt>
      <trkpt lat="38.2975450" lon="-0.6214500">
        <ele>149.8</ele>
        <time>2019-12-20T08:50:03Z</time>
      </trkpt>
      <trkpt lat="38.2975240" lon="-0.6215290">
        <ele>149.6</ele>
        <time>2019-12-20T08:50:04Z</time>
      </trkpt>
      <trkpt lat="38.2975040" lon="-0.6216080">
        <ele>149.6</ele>
        <time>2019-12-20T08:50:05Z</time>
      </trkpt>
      <trkpt lat="38.2974830" lon="-0.6216860">
        <ele>149.6</ele>
        <time>2019-12-20T08:50:06Z</time>
      </trkpt>
      <trkpt lat="38.2974620" lon="-0.6217650">
        <ele>149.4</ele>
        <time>2019-12-20T08:50:07Z</time>
      </trkpt>
      <trkpt lat="38.2974420" lon="-0.6218450">
        <ele>149.4</ele>
        <time>2019-12-20T08:50:08Z</time>
      </trkpt>
      <trkpt lat="38.2974220" lon="-0.6219240">
        <ele>149.2</ele>
        <time>2019-12-20T08:50:09Z</time>
      </trkpt>
      <trkpt lat="38.2974030" lon="-0.6220050">
        <ele>149.6</ele>
        <time>2019-12-20T08:50:10Z</time>
      </trkpt>
      <trkpt lat="38.2973850" lon="-0.6220860">
        <ele>149.4</ele>
        <time>2019-12-20T08:50:11Z</time>
      </trkpt>
      <trkpt lat="38.2973660" lon="-0.6221670">
        <ele>149.4</ele>
        <time>2019-12-20T08:50:12Z</time>
      </trkpt>
      <trkpt lat="38.2973480" lon="-0.6222480">
        <ele>149.4</ele>
        <time>2019-12-20T08:50:13Z</time>
      </trkpt>
      <trkpt lat="38.2973310" lon="-0.6223270">
        <ele>149.2</ele>
        <time>2019-12-20T08:50:14Z</time>
      </trkpt>
      <trkpt lat="38.2973130" lon="-0.6224070">
        <ele>149.0</ele>
        <time>2019-12-20T08:50:15Z</time>
      </trkpt>
      <trkpt lat="38.2972950" lon="-0.6224880">
        <ele>149.2</ele>
        <time>2019-12-20T08:50:16Z</time>
      </trkpt>
      <trkpt lat="38.2972770" lon="-0.6225680">
        <ele>148.8</ele>
        <time>2019-12-20T08:50:17Z</time>
      </trkpt>
      <trkpt lat="38.2972610" lon="-0.6226480">
        <ele>148.8</ele>
        <time>2019-12-20T08:50:18Z</time>
      </trkpt>
      <trkpt lat="38.2972440" lon="-0.6227280">
        <ele>148.8</ele>
        <time>2019-12-20T08:50:19Z</time>
      </trkpt>
      <trkpt lat="38.2972270" lon="-0.6228070">
        <ele>148.8</ele>
        <time>2019-12-20T08:50:20Z</time>
      </trkpt>
      <trkpt lat="38.2972120" lon="-0.6228870">
        <ele>148.6</ele>
        <time>2019-12-20T08:50:21Z</time>
      </trkpt>
      <trkpt lat="38.2971970" lon="-0.6229660">
        <ele>148.6</ele>
        <time>2019-12-20T08:50:22Z</time>
      </trkpt>
      <trkpt lat="38.2971800" lon="-0.6230450">
        <ele>148.6</ele>
        <time>2019-12-20T08:50:23Z</time>
      </trkpt>
      <trkpt lat="38.2971700" lon="-0.6231050">
        <ele>148.6</ele>
        <time>2019-12-20T08:50:24Z</time>
      </trkpt>
      <trkpt lat="38.2971590" lon="-0.6231640">
        <ele>148.4</ele>
        <time>2019-12-20T08:50:25Z</time>
      </trkpt>
      <trkpt lat="38.2971380" lon="-0.6232820">
        <ele>148.4</ele>
        <time>2019-12-20T08:50:26Z</time>
      </trkpt>
      <trkpt lat="38.2971250" lon="-0.6233610">
        <ele>148.4</ele>
        <time>2019-12-20T08:50:27Z</time>
      </trkpt>
      <trkpt lat="38.2971120" lon="-0.6234410">
        <ele>148.2</ele>
        <time>2019-12-20T08:50:28Z</time>
      </trkpt>
      <trkpt lat="38.2970990" lon="-0.6235210">
        <ele>148.2</ele>
        <time>2019-12-20T08:50:29Z</time>
      </trkpt>
      <trkpt lat="38.2970860" lon="-0.6236000">
        <ele>148.2</ele>
        <time>2019-12-20T08:50:30Z</time>
      </trkpt>
      <trkpt lat="38.2970730" lon="-0.6236790">
        <ele>148.0</ele>
        <time>2019-12-20T08:50:31Z</time>
      </trkpt>
      <trkpt lat="38.2970610" lon="-0.6237590">
        <ele>148.0</ele>
        <time>2019-12-20T08:50:32Z</time>
      </trkpt>
      <trkpt lat="38.2970470" lon="-0.6238380">
        <ele>148.4</ele>
        <time>2019-12-20T08:50:33Z</time>
      </trkpt>
      <trkpt lat="38.2970340" lon="-0.6239190">
        <ele>148.0</ele>
        <time>2019-12-20T08:50:34Z</time>
      </trkpt>
      <trkpt lat="38.2970210" lon="-0.6240010">
        <ele>148.0</ele>
        <time>2019-12-20T08:50:35Z</time>
      </trkpt>
      <trkpt lat="38.2970100" lon="-0.6240840">
        <ele>148.0</ele>
        <time>2019-12-20T08:50:36Z</time>
      </trkpt>
      <trkpt lat="38.2969990" lon="-0.6241680">
        <ele>148.0</ele>
        <time>2019-12-20T08:50:37Z</time>
      </trkpt>
      <trkpt lat="38.2969880" lon="-0.6242510">
        <ele>148.0</ele>
        <time>2019-12-20T08:50:38Z</time>
      </trkpt>
      <trkpt lat="38.2969760" lon="-0.6243340">
        <ele>148.0</ele>
        <time>2019-12-20T08:50:39Z</time>
      </trkpt>
      <trkpt lat="38.2969640" lon="-0.6244180">
        <ele>148.0</ele>
        <time>2019-12-20T08:50:40Z</time>
      </trkpt>
      <trkpt lat="38.2969530" lon="-0.6245010">
        <ele>147.8</ele>
        <time>2019-12-20T08:50:41Z</time>
      </trkpt>
      <trkpt lat="38.2969420" lon="-0.6245850">
        <ele>147.8</ele>
        <time>2019-12-20T08:50:42Z</time>
      </trkpt>
      <trkpt lat="38.2969300" lon="-0.6246690">
        <ele>147.8</ele>
        <time>2019-12-20T08:50:43Z</time>
      </trkpt>
      <trkpt lat="38.2969180" lon="-0.6247530">
        <ele>147.8</ele>
        <time>2019-12-20T08:50:44Z</time>
      </trkpt>
      <trkpt lat="38.2969070" lon="-0.6248370">
        <ele>147.8</ele>
        <time>2019-12-20T08:50:45Z</time>
      </trkpt>
      <trkpt lat="38.2968950" lon="-0.6249210">
        <ele>147.8</ele>
        <time>2019-12-20T08:50:46Z</time>
      </trkpt>
      <trkpt lat="38.2968850" lon="-0.6250060">
        <ele>147.8</ele>
        <time>2019-12-20T08:50:47Z</time>
      </trkpt>
      <trkpt lat="38.2968740" lon="-0.6250910">
        <ele>147.6</ele>
        <time>2019-12-20T08:50:48Z</time>
      </trkpt>
      <trkpt lat="38.2968630" lon="-0.6251750">
        <ele>147.4</ele>
        <time>2019-12-20T08:50:49Z</time>
      </trkpt>
      <trkpt lat="38.2968530" lon="-0.6252610">
        <ele>147.4</ele>
        <time>2019-12-20T08:50:50Z</time>
      </trkpt>
      <trkpt lat="38.2968450" lon="-0.6253250">
        <ele>147.2</ele>
        <time>2019-12-20T08:50:51Z</time>
      </trkpt>
      <trkpt lat="38.2968360" lon="-0.6253890">
        <ele>147.2</ele>
        <time>2019-12-20T08:50:52Z</time>
      </trkpt>
      <trkpt lat="38.2968190" lon="-0.6255160">
        <ele>147.4</ele>
        <time>2019-12-20T08:50:53Z</time>
      </trkpt>
      <trkpt lat="38.2968070" lon="-0.6256020">
        <ele>147.6</ele>
        <time>2019-12-20T08:50:54Z</time>
      </trkpt>
      <trkpt lat="38.2967930" lon="-0.6256870">
        <ele>147.4</ele>
        <time>2019-12-20T08:50:55Z</time>
      </trkpt>
      <trkpt lat="38.2967810" lon="-0.6257720">
        <ele>147.4</ele>
        <time>2019-12-20T08:50:56Z</time>
      </trkpt>
      <trkpt lat="38.2967700" lon="-0.6258570">
        <ele>147.4</ele>
        <time>2019-12-20T08:50:57Z</time>
      </trkpt>
      <trkpt lat="38.2967610" lon="-0.6259410">
        <ele>147.4</ele>
        <time>2019-12-20T08:50:58Z</time>
      </trkpt>
      <trkpt lat="38.2967520" lon="-0.6260250">
        <ele>147.2</ele>
        <time>2019-12-20T08:50:59Z</time>
      </trkpt>
      <trkpt lat="38.2967430" lon="-0.6261080">
        <ele>147.4</ele>
        <time>2019-12-20T08:51:00Z</time>
      </trkpt>
      <trkpt lat="38.2967340" lon="-0.6261900">
        <ele>147.2</ele>
        <time>2019-12-20T08:51:01Z</time>
      </trkpt>
      <trkpt lat="38.2967240" lon="-0.6262710">
        <ele>147.2</ele>
        <time>2019-12-20T08:51:02Z</time>
      </trkpt>
      <trkpt lat="38.2967140" lon="-0.6263520">
        <ele>147.4</ele>
        <time>2019-12-20T08:51:03Z</time>
      </trkpt>
      <trkpt lat="38.2967050" lon="-0.6264330">
        <ele>147.4</ele>
        <time>2019-12-20T08:51:04Z</time>
      </trkpt>
      <trkpt lat="38.2966950" lon="-0.6265140">
        <ele>147.6</ele>
        <time>2019-12-20T08:51:05Z</time>
      </trkpt>
      <trkpt lat="38.2966840" lon="-0.6265960">
        <ele>147.6</ele>
        <time>2019-12-20T08:51:06Z</time>
      </trkpt>
      <trkpt lat="38.2966740" lon="-0.6266750">
        <ele>147.6</ele>
        <time>2019-12-20T08:51:07Z</time>
      </trkpt>
      <trkpt lat="38.2966630" lon="-0.6267560">
        <ele>147.4</ele>
        <time>2019-12-20T08:51:08Z</time>
      </trkpt>
      <trkpt lat="38.2966520" lon="-0.6268350">
        <ele>147.4</ele>
        <time>2019-12-20T08:51:09Z</time>
      </trkpt>
      <trkpt lat="38.2966420" lon="-0.6269160">
        <ele>147.8</ele>
        <time>2019-12-20T08:51:10Z</time>
      </trkpt>
      <trkpt lat="38.2966330" lon="-0.6269970">
        <ele>147.8</ele>
        <time>2019-12-20T08:51:11Z</time>
      </trkpt>
      <trkpt lat="38.2966230" lon="-0.6270780">
        <ele>147.8</ele>
        <time>2019-12-20T08:51:12Z</time>
      </trkpt>
      <trkpt lat="38.2966120" lon="-0.6271590">
        <ele>147.8</ele>
        <time>2019-12-20T08:51:13Z</time>
      </trkpt>
      <trkpt lat="38.2966010" lon="-0.6272390">
        <ele>147.8</ele>
        <time>2019-12-20T08:51:14Z</time>
      </trkpt>
      <trkpt lat="38.2965910" lon="-0.6273180">
        <ele>147.8</ele>
        <time>2019-12-20T08:51:15Z</time>
      </trkpt>
      <trkpt lat="38.2965800" lon="-0.6273960">
        <ele>148.2</ele>
        <time>2019-12-20T08:51:16Z</time>
      </trkpt>
      <trkpt lat="38.2965700" lon="-0.6274750">
        <ele>148.2</ele>
        <time>2019-12-20T08:51:17Z</time>
      </trkpt>
      <trkpt lat="38.2965590" lon="-0.6275520">
        <ele>148.2</ele>
        <time>2019-12-20T08:51:18Z</time>
      </trkpt>
      <trkpt lat="38.2965490" lon="-0.6276300">
        <ele>148.2</ele>
        <time>2019-12-20T08:51:19Z</time>
      </trkpt>
      <trkpt lat="38.2965390" lon="-0.6277080">
        <ele>148.2</ele>
        <time>2019-12-20T08:51:20Z</time>
      </trkpt>
      <trkpt lat="38.2965290" lon="-0.6277850">
        <ele>148.2</ele>
        <time>2019-12-20T08:51:21Z</time>
      </trkpt>
      <trkpt lat="38.2965190" lon="-0.6278610">
        <ele>148.2</ele>
        <time>2019-12-20T08:51:22Z</time>
      </trkpt>
      <trkpt lat="38.2965080" lon="-0.6279380">
        <ele>148.4</ele>
        <time>2019-12-20T08:51:23Z</time>
      </trkpt>
      <trkpt lat="38.2964980" lon="-0.6280150">
        <ele>148.4</ele>
        <time>2019-12-20T08:51:24Z</time>
      </trkpt>
      <trkpt lat="38.2964890" lon="-0.6280920">
        <ele>148.4</ele>
        <time>2019-12-20T08:51:25Z</time>
      </trkpt>
      <trkpt lat="38.2964800" lon="-0.6281700">
        <ele>148.6</ele>
        <time>2019-12-20T08:51:26Z</time>
      </trkpt>
      <trkpt lat="38.2964700" lon="-0.6282460">
        <ele>148.6</ele>
        <time>2019-12-20T08:51:27Z</time>
      </trkpt>
      <trkpt lat="38.2964610" lon="-0.6283240">
        <ele>148.6</ele>
        <time>2019-12-20T08:51:28Z</time>
      </trkpt>
      <trkpt lat="38.2964510" lon="-0.6284020">
        <ele>149.0</ele>
        <time>2019-12-20T08:51:29Z</time>
      </trkpt>
      <trkpt lat="38.2964430" lon="-0.6284810">
        <ele>148.8</ele>
        <time>2019-12-20T08:51:30Z</time>
      </trkpt>
      <trkpt lat="38.2964340" lon="-0.6285580">
        <ele>148.8</ele>
        <time>2019-12-20T08:51:31Z</time>
      </trkpt>
      <trkpt lat="38.2964230" lon="-0.6286340">
        <ele>148.8</ele>
        <time>2019-12-20T08:51:32Z</time>
      </trkpt>
      <trkpt lat="38.2964120" lon="-0.6287100">
        <ele>149.0</ele>
        <time>2019-12-20T08:51:33Z</time>
      </trkpt>
      <trkpt lat="38.2964010" lon="-0.6287860">
        <ele>148.8</ele>
        <time>2019-12-20T08:51:34Z</time>
      </trkpt>
      <trkpt lat="38.2963900" lon="-0.6288610">
        <ele>148.8</ele>
        <time>2019-12-20T08:51:35Z</time>
      </trkpt>
      <trkpt lat="38.2963800" lon="-0.6289380">
        <ele>148.8</ele>
        <time>2019-12-20T08:51:36Z</time>
      </trkpt>
      <trkpt lat="38.2963720" lon="-0.6290140">
        <ele>149.2</ele>
        <time>2019-12-20T08:51:37Z</time>
      </trkpt>
      <trkpt lat="38.2963630" lon="-0.6290910">
        <ele>149.2</ele>
        <time>2019-12-20T08:51:38Z</time>
      </trkpt>
      <trkpt lat="38.2963540" lon="-0.6291660">
        <ele>149.4</ele>
        <time>2019-12-20T08:51:39Z</time>
      </trkpt>
      <trkpt lat="38.2963450" lon="-0.6292410">
        <ele>149.4</ele>
        <time>2019-12-20T08:51:40Z</time>
      </trkpt>
      <trkpt lat="38.2963360" lon="-0.6293160">
        <ele>149.6</ele>
        <time>2019-12-20T08:51:41Z</time>
      </trkpt>
      <trkpt lat="38.2963270" lon="-0.6293910">
        <ele>149.8</ele>
        <time>2019-12-20T08:51:42Z</time>
      </trkpt>
      <trkpt lat="38.2963180" lon="-0.6294670">
        <ele>149.6</ele>
        <time>2019-12-20T08:51:43Z</time>
      </trkpt>
      <trkpt lat="38.2963100" lon="-0.6295430">
        <ele>149.8</ele>
        <time>2019-12-20T08:51:44Z</time>
      </trkpt>
      <trkpt lat="38.2963010" lon="-0.6296190">
        <ele>149.8</ele>
        <time>2019-12-20T08:51:45Z</time>
      </trkpt>
      <trkpt lat="38.2962930" lon="-0.6296950">
        <ele>150.0</ele>
        <time>2019-12-20T08:51:46Z</time>
      </trkpt>
      <trkpt lat="38.2962830" lon="-0.6297700">
        <ele>149.8</ele>
        <time>2019-12-20T08:51:47Z</time>
      </trkpt>
      <trkpt lat="38.2962710" lon="-0.6298450">
        <ele>149.8</ele>
        <time>2019-12-20T08:51:48Z</time>
      </trkpt>
      <trkpt lat="38.2962590" lon="-0.6299190">
        <ele>149.8</ele>
        <time>2019-12-20T08:51:49Z</time>
      </trkpt>
      <trkpt lat="38.2962430" lon="-0.6299920">
        <ele>150.0</ele>
        <time>2019-12-20T08:51:50Z</time>
      </trkpt>
      <trkpt lat="38.2962220" lon="-0.6300620">
        <ele>150.0</ele>
        <time>2019-12-20T08:51:51Z</time>
      </trkpt>
      <trkpt lat="38.2961940" lon="-0.6301260">
        <ele>150.2</ele>
        <time>2019-12-20T08:51:52Z</time>
      </trkpt>
      <trkpt lat="38.2961610" lon="-0.6301840">
        <ele>150.6</ele>
        <time>2019-12-20T08:51:53Z</time>
      </trkpt>
      <trkpt lat="38.2961290" lon="-0.6302140">
        <ele>150.6</ele>
        <time>2019-12-20T08:51:54Z</time>
      </trkpt>
      <trkpt lat="38.2960960" lon="-0.6302430">
        <ele>150.8</ele>
        <time>2019-12-20T08:51:55Z</time>
      </trkpt>
      <trkpt lat="38.2960310" lon="-0.6303010">
        <ele>150.8</ele>
        <time>2019-12-20T08:51:56Z</time>
      </trkpt>
      <trkpt lat="38.2959920" lon="-0.6303380">
        <ele>151.0</ele>
        <time>2019-12-20T08:51:57Z</time>
      </trkpt>
      <trkpt lat="38.2959520" lon="-0.6303740">
        <ele>151.0</ele>
        <time>2019-12-20T08:51:58Z</time>
      </trkpt>
      <trkpt lat="38.2959310" lon="-0.6304110">
        <ele>151.0</ele>
        <time>2019-12-20T08:51:59Z</time>
      </trkpt>
      <trkpt lat="38.2959100" lon="-0.6304480">
        <ele>151.0</ele>
        <time>2019-12-20T08:52:00Z</time>
      </trkpt>
      <trkpt lat="38.2959020" lon="-0.6304640">
        <ele>150.8</ele>
        <time>2019-12-20T08:52:01Z</time>
      </trkpt>
      <trkpt lat="38.2958980" lon="-0.6304750">
        <ele>151.0</ele>
        <time>2019-12-20T08:52:02Z</time>
      </trkpt>
      <trkpt lat="38.2958950" lon="-0.6304830">
        <ele>151.2</ele>
        <time>2019-12-20T08:52:03Z</time>
      </trkpt>
      <trkpt lat="38.2958900" lon="-0.6304980">
        <ele>151.2</ele>
        <time>2019-12-20T08:52:04Z</time>
      </trkpt>
      <trkpt lat="38.2958770" lon="-0.6305210">
        <ele>151.0</ele>
        <time>2019-12-20T08:52:05Z</time>
      </trkpt>
      <trkpt lat="38.2958640" lon="-0.6305540">
        <ele>151.4</ele>
        <time>2019-12-20T08:52:06Z</time>
      </trkpt>
      <trkpt lat="38.2958520" lon="-0.6305950">
        <ele>151.0</ele>
        <time>2019-12-20T08:52:07Z</time>
      </trkpt>
      <trkpt lat="38.2958440" lon="-0.6306410">
        <ele>150.8</ele>
        <time>2019-12-20T08:52:08Z</time>
      </trkpt>
      <trkpt lat="38.2958430" lon="-0.6306960">
        <ele>150.8</ele>
        <time>2019-12-20T08:52:09Z</time>
      </trkpt>
      <trkpt lat="38.2958460" lon="-0.6307530">
        <ele>151.0</ele>
        <time>2019-12-20T08:52:10Z</time>
      </trkpt>
      <trkpt lat="38.2958540" lon="-0.6308090">
        <ele>150.8</ele>
        <time>2019-12-20T08:52:11Z</time>
      </trkpt>
      <trkpt lat="38.2958660" lon="-0.6308680">
        <ele>150.8</ele>
        <time>2019-12-20T08:52:12Z</time>
      </trkpt>
      <trkpt lat="38.2958790" lon="-0.6309260">
        <ele>150.8</ele>
        <time>2019-12-20T08:52:13Z</time>
      </trkpt>
      <trkpt lat="38.2958920" lon="-0.6309870">
        <ele>150.8</ele>
        <time>2019-12-20T08:52:14Z</time>
      </trkpt>
      <trkpt lat="38.2959050" lon="-0.6310470">
        <ele>151.0</ele>
        <time>2019-12-20T08:52:15Z</time>
      </trkpt>
      <trkpt lat="38.2959180" lon="-0.6311080">
        <ele>151.0</ele>
        <time>2019-12-20T08:52:16Z</time>
      </trkpt>
      <trkpt lat="38.2959300" lon="-0.6311700">
        <ele>151.2</ele>
        <time>2019-12-20T08:52:17Z</time>
      </trkpt>
      <trkpt lat="38.2959380" lon="-0.6312330">
        <ele>151.0</ele>
        <time>2019-12-20T08:52:18Z</time>
      </trkpt>
      <trkpt lat="38.2959390" lon="-0.6312990">
        <ele>151.0</ele>
        <time>2019-12-20T08:52:19Z</time>
      </trkpt>
      <trkpt lat="38.2959290" lon="-0.6313620">
        <ele>151.2</ele>
        <time>2019-12-20T08:52:20Z</time>
      </trkpt>
      <trkpt lat="38.2959150" lon="-0.6314250">
        <ele>151.2</ele>
        <time>2019-12-20T08:52:21Z</time>
      </trkpt>
      <trkpt lat="38.2958990" lon="-0.6314880">
        <ele>151.6</ele>
        <time>2019-12-20T08:52:22Z</time>
      </trkpt>
      <trkpt lat="38.2958810" lon="-0.6315500">
        <ele>151.4</ele>
        <time>2019-12-20T08:52:23Z</time>
      </trkpt>
      <trkpt lat="38.2958620" lon="-0.6316120">
        <ele>151.6</ele>
        <time>2019-12-20T08:52:24Z</time>
      </trkpt>
      <trkpt lat="38.2958420" lon="-0.6316740">
        <ele>151.6</ele>
        <time>2019-12-20T08:52:25Z</time>
      </trkpt>
      <trkpt lat="38.2958240" lon="-0.6317380">
        <ele>151.6</ele>
        <time>2019-12-20T08:52:26Z</time>
      </trkpt>
      <trkpt lat="38.2958050" lon="-0.6318020">
        <ele>151.8</ele>
        <time>2019-12-20T08:52:27Z</time>
      </trkpt>
      <trkpt lat="38.2957850" lon="-0.6318670">
        <ele>152.0</ele>
        <time>2019-12-20T08:52:28Z</time>
      </trkpt>
      <trkpt lat="38.2957650" lon="-0.6319330">
        <ele>152.0</ele>
        <time>2019-12-20T08:52:29Z</time>
      </trkpt>
      <trkpt lat="38.2957440" lon="-0.6319990">
        <ele>152.0</ele>
        <time>2019-12-20T08:52:30Z</time>
      </trkpt>
      <trkpt lat="38.2957230" lon="-0.6320640">
        <ele>152.0</ele>
        <time>2019-12-20T08:52:31Z</time>
      </trkpt>
      <trkpt lat="38.2957010" lon="-0.6321300">
        <ele>152.2</ele>
        <time>2019-12-20T08:52:32Z</time>
      </trkpt>
      <trkpt lat="38.2956790" lon="-0.6321960">
        <ele>152.2</ele>
        <time>2019-12-20T08:52:33Z</time>
      </trkpt>
      <trkpt lat="38.2956560" lon="-0.6322610">
        <ele>152.2</ele>
        <time>2019-12-20T08:52:34Z</time>
      </trkpt>
      <trkpt lat="38.2956350" lon="-0.6323270">
        <ele>152.2</ele>
        <time>2019-12-20T08:52:35Z</time>
      </trkpt>
      <trkpt lat="38.2956140" lon="-0.6323930">
        <ele>152.2</ele>
        <time>2019-12-20T08:52:36Z</time>
      </trkpt>
      <trkpt lat="38.2955930" lon="-0.6324590">
        <ele>152.2</ele>
        <time>2019-12-20T08:52:37Z</time>
      </trkpt>
      <trkpt lat="38.2955730" lon="-0.6325250">
        <ele>152.4</ele>
        <time>2019-12-20T08:52:38Z</time>
      </trkpt>
      <trkpt lat="38.2955530" lon="-0.6325910">
        <ele>152.4</ele>
        <time>2019-12-20T08:52:39Z</time>
      </trkpt>
      <trkpt lat="38.2955320" lon="-0.6326570">
        <ele>152.4</ele>
        <time>2019-12-20T08:52:40Z</time>
      </trkpt>
      <trkpt lat="38.2955120" lon="-0.6327230">
        <ele>152.6</ele>
        <time>2019-12-20T08:52:41Z</time>
      </trkpt>
      <trkpt lat="38.2954910" lon="-0.6327890">
        <ele>152.6</ele>
        <time>2019-12-20T08:52:42Z</time>
      </trkpt>
      <trkpt lat="38.2954710" lon="-0.6328560">
        <ele>152.6</ele>
        <time>2019-12-20T08:52:43Z</time>
      </trkpt>
      <trkpt lat="38.2954520" lon="-0.6329210">
        <ele>152.6</ele>
        <time>2019-12-20T08:52:44Z</time>
      </trkpt>
      <trkpt lat="38.2954330" lon="-0.6329880">
        <ele>152.6</ele>
        <time>2019-12-20T08:52:45Z</time>
      </trkpt>
      <trkpt lat="38.2954120" lon="-0.6330560">
        <ele>152.6</ele>
        <time>2019-12-20T08:52:46Z</time>
      </trkpt>
      <trkpt lat="38.2953900" lon="-0.6331230">
        <ele>152.6</ele>
        <time>2019-12-20T08:52:47Z</time>
      </trkpt>
      <trkpt lat="38.2953680" lon="-0.6331910">
        <ele>152.4</ele>
        <time>2019-12-20T08:52:48Z</time>
      </trkpt>
      <trkpt lat="38.2953470" lon="-0.6332580">
        <ele>152.6</ele>
        <time>2019-12-20T08:52:49Z</time>
      </trkpt>
      <trkpt lat="38.2953260" lon="-0.6333250">
        <ele>152.6</ele>
        <time>2019-12-20T08:52:50Z</time>
      </trkpt>
      <trkpt lat="38.2953050" lon="-0.6333910">
        <ele>152.6</ele>
        <time>2019-12-20T08:52:51Z</time>
      </trkpt>
      <trkpt lat="38.2952830" lon="-0.6334570">
        <ele>152.6</ele>
        <time>2019-12-20T08:52:52Z</time>
      </trkpt>
      <trkpt lat="38.2952630" lon="-0.6335220">
        <ele>152.6</ele>
        <time>2019-12-20T08:52:53Z</time>
      </trkpt>
      <trkpt lat="38.2952410" lon="-0.6335870">
        <ele>152.6</ele>
        <time>2019-12-20T08:52:54Z</time>
      </trkpt>
      <trkpt lat="38.2952180" lon="-0.6336490">
        <ele>152.8</ele>
        <time>2019-12-20T08:52:55Z</time>
      </trkpt>
      <trkpt lat="38.2951960" lon="-0.6337140">
        <ele>152.8</ele>
        <time>2019-12-20T08:52:56Z</time>
      </trkpt>
      <trkpt lat="38.2951740" lon="-0.6337780">
        <ele>152.8</ele>
        <time>2019-12-20T08:52:57Z</time>
      </trkpt>
      <trkpt lat="38.2951520" lon="-0.6338410">
        <ele>152.8</ele>
        <time>2019-12-20T08:52:58Z</time>
      </trkpt>
      <trkpt lat="38.2951280" lon="-0.6339050">
        <ele>152.8</ele>
        <time>2019-12-20T08:52:59Z</time>
      </trkpt>
      <trkpt lat="38.2951030" lon="-0.6339700">
        <ele>153.0</ele>
        <time>2019-12-20T08:53:00Z</time>
      </trkpt>
      <trkpt lat="38.2950790" lon="-0.6340370">
        <ele>153.0</ele>
        <time>2019-12-20T08:53:01Z</time>
      </trkpt>
      <trkpt lat="38.2950560" lon="-0.6341050">
        <ele>153.0</ele>
        <time>2019-12-20T08:53:02Z</time>
      </trkpt>
      <trkpt lat="38.2950340" lon="-0.6341730">
        <ele>153.2</ele>
        <time>2019-12-20T08:53:03Z</time>
      </trkpt>
      <trkpt lat="38.2950120" lon="-0.6342400">
        <ele>153.2</ele>
        <time>2019-12-20T08:53:04Z</time>
      </trkpt>
      <trkpt lat="38.2949890" lon="-0.6343070">
        <ele>153.2</ele>
        <time>2019-12-20T08:53:05Z</time>
      </trkpt>
      <trkpt lat="38.2949660" lon="-0.6343750">
        <ele>153.4</ele>
        <time>2019-12-20T08:53:06Z</time>
      </trkpt>
      <trkpt lat="38.2949430" lon="-0.6344440">
        <ele>153.2</ele>
        <time>2019-12-20T08:53:07Z</time>
      </trkpt>
      <trkpt lat="38.2949200" lon="-0.6345110">
        <ele>153.2</ele>
        <time>2019-12-20T08:53:08Z</time>
      </trkpt>
      <trkpt lat="38.2948980" lon="-0.6345780">
        <ele>153.2</ele>
        <time>2019-12-20T08:53:09Z</time>
      </trkpt>
      <trkpt lat="38.2948740" lon="-0.6346450">
        <ele>153.2</ele>
        <time>2019-12-20T08:53:10Z</time>
      </trkpt>
      <trkpt lat="38.2948500" lon="-0.6347110">
        <ele>153.4</ele>
        <time>2019-12-20T08:53:11Z</time>
      </trkpt>
      <trkpt lat="38.2948260" lon="-0.6347770">
        <ele>153.4</ele>
        <time>2019-12-20T08:53:12Z</time>
      </trkpt>
      <trkpt lat="38.2948020" lon="-0.6348440">
        <ele>153.4</ele>
        <time>2019-12-20T08:53:13Z</time>
      </trkpt>
      <trkpt lat="38.2947790" lon="-0.6349120">
        <ele>153.4</ele>
        <time>2019-12-20T08:53:14Z</time>
      </trkpt>
      <trkpt lat="38.2947560" lon="-0.6349790">
        <ele>153.6</ele>
        <time>2019-12-20T08:53:15Z</time>
      </trkpt>
      <trkpt lat="38.2947320" lon="-0.6350450">
        <ele>153.6</ele>
        <time>2019-12-20T08:53:16Z</time>
      </trkpt>
      <trkpt lat="38.2947080" lon="-0.6351120">
        <ele>153.6</ele>
        <time>2019-12-20T08:53:17Z</time>
      </trkpt>
      <trkpt lat="38.2946850" lon="-0.6351790">
        <ele>153.6</ele>
        <time>2019-12-20T08:53:18Z</time>
      </trkpt>
      <trkpt lat="38.2946620" lon="-0.6352470">
        <ele>153.8</ele>
        <time>2019-12-20T08:53:19Z</time>
      </trkpt>
      <trkpt lat="38.2946400" lon="-0.6353140">
        <ele>153.8</ele>
        <time>2019-12-20T08:53:20Z</time>
      </trkpt>
      <trkpt lat="38.2946170" lon="-0.6353800">
        <ele>153.8</ele>
        <time>2019-12-20T08:53:21Z</time>
      </trkpt>
      <trkpt lat="38.2945930" lon="-0.6354450">
        <ele>153.8</ele>
        <time>2019-12-20T08:53:22Z</time>
      </trkpt>
      <trkpt lat="38.2945690" lon="-0.6355090">
        <ele>154.0</ele>
        <time>2019-12-20T08:53:23Z</time>
      </trkpt>
      <trkpt lat="38.2945440" lon="-0.6355720">
        <ele>154.0</ele>
        <time>2019-12-20T08:53:24Z</time>
      </trkpt>
      <trkpt lat="38.2945190" lon="-0.6356340">
        <ele>153.8</ele>
        <time>2019-12-20T08:53:25Z</time>
      </trkpt>
      <trkpt lat="38.2944930" lon="-0.6356950">
        <ele>154.2</ele>
        <time>2019-12-20T08:53:26Z</time>
      </trkpt>
      <trkpt lat="38.2944680" lon="-0.6357550">
        <ele>154.0</ele>
        <time>2019-12-20T08:53:27Z</time>
      </trkpt>
      <trkpt lat="38.2944440" lon="-0.6358160">
        <ele>154.4</ele>
        <time>2019-12-20T08:53:28Z</time>
      </trkpt>
      <trkpt lat="38.2944170" lon="-0.6358750">
        <ele>154.2</ele>
        <time>2019-12-20T08:53:29Z</time>
      </trkpt>
      <trkpt lat="38.2943900" lon="-0.6359340">
        <ele>154.4</ele>
        <time>2019-12-20T08:53:30Z</time>
      </trkpt>
      <trkpt lat="38.2943630" lon="-0.6359920">
        <ele>154.4</ele>
        <time>2019-12-20T08:53:31Z</time>
      </trkpt>
      <trkpt lat="38.2943350" lon="-0.6360510">
        <ele>154.6</ele>
        <time>2019-12-20T08:53:32Z</time>
      </trkpt>
      <trkpt lat="38.2943070" lon="-0.6361090">
        <ele>154.6</ele>
        <time>2019-12-20T08:53:33Z</time>
      </trkpt>
      <trkpt lat="38.2942800" lon="-0.6361670">
        <ele>154.8</ele>
        <time>2019-12-20T08:53:34Z</time>
      </trkpt>
      <trkpt lat="38.2942530" lon="-0.6362260">
        <ele>154.6</ele>
        <time>2019-12-20T08:53:35Z</time>
      </trkpt>
      <trkpt lat="38.2942240" lon="-0.6362850">
        <ele>154.6</ele>
        <time>2019-12-20T08:53:36Z</time>
      </trkpt>
      <trkpt lat="38.2941960" lon="-0.6363440">
        <ele>154.6</ele>
        <time>2019-12-20T08:53:37Z</time>
      </trkpt>
      <trkpt lat="38.2941670" lon="-0.6364040">
        <ele>154.6</ele>
        <time>2019-12-20T08:53:38Z</time>
      </trkpt>
      <trkpt lat="38.2941450" lon="-0.6364480">
        <ele>154.8</ele>
        <time>2019-12-20T08:53:39Z</time>
      </trkpt>
      <trkpt lat="38.2941220" lon="-0.6364920">
        <ele>155.0</ele>
        <time>2019-12-20T08:53:40Z</time>
      </trkpt>
      <trkpt lat="38.2940770" lon="-0.6365800">
        <ele>154.8</ele>
        <time>2019-12-20T08:53:41Z</time>
      </trkpt>
      <trkpt lat="38.2940480" lon="-0.6366400">
        <ele>155.0</ele>
        <time>2019-12-20T08:53:42Z</time>
      </trkpt>
      <trkpt lat="38.2940190" lon="-0.6367010">
        <ele>155.0</ele>
        <time>2019-12-20T08:53:43Z</time>
      </trkpt>
      <trkpt lat="38.2939900" lon="-0.6367620">
        <ele>155.0</ele>
        <time>2019-12-20T08:53:44Z</time>
      </trkpt>
      <trkpt lat="38.2939600" lon="-0.6368220">
        <ele>155.0</ele>
        <time>2019-12-20T08:53:45Z</time>
      </trkpt>
      <trkpt lat="38.2939290" lon="-0.6368810">
        <ele>155.2</ele>
        <time>2019-12-20T08:53:46Z</time>
      </trkpt>
      <trkpt lat="38.2938980" lon="-0.6369400">
        <ele>155.2</ele>
        <time>2019-12-20T08:53:47Z</time>
      </trkpt>
      <trkpt lat="38.2938670" lon="-0.6370000">
        <ele>155.4</ele>
        <time>2019-12-20T08:53:48Z</time>
      </trkpt>
      <trkpt lat="38.2938340" lon="-0.6370600">
        <ele>155.4</ele>
        <time>2019-12-20T08:53:49Z</time>
      </trkpt>
      <trkpt lat="38.2938010" lon="-0.6371190">
        <ele>155.4</ele>
        <time>2019-12-20T08:53:50Z</time>
      </trkpt>
      <trkpt lat="38.2937700" lon="-0.6371800">
        <ele>155.4</ele>
        <time>2019-12-20T08:53:51Z</time>
      </trkpt>
      <trkpt lat="38.2937380" lon="-0.6372390">
        <ele>155.4</ele>
        <time>2019-12-20T08:53:52Z</time>
      </trkpt>
      <trkpt lat="38.2937030" lon="-0.6372960">
        <ele>155.6</ele>
        <time>2019-12-20T08:53:53Z</time>
      </trkpt>
      <trkpt lat="38.2936710" lon="-0.6373530">
        <ele>155.6</ele>
        <time>2019-12-20T08:53:54Z</time>
      </trkpt>
      <trkpt lat="38.2936390" lon="-0.6374100">
        <ele>155.8</ele>
        <time>2019-12-20T08:53:55Z</time>
      </trkpt>
      <trkpt lat="38.2936060" lon="-0.6374670">
        <ele>155.8</ele>
        <time>2019-12-20T08:53:56Z</time>
      </trkpt>
      <trkpt lat="38.2935720" lon="-0.6375230">
        <ele>156.0</ele>
        <time>2019-12-20T08:53:57Z</time>
      </trkpt>
      <trkpt lat="38.2935370" lon="-0.6375800">
        <ele>156.0</ele>
        <time>2019-12-20T08:53:58Z</time>
      </trkpt>
      <trkpt lat="38.2935030" lon="-0.6376370">
        <ele>156.0</ele>
        <time>2019-12-20T08:53:59Z</time>
      </trkpt>
      <trkpt lat="38.2934700" lon="-0.6376960">
        <ele>156.2</ele>
        <time>2019-12-20T08:54:00Z</time>
      </trkpt>
      <trkpt lat="38.2934390" lon="-0.6377550">
        <ele>156.0</ele>
        <time>2019-12-20T08:54:01Z</time>
      </trkpt>
      <trkpt lat="38.2934070" lon="-0.6378140">
        <ele>156.0</ele>
        <time>2019-12-20T08:54:02Z</time>
      </trkpt>
      <trkpt lat="38.2933720" lon="-0.6378720">
        <ele>156.0</ele>
        <time>2019-12-20T08:54:03Z</time>
      </trkpt>
      <trkpt lat="38.2933360" lon="-0.6379310">
        <ele>156.2</ele>
        <time>2019-12-20T08:54:04Z</time>
      </trkpt>
      <trkpt lat="38.2933010" lon="-0.6379890">
        <ele>156.2</ele>
        <time>2019-12-20T08:54:05Z</time>
      </trkpt>
      <trkpt lat="38.2932650" lon="-0.6380470">
        <ele>156.4</ele>
        <time>2019-12-20T08:54:06Z</time>
      </trkpt>
      <trkpt lat="38.2932300" lon="-0.6381060">
        <ele>156.4</ele>
        <time>2019-12-20T08:54:07Z</time>
      </trkpt>
      <trkpt lat="38.2931940" lon="-0.6381650">
        <ele>156.6</ele>
        <time>2019-12-20T08:54:08Z</time>
      </trkpt>
      <trkpt lat="38.2931590" lon="-0.6382260">
        <ele>156.6</ele>
        <time>2019-12-20T08:54:09Z</time>
      </trkpt>
      <trkpt lat="38.2931240" lon="-0.6382870">
        <ele>156.6</ele>
        <time>2019-12-20T08:54:10Z</time>
      </trkpt>
      <trkpt lat="38.2930890" lon="-0.6383470">
        <ele>156.6</ele>
        <time>2019-12-20T08:54:11Z</time>
      </trkpt>
      <trkpt lat="38.2930540" lon="-0.6384090">
        <ele>156.6</ele>
        <time>2019-12-20T08:54:12Z</time>
      </trkpt>
      <trkpt lat="38.2930230" lon="-0.6384710">
        <ele>156.6</ele>
        <time>2019-12-20T08:54:13Z</time>
      </trkpt>
      <trkpt lat="38.2929890" lon="-0.6385320">
        <ele>156.6</ele>
        <time>2019-12-20T08:54:14Z</time>
      </trkpt>
      <trkpt lat="38.2929540" lon="-0.6385930">
        <ele>156.6</ele>
        <time>2019-12-20T08:54:15Z</time>
      </trkpt>
      <trkpt lat="38.2929190" lon="-0.6386540">
        <ele>156.6</ele>
        <time>2019-12-20T08:54:16Z</time>
      </trkpt>
      <trkpt lat="38.2928850" lon="-0.6387150">
        <ele>156.4</ele>
        <time>2019-12-20T08:54:17Z</time>
      </trkpt>
      <trkpt lat="38.2928500" lon="-0.6387760">
        <ele>156.4</ele>
        <time>2019-12-20T08:54:18Z</time>
      </trkpt>
      <trkpt lat="38.2928140" lon="-0.6388380">
        <ele>156.6</ele>
        <time>2019-12-20T08:54:19Z</time>
      </trkpt>
      <trkpt lat="38.2927800" lon="-0.6389010">
        <ele>156.6</ele>
        <time>2019-12-20T08:54:20Z</time>
      </trkpt>
      <trkpt lat="38.2927460" lon="-0.6389640">
        <ele>156.6</ele>
        <time>2019-12-20T08:54:21Z</time>
      </trkpt>
      <trkpt lat="38.2927120" lon="-0.6390260">
        <ele>156.8</ele>
        <time>2019-12-20T08:54:22Z</time>
      </trkpt>
      <trkpt lat="38.2926780" lon="-0.6390890">
        <ele>156.8</ele>
        <time>2019-12-20T08:54:23Z</time>
      </trkpt>
      <trkpt lat="38.2926480" lon="-0.6391540">
        <ele>156.8</ele>
        <time>2019-12-20T08:54:24Z</time>
      </trkpt>
      <trkpt lat="38.2926160" lon="-0.6392180">
        <ele>156.8</ele>
        <time>2019-12-20T08:54:25Z</time>
      </trkpt>
      <trkpt lat="38.2925850" lon="-0.6392820">
        <ele>156.8</ele>
        <time>2019-12-20T08:54:26Z</time>
      </trkpt>
      <trkpt lat="38.2925530" lon="-0.6393440">
        <ele>156.8</ele>
        <time>2019-12-20T08:54:27Z</time>
      </trkpt>
      <trkpt lat="38.2925180" lon="-0.6394050">
        <ele>157.0</ele>
        <time>2019-12-20T08:54:28Z</time>
      </trkpt>
      <trkpt lat="38.2924830" lon="-0.6394660">
        <ele>157.2</ele>
        <time>2019-12-20T08:54:29Z</time>
      </trkpt>
      <trkpt lat="38.2924460" lon="-0.6395250">
        <ele>157.2</ele>
        <time>2019-12-20T08:54:30Z</time>
      </trkpt>
      <trkpt lat="38.2924100" lon="-0.6395850">
        <ele>157.2</ele>
        <time>2019-12-20T08:54:31Z</time>
      </trkpt>
      <trkpt lat="38.2923750" lon="-0.6396470">
        <ele>157.2</ele>
        <time>2019-12-20T08:54:32Z</time>
      </trkpt>
      <trkpt lat="38.2923400" lon="-0.6397070">
        <ele>156.8</ele>
        <time>2019-12-20T08:54:33Z</time>
      </trkpt>
      <trkpt lat="38.2923030" lon="-0.6397650">
        <ele>157.0</ele>
        <time>2019-12-20T08:54:34Z</time>
      </trkpt>
      <trkpt lat="38.2922680" lon="-0.6398260">
        <ele>157.0</ele>
        <time>2019-12-20T08:54:35Z</time>
      </trkpt>
      <trkpt lat="38.2922340" lon="-0.6398870">
        <ele>157.0</ele>
        <time>2019-12-20T08:54:36Z</time>
      </trkpt>
      <trkpt lat="38.2921980" lon="-0.6399470">
        <ele>156.8</ele>
        <time>2019-12-20T08:54:37Z</time>
      </trkpt>
      <trkpt lat="38.2921630" lon="-0.6400070">
        <ele>157.0</ele>
        <time>2019-12-20T08:54:38Z</time>
      </trkpt>
      <trkpt lat="38.2921260" lon="-0.6400660">
        <ele>157.0</ele>
        <time>2019-12-20T08:54:39Z</time>
      </trkpt>
      <trkpt lat="38.2920910" lon="-0.6401270">
        <ele>157.0</ele>
        <time>2019-12-20T08:54:40Z</time>
      </trkpt>
      <trkpt lat="38.2920560" lon="-0.6401870">
        <ele>157.0</ele>
        <time>2019-12-20T08:54:41Z</time>
      </trkpt>
      <trkpt lat="38.2920210" lon="-0.6402480">
        <ele>157.0</ele>
        <time>2019-12-20T08:54:42Z</time>
      </trkpt>
      <trkpt lat="38.2919840" lon="-0.6403080">
        <ele>157.0</ele>
        <time>2019-12-20T08:54:43Z</time>
      </trkpt>
      <trkpt lat="38.2919480" lon="-0.6403670">
        <ele>157.0</ele>
        <time>2019-12-20T08:54:44Z</time>
      </trkpt>
      <trkpt lat="38.2919100" lon="-0.6404260">
        <ele>157.2</ele>
        <time>2019-12-20T08:54:45Z</time>
      </trkpt>
      <trkpt lat="38.2918720" lon="-0.6404860">
        <ele>157.0</ele>
        <time>2019-12-20T08:54:46Z</time>
      </trkpt>
      <trkpt lat="38.2918340" lon="-0.6405460">
        <ele>157.2</ele>
        <time>2019-12-20T08:54:47Z</time>
      </trkpt>
      <trkpt lat="38.2917950" lon="-0.6406060">
        <ele>157.2</ele>
        <time>2019-12-20T08:54:48Z</time>
      </trkpt>
      <trkpt lat="38.2917570" lon="-0.6406680">
        <ele>157.0</ele>
        <time>2019-12-20T08:54:49Z</time>
      </trkpt>
      <trkpt lat="38.2917180" lon="-0.6407310">
        <ele>157.0</ele>
        <time>2019-12-20T08:54:50Z</time>
      </trkpt>
      <trkpt lat="38.2916810" lon="-0.6407950">
        <ele>157.0</ele>
        <time>2019-12-20T08:54:51Z</time>
      </trkpt>
      <trkpt lat="38.2916450" lon="-0.6408570">
        <ele>156.8</ele>
        <time>2019-12-20T08:54:52Z</time>
      </trkpt>
      <trkpt lat="38.2916080" lon="-0.6409210">
        <ele>157.0</ele>
        <time>2019-12-20T08:54:53Z</time>
      </trkpt>
      <trkpt lat="38.2915710" lon="-0.6409850">
        <ele>157.0</ele>
        <time>2019-12-20T08:54:54Z</time>
      </trkpt>
      <trkpt lat="38.2915340" lon="-0.6410480">
        <ele>157.2</ele>
        <time>2019-12-20T08:54:55Z</time>
      </trkpt>
      <trkpt lat="38.2914970" lon="-0.6411110">
        <ele>157.2</ele>
        <time>2019-12-20T08:54:56Z</time>
      </trkpt>
      <trkpt lat="38.2914610" lon="-0.6411740">
        <ele>157.2</ele>
        <time>2019-12-20T08:54:57Z</time>
      </trkpt>
      <trkpt lat="38.2914230" lon="-0.6412360">
        <ele>157.2</ele>
        <time>2019-12-20T08:54:58Z</time>
      </trkpt>
      <trkpt lat="38.2913860" lon="-0.6413000">
        <ele>157.0</ele>
        <time>2019-12-20T08:54:59Z</time>
      </trkpt>
      <trkpt lat="38.2913500" lon="-0.6413640">
        <ele>157.0</ele>
        <time>2019-12-20T08:55:00Z</time>
      </trkpt>
      <trkpt lat="38.2913150" lon="-0.6414290">
        <ele>157.0</ele>
        <time>2019-12-20T08:55:01Z</time>
      </trkpt>
      <trkpt lat="38.2912780" lon="-0.6414930">
        <ele>156.8</ele>
        <time>2019-12-20T08:55:02Z</time>
      </trkpt>
      <trkpt lat="38.2912420" lon="-0.6415570">
        <ele>157.0</ele>
        <time>2019-12-20T08:55:03Z</time>
      </trkpt>
      <trkpt lat="38.2912060" lon="-0.6416220">
        <ele>157.0</ele>
        <time>2019-12-20T08:55:04Z</time>
      </trkpt>
      <trkpt lat="38.2911680" lon="-0.6416860">
        <ele>157.2</ele>
        <time>2019-12-20T08:55:05Z</time>
      </trkpt>
      <trkpt lat="38.2911330" lon="-0.6417510">
        <ele>157.2</ele>
        <time>2019-12-20T08:55:06Z</time>
      </trkpt>
      <trkpt lat="38.2910980" lon="-0.6418170">
        <ele>156.8</ele>
        <time>2019-12-20T08:55:07Z</time>
      </trkpt>
      <trkpt lat="38.2910710" lon="-0.6418650">
        <ele>156.8</ele>
        <time>2019-12-20T08:55:08Z</time>
      </trkpt>
      <trkpt lat="38.2910440" lon="-0.6419130">
        <ele>156.8</ele>
        <time>2019-12-20T08:55:09Z</time>
      </trkpt>
      <trkpt lat="38.2909900" lon="-0.6420090">
        <ele>157.0</ele>
        <time>2019-12-20T08:55:10Z</time>
      </trkpt>
      <trkpt lat="38.2909560" lon="-0.6420740">
        <ele>157.2</ele>
        <time>2019-12-20T08:55:11Z</time>
      </trkpt>
      <trkpt lat="38.2909210" lon="-0.6421380">
        <ele>157.0</ele>
        <time>2019-12-20T08:55:12Z</time>
      </trkpt>
      <trkpt lat="38.2908870" lon="-0.6422030">
        <ele>157.0</ele>
        <time>2019-12-20T08:55:13Z</time>
      </trkpt>
      <trkpt lat="38.2908530" lon="-0.6422690">
        <ele>157.2</ele>
        <time>2019-12-20T08:55:14Z</time>
      </trkpt>
      <trkpt lat="38.2908190" lon="-0.6423340">
        <ele>157.2</ele>
        <time>2019-12-20T08:55:15Z</time>
      </trkpt>
      <trkpt lat="38.2907840" lon="-0.6423990">
        <ele>157.0</ele>
        <time>2019-12-20T08:55:16Z</time>
      </trkpt>
      <trkpt lat="38.2907520" lon="-0.6424660">
        <ele>157.0</ele>
        <time>2019-12-20T08:55:17Z</time>
      </trkpt>
      <trkpt lat="38.2907190" lon="-0.6425330">
        <ele>157.0</ele>
        <time>2019-12-20T08:55:18Z</time>
      </trkpt>
      <trkpt lat="38.2906860" lon="-0.6425990">
        <ele>157.2</ele>
        <time>2019-12-20T08:55:19Z</time>
      </trkpt>
      <trkpt lat="38.2906540" lon="-0.6426650">
        <ele>157.2</ele>
        <time>2019-12-20T08:55:20Z</time>
      </trkpt>
      <trkpt lat="38.2906210" lon="-0.6427320">
        <ele>157.2</ele>
        <time>2019-12-20T08:55:21Z</time>
      </trkpt>
      <trkpt lat="38.2905880" lon="-0.6428000">
        <ele>157.0</ele>
        <time>2019-12-20T08:55:22Z</time>
      </trkpt>
      <trkpt lat="38.2905560" lon="-0.6428680">
        <ele>157.2</ele>
        <time>2019-12-20T08:55:23Z</time>
      </trkpt>
      <trkpt lat="38.2905230" lon="-0.6429370">
        <ele>157.2</ele>
        <time>2019-12-20T08:55:24Z</time>
      </trkpt>
      <trkpt lat="38.2904900" lon="-0.6430060">
        <ele>157.2</ele>
        <time>2019-12-20T08:55:25Z</time>
      </trkpt>
      <trkpt lat="38.2904580" lon="-0.6430760">
        <ele>157.2</ele>
        <time>2019-12-20T08:55:26Z</time>
      </trkpt>
      <trkpt lat="38.2904260" lon="-0.6431460">
        <ele>157.2</ele>
        <time>2019-12-20T08:55:27Z</time>
      </trkpt>
      <trkpt lat="38.2903950" lon="-0.6432150">
        <ele>157.0</ele>
        <time>2019-12-20T08:55:28Z</time>
      </trkpt>
      <trkpt lat="38.2903660" lon="-0.6432860">
        <ele>157.0</ele>
        <time>2019-12-20T08:55:29Z</time>
      </trkpt>
      <trkpt lat="38.2903350" lon="-0.6433570">
        <ele>157.0</ele>
        <time>2019-12-20T08:55:30Z</time>
      </trkpt>
      <trkpt lat="38.2903050" lon="-0.6434270">
        <ele>157.2</ele>
        <time>2019-12-20T08:55:31Z</time>
      </trkpt>
      <trkpt lat="38.2902740" lon="-0.6434970">
        <ele>157.0</ele>
        <time>2019-12-20T08:55:32Z</time>
      </trkpt>
      <trkpt lat="38.2902430" lon="-0.6435660">
        <ele>157.0</ele>
        <time>2019-12-20T08:55:33Z</time>
      </trkpt>
      <trkpt lat="38.2902120" lon="-0.6436370">
        <ele>157.0</ele>
        <time>2019-12-20T08:55:34Z</time>
      </trkpt>
      <trkpt lat="38.2901850" lon="-0.6437100">
        <ele>157.0</ele>
        <time>2019-12-20T08:55:35Z</time>
      </trkpt>
      <trkpt lat="38.2901580" lon="-0.6437830">
        <ele>156.8</ele>
        <time>2019-12-20T08:55:36Z</time>
      </trkpt>
      <trkpt lat="38.2901300" lon="-0.6438550">
        <ele>157.0</ele>
        <time>2019-12-20T08:55:37Z</time>
      </trkpt>
      <trkpt lat="38.2901020" lon="-0.6439280">
        <ele>157.0</ele>
        <time>2019-12-20T08:55:38Z</time>
      </trkpt>
      <trkpt lat="38.2900750" lon="-0.6440020">
        <ele>157.2</ele>
        <time>2019-12-20T08:55:39Z</time>
      </trkpt>
      <trkpt lat="38.2900460" lon="-0.6440760">
        <ele>157.0</ele>
        <time>2019-12-20T08:55:40Z</time>
      </trkpt>
      <trkpt lat="38.2900190" lon="-0.6441510">
        <ele>157.0</ele>
        <time>2019-12-20T08:55:41Z</time>
      </trkpt>
      <trkpt lat="38.2899940" lon="-0.6442270">
        <ele>156.8</ele>
        <time>2019-12-20T08:55:42Z</time>
      </trkpt>
      <trkpt lat="38.2899690" lon="-0.6443030">
        <ele>157.0</ele>
        <time>2019-12-20T08:55:43Z</time>
      </trkpt>
      <trkpt lat="38.2899440" lon="-0.6443800">
        <ele>156.8</ele>
        <time>2019-12-20T08:55:44Z</time>
      </trkpt>
      <trkpt lat="38.2899190" lon="-0.6444570">
        <ele>157.0</ele>
        <time>2019-12-20T08:55:45Z</time>
      </trkpt>
      <trkpt lat="38.2898940" lon="-0.6445330">
        <ele>157.0</ele>
        <time>2019-12-20T08:55:46Z</time>
      </trkpt>
      <trkpt lat="38.2898690" lon="-0.6446070">
        <ele>157.0</ele>
        <time>2019-12-20T08:55:47Z</time>
      </trkpt>
      <trkpt lat="38.2898440" lon="-0.6446820">
        <ele>156.8</ele>
        <time>2019-12-20T08:55:48Z</time>
      </trkpt>
      <trkpt lat="38.2898210" lon="-0.6447560">
        <ele>157.0</ele>
        <time>2019-12-20T08:55:49Z</time>
      </trkpt>
      <trkpt lat="38.2897970" lon="-0.6448290">
        <ele>156.8</ele>
        <time>2019-12-20T08:55:50Z</time>
      </trkpt>
      <trkpt lat="38.2897710" lon="-0.6449010">
        <ele>157.0</ele>
        <time>2019-12-20T08:55:51Z</time>
      </trkpt>
      <trkpt lat="38.2897480" lon="-0.6449740">
        <ele>156.8</ele>
        <time>2019-12-20T08:55:52Z</time>
      </trkpt>
      <trkpt lat="38.2897220" lon="-0.6450460">
        <ele>156.6</ele>
        <time>2019-12-20T08:55:53Z</time>
      </trkpt>
      <trkpt lat="38.2897000" lon="-0.6451210">
        <ele>156.8</ele>
        <time>2019-12-20T08:55:54Z</time>
      </trkpt>
      <trkpt lat="38.2896760" lon="-0.6451940">
        <ele>157.0</ele>
        <time>2019-12-20T08:55:55Z</time>
      </trkpt>
      <trkpt lat="38.2896530" lon="-0.6452680">
        <ele>157.0</ele>
        <time>2019-12-20T08:55:56Z</time>
      </trkpt>
      <trkpt lat="38.2896310" lon="-0.6453430">
        <ele>157.0</ele>
        <time>2019-12-20T08:55:57Z</time>
      </trkpt>
      <trkpt lat="38.2896070" lon="-0.6454180">
        <ele>157.0</ele>
        <time>2019-12-20T08:55:58Z</time>
      </trkpt>
      <trkpt lat="38.2895840" lon="-0.6454920">
        <ele>156.8</ele>
        <time>2019-12-20T08:55:59Z</time>
      </trkpt>
      <trkpt lat="38.2895610" lon="-0.6455680">
        <ele>156.8</ele>
        <time>2019-12-20T08:56:00Z</time>
      </trkpt>
      <trkpt lat="38.2895380" lon="-0.6456430">
        <ele>156.8</ele>
        <time>2019-12-20T08:56:01Z</time>
      </trkpt>
      <trkpt lat="38.2895160" lon="-0.6457180">
        <ele>156.8</ele>
        <time>2019-12-20T08:56:02Z</time>
      </trkpt>
      <trkpt lat="38.2894950" lon="-0.6457940">
        <ele>156.8</ele>
        <time>2019-12-20T08:56:03Z</time>
      </trkpt>
      <trkpt lat="38.2894750" lon="-0.6458700">
        <ele>156.6</ele>
        <time>2019-12-20T08:56:04Z</time>
      </trkpt>
      <trkpt lat="38.2894550" lon="-0.6459470">
        <ele>156.8</ele>
        <time>2019-12-20T08:56:05Z</time>
      </trkpt>
      <trkpt lat="38.2894340" lon="-0.6460230">
        <ele>156.8</ele>
        <time>2019-12-20T08:56:06Z</time>
      </trkpt>
      <trkpt lat="38.2894120" lon="-0.6460980">
        <ele>156.8</ele>
        <time>2019-12-20T08:56:07Z</time>
      </trkpt>
      <trkpt lat="38.2893910" lon="-0.6461730">
        <ele>157.0</ele>
        <time>2019-12-20T08:56:08Z</time>
      </trkpt>
      <trkpt lat="38.2893720" lon="-0.6462490">
        <ele>157.0</ele>
        <time>2019-12-20T08:56:09Z</time>
      </trkpt>
      <trkpt lat="38.2893520" lon="-0.6463250">
        <ele>156.6</ele>
        <time>2019-12-20T08:56:10Z</time>
      </trkpt>
      <trkpt lat="38.2893320" lon="-0.6464010">
        <ele>156.8</ele>
        <time>2019-12-20T08:56:11Z</time>
      </trkpt>
      <trkpt lat="38.2893110" lon="-0.6464760">
        <ele>156.8</ele>
        <time>2019-12-20T08:56:12Z</time>
      </trkpt>
      <trkpt lat="38.2892900" lon="-0.6465520">
        <ele>156.6</ele>
        <time>2019-12-20T08:56:13Z</time>
      </trkpt>
      <trkpt lat="38.2892690" lon="-0.6466270">
        <ele>156.6</ele>
        <time>2019-12-20T08:56:14Z</time>
      </trkpt>
      <trkpt lat="38.2892490" lon="-0.6467040">
        <ele>156.6</ele>
        <time>2019-12-20T08:56:15Z</time>
      </trkpt>
      <trkpt lat="38.2892300" lon="-0.6467810">
        <ele>156.6</ele>
        <time>2019-12-20T08:56:16Z</time>
      </trkpt>
      <trkpt lat="38.2892190" lon="-0.6468390">
        <ele>156.6</ele>
        <time>2019-12-20T08:56:17Z</time>
      </trkpt>
      <trkpt lat="38.2892070" lon="-0.6468960">
        <ele>156.6</ele>
        <time>2019-12-20T08:56:18Z</time>
      </trkpt>
      <trkpt lat="38.2891830" lon="-0.6470110">
        <ele>156.4</ele>
        <time>2019-12-20T08:56:19Z</time>
      </trkpt>
      <trkpt lat="38.2891660" lon="-0.6470870">
        <ele>156.6</ele>
        <time>2019-12-20T08:56:20Z</time>
      </trkpt>
      <trkpt lat="38.2891480" lon="-0.6471630">
        <ele>156.6</ele>
        <time>2019-12-20T08:56:21Z</time>
      </trkpt>
      <trkpt lat="38.2891310" lon="-0.6472370">
        <ele>156.4</ele>
        <time>2019-12-20T08:56:22Z</time>
      </trkpt>
      <trkpt lat="38.2891130" lon="-0.6473130">
        <ele>156.4</ele>
        <time>2019-12-20T08:56:23Z</time>
      </trkpt>
      <trkpt lat="38.2890970" lon="-0.6473880">
        <ele>156.4</ele>
        <time>2019-12-20T08:56:24Z</time>
      </trkpt>
      <trkpt lat="38.2890810" lon="-0.6474640">
        <ele>156.2</ele>
        <time>2019-12-20T08:56:25Z</time>
      </trkpt>
      <trkpt lat="38.2890660" lon="-0.6475390">
        <ele>156.2</ele>
        <time>2019-12-20T08:56:26Z</time>
      </trkpt>
      <trkpt lat="38.2890500" lon="-0.6476150">
        <ele>156.2</ele>
        <time>2019-12-20T08:56:27Z</time>
      </trkpt>
      <trkpt lat="38.2890360" lon="-0.6476900">
        <ele>156.2</ele>
        <time>2019-12-20T08:56:28Z</time>
      </trkpt>
      <trkpt lat="38.2890230" lon="-0.6477650">
        <ele>156.0</ele>
        <time>2019-12-20T08:56:29Z</time>
      </trkpt>
      <trkpt lat="38.2890090" lon="-0.6478400">
        <ele>156.0</ele>
        <time>2019-12-20T08:56:30Z</time>
      </trkpt>
      <trkpt lat="38.2889930" lon="-0.6479150">
        <ele>156.2</ele>
        <time>2019-12-20T08:56:31Z</time>
      </trkpt>
      <trkpt lat="38.2889780" lon="-0.6479900">
        <ele>156.0</ele>
        <time>2019-12-20T08:56:32Z</time>
      </trkpt>
      <trkpt lat="38.2889630" lon="-0.6480660">
        <ele>156.0</ele>
        <time>2019-12-20T08:56:33Z</time>
      </trkpt>
      <trkpt lat="38.2889460" lon="-0.6481410">
        <ele>156.0</ele>
        <time>2019-12-20T08:56:34Z</time>
      </trkpt>
      <trkpt lat="38.2889290" lon="-0.6482170">
        <ele>156.0</ele>
        <time>2019-12-20T08:56:35Z</time>
      </trkpt>
      <trkpt lat="38.2889110" lon="-0.6482940">
        <ele>156.0</ele>
        <time>2019-12-20T08:56:36Z</time>
      </trkpt>
      <trkpt lat="38.2888940" lon="-0.6483730">
        <ele>155.8</ele>
        <time>2019-12-20T08:56:37Z</time>
      </trkpt>
      <trkpt lat="38.2888750" lon="-0.6484520">
        <ele>155.6</ele>
        <time>2019-12-20T08:56:38Z</time>
      </trkpt>
      <trkpt lat="38.2888550" lon="-0.6485290">
        <ele>155.4</ele>
        <time>2019-12-20T08:56:39Z</time>
      </trkpt>
      <trkpt lat="38.2888300" lon="-0.6486040">
        <ele>155.2</ele>
        <time>2019-12-20T08:56:40Z</time>
      </trkpt>
      <trkpt lat="38.2887960" lon="-0.6486730">
        <ele>155.2</ele>
        <time>2019-12-20T08:56:41Z</time>
      </trkpt>
      <trkpt lat="38.2887530" lon="-0.6487320">
        <ele>155.2</ele>
        <time>2019-12-20T08:56:42Z</time>
      </trkpt>
      <trkpt lat="38.2887040" lon="-0.6487830">
        <ele>155.4</ele>
        <time>2019-12-20T08:56:43Z</time>
      </trkpt>
      <trkpt lat="38.2886570" lon="-0.6488300">
        <ele>155.4</ele>
        <time>2019-12-20T08:56:44Z</time>
      </trkpt>
      <trkpt lat="38.2886140" lon="-0.6488790">
        <ele>155.4</ele>
        <time>2019-12-20T08:56:45Z</time>
      </trkpt>
      <trkpt lat="38.2885730" lon="-0.6489280">
        <ele>155.6</ele>
        <time>2019-12-20T08:56:46Z</time>
      </trkpt>
      <trkpt lat="38.2885340" lon="-0.6489780">
        <ele>155.6</ele>
        <time>2019-12-20T08:56:47Z</time>
      </trkpt>
      <trkpt lat="38.2885000" lon="-0.6490320">
        <ele>155.4</ele>
        <time>2019-12-20T08:56:48Z</time>
      </trkpt>
      <trkpt lat="38.2884780" lon="-0.6490900">
        <ele>155.4</ele>
        <time>2019-12-20T08:56:49Z</time>
      </trkpt>
      <trkpt lat="38.2884620" lon="-0.6491540">
        <ele>155.4</ele>
        <time>2019-12-20T08:56:50Z</time>
      </trkpt>
      <trkpt lat="38.2884500" lon="-0.6492240">
        <ele>155.6</ele>
        <time>2019-12-20T08:56:51Z</time>
      </trkpt>
      <trkpt lat="38.2884420" lon="-0.6492940">
        <ele>155.4</ele>
        <time>2019-12-20T08:56:52Z</time>
      </trkpt>
      <trkpt lat="38.2884390" lon="-0.6493630">
        <ele>155.6</ele>
        <time>2019-12-20T08:56:53Z</time>
      </trkpt>
      <trkpt lat="38.2884400" lon="-0.6494340">
        <ele>155.8</ele>
        <time>2019-12-20T08:56:54Z</time>
      </trkpt>
      <trkpt lat="38.2884450" lon="-0.6495040">
        <ele>155.6</ele>
        <time>2019-12-20T08:56:55Z</time>
      </trkpt>
      <trkpt lat="38.2884570" lon="-0.6495710">
        <ele>155.6</ele>
        <time>2019-12-20T08:56:56Z</time>
      </trkpt>
      <trkpt lat="38.2884740" lon="-0.6496340">
        <ele>155.8</ele>
        <time>2019-12-20T08:56:57Z</time>
      </trkpt>
      <trkpt lat="38.2884950" lon="-0.6496960">
        <ele>155.8</ele>
        <time>2019-12-20T08:56:58Z</time>
      </trkpt>
      <trkpt lat="38.2885200" lon="-0.6497560">
        <ele>155.8</ele>
        <time>2019-12-20T08:56:59Z</time>
      </trkpt>
      <trkpt lat="38.2885470" lon="-0.6498150">
        <ele>156.0</ele>
        <time>2019-12-20T08:57:00Z</time>
      </trkpt>
      <trkpt lat="38.2885700" lon="-0.6498740">
        <ele>155.8</ele>
        <time>2019-12-20T08:57:01Z</time>
      </trkpt>
      <trkpt lat="38.2885880" lon="-0.6499320">
        <ele>156.0</ele>
        <time>2019-12-20T08:57:02Z</time>
      </trkpt>
      <trkpt lat="38.2886070" lon="-0.6499740">
        <ele>156.0</ele>
        <time>2019-12-20T08:57:03Z</time>
      </trkpt>
      <trkpt lat="38.2886290" lon="-0.6499920">
        <ele>156.0</ele>
        <time>2019-12-20T08:57:04Z</time>
      </trkpt>
      <trkpt lat="38.2886490" lon="-0.6500050">
        <ele>156.0</ele>
        <time>2019-12-20T08:57:05Z</time>
      </trkpt>
      <trkpt lat="38.2886740" lon="-0.6500100">
        <ele>156.2</ele>
        <time>2019-12-20T08:57:06Z</time>
      </trkpt>
      <trkpt lat="38.2887050" lon="-0.6500140">
        <ele>156.6</ele>
        <time>2019-12-20T08:57:07Z</time>
      </trkpt>
      <trkpt lat="38.2887390" lon="-0.6500230">
        <ele>156.6</ele>
        <time>2019-12-20T08:57:08Z</time>
      </trkpt>
      <trkpt lat="38.2887760" lon="-0.6500370">
        <ele>156.8</ele>
        <time>2019-12-20T08:57:09Z</time>
      </trkpt>
      <trkpt lat="38.2888150" lon="-0.6500510">
        <ele>156.6</ele>
        <time>2019-12-20T08:57:10Z</time>
      </trkpt>
      <trkpt lat="38.2888550" lon="-0.6500690">
        <ele>156.6</ele>
        <time>2019-12-20T08:57:11Z</time>
      </trkpt>
      <trkpt lat="38.2888910" lon="-0.6501040">
        <ele>156.6</ele>
        <time>2019-12-20T08:57:12Z</time>
      </trkpt>
      <trkpt lat="38.2889100" lon="-0.6501570">
        <ele>156.6</ele>
        <time>2019-12-20T08:57:13Z</time>
      </trkpt>
      <trkpt lat="38.2889140" lon="-0.6502170">
        <ele>156.8</ele>
        <time>2019-12-20T08:57:14Z</time>
      </trkpt>
      <trkpt lat="38.2889110" lon="-0.6502820">
        <ele>156.4</ele>
        <time>2019-12-20T08:57:15Z</time>
      </trkpt>
      <trkpt lat="38.2889070" lon="-0.6503500">
        <ele>156.6</ele>
        <time>2019-12-20T08:57:16Z</time>
      </trkpt>
      <trkpt lat="38.2889030" lon="-0.6504220">
        <ele>156.2</ele>
        <time>2019-12-20T08:57:17Z</time>
      </trkpt>
      <trkpt lat="38.2889010" lon="-0.6504960">
        <ele>156.2</ele>
        <time>2019-12-20T08:57:18Z</time>
      </trkpt>
      <trkpt lat="38.2888980" lon="-0.6505690">
        <ele>156.0</ele>
        <time>2019-12-20T08:57:19Z</time>
      </trkpt>
      <trkpt lat="38.2888920" lon="-0.6506430">
        <ele>156.0</ele>
        <time>2019-12-20T08:57:20Z</time>
      </trkpt>
      <trkpt lat="38.2888900" lon="-0.6507170">
        <ele>155.6</ele>
        <time>2019-12-20T08:57:21Z</time>
      </trkpt>
      <trkpt lat="38.2888930" lon="-0.6507940">
        <ele>155.4</ele>
        <time>2019-12-20T08:57:22Z</time>
      </trkpt>
      <trkpt lat="38.2888900" lon="-0.6508700">
        <ele>155.4</ele>
        <time>2019-12-20T08:57:23Z</time>
      </trkpt>
      <trkpt lat="38.2888950" lon="-0.6509540">
        <ele>155.6</ele>
        <time>2019-12-20T08:57:24Z</time>
      </trkpt>
      <trkpt lat="38.2888880" lon="-0.6510320">
        <ele>155.4</ele>
        <time>2019-12-20T08:57:25Z</time>
      </trkpt>
      <trkpt lat="38.2888820" lon="-0.6511120">
        <ele>155.2</ele>
        <time>2019-12-20T08:57:26Z</time>
      </trkpt>
      <trkpt lat="38.2888770" lon="-0.6511930">
        <ele>155.4</ele>
        <time>2019-12-20T08:57:27Z</time>
      </trkpt>
      <trkpt lat="38.2888750" lon="-0.6512770">
        <ele>155.4</ele>
        <time>2019-12-20T08:57:28Z</time>
      </trkpt>
      <trkpt lat="38.2888690" lon="-0.6513570">
        <ele>155.4</ele>
        <time>2019-12-20T08:57:29Z</time>
      </trkpt>
      <trkpt lat="38.2888600" lon="-0.6514370">
        <ele>155.4</ele>
        <time>2019-12-20T08:57:30Z</time>
      </trkpt>
      <trkpt lat="38.2888520" lon="-0.6515170">
        <ele>155.4</ele>
        <time>2019-12-20T08:57:31Z</time>
      </trkpt>
      <trkpt lat="38.2888450" lon="-0.6515970">
        <ele>155.4</ele>
        <time>2019-12-20T08:57:32Z</time>
      </trkpt>
      <trkpt lat="38.2888390" lon="-0.6516790">
        <ele>155.4</ele>
        <time>2019-12-20T08:57:33Z</time>
      </trkpt>
      <trkpt lat="38.2888340" lon="-0.6517610">
        <ele>155.4</ele>
        <time>2019-12-20T08:57:34Z</time>
      </trkpt>
      <trkpt lat="38.2888300" lon="-0.6518430">
        <ele>155.4</ele>
        <time>2019-12-20T08:57:35Z</time>
      </trkpt>
      <trkpt lat="38.2888230" lon="-0.6519260">
        <ele>155.4</ele>
        <time>2019-12-20T08:57:36Z</time>
      </trkpt>
      <trkpt lat="38.2888180" lon="-0.6520100">
        <ele>155.4</ele>
        <time>2019-12-20T08:57:37Z</time>
      </trkpt>
      <trkpt lat="38.2888110" lon="-0.6520940">
        <ele>155.4</ele>
        <time>2019-12-20T08:57:38Z</time>
      </trkpt>
      <trkpt lat="38.2888060" lon="-0.6521760">
        <ele>155.4</ele>
        <time>2019-12-20T08:57:39Z</time>
      </trkpt>
      <trkpt lat="38.2888010" lon="-0.6522600">
        <ele>155.4</ele>
        <time>2019-12-20T08:57:40Z</time>
      </trkpt>
      <trkpt lat="38.2887960" lon="-0.6523430">
        <ele>155.2</ele>
        <time>2019-12-20T08:57:41Z</time>
      </trkpt>
      <trkpt lat="38.2887900" lon="-0.6524270">
        <ele>155.4</ele>
        <time>2019-12-20T08:57:42Z</time>
      </trkpt>
      <trkpt lat="38.2887830" lon="-0.6525100">
        <ele>155.2</ele>
        <time>2019-12-20T08:57:43Z</time>
      </trkpt>
      <trkpt lat="38.2887760" lon="-0.6525930">
        <ele>155.2</ele>
        <time>2019-12-20T08:57:44Z</time>
      </trkpt>
      <trkpt lat="38.2887690" lon="-0.6526760">
        <ele>155.4</ele>
        <time>2019-12-20T08:57:45Z</time>
      </trkpt>
      <trkpt lat="38.2887620" lon="-0.6527590">
        <ele>155.4</ele>
        <time>2019-12-20T08:57:46Z</time>
      </trkpt>
      <trkpt lat="38.2887550" lon="-0.6528420">
        <ele>155.2</ele>
        <time>2019-12-20T08:57:47Z</time>
      </trkpt>
      <trkpt lat="38.2887490" lon="-0.6529250">
        <ele>155.4</ele>
        <time>2019-12-20T08:57:48Z</time>
      </trkpt>
      <trkpt lat="38.2887410" lon="-0.6530080">
        <ele>155.2</ele>
        <time>2019-12-20T08:57:49Z</time>
      </trkpt>
      <trkpt lat="38.2887350" lon="-0.6530920">
        <ele>155.2</ele>
        <time>2019-12-20T08:57:50Z</time>
      </trkpt>
      <trkpt lat="38.2887290" lon="-0.6531760">
        <ele>155.2</ele>
        <time>2019-12-20T08:57:51Z</time>
      </trkpt>
      <trkpt lat="38.2887230" lon="-0.6532600">
        <ele>155.2</ele>
        <time>2019-12-20T08:57:52Z</time>
      </trkpt>
      <trkpt lat="38.2887160" lon="-0.6533450">
        <ele>155.4</ele>
        <time>2019-12-20T08:57:53Z</time>
      </trkpt>
      <trkpt lat="38.2887090" lon="-0.6534300">
        <ele>155.2</ele>
        <time>2019-12-20T08:57:54Z</time>
      </trkpt>
      <trkpt lat="38.2887010" lon="-0.6535150">
        <ele>155.2</ele>
        <time>2019-12-20T08:57:55Z</time>
      </trkpt>
      <trkpt lat="38.2886950" lon="-0.6536010">
        <ele>155.2</ele>
        <time>2019-12-20T08:57:56Z</time>
      </trkpt>
      <trkpt lat="38.2886900" lon="-0.6536870">
        <ele>155.4</ele>
        <time>2019-12-20T08:57:57Z</time>
      </trkpt>
      <trkpt lat="38.2886840" lon="-0.6537720">
        <ele>155.0</ele>
        <time>2019-12-20T08:57:58Z</time>
      </trkpt>
      <trkpt lat="38.2886760" lon="-0.6538560">
        <ele>155.0</ele>
        <time>2019-12-20T08:57:59Z</time>
      </trkpt>
      <trkpt lat="38.2886680" lon="-0.6539400">
        <ele>155.0</ele>
        <time>2019-12-20T08:58:00Z</time>
      </trkpt>
      <trkpt lat="38.2886610" lon="-0.6540250">
        <ele>155.2</ele>
        <time>2019-12-20T08:58:01Z</time>
      </trkpt>
      <trkpt lat="38.2886540" lon="-0.6541080">
        <ele>155.2</ele>
        <time>2019-12-20T08:58:02Z</time>
      </trkpt>
      <trkpt lat="38.2886480" lon="-0.6541920">
        <ele>155.0</ele>
        <time>2019-12-20T08:58:03Z</time>
      </trkpt>
      <trkpt lat="38.2886410" lon="-0.6542760">
        <ele>155.2</ele>
        <time>2019-12-20T08:58:04Z</time>
      </trkpt>
      <trkpt lat="38.2886350" lon="-0.6543610">
        <ele>155.2</ele>
        <time>2019-12-20T08:58:05Z</time>
      </trkpt>
      <trkpt lat="38.2886290" lon="-0.6544450">
        <ele>155.4</ele>
        <time>2019-12-20T08:58:06Z</time>
      </trkpt>
      <trkpt lat="38.2886240" lon="-0.6545300">
        <ele>155.2</ele>
        <time>2019-12-20T08:58:07Z</time>
      </trkpt>
      <trkpt lat="38.2886180" lon="-0.6546140">
        <ele>155.4</ele>
        <time>2019-12-20T08:58:08Z</time>
      </trkpt>
      <trkpt lat="38.2886120" lon="-0.6546970">
        <ele>155.2</ele>
        <time>2019-12-20T08:58:09Z</time>
      </trkpt>
      <trkpt lat="38.2886060" lon="-0.6547800">
        <ele>155.0</ele>
        <time>2019-12-20T08:58:10Z</time>
      </trkpt>
      <trkpt lat="38.2886000" lon="-0.6548620">
        <ele>155.2</ele>
        <time>2019-12-20T08:58:11Z</time>
      </trkpt>
      <trkpt lat="38.2885960" lon="-0.6549450">
        <ele>155.4</ele>
        <time>2019-12-20T08:58:12Z</time>
      </trkpt>
      <trkpt lat="38.2885900" lon="-0.6550280">
        <ele>155.6</ele>
        <time>2019-12-20T08:58:13Z</time>
      </trkpt>
      <trkpt lat="38.2885830" lon="-0.6551110">
        <ele>155.6</ele>
        <time>2019-12-20T08:58:14Z</time>
      </trkpt>
      <trkpt lat="38.2885780" lon="-0.6551930">
        <ele>155.4</ele>
        <time>2019-12-20T08:58:15Z</time>
      </trkpt>
      <trkpt lat="38.2885720" lon="-0.6552750">
        <ele>155.4</ele>
        <time>2019-12-20T08:58:16Z</time>
      </trkpt>
      <trkpt lat="38.2885670" lon="-0.6553560">
        <ele>155.4</ele>
        <time>2019-12-20T08:58:17Z</time>
      </trkpt>
      <trkpt lat="38.2885610" lon="-0.6554350">
        <ele>155.4</ele>
        <time>2019-12-20T08:58:18Z</time>
      </trkpt>
      <trkpt lat="38.2885550" lon="-0.6555140">
        <ele>155.4</ele>
        <time>2019-12-20T08:58:19Z</time>
      </trkpt>
      <trkpt lat="38.2885500" lon="-0.6555930">
        <ele>155.6</ele>
        <time>2019-12-20T08:58:20Z</time>
      </trkpt>
      <trkpt lat="38.2885440" lon="-0.6556730">
        <ele>155.8</ele>
        <time>2019-12-20T08:58:21Z</time>
      </trkpt>
      <trkpt lat="38.2885390" lon="-0.6557520">
        <ele>155.8</ele>
        <time>2019-12-20T08:58:22Z</time>
      </trkpt>
      <trkpt lat="38.2885330" lon="-0.6558300">
        <ele>155.8</ele>
        <time>2019-12-20T08:58:23Z</time>
      </trkpt>
      <trkpt lat="38.2885280" lon="-0.6559100">
        <ele>156.0</ele>
        <time>2019-12-20T08:58:24Z</time>
      </trkpt>
      <trkpt lat="38.2885230" lon="-0.6559860">
        <ele>156.0</ele>
        <time>2019-12-20T08:58:25Z</time>
      </trkpt>
      <trkpt lat="38.2885230" lon="-0.6560660">
        <ele>156.0</ele>
        <time>2019-12-20T08:58:26Z</time>
      </trkpt>
      <trkpt lat="38.2885210" lon="-0.6561470">
        <ele>155.8</ele>
        <time>2019-12-20T08:58:27Z</time>
      </trkpt>
      <trkpt lat="38.2885180" lon="-0.6562260">
        <ele>156.0</ele>
        <time>2019-12-20T08:58:28Z</time>
      </trkpt>
      <trkpt lat="38.2885120" lon="-0.6563020">
        <ele>156.0</ele>
        <time>2019-12-20T08:58:29Z</time>
      </trkpt>
      <trkpt lat="38.2885080" lon="-0.6563800">
        <ele>156.0</ele>
        <time>2019-12-20T08:58:30Z</time>
      </trkpt>
      <trkpt lat="38.2885040" lon="-0.6564570">
        <ele>156.0</ele>
        <time>2019-12-20T08:58:31Z</time>
      </trkpt>
      <trkpt lat="38.2884980" lon="-0.6565340">
        <ele>156.2</ele>
        <time>2019-12-20T08:58:32Z</time>
      </trkpt>
      <trkpt lat="38.2884940" lon="-0.6566110">
        <ele>156.2</ele>
        <time>2019-12-20T08:58:33Z</time>
      </trkpt>
      <trkpt lat="38.2884900" lon="-0.6566890">
        <ele>156.2</ele>
        <time>2019-12-20T08:58:34Z</time>
      </trkpt>
      <trkpt lat="38.2884850" lon="-0.6567670">
        <ele>156.2</ele>
        <time>2019-12-20T08:58:35Z</time>
      </trkpt>
      <trkpt lat="38.2884810" lon="-0.6568420">
        <ele>156.4</ele>
        <time>2019-12-20T08:58:36Z</time>
      </trkpt>
      <trkpt lat="38.2884760" lon="-0.6569170">
        <ele>156.0</ele>
        <time>2019-12-20T08:58:37Z</time>
      </trkpt>
      <trkpt lat="38.2884690" lon="-0.6569920">
        <ele>156.6</ele>
        <time>2019-12-20T08:58:38Z</time>
      </trkpt>
      <trkpt lat="38.2884620" lon="-0.6570690">
        <ele>156.4</ele>
        <time>2019-12-20T08:58:39Z</time>
      </trkpt>
      <trkpt lat="38.2884550" lon="-0.6571470">
        <ele>156.8</ele>
        <time>2019-12-20T08:58:40Z</time>
      </trkpt>
      <trkpt lat="38.2884490" lon="-0.6572260">
        <ele>156.8</ele>
        <time>2019-12-20T08:58:41Z</time>
      </trkpt>
      <trkpt lat="38.2884410" lon="-0.6573030">
        <ele>157.0</ele>
        <time>2019-12-20T08:58:42Z</time>
      </trkpt>
      <trkpt lat="38.2884340" lon="-0.6573800">
        <ele>157.0</ele>
        <time>2019-12-20T08:58:43Z</time>
      </trkpt>
      <trkpt lat="38.2884250" lon="-0.6574580">
        <ele>157.0</ele>
        <time>2019-12-20T08:58:44Z</time>
      </trkpt>
      <trkpt lat="38.2884160" lon="-0.6575360">
        <ele>157.0</ele>
        <time>2019-12-20T08:58:45Z</time>
      </trkpt>
      <trkpt lat="38.2884070" lon="-0.6576140">
        <ele>157.0</ele>
        <time>2019-12-20T08:58:46Z</time>
      </trkpt>
      <trkpt lat="38.2883980" lon="-0.6576910">
        <ele>157.2</ele>
        <time>2019-12-20T08:58:47Z</time>
      </trkpt>
      <trkpt lat="38.2883880" lon="-0.6577690">
        <ele>157.0</ele>
        <time>2019-12-20T08:58:48Z</time>
      </trkpt>
      <trkpt lat="38.2883770" lon="-0.6578470">
        <ele>157.0</ele>
        <time>2019-12-20T08:58:49Z</time>
      </trkpt>
      <trkpt lat="38.2883660" lon="-0.6579240">
        <ele>157.2</ele>
        <time>2019-12-20T08:58:50Z</time>
      </trkpt>
      <trkpt lat="38.2883550" lon="-0.6580010">
        <ele>156.8</ele>
        <time>2019-12-20T08:58:51Z</time>
      </trkpt>
      <trkpt lat="38.2883440" lon="-0.6580780">
        <ele>157.0</ele>
        <time>2019-12-20T08:58:52Z</time>
      </trkpt>
      <trkpt lat="38.2883320" lon="-0.6581550">
        <ele>157.0</ele>
        <time>2019-12-20T08:58:53Z</time>
      </trkpt>
      <trkpt lat="38.2883200" lon="-0.6582320">
        <ele>157.2</ele>
        <time>2019-12-20T08:58:54Z</time>
      </trkpt>
      <trkpt lat="38.2883070" lon="-0.6583100">
        <ele>156.8</ele>
        <time>2019-12-20T08:58:55Z</time>
      </trkpt>
      <trkpt lat="38.2882940" lon="-0.6583870">
        <ele>156.8</ele>
        <time>2019-12-20T08:58:56Z</time>
      </trkpt>
      <trkpt lat="38.2882790" lon="-0.6584620">
        <ele>157.0</ele>
        <time>2019-12-20T08:58:57Z</time>
      </trkpt>
      <trkpt lat="38.2882640" lon="-0.6585380">
        <ele>157.0</ele>
        <time>2019-12-20T08:58:58Z</time>
      </trkpt>
      <trkpt lat="38.2882480" lon="-0.6586130">
        <ele>157.2</ele>
        <time>2019-12-20T08:58:59Z</time>
      </trkpt>
      <trkpt lat="38.2882320" lon="-0.6586890">
        <ele>157.4</ele>
        <time>2019-12-20T08:59:00Z</time>
      </trkpt>
      <trkpt lat="38.2882170" lon="-0.6587640">
        <ele>157.2</ele>
        <time>2019-12-20T08:59:01Z</time>
      </trkpt>
      <trkpt lat="38.2882020" lon="-0.6588390">
        <ele>157.2</ele>
        <time>2019-12-20T08:59:02Z</time>
      </trkpt>
      <trkpt lat="38.2881870" lon="-0.6589130">
        <ele>158.2</ele>
        <time>2019-12-20T08:59:03Z</time>
      </trkpt>
      <trkpt lat="38.2881700" lon="-0.6589870">
        <ele>158.2</ele>
        <time>2019-12-20T08:59:04Z</time>
      </trkpt>
      <trkpt lat="38.2881510" lon="-0.6590610">
        <ele>158.2</ele>
        <time>2019-12-20T08:59:05Z</time>
      </trkpt>
      <trkpt lat="38.2881320" lon="-0.6591360">
        <ele>157.8</ele>
        <time>2019-12-20T08:59:06Z</time>
      </trkpt>
      <trkpt lat="38.2881120" lon="-0.6592110">
        <ele>158.2</ele>
        <time>2019-12-20T08:59:07Z</time>
      </trkpt>
      <trkpt lat="38.2880930" lon="-0.6592860">
        <ele>157.6</ele>
        <time>2019-12-20T08:59:08Z</time>
      </trkpt>
      <trkpt lat="38.2880720" lon="-0.6593630">
        <ele>157.8</ele>
        <time>2019-12-20T08:59:09Z</time>
      </trkpt>
      <trkpt lat="38.2880520" lon="-0.6594390">
        <ele>157.8</ele>
        <time>2019-12-20T08:59:10Z</time>
      </trkpt>
      <trkpt lat="38.2880320" lon="-0.6595150">
        <ele>158.0</ele>
        <time>2019-12-20T08:59:11Z</time>
      </trkpt>
      <trkpt lat="38.2880120" lon="-0.6595920">
        <ele>157.8</ele>
        <time>2019-12-20T08:59:12Z</time>
      </trkpt>
      <trkpt lat="38.2879920" lon="-0.6596680">
        <ele>157.8</ele>
        <time>2019-12-20T08:59:13Z</time>
      </trkpt>
      <trkpt lat="38.2879710" lon="-0.6597440">
        <ele>157.6</ele>
        <time>2019-12-20T08:59:14Z</time>
      </trkpt>
      <trkpt lat="38.2879520" lon="-0.6598200">
        <ele>157.8</ele>
        <time>2019-12-20T08:59:15Z</time>
      </trkpt>
      <trkpt lat="38.2879320" lon="-0.6598950">
        <ele>157.8</ele>
        <time>2019-12-20T08:59:16Z</time>
      </trkpt>
      <trkpt lat="38.2879110" lon="-0.6599710">
        <ele>157.8</ele>
        <time>2019-12-20T08:59:17Z</time>
      </trkpt>
      <trkpt lat="38.2878900" lon="-0.6600470">
        <ele>157.8</ele>
        <time>2019-12-20T08:59:18Z</time>
      </trkpt>
      <trkpt lat="38.2878690" lon="-0.6601230">
        <ele>157.6</ele>
        <time>2019-12-20T08:59:19Z</time>
      </trkpt>
      <trkpt lat="38.2878470" lon="-0.6601990">
        <ele>157.8</ele>
        <time>2019-12-20T08:59:20Z</time>
      </trkpt>
      <trkpt lat="38.2878250" lon="-0.6602740">
        <ele>158.0</ele>
        <time>2019-12-20T08:59:21Z</time>
      </trkpt>
      <trkpt lat="38.2878030" lon="-0.6603460">
        <ele>158.2</ele>
        <time>2019-12-20T08:59:22Z</time>
      </trkpt>
      <trkpt lat="38.2877810" lon="-0.6604180">
        <ele>158.2</ele>
        <time>2019-12-20T08:59:23Z</time>
      </trkpt>
      <trkpt lat="38.2877600" lon="-0.6604910">
        <ele>158.0</ele>
        <time>2019-12-20T08:59:24Z</time>
      </trkpt>
      <trkpt lat="38.2877410" lon="-0.6605650">
        <ele>158.2</ele>
        <time>2019-12-20T08:59:25Z</time>
      </trkpt>
      <trkpt lat="38.2877200" lon="-0.6606370">
        <ele>158.2</ele>
        <time>2019-12-20T08:59:26Z</time>
      </trkpt>
      <trkpt lat="38.2876990" lon="-0.6607060">
        <ele>158.2</ele>
        <time>2019-12-20T08:59:27Z</time>
      </trkpt>
      <trkpt lat="38.2876770" lon="-0.6607750">
        <ele>158.2</ele>
        <time>2019-12-20T08:59:28Z</time>
      </trkpt>
      <trkpt lat="38.2876580" lon="-0.6608450">
        <ele>158.2</ele>
        <time>2019-12-20T08:59:29Z</time>
      </trkpt>
      <trkpt lat="38.2876430" lon="-0.6608980">
        <ele>158.4</ele>
        <time>2019-12-20T08:59:30Z</time>
      </trkpt>
      <trkpt lat="38.2876280" lon="-0.6609510">
        <ele>158.4</ele>
        <time>2019-12-20T08:59:31Z</time>
      </trkpt>
      <trkpt lat="38.2875970" lon="-0.6610560">
        <ele>158.6</ele>
        <time>2019-12-20T08:59:32Z</time>
      </trkpt>
      <trkpt lat="38.2875780" lon="-0.6611280">
        <ele>158.2</ele>
        <time>2019-12-20T08:59:33Z</time>
      </trkpt>
      <trkpt lat="38.2875580" lon="-0.6611980">
        <ele>158.4</ele>
        <time>2019-12-20T08:59:34Z</time>
      </trkpt>
      <trkpt lat="38.2875390" lon="-0.6612690">
        <ele>158.4</ele>
        <time>2019-12-20T08:59:35Z</time>
      </trkpt>
      <trkpt lat="38.2875190" lon="-0.6613400">
        <ele>158.6</ele>
        <time>2019-12-20T08:59:36Z</time>
      </trkpt>
      <trkpt lat="38.2875020" lon="-0.6614120">
        <ele>159.0</ele>
        <time>2019-12-20T08:59:37Z</time>
      </trkpt>
      <trkpt lat="38.2874830" lon="-0.6614830">
        <ele>158.8</ele>
        <time>2019-12-20T08:59:38Z</time>
      </trkpt>
      <trkpt lat="38.2874640" lon="-0.6615540">
        <ele>158.6</ele>
        <time>2019-12-20T08:59:39Z</time>
      </trkpt>
      <trkpt lat="38.2874470" lon="-0.6616250">
        <ele>158.8</ele>
        <time>2019-12-20T08:59:40Z</time>
      </trkpt>
      <trkpt lat="38.2874290" lon="-0.6616950">
        <ele>158.8</ele>
        <time>2019-12-20T08:59:41Z</time>
      </trkpt>
      <trkpt lat="38.2874110" lon="-0.6617660">
        <ele>158.6</ele>
        <time>2019-12-20T08:59:42Z</time>
      </trkpt>
      <trkpt lat="38.2873930" lon="-0.6618350">
        <ele>158.8</ele>
        <time>2019-12-20T08:59:43Z</time>
      </trkpt>
      <trkpt lat="38.2873740" lon="-0.6619020">
        <ele>158.8</ele>
        <time>2019-12-20T08:59:44Z</time>
      </trkpt>
      <trkpt lat="38.2873560" lon="-0.6619710">
        <ele>159.2</ele>
        <time>2019-12-20T08:59:45Z</time>
      </trkpt>
      <trkpt lat="38.2873380" lon="-0.6620400">
        <ele>159.4</ele>
        <time>2019-12-20T08:59:46Z</time>
      </trkpt>
      <trkpt lat="38.2873200" lon="-0.6621100">
        <ele>159.4</ele>
        <time>2019-12-20T08:59:47Z</time>
      </trkpt>
      <trkpt lat="38.2873010" lon="-0.6621800">
        <ele>159.4</ele>
        <time>2019-12-20T08:59:48Z</time>
      </trkpt>
      <trkpt lat="38.2872890" lon="-0.6622330">
        <ele>159.2</ele>
        <time>2019-12-20T08:59:49Z</time>
      </trkpt>
      <trkpt lat="38.2872760" lon="-0.6622860">
        <ele>159.4</ele>
        <time>2019-12-20T08:59:50Z</time>
      </trkpt>
      <trkpt lat="38.2872510" lon="-0.6623910">
        <ele>159.4</ele>
        <time>2019-12-20T08:59:51Z</time>
      </trkpt>
      <trkpt lat="38.2872350" lon="-0.6624620">
        <ele>159.6</ele>
        <time>2019-12-20T08:59:52Z</time>
      </trkpt>
      <trkpt lat="38.2872180" lon="-0.6625320">
        <ele>159.6</ele>
        <time>2019-12-20T08:59:53Z</time>
      </trkpt>
      <trkpt lat="38.2872030" lon="-0.6626020">
        <ele>159.4</ele>
        <time>2019-12-20T08:59:54Z</time>
      </trkpt>
      <trkpt lat="38.2871870" lon="-0.6626730">
        <ele>159.6</ele>
        <time>2019-12-20T08:59:55Z</time>
      </trkpt>
      <trkpt lat="38.2871750" lon="-0.6627260">
        <ele>159.8</ele>
        <time>2019-12-20T08:59:56Z</time>
      </trkpt>
      <trkpt lat="38.2871630" lon="-0.6627790">
        <ele>160.0</ele>
        <time>2019-12-20T08:59:57Z</time>
      </trkpt>
      <trkpt lat="38.2871380" lon="-0.6628840">
        <ele>160.0</ele>
        <time>2019-12-20T08:59:58Z</time>
      </trkpt>
      <trkpt lat="38.2871230" lon="-0.6629540">
        <ele>160.2</ele>
        <time>2019-12-20T08:59:59Z</time>
      </trkpt>
      <trkpt lat="38.2871090" lon="-0.6630240">
        <ele>160.2</ele>
        <time>2019-12-20T09:00:00Z</time>
      </trkpt>
      <trkpt lat="38.2870950" lon="-0.6630920">
        <ele>159.8</ele>
        <time>2019-12-20T09:00:01Z</time>
      </trkpt>
      <trkpt lat="38.2870810" lon="-0.6631600">
        <ele>160.4</ele>
        <time>2019-12-20T09:00:02Z</time>
      </trkpt>
      <trkpt lat="38.2870700" lon="-0.6632310">
        <ele>160.2</ele>
        <time>2019-12-20T09:00:03Z</time>
      </trkpt>
      <trkpt lat="38.2870600" lon="-0.6633020">
        <ele>160.2</ele>
        <time>2019-12-20T09:00:04Z</time>
      </trkpt>
      <trkpt lat="38.2870530" lon="-0.6633730">
        <ele>160.4</ele>
        <time>2019-12-20T09:00:05Z</time>
      </trkpt>
      <trkpt lat="38.2870430" lon="-0.6634450">
        <ele>160.4</ele>
        <time>2019-12-20T09:00:06Z</time>
      </trkpt>
      <trkpt lat="38.2870310" lon="-0.6635180">
        <ele>160.4</ele>
        <time>2019-12-20T09:00:07Z</time>
      </trkpt>
      <trkpt lat="38.2870190" lon="-0.6635890">
        <ele>160.4</ele>
        <time>2019-12-20T09:00:08Z</time>
      </trkpt>
      <trkpt lat="38.2870050" lon="-0.6636610">
        <ele>160.4</ele>
        <time>2019-12-20T09:00:09Z</time>
      </trkpt>
      <trkpt lat="38.2869910" lon="-0.6637330">
        <ele>160.4</ele>
        <time>2019-12-20T09:00:10Z</time>
      </trkpt>
      <trkpt lat="38.2869770" lon="-0.6638040">
        <ele>160.4</ele>
        <time>2019-12-20T09:00:11Z</time>
      </trkpt>
      <trkpt lat="38.2869610" lon="-0.6638730">
        <ele>160.4</ele>
        <time>2019-12-20T09:00:12Z</time>
      </trkpt>
      <trkpt lat="38.2869470" lon="-0.6639410">
        <ele>160.4</ele>
        <time>2019-12-20T09:00:13Z</time>
      </trkpt>
      <trkpt lat="38.2869330" lon="-0.6640080">
        <ele>160.4</ele>
        <time>2019-12-20T09:00:14Z</time>
      </trkpt>
      <trkpt lat="38.2868650" lon="-0.6643270">
        <ele>161.6</ele>
        <time>2019-12-20T09:00:19Z</time>
      </trkpt>
      <trkpt lat="38.2868520" lon="-0.6643900">
        <ele>161.6</ele>
        <time>2019-12-20T09:00:20Z</time>
      </trkpt>
      <trkpt lat="38.2868380" lon="-0.6644530">
        <ele>161.8</ele>
        <time>2019-12-20T09:00:21Z</time>
      </trkpt>
      <trkpt lat="38.2868290" lon="-0.6645190">
        <ele>161.8</ele>
        <time>2019-12-20T09:00:22Z</time>
      </trkpt>
      <trkpt lat="38.2868330" lon="-0.6645670">
        <ele>162.0</ele>
        <time>2019-12-20T09:00:23Z</time>
      </trkpt>
      <trkpt lat="38.2868360" lon="-0.6646160">
        <ele>162.0</ele>
        <time>2019-12-20T09:00:24Z</time>
      </trkpt>
      <trkpt lat="38.2868420" lon="-0.6647140">
        <ele>162.0</ele>
        <time>2019-12-20T09:00:25Z</time>
      </trkpt>
      <trkpt lat="38.2868640" lon="-0.6647740">
        <ele>162.2</ele>
        <time>2019-12-20T09:00:26Z</time>
      </trkpt>
      <trkpt lat="38.2868910" lon="-0.6648340">
        <ele>162.0</ele>
        <time>2019-12-20T09:00:27Z</time>
      </trkpt>
      <trkpt lat="38.2869210" lon="-0.6648920">
        <ele>162.2</ele>
        <time>2019-12-20T09:00:28Z</time>
      </trkpt>
      <trkpt lat="38.2869530" lon="-0.6649490">
        <ele>162.4</ele>
        <time>2019-12-20T09:00:29Z</time>
      </trkpt>
      <trkpt lat="38.2869830" lon="-0.6650090">
        <ele>162.4</ele>
        <time>2019-12-20T09:00:30Z</time>
      </trkpt>
      <trkpt lat="38.2870070" lon="-0.6650740">
        <ele>162.4</ele>
        <time>2019-12-20T09:00:31Z</time>
      </trkpt>
      <trkpt lat="38.2870280" lon="-0.6651400">
        <ele>162.6</ele>
        <time>2019-12-20T09:00:32Z</time>
      </trkpt>
      <trkpt lat="38.2870440" lon="-0.6652080">
        <ele>162.6</ele>
        <time>2019-12-20T09:00:33Z</time>
      </trkpt>
      <trkpt lat="38.2870540" lon="-0.6652770">
        <ele>162.6</ele>
        <time>2019-12-20T09:00:34Z</time>
      </trkpt>
      <trkpt lat="38.2870610" lon="-0.6653490">
        <ele>162.4</ele>
        <time>2019-12-20T09:00:35Z</time>
      </trkpt>
      <trkpt lat="38.2870620" lon="-0.6654220">
        <ele>162.6</ele>
        <time>2019-12-20T09:00:36Z</time>
      </trkpt>
      <trkpt lat="38.2870580" lon="-0.6654950">
        <ele>162.6</ele>
        <time>2019-12-20T09:00:37Z</time>
      </trkpt>
      <trkpt lat="38.2870440" lon="-0.6655660">
        <ele>162.6</ele>
        <time>2019-12-20T09:00:38Z</time>
      </trkpt>
      <trkpt lat="38.2870220" lon="-0.6656360">
        <ele>162.6</ele>
        <time>2019-12-20T09:00:39Z</time>
      </trkpt>
      <trkpt lat="38.2869950" lon="-0.6657070">
        <ele>162.4</ele>
        <time>2019-12-20T09:00:40Z</time>
      </trkpt>
      <trkpt lat="38.2869590" lon="-0.6657740">
        <ele>162.8</ele>
        <time>2019-12-20T09:00:41Z</time>
      </trkpt>
      <trkpt lat="38.2869170" lon="-0.6658390">
        <ele>162.6</ele>
        <time>2019-12-20T09:00:42Z</time>
      </trkpt>
      <trkpt lat="38.2868700" lon="-0.6659000">
        <ele>162.6</ele>
        <time>2019-12-20T09:00:43Z</time>
      </trkpt>
      <trkpt lat="38.2868180" lon="-0.6659540">
        <ele>162.2</ele>
        <time>2019-12-20T09:00:44Z</time>
      </trkpt>
      <trkpt lat="38.2867610" lon="-0.6660000">
        <ele>162.4</ele>
        <time>2019-12-20T09:00:45Z</time>
      </trkpt>
      <trkpt lat="38.2867030" lon="-0.6660410">
        <ele>162.2</ele>
        <time>2019-12-20T09:00:46Z</time>
      </trkpt>
      <trkpt lat="38.2866470" lon="-0.6660870">
        <ele>162.0</ele>
        <time>2019-12-20T09:00:47Z</time>
      </trkpt>
      <trkpt lat="38.2865950" lon="-0.6661400">
        <ele>161.8</ele>
        <time>2019-12-20T09:00:48Z</time>
      </trkpt>
      <trkpt lat="38.2865500" lon="-0.6662060">
        <ele>161.6</ele>
        <time>2019-12-20T09:00:49Z</time>
      </trkpt>
      <trkpt lat="38.2865170" lon="-0.6662810">
        <ele>161.4</ele>
        <time>2019-12-20T09:00:50Z</time>
      </trkpt>
      <trkpt lat="38.2864890" lon="-0.6663620">
        <ele>161.2</ele>
        <time>2019-12-20T09:00:51Z</time>
      </trkpt>
      <trkpt lat="38.2864690" lon="-0.6664450">
        <ele>161.0</ele>
        <time>2019-12-20T09:00:52Z</time>
      </trkpt>
      <trkpt lat="38.2864530" lon="-0.6665300">
        <ele>160.6</ele>
        <time>2019-12-20T09:00:53Z</time>
      </trkpt>
      <trkpt lat="38.2864400" lon="-0.6666140">
        <ele>160.6</ele>
        <time>2019-12-20T09:00:54Z</time>
      </trkpt>
      <trkpt lat="38.2864250" lon="-0.6666980">
        <ele>160.8</ele>
        <time>2019-12-20T09:00:55Z</time>
      </trkpt>
      <trkpt lat="38.2864110" lon="-0.6667810">
        <ele>160.8</ele>
        <time>2019-12-20T09:00:56Z</time>
      </trkpt>
      <trkpt lat="38.2863960" lon="-0.6668640">
        <ele>160.6</ele>
        <time>2019-12-20T09:00:57Z</time>
      </trkpt>
      <trkpt lat="38.2863830" lon="-0.6669480">
        <ele>160.6</ele>
        <time>2019-12-20T09:00:58Z</time>
      </trkpt>
      <trkpt lat="38.2863700" lon="-0.6670300">
        <ele>160.6</ele>
        <time>2019-12-20T09:00:59Z</time>
      </trkpt>
      <trkpt lat="38.2863570" lon="-0.6671130">
        <ele>160.4</ele>
        <time>2019-12-20T09:01:00Z</time>
      </trkpt>
      <trkpt lat="38.2863430" lon="-0.6671950">
        <ele>160.4</ele>
        <time>2019-12-20T09:01:01Z</time>
      </trkpt>
      <trkpt lat="38.2863300" lon="-0.6672770">
        <ele>160.2</ele>
        <time>2019-12-20T09:01:02Z</time>
      </trkpt>
      <trkpt lat="38.2863170" lon="-0.6673610">
        <ele>160.2</ele>
        <time>2019-12-20T09:01:03Z</time>
      </trkpt>
      <trkpt lat="38.2863030" lon="-0.6674450">
        <ele>160.6</ele>
        <time>2019-12-20T09:01:04Z</time>
      </trkpt>
      <trkpt lat="38.2862890" lon="-0.6675290">
        <ele>160.0</ele>
        <time>2019-12-20T09:01:05Z</time>
      </trkpt>
      <trkpt lat="38.2862760" lon="-0.6676120">
        <ele>159.4</ele>
        <time>2019-12-20T09:01:06Z</time>
      </trkpt>
      <trkpt lat="38.2862700" lon="-0.6676540">
        <ele>159.4</ele>
        <time>2019-12-20T09:01:07Z</time>
      </trkpt>
      <trkpt lat="38.2862630" lon="-0.6676960">
        <ele>159.6</ele>
        <time>2019-12-20T09:01:08Z</time>
      </trkpt>
      <trkpt lat="38.2862380" lon="-0.6678430">
        <ele>159.8</ele>
        <time>2019-12-20T09:01:09Z</time>
      </trkpt>
      <trkpt lat="38.2862260" lon="-0.6679050">
        <ele>159.8</ele>
        <time>2019-12-20T09:01:10Z</time>
      </trkpt>
      <trkpt lat="38.2862030" lon="-0.6680290">
        <ele>159.6</ele>
        <time>2019-12-20T09:01:11Z</time>
      </trkpt>
      <trkpt lat="38.2861840" lon="-0.6681110">
        <ele>159.8</ele>
        <time>2019-12-20T09:01:12Z</time>
      </trkpt>
      <trkpt lat="38.2861650" lon="-0.6681940">
        <ele>159.6</ele>
        <time>2019-12-20T09:01:13Z</time>
      </trkpt>
      <trkpt lat="38.2861450" lon="-0.6682770">
        <ele>159.6</ele>
        <time>2019-12-20T09:01:14Z</time>
      </trkpt>
      <trkpt lat="38.2861250" lon="-0.6683600">
        <ele>159.4</ele>
        <time>2019-12-20T09:01:15Z</time>
      </trkpt>
      <trkpt lat="38.2861020" lon="-0.6684430">
        <ele>159.4</ele>
        <time>2019-12-20T09:01:16Z</time>
      </trkpt>
      <trkpt lat="38.2860780" lon="-0.6685250">
        <ele>159.4</ele>
        <time>2019-12-20T09:01:17Z</time>
      </trkpt>
      <trkpt lat="38.2860530" lon="-0.6686070">
        <ele>159.4</ele>
        <time>2019-12-20T09:01:18Z</time>
      </trkpt>
      <trkpt lat="38.2860250" lon="-0.6686880">
        <ele>159.4</ele>
        <time>2019-12-20T09:01:19Z</time>
      </trkpt>
      <trkpt lat="38.2859960" lon="-0.6687700">
        <ele>159.2</ele>
        <time>2019-12-20T09:01:20Z</time>
      </trkpt>
      <trkpt lat="38.2859680" lon="-0.6688520">
        <ele>159.0</ele>
        <time>2019-12-20T09:01:21Z</time>
      </trkpt>
      <trkpt lat="38.2859360" lon="-0.6689330">
        <ele>159.0</ele>
        <time>2019-12-20T09:01:22Z</time>
      </trkpt>
      <trkpt lat="38.2859050" lon="-0.6690130">
        <ele>159.0</ele>
        <time>2019-12-20T09:01:23Z</time>
      </trkpt>
      <trkpt lat="38.2858750" lon="-0.6690920">
        <ele>158.8</ele>
        <time>2019-12-20T09:01:24Z</time>
      </trkpt>
      <trkpt lat="38.2858430" lon="-0.6691680">
        <ele>158.6</ele>
        <time>2019-12-20T09:01:25Z</time>
      </trkpt>
      <trkpt lat="38.2858090" lon="-0.6692430">
        <ele>158.2</ele>
        <time>2019-12-20T09:01:26Z</time>
      </trkpt>
      <trkpt lat="38.2857730" lon="-0.6693140">
        <ele>159.2</ele>
        <time>2019-12-20T09:01:27Z</time>
      </trkpt>
      <trkpt lat="38.2857380" lon="-0.6693860">
        <ele>158.6</ele>
        <time>2019-12-20T09:01:28Z</time>
      </trkpt>
      <trkpt lat="38.2857020" lon="-0.6694580">
        <ele>158.6</ele>
        <time>2019-12-20T09:01:29Z</time>
      </trkpt>
      <trkpt lat="38.2856660" lon="-0.6695300">
        <ele>158.6</ele>
        <time>2019-12-20T09:01:30Z</time>
      </trkpt>
      <trkpt lat="38.2856290" lon="-0.6696030">
        <ele>158.4</ele>
        <time>2019-12-20T09:01:31Z</time>
      </trkpt>
      <trkpt lat="38.2855930" lon="-0.6696760">
        <ele>158.2</ele>
        <time>2019-12-20T09:01:32Z</time>
      </trkpt>
      <trkpt lat="38.2855560" lon="-0.6697480">
        <ele>158.2</ele>
        <time>2019-12-20T09:01:33Z</time>
      </trkpt>
      <trkpt lat="38.2855190" lon="-0.6698210">
        <ele>158.4</ele>
        <time>2019-12-20T09:01:34Z</time>
      </trkpt>
      <trkpt lat="38.2854800" lon="-0.6698930">
        <ele>158.2</ele>
        <time>2019-12-20T09:01:35Z</time>
      </trkpt>
      <trkpt lat="38.2854410" lon="-0.6699650">
        <ele>158.2</ele>
        <time>2019-12-20T09:01:36Z</time>
      </trkpt>
      <trkpt lat="38.2854020" lon="-0.6700390">
        <ele>158.0</ele>
        <time>2019-12-20T09:01:37Z</time>
      </trkpt>
      <trkpt lat="38.2853640" lon="-0.6701140">
        <ele>157.8</ele>
        <time>2019-12-20T09:01:38Z</time>
      </trkpt>
      <trkpt lat="38.2853270" lon="-0.6701910">
        <ele>157.6</ele>
        <time>2019-12-20T09:01:39Z</time>
      </trkpt>
      <trkpt lat="38.2852900" lon="-0.6702660">
        <ele>157.6</ele>
        <time>2019-12-20T09:01:40Z</time>
      </trkpt>
      <trkpt lat="38.2852520" lon="-0.6703410">
        <ele>157.8</ele>
        <time>2019-12-20T09:01:41Z</time>
      </trkpt>
      <trkpt lat="38.2852130" lon="-0.6704160">
        <ele>157.6</ele>
        <time>2019-12-20T09:01:42Z</time>
      </trkpt>
      <trkpt lat="38.2851740" lon="-0.6704910">
        <ele>157.6</ele>
        <time>2019-12-20T09:01:43Z</time>
      </trkpt>
      <trkpt lat="38.2851340" lon="-0.6705650">
        <ele>157.4</ele>
        <time>2019-12-20T09:01:44Z</time>
      </trkpt>
      <trkpt lat="38.2850940" lon="-0.6706390">
        <ele>157.4</ele>
        <time>2019-12-20T09:01:45Z</time>
      </trkpt>
      <trkpt lat="38.2850550" lon="-0.6707150">
        <ele>157.4</ele>
        <time>2019-12-20T09:01:46Z</time>
      </trkpt>
      <trkpt lat="38.2850180" lon="-0.6707940">
        <ele>157.2</ele>
        <time>2019-12-20T09:01:47Z</time>
      </trkpt>
      <trkpt lat="38.2849810" lon="-0.6708730">
        <ele>157.6</ele>
        <time>2019-12-20T09:01:48Z</time>
      </trkpt>
      <trkpt lat="38.2849450" lon="-0.6709520">
        <ele>157.4</ele>
        <time>2019-12-20T09:01:49Z</time>
      </trkpt>
      <trkpt lat="38.2849050" lon="-0.6710300">
        <ele>157.2</ele>
        <time>2019-12-20T09:01:50Z</time>
      </trkpt>
      <trkpt lat="38.2848640" lon="-0.6711090">
        <ele>157.2</ele>
        <time>2019-12-20T09:01:51Z</time>
      </trkpt>
      <trkpt lat="38.2848230" lon="-0.6711870">
        <ele>157.2</ele>
        <time>2019-12-20T09:01:52Z</time>
      </trkpt>
      <trkpt lat="38.2847820" lon="-0.6712650">
        <ele>157.2</ele>
        <time>2019-12-20T09:01:53Z</time>
      </trkpt>
      <trkpt lat="38.2847400" lon="-0.6713430">
        <ele>157.4</ele>
        <time>2019-12-20T09:01:54Z</time>
      </trkpt>
      <trkpt lat="38.2846990" lon="-0.6714220">
        <ele>157.2</ele>
        <time>2019-12-20T09:01:55Z</time>
      </trkpt>
      <trkpt lat="38.2846580" lon="-0.6715010">
        <ele>157.4</ele>
        <time>2019-12-20T09:01:56Z</time>
      </trkpt>
      <trkpt lat="38.2846170" lon="-0.6715800">
        <ele>157.2</ele>
        <time>2019-12-20T09:01:57Z</time>
      </trkpt>
      <trkpt lat="38.2845770" lon="-0.6716580">
        <ele>157.0</ele>
        <time>2019-12-20T09:01:58Z</time>
      </trkpt>
      <trkpt lat="38.2845370" lon="-0.6717370">
        <ele>157.2</ele>
        <time>2019-12-20T09:01:59Z</time>
      </trkpt>
      <trkpt lat="38.2844980" lon="-0.6718140">
        <ele>157.2</ele>
        <time>2019-12-20T09:02:00Z</time>
      </trkpt>
      <trkpt lat="38.2844580" lon="-0.6718910">
        <ele>157.2</ele>
        <time>2019-12-20T09:02:01Z</time>
      </trkpt>
      <trkpt lat="38.2844190" lon="-0.6719680">
        <ele>157.0</ele>
        <time>2019-12-20T09:02:02Z</time>
      </trkpt>
      <trkpt lat="38.2843800" lon="-0.6720440">
        <ele>157.2</ele>
        <time>2019-12-20T09:02:03Z</time>
      </trkpt>
      <trkpt lat="38.2843430" lon="-0.6721200">
        <ele>157.2</ele>
        <time>2019-12-20T09:02:04Z</time>
      </trkpt>
      <trkpt lat="38.2843060" lon="-0.6721960">
        <ele>156.8</ele>
        <time>2019-12-20T09:02:05Z</time>
      </trkpt>
      <trkpt lat="38.2842690" lon="-0.6722710">
        <ele>156.8</ele>
        <time>2019-12-20T09:02:06Z</time>
      </trkpt>
      <trkpt lat="38.2842310" lon="-0.6723450">
        <ele>156.6</ele>
        <time>2019-12-20T09:02:07Z</time>
      </trkpt>
      <trkpt lat="38.2841910" lon="-0.6724160">
        <ele>157.0</ele>
        <time>2019-12-20T09:02:08Z</time>
      </trkpt>
      <trkpt lat="38.2841530" lon="-0.6724880">
        <ele>156.6</ele>
        <time>2019-12-20T09:02:09Z</time>
      </trkpt>
      <trkpt lat="38.2841160" lon="-0.6725590">
        <ele>156.6</ele>
        <time>2019-12-20T09:02:10Z</time>
      </trkpt>
      <trkpt lat="38.2840790" lon="-0.6726310">
        <ele>156.6</ele>
        <time>2019-12-20T09:02:11Z</time>
      </trkpt>
      <trkpt lat="38.2840430" lon="-0.6727030">
        <ele>156.8</ele>
        <time>2019-12-20T09:02:12Z</time>
      </trkpt>
      <trkpt lat="38.2840130" lon="-0.6727780">
        <ele>156.8</ele>
        <time>2019-12-20T09:02:13Z</time>
      </trkpt>
      <trkpt lat="38.2839930" lon="-0.6728560">
        <ele>156.8</ele>
        <time>2019-12-20T09:02:14Z</time>
      </trkpt>
      <trkpt lat="38.2839850" lon="-0.6729310">
        <ele>156.6</ele>
        <time>2019-12-20T09:02:15Z</time>
      </trkpt>
      <trkpt lat="38.2839880" lon="-0.6730070">
        <ele>156.8</ele>
        <time>2019-12-20T09:02:16Z</time>
      </trkpt>
      <trkpt lat="38.2839980" lon="-0.6730840">
        <ele>156.8</ele>
        <time>2019-12-20T09:02:17Z</time>
      </trkpt>
      <trkpt lat="38.2840100" lon="-0.6731590">
        <ele>156.6</ele>
        <time>2019-12-20T09:02:18Z</time>
      </trkpt>
      <trkpt lat="38.2840160" lon="-0.6732370">
        <ele>156.6</ele>
        <time>2019-12-20T09:02:19Z</time>
      </trkpt>
      <trkpt lat="38.2840140" lon="-0.6733130">
        <ele>156.6</ele>
        <time>2019-12-20T09:02:20Z</time>
      </trkpt>
      <trkpt lat="38.2840020" lon="-0.6733870">
        <ele>156.8</ele>
        <time>2019-12-20T09:02:21Z</time>
      </trkpt>
      <trkpt lat="38.2839810" lon="-0.6734590">
        <ele>156.6</ele>
        <time>2019-12-20T09:02:22Z</time>
      </trkpt>
      <trkpt lat="38.2839510" lon="-0.6735260">
        <ele>156.6</ele>
        <time>2019-12-20T09:02:23Z</time>
      </trkpt>
      <trkpt lat="38.2839170" lon="-0.6735630">
        <ele>156.6</ele>
        <time>2019-12-20T09:02:24Z</time>
      </trkpt>
      <trkpt lat="38.2838830" lon="-0.6736000">
        <ele>156.6</ele>
        <time>2019-12-20T09:02:25Z</time>
      </trkpt>
      <trkpt lat="38.2838140" lon="-0.6736740">
        <ele>156.6</ele>
        <time>2019-12-20T09:02:26Z</time>
      </trkpt>
      <trkpt lat="38.2837580" lon="-0.6737030">
        <ele>156.8</ele>
        <time>2019-12-20T09:02:27Z</time>
      </trkpt>
      <trkpt lat="38.2837000" lon="-0.6737290">
        <ele>156.8</ele>
        <time>2019-12-20T09:02:28Z</time>
      </trkpt>
      <trkpt lat="38.2836410" lon="-0.6737550">
        <ele>156.6</ele>
        <time>2019-12-20T09:02:29Z</time>
      </trkpt>
      <trkpt lat="38.2835860" lon="-0.6737820">
        <ele>156.6</ele>
        <time>2019-12-20T09:02:30Z</time>
      </trkpt>
      <trkpt lat="38.2835340" lon="-0.6738160">
        <ele>156.6</ele>
        <time>2019-12-20T09:02:31Z</time>
      </trkpt>
      <trkpt lat="38.2834810" lon="-0.6738640">
        <ele>156.2</ele>
        <time>2019-12-20T09:02:32Z</time>
      </trkpt>
      <trkpt lat="38.2834310" lon="-0.6739230">
        <ele>156.2</ele>
        <time>2019-12-20T09:02:33Z</time>
      </trkpt>
      <trkpt lat="38.2833910" lon="-0.6739860">
        <ele>156.0</ele>
        <time>2019-12-20T09:02:34Z</time>
      </trkpt>
      <trkpt lat="38.2833560" lon="-0.6740540">
        <ele>156.0</ele>
        <time>2019-12-20T09:02:35Z</time>
      </trkpt>
      <trkpt lat="38.2833180" lon="-0.6741230">
        <ele>155.8</ele>
        <time>2019-12-20T09:02:36Z</time>
      </trkpt>
      <trkpt lat="38.2832850" lon="-0.6741920">
        <ele>155.8</ele>
        <time>2019-12-20T09:02:37Z</time>
      </trkpt>
      <trkpt lat="38.2832500" lon="-0.6742600">
        <ele>156.0</ele>
        <time>2019-12-20T09:02:38Z</time>
      </trkpt>
      <trkpt lat="38.2832150" lon="-0.6743290">
        <ele>156.0</ele>
        <time>2019-12-20T09:02:39Z</time>
      </trkpt>
      <trkpt lat="38.2831820" lon="-0.6743990">
        <ele>155.8</ele>
        <time>2019-12-20T09:02:40Z</time>
      </trkpt>
      <trkpt lat="38.2831500" lon="-0.6744690">
        <ele>155.6</ele>
        <time>2019-12-20T09:02:41Z</time>
      </trkpt>
      <trkpt lat="38.2831170" lon="-0.6745400">
        <ele>155.8</ele>
        <time>2019-12-20T09:02:42Z</time>
      </trkpt>
      <trkpt lat="38.2830860" lon="-0.6746130">
        <ele>155.8</ele>
        <time>2019-12-20T09:02:43Z</time>
      </trkpt>
      <trkpt lat="38.2830580" lon="-0.6746850">
        <ele>155.6</ele>
        <time>2019-12-20T09:02:44Z</time>
      </trkpt>
      <trkpt lat="38.2830290" lon="-0.6747580">
        <ele>155.6</ele>
        <time>2019-12-20T09:02:45Z</time>
      </trkpt>
      <trkpt lat="38.2829990" lon="-0.6748310">
        <ele>155.6</ele>
        <time>2019-12-20T09:02:46Z</time>
      </trkpt>
      <trkpt lat="38.2829710" lon="-0.6749040">
        <ele>155.6</ele>
        <time>2019-12-20T09:02:47Z</time>
      </trkpt>
      <trkpt lat="38.2829450" lon="-0.6749790">
        <ele>155.8</ele>
        <time>2019-12-20T09:02:48Z</time>
      </trkpt>
      <trkpt lat="38.2829190" lon="-0.6750540">
        <ele>155.6</ele>
        <time>2019-12-20T09:02:49Z</time>
      </trkpt>
      <trkpt lat="38.2828940" lon="-0.6751310">
        <ele>155.4</ele>
        <time>2019-12-20T09:02:50Z</time>
      </trkpt>
      <trkpt lat="38.2828700" lon="-0.6752080">
        <ele>155.4</ele>
        <time>2019-12-20T09:02:51Z</time>
      </trkpt>
      <trkpt lat="38.2828470" lon="-0.6752860">
        <ele>155.4</ele>
        <time>2019-12-20T09:02:52Z</time>
      </trkpt>
      <trkpt lat="38.2828250" lon="-0.6753640">
        <ele>155.4</ele>
        <time>2019-12-20T09:02:53Z</time>
      </trkpt>
      <trkpt lat="38.2828120" lon="-0.6754210">
        <ele>155.4</ele>
        <time>2019-12-20T09:02:54Z</time>
      </trkpt>
      <trkpt lat="38.2827990" lon="-0.6754780">
        <ele>155.0</ele>
        <time>2019-12-20T09:02:55Z</time>
      </trkpt>
      <trkpt lat="38.2827720" lon="-0.6755920">
        <ele>155.4</ele>
        <time>2019-12-20T09:02:56Z</time>
      </trkpt>
      <trkpt lat="38.2827530" lon="-0.6756730">
        <ele>155.2</ele>
        <time>2019-12-20T09:02:57Z</time>
      </trkpt>
      <trkpt lat="38.2827340" lon="-0.6757530">
        <ele>155.2</ele>
        <time>2019-12-20T09:02:58Z</time>
      </trkpt>
      <trkpt lat="38.2827180" lon="-0.6758340">
        <ele>155.2</ele>
        <time>2019-12-20T09:02:59Z</time>
      </trkpt>
      <trkpt lat="38.2827020" lon="-0.6759150">
        <ele>155.0</ele>
        <time>2019-12-20T09:03:00Z</time>
      </trkpt>
      <trkpt lat="38.2826870" lon="-0.6759970">
        <ele>155.0</ele>
        <time>2019-12-20T09:03:01Z</time>
      </trkpt>
      <trkpt lat="38.2826740" lon="-0.6760810">
        <ele>155.0</ele>
        <time>2019-12-20T09:03:02Z</time>
      </trkpt>
      <trkpt lat="38.2826630" lon="-0.6761620">
        <ele>155.0</ele>
        <time>2019-12-20T09:03:03Z</time>
      </trkpt>
      <trkpt lat="38.2826510" lon="-0.6762420">
        <ele>155.0</ele>
        <time>2019-12-20T09:03:04Z</time>
      </trkpt>
      <trkpt lat="38.2826400" lon="-0.6763240">
        <ele>155.0</ele>
        <time>2019-12-20T09:03:05Z</time>
      </trkpt>
      <trkpt lat="38.2826290" lon="-0.6764080">
        <ele>155.0</ele>
        <time>2019-12-20T09:03:06Z</time>
      </trkpt>
      <trkpt lat="38.2826170" lon="-0.6764910">
        <ele>155.0</ele>
        <time>2019-12-20T09:03:07Z</time>
      </trkpt>
      <trkpt lat="38.2826080" lon="-0.6765760">
        <ele>155.0</ele>
        <time>2019-12-20T09:03:08Z</time>
      </trkpt>
      <trkpt lat="38.2826010" lon="-0.6766610">
        <ele>155.0</ele>
        <time>2019-12-20T09:03:09Z</time>
      </trkpt>
      <trkpt lat="38.2825950" lon="-0.6767470">
        <ele>155.0</ele>
        <time>2019-12-20T09:03:10Z</time>
      </trkpt>
      <trkpt lat="38.2825870" lon="-0.6768320">
        <ele>155.0</ele>
        <time>2019-12-20T09:03:11Z</time>
      </trkpt>
      <trkpt lat="38.2825790" lon="-0.6769180">
        <ele>154.8</ele>
        <time>2019-12-20T09:03:12Z</time>
      </trkpt>
      <trkpt lat="38.2825690" lon="-0.6770040">
        <ele>154.8</ele>
        <time>2019-12-20T09:03:13Z</time>
      </trkpt>
      <trkpt lat="38.2825600" lon="-0.6770890">
        <ele>154.8</ele>
        <time>2019-12-20T09:03:14Z</time>
      </trkpt>
      <trkpt lat="38.2825530" lon="-0.6771750">
        <ele>154.8</ele>
        <time>2019-12-20T09:03:15Z</time>
      </trkpt>
      <trkpt lat="38.2825450" lon="-0.6772610">
        <ele>154.8</ele>
        <time>2019-12-20T09:03:16Z</time>
      </trkpt>
      <trkpt lat="38.2825370" lon="-0.6773480">
        <ele>154.8</ele>
        <time>2019-12-20T09:03:17Z</time>
      </trkpt>
      <trkpt lat="38.2825290" lon="-0.6774370">
        <ele>154.6</ele>
        <time>2019-12-20T09:03:18Z</time>
      </trkpt>
      <trkpt lat="38.2825220" lon="-0.6775250">
        <ele>154.6</ele>
        <time>2019-12-20T09:03:19Z</time>
      </trkpt>
      <trkpt lat="38.2825140" lon="-0.6776130">
        <ele>154.8</ele>
        <time>2019-12-20T09:03:20Z</time>
      </trkpt>
      <trkpt lat="38.2825060" lon="-0.6777020">
        <ele>154.6</ele>
        <time>2019-12-20T09:03:21Z</time>
      </trkpt>
      <trkpt lat="38.2824960" lon="-0.6777890">
        <ele>154.8</ele>
        <time>2019-12-20T09:03:22Z</time>
      </trkpt>
      <trkpt lat="38.2824910" lon="-0.6778560">
        <ele>154.8</ele>
        <time>2019-12-20T09:03:23Z</time>
      </trkpt>
      <trkpt lat="38.2824860" lon="-0.6779230">
        <ele>154.4</ele>
        <time>2019-12-20T09:03:24Z</time>
      </trkpt>
      <trkpt lat="38.2824750" lon="-0.6780570">
        <ele>154.6</ele>
        <time>2019-12-20T09:03:25Z</time>
      </trkpt>
      <trkpt lat="38.2824680" lon="-0.6781470">
        <ele>154.4</ele>
        <time>2019-12-20T09:03:26Z</time>
      </trkpt>
      <trkpt lat="38.2824620" lon="-0.6782360">
        <ele>154.4</ele>
        <time>2019-12-20T09:03:27Z</time>
      </trkpt>
      <trkpt lat="38.2824580" lon="-0.6783260">
        <ele>154.4</ele>
        <time>2019-12-20T09:03:28Z</time>
      </trkpt>
      <trkpt lat="38.2824530" lon="-0.6784140">
        <ele>154.2</ele>
        <time>2019-12-20T09:03:29Z</time>
      </trkpt>
      <trkpt lat="38.2824510" lon="-0.6785030">
        <ele>154.4</ele>
        <time>2019-12-20T09:03:30Z</time>
      </trkpt>
      <trkpt lat="38.2824500" lon="-0.6785930">
        <ele>154.2</ele>
        <time>2019-12-20T09:03:31Z</time>
      </trkpt>
      <trkpt lat="38.2824490" lon="-0.6786830">
        <ele>153.8</ele>
        <time>2019-12-20T09:03:32Z</time>
      </trkpt>
      <trkpt lat="38.2824460" lon="-0.6787720">
        <ele>154.0</ele>
        <time>2019-12-20T09:03:33Z</time>
      </trkpt>
      <trkpt lat="38.2824420" lon="-0.6788630">
        <ele>154.2</ele>
        <time>2019-12-20T09:03:34Z</time>
      </trkpt>
      <trkpt lat="38.2824400" lon="-0.6789550">
        <ele>154.0</ele>
        <time>2019-12-20T09:03:35Z</time>
      </trkpt>
      <trkpt lat="38.2824390" lon="-0.6790460">
        <ele>154.0</ele>
        <time>2019-12-20T09:03:36Z</time>
      </trkpt>
      <trkpt lat="38.2824390" lon="-0.6791360">
        <ele>153.8</ele>
        <time>2019-12-20T09:03:37Z</time>
      </trkpt>
      <trkpt lat="38.2824430" lon="-0.6792270">
        <ele>153.6</ele>
        <time>2019-12-20T09:03:38Z</time>
      </trkpt>
      <trkpt lat="38.2824450" lon="-0.6793170">
        <ele>153.6</ele>
        <time>2019-12-20T09:03:39Z</time>
      </trkpt>
      <trkpt lat="38.2824470" lon="-0.6794090">
        <ele>153.4</ele>
        <time>2019-12-20T09:03:40Z</time>
      </trkpt>
      <trkpt lat="38.2824500" lon="-0.6795000">
        <ele>153.6</ele>
        <time>2019-12-20T09:03:41Z</time>
      </trkpt>
      <trkpt lat="38.2824510" lon="-0.6795920">
        <ele>153.6</ele>
        <time>2019-12-20T09:03:42Z</time>
      </trkpt>
      <trkpt lat="38.2824530" lon="-0.6796840">
        <ele>153.6</ele>
        <time>2019-12-20T09:03:43Z</time>
      </trkpt>
      <trkpt lat="38.2824570" lon="-0.6797720">
        <ele>153.2</ele>
        <time>2019-12-20T09:03:44Z</time>
      </trkpt>
      <trkpt lat="38.2824610" lon="-0.6798600">
        <ele>153.2</ele>
        <time>2019-12-20T09:03:45Z</time>
      </trkpt>
      <trkpt lat="38.2824670" lon="-0.6799460">
        <ele>153.4</ele>
        <time>2019-12-20T09:03:46Z</time>
      </trkpt>
      <trkpt lat="38.2824740" lon="-0.6800360">
        <ele>153.2</ele>
        <time>2019-12-20T09:03:47Z</time>
      </trkpt>
      <trkpt lat="38.2824800" lon="-0.6801260">
        <ele>153.2</ele>
        <time>2019-12-20T09:03:48Z</time>
      </trkpt>
      <trkpt lat="38.2824880" lon="-0.6802160">
        <ele>153.6</ele>
        <time>2019-12-20T09:03:49Z</time>
      </trkpt>
      <trkpt lat="38.2824950" lon="-0.6803070">
        <ele>153.6</ele>
        <time>2019-12-20T09:03:50Z</time>
      </trkpt>
      <trkpt lat="38.2825020" lon="-0.6803970">
        <ele>153.2</ele>
        <time>2019-12-20T09:03:51Z</time>
      </trkpt>
      <trkpt lat="38.2825090" lon="-0.6804870">
        <ele>153.2</ele>
        <time>2019-12-20T09:03:52Z</time>
      </trkpt>
      <trkpt lat="38.2825170" lon="-0.6805760">
        <ele>153.2</ele>
        <time>2019-12-20T09:03:53Z</time>
      </trkpt>
      <trkpt lat="38.2825240" lon="-0.6806650">
        <ele>153.2</ele>
        <time>2019-12-20T09:03:54Z</time>
      </trkpt>
      <trkpt lat="38.2825290" lon="-0.6807530">
        <ele>153.0</ele>
        <time>2019-12-20T09:03:55Z</time>
      </trkpt>
      <trkpt lat="38.2825380" lon="-0.6808420">
        <ele>153.0</ele>
        <time>2019-12-20T09:03:56Z</time>
      </trkpt>
      <trkpt lat="38.2825440" lon="-0.6809300">
        <ele>153.0</ele>
        <time>2019-12-20T09:03:57Z</time>
      </trkpt>
      <trkpt lat="38.2825480" lon="-0.6810180">
        <ele>153.0</ele>
        <time>2019-12-20T09:03:58Z</time>
      </trkpt>
      <trkpt lat="38.2825550" lon="-0.6811050">
        <ele>153.2</ele>
        <time>2019-12-20T09:03:59Z</time>
      </trkpt>
      <trkpt lat="38.2825620" lon="-0.6811880">
        <ele>153.2</ele>
        <time>2019-12-20T09:04:00Z</time>
      </trkpt>
      <trkpt lat="38.2825690" lon="-0.6812710">
        <ele>153.2</ele>
        <time>2019-12-20T09:04:01Z</time>
      </trkpt>
      <trkpt lat="38.2825750" lon="-0.6813520">
        <ele>153.2</ele>
        <time>2019-12-20T09:04:02Z</time>
      </trkpt>
      <trkpt lat="38.2825810" lon="-0.6814310">
        <ele>153.2</ele>
        <time>2019-12-20T09:04:03Z</time>
      </trkpt>
      <trkpt lat="38.2825900" lon="-0.6815110">
        <ele>153.0</ele>
        <time>2019-12-20T09:04:04Z</time>
      </trkpt>
      <trkpt lat="38.2825960" lon="-0.6815860">
        <ele>153.2</ele>
        <time>2019-12-20T09:04:05Z</time>
      </trkpt>
      <trkpt lat="38.2826020" lon="-0.6816490">
        <ele>153.2</ele>
        <time>2019-12-20T09:04:06Z</time>
      </trkpt>
      <trkpt lat="38.2826110" lon="-0.6816930">
        <ele>153.0</ele>
        <time>2019-12-20T09:04:07Z</time>
      </trkpt>
      <trkpt lat="38.2826160" lon="-0.6817330">
        <ele>153.2</ele>
        <time>2019-12-20T09:04:08Z</time>
      </trkpt>
      <trkpt lat="38.2826240" lon="-0.6817760">
        <ele>153.0</ele>
        <time>2019-12-20T09:04:09Z</time>
      </trkpt>
      <trkpt lat="38.2826370" lon="-0.6818200">
        <ele>153.2</ele>
        <time>2019-12-20T09:04:10Z</time>
      </trkpt>
      <trkpt lat="38.2826470" lon="-0.6818430">
        <ele>153.0</ele>
        <time>2019-12-20T09:04:11Z</time>
      </trkpt>
      <trkpt lat="38.2826530" lon="-0.6818600">
        <ele>153.2</ele>
        <time>2019-12-20T09:04:12Z</time>
      </trkpt>
      <trkpt lat="38.2826720" lon="-0.6819030">
        <ele>153.2</ele>
        <time>2019-12-20T09:04:15Z</time>
      </trkpt>
      <trkpt lat="38.2826890" lon="-0.6819240">
        <ele>153.0</ele>
        <time>2019-12-20T09:04:16Z</time>
      </trkpt>
      <trkpt lat="38.2827100" lon="-0.6819520">
        <ele>153.2</ele>
        <time>2019-12-20T09:04:17Z</time>
      </trkpt>
      <trkpt lat="38.2827360" lon="-0.6819830">
        <ele>153.2</ele>
        <time>2019-12-20T09:04:18Z</time>
      </trkpt>
      <trkpt lat="38.2827630" lon="-0.6820210">
        <ele>153.2</ele>
        <time>2019-12-20T09:04:19Z</time>
      </trkpt>
      <trkpt lat="38.2827890" lon="-0.6820690">
        <ele>153.2</ele>
        <time>2019-12-20T09:04:20Z</time>
      </trkpt>
      <trkpt lat="38.2828140" lon="-0.6821200">
        <ele>153.2</ele>
        <time>2019-12-20T09:04:21Z</time>
      </trkpt>
      <trkpt lat="38.2828350" lon="-0.6821770">
        <ele>153.0</ele>
        <time>2019-12-20T09:04:22Z</time>
      </trkpt>
      <trkpt lat="38.2828500" lon="-0.6822420">
        <ele>153.0</ele>
        <time>2019-12-20T09:04:23Z</time>
      </trkpt>
      <trkpt lat="38.2828570" lon="-0.6823130">
        <ele>153.0</ele>
        <time>2019-12-20T09:04:24Z</time>
      </trkpt>
      <trkpt lat="38.2828580" lon="-0.6823860">
        <ele>152.8</ele>
        <time>2019-12-20T09:04:25Z</time>
      </trkpt>
      <trkpt lat="38.2828650" lon="-0.6824600">
        <ele>152.8</ele>
        <time>2019-12-20T09:04:26Z</time>
      </trkpt>
      <trkpt lat="38.2828770" lon="-0.6825390">
        <ele>152.8</ele>
        <time>2019-12-20T09:04:27Z</time>
      </trkpt>
      <trkpt lat="38.2828960" lon="-0.6826170">
        <ele>152.6</ele>
        <time>2019-12-20T09:04:28Z</time>
      </trkpt>
      <trkpt lat="38.2829020" lon="-0.6826970">
        <ele>152.2</ele>
        <time>2019-12-20T09:04:29Z</time>
      </trkpt>
      <trkpt lat="38.2828850" lon="-0.6827740">
        <ele>152.2</ele>
        <time>2019-12-20T09:04:30Z</time>
      </trkpt>
      <trkpt lat="38.2828550" lon="-0.6828470">
        <ele>152.0</ele>
        <time>2019-12-20T09:04:31Z</time>
      </trkpt>
      <trkpt lat="38.2828200" lon="-0.6829190">
        <ele>152.0</ele>
        <time>2019-12-20T09:04:32Z</time>
      </trkpt>
      <trkpt lat="38.2827840" lon="-0.6829930">
        <ele>152.0</ele>
        <time>2019-12-20T09:04:33Z</time>
      </trkpt>
      <trkpt lat="38.2827540" lon="-0.6830730">
        <ele>151.6</ele>
        <time>2019-12-20T09:04:34Z</time>
      </trkpt>
      <trkpt lat="38.2827360" lon="-0.6831580">
        <ele>151.6</ele>
        <time>2019-12-20T09:04:35Z</time>
      </trkpt>
      <trkpt lat="38.2827280" lon="-0.6832430">
        <ele>151.4</ele>
        <time>2019-12-20T09:04:36Z</time>
      </trkpt>
      <trkpt lat="38.2827220" lon="-0.6833320">
        <ele>151.2</ele>
        <time>2019-12-20T09:04:37Z</time>
      </trkpt>
      <trkpt lat="38.2827200" lon="-0.6834210">
        <ele>151.4</ele>
        <time>2019-12-20T09:04:38Z</time>
      </trkpt>
      <trkpt lat="38.2827160" lon="-0.6835080">
        <ele>151.4</ele>
        <time>2019-12-20T09:04:39Z</time>
      </trkpt>
      <trkpt lat="38.2827120" lon="-0.6835950">
        <ele>151.6</ele>
        <time>2019-12-20T09:04:40Z</time>
      </trkpt>
      <trkpt lat="38.2827090" lon="-0.6836840">
        <ele>151.6</ele>
        <time>2019-12-20T09:04:41Z</time>
      </trkpt>
      <trkpt lat="38.2827050" lon="-0.6837680">
        <ele>151.6</ele>
        <time>2019-12-20T09:04:42Z</time>
      </trkpt>
      <trkpt lat="38.2827000" lon="-0.6838510">
        <ele>151.6</ele>
        <time>2019-12-20T09:04:43Z</time>
      </trkpt>
      <trkpt lat="38.2826930" lon="-0.6839360">
        <ele>151.6</ele>
        <time>2019-12-20T09:04:44Z</time>
      </trkpt>
      <trkpt lat="38.2826860" lon="-0.6840200">
        <ele>151.6</ele>
        <time>2019-12-20T09:04:45Z</time>
      </trkpt>
      <trkpt lat="38.2826800" lon="-0.6841030">
        <ele>151.6</ele>
        <time>2019-12-20T09:04:46Z</time>
      </trkpt>
      <trkpt lat="38.2826720" lon="-0.6841850">
        <ele>151.6</ele>
        <time>2019-12-20T09:04:47Z</time>
      </trkpt>
      <trkpt lat="38.2826630" lon="-0.6842660">
        <ele>151.8</ele>
        <time>2019-12-20T09:04:48Z</time>
      </trkpt>
      <trkpt lat="38.2826530" lon="-0.6843460">
        <ele>152.0</ele>
        <time>2019-12-20T09:04:49Z</time>
      </trkpt>
      <trkpt lat="38.2826500" lon="-0.6844180">
        <ele>152.0</ele>
        <time>2019-12-20T09:04:50Z</time>
      </trkpt>
      <trkpt lat="38.2826430" lon="-0.6844940">
        <ele>152.0</ele>
        <time>2019-12-20T09:04:51Z</time>
      </trkpt>
      <trkpt lat="38.2826350" lon="-0.6845720">
        <ele>152.0</ele>
        <time>2019-12-20T09:04:52Z</time>
      </trkpt>
      <trkpt lat="38.2826240" lon="-0.6846530">
        <ele>152.0</ele>
        <time>2019-12-20T09:04:53Z</time>
      </trkpt>
      <trkpt lat="38.2826140" lon="-0.6847330">
        <ele>152.0</ele>
        <time>2019-12-20T09:04:54Z</time>
      </trkpt>
      <trkpt lat="38.2826030" lon="-0.6848140">
        <ele>152.0</ele>
        <time>2019-12-20T09:04:55Z</time>
      </trkpt>
      <trkpt lat="38.2825930" lon="-0.6848970">
        <ele>152.0</ele>
        <time>2019-12-20T09:04:56Z</time>
      </trkpt>
      <trkpt lat="38.2825920" lon="-0.6849780">
        <ele>152.0</ele>
        <time>2019-12-20T09:04:57Z</time>
      </trkpt>
      <trkpt lat="38.2826040" lon="-0.6850580">
        <ele>152.2</ele>
        <time>2019-12-20T09:04:58Z</time>
      </trkpt>
      <trkpt lat="38.2826330" lon="-0.6851280">
        <ele>152.2</ele>
        <time>2019-12-20T09:04:59Z</time>
      </trkpt>
      <trkpt lat="38.2826740" lon="-0.6851800">
        <ele>152.2</ele>
        <time>2019-12-20T09:05:00Z</time>
      </trkpt>
      <trkpt lat="38.2827260" lon="-0.6852120">
        <ele>152.4</ele>
        <time>2019-12-20T09:05:01Z</time>
      </trkpt>
      <trkpt lat="38.2827820" lon="-0.6852240">
        <ele>152.6</ele>
        <time>2019-12-20T09:05:02Z</time>
      </trkpt>
      <trkpt lat="38.2828400" lon="-0.6852180">
        <ele>153.0</ele>
        <time>2019-12-20T09:05:03Z</time>
      </trkpt>
      <trkpt lat="38.2828980" lon="-0.6852040">
        <ele>153.2</ele>
        <time>2019-12-20T09:05:04Z</time>
      </trkpt>
      <trkpt lat="38.2829570" lon="-0.6851900">
        <ele>153.2</ele>
        <time>2019-12-20T09:05:05Z</time>
      </trkpt>
      <trkpt lat="38.2830150" lon="-0.6851760">
        <ele>153.4</ele>
        <time>2019-12-20T09:05:06Z</time>
      </trkpt>
      <trkpt lat="38.2830720" lon="-0.6851610">
        <ele>153.6</ele>
        <time>2019-12-20T09:05:07Z</time>
      </trkpt>
      <trkpt lat="38.2831290" lon="-0.6851470">
        <ele>153.6</ele>
        <time>2019-12-20T09:05:08Z</time>
      </trkpt>
      <trkpt lat="38.2831870" lon="-0.6851310">
        <ele>153.8</ele>
        <time>2019-12-20T09:05:09Z</time>
      </trkpt>
      <trkpt lat="38.2832460" lon="-0.6851160">
        <ele>154.0</ele>
        <time>2019-12-20T09:05:10Z</time>
      </trkpt>
      <trkpt lat="38.2833030" lon="-0.6851000">
        <ele>154.0</ele>
        <time>2019-12-20T09:05:11Z</time>
      </trkpt>
      <trkpt lat="38.2833600" lon="-0.6850850">
        <ele>154.2</ele>
        <time>2019-12-20T09:05:12Z</time>
      </trkpt>
      <trkpt lat="38.2834200" lon="-0.6850690">
        <ele>154.4</ele>
        <time>2019-12-20T09:05:13Z</time>
      </trkpt>
      <trkpt lat="38.2834780" lon="-0.6850480">
        <ele>154.4</ele>
        <time>2019-12-20T09:05:14Z</time>
      </trkpt>
      <trkpt lat="38.2835310" lon="-0.6850330">
        <ele>154.6</ele>
        <time>2019-12-20T09:05:15Z</time>
      </trkpt>
      <trkpt lat="38.2835890" lon="-0.6850190">
        <ele>154.8</ele>
        <time>2019-12-20T09:05:16Z</time>
      </trkpt>
      <trkpt lat="38.2836470" lon="-0.6850020">
        <ele>154.8</ele>
        <time>2019-12-20T09:05:17Z</time>
      </trkpt>
      <trkpt lat="38.2837090" lon="-0.6849860">
        <ele>155.4</ele>
        <time>2019-12-20T09:05:18Z</time>
      </trkpt>
      <trkpt lat="38.2837670" lon="-0.6849680">
        <ele>155.2</ele>
        <time>2019-12-20T09:05:19Z</time>
      </trkpt>
      <trkpt lat="38.2838270" lon="-0.6849520">
        <ele>155.2</ele>
        <time>2019-12-20T09:05:20Z</time>
      </trkpt>
      <trkpt lat="38.2838850" lon="-0.6849370">
        <ele>155.6</ele>
        <time>2019-12-20T09:05:21Z</time>
      </trkpt>
      <trkpt lat="38.2839400" lon="-0.6849190">
        <ele>155.6</ele>
        <time>2019-12-20T09:05:22Z</time>
      </trkpt>
      <trkpt lat="38.2839930" lon="-0.6849020">
        <ele>156.0</ele>
        <time>2019-12-20T09:05:23Z</time>
      </trkpt>
      <trkpt lat="38.2840430" lon="-0.6848850">
        <ele>156.0</ele>
        <time>2019-12-20T09:05:24Z</time>
      </trkpt>
      <trkpt lat="38.2840890" lon="-0.6848690">
        <ele>156.2</ele>
        <time>2019-12-20T09:05:25Z</time>
      </trkpt>
      <trkpt lat="38.2841390" lon="-0.6848450">
        <ele>156.2</ele>
        <time>2019-12-20T09:05:26Z</time>
      </trkpt>
      <trkpt lat="38.2841900" lon="-0.6848180">
        <ele>156.2</ele>
        <time>2019-12-20T09:05:27Z</time>
      </trkpt>
      <trkpt lat="38.2842450" lon="-0.6847900">
        <ele>156.4</ele>
        <time>2019-12-20T09:05:28Z</time>
      </trkpt>
      <trkpt lat="38.2842980" lon="-0.6847630">
        <ele>156.4</ele>
        <time>2019-12-20T09:05:29Z</time>
      </trkpt>
      <trkpt lat="38.2843510" lon="-0.6847350">
        <ele>156.6</ele>
        <time>2019-12-20T09:05:30Z</time>
      </trkpt>
      <trkpt lat="38.2844050" lon="-0.6847060">
        <ele>156.6</ele>
        <time>2019-12-20T09:05:31Z</time>
      </trkpt>
      <trkpt lat="38.2844580" lon="-0.6846740">
        <ele>156.6</ele>
        <time>2019-12-20T09:05:32Z</time>
      </trkpt>
      <trkpt lat="38.2845100" lon="-0.6846420">
        <ele>156.8</ele>
        <time>2019-12-20T09:05:33Z</time>
      </trkpt>
      <trkpt lat="38.2845640" lon="-0.6846120">
        <ele>156.8</ele>
        <time>2019-12-20T09:05:34Z</time>
      </trkpt>
      <trkpt lat="38.2846190" lon="-0.6845840">
        <ele>157.0</ele>
        <time>2019-12-20T09:05:35Z</time>
      </trkpt>
      <trkpt lat="38.2846730" lon="-0.6845550">
        <ele>157.0</ele>
        <time>2019-12-20T09:05:36Z</time>
      </trkpt>
      <trkpt lat="38.2847260" lon="-0.6845250">
        <ele>157.0</ele>
        <time>2019-12-20T09:05:37Z</time>
      </trkpt>
      <trkpt lat="38.2847770" lon="-0.6844990">
        <ele>157.2</ele>
        <time>2019-12-20T09:05:38Z</time>
      </trkpt>
      <trkpt lat="38.2848280" lon="-0.6844730">
        <ele>157.2</ele>
        <time>2019-12-20T09:05:39Z</time>
      </trkpt>
      <trkpt lat="38.2848800" lon="-0.6844470">
        <ele>157.4</ele>
        <time>2019-12-20T09:05:40Z</time>
      </trkpt>
      <trkpt lat="38.2849320" lon="-0.6844220">
        <ele>157.6</ele>
        <time>2019-12-20T09:05:41Z</time>
      </trkpt>
      <trkpt lat="38.2849850" lon="-0.6843970">
        <ele>157.6</ele>
        <time>2019-12-20T09:05:42Z</time>
      </trkpt>
      <trkpt lat="38.2850370" lon="-0.6843730">
        <ele>157.6</ele>
        <time>2019-12-20T09:05:43Z</time>
      </trkpt>
      <trkpt lat="38.2850910" lon="-0.6843500">
        <ele>157.8</ele>
        <time>2019-12-20T09:05:44Z</time>
      </trkpt>
      <trkpt lat="38.2851430" lon="-0.6843290">
        <ele>157.8</ele>
        <time>2019-12-20T09:05:45Z</time>
      </trkpt>
      <trkpt lat="38.2851970" lon="-0.6843090">
        <ele>158.0</ele>
        <time>2019-12-20T09:05:46Z</time>
      </trkpt>
      <trkpt lat="38.2852510" lon="-0.6842900">
        <ele>158.0</ele>
        <time>2019-12-20T09:05:47Z</time>
      </trkpt>
      <trkpt lat="38.2853050" lon="-0.6842720">
        <ele>158.2</ele>
        <time>2019-12-20T09:05:48Z</time>
      </trkpt>
      <trkpt lat="38.2853560" lon="-0.6842540">
        <ele>158.2</ele>
        <time>2019-12-20T09:05:49Z</time>
      </trkpt>
      <trkpt lat="38.2854080" lon="-0.6842360">
        <ele>158.2</ele>
        <time>2019-12-20T09:05:50Z</time>
      </trkpt>
      <trkpt lat="38.2854590" lon="-0.6842190">
        <ele>158.6</ele>
        <time>2019-12-20T09:05:51Z</time>
      </trkpt>
      <trkpt lat="38.2855120" lon="-0.6842050">
        <ele>158.8</ele>
        <time>2019-12-20T09:05:52Z</time>
      </trkpt>
      <trkpt lat="38.2855620" lon="-0.6841900">
        <ele>158.8</ele>
        <time>2019-12-20T09:05:53Z</time>
      </trkpt>
      <trkpt lat="38.2856140" lon="-0.6841760">
        <ele>159.2</ele>
        <time>2019-12-20T09:05:54Z</time>
      </trkpt>
      <trkpt lat="38.2856660" lon="-0.6841590">
        <ele>159.4</ele>
        <time>2019-12-20T09:05:55Z</time>
      </trkpt>
      <trkpt lat="38.2857170" lon="-0.6841410">
        <ele>159.4</ele>
        <time>2019-12-20T09:05:56Z</time>
      </trkpt>
      <trkpt lat="38.2857650" lon="-0.6841220">
        <ele>159.6</ele>
        <time>2019-12-20T09:05:57Z</time>
      </trkpt>
      <trkpt lat="38.2858180" lon="-0.6841010">
        <ele>159.8</ele>
        <time>2019-12-20T09:05:58Z</time>
      </trkpt>
      <trkpt lat="38.2858710" lon="-0.6840890">
        <ele>159.8</ele>
        <time>2019-12-20T09:05:59Z</time>
      </trkpt>
      <trkpt lat="38.2859210" lon="-0.6840790">
        <ele>159.8</ele>
        <time>2019-12-20T09:06:00Z</time>
      </trkpt>
      <trkpt lat="38.2859740" lon="-0.6840690">
        <ele>160.0</ele>
        <time>2019-12-20T09:06:01Z</time>
      </trkpt>
      <trkpt lat="38.2860280" lon="-0.6840640">
        <ele>160.0</ele>
        <time>2019-12-20T09:06:02Z</time>
      </trkpt>
      <trkpt lat="38.2860840" lon="-0.6840590">
        <ele>160.2</ele>
        <time>2019-12-20T09:06:03Z</time>
      </trkpt>
      <trkpt lat="38.2861420" lon="-0.6840490">
        <ele>160.4</ele>
        <time>2019-12-20T09:06:04Z</time>
      </trkpt>
      <trkpt lat="38.2861940" lon="-0.6840370">
        <ele>160.4</ele>
        <time>2019-12-20T09:06:05Z</time>
      </trkpt>
      <trkpt lat="38.2862480" lon="-0.6840290">
        <ele>160.6</ele>
        <time>2019-12-20T09:06:06Z</time>
      </trkpt>
      <trkpt lat="38.2862980" lon="-0.6840220">
        <ele>160.8</ele>
        <time>2019-12-20T09:06:07Z</time>
      </trkpt>
      <trkpt lat="38.2863470" lon="-0.6840180">
        <ele>160.8</ele>
        <time>2019-12-20T09:06:08Z</time>
      </trkpt>
      <trkpt lat="38.2863990" lon="-0.6840120">
        <ele>161.0</ele>
        <time>2019-12-20T09:06:09Z</time>
      </trkpt>
      <trkpt lat="38.2864480" lon="-0.6840110">
        <ele>161.2</ele>
        <time>2019-12-20T09:06:10Z</time>
      </trkpt>
      <trkpt lat="38.2864990" lon="-0.6840070">
        <ele>161.4</ele>
        <time>2019-12-20T09:06:11Z</time>
      </trkpt>
      <trkpt lat="38.2865470" lon="-0.6840010">
        <ele>161.6</ele>
        <time>2019-12-20T09:06:12Z</time>
      </trkpt>
      <trkpt lat="38.2865940" lon="-0.6839960">
        <ele>161.8</ele>
        <time>2019-12-20T09:06:13Z</time>
      </trkpt>
      <trkpt lat="38.2866400" lon="-0.6839910">
        <ele>161.8</ele>
        <time>2019-12-20T09:06:14Z</time>
      </trkpt>
      <trkpt lat="38.2866830" lon="-0.6839870">
        <ele>162.0</ele>
        <time>2019-12-20T09:06:15Z</time>
      </trkpt>
      <trkpt lat="38.2867250" lon="-0.6839840">
        <ele>162.2</ele>
        <time>2019-12-20T09:06:16Z</time>
      </trkpt>
      <trkpt lat="38.2867610" lon="-0.6839830">
        <ele>162.6</ele>
        <time>2019-12-20T09:06:17Z</time>
      </trkpt>
      <trkpt lat="38.2867950" lon="-0.6839830">
        <ele>162.8</ele>
        <time>2019-12-20T09:06:18Z</time>
      </trkpt>
      <trkpt lat="38.2868220" lon="-0.6839870">
        <ele>162.6</ele>
        <time>2019-12-20T09:06:19Z</time>
      </trkpt>
      <trkpt lat="38.2868460" lon="-0.6840020">
        <ele>162.8</ele>
        <time>2019-12-20T09:06:20Z</time>
      </trkpt>
      <trkpt lat="38.2868590" lon="-0.6840350">
        <ele>163.2</ele>
        <time>2019-12-20T09:06:21Z</time>
      </trkpt>
      <trkpt lat="38.2868600" lon="-0.6840750">
        <ele>163.2</ele>
        <time>2019-12-20T09:06:22Z</time>
      </trkpt>
      <trkpt lat="38.2868530" lon="-0.6841220">
        <ele>163.0</ele>
        <time>2019-12-20T09:06:23Z</time>
      </trkpt>
      <trkpt lat="38.2868380" lon="-0.6841690">
        <ele>163.0</ele>
        <time>2019-12-20T09:06:24Z</time>
      </trkpt>
      <trkpt lat="38.2868200" lon="-0.6842170">
        <ele>163.0</ele>
        <time>2019-12-20T09:06:25Z</time>
      </trkpt>
      <trkpt lat="38.2867970" lon="-0.6842670">
        <ele>163.0</ele>
        <time>2019-12-20T09:06:26Z</time>
      </trkpt>
      <trkpt lat="38.2867740" lon="-0.6843190">
        <ele>163.0</ele>
        <time>2019-12-20T09:06:27Z</time>
      </trkpt>
      <trkpt lat="38.2867500" lon="-0.6843730">
        <ele>162.8</ele>
        <time>2019-12-20T09:06:28Z</time>
      </trkpt>
      <trkpt lat="38.2867230" lon="-0.6844270">
        <ele>162.6</ele>
        <time>2019-12-20T09:06:29Z</time>
      </trkpt>
      <trkpt lat="38.2866930" lon="-0.6844820">
        <ele>162.6</ele>
        <time>2019-12-20T09:06:30Z</time>
      </trkpt>
      <trkpt lat="38.2866650" lon="-0.6845410">
        <ele>162.6</ele>
        <time>2019-12-20T09:06:31Z</time>
      </trkpt>
      <trkpt lat="38.2866380" lon="-0.6846030">
        <ele>162.6</ele>
        <time>2019-12-20T09:06:32Z</time>
      </trkpt>
      <trkpt lat="38.2866090" lon="-0.6846650">
        <ele>162.6</ele>
        <time>2019-12-20T09:06:33Z</time>
      </trkpt>
      <trkpt lat="38.2865780" lon="-0.6847270">
        <ele>162.6</ele>
        <time>2019-12-20T09:06:34Z</time>
      </trkpt>
      <trkpt lat="38.2865460" lon="-0.6847890">
        <ele>162.4</ele>
        <time>2019-12-20T09:06:35Z</time>
      </trkpt>
      <trkpt lat="38.2865150" lon="-0.6848510">
        <ele>162.2</ele>
        <time>2019-12-20T09:06:36Z</time>
      </trkpt>
      <trkpt lat="38.2864880" lon="-0.6849130">
        <ele>162.2</ele>
        <time>2019-12-20T09:06:37Z</time>
      </trkpt>
      <trkpt lat="38.2864540" lon="-0.6849730">
        <ele>162.0</ele>
        <time>2019-12-20T09:06:38Z</time>
      </trkpt>
      <trkpt lat="38.2864230" lon="-0.6850360">
        <ele>162.2</ele>
        <time>2019-12-20T09:06:39Z</time>
      </trkpt>
      <trkpt lat="38.2863890" lon="-0.6851000">
        <ele>162.0</ele>
        <time>2019-12-20T09:06:40Z</time>
      </trkpt>
      <trkpt lat="38.2863500" lon="-0.6851640">
        <ele>161.8</ele>
        <time>2019-12-20T09:06:41Z</time>
      </trkpt>
      <trkpt lat="38.2863170" lon="-0.6852330">
        <ele>161.6</ele>
        <time>2019-12-20T09:06:42Z</time>
      </trkpt>
      <trkpt lat="38.2862830" lon="-0.6853030">
        <ele>161.6</ele>
        <time>2019-12-20T09:06:43Z</time>
      </trkpt>
      <trkpt lat="38.2862480" lon="-0.6853720">
        <ele>161.4</ele>
        <time>2019-12-20T09:06:44Z</time>
      </trkpt>
      <trkpt lat="38.2862100" lon="-0.6854430">
        <ele>161.0</ele>
        <time>2019-12-20T09:06:45Z</time>
      </trkpt>
      <trkpt lat="38.2861730" lon="-0.6855130">
        <ele>160.8</ele>
        <time>2019-12-20T09:06:46Z</time>
      </trkpt>
      <trkpt lat="38.2861350" lon="-0.6855850">
        <ele>161.0</ele>
        <time>2019-12-20T09:06:47Z</time>
      </trkpt>
      <trkpt lat="38.2860970" lon="-0.6856550">
        <ele>160.8</ele>
        <time>2019-12-20T09:06:48Z</time>
      </trkpt>
      <trkpt lat="38.2860570" lon="-0.6857230">
        <ele>160.6</ele>
        <time>2019-12-20T09:06:49Z</time>
      </trkpt>
      <trkpt lat="38.2860160" lon="-0.6857900">
        <ele>160.8</ele>
        <time>2019-12-20T09:06:50Z</time>
      </trkpt>
      <trkpt lat="38.2859750" lon="-0.6858570">
        <ele>160.6</ele>
        <time>2019-12-20T09:06:51Z</time>
      </trkpt>
      <trkpt lat="38.2859330" lon="-0.6859200">
        <ele>160.6</ele>
        <time>2019-12-20T09:06:52Z</time>
      </trkpt>
      <trkpt lat="38.2858930" lon="-0.6859830">
        <ele>160.6</ele>
        <time>2019-12-20T09:06:53Z</time>
      </trkpt>
      <trkpt lat="38.2858520" lon="-0.6860450">
        <ele>160.8</ele>
        <time>2019-12-20T09:06:54Z</time>
      </trkpt>
      <trkpt lat="38.2858120" lon="-0.6861070">
        <ele>160.8</ele>
        <time>2019-12-20T09:06:55Z</time>
      </trkpt>
      <trkpt lat="38.2857720" lon="-0.6861690">
        <ele>160.6</ele>
        <time>2019-12-20T09:06:56Z</time>
      </trkpt>
      <trkpt lat="38.2857340" lon="-0.6862330">
        <ele>160.4</ele>
        <time>2019-12-20T09:06:57Z</time>
      </trkpt>
      <trkpt lat="38.2856960" lon="-0.6862990">
        <ele>160.4</ele>
        <time>2019-12-20T09:06:58Z</time>
      </trkpt>
      <trkpt lat="38.2856600" lon="-0.6863660">
        <ele>160.6</ele>
        <time>2019-12-20T09:06:59Z</time>
      </trkpt>
      <trkpt lat="38.2856250" lon="-0.6864330">
        <ele>160.2</ele>
        <time>2019-12-20T09:07:00Z</time>
      </trkpt>
      <trkpt lat="38.2855930" lon="-0.6864990">
        <ele>160.2</ele>
        <time>2019-12-20T09:07:01Z</time>
      </trkpt>
      <trkpt lat="38.2855590" lon="-0.6865670">
        <ele>160.4</ele>
        <time>2019-12-20T09:07:02Z</time>
      </trkpt>
      <trkpt lat="38.2855260" lon="-0.6866360">
        <ele>160.0</ele>
        <time>2019-12-20T09:07:03Z</time>
      </trkpt>
      <trkpt lat="38.2854900" lon="-0.6867010">
        <ele>160.0</ele>
        <time>2019-12-20T09:07:04Z</time>
      </trkpt>
      <trkpt lat="38.2854460" lon="-0.6867610">
        <ele>160.0</ele>
        <time>2019-12-20T09:07:05Z</time>
      </trkpt>
      <trkpt lat="38.2853990" lon="-0.6868190">
        <ele>160.0</ele>
        <time>2019-12-20T09:07:06Z</time>
      </trkpt>
      <trkpt lat="38.2853540" lon="-0.6868810">
        <ele>159.8</ele>
        <time>2019-12-20T09:07:07Z</time>
      </trkpt>
      <trkpt lat="38.2853190" lon="-0.6869550">
        <ele>159.6</ele>
        <time>2019-12-20T09:07:08Z</time>
      </trkpt>
      <trkpt lat="38.2852920" lon="-0.6870370">
        <ele>159.4</ele>
        <time>2019-12-20T09:07:09Z</time>
      </trkpt>
      <trkpt lat="38.2852660" lon="-0.6871220">
        <ele>159.0</ele>
        <time>2019-12-20T09:07:10Z</time>
      </trkpt>
      <trkpt lat="38.2852360" lon="-0.6872000">
        <ele>159.0</ele>
        <time>2019-12-20T09:07:11Z</time>
      </trkpt>
      <trkpt lat="38.2852010" lon="-0.6872740">
        <ele>158.8</ele>
        <time>2019-12-20T09:07:12Z</time>
      </trkpt>
      <trkpt lat="38.2851630" lon="-0.6873450">
        <ele>158.8</ele>
        <time>2019-12-20T09:07:13Z</time>
      </trkpt>
      <trkpt lat="38.2851240" lon="-0.6874130">
        <ele>158.8</ele>
        <time>2019-12-20T09:07:14Z</time>
      </trkpt>
      <trkpt lat="38.2850870" lon="-0.6874820">
        <ele>158.8</ele>
        <time>2019-12-20T09:07:15Z</time>
      </trkpt>
      <trkpt lat="38.2850490" lon="-0.6875500">
        <ele>158.8</ele>
        <time>2019-12-20T09:07:16Z</time>
      </trkpt>
      <trkpt lat="38.2850140" lon="-0.6876170">
        <ele>159.0</ele>
        <time>2019-12-20T09:07:17Z</time>
      </trkpt>
      <trkpt lat="38.2849820" lon="-0.6876840">
        <ele>159.2</ele>
        <time>2019-12-20T09:07:18Z</time>
      </trkpt>
      <trkpt lat="38.2849560" lon="-0.6877420">
        <ele>159.4</ele>
        <time>2019-12-20T09:07:19Z</time>
      </trkpt>
      <trkpt lat="38.2849490" lon="-0.6877880">
        <ele>159.4</ele>
        <time>2019-12-20T09:07:20Z</time>
      </trkpt>
      <trkpt lat="38.2849600" lon="-0.6878240">
        <ele>159.6</ele>
        <time>2019-12-20T09:07:21Z</time>
      </trkpt>
      <trkpt lat="38.2849810" lon="-0.6878510">
        <ele>159.8</ele>
        <time>2019-12-20T09:07:22Z</time>
      </trkpt>
      <trkpt lat="38.2850030" lon="-0.6878730">
        <ele>160.0</ele>
        <time>2019-12-20T09:07:23Z</time>
      </trkpt>
      <trkpt lat="38.2850310" lon="-0.6878920">
        <ele>160.0</ele>
        <time>2019-12-20T09:07:24Z</time>
      </trkpt>
      <trkpt lat="38.2850640" lon="-0.6879100">
        <ele>160.2</ele>
        <time>2019-12-20T09:07:25Z</time>
      </trkpt>
      <trkpt lat="38.2850950" lon="-0.6879280">
        <ele>160.4</ele>
        <time>2019-12-20T09:07:26Z</time>
      </trkpt>
      <trkpt lat="38.2851280" lon="-0.6879460">
        <ele>160.6</ele>
        <time>2019-12-20T09:07:27Z</time>
      </trkpt>
      <trkpt lat="38.2851620" lon="-0.6879690">
        <ele>160.8</ele>
        <time>2019-12-20T09:07:28Z</time>
      </trkpt>
      <trkpt lat="38.2851960" lon="-0.6879940">
        <ele>160.8</ele>
        <time>2019-12-20T09:07:29Z</time>
      </trkpt>
      <trkpt lat="38.2852320" lon="-0.6880120">
        <ele>161.0</ele>
        <time>2019-12-20T09:07:30Z</time>
      </trkpt>
      <trkpt lat="38.2852710" lon="-0.6880320">
        <ele>161.2</ele>
        <time>2019-12-20T09:07:31Z</time>
      </trkpt>
      <trkpt lat="38.2853080" lon="-0.6880600">
        <ele>161.4</ele>
        <time>2019-12-20T09:07:32Z</time>
      </trkpt>
      <trkpt lat="38.2853450" lon="-0.6880860">
        <ele>161.6</ele>
        <time>2019-12-20T09:07:33Z</time>
      </trkpt>
      <trkpt lat="38.2853830" lon="-0.6881080">
        <ele>161.8</ele>
        <time>2019-12-20T09:07:34Z</time>
      </trkpt>
      <trkpt lat="38.2854210" lon="-0.6881310">
        <ele>162.0</ele>
        <time>2019-12-20T09:07:35Z</time>
      </trkpt>
      <trkpt lat="38.2854570" lon="-0.6881570">
        <ele>162.2</ele>
        <time>2019-12-20T09:07:36Z</time>
      </trkpt>
      <trkpt lat="38.2854920" lon="-0.6881820">
        <ele>162.4</ele>
        <time>2019-12-20T09:07:37Z</time>
      </trkpt>
      <trkpt lat="38.2855250" lon="-0.6882060">
        <ele>162.4</ele>
        <time>2019-12-20T09:07:38Z</time>
      </trkpt>
      <trkpt lat="38.2855550" lon="-0.6882390">
        <ele>162.6</ele>
        <time>2019-12-20T09:07:39Z</time>
      </trkpt>
      <trkpt lat="38.2855810" lon="-0.6882820">
        <ele>162.8</ele>
        <time>2019-12-20T09:07:40Z</time>
      </trkpt>
      <trkpt lat="38.2855940" lon="-0.6883290">
        <ele>163.0</ele>
        <time>2019-12-20T09:07:41Z</time>
      </trkpt>
      <trkpt lat="38.2856000" lon="-0.6883850">
        <ele>163.0</ele>
        <time>2019-12-20T09:07:42Z</time>
      </trkpt>
      <trkpt lat="38.2856060" lon="-0.6884420">
        <ele>163.2</ele>
        <time>2019-12-20T09:07:43Z</time>
      </trkpt>
      <trkpt lat="38.2856030" lon="-0.6884990">
        <ele>163.2</ele>
        <time>2019-12-20T09:07:44Z</time>
      </trkpt>
      <trkpt lat="38.2856010" lon="-0.6885590">
        <ele>163.2</ele>
        <time>2019-12-20T09:07:45Z</time>
      </trkpt>
      <trkpt lat="38.2856010" lon="-0.6886220">
        <ele>163.2</ele>
        <time>2019-12-20T09:07:46Z</time>
      </trkpt>
      <trkpt lat="38.2856040" lon="-0.6886920">
        <ele>163.2</ele>
        <time>2019-12-20T09:07:47Z</time>
      </trkpt>
      <trkpt lat="38.2856040" lon="-0.6887620">
        <ele>163.2</ele>
        <time>2019-12-20T09:07:48Z</time>
      </trkpt>
      <trkpt lat="38.2856050" lon="-0.6888300">
        <ele>163.2</ele>
        <time>2019-12-20T09:07:49Z</time>
      </trkpt>
      <trkpt lat="38.2856050" lon="-0.6888970">
        <ele>163.2</ele>
        <time>2019-12-20T09:07:50Z</time>
      </trkpt>
      <trkpt lat="38.2856080" lon="-0.6889650">
        <ele>163.2</ele>
        <time>2019-12-20T09:07:51Z</time>
      </trkpt>
      <trkpt lat="38.2856130" lon="-0.6890340">
        <ele>163.4</ele>
        <time>2019-12-20T09:07:52Z</time>
      </trkpt>
      <trkpt lat="38.2856230" lon="-0.6890930">
        <ele>163.4</ele>
        <time>2019-12-20T09:07:53Z</time>
      </trkpt>
      <trkpt lat="38.2856310" lon="-0.6891610">
        <ele>163.2</ele>
        <time>2019-12-20T09:07:54Z</time>
      </trkpt>
      <trkpt lat="38.2856390" lon="-0.6892240">
        <ele>163.4</ele>
        <time>2019-12-20T09:07:55Z</time>
      </trkpt>
      <trkpt lat="38.2856520" lon="-0.6892890">
        <ele>163.4</ele>
        <time>2019-12-20T09:07:56Z</time>
      </trkpt>
      <trkpt lat="38.2856690" lon="-0.6893550">
        <ele>163.4</ele>
        <time>2019-12-20T09:07:57Z</time>
      </trkpt>
      <trkpt lat="38.2856800" lon="-0.6894250">
        <ele>163.2</ele>
        <time>2019-12-20T09:07:58Z</time>
      </trkpt>
      <trkpt lat="38.2856880" lon="-0.6895010">
        <ele>163.2</ele>
        <time>2019-12-20T09:07:59Z</time>
      </trkpt>
      <trkpt lat="38.2856940" lon="-0.6895780">
        <ele>163.2</ele>
        <time>2019-12-20T09:08:00Z</time>
      </trkpt>
      <trkpt lat="38.2856960" lon="-0.6896560">
        <ele>163.0</ele>
        <time>2019-12-20T09:08:01Z</time>
      </trkpt>
      <trkpt lat="38.2856990" lon="-0.6897340">
        <ele>163.2</ele>
        <time>2019-12-20T09:08:02Z</time>
      </trkpt>
      <trkpt lat="38.2857010" lon="-0.6898100">
        <ele>163.2</ele>
        <time>2019-12-20T09:08:03Z</time>
      </trkpt>
      <trkpt lat="38.2857000" lon="-0.6898800">
        <ele>163.4</ele>
        <time>2019-12-20T09:08:04Z</time>
      </trkpt>
      <trkpt lat="38.2856980" lon="-0.6899450">
        <ele>163.6</ele>
        <time>2019-12-20T09:08:05Z</time>
      </trkpt>
      <trkpt lat="38.2856980" lon="-0.6900100">
        <ele>163.8</ele>
        <time>2019-12-20T09:08:06Z</time>
      </trkpt>
      <trkpt lat="38.2856970" lon="-0.6900720">
        <ele>164.2</ele>
        <time>2019-12-20T09:08:07Z</time>
      </trkpt>
      <trkpt lat="38.2856950" lon="-0.6901280">
        <ele>164.4</ele>
        <time>2019-12-20T09:08:08Z</time>
      </trkpt>
      <trkpt lat="38.2856940" lon="-0.6901800">
        <ele>164.8</ele>
        <time>2019-12-20T09:08:09Z</time>
      </trkpt>
      <trkpt lat="38.2856940" lon="-0.6902310">
        <ele>165.0</ele>
        <time>2019-12-20T09:08:10Z</time>
      </trkpt>
      <trkpt lat="38.2856950" lon="-0.6902840">
        <ele>165.2</ele>
        <time>2019-12-20T09:08:11Z</time>
      </trkpt>
      <trkpt lat="38.2856940" lon="-0.6903370">
        <ele>165.2</ele>
        <time>2019-12-20T09:08:12Z</time>
      </trkpt>
      <trkpt lat="38.2856940" lon="-0.6903950">
        <ele>165.2</ele>
        <time>2019-12-20T09:08:13Z</time>
      </trkpt>
      <trkpt lat="38.2856930" lon="-0.6904520">
        <ele>165.2</ele>
        <time>2019-12-20T09:08:14Z</time>
      </trkpt>
      <trkpt lat="38.2856950" lon="-0.6905110">
        <ele>165.2</ele>
        <time>2019-12-20T09:08:15Z</time>
      </trkpt>
      <trkpt lat="38.2856980" lon="-0.6905700">
        <ele>165.2</ele>
        <time>2019-12-20T09:08:16Z</time>
      </trkpt>
      <trkpt lat="38.2857010" lon="-0.6906310">
        <ele>165.2</ele>
        <time>2019-12-20T09:08:17Z</time>
      </trkpt>
      <trkpt lat="38.2857010" lon="-0.6906930">
        <ele>165.4</ele>
        <time>2019-12-20T09:08:18Z</time>
      </trkpt>
      <trkpt lat="38.2857020" lon="-0.6907540">
        <ele>165.4</ele>
        <time>2019-12-20T09:08:19Z</time>
      </trkpt>
      <trkpt lat="38.2857050" lon="-0.6908150">
        <ele>165.4</ele>
        <time>2019-12-20T09:08:20Z</time>
      </trkpt>
      <trkpt lat="38.2857080" lon="-0.6908740">
        <ele>165.4</ele>
        <time>2019-12-20T09:08:21Z</time>
      </trkpt>
      <trkpt lat="38.2857140" lon="-0.6909290">
        <ele>165.4</ele>
        <time>2019-12-20T09:08:22Z</time>
      </trkpt>
      <trkpt lat="38.2857230" lon="-0.6909760">
        <ele>165.6</ele>
        <time>2019-12-20T09:08:23Z</time>
      </trkpt>
      <trkpt lat="38.2857360" lon="-0.6910200">
        <ele>165.8</ele>
        <time>2019-12-20T09:08:24Z</time>
      </trkpt>
      <trkpt lat="38.2857430" lon="-0.6910620">
        <ele>166.0</ele>
        <time>2019-12-20T09:08:25Z</time>
      </trkpt>
      <trkpt lat="38.2857480" lon="-0.6911100">
        <ele>166.0</ele>
        <time>2019-12-20T09:08:26Z</time>
      </trkpt>
      <trkpt lat="38.2857520" lon="-0.6911620">
        <ele>166.2</ele>
        <time>2019-12-20T09:08:27Z</time>
      </trkpt>
      <trkpt lat="38.2857540" lon="-0.6912170">
        <ele>166.0</ele>
        <time>2019-12-20T09:08:28Z</time>
      </trkpt>
      <trkpt lat="38.2857500" lon="-0.6912740">
        <ele>166.0</ele>
        <time>2019-12-20T09:08:29Z</time>
      </trkpt>
      <trkpt lat="38.2857440" lon="-0.6913320">
        <ele>166.0</ele>
        <time>2019-12-20T09:08:30Z</time>
      </trkpt>
      <trkpt lat="38.2857360" lon="-0.6913940">
        <ele>166.0</ele>
        <time>2019-12-20T09:08:31Z</time>
      </trkpt>
      <trkpt lat="38.2857280" lon="-0.6914550">
        <ele>166.0</ele>
        <time>2019-12-20T09:08:32Z</time>
      </trkpt>
      <trkpt lat="38.2857190" lon="-0.6915130">
        <ele>166.0</ele>
        <time>2019-12-20T09:08:33Z</time>
      </trkpt>
      <trkpt lat="38.2857060" lon="-0.6915770">
        <ele>166.0</ele>
        <time>2019-12-20T09:08:34Z</time>
      </trkpt>
      <trkpt lat="38.2856920" lon="-0.6916440">
        <ele>166.0</ele>
        <time>2019-12-20T09:08:35Z</time>
      </trkpt>
      <trkpt lat="38.2856770" lon="-0.6917110">
        <ele>166.0</ele>
        <time>2019-12-20T09:08:36Z</time>
      </trkpt>
      <trkpt lat="38.2856600" lon="-0.6917750">
        <ele>166.0</ele>
        <time>2019-12-20T09:08:37Z</time>
      </trkpt>
      <trkpt lat="38.2856440" lon="-0.6918390">
        <ele>165.8</ele>
        <time>2019-12-20T09:08:38Z</time>
      </trkpt>
      <trkpt lat="38.2856350" lon="-0.6919090">
        <ele>165.6</ele>
        <time>2019-12-20T09:08:39Z</time>
      </trkpt>
      <trkpt lat="38.2856310" lon="-0.6919820">
        <ele>165.6</ele>
        <time>2019-12-20T09:08:40Z</time>
      </trkpt>
      <trkpt lat="38.2856320" lon="-0.6920540">
        <ele>165.4</ele>
        <time>2019-12-20T09:08:41Z</time>
      </trkpt>
      <trkpt lat="38.2856370" lon="-0.6921290">
        <ele>165.2</ele>
        <time>2019-12-20T09:08:42Z</time>
      </trkpt>
      <trkpt lat="38.2856440" lon="-0.6922110">
        <ele>164.8</ele>
        <time>2019-12-20T09:08:43Z</time>
      </trkpt>
      <trkpt lat="38.2856520" lon="-0.6922970">
        <ele>164.6</ele>
        <time>2019-12-20T09:08:44Z</time>
      </trkpt>
      <trkpt lat="38.2856590" lon="-0.6923870">
        <ele>164.0</ele>
        <time>2019-12-20T09:08:45Z</time>
      </trkpt>
      <trkpt lat="38.2856680" lon="-0.6924800">
        <ele>163.4</ele>
        <time>2019-12-20T09:08:46Z</time>
      </trkpt>
      <trkpt lat="38.2856740" lon="-0.6925760">
        <ele>163.2</ele>
        <time>2019-12-20T09:08:47Z</time>
      </trkpt>
      <trkpt lat="38.2856800" lon="-0.6926710">
        <ele>162.8</ele>
        <time>2019-12-20T09:08:48Z</time>
      </trkpt>
      <trkpt lat="38.2856830" lon="-0.6927660">
        <ele>163.2</ele>
        <time>2019-12-20T09:08:49Z</time>
      </trkpt>
      <trkpt lat="38.2856810" lon="-0.6928560">
        <ele>162.8</ele>
        <time>2019-12-20T09:08:50Z</time>
      </trkpt>
      <trkpt lat="38.2856740" lon="-0.6929460">
        <ele>162.8</ele>
        <time>2019-12-20T09:08:51Z</time>
      </trkpt>
      <trkpt lat="38.2856620" lon="-0.6930350">
        <ele>162.6</ele>
        <time>2019-12-20T09:08:52Z</time>
      </trkpt>
      <trkpt lat="38.2856420" lon="-0.6931230">
        <ele>162.6</ele>
        <time>2019-12-20T09:08:53Z</time>
      </trkpt>
      <trkpt lat="38.2856170" lon="-0.6932100">
        <ele>162.6</ele>
        <time>2019-12-20T09:08:54Z</time>
      </trkpt>
      <trkpt lat="38.2855890" lon="-0.6932950">
        <ele>162.4</ele>
        <time>2019-12-20T09:08:55Z</time>
      </trkpt>
      <trkpt lat="38.2855600" lon="-0.6933800">
        <ele>162.0</ele>
        <time>2019-12-20T09:08:56Z</time>
      </trkpt>
      <trkpt lat="38.2855310" lon="-0.6934650">
        <ele>161.8</ele>
        <time>2019-12-20T09:08:57Z</time>
      </trkpt>
      <trkpt lat="38.2855010" lon="-0.6935500">
        <ele>161.8</ele>
        <time>2019-12-20T09:08:58Z</time>
      </trkpt>
      <trkpt lat="38.2854760" lon="-0.6936370">
        <ele>161.6</ele>
        <time>2019-12-20T09:08:59Z</time>
      </trkpt>
      <trkpt lat="38.2854530" lon="-0.6937250">
        <ele>161.6</ele>
        <time>2019-12-20T09:09:00Z</time>
      </trkpt>
      <trkpt lat="38.2854350" lon="-0.6938140">
        <ele>161.4</ele>
        <time>2019-12-20T09:09:01Z</time>
      </trkpt>
      <trkpt lat="38.2854160" lon="-0.6939030">
        <ele>161.2</ele>
        <time>2019-12-20T09:09:02Z</time>
      </trkpt>
      <trkpt lat="38.2853980" lon="-0.6939910">
        <ele>161.2</ele>
        <time>2019-12-20T09:09:03Z</time>
      </trkpt>
      <trkpt lat="38.2853800" lon="-0.6940790">
        <ele>161.2</ele>
        <time>2019-12-20T09:09:04Z</time>
      </trkpt>
      <trkpt lat="38.2853630" lon="-0.6941680">
        <ele>161.0</ele>
        <time>2019-12-20T09:09:05Z</time>
      </trkpt>
      <trkpt lat="38.2853450" lon="-0.6942580">
        <ele>160.8</ele>
        <time>2019-12-20T09:09:06Z</time>
      </trkpt>
      <trkpt lat="38.2853290" lon="-0.6943480">
        <ele>160.6</ele>
        <time>2019-12-20T09:09:07Z</time>
      </trkpt>
      <trkpt lat="38.2853130" lon="-0.6944370">
        <ele>160.4</ele>
        <time>2019-12-20T09:09:08Z</time>
      </trkpt>
      <trkpt lat="38.2852960" lon="-0.6945250">
        <ele>160.4</ele>
        <time>2019-12-20T09:09:09Z</time>
      </trkpt>
      <trkpt lat="38.2852770" lon="-0.6946110">
        <ele>160.4</ele>
        <time>2019-12-20T09:09:10Z</time>
      </trkpt>
      <trkpt lat="38.2852590" lon="-0.6947000">
        <ele>160.2</ele>
        <time>2019-12-20T09:09:11Z</time>
      </trkpt>
      <trkpt lat="38.2852420" lon="-0.6947870">
        <ele>160.2</ele>
        <time>2019-12-20T09:09:12Z</time>
      </trkpt>
      <trkpt lat="38.2852250" lon="-0.6948750">
        <ele>160.0</ele>
        <time>2019-12-20T09:09:13Z</time>
      </trkpt>
      <trkpt lat="38.2852090" lon="-0.6949580">
        <ele>160.0</ele>
        <time>2019-12-20T09:09:14Z</time>
      </trkpt>
      <trkpt lat="38.2851880" lon="-0.6950440">
        <ele>159.8</ele>
        <time>2019-12-20T09:09:15Z</time>
      </trkpt>
      <trkpt lat="38.2851650" lon="-0.6951270">
        <ele>159.8</ele>
        <time>2019-12-20T09:09:16Z</time>
      </trkpt>
      <trkpt lat="38.2851420" lon="-0.6952110">
        <ele>159.8</ele>
        <time>2019-12-20T09:09:17Z</time>
      </trkpt>
      <trkpt lat="38.2851170" lon="-0.6952950">
        <ele>159.4</ele>
        <time>2019-12-20T09:09:18Z</time>
      </trkpt>
      <trkpt lat="38.2850920" lon="-0.6953780">
        <ele>159.4</ele>
        <time>2019-12-20T09:09:19Z</time>
      </trkpt>
      <trkpt lat="38.2850650" lon="-0.6954600">
        <ele>159.2</ele>
        <time>2019-12-20T09:09:20Z</time>
      </trkpt>
      <trkpt lat="38.2850370" lon="-0.6955440">
        <ele>158.8</ele>
        <time>2019-12-20T09:09:21Z</time>
      </trkpt>
      <trkpt lat="38.2850090" lon="-0.6956290">
        <ele>158.8</ele>
        <time>2019-12-20T09:09:22Z</time>
      </trkpt>
      <trkpt lat="38.2849820" lon="-0.6957170">
        <ele>158.4</ele>
        <time>2019-12-20T09:09:23Z</time>
      </trkpt>
      <trkpt lat="38.2849550" lon="-0.6958030">
        <ele>158.2</ele>
        <time>2019-12-20T09:09:24Z</time>
      </trkpt>
      <trkpt lat="38.2849260" lon="-0.6958870">
        <ele>158.0</ele>
        <time>2019-12-20T09:09:25Z</time>
      </trkpt>
      <trkpt lat="38.2848990" lon="-0.6959740">
        <ele>157.6</ele>
        <time>2019-12-20T09:09:26Z</time>
      </trkpt>
      <trkpt lat="38.2848710" lon="-0.6960570">
        <ele>157.4</ele>
        <time>2019-12-20T09:09:27Z</time>
      </trkpt>
      <trkpt lat="38.2848390" lon="-0.6961380">
        <ele>157.2</ele>
        <time>2019-12-20T09:09:28Z</time>
      </trkpt>
      <trkpt lat="38.2848080" lon="-0.6962180">
        <ele>157.0</ele>
        <time>2019-12-20T09:09:29Z</time>
      </trkpt>
      <trkpt lat="38.2847810" lon="-0.6962990">
        <ele>157.0</ele>
        <time>2019-12-20T09:09:30Z</time>
      </trkpt>
      <trkpt lat="38.2847530" lon="-0.6963830">
        <ele>156.6</ele>
        <time>2019-12-20T09:09:31Z</time>
      </trkpt>
      <trkpt lat="38.2847270" lon="-0.6964720">
        <ele>156.0</ele>
        <time>2019-12-20T09:09:32Z</time>
      </trkpt>
      <trkpt lat="38.2847000" lon="-0.6965630">
        <ele>155.4</ele>
        <time>2019-12-20T09:09:33Z</time>
      </trkpt>
      <trkpt lat="38.2846720" lon="-0.6966550">
        <ele>155.0</ele>
        <time>2019-12-20T09:09:34Z</time>
      </trkpt>
      <trkpt lat="38.2846400" lon="-0.6967490">
        <ele>154.6</ele>
        <time>2019-12-20T09:09:35Z</time>
      </trkpt>
      <trkpt lat="38.2846060" lon="-0.6968480">
        <ele>153.8</ele>
        <time>2019-12-20T09:09:36Z</time>
      </trkpt>
      <trkpt lat="38.2845710" lon="-0.6969500">
        <ele>153.0</ele>
        <time>2019-12-20T09:09:37Z</time>
      </trkpt>
      <trkpt lat="38.2845300" lon="-0.6970510">
        <ele>152.2</ele>
        <time>2019-12-20T09:09:38Z</time>
      </trkpt>
      <trkpt lat="38.2844910" lon="-0.6971510">
        <ele>151.6</ele>
        <time>2019-12-20T09:09:39Z</time>
      </trkpt>
      <trkpt lat="38.2844600" lon="-0.6972400">
        <ele>151.0</ele>
        <time>2019-12-20T09:09:40Z</time>
      </trkpt>
      <trkpt lat="38.2844360" lon="-0.6973060">
        <ele>150.6</ele>
        <time>2019-12-20T09:09:41Z</time>
      </trkpt>
      <trkpt lat="38.2844220" lon="-0.6973550">
        <ele>150.6</ele>
        <time>2019-12-20T09:09:42Z</time>
      </trkpt>
      <trkpt lat="38.2844190" lon="-0.6973950">
        <ele>150.4</ele>
        <time>2019-12-20T09:09:43Z</time>
      </trkpt>
      <trkpt lat="38.2844260" lon="-0.6974270">
        <ele>150.2</ele>
        <time>2019-12-20T09:09:44Z</time>
      </trkpt>
      <trkpt lat="38.2844430" lon="-0.6974450">
        <ele>150.0</ele>
        <time>2019-12-20T09:09:45Z</time>
      </trkpt>
      <trkpt lat="38.2844680" lon="-0.6974580">
        <ele>150.0</ele>
        <time>2019-12-20T09:09:46Z</time>
      </trkpt>
      <trkpt lat="38.2845030" lon="-0.6974620">
        <ele>149.8</ele>
        <time>2019-12-20T09:09:47Z</time>
      </trkpt>
      <trkpt lat="38.2845420" lon="-0.6974590">
        <ele>149.6</ele>
        <time>2019-12-20T09:09:48Z</time>
      </trkpt>
      <trkpt lat="38.2845830" lon="-0.6974560">
        <ele>149.6</ele>
        <time>2019-12-20T09:09:49Z</time>
      </trkpt>
      <trkpt lat="38.2846280" lon="-0.6974560">
        <ele>149.8</ele>
        <time>2019-12-20T09:09:50Z</time>
      </trkpt>
      <trkpt lat="38.2846710" lon="-0.6974570">
        <ele>149.8</ele>
        <time>2019-12-20T09:09:51Z</time>
      </trkpt>
      <trkpt lat="38.2847150" lon="-0.6974590">
        <ele>150.0</ele>
        <time>2019-12-20T09:09:52Z</time>
      </trkpt>
      <trkpt lat="38.2847580" lon="-0.6974620">
        <ele>150.2</ele>
        <time>2019-12-20T09:09:53Z</time>
      </trkpt>
      <trkpt lat="38.2848010" lon="-0.6974640">
        <ele>150.4</ele>
        <time>2019-12-20T09:09:54Z</time>
      </trkpt>
      <trkpt lat="38.2848420" lon="-0.6974650">
        <ele>150.6</ele>
        <time>2019-12-20T09:09:55Z</time>
      </trkpt>
      <trkpt lat="38.2848840" lon="-0.6974640">
        <ele>150.8</ele>
        <time>2019-12-20T09:09:56Z</time>
      </trkpt>
      <trkpt lat="38.2849250" lon="-0.6974640">
        <ele>151.0</ele>
        <time>2019-12-20T09:09:57Z</time>
      </trkpt>
      <trkpt lat="38.2849670" lon="-0.6974660">
        <ele>151.2</ele>
        <time>2019-12-20T09:09:58Z</time>
      </trkpt>
      <trkpt lat="38.2850070" lon="-0.6974660">
        <ele>151.4</ele>
        <time>2019-12-20T09:09:59Z</time>
      </trkpt>
      <trkpt lat="38.2850480" lon="-0.6974660">
        <ele>151.6</ele>
        <time>2019-12-20T09:10:00Z</time>
      </trkpt>
      <trkpt lat="38.2850870" lon="-0.6974650">
        <ele>152.2</ele>
        <time>2019-12-20T09:10:01Z</time>
      </trkpt>
      <trkpt lat="38.2851270" lon="-0.6974630">
        <ele>152.2</ele>
        <time>2019-12-20T09:10:02Z</time>
      </trkpt>
      <trkpt lat="38.2851660" lon="-0.6974560">
        <ele>152.6</ele>
        <time>2019-12-20T09:10:03Z</time>
      </trkpt>
      <trkpt lat="38.2852030" lon="-0.6974470">
        <ele>152.8</ele>
        <time>2019-12-20T09:10:04Z</time>
      </trkpt>
      <trkpt lat="38.2852400" lon="-0.6974350">
        <ele>153.0</ele>
        <time>2019-12-20T09:10:05Z</time>
      </trkpt>
      <trkpt lat="38.2852770" lon="-0.6974200">
        <ele>153.4</ele>
        <time>2019-12-20T09:10:06Z</time>
      </trkpt>
      <trkpt lat="38.2853130" lon="-0.6974030">
        <ele>153.8</ele>
        <time>2019-12-20T09:10:07Z</time>
      </trkpt>
      <trkpt lat="38.2853480" lon="-0.6973840">
        <ele>154.0</ele>
        <time>2019-12-20T09:10:08Z</time>
      </trkpt>
      <trkpt lat="38.2853830" lon="-0.6973640">
        <ele>154.4</ele>
        <time>2019-12-20T09:10:09Z</time>
      </trkpt>
      <trkpt lat="38.2854160" lon="-0.6973430">
        <ele>154.8</ele>
        <time>2019-12-20T09:10:10Z</time>
      </trkpt>
      <trkpt lat="38.2854490" lon="-0.6973220">
        <ele>155.2</ele>
        <time>2019-12-20T09:10:11Z</time>
      </trkpt>
      <trkpt lat="38.2854820" lon="-0.6972980">
        <ele>155.4</ele>
        <time>2019-12-20T09:10:12Z</time>
      </trkpt>
      <trkpt lat="38.2855170" lon="-0.6972720">
        <ele>155.4</ele>
        <time>2019-12-20T09:10:13Z</time>
      </trkpt>
      <trkpt lat="38.2855540" lon="-0.6972440">
        <ele>155.4</ele>
        <time>2019-12-20T09:10:14Z</time>
      </trkpt>
      <trkpt lat="38.2855940" lon="-0.6972170">
        <ele>155.4</ele>
        <time>2019-12-20T09:10:15Z</time>
      </trkpt>
      <trkpt lat="38.2856340" lon="-0.6971890">
        <ele>155.4</ele>
        <time>2019-12-20T09:10:16Z</time>
      </trkpt>
      <trkpt lat="38.2856760" lon="-0.6971610">
        <ele>155.4</ele>
        <time>2019-12-20T09:10:17Z</time>
      </trkpt>
      <trkpt lat="38.2857190" lon="-0.6971350">
        <ele>155.4</ele>
        <time>2019-12-20T09:10:18Z</time>
      </trkpt>
      <trkpt lat="38.2857630" lon="-0.6971080">
        <ele>155.4</ele>
        <time>2019-12-20T09:10:19Z</time>
      </trkpt>
      <trkpt lat="38.2858070" lon="-0.6970800">
        <ele>155.4</ele>
        <time>2019-12-20T09:10:20Z</time>
      </trkpt>
      <trkpt lat="38.2858510" lon="-0.6970510">
        <ele>155.4</ele>
        <time>2019-12-20T09:10:21Z</time>
      </trkpt>
      <trkpt lat="38.2858960" lon="-0.6970210">
        <ele>155.6</ele>
        <time>2019-12-20T09:10:22Z</time>
      </trkpt>
      <trkpt lat="38.2859420" lon="-0.6969940">
        <ele>155.6</ele>
        <time>2019-12-20T09:10:23Z</time>
      </trkpt>
      <trkpt lat="38.2859890" lon="-0.6969660">
        <ele>155.6</ele>
        <time>2019-12-20T09:10:24Z</time>
      </trkpt>
      <trkpt lat="38.2860370" lon="-0.6969390">
        <ele>155.4</ele>
        <time>2019-12-20T09:10:25Z</time>
      </trkpt>
      <trkpt lat="38.2860860" lon="-0.6969120">
        <ele>155.4</ele>
        <time>2019-12-20T09:10:26Z</time>
      </trkpt>
      <trkpt lat="38.2861360" lon="-0.6968860">
        <ele>155.6</ele>
        <time>2019-12-20T09:10:27Z</time>
      </trkpt>
      <trkpt lat="38.2861890" lon="-0.6968640">
        <ele>155.6</ele>
        <time>2019-12-20T09:10:28Z</time>
      </trkpt>
      <trkpt lat="38.2862440" lon="-0.6968450">
        <ele>155.4</ele>
        <time>2019-12-20T09:10:29Z</time>
      </trkpt>
      <trkpt lat="38.2863010" lon="-0.6968320">
        <ele>155.6</ele>
        <time>2019-12-20T09:10:30Z</time>
      </trkpt>
      <trkpt lat="38.2863570" lon="-0.6968220">
        <ele>155.8</ele>
        <time>2019-12-20T09:10:31Z</time>
      </trkpt>
      <trkpt lat="38.2864140" lon="-0.6968130">
        <ele>156.0</ele>
        <time>2019-12-20T09:10:32Z</time>
      </trkpt>
      <trkpt lat="38.2864710" lon="-0.6968060">
        <ele>156.0</ele>
        <time>2019-12-20T09:10:33Z</time>
      </trkpt>
      <trkpt lat="38.2865300" lon="-0.6968010">
        <ele>156.0</ele>
        <time>2019-12-20T09:10:34Z</time>
      </trkpt>
      <trkpt lat="38.2865890" lon="-0.6967960">
        <ele>156.0</ele>
        <time>2019-12-20T09:10:35Z</time>
      </trkpt>
      <trkpt lat="38.2866480" lon="-0.6967910">
        <ele>156.0</ele>
        <time>2019-12-20T09:10:36Z</time>
      </trkpt>
      <trkpt lat="38.2867090" lon="-0.6967850">
        <ele>156.0</ele>
        <time>2019-12-20T09:10:37Z</time>
      </trkpt>
      <trkpt lat="38.2867670" lon="-0.6967770">
        <ele>156.0</ele>
        <time>2019-12-20T09:10:38Z</time>
      </trkpt>
      <trkpt lat="38.2868270" lon="-0.6967670">
        <ele>156.0</ele>
        <time>2019-12-20T09:10:39Z</time>
      </trkpt>
      <trkpt lat="38.2868870" lon="-0.6967540">
        <ele>156.0</ele>
        <time>2019-12-20T09:10:40Z</time>
      </trkpt>
      <trkpt lat="38.2869470" lon="-0.6967380">
        <ele>156.0</ele>
        <time>2019-12-20T09:10:41Z</time>
      </trkpt>
      <trkpt lat="38.2870060" lon="-0.6967180">
        <ele>156.0</ele>
        <time>2019-12-20T09:10:42Z</time>
      </trkpt>
      <trkpt lat="38.2870650" lon="-0.6966970">
        <ele>156.0</ele>
        <time>2019-12-20T09:10:43Z</time>
      </trkpt>
      <trkpt lat="38.2871230" lon="-0.6966710">
        <ele>156.2</ele>
        <time>2019-12-20T09:10:44Z</time>
      </trkpt>
      <trkpt lat="38.2871790" lon="-0.6966430">
        <ele>156.4</ele>
        <time>2019-12-20T09:10:45Z</time>
      </trkpt>
      <trkpt lat="38.2872340" lon="-0.6966110">
        <ele>156.6</ele>
        <time>2019-12-20T09:10:46Z</time>
      </trkpt>
      <trkpt lat="38.2872870" lon="-0.6965800">
        <ele>156.8</ele>
        <time>2019-12-20T09:10:47Z</time>
      </trkpt>
      <trkpt lat="38.2873370" lon="-0.6965490">
        <ele>157.0</ele>
        <time>2019-12-20T09:10:48Z</time>
      </trkpt>
      <trkpt lat="38.2873870" lon="-0.6965140">
        <ele>157.2</ele>
        <time>2019-12-20T09:10:49Z</time>
      </trkpt>
      <trkpt lat="38.2874370" lon="-0.6964780">
        <ele>157.2</ele>
        <time>2019-12-20T09:10:50Z</time>
      </trkpt>
      <trkpt lat="38.2874900" lon="-0.6964490">
        <ele>157.2</ele>
        <time>2019-12-20T09:10:51Z</time>
      </trkpt>
      <trkpt lat="38.2875460" lon="-0.6964250">
        <ele>157.4</ele>
        <time>2019-12-20T09:10:52Z</time>
      </trkpt>
      <trkpt lat="38.2876040" lon="-0.6964090">
        <ele>157.4</ele>
        <time>2019-12-20T09:10:53Z</time>
      </trkpt>
      <trkpt lat="38.2876580" lon="-0.6964080">
        <ele>157.6</ele>
        <time>2019-12-20T09:10:54Z</time>
      </trkpt>
      <trkpt lat="38.2877110" lon="-0.6964140">
        <ele>157.8</ele>
        <time>2019-12-20T09:10:55Z</time>
      </trkpt>
      <trkpt lat="38.2877620" lon="-0.6964300">
        <ele>157.8</ele>
        <time>2019-12-20T09:10:56Z</time>
      </trkpt>
      <trkpt lat="38.2878080" lon="-0.6964550">
        <ele>157.8</ele>
        <time>2019-12-20T09:10:57Z</time>
      </trkpt>
      <trkpt lat="38.2878520" lon="-0.6964860">
        <ele>158.2</ele>
        <time>2019-12-20T09:10:58Z</time>
      </trkpt>
      <trkpt lat="38.2878950" lon="-0.6965140">
        <ele>158.2</ele>
        <time>2019-12-20T09:10:59Z</time>
      </trkpt>
      <trkpt lat="38.2879330" lon="-0.6965410">
        <ele>158.4</ele>
        <time>2019-12-20T09:11:00Z</time>
      </trkpt>
      <trkpt lat="38.2879720" lon="-0.6965660">
        <ele>158.6</ele>
        <time>2019-12-20T09:11:01Z</time>
      </trkpt>
      <trkpt lat="38.2880130" lon="-0.6965790">
        <ele>159.0</ele>
        <time>2019-12-20T09:11:02Z</time>
      </trkpt>
      <trkpt lat="38.2880540" lon="-0.6965830">
        <ele>159.2</ele>
        <time>2019-12-20T09:11:03Z</time>
      </trkpt>
      <trkpt lat="38.2880950" lon="-0.6965760">
        <ele>159.4</ele>
        <time>2019-12-20T09:11:04Z</time>
      </trkpt>
      <trkpt lat="38.2881320" lon="-0.6965590">
        <ele>159.6</ele>
        <time>2019-12-20T09:11:05Z</time>
      </trkpt>
      <trkpt lat="38.2881690" lon="-0.6965390">
        <ele>159.8</ele>
        <time>2019-12-20T09:11:06Z</time>
      </trkpt>
      <trkpt lat="38.2882030" lon="-0.6965180">
        <ele>160.2</ele>
        <time>2019-12-20T09:11:07Z</time>
      </trkpt>
      <trkpt lat="38.2882370" lon="-0.6964940">
        <ele>160.4</ele>
        <time>2019-12-20T09:11:08Z</time>
      </trkpt>
      <trkpt lat="38.2882670" lon="-0.6964660">
        <ele>160.6</ele>
        <time>2019-12-20T09:11:09Z</time>
      </trkpt>
      <trkpt lat="38.2882930" lon="-0.6964350">
        <ele>160.8</ele>
        <time>2019-12-20T09:11:10Z</time>
      </trkpt>
      <trkpt lat="38.2883160" lon="-0.6963980">
        <ele>161.0</ele>
        <time>2019-12-20T09:11:11Z</time>
      </trkpt>
      <trkpt lat="38.2883360" lon="-0.6963610">
        <ele>161.4</ele>
        <time>2019-12-20T09:11:12Z</time>
      </trkpt>
      <trkpt lat="38.2883540" lon="-0.6963230">
        <ele>161.6</ele>
        <time>2019-12-20T09:11:13Z</time>
      </trkpt>
      <trkpt lat="38.2883700" lon="-0.6962840">
        <ele>162.0</ele>
        <time>2019-12-20T09:11:14Z</time>
      </trkpt>
      <trkpt lat="38.2883860" lon="-0.6962440">
        <ele>162.4</ele>
        <time>2019-12-20T09:11:15Z</time>
      </trkpt>
      <trkpt lat="38.2884030" lon="-0.6962060">
        <ele>162.6</ele>
        <time>2019-12-20T09:11:16Z</time>
      </trkpt>
      <trkpt lat="38.2884210" lon="-0.6961670">
        <ele>162.6</ele>
        <time>2019-12-20T09:11:17Z</time>
      </trkpt>
      <trkpt lat="38.2884400" lon="-0.6961270">
        <ele>162.8</ele>
        <time>2019-12-20T09:11:18Z</time>
      </trkpt>
      <trkpt lat="38.2884600" lon="-0.6960870">
        <ele>162.8</ele>
        <time>2019-12-20T09:11:19Z</time>
      </trkpt>
      <trkpt lat="38.2884820" lon="-0.6960460">
        <ele>163.0</ele>
        <time>2019-12-20T09:11:20Z</time>
      </trkpt>
      <trkpt lat="38.2885060" lon="-0.6960040">
        <ele>163.0</ele>
        <time>2019-12-20T09:11:21Z</time>
      </trkpt>
      <trkpt lat="38.2885320" lon="-0.6959620">
        <ele>163.2</ele>
        <time>2019-12-20T09:11:22Z</time>
      </trkpt>
      <trkpt lat="38.2885600" lon="-0.6959230">
        <ele>163.2</ele>
        <time>2019-12-20T09:11:23Z</time>
      </trkpt>
      <trkpt lat="38.2885890" lon="-0.6958840">
        <ele>163.2</ele>
        <time>2019-12-20T09:11:24Z</time>
      </trkpt>
      <trkpt lat="38.2886120" lon="-0.6958480">
        <ele>163.4</ele>
        <time>2019-12-20T09:11:25Z</time>
      </trkpt>
      <trkpt lat="38.2886380" lon="-0.6958120">
        <ele>163.6</ele>
        <time>2019-12-20T09:11:26Z</time>
      </trkpt>
      <trkpt lat="38.2886690" lon="-0.6957750">
        <ele>163.8</ele>
        <time>2019-12-20T09:11:27Z</time>
      </trkpt>
      <trkpt lat="38.2886980" lon="-0.6957390">
        <ele>164.0</ele>
        <time>2019-12-20T09:11:28Z</time>
      </trkpt>
      <trkpt lat="38.2887280" lon="-0.6957050">
        <ele>164.2</ele>
        <time>2019-12-20T09:11:29Z</time>
      </trkpt>
      <trkpt lat="38.2887600" lon="-0.6956730">
        <ele>164.2</ele>
        <time>2019-12-20T09:11:30Z</time>
      </trkpt>
      <trkpt lat="38.2887930" lon="-0.6956440">
        <ele>164.4</ele>
        <time>2019-12-20T09:11:31Z</time>
      </trkpt>
      <trkpt lat="38.2888290" lon="-0.6956160">
        <ele>164.6</ele>
        <time>2019-12-20T09:11:32Z</time>
      </trkpt>
      <trkpt lat="38.2888650" lon="-0.6955890">
        <ele>164.8</ele>
        <time>2019-12-20T09:11:33Z</time>
      </trkpt>
      <trkpt lat="38.2889050" lon="-0.6955670">
        <ele>164.8</ele>
        <time>2019-12-20T09:11:34Z</time>
      </trkpt>
      <trkpt lat="38.2889430" lon="-0.6955460">
        <ele>165.0</ele>
        <time>2019-12-20T09:11:35Z</time>
      </trkpt>
      <trkpt lat="38.2889810" lon="-0.6955250">
        <ele>165.2</ele>
        <time>2019-12-20T09:11:36Z</time>
      </trkpt>
      <trkpt lat="38.2890230" lon="-0.6955040">
        <ele>165.2</ele>
        <time>2019-12-20T09:11:37Z</time>
      </trkpt>
      <trkpt lat="38.2890610" lon="-0.6954840">
        <ele>165.4</ele>
        <time>2019-12-20T09:11:38Z</time>
      </trkpt>
      <trkpt lat="38.2891020" lon="-0.6954630">
        <ele>165.4</ele>
        <time>2019-12-20T09:11:39Z</time>
      </trkpt>
      <trkpt lat="38.2891400" lon="-0.6954410">
        <ele>165.6</ele>
        <time>2019-12-20T09:11:40Z</time>
      </trkpt>
      <trkpt lat="38.2891770" lon="-0.6954180">
        <ele>165.6</ele>
        <time>2019-12-20T09:11:41Z</time>
      </trkpt>
      <trkpt lat="38.2892160" lon="-0.6953970">
        <ele>165.8</ele>
        <time>2019-12-20T09:11:42Z</time>
      </trkpt>
      <trkpt lat="38.2892560" lon="-0.6953750">
        <ele>166.0</ele>
        <time>2019-12-20T09:11:43Z</time>
      </trkpt>
      <trkpt lat="38.2892960" lon="-0.6953530">
        <ele>166.0</ele>
        <time>2019-12-20T09:11:44Z</time>
      </trkpt>
      <trkpt lat="38.2893390" lon="-0.6953280">
        <ele>166.2</ele>
        <time>2019-12-20T09:11:45Z</time>
      </trkpt>
      <trkpt lat="38.2893810" lon="-0.6953040">
        <ele>166.2</ele>
        <time>2019-12-20T09:11:46Z</time>
      </trkpt>
      <trkpt lat="38.2894230" lon="-0.6952790">
        <ele>166.2</ele>
        <time>2019-12-20T09:11:47Z</time>
      </trkpt>
      <trkpt lat="38.2894630" lon="-0.6952530">
        <ele>166.4</ele>
        <time>2019-12-20T09:11:48Z</time>
      </trkpt>
      <trkpt lat="38.2895060" lon="-0.6952270">
        <ele>166.6</ele>
        <time>2019-12-20T09:11:49Z</time>
      </trkpt>
      <trkpt lat="38.2895480" lon="-0.6952020">
        <ele>166.6</ele>
        <time>2019-12-20T09:11:50Z</time>
      </trkpt>
      <trkpt lat="38.2895880" lon="-0.6951760">
        <ele>166.8</ele>
        <time>2019-12-20T09:11:51Z</time>
      </trkpt>
      <trkpt lat="38.2896290" lon="-0.6951500">
        <ele>166.8</ele>
        <time>2019-12-20T09:11:52Z</time>
      </trkpt>
      <trkpt lat="38.2896710" lon="-0.6951260">
        <ele>167.0</ele>
        <time>2019-12-20T09:11:53Z</time>
      </trkpt>
      <trkpt lat="38.2897120" lon="-0.6951010">
        <ele>167.2</ele>
        <time>2019-12-20T09:11:54Z</time>
      </trkpt>
      <trkpt lat="38.2897540" lon="-0.6950750">
        <ele>167.4</ele>
        <time>2019-12-20T09:11:55Z</time>
      </trkpt>
      <trkpt lat="38.2897950" lon="-0.6950510">
        <ele>167.6</ele>
        <time>2019-12-20T09:11:56Z</time>
      </trkpt>
      <trkpt lat="38.2898350" lon="-0.6950290">
        <ele>167.6</ele>
        <time>2019-12-20T09:11:57Z</time>
      </trkpt>
      <trkpt lat="38.2898780" lon="-0.6950040">
        <ele>167.6</ele>
        <time>2019-12-20T09:11:58Z</time>
      </trkpt>
      <trkpt lat="38.2899190" lon="-0.6949800">
        <ele>167.8</ele>
        <time>2019-12-20T09:11:59Z</time>
      </trkpt>
      <trkpt lat="38.2899620" lon="-0.6949550">
        <ele>167.8</ele>
        <time>2019-12-20T09:12:00Z</time>
      </trkpt>
      <trkpt lat="38.2900020" lon="-0.6949310">
        <ele>168.2</ele>
        <time>2019-12-20T09:12:01Z</time>
      </trkpt>
      <trkpt lat="38.2900450" lon="-0.6949060">
        <ele>168.2</ele>
        <time>2019-12-20T09:12:02Z</time>
      </trkpt>
      <trkpt lat="38.2900850" lon="-0.6948800">
        <ele>168.2</ele>
        <time>2019-12-20T09:12:03Z</time>
      </trkpt>
      <trkpt lat="38.2901260" lon="-0.6948560">
        <ele>168.4</ele>
        <time>2019-12-20T09:12:04Z</time>
      </trkpt>
      <trkpt lat="38.2901670" lon="-0.6948320">
        <ele>168.6</ele>
        <time>2019-12-20T09:12:05Z</time>
      </trkpt>
      <trkpt lat="38.2902090" lon="-0.6948060">
        <ele>168.6</ele>
        <time>2019-12-20T09:12:06Z</time>
      </trkpt>
      <trkpt lat="38.2902520" lon="-0.6947770">
        <ele>168.8</ele>
        <time>2019-12-20T09:12:07Z</time>
      </trkpt>
      <trkpt lat="38.2902930" lon="-0.6947460">
        <ele>168.8</ele>
        <time>2019-12-20T09:12:08Z</time>
      </trkpt>
      <trkpt lat="38.2903320" lon="-0.6947130">
        <ele>168.8</ele>
        <time>2019-12-20T09:12:09Z</time>
      </trkpt>
      <trkpt lat="38.2903700" lon="-0.6946820">
        <ele>169.0</ele>
        <time>2019-12-20T09:12:10Z</time>
      </trkpt>
      <trkpt lat="38.2904060" lon="-0.6946500">
        <ele>169.2</ele>
        <time>2019-12-20T09:12:11Z</time>
      </trkpt>
      <trkpt lat="38.2904410" lon="-0.6946210">
        <ele>169.4</ele>
        <time>2019-12-20T09:12:12Z</time>
      </trkpt>
      <trkpt lat="38.2904740" lon="-0.6945930">
        <ele>169.8</ele>
        <time>2019-12-20T09:12:13Z</time>
      </trkpt>
      <trkpt lat="38.2905060" lon="-0.6945650">
        <ele>170.2</ele>
        <time>2019-12-20T09:12:14Z</time>
      </trkpt>
      <trkpt lat="38.2905330" lon="-0.6945360">
        <ele>170.6</ele>
        <time>2019-12-20T09:12:15Z</time>
      </trkpt>
      <trkpt lat="38.2905580" lon="-0.6945100">
        <ele>170.8</ele>
        <time>2019-12-20T09:12:16Z</time>
      </trkpt>
      <trkpt lat="38.2905820" lon="-0.6944860">
        <ele>171.0</ele>
        <time>2019-12-20T09:12:17Z</time>
      </trkpt>
      <trkpt lat="38.2906070" lon="-0.6944610">
        <ele>171.4</ele>
        <time>2019-12-20T09:12:18Z</time>
      </trkpt>
      <trkpt lat="38.2906350" lon="-0.6944350">
        <ele>171.6</ele>
        <time>2019-12-20T09:12:19Z</time>
      </trkpt>
      <trkpt lat="38.2906620" lon="-0.6944100">
        <ele>171.8</ele>
        <time>2019-12-20T09:12:20Z</time>
      </trkpt>
      <trkpt lat="38.2906870" lon="-0.6943840">
        <ele>172.0</ele>
        <time>2019-12-20T09:12:21Z</time>
      </trkpt>
      <trkpt lat="38.2907120" lon="-0.6943580">
        <ele>172.2</ele>
        <time>2019-12-20T09:12:22Z</time>
      </trkpt>
      <trkpt lat="38.2907350" lon="-0.6943320">
        <ele>172.6</ele>
        <time>2019-12-20T09:12:23Z</time>
      </trkpt>
      <trkpt lat="38.2907570" lon="-0.6943080">
        <ele>172.8</ele>
        <time>2019-12-20T09:12:24Z</time>
      </trkpt>
      <trkpt lat="38.2907800" lon="-0.6942840">
        <ele>173.2</ele>
        <time>2019-12-20T09:12:25Z</time>
      </trkpt>
      <trkpt lat="38.2908000" lon="-0.6942630">
        <ele>173.4</ele>
        <time>2019-12-20T09:12:26Z</time>
      </trkpt>
      <trkpt lat="38.2908230" lon="-0.6942420">
        <ele>173.6</ele>
        <time>2019-12-20T09:12:27Z</time>
      </trkpt>
      <trkpt lat="38.2908470" lon="-0.6942220">
        <ele>174.0</ele>
        <time>2019-12-20T09:12:28Z</time>
      </trkpt>
      <trkpt lat="38.2908710" lon="-0.6942020">
        <ele>174.2</ele>
        <time>2019-12-20T09:12:29Z</time>
      </trkpt>
      <trkpt lat="38.2908970" lon="-0.6941820">
        <ele>174.2</ele>
        <time>2019-12-20T09:12:30Z</time>
      </trkpt>
      <trkpt lat="38.2909250" lon="-0.6941630">
        <ele>174.4</ele>
        <time>2019-12-20T09:12:31Z</time>
      </trkpt>
      <trkpt lat="38.2909530" lon="-0.6941430">
        <ele>174.4</ele>
        <time>2019-12-20T09:12:32Z</time>
      </trkpt>
      <trkpt lat="38.2909810" lon="-0.6941220">
        <ele>174.6</ele>
        <time>2019-12-20T09:12:33Z</time>
      </trkpt>
      <trkpt lat="38.2910090" lon="-0.6941000">
        <ele>174.8</ele>
        <time>2019-12-20T09:12:34Z</time>
      </trkpt>
      <trkpt lat="38.2910380" lon="-0.6940770">
        <ele>174.8</ele>
        <time>2019-12-20T09:12:35Z</time>
      </trkpt>
      <trkpt lat="38.2910680" lon="-0.6940550">
        <ele>175.0</ele>
        <time>2019-12-20T09:12:36Z</time>
      </trkpt>
      <trkpt lat="38.2910990" lon="-0.6940330">
        <ele>175.2</ele>
        <time>2019-12-20T09:12:37Z</time>
      </trkpt>
      <trkpt lat="38.2911310" lon="-0.6940090">
        <ele>175.4</ele>
        <time>2019-12-20T09:12:38Z</time>
      </trkpt>
      <trkpt lat="38.2911640" lon="-0.6939880">
        <ele>175.4</ele>
        <time>2019-12-20T09:12:39Z</time>
      </trkpt>
      <trkpt lat="38.2911990" lon="-0.6939660">
        <ele>175.4</ele>
        <time>2019-12-20T09:12:40Z</time>
      </trkpt>
      <trkpt lat="38.2912330" lon="-0.6939440">
        <ele>175.6</ele>
        <time>2019-12-20T09:12:41Z</time>
      </trkpt>
      <trkpt lat="38.2912670" lon="-0.6939220">
        <ele>175.6</ele>
        <time>2019-12-20T09:12:42Z</time>
      </trkpt>
      <trkpt lat="38.2913030" lon="-0.6939010">
        <ele>175.8</ele>
        <time>2019-12-20T09:12:43Z</time>
      </trkpt>
      <trkpt lat="38.2913400" lon="-0.6938770">
        <ele>175.8</ele>
        <time>2019-12-20T09:12:44Z</time>
      </trkpt>
      <trkpt lat="38.2913760" lon="-0.6938540">
        <ele>175.8</ele>
        <time>2019-12-20T09:12:45Z</time>
      </trkpt>
      <trkpt lat="38.2914120" lon="-0.6938300">
        <ele>176.0</ele>
        <time>2019-12-20T09:12:46Z</time>
      </trkpt>
      <trkpt lat="38.2914460" lon="-0.6938060">
        <ele>176.0</ele>
        <time>2019-12-20T09:12:47Z</time>
      </trkpt>
      <trkpt lat="38.2914800" lon="-0.6937820">
        <ele>176.2</ele>
        <time>2019-12-20T09:12:48Z</time>
      </trkpt>
      <trkpt lat="38.2915160" lon="-0.6937570">
        <ele>176.4</ele>
        <time>2019-12-20T09:12:49Z</time>
      </trkpt>
      <trkpt lat="38.2915520" lon="-0.6937320">
        <ele>176.4</ele>
        <time>2019-12-20T09:12:50Z</time>
      </trkpt>
      <trkpt lat="38.2915890" lon="-0.6937070">
        <ele>176.4</ele>
        <time>2019-12-20T09:12:51Z</time>
      </trkpt>
      <trkpt lat="38.2916270" lon="-0.6936820">
        <ele>176.4</ele>
        <time>2019-12-20T09:12:52Z</time>
      </trkpt>
      <trkpt lat="38.2916650" lon="-0.6936570">
        <ele>176.6</ele>
        <time>2019-12-20T09:12:53Z</time>
      </trkpt>
      <trkpt lat="38.2917040" lon="-0.6936320">
        <ele>176.6</ele>
        <time>2019-12-20T09:12:54Z</time>
      </trkpt>
      <trkpt lat="38.2917430" lon="-0.6936070">
        <ele>176.8</ele>
        <time>2019-12-20T09:12:55Z</time>
      </trkpt>
      <trkpt lat="38.2917820" lon="-0.6935810">
        <ele>176.8</ele>
        <time>2019-12-20T09:12:56Z</time>
      </trkpt>
      <trkpt lat="38.2918210" lon="-0.6935550">
        <ele>177.0</ele>
        <time>2019-12-20T09:12:57Z</time>
      </trkpt>
      <trkpt lat="38.2918590" lon="-0.6935300">
        <ele>177.0</ele>
        <time>2019-12-20T09:12:58Z</time>
      </trkpt>
      <trkpt lat="38.2918970" lon="-0.6935040">
        <ele>177.2</ele>
        <time>2019-12-20T09:12:59Z</time>
      </trkpt>
      <trkpt lat="38.2919360" lon="-0.6934780">
        <ele>177.2</ele>
        <time>2019-12-20T09:13:00Z</time>
      </trkpt>
      <trkpt lat="38.2919750" lon="-0.6934530">
        <ele>177.4</ele>
        <time>2019-12-20T09:13:01Z</time>
      </trkpt>
      <trkpt lat="38.2920150" lon="-0.6934290">
        <ele>177.4</ele>
        <time>2019-12-20T09:13:02Z</time>
      </trkpt>
      <trkpt lat="38.2920550" lon="-0.6934050">
        <ele>177.6</ele>
        <time>2019-12-20T09:13:03Z</time>
      </trkpt>
      <trkpt lat="38.2920960" lon="-0.6933800">
        <ele>177.6</ele>
        <time>2019-12-20T09:13:04Z</time>
      </trkpt>
      <trkpt lat="38.2921360" lon="-0.6933570">
        <ele>177.8</ele>
        <time>2019-12-20T09:13:05Z</time>
      </trkpt>
      <trkpt lat="38.2921770" lon="-0.6933340">
        <ele>178.0</ele>
        <time>2019-12-20T09:13:06Z</time>
      </trkpt>
      <trkpt lat="38.2922180" lon="-0.6933140">
        <ele>178.2</ele>
        <time>2019-12-20T09:13:07Z</time>
      </trkpt>
      <trkpt lat="38.2922580" lon="-0.6932950">
        <ele>178.4</ele>
        <time>2019-12-20T09:13:08Z</time>
      </trkpt>
      <trkpt lat="38.2922980" lon="-0.6932750">
        <ele>178.4</ele>
        <time>2019-12-20T09:13:09Z</time>
      </trkpt>
      <trkpt lat="38.2923400" lon="-0.6932560">
        <ele>178.6</ele>
        <time>2019-12-20T09:13:10Z</time>
      </trkpt>
      <trkpt lat="38.2923810" lon="-0.6932370">
        <ele>178.6</ele>
        <time>2019-12-20T09:13:11Z</time>
      </trkpt>
      <trkpt lat="38.2924210" lon="-0.6932180">
        <ele>178.6</ele>
        <time>2019-12-20T09:13:12Z</time>
      </trkpt>
      <trkpt lat="38.2924630" lon="-0.6931970">
        <ele>178.4</ele>
        <time>2019-12-20T09:13:13Z</time>
      </trkpt>
      <trkpt lat="38.2925050" lon="-0.6931780">
        <ele>178.6</ele>
        <time>2019-12-20T09:13:14Z</time>
      </trkpt>
      <trkpt lat="38.2925480" lon="-0.6931600">
        <ele>178.4</ele>
        <time>2019-12-20T09:13:15Z</time>
      </trkpt>
      <trkpt lat="38.2925940" lon="-0.6931430">
        <ele>178.4</ele>
        <time>2019-12-20T09:13:16Z</time>
      </trkpt>
      <trkpt lat="38.2926420" lon="-0.6931270">
        <ele>178.2</ele>
        <time>2019-12-20T09:13:17Z</time>
      </trkpt>
      <trkpt lat="38.2926930" lon="-0.6931120">
        <ele>178.2</ele>
        <time>2019-12-20T09:13:18Z</time>
      </trkpt>
      <trkpt lat="38.2927470" lon="-0.6930950">
        <ele>177.8</ele>
        <time>2019-12-20T09:13:19Z</time>
      </trkpt>
      <trkpt lat="38.2928030" lon="-0.6930770">
        <ele>177.6</ele>
        <time>2019-12-20T09:13:20Z</time>
      </trkpt>
      <trkpt lat="38.2928630" lon="-0.6930610">
        <ele>177.0</ele>
        <time>2019-12-20T09:13:21Z</time>
      </trkpt>
      <trkpt lat="38.2929270" lon="-0.6930540">
        <ele>176.8</ele>
        <time>2019-12-20T09:13:22Z</time>
      </trkpt>
      <trkpt lat="38.2929940" lon="-0.6930690">
        <ele>176.4</ele>
        <time>2019-12-20T09:13:23Z</time>
      </trkpt>
      <trkpt lat="38.2930520" lon="-0.6931100">
        <ele>176.2</ele>
        <time>2019-12-20T09:13:24Z</time>
      </trkpt>
      <trkpt lat="38.2930870" lon="-0.6931770">
        <ele>176.0</ele>
        <time>2019-12-20T09:13:25Z</time>
      </trkpt>
      <trkpt lat="38.2931020" lon="-0.6932570">
        <ele>175.6</ele>
        <time>2019-12-20T09:13:26Z</time>
      </trkpt>
      <trkpt lat="38.2931060" lon="-0.6933440">
        <ele>175.2</ele>
        <time>2019-12-20T09:13:27Z</time>
      </trkpt>
      <trkpt lat="38.2931080" lon="-0.6934320">
        <ele>174.8</ele>
        <time>2019-12-20T09:13:28Z</time>
      </trkpt>
      <trkpt lat="38.2931110" lon="-0.6935180">
        <ele>174.6</ele>
        <time>2019-12-20T09:13:29Z</time>
      </trkpt>
      <trkpt lat="38.2931160" lon="-0.6936000">
        <ele>174.4</ele>
        <time>2019-12-20T09:13:30Z</time>
      </trkpt>
      <trkpt lat="38.2931240" lon="-0.6936800">
        <ele>174.2</ele>
        <time>2019-12-20T09:13:31Z</time>
      </trkpt>
      <trkpt lat="38.2931300" lon="-0.6937600">
        <ele>174.2</ele>
        <time>2019-12-20T09:13:32Z</time>
      </trkpt>
      <trkpt lat="38.2931350" lon="-0.6938370">
        <ele>174.4</ele>
        <time>2019-12-20T09:13:33Z</time>
      </trkpt>
      <trkpt lat="38.2931400" lon="-0.6939130">
        <ele>174.6</ele>
        <time>2019-12-20T09:13:34Z</time>
      </trkpt>
      <trkpt lat="38.2931450" lon="-0.6939870">
        <ele>174.8</ele>
        <time>2019-12-20T09:13:35Z</time>
      </trkpt>
      <trkpt lat="38.2931490" lon="-0.6940600">
        <ele>174.8</ele>
        <time>2019-12-20T09:13:36Z</time>
      </trkpt>
      <trkpt lat="38.2931510" lon="-0.6941320">
        <ele>174.8</ele>
        <time>2019-12-20T09:13:37Z</time>
      </trkpt>
      <trkpt lat="38.2931540" lon="-0.6942030">
        <ele>175.0</ele>
        <time>2019-12-20T09:13:38Z</time>
      </trkpt>
      <trkpt lat="38.2931570" lon="-0.6942730">
        <ele>175.0</ele>
        <time>2019-12-20T09:13:39Z</time>
      </trkpt>
      <trkpt lat="38.2931590" lon="-0.6943430">
        <ele>175.0</ele>
        <time>2019-12-20T09:13:40Z</time>
      </trkpt>
      <trkpt lat="38.2931590" lon="-0.6944120">
        <ele>175.2</ele>
        <time>2019-12-20T09:13:41Z</time>
      </trkpt>
      <trkpt lat="38.2931600" lon="-0.6944820">
        <ele>175.2</ele>
        <time>2019-12-20T09:13:42Z</time>
      </trkpt>
      <trkpt lat="38.2931610" lon="-0.6945520">
        <ele>175.2</ele>
        <time>2019-12-20T09:13:43Z</time>
      </trkpt>
      <trkpt lat="38.2931620" lon="-0.6946220">
        <ele>175.0</ele>
        <time>2019-12-20T09:13:44Z</time>
      </trkpt>
      <trkpt lat="38.2931610" lon="-0.6946930">
        <ele>175.2</ele>
        <time>2019-12-20T09:13:45Z</time>
      </trkpt>
      <trkpt lat="38.2931600" lon="-0.6947630">
        <ele>175.2</ele>
        <time>2019-12-20T09:13:46Z</time>
      </trkpt>
      <trkpt lat="38.2931630" lon="-0.6948310">
        <ele>175.2</ele>
        <time>2019-12-20T09:13:47Z</time>
      </trkpt>
      <trkpt lat="38.2931630" lon="-0.6948970">
        <ele>175.4</ele>
        <time>2019-12-20T09:13:48Z</time>
      </trkpt>
      <trkpt lat="38.2931470" lon="-0.6949500">
        <ele>175.4</ele>
        <time>2019-12-20T09:13:49Z</time>
      </trkpt>
      <trkpt lat="38.2931210" lon="-0.6949740">
        <ele>175.4</ele>
        <time>2019-12-20T09:13:50Z</time>
      </trkpt>
      <trkpt lat="38.2930830" lon="-0.6949710">
        <ele>174.8</ele>
        <time>2019-12-20T09:13:51Z</time>
      </trkpt>
      <trkpt lat="38.2930390" lon="-0.6949600">
        <ele>174.6</ele>
        <time>2019-12-20T09:13:52Z</time>
      </trkpt>
      <trkpt lat="38.2929920" lon="-0.6949510">
        <ele>174.0</ele>
        <time>2019-12-20T09:13:53Z</time>
      </trkpt>
      <trkpt lat="38.2929430" lon="-0.6949360">
        <ele>173.6</ele>
        <time>2019-12-20T09:13:54Z</time>
      </trkpt>
      <trkpt lat="38.2928940" lon="-0.6949130">
        <ele>173.8</ele>
        <time>2019-12-20T09:13:55Z</time>
      </trkpt>
      <trkpt lat="38.2928450" lon="-0.6948900">
        <ele>173.4</ele>
        <time>2019-12-20T09:13:56Z</time>
      </trkpt>
      <trkpt lat="38.2927960" lon="-0.6948690">
        <ele>173.2</ele>
        <time>2019-12-20T09:13:57Z</time>
      </trkpt>
      <trkpt lat="38.2927450" lon="-0.6948540">
        <ele>173.2</ele>
        <time>2019-12-20T09:13:58Z</time>
      </trkpt>
      <trkpt lat="38.2926930" lon="-0.6948540">
        <ele>173.0</ele>
        <time>2019-12-20T09:13:59Z</time>
      </trkpt>
      <trkpt lat="38.2926410" lon="-0.6948630">
        <ele>172.6</ele>
        <time>2019-12-20T09:14:00Z</time>
      </trkpt>
      <trkpt lat="38.2925880" lon="-0.6948740">
        <ele>172.8</ele>
        <time>2019-12-20T09:14:01Z</time>
      </trkpt>
      <trkpt lat="38.2925350" lon="-0.6948900">
        <ele>172.4</ele>
        <time>2019-12-20T09:14:02Z</time>
      </trkpt>
      <trkpt lat="38.2924910" lon="-0.6949080">
        <ele>172.0</ele>
        <time>2019-12-20T09:14:03Z</time>
      </trkpt>
      <trkpt lat="38.2924600" lon="-0.6949320">
        <ele>171.6</ele>
        <time>2019-12-20T09:14:04Z</time>
      </trkpt>
      <trkpt lat="38.2924420" lon="-0.6949640">
        <ele>171.6</ele>
        <time>2019-12-20T09:14:05Z</time>
      </trkpt>
      <trkpt lat="38.2924340" lon="-0.6949940">
        <ele>171.2</ele>
        <time>2019-12-20T09:14:06Z</time>
      </trkpt>
      <trkpt lat="38.2924380" lon="-0.6950260">
        <ele>171.0</ele>
        <time>2019-12-20T09:14:07Z</time>
      </trkpt>
      <trkpt lat="38.2924500" lon="-0.6950620">
        <ele>171.2</ele>
        <time>2019-12-20T09:14:08Z</time>
      </trkpt>
      <trkpt lat="38.2924630" lon="-0.6951050">
        <ele>171.2</ele>
        <time>2019-12-20T09:14:09Z</time>
      </trkpt>
      <trkpt lat="38.2924760" lon="-0.6951570">
        <ele>171.2</ele>
        <time>2019-12-20T09:14:10Z</time>
      </trkpt>
      <trkpt lat="38.2924890" lon="-0.6952150">
        <ele>171.0</ele>
        <time>2019-12-20T09:14:11Z</time>
      </trkpt>
      <trkpt lat="38.2925010" lon="-0.6952760">
        <ele>170.8</ele>
        <time>2019-12-20T09:14:12Z</time>
      </trkpt>
      <trkpt lat="38.2925160" lon="-0.6953380">
        <ele>171.0</ele>
        <time>2019-12-20T09:14:13Z</time>
      </trkpt>
      <trkpt lat="38.2925330" lon="-0.6953990">
        <ele>171.0</ele>
        <time>2019-12-20T09:14:14Z</time>
      </trkpt>
      <trkpt lat="38.2925490" lon="-0.6954620">
        <ele>170.8</ele>
        <time>2019-12-20T09:14:15Z</time>
      </trkpt>
      <trkpt lat="38.2925650" lon="-0.6955260">
        <ele>170.8</ele>
        <time>2019-12-20T09:14:16Z</time>
      </trkpt>
      <trkpt lat="38.2925820" lon="-0.6955880">
        <ele>170.8</ele>
        <time>2019-12-20T09:14:17Z</time>
      </trkpt>
      <trkpt lat="38.2926000" lon="-0.6956510">
        <ele>170.8</ele>
        <time>2019-12-20T09:14:18Z</time>
      </trkpt>
      <trkpt lat="38.2926170" lon="-0.6957170">
        <ele>170.8</ele>
        <time>2019-12-20T09:14:19Z</time>
      </trkpt>
      <trkpt lat="38.2926310" lon="-0.6957850">
        <ele>170.8</ele>
        <time>2019-12-20T09:14:20Z</time>
      </trkpt>
      <trkpt lat="38.2926470" lon="-0.6958520">
        <ele>170.8</ele>
        <time>2019-12-20T09:14:21Z</time>
      </trkpt>
      <trkpt lat="38.2926650" lon="-0.6959190">
        <ele>170.8</ele>
        <time>2019-12-20T09:14:22Z</time>
      </trkpt>
      <trkpt lat="38.2926850" lon="-0.6959880">
        <ele>170.6</ele>
        <time>2019-12-20T09:14:23Z</time>
      </trkpt>
      <trkpt lat="38.2927030" lon="-0.6960610">
        <ele>170.4</ele>
        <time>2019-12-20T09:14:24Z</time>
      </trkpt>
      <trkpt lat="38.2927220" lon="-0.6961340">
        <ele>170.4</ele>
        <time>2019-12-20T09:14:25Z</time>
      </trkpt>
      <trkpt lat="38.2927400" lon="-0.6962040">
        <ele>170.2</ele>
        <time>2019-12-20T09:14:26Z</time>
      </trkpt>
      <trkpt lat="38.2927570" lon="-0.6962720">
        <ele>170.6</ele>
        <time>2019-12-20T09:14:27Z</time>
      </trkpt>
      <trkpt lat="38.2927740" lon="-0.6963410">
        <ele>170.8</ele>
        <time>2019-12-20T09:14:28Z</time>
      </trkpt>
      <trkpt lat="38.2927920" lon="-0.6964100">
        <ele>170.8</ele>
        <time>2019-12-20T09:14:29Z</time>
      </trkpt>
      <trkpt lat="38.2928080" lon="-0.6964790">
        <ele>170.8</ele>
        <time>2019-12-20T09:14:30Z</time>
      </trkpt>
      <trkpt lat="38.2928230" lon="-0.6965500">
        <ele>170.8</ele>
        <time>2019-12-20T09:14:31Z</time>
      </trkpt>
      <trkpt lat="38.2928350" lon="-0.6966200">
        <ele>170.6</ele>
        <time>2019-12-20T09:14:32Z</time>
      </trkpt>
      <trkpt lat="38.2928460" lon="-0.6966930">
        <ele>170.6</ele>
        <time>2019-12-20T09:14:33Z</time>
      </trkpt>
      <trkpt lat="38.2928550" lon="-0.6967670">
        <ele>170.4</ele>
        <time>2019-12-20T09:14:34Z</time>
      </trkpt>
      <trkpt lat="38.2928540" lon="-0.6968420">
        <ele>170.4</ele>
        <time>2019-12-20T09:14:35Z</time>
      </trkpt>
      <trkpt lat="38.2928430" lon="-0.6969170">
        <ele>170.2</ele>
        <time>2019-12-20T09:14:36Z</time>
      </trkpt>
      <trkpt lat="38.2928200" lon="-0.6969890">
        <ele>170.2</ele>
        <time>2019-12-20T09:14:37Z</time>
      </trkpt>
      <trkpt lat="38.2927900" lon="-0.6970570">
        <ele>170.2</ele>
        <time>2019-12-20T09:14:38Z</time>
      </trkpt>
      <trkpt lat="38.2927500" lon="-0.6971180">
        <ele>170.2</ele>
        <time>2019-12-20T09:14:39Z</time>
      </trkpt>
      <trkpt lat="38.2927020" lon="-0.6971690">
        <ele>170.0</ele>
        <time>2019-12-20T09:14:40Z</time>
      </trkpt>
      <trkpt lat="38.2926480" lon="-0.6972120">
        <ele>170.0</ele>
        <time>2019-12-20T09:14:41Z</time>
      </trkpt>
      <trkpt lat="38.2925900" lon="-0.6972430">
        <ele>170.0</ele>
        <time>2019-12-20T09:14:42Z</time>
      </trkpt>
      <trkpt lat="38.2925290" lon="-0.6972620">
        <ele>170.2</ele>
        <time>2019-12-20T09:14:43Z</time>
      </trkpt>
      <trkpt lat="38.2924660" lon="-0.6972740">
        <ele>169.8</ele>
        <time>2019-12-20T09:14:44Z</time>
      </trkpt>
      <trkpt lat="38.2924030" lon="-0.6972830">
        <ele>170.0</ele>
        <time>2019-12-20T09:14:45Z</time>
      </trkpt>
      <trkpt lat="38.2923400" lon="-0.6972980">
        <ele>170.0</ele>
        <time>2019-12-20T09:14:46Z</time>
      </trkpt>
      <trkpt lat="38.2922790" lon="-0.6973160">
        <ele>169.8</ele>
        <time>2019-12-20T09:14:47Z</time>
      </trkpt>
      <trkpt lat="38.2922200" lon="-0.6973360">
        <ele>170.0</ele>
        <time>2019-12-20T09:14:48Z</time>
      </trkpt>
      <trkpt lat="38.2921620" lon="-0.6973570">
        <ele>170.2</ele>
        <time>2019-12-20T09:14:49Z</time>
      </trkpt>
      <trkpt lat="38.2921100" lon="-0.6973830">
        <ele>170.4</ele>
        <time>2019-12-20T09:14:50Z</time>
      </trkpt>
      <trkpt lat="38.2920620" lon="-0.6974160">
        <ele>170.6</ele>
        <time>2019-12-20T09:14:51Z</time>
      </trkpt>
      <trkpt lat="38.2920160" lon="-0.6974510">
        <ele>171.0</ele>
        <time>2019-12-20T09:14:52Z</time>
      </trkpt>
      <trkpt lat="38.2919740" lon="-0.6974910">
        <ele>171.2</ele>
        <time>2019-12-20T09:14:53Z</time>
      </trkpt>
      <trkpt lat="38.2919390" lon="-0.6975430">
        <ele>171.2</ele>
        <time>2019-12-20T09:14:54Z</time>
      </trkpt>
      <trkpt lat="38.2919150" lon="-0.6976090">
        <ele>170.6</ele>
        <time>2019-12-20T09:14:55Z</time>
      </trkpt>
      <trkpt lat="38.2919060" lon="-0.6976830">
        <ele>170.4</ele>
        <time>2019-12-20T09:14:56Z</time>
      </trkpt>
      <trkpt lat="38.2919090" lon="-0.6977570">
        <ele>170.4</ele>
        <time>2019-12-20T09:14:57Z</time>
      </trkpt>
      <trkpt lat="38.2919140" lon="-0.6978310">
        <ele>170.4</ele>
        <time>2019-12-20T09:14:58Z</time>
      </trkpt>
      <trkpt lat="38.2919220" lon="-0.6979070">
        <ele>170.2</ele>
        <time>2019-12-20T09:14:59Z</time>
      </trkpt>
      <trkpt lat="38.2919290" lon="-0.6979820">
        <ele>170.2</ele>
        <time>2019-12-20T09:15:00Z</time>
      </trkpt>
      <trkpt lat="38.2919350" lon="-0.6980570">
        <ele>170.0</ele>
        <time>2019-12-20T09:15:01Z</time>
      </trkpt>
      <trkpt lat="38.2919420" lon="-0.6981330">
        <ele>170.2</ele>
        <time>2019-12-20T09:15:02Z</time>
      </trkpt>
      <trkpt lat="38.2919480" lon="-0.6982090">
        <ele>170.2</ele>
        <time>2019-12-20T09:15:03Z</time>
      </trkpt>
      <trkpt lat="38.2919560" lon="-0.6982860">
        <ele>170.2</ele>
        <time>2019-12-20T09:15:04Z</time>
      </trkpt>
      <trkpt lat="38.2919640" lon="-0.6983630">
        <ele>170.2</ele>
        <time>2019-12-20T09:15:05Z</time>
      </trkpt>
      <trkpt lat="38.2919680" lon="-0.6984410">
        <ele>170.4</ele>
        <time>2019-12-20T09:15:06Z</time>
      </trkpt>
      <trkpt lat="38.2919640" lon="-0.6985180">
        <ele>170.4</ele>
        <time>2019-12-20T09:15:07Z</time>
      </trkpt>
      <trkpt lat="38.2919440" lon="-0.6985910">
        <ele>170.0</ele>
        <time>2019-12-20T09:15:08Z</time>
      </trkpt>
      <trkpt lat="38.2919130" lon="-0.6986590">
        <ele>170.0</ele>
        <time>2019-12-20T09:15:09Z</time>
      </trkpt>
      <trkpt lat="38.2918780" lon="-0.6987250">
        <ele>169.8</ele>
        <time>2019-12-20T09:15:10Z</time>
      </trkpt>
      <trkpt lat="38.2918420" lon="-0.6987880">
        <ele>169.8</ele>
        <time>2019-12-20T09:15:11Z</time>
      </trkpt>
      <trkpt lat="38.2918050" lon="-0.6988510">
        <ele>169.8</ele>
        <time>2019-12-20T09:15:12Z</time>
      </trkpt>
      <trkpt lat="38.2917690" lon="-0.6989150">
        <ele>169.8</ele>
        <time>2019-12-20T09:15:13Z</time>
      </trkpt>
      <trkpt lat="38.2917340" lon="-0.6989790">
        <ele>169.8</ele>
        <time>2019-12-20T09:15:14Z</time>
      </trkpt>
      <trkpt lat="38.2916970" lon="-0.6990410">
        <ele>169.8</ele>
        <time>2019-12-20T09:15:15Z</time>
      </trkpt>
      <trkpt lat="38.2916610" lon="-0.6991010">
        <ele>170.0</ele>
        <time>2019-12-20T09:15:16Z</time>
      </trkpt>
      <trkpt lat="38.2916230" lon="-0.6991570">
        <ele>170.0</ele>
        <time>2019-12-20T09:15:17Z</time>
      </trkpt>
      <trkpt lat="38.2915840" lon="-0.6992100">
        <ele>170.2</ele>
        <time>2019-12-20T09:15:18Z</time>
      </trkpt>
      <trkpt lat="38.2915440" lon="-0.6992600">
        <ele>170.4</ele>
        <time>2019-12-20T09:15:19Z</time>
      </trkpt>
      <trkpt lat="38.2915030" lon="-0.6993040">
        <ele>170.2</ele>
        <time>2019-12-20T09:15:20Z</time>
      </trkpt>
      <trkpt lat="38.2914610" lon="-0.6993460">
        <ele>170.8</ele>
        <time>2019-12-20T09:15:21Z</time>
      </trkpt>
      <trkpt lat="38.2914180" lon="-0.6993860">
        <ele>171.0</ele>
        <time>2019-12-20T09:15:22Z</time>
      </trkpt>
      <trkpt lat="38.2913750" lon="-0.6994250">
        <ele>170.8</ele>
        <time>2019-12-20T09:15:23Z</time>
      </trkpt>
      <trkpt lat="38.2913360" lon="-0.6994660">
        <ele>171.0</ele>
        <time>2019-12-20T09:15:24Z</time>
      </trkpt>
      <trkpt lat="38.2912950" lon="-0.6995020">
        <ele>171.2</ele>
        <time>2019-12-20T09:15:25Z</time>
      </trkpt>
      <trkpt lat="38.2912570" lon="-0.6995400">
        <ele>171.2</ele>
        <time>2019-12-20T09:15:26Z</time>
      </trkpt>
      <trkpt lat="38.2912180" lon="-0.6995830">
        <ele>171.4</ele>
        <time>2019-12-20T09:15:27Z</time>
      </trkpt>
      <trkpt lat="38.2911800" lon="-0.6996320">
        <ele>171.2</ele>
        <time>2019-12-20T09:15:28Z</time>
      </trkpt>
      <trkpt lat="38.2911410" lon="-0.6996840">
        <ele>170.8</ele>
        <time>2019-12-20T09:15:29Z</time>
      </trkpt>
      <trkpt lat="38.2911010" lon="-0.6997380">
        <ele>170.8</ele>
        <time>2019-12-20T09:15:30Z</time>
      </trkpt>
      <trkpt lat="38.2910650" lon="-0.6997990">
        <ele>170.4</ele>
        <time>2019-12-20T09:15:31Z</time>
      </trkpt>
      <trkpt lat="38.2910330" lon="-0.6998640">
        <ele>170.4</ele>
        <time>2019-12-20T09:15:32Z</time>
      </trkpt>
      <trkpt lat="38.2909970" lon="-0.6999240">
        <ele>170.4</ele>
        <time>2019-12-20T09:15:33Z</time>
      </trkpt>
      <trkpt lat="38.2909570" lon="-0.6999820">
        <ele>170.4</ele>
        <time>2019-12-20T09:15:34Z</time>
      </trkpt>
      <trkpt lat="38.2909180" lon="-0.7000400">
        <ele>170.2</ele>
        <time>2019-12-20T09:15:35Z</time>
      </trkpt>
      <trkpt lat="38.2908780" lon="-0.7000970">
        <ele>170.2</ele>
        <time>2019-12-20T09:15:36Z</time>
      </trkpt>
      <trkpt lat="38.2908330" lon="-0.7001460">
        <ele>170.2</ele>
        <time>2019-12-20T09:15:37Z</time>
      </trkpt>
      <trkpt lat="38.2907870" lon="-0.7001910">
        <ele>170.2</ele>
        <time>2019-12-20T09:15:38Z</time>
      </trkpt>
      <trkpt lat="38.2907380" lon="-0.7002300">
        <ele>170.2</ele>
        <time>2019-12-20T09:15:39Z</time>
      </trkpt>
      <trkpt lat="38.2906880" lon="-0.7002670">
        <ele>170.4</ele>
        <time>2019-12-20T09:15:40Z</time>
      </trkpt>
      <trkpt lat="38.2906380" lon="-0.7002980">
        <ele>170.6</ele>
        <time>2019-12-20T09:15:41Z</time>
      </trkpt>
      <trkpt lat="38.2905880" lon="-0.7003250">
        <ele>170.8</ele>
        <time>2019-12-20T09:15:42Z</time>
      </trkpt>
      <trkpt lat="38.2905380" lon="-0.7003480">
        <ele>170.8</ele>
        <time>2019-12-20T09:15:43Z</time>
      </trkpt>
      <trkpt lat="38.2904860" lon="-0.7003550">
        <ele>171.0</ele>
        <time>2019-12-20T09:15:44Z</time>
      </trkpt>
      <trkpt lat="38.2904410" lon="-0.7003510">
        <ele>171.0</ele>
        <time>2019-12-20T09:15:45Z</time>
      </trkpt>
      <trkpt lat="38.2903990" lon="-0.7003340">
        <ele>171.4</ele>
        <time>2019-12-20T09:15:46Z</time>
      </trkpt>
      <trkpt lat="38.2903460" lon="-0.7003240">
        <ele>170.4</ele>
        <time>2019-12-20T09:15:47Z</time>
      </trkpt>
      <trkpt lat="38.2902920" lon="-0.7003360">
        <ele>169.8</ele>
        <time>2019-12-20T09:15:48Z</time>
      </trkpt>
      <trkpt lat="38.2902410" lon="-0.7003570">
        <ele>169.6</ele>
        <time>2019-12-20T09:15:49Z</time>
      </trkpt>
      <trkpt lat="38.2901870" lon="-0.7003590">
        <ele>169.6</ele>
        <time>2019-12-20T09:15:50Z</time>
      </trkpt>
      <trkpt lat="38.2901250" lon="-0.7003550">
        <ele>169.2</ele>
        <time>2019-12-20T09:15:51Z</time>
      </trkpt>
      <trkpt lat="38.2900610" lon="-0.7003460">
        <ele>168.8</ele>
        <time>2019-12-20T09:15:52Z</time>
      </trkpt>
      <trkpt lat="38.2900030" lon="-0.7003190">
        <ele>168.6</ele>
        <time>2019-12-20T09:15:53Z</time>
      </trkpt>
      <trkpt lat="38.2899430" lon="-0.7002940">
        <ele>168.6</ele>
        <time>2019-12-20T09:15:54Z</time>
      </trkpt>
      <trkpt lat="38.2898820" lon="-0.7002800">
        <ele>168.6</ele>
        <time>2019-12-20T09:15:55Z</time>
      </trkpt>
      <trkpt lat="38.2898210" lon="-0.7002740">
        <ele>168.4</ele>
        <time>2019-12-20T09:15:56Z</time>
      </trkpt>
      <trkpt lat="38.2897590" lon="-0.7002630">
        <ele>168.4</ele>
        <time>2019-12-20T09:15:57Z</time>
      </trkpt>
      <trkpt lat="38.2897000" lon="-0.7002590">
        <ele>168.4</ele>
        <time>2019-12-20T09:15:58Z</time>
      </trkpt>
      <trkpt lat="38.2896460" lon="-0.7002780">
        <ele>168.6</ele>
        <time>2019-12-20T09:15:59Z</time>
      </trkpt>
      <trkpt lat="38.2895910" lon="-0.7003030">
        <ele>168.4</ele>
        <time>2019-12-20T09:16:00Z</time>
      </trkpt>
      <trkpt lat="38.2895340" lon="-0.7003280">
        <ele>168.0</ele>
        <time>2019-12-20T09:16:01Z</time>
      </trkpt>
      <trkpt lat="38.2894760" lon="-0.7003540">
        <ele>167.8</ele>
        <time>2019-12-20T09:16:02Z</time>
      </trkpt>
      <trkpt lat="38.2894150" lon="-0.7003740">
        <ele>167.2</ele>
        <time>2019-12-20T09:16:03Z</time>
      </trkpt>
      <trkpt lat="38.2893420" lon="-0.7003820">
        <ele>165.8</ele>
        <time>2019-12-20T09:16:04Z</time>
      </trkpt>
      <trkpt lat="38.2892700" lon="-0.7003940">
        <ele>165.2</ele>
        <time>2019-12-20T09:16:05Z</time>
      </trkpt>
      <trkpt lat="38.2892010" lon="-0.7004150">
        <ele>164.8</ele>
        <time>2019-12-20T09:16:06Z</time>
      </trkpt>
      <trkpt lat="38.2891440" lon="-0.7004150">
        <ele>164.8</ele>
        <time>2019-12-20T09:16:07Z</time>
      </trkpt>
      <trkpt lat="38.2891010" lon="-0.7004030">
        <ele>165.0</ele>
        <time>2019-12-20T09:16:08Z</time>
      </trkpt>
      <trkpt lat="38.2890490" lon="-0.7003830">
        <ele>164.8</ele>
        <time>2019-12-20T09:16:09Z</time>
      </trkpt>
      <trkpt lat="38.2889970" lon="-0.7003570">
        <ele>164.0</ele>
        <time>2019-12-20T09:16:10Z</time>
      </trkpt>
      <trkpt lat="38.2889450" lon="-0.7003270">
        <ele>164.0</ele>
        <time>2019-12-20T09:16:11Z</time>
      </trkpt>
      <trkpt lat="38.2889010" lon="-0.7002970">
        <ele>163.8</ele>
        <time>2019-12-20T09:16:12Z</time>
      </trkpt>
      <trkpt lat="38.2888600" lon="-0.7002640">
        <ele>163.8</ele>
        <time>2019-12-20T09:16:13Z</time>
      </trkpt>
      <trkpt lat="38.2888190" lon="-0.7002360">
        <ele>163.2</ele>
        <time>2019-12-20T09:16:14Z</time>
      </trkpt>
      <trkpt lat="38.2887730" lon="-0.7002180">
        <ele>162.8</ele>
        <time>2019-12-20T09:16:15Z</time>
      </trkpt>
      <trkpt lat="38.2887220" lon="-0.7001950">
        <ele>162.4</ele>
        <time>2019-12-20T09:16:16Z</time>
      </trkpt>
      <trkpt lat="38.2886770" lon="-0.7001610">
        <ele>162.4</ele>
        <time>2019-12-20T09:16:17Z</time>
      </trkpt>
      <trkpt lat="38.2886330" lon="-0.7001180">
        <ele>162.4</ele>
        <time>2019-12-20T09:16:18Z</time>
      </trkpt>
      <trkpt lat="38.2885880" lon="-0.7000720">
        <ele>162.4</ele>
        <time>2019-12-20T09:16:19Z</time>
      </trkpt>
      <trkpt lat="38.2885400" lon="-0.7000330">
        <ele>162.6</ele>
        <time>2019-12-20T09:16:20Z</time>
      </trkpt>
      <trkpt lat="38.2884940" lon="-0.6999940">
        <ele>162.6</ele>
        <time>2019-12-20T09:16:21Z</time>
      </trkpt>
      <trkpt lat="38.2884590" lon="-0.6999400">
        <ele>162.6</ele>
        <time>2019-12-20T09:16:22Z</time>
      </trkpt>
      <trkpt lat="38.2884340" lon="-0.6998790">
        <ele>162.6</ele>
        <time>2019-12-20T09:16:23Z</time>
      </trkpt>
      <trkpt lat="38.2884010" lon="-0.6998220">
        <ele>162.8</ele>
        <time>2019-12-20T09:16:24Z</time>
      </trkpt>
      <trkpt lat="38.2883630" lon="-0.6997730">
        <ele>162.8</ele>
        <time>2019-12-20T09:16:25Z</time>
      </trkpt>
      <trkpt lat="38.2883200" lon="-0.6997230">
        <ele>163.0</ele>
        <time>2019-12-20T09:16:26Z</time>
      </trkpt>
      <trkpt lat="38.2882760" lon="-0.6996720">
        <ele>162.6</ele>
        <time>2019-12-20T09:16:27Z</time>
      </trkpt>
      <trkpt lat="38.2882310" lon="-0.6996190">
        <ele>162.8</ele>
        <time>2019-12-20T09:16:28Z</time>
      </trkpt>
      <trkpt lat="38.2881850" lon="-0.6995670">
        <ele>162.4</ele>
        <time>2019-12-20T09:16:29Z</time>
      </trkpt>
      <trkpt lat="38.2881400" lon="-0.6995140">
        <ele>162.4</ele>
        <time>2019-12-20T09:16:30Z</time>
      </trkpt>
      <trkpt lat="38.2880910" lon="-0.6994630">
        <ele>162.4</ele>
        <time>2019-12-20T09:16:31Z</time>
      </trkpt>
      <trkpt lat="38.2880390" lon="-0.6994080">
        <ele>162.2</ele>
        <time>2019-12-20T09:16:32Z</time>
      </trkpt>
      <trkpt lat="38.2879880" lon="-0.6993580">
        <ele>162.0</ele>
        <time>2019-12-20T09:16:33Z</time>
      </trkpt>
      <trkpt lat="38.2879360" lon="-0.6993140">
        <ele>161.4</ele>
        <time>2019-12-20T09:16:34Z</time>
      </trkpt>
      <trkpt lat="38.2878880" lon="-0.6992640">
        <ele>161.2</ele>
        <time>2019-12-20T09:16:35Z</time>
      </trkpt>
      <trkpt lat="38.2878420" lon="-0.6992210">
        <ele>160.8</ele>
        <time>2019-12-20T09:16:36Z</time>
      </trkpt>
      <trkpt lat="38.2877880" lon="-0.6991880">
        <ele>160.8</ele>
        <time>2019-12-20T09:16:37Z</time>
      </trkpt>
      <trkpt lat="38.2877310" lon="-0.6991530">
        <ele>160.2</ele>
        <time>2019-12-20T09:16:38Z</time>
      </trkpt>
      <trkpt lat="38.2876910" lon="-0.6991110">
        <ele>159.8</ele>
        <time>2019-12-20T09:16:39Z</time>
      </trkpt>
      <trkpt lat="38.2876510" lon="-0.6990680">
        <ele>159.8</ele>
        <time>2019-12-20T09:16:40Z</time>
      </trkpt>
      <trkpt lat="38.2876150" lon="-0.6990380">
        <ele>159.0</ele>
        <time>2019-12-20T09:16:41Z</time>
      </trkpt>
      <trkpt lat="38.2875780" lon="-0.6990090">
        <ele>158.4</ele>
        <time>2019-12-20T09:16:42Z</time>
      </trkpt>
      <trkpt lat="38.2875040" lon="-0.6989500">
        <ele>158.2</ele>
        <time>2019-12-20T09:16:43Z</time>
      </trkpt>
      <trkpt lat="38.2874480" lon="-0.6989130">
        <ele>157.2</ele>
        <time>2019-12-20T09:16:44Z</time>
      </trkpt>
      <trkpt lat="38.2873920" lon="-0.6988950">
        <ele>156.4</ele>
        <time>2019-12-20T09:16:45Z</time>
      </trkpt>
      <trkpt lat="38.2873340" lon="-0.6988730">
        <ele>156.0</ele>
        <time>2019-12-20T09:16:46Z</time>
      </trkpt>
      <trkpt lat="38.2872840" lon="-0.6988270">
        <ele>154.6</ele>
        <time>2019-12-20T09:16:47Z</time>
      </trkpt>
      <trkpt lat="38.2872300" lon="-0.6987780">
        <ele>153.8</ele>
        <time>2019-12-20T09:16:48Z</time>
      </trkpt>
      <trkpt lat="38.2871730" lon="-0.6987520">
        <ele>153.6</ele>
        <time>2019-12-20T09:16:49Z</time>
      </trkpt>
      <trkpt lat="38.2871170" lon="-0.6987340">
        <ele>153.2</ele>
        <time>2019-12-20T09:16:50Z</time>
      </trkpt>
      <trkpt lat="38.2870620" lon="-0.6987050">
        <ele>153.2</ele>
        <time>2019-12-20T09:16:51Z</time>
      </trkpt>
      <trkpt lat="38.2870030" lon="-0.6986740">
        <ele>152.6</ele>
        <time>2019-12-20T09:16:52Z</time>
      </trkpt>
      <trkpt lat="38.2869390" lon="-0.6986550">
        <ele>152.0</ele>
        <time>2019-12-20T09:16:53Z</time>
      </trkpt>
      <trkpt lat="38.2868720" lon="-0.6986580">
        <ele>151.2</ele>
        <time>2019-12-20T09:16:54Z</time>
      </trkpt>
      <trkpt lat="38.2868050" lon="-0.6986730">
        <ele>150.8</ele>
        <time>2019-12-20T09:16:55Z</time>
      </trkpt>
      <trkpt lat="38.2867350" lon="-0.6986820">
        <ele>150.2</ele>
        <time>2019-12-20T09:16:56Z</time>
      </trkpt>
      <trkpt lat="38.2866630" lon="-0.6986740">
        <ele>149.8</ele>
        <time>2019-12-20T09:16:57Z</time>
      </trkpt>
      <trkpt lat="38.2865930" lon="-0.6986550">
        <ele>149.6</ele>
        <time>2019-12-20T09:16:58Z</time>
      </trkpt>
      <trkpt lat="38.2865230" lon="-0.6986410">
        <ele>149.4</ele>
        <time>2019-12-20T09:16:59Z</time>
      </trkpt>
      <trkpt lat="38.2864530" lon="-0.6986210">
        <ele>149.4</ele>
        <time>2019-12-20T09:17:00Z</time>
      </trkpt>
      <trkpt lat="38.2863850" lon="-0.6985960">
        <ele>149.4</ele>
        <time>2019-12-20T09:17:01Z</time>
      </trkpt>
      <trkpt lat="38.2863130" lon="-0.6985860">
        <ele>149.4</ele>
        <time>2019-12-20T09:17:02Z</time>
      </trkpt>
      <trkpt lat="38.2862400" lon="-0.6985770">
        <ele>148.6</ele>
        <time>2019-12-20T09:17:03Z</time>
      </trkpt>
      <trkpt lat="38.2861700" lon="-0.6985680">
        <ele>148.6</ele>
        <time>2019-12-20T09:17:04Z</time>
      </trkpt>
      <trkpt lat="38.2861010" lon="-0.6985620">
        <ele>148.6</ele>
        <time>2019-12-20T09:17:05Z</time>
      </trkpt>
      <trkpt lat="38.2860330" lon="-0.6985660">
        <ele>148.4</ele>
        <time>2019-12-20T09:17:06Z</time>
      </trkpt>
      <trkpt lat="38.2859680" lon="-0.6985730">
        <ele>148.2</ele>
        <time>2019-12-20T09:17:07Z</time>
      </trkpt>
      <trkpt lat="38.2859020" lon="-0.6985850">
        <ele>147.8</ele>
        <time>2019-12-20T09:17:08Z</time>
      </trkpt>
      <trkpt lat="38.2858490" lon="-0.6986080">
        <ele>147.8</ele>
        <time>2019-12-20T09:17:09Z</time>
      </trkpt>
      <trkpt lat="38.2858170" lon="-0.6986400">
        <ele>147.6</ele>
        <time>2019-12-20T09:17:10Z</time>
      </trkpt>
      <trkpt lat="38.2857890" lon="-0.6986720">
        <ele>147.4</ele>
        <time>2019-12-20T09:17:11Z</time>
      </trkpt>
      <trkpt lat="38.2857520" lon="-0.6986820">
        <ele>147.6</ele>
        <time>2019-12-20T09:17:12Z</time>
      </trkpt>
      <trkpt lat="38.2856980" lon="-0.6986950">
        <ele>146.6</ele>
        <time>2019-12-20T09:17:13Z</time>
      </trkpt>
      <trkpt lat="38.2856540" lon="-0.6986910">
        <ele>145.6</ele>
        <time>2019-12-20T09:17:14Z</time>
      </trkpt>
      <trkpt lat="38.2856090" lon="-0.6986870">
        <ele>145.2</ele>
        <time>2019-12-20T09:17:15Z</time>
      </trkpt>
      <trkpt lat="38.2855190" lon="-0.6986800">
        <ele>144.8</ele>
        <time>2019-12-20T09:17:16Z</time>
      </trkpt>
      <trkpt lat="38.2854610" lon="-0.6986580">
        <ele>144.8</ele>
        <time>2019-12-20T09:17:17Z</time>
      </trkpt>
      <trkpt lat="38.2854000" lon="-0.6986460">
        <ele>144.6</ele>
        <time>2019-12-20T09:17:18Z</time>
      </trkpt>
      <trkpt lat="38.2853400" lon="-0.6986430">
        <ele>144.8</ele>
        <time>2019-12-20T09:17:19Z</time>
      </trkpt>
      <trkpt lat="38.2852810" lon="-0.6986350">
        <ele>144.6</ele>
        <time>2019-12-20T09:17:20Z</time>
      </trkpt>
      <trkpt lat="38.2852230" lon="-0.6986300">
        <ele>144.8</ele>
        <time>2019-12-20T09:17:21Z</time>
      </trkpt>
      <trkpt lat="38.2851670" lon="-0.6986350">
        <ele>144.8</ele>
        <time>2019-12-20T09:17:22Z</time>
      </trkpt>
      <trkpt lat="38.2851230" lon="-0.6986490">
        <ele>144.8</ele>
        <time>2019-12-20T09:17:23Z</time>
      </trkpt>
      <trkpt lat="38.2850900" lon="-0.6986700">
        <ele>145.2</ele>
        <time>2019-12-20T09:17:24Z</time>
      </trkpt>
      <trkpt lat="38.2850630" lon="-0.6986890">
        <ele>145.2</ele>
        <time>2019-12-20T09:17:25Z</time>
      </trkpt>
      <trkpt lat="38.2850360" lon="-0.6987000">
        <ele>145.2</ele>
        <time>2019-12-20T09:17:26Z</time>
      </trkpt>
      <trkpt lat="38.2850050" lon="-0.6987040">
        <ele>145.2</ele>
        <time>2019-12-20T09:17:27Z</time>
      </trkpt>
      <trkpt lat="38.2849740" lon="-0.6987000">
        <ele>145.4</ele>
        <time>2019-12-20T09:17:28Z</time>
      </trkpt>
      <trkpt lat="38.2849400" lon="-0.6986940">
        <ele>145.6</ele>
        <time>2019-12-20T09:17:29Z</time>
      </trkpt>
      <trkpt lat="38.2849090" lon="-0.6986870">
        <ele>146.0</ele>
        <time>2019-12-20T09:17:30Z</time>
      </trkpt>
      <trkpt lat="38.2848760" lon="-0.6986770">
        <ele>146.2</ele>
        <time>2019-12-20T09:17:31Z</time>
      </trkpt>
      <trkpt lat="38.2848420" lon="-0.6986590">
        <ele>146.6</ele>
        <time>2019-12-20T09:17:32Z</time>
      </trkpt>
      <trkpt lat="38.2848100" lon="-0.6986410">
        <ele>146.8</ele>
        <time>2019-12-20T09:17:33Z</time>
      </trkpt>
      <trkpt lat="38.2847760" lon="-0.6986260">
        <ele>147.2</ele>
        <time>2019-12-20T09:17:34Z</time>
      </trkpt>
      <trkpt lat="38.2847440" lon="-0.6986120">
        <ele>147.4</ele>
        <time>2019-12-20T09:17:35Z</time>
      </trkpt>
      <trkpt lat="38.2847140" lon="-0.6985990">
        <ele>147.6</ele>
        <time>2019-12-20T09:17:36Z</time>
      </trkpt>
      <trkpt lat="38.2846820" lon="-0.6985860">
        <ele>147.8</ele>
        <time>2019-12-20T09:17:37Z</time>
      </trkpt>
      <trkpt lat="38.2846520" lon="-0.6985740">
        <ele>148.0</ele>
        <time>2019-12-20T09:17:38Z</time>
      </trkpt>
      <trkpt lat="38.2846230" lon="-0.6985650">
        <ele>148.4</ele>
        <time>2019-12-20T09:17:39Z</time>
      </trkpt>
      <trkpt lat="38.2845920" lon="-0.6985550">
        <ele>148.6</ele>
        <time>2019-12-20T09:17:40Z</time>
      </trkpt>
      <trkpt lat="38.2845610" lon="-0.6985460">
        <ele>149.0</ele>
        <time>2019-12-20T09:17:41Z</time>
      </trkpt>
      <trkpt lat="38.2845330" lon="-0.6985360">
        <ele>149.4</ele>
        <time>2019-12-20T09:17:42Z</time>
      </trkpt>
      <trkpt lat="38.2845040" lon="-0.6985270">
        <ele>149.6</ele>
        <time>2019-12-20T09:17:43Z</time>
      </trkpt>
      <trkpt lat="38.2844740" lon="-0.6985180">
        <ele>149.8</ele>
        <time>2019-12-20T09:17:44Z</time>
      </trkpt>
      <trkpt lat="38.2844440" lon="-0.6985090">
        <ele>150.0</ele>
        <time>2019-12-20T09:17:45Z</time>
      </trkpt>
      <trkpt lat="38.2844140" lon="-0.6984990">
        <ele>150.2</ele>
        <time>2019-12-20T09:17:46Z</time>
      </trkpt>
      <trkpt lat="38.2843850" lon="-0.6984910">
        <ele>150.4</ele>
        <time>2019-12-20T09:17:47Z</time>
      </trkpt>
      <trkpt lat="38.2843550" lon="-0.6984810">
        <ele>150.6</ele>
        <time>2019-12-20T09:17:48Z</time>
      </trkpt>
      <trkpt lat="38.2843240" lon="-0.6984720">
        <ele>150.6</ele>
        <time>2019-12-20T09:17:49Z</time>
      </trkpt>
      <trkpt lat="38.2842930" lon="-0.6984600">
        <ele>150.8</ele>
        <time>2019-12-20T09:17:50Z</time>
      </trkpt>
      <trkpt lat="38.2842610" lon="-0.6984480">
        <ele>150.8</ele>
        <time>2019-12-20T09:17:51Z</time>
      </trkpt>
      <trkpt lat="38.2842280" lon="-0.6984360">
        <ele>151.0</ele>
        <time>2019-12-20T09:17:52Z</time>
      </trkpt>
      <trkpt lat="38.2841900" lon="-0.6984220">
        <ele>151.0</ele>
        <time>2019-12-20T09:17:53Z</time>
      </trkpt>
      <trkpt lat="38.2841510" lon="-0.6984080">
        <ele>150.8</ele>
        <time>2019-12-20T09:17:54Z</time>
      </trkpt>
      <trkpt lat="38.2841100" lon="-0.6983900">
        <ele>151.0</ele>
        <time>2019-12-20T09:17:55Z</time>
      </trkpt>
      <trkpt lat="38.2840690" lon="-0.6983690">
        <ele>151.0</ele>
        <time>2019-12-20T09:17:56Z</time>
      </trkpt>
      <trkpt lat="38.2840300" lon="-0.6983480">
        <ele>151.0</ele>
        <time>2019-12-20T09:17:57Z</time>
      </trkpt>
      <trkpt lat="38.2839900" lon="-0.6983250">
        <ele>151.0</ele>
        <time>2019-12-20T09:17:58Z</time>
      </trkpt>
      <trkpt lat="38.2839480" lon="-0.6982940">
        <ele>150.8</ele>
        <time>2019-12-20T09:17:59Z</time>
      </trkpt>
      <trkpt lat="38.2839070" lon="-0.6982610">
        <ele>150.6</ele>
        <time>2019-12-20T09:18:00Z</time>
      </trkpt>
      <trkpt lat="38.2838680" lon="-0.6982250">
        <ele>150.6</ele>
        <time>2019-12-20T09:18:01Z</time>
      </trkpt>
      <trkpt lat="38.2838310" lon="-0.6981840">
        <ele>150.6</ele>
        <time>2019-12-20T09:18:02Z</time>
      </trkpt>
      <trkpt lat="38.2837920" lon="-0.6981420">
        <ele>150.6</ele>
        <time>2019-12-20T09:18:03Z</time>
      </trkpt>
      <trkpt lat="38.2837540" lon="-0.6981020">
        <ele>150.6</ele>
        <time>2019-12-20T09:18:04Z</time>
      </trkpt>
      <trkpt lat="38.2837200" lon="-0.6980820">
        <ele>150.4</ele>
        <time>2019-12-20T09:18:05Z</time>
      </trkpt>
      <trkpt lat="38.2836950" lon="-0.6980880">
        <ele>150.4</ele>
        <time>2019-12-20T09:18:06Z</time>
      </trkpt>
      <trkpt lat="38.2836710" lon="-0.6981150">
        <ele>150.2</ele>
        <time>2019-12-20T09:18:07Z</time>
      </trkpt>
      <trkpt lat="38.2836430" lon="-0.6981440">
        <ele>150.0</ele>
        <time>2019-12-20T09:18:08Z</time>
      </trkpt>
      <trkpt lat="38.2836060" lon="-0.6981590">
        <ele>149.8</ele>
        <time>2019-12-20T09:18:09Z</time>
      </trkpt>
      <trkpt lat="38.2835630" lon="-0.6981780">
        <ele>149.6</ele>
        <time>2019-12-20T09:18:10Z</time>
      </trkpt>
      <trkpt lat="38.2835180" lon="-0.6982040">
        <ele>149.4</ele>
        <time>2019-12-20T09:18:11Z</time>
      </trkpt>
      <trkpt lat="38.2834670" lon="-0.6982180">
        <ele>149.2</ele>
        <time>2019-12-20T09:18:12Z</time>
      </trkpt>
      <trkpt lat="38.2834140" lon="-0.6982320">
        <ele>149.2</ele>
        <time>2019-12-20T09:18:13Z</time>
      </trkpt>
      <trkpt lat="38.2833620" lon="-0.6982440">
        <ele>149.2</ele>
        <time>2019-12-20T09:18:14Z</time>
      </trkpt>
      <trkpt lat="38.2833080" lon="-0.6982530">
        <ele>149.0</ele>
        <time>2019-12-20T09:18:15Z</time>
      </trkpt>
      <trkpt lat="38.2832550" lon="-0.6982670">
        <ele>148.6</ele>
        <time>2019-12-20T09:18:16Z</time>
      </trkpt>
      <trkpt lat="38.2832020" lon="-0.6982900">
        <ele>148.6</ele>
        <time>2019-12-20T09:18:17Z</time>
      </trkpt>
      <trkpt lat="38.2831540" lon="-0.6983250">
        <ele>148.6</ele>
        <time>2019-12-20T09:18:18Z</time>
      </trkpt>
      <trkpt lat="38.2831010" lon="-0.6983550">
        <ele>148.4</ele>
        <time>2019-12-20T09:18:19Z</time>
      </trkpt>
      <trkpt lat="38.2830480" lon="-0.6983890">
        <ele>148.4</ele>
        <time>2019-12-20T09:18:20Z</time>
      </trkpt>
      <trkpt lat="38.2830090" lon="-0.6984170">
        <ele>148.4</ele>
        <time>2019-12-20T09:18:21Z</time>
      </trkpt>
      <trkpt lat="38.2829700" lon="-0.6984450">
        <ele>148.4</ele>
        <time>2019-12-20T09:18:22Z</time>
      </trkpt>
      <trkpt lat="38.2828910" lon="-0.6985000">
        <ele>148.2</ele>
        <time>2019-12-20T09:18:23Z</time>
      </trkpt>
      <trkpt lat="38.2828520" lon="-0.6985240">
        <ele>148.2</ele>
        <time>2019-12-20T09:18:24Z</time>
      </trkpt>
      <trkpt lat="38.2828120" lon="-0.6985480">
        <ele>148.2</ele>
        <time>2019-12-20T09:18:25Z</time>
      </trkpt>
      <trkpt lat="38.2827320" lon="-0.6985950">
        <ele>148.0</ele>
        <time>2019-12-20T09:18:26Z</time>
      </trkpt>
      <trkpt lat="38.2826760" lon="-0.6986090">
        <ele>148.0</ele>
        <time>2019-12-20T09:18:27Z</time>
      </trkpt>
      <trkpt lat="38.2826210" lon="-0.6986250">
        <ele>148.2</ele>
        <time>2019-12-20T09:18:28Z</time>
      </trkpt>
      <trkpt lat="38.2825680" lon="-0.6986470">
        <ele>148.0</ele>
        <time>2019-12-20T09:18:29Z</time>
      </trkpt>
      <trkpt lat="38.2825150" lon="-0.6986690">
        <ele>147.8</ele>
        <time>2019-12-20T09:18:30Z</time>
      </trkpt>
      <trkpt lat="38.2824610" lon="-0.6986910">
        <ele>147.8</ele>
        <time>2019-12-20T09:18:31Z</time>
      </trkpt>
      <trkpt lat="38.2824050" lon="-0.6987100">
        <ele>147.8</ele>
        <time>2019-12-20T09:18:32Z</time>
      </trkpt>
      <trkpt lat="38.2823640" lon="-0.6987200">
        <ele>147.8</ele>
        <time>2019-12-20T09:18:33Z</time>
      </trkpt>
      <trkpt lat="38.2823220" lon="-0.6987290">
        <ele>147.8</ele>
        <time>2019-12-20T09:18:34Z</time>
      </trkpt>
      <trkpt lat="38.2822380" lon="-0.6987470">
        <ele>147.8</ele>
        <time>2019-12-20T09:18:35Z</time>
      </trkpt>
      <trkpt lat="38.2821820" lon="-0.6987550">
        <ele>147.8</ele>
        <time>2019-12-20T09:18:36Z</time>
      </trkpt>
      <trkpt lat="38.2821300" lon="-0.6987780">
        <ele>147.4</ele>
        <time>2019-12-20T09:18:37Z</time>
      </trkpt>
      <trkpt lat="38.2820840" lon="-0.6988170">
        <ele>147.6</ele>
        <time>2019-12-20T09:18:38Z</time>
      </trkpt>
      <trkpt lat="38.2820420" lon="-0.6988560">
        <ele>147.6</ele>
        <time>2019-12-20T09:18:39Z</time>
      </trkpt>
      <trkpt lat="38.2819940" lon="-0.6988800">
        <ele>147.8</ele>
        <time>2019-12-20T09:18:40Z</time>
      </trkpt>
      <trkpt lat="38.2819520" lon="-0.6989040">
        <ele>147.6</ele>
        <time>2019-12-20T09:18:41Z</time>
      </trkpt>
      <trkpt lat="38.2819250" lon="-0.6989340">
        <ele>147.6</ele>
        <time>2019-12-20T09:18:42Z</time>
      </trkpt>
      <trkpt lat="38.2819130" lon="-0.6989790">
        <ele>147.4</ele>
        <time>2019-12-20T09:18:43Z</time>
      </trkpt>
      <trkpt lat="38.2819120" lon="-0.6990290">
        <ele>147.4</ele>
        <time>2019-12-20T09:18:44Z</time>
      </trkpt>
      <trkpt lat="38.2819230" lon="-0.6990800">
        <ele>147.4</ele>
        <time>2019-12-20T09:18:45Z</time>
      </trkpt>
      <trkpt lat="38.2819380" lon="-0.6991280">
        <ele>147.6</ele>
        <time>2019-12-20T09:18:46Z</time>
      </trkpt>
      <trkpt lat="38.2819520" lon="-0.6991810">
        <ele>147.6</ele>
        <time>2019-12-20T09:18:47Z</time>
      </trkpt>
      <trkpt lat="38.2819610" lon="-0.6992360">
        <ele>147.6</ele>
        <time>2019-12-20T09:18:48Z</time>
      </trkpt>
      <trkpt lat="38.2819660" lon="-0.6992900">
        <ele>147.6</ele>
        <time>2019-12-20T09:18:49Z</time>
      </trkpt>
      <trkpt lat="38.2819700" lon="-0.6993460">
        <ele>147.8</ele>
        <time>2019-12-20T09:18:50Z</time>
      </trkpt>
      <trkpt lat="38.2819740" lon="-0.6994060">
        <ele>147.8</ele>
        <time>2019-12-20T09:18:51Z</time>
      </trkpt>
      <trkpt lat="38.2819800" lon="-0.6994610">
        <ele>147.8</ele>
        <time>2019-12-20T09:18:52Z</time>
      </trkpt>
      <trkpt lat="38.2819860" lon="-0.6995220">
        <ele>147.6</ele>
        <time>2019-12-20T09:18:53Z</time>
      </trkpt>
      <trkpt lat="38.2819910" lon="-0.6995790">
        <ele>147.6</ele>
        <time>2019-12-20T09:18:54Z</time>
      </trkpt>
      <trkpt lat="38.2819940" lon="-0.6996370">
        <ele>147.4</ele>
        <time>2019-12-20T09:18:55Z</time>
      </trkpt>
      <trkpt lat="38.2819970" lon="-0.6997000">
        <ele>147.2</ele>
        <time>2019-12-20T09:18:56Z</time>
      </trkpt>
      <trkpt lat="38.2819930" lon="-0.6997560">
        <ele>147.0</ele>
        <time>2019-12-20T09:18:57Z</time>
      </trkpt>
      <trkpt lat="38.2819850" lon="-0.6998040">
        <ele>146.8</ele>
        <time>2019-12-20T09:18:58Z</time>
      </trkpt>
      <trkpt lat="38.2819770" lon="-0.6998420">
        <ele>146.4</ele>
        <time>2019-12-20T09:18:59Z</time>
      </trkpt>
      <trkpt lat="38.2819620" lon="-0.6998710">
        <ele>146.2</ele>
        <time>2019-12-20T09:19:00Z</time>
      </trkpt>
      <trkpt lat="38.2819370" lon="-0.6998830">
        <ele>146.2</ele>
        <time>2019-12-20T09:19:01Z</time>
      </trkpt>
      <trkpt lat="38.2819070" lon="-0.6998890">
        <ele>145.8</ele>
        <time>2019-12-20T09:19:02Z</time>
      </trkpt>
      <trkpt lat="38.2818710" lon="-0.6998860">
        <ele>146.0</ele>
        <time>2019-12-20T09:19:03Z</time>
      </trkpt>
      <trkpt lat="38.2818300" lon="-0.6998840">
        <ele>145.6</ele>
        <time>2019-12-20T09:19:04Z</time>
      </trkpt>
      <trkpt lat="38.2817880" lon="-0.6998770">
        <ele>145.8</ele>
        <time>2019-12-20T09:19:05Z</time>
      </trkpt>
      <trkpt lat="38.2817470" lon="-0.6998860">
        <ele>145.6</ele>
        <time>2019-12-20T09:19:06Z</time>
      </trkpt>
      <trkpt lat="38.2817060" lon="-0.6998950">
        <ele>145.6</ele>
        <time>2019-12-20T09:19:07Z</time>
      </trkpt>
      <trkpt lat="38.2816760" lon="-0.6999250">
        <ele>145.6</ele>
        <time>2019-12-20T09:19:08Z</time>
      </trkpt>
      <trkpt lat="38.2816460" lon="-0.6999650">
        <ele>145.2</ele>
        <time>2019-12-20T09:19:09Z</time>
      </trkpt>
      <trkpt lat="38.2816100" lon="-0.7000030">
        <ele>145.0</ele>
        <time>2019-12-20T09:19:10Z</time>
      </trkpt>
      <trkpt lat="38.2815720" lon="-0.7000370">
        <ele>145.0</ele>
        <time>2019-12-20T09:19:11Z</time>
      </trkpt>
      <trkpt lat="38.2815340" lon="-0.7000740">
        <ele>145.0</ele>
        <time>2019-12-20T09:19:12Z</time>
      </trkpt>
      <trkpt lat="38.2814920" lon="-0.7001070">
        <ele>145.0</ele>
        <time>2019-12-20T09:19:13Z</time>
      </trkpt>
      <trkpt lat="38.2814520" lon="-0.7001350">
        <ele>144.8</ele>
        <time>2019-12-20T09:19:14Z</time>
      </trkpt>
      <trkpt lat="38.2814100" lon="-0.7001600">
        <ele>144.6</ele>
        <time>2019-12-20T09:19:15Z</time>
      </trkpt>
      <trkpt lat="38.2813710" lon="-0.7001890">
        <ele>145.0</ele>
        <time>2019-12-20T09:19:16Z</time>
      </trkpt>
      <trkpt lat="38.2813300" lon="-0.7002210">
        <ele>145.0</ele>
        <time>2019-12-20T09:19:17Z</time>
      </trkpt>
      <trkpt lat="38.2812870" lon="-0.7002460">
        <ele>144.8</ele>
        <time>2019-12-20T09:19:18Z</time>
      </trkpt>
      <trkpt lat="38.2812440" lon="-0.7002700">
        <ele>145.0</ele>
        <time>2019-12-20T09:19:19Z</time>
      </trkpt>
      <trkpt lat="38.2811910" lon="-0.7002940">
        <ele>144.6</ele>
        <time>2019-12-20T09:19:20Z</time>
      </trkpt>
      <trkpt lat="38.2811370" lon="-0.7003140">
        <ele>144.6</ele>
        <time>2019-12-20T09:19:21Z</time>
      </trkpt>
      <trkpt lat="38.2810790" lon="-0.7003300">
        <ele>144.0</ele>
        <time>2019-12-20T09:19:22Z</time>
      </trkpt>
      <trkpt lat="38.2810180" lon="-0.7003400">
        <ele>144.0</ele>
        <time>2019-12-20T09:19:23Z</time>
      </trkpt>
      <trkpt lat="38.2809600" lon="-0.7003490">
        <ele>143.6</ele>
        <time>2019-12-20T09:19:24Z</time>
      </trkpt>
      <trkpt lat="38.2809060" lon="-0.7003660">
        <ele>143.8</ele>
        <time>2019-12-20T09:19:25Z</time>
      </trkpt>
      <trkpt lat="38.2808510" lon="-0.7003880">
        <ele>143.8</ele>
        <time>2019-12-20T09:19:26Z</time>
      </trkpt>
      <trkpt lat="38.2807980" lon="-0.7004150">
        <ele>143.4</ele>
        <time>2019-12-20T09:19:27Z</time>
      </trkpt>
      <trkpt lat="38.2807460" lon="-0.7004460">
        <ele>143.6</ele>
        <time>2019-12-20T09:19:28Z</time>
      </trkpt>
      <trkpt lat="38.2806960" lon="-0.7004860">
        <ele>143.6</ele>
        <time>2019-12-20T09:19:29Z</time>
      </trkpt>
      <trkpt lat="38.2806510" lon="-0.7005310">
        <ele>143.6</ele>
        <time>2019-12-20T09:19:30Z</time>
      </trkpt>
      <trkpt lat="38.2806080" lon="-0.7005770">
        <ele>143.8</ele>
        <time>2019-12-20T09:19:31Z</time>
      </trkpt>
      <trkpt lat="38.2805630" lon="-0.7006200">
        <ele>143.6</ele>
        <time>2019-12-20T09:19:32Z</time>
      </trkpt>
      <trkpt lat="38.2805150" lon="-0.7006510">
        <ele>143.8</ele>
        <time>2019-12-20T09:19:33Z</time>
      </trkpt>
      <trkpt lat="38.2804670" lon="-0.7006850">
        <ele>143.6</ele>
        <time>2019-12-20T09:19:34Z</time>
      </trkpt>
      <trkpt lat="38.2804230" lon="-0.7007280">
        <ele>143.4</ele>
        <time>2019-12-20T09:19:35Z</time>
      </trkpt>
      <trkpt lat="38.2803860" lon="-0.7007820">
        <ele>143.4</ele>
        <time>2019-12-20T09:19:36Z</time>
      </trkpt>
      <trkpt lat="38.2803560" lon="-0.7008440">
        <ele>143.4</ele>
        <time>2019-12-20T09:19:37Z</time>
      </trkpt>
      <trkpt lat="38.2803180" lon="-0.7009030">
        <ele>143.0</ele>
        <time>2019-12-20T09:19:38Z</time>
      </trkpt>
      <trkpt lat="38.2802680" lon="-0.7009520">
        <ele>142.8</ele>
        <time>2019-12-20T09:19:39Z</time>
      </trkpt>
      <trkpt lat="38.2802160" lon="-0.7009970">
        <ele>142.4</ele>
        <time>2019-12-20T09:19:40Z</time>
      </trkpt>
      <trkpt lat="38.2801610" lon="-0.7010300">
        <ele>142.0</ele>
        <time>2019-12-20T09:19:41Z</time>
      </trkpt>
      <trkpt lat="38.2801010" lon="-0.7010500">
        <ele>141.8</ele>
        <time>2019-12-20T09:19:42Z</time>
      </trkpt>
      <trkpt lat="38.2800410" lon="-0.7010620">
        <ele>141.8</ele>
        <time>2019-12-20T09:19:43Z</time>
      </trkpt>
      <trkpt lat="38.2799830" lon="-0.7010720">
        <ele>141.6</ele>
        <time>2019-12-20T09:19:44Z</time>
      </trkpt>
      <trkpt lat="38.2799260" lon="-0.7010780">
        <ele>141.6</ele>
        <time>2019-12-20T09:19:45Z</time>
      </trkpt>
      <trkpt lat="38.2798690" lon="-0.7010790">
        <ele>141.6</ele>
        <time>2019-12-20T09:19:46Z</time>
      </trkpt>
      <trkpt lat="38.2798120" lon="-0.7010720">
        <ele>141.8</ele>
        <time>2019-12-20T09:19:47Z</time>
      </trkpt>
      <trkpt lat="38.2797570" lon="-0.7010680">
        <ele>141.6</ele>
        <time>2019-12-20T09:19:48Z</time>
      </trkpt>
      <trkpt lat="38.2797030" lon="-0.7010870">
        <ele>141.2</ele>
        <time>2019-12-20T09:19:49Z</time>
      </trkpt>
      <trkpt lat="38.2796600" lon="-0.7011280">
        <ele>140.8</ele>
        <time>2019-12-20T09:19:50Z</time>
      </trkpt>
      <trkpt lat="38.2796330" lon="-0.7011860">
        <ele>140.4</ele>
        <time>2019-12-20T09:19:51Z</time>
      </trkpt>
      <trkpt lat="38.2796190" lon="-0.7012600">
        <ele>139.4</ele>
        <time>2019-12-20T09:19:52Z</time>
      </trkpt>
      <trkpt lat="38.2796060" lon="-0.7013310">
        <ele>138.2</ele>
        <time>2019-12-20T09:19:53Z</time>
      </trkpt>
      <trkpt lat="38.2795830" lon="-0.7013870">
        <ele>137.2</ele>
        <time>2019-12-20T09:19:54Z</time>
      </trkpt>
      <trkpt lat="38.2795490" lon="-0.7014320">
        <ele>136.4</ele>
        <time>2019-12-20T09:19:55Z</time>
      </trkpt>
      <trkpt lat="38.2795040" lon="-0.7014700">
        <ele>136.4</ele>
        <time>2019-12-20T09:19:56Z</time>
      </trkpt>
      <trkpt lat="38.2794590" lon="-0.7014990">
        <ele>136.0</ele>
        <time>2019-12-20T09:19:57Z</time>
      </trkpt>
      <trkpt lat="38.2794120" lon="-0.7015110">
        <ele>135.8</ele>
        <time>2019-12-20T09:19:58Z</time>
      </trkpt>
      <trkpt lat="38.2793630" lon="-0.7015060">
        <ele>135.8</ele>
        <time>2019-12-20T09:19:59Z</time>
      </trkpt>
      <trkpt lat="38.2793180" lon="-0.7014870">
        <ele>135.8</ele>
        <time>2019-12-20T09:20:00Z</time>
      </trkpt>
      <trkpt lat="38.2792780" lon="-0.7014600">
        <ele>136.0</ele>
        <time>2019-12-20T09:20:01Z</time>
      </trkpt>
      <trkpt lat="38.2792400" lon="-0.7014350">
        <ele>136.4</ele>
        <time>2019-12-20T09:20:02Z</time>
      </trkpt>
      <trkpt lat="38.2792100" lon="-0.7014240">
        <ele>136.4</ele>
        <time>2019-12-20T09:20:03Z</time>
      </trkpt>
      <trkpt lat="38.2791790" lon="-0.7014280">
        <ele>136.8</ele>
        <time>2019-12-20T09:20:04Z</time>
      </trkpt>
      <trkpt lat="38.2791550" lon="-0.7014450">
        <ele>136.0</ele>
        <time>2019-12-20T09:20:05Z</time>
      </trkpt>
      <trkpt lat="38.2791310" lon="-0.7014800">
        <ele>135.4</ele>
        <time>2019-12-20T09:20:06Z</time>
      </trkpt>
      <trkpt lat="38.2791060" lon="-0.7015270">
        <ele>134.4</ele>
        <time>2019-12-20T09:20:07Z</time>
      </trkpt>
      <trkpt lat="38.2790680" lon="-0.7015740">
        <ele>133.6</ele>
        <time>2019-12-20T09:20:08Z</time>
      </trkpt>
      <trkpt lat="38.2790170" lon="-0.7016110">
        <ele>132.4</ele>
        <time>2019-12-20T09:20:09Z</time>
      </trkpt>
      <trkpt lat="38.2789650" lon="-0.7016440">
        <ele>130.8</ele>
        <time>2019-12-20T09:20:10Z</time>
      </trkpt>
      <trkpt lat="38.2789210" lon="-0.7016670">
        <ele>129.6</ele>
        <time>2019-12-20T09:20:11Z</time>
      </trkpt>
      <trkpt lat="38.2788770" lon="-0.7016790">
        <ele>128.8</ele>
        <time>2019-12-20T09:20:12Z</time>
      </trkpt>
      <trkpt lat="38.2788250" lon="-0.7016930">
        <ele>127.2</ele>
        <time>2019-12-20T09:20:13Z</time>
      </trkpt>
      <trkpt lat="38.2787670" lon="-0.7017110">
        <ele>126.6</ele>
        <time>2019-12-20T09:20:14Z</time>
      </trkpt>
      <trkpt lat="38.2787130" lon="-0.7017280">
        <ele>125.6</ele>
        <time>2019-12-20T09:20:15Z</time>
      </trkpt>
      <trkpt lat="38.2786600" lon="-0.7017460">
        <ele>124.6</ele>
        <time>2019-12-20T09:20:16Z</time>
      </trkpt>
      <trkpt lat="38.2786060" lon="-0.7017580">
        <ele>123.4</ele>
        <time>2019-12-20T09:20:17Z</time>
      </trkpt>
      <trkpt lat="38.2785500" lon="-0.7017530">
        <ele>122.4</ele>
        <time>2019-12-20T09:20:18Z</time>
      </trkpt>
      <trkpt lat="38.2784890" lon="-0.7017480">
        <ele>122.4</ele>
        <time>2019-12-20T09:20:19Z</time>
      </trkpt>
      <trkpt lat="38.2784230" lon="-0.7017440">
        <ele>121.6</ele>
        <time>2019-12-20T09:20:20Z</time>
      </trkpt>
      <trkpt lat="38.2783560" lon="-0.7017330">
        <ele>121.2</ele>
        <time>2019-12-20T09:20:21Z</time>
      </trkpt>
      <trkpt lat="38.2782900" lon="-0.7017320">
        <ele>120.4</ele>
        <time>2019-12-20T09:20:22Z</time>
      </trkpt>
      <trkpt lat="38.2782280" lon="-0.7017230">
        <ele>120.6</ele>
        <time>2019-12-20T09:20:23Z</time>
      </trkpt>
      <trkpt lat="38.2781760" lon="-0.7016970">
        <ele>120.0</ele>
        <time>2019-12-20T09:20:24Z</time>
      </trkpt>
      <trkpt lat="38.2781380" lon="-0.7016770">
        <ele>119.8</ele>
        <time>2019-12-20T09:20:25Z</time>
      </trkpt>
      <trkpt lat="38.2781000" lon="-0.7016620">
        <ele>119.6</ele>
        <time>2019-12-20T09:20:26Z</time>
      </trkpt>
      <trkpt lat="38.2780610" lon="-0.7016460">
        <ele>119.6</ele>
        <time>2019-12-20T09:20:27Z</time>
      </trkpt>
      <trkpt lat="38.2780260" lon="-0.7016310">
        <ele>119.2</ele>
        <time>2019-12-20T09:20:28Z</time>
      </trkpt>
      <trkpt lat="38.2779880" lon="-0.7016090">
        <ele>119.2</ele>
        <time>2019-12-20T09:20:29Z</time>
      </trkpt>
      <trkpt lat="38.2779470" lon="-0.7015890">
        <ele>119.2</ele>
        <time>2019-12-20T09:20:30Z</time>
      </trkpt>
      <trkpt lat="38.2779020" lon="-0.7015790">
        <ele>119.0</ele>
        <time>2019-12-20T09:20:31Z</time>
      </trkpt>
      <trkpt lat="38.2778570" lon="-0.7015700">
        <ele>118.8</ele>
        <time>2019-12-20T09:20:32Z</time>
      </trkpt>
      <trkpt lat="38.2778050" lon="-0.7015630">
        <ele>118.8</ele>
        <time>2019-12-20T09:20:33Z</time>
      </trkpt>
      <trkpt lat="38.2777520" lon="-0.7015630">
        <ele>118.6</ele>
        <time>2019-12-20T09:20:34Z</time>
      </trkpt>
      <trkpt lat="38.2776970" lon="-0.7015530">
        <ele>118.4</ele>
        <time>2019-12-20T09:20:35Z</time>
      </trkpt>
      <trkpt lat="38.2776510" lon="-0.7015410">
        <ele>118.4</ele>
        <time>2019-12-20T09:20:36Z</time>
      </trkpt>
      <trkpt lat="38.2776030" lon="-0.7015300">
        <ele>118.6</ele>
        <time>2019-12-20T09:20:37Z</time>
      </trkpt>
      <trkpt lat="38.2775510" lon="-0.7015180">
        <ele>118.0</ele>
        <time>2019-12-20T09:20:38Z</time>
      </trkpt>
      <trkpt lat="38.2775070" lon="-0.7015050">
        <ele>118.2</ele>
        <time>2019-12-20T09:20:39Z</time>
      </trkpt>
      <trkpt lat="38.2774670" lon="-0.7014850">
        <ele>118.0</ele>
        <time>2019-12-20T09:20:40Z</time>
      </trkpt>
      <trkpt lat="38.2774360" lon="-0.7014660">
        <ele>118.2</ele>
        <time>2019-12-20T09:20:41Z</time>
      </trkpt>
      <trkpt lat="38.2774150" lon="-0.7014560">
        <ele>118.0</ele>
        <time>2019-12-20T09:20:42Z</time>
      </trkpt>
      <trkpt lat="38.2773870" lon="-0.7014470">
        <ele>118.2</ele>
        <time>2019-12-20T09:20:43Z</time>
      </trkpt>
      <trkpt lat="38.2773560" lon="-0.7014380">
        <ele>118.0</ele>
        <time>2019-12-20T09:20:44Z</time>
      </trkpt>
      <trkpt lat="38.2773230" lon="-0.7014290">
        <ele>118.0</ele>
        <time>2019-12-20T09:20:45Z</time>
      </trkpt>
      <trkpt lat="38.2772900" lon="-0.7014170">
        <ele>118.0</ele>
        <time>2019-12-20T09:20:46Z</time>
      </trkpt>
      <trkpt lat="38.2772580" lon="-0.7014050">
        <ele>117.8</ele>
        <time>2019-12-20T09:20:47Z</time>
      </trkpt>
      <trkpt lat="38.2772320" lon="-0.7013810">
        <ele>118.0</ele>
        <time>2019-12-20T09:20:48Z</time>
      </trkpt>
      <trkpt lat="38.2772150" lon="-0.7013400">
        <ele>118.0</ele>
        <time>2019-12-20T09:20:49Z</time>
      </trkpt>
      <trkpt lat="38.2772010" lon="-0.7012960">
        <ele>117.8</ele>
        <time>2019-12-20T09:20:50Z</time>
      </trkpt>
      <trkpt lat="38.2771830" lon="-0.7012440">
        <ele>117.6</ele>
        <time>2019-12-20T09:20:51Z</time>
      </trkpt>
      <trkpt lat="38.2771420" lon="-0.7012060">
        <ele>117.6</ele>
        <time>2019-12-20T09:20:52Z</time>
      </trkpt>
      <trkpt lat="38.2771000" lon="-0.7011670">
        <ele>117.6</ele>
        <time>2019-12-20T09:20:53Z</time>
      </trkpt>
      <trkpt lat="38.2770640" lon="-0.7011320">
        <ele>117.8</ele>
        <time>2019-12-20T09:20:54Z</time>
      </trkpt>
      <trkpt lat="38.2770250" lon="-0.7010960">
        <ele>117.8</ele>
        <time>2019-12-20T09:20:55Z</time>
      </trkpt>
      <trkpt lat="38.2769770" lon="-0.7010690">
        <ele>117.4</ele>
        <time>2019-12-20T09:20:56Z</time>
      </trkpt>
      <trkpt lat="38.2769200" lon="-0.7010410">
        <ele>117.0</ele>
        <time>2019-12-20T09:20:57Z</time>
      </trkpt>
      <trkpt lat="38.2768530" lon="-0.7010170">
        <ele>116.2</ele>
        <time>2019-12-20T09:20:58Z</time>
      </trkpt>
      <trkpt lat="38.2767880" lon="-0.7009970">
        <ele>115.8</ele>
        <time>2019-12-20T09:20:59Z</time>
      </trkpt>
      <trkpt lat="38.2767240" lon="-0.7009800">
        <ele>115.8</ele>
        <time>2019-12-20T09:21:00Z</time>
      </trkpt>
      <trkpt lat="38.2766600" lon="-0.7009620">
        <ele>115.6</ele>
        <time>2019-12-20T09:21:01Z</time>
      </trkpt>
      <trkpt lat="38.2765980" lon="-0.7009310">
        <ele>115.6</ele>
        <time>2019-12-20T09:21:02Z</time>
      </trkpt>
      <trkpt lat="38.2765340" lon="-0.7009160">
        <ele>115.4</ele>
        <time>2019-12-20T09:21:03Z</time>
      </trkpt>
      <trkpt lat="38.2764680" lon="-0.7009010">
        <ele>115.2</ele>
        <time>2019-12-20T09:21:04Z</time>
      </trkpt>
      <trkpt lat="38.2764040" lon="-0.7008860">
        <ele>115.4</ele>
        <time>2019-12-20T09:21:05Z</time>
      </trkpt>
      <trkpt lat="38.2763410" lon="-0.7008710">
        <ele>115.4</ele>
        <time>2019-12-20T09:21:06Z</time>
      </trkpt>
      <trkpt lat="38.2762790" lon="-0.7008560">
        <ele>115.4</ele>
        <time>2019-12-20T09:21:07Z</time>
      </trkpt>
      <trkpt lat="38.2762190" lon="-0.7008430">
        <ele>115.4</ele>
        <time>2019-12-20T09:21:08Z</time>
      </trkpt>
      <trkpt lat="38.2761580" lon="-0.7008240">
        <ele>115.4</ele>
        <time>2019-12-20T09:21:09Z</time>
      </trkpt>
      <trkpt lat="38.2760980" lon="-0.7008030">
        <ele>115.4</ele>
        <time>2019-12-20T09:21:10Z</time>
      </trkpt>
      <trkpt lat="38.2760390" lon="-0.7007790">
        <ele>115.4</ele>
        <time>2019-12-20T09:21:11Z</time>
      </trkpt>
      <trkpt lat="38.2759810" lon="-0.7007560">
        <ele>115.4</ele>
        <time>2019-12-20T09:21:12Z</time>
      </trkpt>
      <trkpt lat="38.2759250" lon="-0.7007340">
        <ele>115.4</ele>
        <time>2019-12-20T09:21:13Z</time>
      </trkpt>
      <trkpt lat="38.2758700" lon="-0.7007100">
        <ele>115.4</ele>
        <time>2019-12-20T09:21:14Z</time>
      </trkpt>
      <trkpt lat="38.2758130" lon="-0.7006860">
        <ele>115.6</ele>
        <time>2019-12-20T09:21:15Z</time>
      </trkpt>
      <trkpt lat="38.2757570" lon="-0.7006630">
        <ele>115.6</ele>
        <time>2019-12-20T09:21:16Z</time>
      </trkpt>
      <trkpt lat="38.2757010" lon="-0.7006410">
        <ele>115.6</ele>
        <time>2019-12-20T09:21:17Z</time>
      </trkpt>
      <trkpt lat="38.2756450" lon="-0.7006170">
        <ele>115.6</ele>
        <time>2019-12-20T09:21:18Z</time>
      </trkpt>
      <trkpt lat="38.2755900" lon="-0.7005920">
        <ele>115.8</ele>
        <time>2019-12-20T09:21:19Z</time>
      </trkpt>
      <trkpt lat="38.2755360" lon="-0.7005690">
        <ele>115.8</ele>
        <time>2019-12-20T09:21:20Z</time>
      </trkpt>
      <trkpt lat="38.2754810" lon="-0.7005450">
        <ele>115.8</ele>
        <time>2019-12-20T09:21:21Z</time>
      </trkpt>
      <trkpt lat="38.2754270" lon="-0.7005210">
        <ele>115.8</ele>
        <time>2019-12-20T09:21:22Z</time>
      </trkpt>
      <trkpt lat="38.2753730" lon="-0.7004960">
        <ele>116.0</ele>
        <time>2019-12-20T09:21:23Z</time>
      </trkpt>
      <trkpt lat="38.2753190" lon="-0.7004710">
        <ele>116.0</ele>
        <time>2019-12-20T09:21:24Z</time>
      </trkpt>
      <trkpt lat="38.2752650" lon="-0.7004470">
        <ele>116.0</ele>
        <time>2019-12-20T09:21:25Z</time>
      </trkpt>
      <trkpt lat="38.2752110" lon="-0.7004220">
        <ele>115.8</ele>
        <time>2019-12-20T09:21:26Z</time>
      </trkpt>
      <trkpt lat="38.2751580" lon="-0.7003960">
        <ele>115.8</ele>
        <time>2019-12-20T09:21:27Z</time>
      </trkpt>
      <trkpt lat="38.2751050" lon="-0.7003690">
        <ele>115.8</ele>
        <time>2019-12-20T09:21:28Z</time>
      </trkpt>
      <trkpt lat="38.2750520" lon="-0.7003400">
        <ele>115.8</ele>
        <time>2019-12-20T09:21:29Z</time>
      </trkpt>
      <trkpt lat="38.2750030" lon="-0.7003070">
        <ele>115.8</ele>
        <time>2019-12-20T09:21:30Z</time>
      </trkpt>
      <trkpt lat="38.2749570" lon="-0.7002700">
        <ele>116.2</ele>
        <time>2019-12-20T09:21:31Z</time>
      </trkpt>
      <trkpt lat="38.2749140" lon="-0.7002300">
        <ele>116.6</ele>
        <time>2019-12-20T09:21:32Z</time>
      </trkpt>
      <trkpt lat="38.2748780" lon="-0.7001930">
        <ele>117.0</ele>
        <time>2019-12-20T09:21:33Z</time>
      </trkpt>
      <trkpt lat="38.2748490" lon="-0.7001580">
        <ele>117.6</ele>
        <time>2019-12-20T09:21:34Z</time>
      </trkpt>
      <trkpt lat="38.2748240" lon="-0.7001270">
        <ele>118.0</ele>
        <time>2019-12-20T09:21:35Z</time>
      </trkpt>
      <trkpt lat="38.2748030" lon="-0.7000980">
        <ele>118.4</ele>
        <time>2019-12-20T09:21:36Z</time>
      </trkpt>
      <trkpt lat="38.2747830" lon="-0.7000680">
        <ele>118.8</ele>
        <time>2019-12-20T09:21:37Z</time>
      </trkpt>
      <trkpt lat="38.2747630" lon="-0.7000390">
        <ele>119.2</ele>
        <time>2019-12-20T09:21:38Z</time>
      </trkpt>
      <trkpt lat="38.2747410" lon="-0.7000120">
        <ele>119.6</ele>
        <time>2019-12-20T09:21:39Z</time>
      </trkpt>
      <trkpt lat="38.2747170" lon="-0.6999830">
        <ele>119.8</ele>
        <time>2019-12-20T09:21:40Z</time>
      </trkpt>
      <trkpt lat="38.2746970" lon="-0.6999570">
        <ele>120.2</ele>
        <time>2019-12-20T09:21:41Z</time>
      </trkpt>
      <trkpt lat="38.2746790" lon="-0.6999330">
        <ele>120.8</ele>
        <time>2019-12-20T09:21:42Z</time>
      </trkpt>
      <trkpt lat="38.2746600" lon="-0.6999100">
        <ele>121.0</ele>
        <time>2019-12-20T09:21:43Z</time>
      </trkpt>
      <trkpt lat="38.2746390" lon="-0.6998880">
        <ele>121.2</ele>
        <time>2019-12-20T09:21:44Z</time>
      </trkpt>
      <trkpt lat="38.2746180" lon="-0.6998680">
        <ele>121.8</ele>
        <time>2019-12-20T09:21:45Z</time>
      </trkpt>
      <trkpt lat="38.2746000" lon="-0.6998480">
        <ele>122.2</ele>
        <time>2019-12-20T09:21:46Z</time>
      </trkpt>
      <trkpt lat="38.2745820" lon="-0.6998270">
        <ele>122.6</ele>
        <time>2019-12-20T09:21:47Z</time>
      </trkpt>
      <trkpt lat="38.2745650" lon="-0.6998050">
        <ele>123.0</ele>
        <time>2019-12-20T09:21:48Z</time>
      </trkpt>
      <trkpt lat="38.2745480" lon="-0.6997830">
        <ele>123.6</ele>
        <time>2019-12-20T09:21:49Z</time>
      </trkpt>
      <trkpt lat="38.2745310" lon="-0.6997640">
        <ele>124.0</ele>
        <time>2019-12-20T09:21:50Z</time>
      </trkpt>
      <trkpt lat="38.2745150" lon="-0.6997460">
        <ele>124.6</ele>
        <time>2019-12-20T09:21:51Z</time>
      </trkpt>
      <trkpt lat="38.2744970" lon="-0.6997290">
        <ele>124.8</ele>
        <time>2019-12-20T09:21:52Z</time>
      </trkpt>
      <trkpt lat="38.2744810" lon="-0.6997110">
        <ele>125.4</ele>
        <time>2019-12-20T09:21:53Z</time>
      </trkpt>
      <trkpt lat="38.2744660" lon="-0.6996910">
        <ele>125.8</ele>
        <time>2019-12-20T09:21:54Z</time>
      </trkpt>
      <trkpt lat="38.2744530" lon="-0.6996720">
        <ele>126.2</ele>
        <time>2019-12-20T09:21:55Z</time>
      </trkpt>
      <trkpt lat="38.2744410" lon="-0.6996550">
        <ele>126.6</ele>
        <time>2019-12-20T09:21:56Z</time>
      </trkpt>
      <trkpt lat="38.2744270" lon="-0.6996360">
        <ele>127.2</ele>
        <time>2019-12-20T09:21:57Z</time>
      </trkpt>
      <trkpt lat="38.2744140" lon="-0.6996150">
        <ele>127.6</ele>
        <time>2019-12-20T09:21:58Z</time>
      </trkpt>
      <trkpt lat="38.2743990" lon="-0.6995950">
        <ele>128.0</ele>
        <time>2019-12-20T09:21:59Z</time>
      </trkpt>
      <trkpt lat="38.2743840" lon="-0.6995760">
        <ele>128.2</ele>
        <time>2019-12-20T09:22:00Z</time>
      </trkpt>
      <trkpt lat="38.2743640" lon="-0.6995550">
        <ele>128.6</ele>
        <time>2019-12-20T09:22:01Z</time>
      </trkpt>
      <trkpt lat="38.2743420" lon="-0.6995330">
        <ele>129.0</ele>
        <time>2019-12-20T09:22:02Z</time>
      </trkpt>
      <trkpt lat="38.2743230" lon="-0.6995140">
        <ele>129.4</ele>
        <time>2019-12-20T09:22:03Z</time>
      </trkpt>
      <trkpt lat="38.2743060" lon="-0.6994970">
        <ele>130.0</ele>
        <time>2019-12-20T09:22:04Z</time>
      </trkpt>
      <trkpt lat="38.2742910" lon="-0.6994820">
        <ele>130.4</ele>
        <time>2019-12-20T09:22:05Z</time>
      </trkpt>
      <trkpt lat="38.2742750" lon="-0.6994670">
        <ele>130.8</ele>
        <time>2019-12-20T09:22:06Z</time>
      </trkpt>
      <trkpt lat="38.2742640" lon="-0.6994490">
        <ele>131.0</ele>
        <time>2019-12-20T09:22:07Z</time>
      </trkpt>
      <trkpt lat="38.2742520" lon="-0.6994300">
        <ele>131.6</ele>
        <time>2019-12-20T09:22:08Z</time>
      </trkpt>
      <trkpt lat="38.2742390" lon="-0.6994140">
        <ele>132.0</ele>
        <time>2019-12-20T09:22:09Z</time>
      </trkpt>
      <trkpt lat="38.2742260" lon="-0.6993990">
        <ele>132.2</ele>
        <time>2019-12-20T09:22:10Z</time>
      </trkpt>
      <trkpt lat="38.2742170" lon="-0.6993860">
        <ele>132.6</ele>
        <time>2019-12-20T09:22:11Z</time>
      </trkpt>
      <trkpt lat="38.2742140" lon="-0.6993820">
        <ele>132.8</ele>
        <time>2019-12-20T09:22:12Z</time>
      </trkpt>
      <trkpt lat="38.2742080" lon="-0.6993730">
        <ele>133.0</ele>
        <time>2019-12-20T09:22:13Z</time>
      </trkpt>
      <trkpt lat="38.2742100" lon="-0.6993630">
        <ele>133.2</ele>
        <time>2019-12-20T09:22:14Z</time>
      </trkpt>
      <trkpt lat="38.2742080" lon="-0.6993420">
        <ele>133.0</ele>
        <time>2019-12-20T09:22:15Z</time>
      </trkpt>
      <trkpt lat="38.2742060" lon="-0.6993230">
        <ele>133.2</ele>
        <time>2019-12-20T09:22:16Z</time>
      </trkpt>
      <trkpt lat="38.2742080" lon="-0.6993050">
        <ele>133.6</ele>
        <time>2019-12-20T09:22:17Z</time>
      </trkpt>
      <trkpt lat="38.2742140" lon="-0.6992870">
        <ele>133.6</ele>
        <time>2019-12-20T09:22:18Z</time>
      </trkpt>
      <trkpt lat="38.2742240" lon="-0.6992660">
        <ele>133.6</ele>
        <time>2019-12-20T09:22:19Z</time>
      </trkpt>
      <trkpt lat="38.2742350" lon="-0.6992480">
        <ele>133.6</ele>
        <time>2019-12-20T09:22:20Z</time>
      </trkpt>
      <trkpt lat="38.2742470" lon="-0.6992250">
        <ele>133.6</ele>
        <time>2019-12-20T09:22:21Z</time>
      </trkpt>
      <trkpt lat="38.2742640" lon="-0.6992170">
        <ele>133.6</ele>
        <time>2019-12-20T09:22:22Z</time>
      </trkpt>
      <trkpt lat="38.2742840" lon="-0.6992180">
        <ele>133.6</ele>
        <time>2019-12-20T09:22:23Z</time>
      </trkpt>
      <trkpt lat="38.2743050" lon="-0.6992190">
        <ele>133.6</ele>
        <time>2019-12-20T09:22:24Z</time>
      </trkpt>
      <trkpt lat="38.2743250" lon="-0.6992040">
        <ele>133.6</ele>
        <time>2019-12-20T09:22:25Z</time>
      </trkpt>
      <trkpt lat="38.2743440" lon="-0.6991890">
        <ele>133.6</ele>
        <time>2019-12-20T09:22:26Z</time>
      </trkpt>
      <trkpt lat="38.2743540" lon="-0.6991570">
        <ele>133.8</ele>
        <time>2019-12-20T09:22:27Z</time>
      </trkpt>
      <trkpt lat="38.2743610" lon="-0.6991240">
        <ele>133.6</ele>
        <time>2019-12-20T09:22:28Z</time>
      </trkpt>
      <trkpt lat="38.2743640" lon="-0.6990920">
        <ele>133.8</ele>
        <time>2019-12-20T09:22:29Z</time>
      </trkpt>
      <trkpt lat="38.2743660" lon="-0.6990550">
        <ele>133.8</ele>
        <time>2019-12-20T09:22:30Z</time>
      </trkpt>
      <trkpt lat="38.2743710" lon="-0.6990210">
        <ele>134.0</ele>
        <time>2019-12-20T09:22:31Z</time>
      </trkpt>
      <trkpt lat="38.2743740" lon="-0.6989830">
        <ele>134.0</ele>
        <time>2019-12-20T09:22:32Z</time>
      </trkpt>
      <trkpt lat="38.2743780" lon="-0.6989470">
        <ele>134.0</ele>
        <time>2019-12-20T09:22:33Z</time>
      </trkpt>
      <trkpt lat="38.2743710" lon="-0.6989110">
        <ele>134.0</ele>
        <time>2019-12-20T09:22:34Z</time>
      </trkpt>
      <trkpt lat="38.2743640" lon="-0.6988600">
        <ele>134.0</ele>
        <time>2019-12-20T09:22:35Z</time>
      </trkpt>
      <trkpt lat="38.2743460" lon="-0.6988170">
        <ele>133.8</ele>
        <time>2019-12-20T09:22:36Z</time>
      </trkpt>
      <trkpt lat="38.2743250" lon="-0.6987810">
        <ele>134.0</ele>
        <time>2019-12-20T09:22:37Z</time>
      </trkpt>
      <trkpt lat="38.2743040" lon="-0.6987520">
        <ele>134.0</ele>
        <time>2019-12-20T09:22:38Z</time>
      </trkpt>
      <trkpt lat="38.2742800" lon="-0.6987220">
        <ele>134.0</ele>
        <time>2019-12-20T09:22:39Z</time>
      </trkpt>
      <trkpt lat="38.2742610" lon="-0.6986850">
        <ele>134.2</ele>
        <time>2019-12-20T09:22:40Z</time>
      </trkpt>
      <trkpt lat="38.2742460" lon="-0.6986410">
        <ele>134.0</ele>
        <time>2019-12-20T09:22:41Z</time>
      </trkpt>
      <trkpt lat="38.2742380" lon="-0.6985970">
        <ele>134.0</ele>
        <time>2019-12-20T09:22:42Z</time>
      </trkpt>
      <trkpt lat="38.2742280" lon="-0.6985680">
        <ele>134.0</ele>
        <time>2019-12-20T09:22:43Z</time>
      </trkpt>
      <trkpt lat="38.2742050" lon="-0.6985450">
        <ele>134.2</ele>
        <time>2019-12-20T09:22:44Z</time>
      </trkpt>
      <trkpt lat="38.2741790" lon="-0.6985410">
        <ele>134.4</ele>
        <time>2019-12-20T09:22:45Z</time>
      </trkpt>
      <trkpt lat="38.2741540" lon="-0.6985340">
        <ele>134.4</ele>
        <time>2019-12-20T09:22:46Z</time>
      </trkpt>
      <trkpt lat="38.2741260" lon="-0.6985300">
        <ele>134.4</ele>
        <time>2019-12-20T09:22:47Z</time>
      </trkpt>
      <trkpt lat="38.2740920" lon="-0.6985250">
        <ele>134.2</ele>
        <time>2019-12-20T09:22:48Z</time>
      </trkpt>
      <trkpt lat="38.2740590" lon="-0.6985220">
        <ele>134.2</ele>
        <time>2019-12-20T09:22:49Z</time>
      </trkpt>
      <trkpt lat="38.2740250" lon="-0.6985190">
        <ele>134.2</ele>
        <time>2019-12-20T09:22:50Z</time>
      </trkpt>
      <trkpt lat="38.2739840" lon="-0.6985060">
        <ele>134.0</ele>
        <time>2019-12-20T09:22:51Z</time>
      </trkpt>
      <trkpt lat="38.2739470" lon="-0.6985060">
        <ele>133.8</ele>
        <time>2019-12-20T09:22:52Z</time>
      </trkpt>
      <trkpt lat="38.2739040" lon="-0.6985040">
        <ele>133.6</ele>
        <time>2019-12-20T09:22:53Z</time>
      </trkpt>
      <trkpt lat="38.2738630" lon="-0.6985080">
        <ele>133.6</ele>
        <time>2019-12-20T09:22:54Z</time>
      </trkpt>
      <trkpt lat="38.2738220" lon="-0.6985140">
        <ele>133.6</ele>
        <time>2019-12-20T09:22:55Z</time>
      </trkpt>
      <trkpt lat="38.2737740" lon="-0.6985210">
        <ele>133.6</ele>
        <time>2019-12-20T09:22:56Z</time>
      </trkpt>
      <trkpt lat="38.2737290" lon="-0.6985320">
        <ele>133.6</ele>
        <time>2019-12-20T09:22:57Z</time>
      </trkpt>
      <trkpt lat="38.2736810" lon="-0.6985440">
        <ele>133.6</ele>
        <time>2019-12-20T09:22:58Z</time>
      </trkpt>
      <trkpt lat="38.2736270" lon="-0.6985560">
        <ele>133.4</ele>
        <time>2019-12-20T09:22:59Z</time>
      </trkpt>
      <trkpt lat="38.2735770" lon="-0.6985640">
        <ele>133.6</ele>
        <time>2019-12-20T09:23:00Z</time>
      </trkpt>
      <trkpt lat="38.2735290" lon="-0.6985680">
        <ele>133.6</ele>
        <time>2019-12-20T09:23:01Z</time>
      </trkpt>
      <trkpt lat="38.2734760" lon="-0.6985620">
        <ele>133.4</ele>
        <time>2019-12-20T09:23:02Z</time>
      </trkpt>
      <trkpt lat="38.2734250" lon="-0.6985540">
        <ele>133.4</ele>
        <time>2019-12-20T09:23:03Z</time>
      </trkpt>
      <trkpt lat="38.2733730" lon="-0.6985400">
        <ele>133.2</ele>
        <time>2019-12-20T09:23:04Z</time>
      </trkpt>
      <trkpt lat="38.2733220" lon="-0.6985280">
        <ele>133.2</ele>
        <time>2019-12-20T09:23:05Z</time>
      </trkpt>
      <trkpt lat="38.2732660" lon="-0.6985110">
        <ele>133.2</ele>
        <time>2019-12-20T09:23:06Z</time>
      </trkpt>
      <trkpt lat="38.2732120" lon="-0.6984940">
        <ele>133.2</ele>
        <time>2019-12-20T09:23:07Z</time>
      </trkpt>
      <trkpt lat="38.2731560" lon="-0.6984760">
        <ele>133.2</ele>
        <time>2019-12-20T09:23:08Z</time>
      </trkpt>
      <trkpt lat="38.2731000" lon="-0.6984570">
        <ele>133.0</ele>
        <time>2019-12-20T09:23:09Z</time>
      </trkpt>
      <trkpt lat="38.2730530" lon="-0.6984310">
        <ele>133.0</ele>
        <time>2019-12-20T09:23:10Z</time>
      </trkpt>
      <trkpt lat="38.2730150" lon="-0.6983990">
        <ele>133.0</ele>
        <time>2019-12-20T09:23:11Z</time>
      </trkpt>
      <trkpt lat="38.2729830" lon="-0.6983550">
        <ele>133.0</ele>
        <time>2019-12-20T09:23:12Z</time>
      </trkpt>
      <trkpt lat="38.2729680" lon="-0.6983000">
        <ele>133.0</ele>
        <time>2019-12-20T09:23:13Z</time>
      </trkpt>
      <trkpt lat="38.2729640" lon="-0.6982470">
        <ele>133.0</ele>
        <time>2019-12-20T09:23:14Z</time>
      </trkpt>
      <trkpt lat="38.2729580" lon="-0.6981900">
        <ele>132.8</ele>
        <time>2019-12-20T09:23:15Z</time>
      </trkpt>
      <trkpt lat="38.2729440" lon="-0.6981360">
        <ele>132.8</ele>
        <time>2019-12-20T09:23:16Z</time>
      </trkpt>
      <trkpt lat="38.2729160" lon="-0.6980900">
        <ele>132.8</ele>
        <time>2019-12-20T09:23:17Z</time>
      </trkpt>
      <trkpt lat="38.2728760" lon="-0.6980570">
        <ele>132.8</ele>
        <time>2019-12-20T09:23:18Z</time>
      </trkpt>
      <trkpt lat="38.2728330" lon="-0.6980350">
        <ele>132.6</ele>
        <time>2019-12-20T09:23:19Z</time>
      </trkpt>
      <trkpt lat="38.2727870" lon="-0.6980200">
        <ele>132.6</ele>
        <time>2019-12-20T09:23:20Z</time>
      </trkpt>
      <trkpt lat="38.2727410" lon="-0.6980090">
        <ele>132.6</ele>
        <time>2019-12-20T09:23:21Z</time>
      </trkpt>
      <trkpt lat="38.2726890" lon="-0.6979820">
        <ele>132.6</ele>
        <time>2019-12-20T09:23:22Z</time>
      </trkpt>
      <trkpt lat="38.2726400" lon="-0.6979670">
        <ele>132.6</ele>
        <time>2019-12-20T09:23:23Z</time>
      </trkpt>
      <trkpt lat="38.2725890" lon="-0.6979470">
        <ele>132.4</ele>
        <time>2019-12-20T09:23:24Z</time>
      </trkpt>
      <trkpt lat="38.2725440" lon="-0.6979250">
        <ele>132.4</ele>
        <time>2019-12-20T09:23:25Z</time>
      </trkpt>
      <trkpt lat="38.2725180" lon="-0.6978870">
        <ele>132.4</ele>
        <time>2019-12-20T09:23:26Z</time>
      </trkpt>
      <trkpt lat="38.2725030" lon="-0.6978400">
        <ele>132.6</ele>
        <time>2019-12-20T09:23:27Z</time>
      </trkpt>
      <trkpt lat="38.2724830" lon="-0.6977850">
        <ele>132.6</ele>
        <time>2019-12-20T09:23:28Z</time>
      </trkpt>
      <trkpt lat="38.2724560" lon="-0.6977340">
        <ele>132.4</ele>
        <time>2019-12-20T09:23:29Z</time>
      </trkpt>
      <trkpt lat="38.2724200" lon="-0.6977010">
        <ele>132.4</ele>
        <time>2019-12-20T09:23:30Z</time>
      </trkpt>
      <trkpt lat="38.2723760" lon="-0.6976790">
        <ele>132.4</ele>
        <time>2019-12-20T09:23:31Z</time>
      </trkpt>
      <trkpt lat="38.2723330" lon="-0.6976600">
        <ele>132.4</ele>
        <time>2019-12-20T09:23:32Z</time>
      </trkpt>
      <trkpt lat="38.2722890" lon="-0.6976410">
        <ele>132.4</ele>
        <time>2019-12-20T09:23:33Z</time>
      </trkpt>
      <trkpt lat="38.2722430" lon="-0.6976220">
        <ele>132.6</ele>
        <time>2019-12-20T09:23:34Z</time>
      </trkpt>
      <trkpt lat="38.2721960" lon="-0.6976070">
        <ele>132.6</ele>
        <time>2019-12-20T09:23:35Z</time>
      </trkpt>
      <trkpt lat="38.2721510" lon="-0.6975960">
        <ele>132.6</ele>
        <time>2019-12-20T09:23:36Z</time>
      </trkpt>
      <trkpt lat="38.2721060" lon="-0.6975820">
        <ele>132.4</ele>
        <time>2019-12-20T09:23:37Z</time>
      </trkpt>
      <trkpt lat="38.2720640" lon="-0.6975700">
        <ele>132.4</ele>
        <time>2019-12-20T09:23:38Z</time>
      </trkpt>
      <trkpt lat="38.2720190" lon="-0.6975480">
        <ele>132.6</ele>
        <time>2019-12-20T09:23:39Z</time>
      </trkpt>
      <trkpt lat="38.2719790" lon="-0.6975310">
        <ele>132.6</ele>
        <time>2019-12-20T09:23:40Z</time>
      </trkpt>
      <trkpt lat="38.2719420" lon="-0.6975210">
        <ele>132.6</ele>
        <time>2019-12-20T09:23:41Z</time>
      </trkpt>
      <trkpt lat="38.2719030" lon="-0.6975120">
        <ele>132.6</ele>
        <time>2019-12-20T09:23:42Z</time>
      </trkpt>
      <trkpt lat="38.2718730" lon="-0.6975060">
        <ele>132.6</ele>
        <time>2019-12-20T09:23:43Z</time>
      </trkpt>
      <trkpt lat="38.2718530" lon="-0.6974980">
        <ele>132.6</ele>
        <time>2019-12-20T09:23:44Z</time>
      </trkpt>
      <trkpt lat="38.2718380" lon="-0.6974910">
        <ele>133.0</ele>
        <time>2019-12-20T09:23:45Z</time>
      </trkpt>
      <trkpt lat="38.2718300" lon="-0.6974930">
        <ele>132.8</ele>
        <time>2019-12-20T09:23:46Z</time>
      </trkpt>
      <trkpt lat="38.2718200" lon="-0.6975010">
        <ele>132.8</ele>
        <time>2019-12-20T09:23:47Z</time>
      </trkpt>
      <trkpt lat="38.2718120" lon="-0.6975250">
        <ele>132.8</ele>
        <time>2019-12-20T09:23:48Z</time>
      </trkpt>
      <trkpt lat="38.2718040" lon="-0.6975560">
        <ele>132.8</ele>
        <time>2019-12-20T09:23:49Z</time>
      </trkpt>
      <trkpt lat="38.2717890" lon="-0.6975900">
        <ele>132.8</ele>
        <time>2019-12-20T09:23:50Z</time>
      </trkpt>
      <trkpt lat="38.2717790" lon="-0.6976320">
        <ele>132.8</ele>
        <time>2019-12-20T09:23:51Z</time>
      </trkpt>
      <trkpt lat="38.2717660" lon="-0.6976780">
        <ele>132.8</ele>
        <time>2019-12-20T09:23:52Z</time>
      </trkpt>
      <trkpt lat="38.2717560" lon="-0.6977290">
        <ele>132.6</ele>
        <time>2019-12-20T09:23:53Z</time>
      </trkpt>
      <trkpt lat="38.2717420" lon="-0.6977870">
        <ele>132.6</ele>
        <time>2019-12-20T09:23:54Z</time>
      </trkpt>
      <trkpt lat="38.2717270" lon="-0.6978490">
        <ele>132.4</ele>
        <time>2019-12-20T09:23:55Z</time>
      </trkpt>
      <trkpt lat="38.2717140" lon="-0.6979110">
        <ele>132.6</ele>
        <time>2019-12-20T09:23:56Z</time>
      </trkpt>
      <trkpt lat="38.2717000" lon="-0.6979760">
        <ele>132.4</ele>
        <time>2019-12-20T09:23:57Z</time>
      </trkpt>
      <trkpt lat="38.2716800" lon="-0.6980410">
        <ele>132.4</ele>
        <time>2019-12-20T09:23:58Z</time>
      </trkpt>
      <trkpt lat="38.2716640" lon="-0.6981070">
        <ele>132.6</ele>
        <time>2019-12-20T09:23:59Z</time>
      </trkpt>
      <trkpt lat="38.2716540" lon="-0.6981760">
        <ele>132.6</ele>
        <time>2019-12-20T09:24:00Z</time>
      </trkpt>
      <trkpt lat="38.2716440" lon="-0.6982490">
        <ele>132.4</ele>
        <time>2019-12-20T09:24:01Z</time>
      </trkpt>
      <trkpt lat="38.2716350" lon="-0.6983210">
        <ele>132.4</ele>
        <time>2019-12-20T09:24:02Z</time>
      </trkpt>
      <trkpt lat="38.2716240" lon="-0.6983950">
        <ele>132.4</ele>
        <time>2019-12-20T09:24:03Z</time>
      </trkpt>
      <trkpt lat="38.2716100" lon="-0.6984700">
        <ele>132.6</ele>
        <time>2019-12-20T09:24:04Z</time>
      </trkpt>
      <trkpt lat="38.2716000" lon="-0.6985450">
        <ele>132.4</ele>
        <time>2019-12-20T09:24:05Z</time>
      </trkpt>
      <trkpt lat="38.2715870" lon="-0.6986200">
        <ele>132.6</ele>
        <time>2019-12-20T09:24:06Z</time>
      </trkpt>
      <trkpt lat="38.2715740" lon="-0.6986980">
        <ele>132.6</ele>
        <time>2019-12-20T09:24:07Z</time>
      </trkpt>
      <trkpt lat="38.2715610" lon="-0.6987740">
        <ele>132.6</ele>
        <time>2019-12-20T09:24:08Z</time>
      </trkpt>
      <trkpt lat="38.2715480" lon="-0.6988520">
        <ele>132.6</ele>
        <time>2019-12-20T09:24:09Z</time>
      </trkpt>
      <trkpt lat="38.2715340" lon="-0.6989320">
        <ele>132.2</ele>
        <time>2019-12-20T09:24:10Z</time>
      </trkpt>
      <trkpt lat="38.2715190" lon="-0.6990140">
        <ele>132.0</ele>
        <time>2019-12-20T09:24:11Z</time>
      </trkpt>
      <trkpt lat="38.2715040" lon="-0.6990930">
        <ele>132.2</ele>
        <time>2019-12-20T09:24:12Z</time>
      </trkpt>
      <trkpt lat="38.2714900" lon="-0.6991710">
        <ele>132.4</ele>
        <time>2019-12-20T09:24:13Z</time>
      </trkpt>
      <trkpt lat="38.2714740" lon="-0.6992480">
        <ele>132.4</ele>
        <time>2019-12-20T09:24:14Z</time>
      </trkpt>
      <trkpt lat="38.2714600" lon="-0.6993270">
        <ele>132.4</ele>
        <time>2019-12-20T09:24:15Z</time>
      </trkpt>
      <trkpt lat="38.2714470" lon="-0.6994060">
        <ele>132.2</ele>
        <time>2019-12-20T09:24:16Z</time>
      </trkpt>
      <trkpt lat="38.2714340" lon="-0.6994840">
        <ele>132.2</ele>
        <time>2019-12-20T09:24:17Z</time>
      </trkpt>
      <trkpt lat="38.2714210" lon="-0.6995620">
        <ele>132.2</ele>
        <time>2019-12-20T09:24:18Z</time>
      </trkpt>
      <trkpt lat="38.2714070" lon="-0.6996390">
        <ele>132.2</ele>
        <time>2019-12-20T09:24:19Z</time>
      </trkpt>
      <trkpt lat="38.2713940" lon="-0.6997170">
        <ele>132.4</ele>
        <time>2019-12-20T09:24:20Z</time>
      </trkpt>
      <trkpt lat="38.2713800" lon="-0.6997940">
        <ele>132.4</ele>
        <time>2019-12-20T09:24:21Z</time>
      </trkpt>
      <trkpt lat="38.2713660" lon="-0.6998720">
        <ele>132.4</ele>
        <time>2019-12-20T09:24:22Z</time>
      </trkpt>
      <trkpt lat="38.2713530" lon="-0.6999490">
        <ele>132.2</ele>
        <time>2019-12-20T09:24:23Z</time>
      </trkpt>
      <trkpt lat="38.2713390" lon="-0.7000270">
        <ele>132.2</ele>
        <time>2019-12-20T09:24:24Z</time>
      </trkpt>
      <trkpt lat="38.2713270" lon="-0.7001050">
        <ele>132.2</ele>
        <time>2019-12-20T09:24:25Z</time>
      </trkpt>
      <trkpt lat="38.2713170" lon="-0.7001850">
        <ele>132.2</ele>
        <time>2019-12-20T09:24:26Z</time>
      </trkpt>
      <trkpt lat="38.2713080" lon="-0.7002660">
        <ele>132.0</ele>
        <time>2019-12-20T09:24:27Z</time>
      </trkpt>
      <trkpt lat="38.2713010" lon="-0.7003450">
        <ele>132.0</ele>
        <time>2019-12-20T09:24:28Z</time>
      </trkpt>
      <trkpt lat="38.2712930" lon="-0.7004260">
        <ele>131.8</ele>
        <time>2019-12-20T09:24:29Z</time>
      </trkpt>
      <trkpt lat="38.2712840" lon="-0.7005070">
        <ele>131.8</ele>
        <time>2019-12-20T09:24:30Z</time>
      </trkpt>
      <trkpt lat="38.2712730" lon="-0.7005870">
        <ele>131.6</ele>
        <time>2019-12-20T09:24:31Z</time>
      </trkpt>
      <trkpt lat="38.2712630" lon="-0.7006670">
        <ele>131.6</ele>
        <time>2019-12-20T09:24:32Z</time>
      </trkpt>
      <trkpt lat="38.2712530" lon="-0.7007460">
        <ele>131.6</ele>
        <time>2019-12-20T09:24:33Z</time>
      </trkpt>
      <trkpt lat="38.2712390" lon="-0.7008230">
        <ele>131.4</ele>
        <time>2019-12-20T09:24:34Z</time>
      </trkpt>
      <trkpt lat="38.2712240" lon="-0.7008970">
        <ele>131.6</ele>
        <time>2019-12-20T09:24:35Z</time>
      </trkpt>
      <trkpt lat="38.2712090" lon="-0.7009680">
        <ele>131.4</ele>
        <time>2019-12-20T09:24:36Z</time>
      </trkpt>
      <trkpt lat="38.2712020" lon="-0.7010420">
        <ele>131.2</ele>
        <time>2019-12-20T09:24:37Z</time>
      </trkpt>
      <trkpt lat="38.2712070" lon="-0.7011190">
        <ele>131.2</ele>
        <time>2019-12-20T09:24:38Z</time>
      </trkpt>
      <trkpt lat="38.2712190" lon="-0.7011960">
        <ele>131.0</ele>
        <time>2019-12-20T09:24:39Z</time>
      </trkpt>
      <trkpt lat="38.2712210" lon="-0.7012720">
        <ele>131.2</ele>
        <time>2019-12-20T09:24:40Z</time>
      </trkpt>
      <trkpt lat="38.2712120" lon="-0.7013480">
        <ele>131.0</ele>
        <time>2019-12-20T09:24:41Z</time>
      </trkpt>
      <trkpt lat="38.2711990" lon="-0.7014230">
        <ele>131.0</ele>
        <time>2019-12-20T09:24:42Z</time>
      </trkpt>
      <trkpt lat="38.2711740" lon="-0.7014880">
        <ele>131.0</ele>
        <time>2019-12-20T09:24:43Z</time>
      </trkpt>
      <trkpt lat="38.2711510" lon="-0.7015400">
        <ele>131.0</ele>
        <time>2019-12-20T09:24:44Z</time>
      </trkpt>
      <trkpt lat="38.2711150" lon="-0.7015880">
        <ele>131.0</ele>
        <time>2019-12-20T09:24:45Z</time>
      </trkpt>
      <trkpt lat="38.2710720" lon="-0.7016110">
        <ele>131.0</ele>
        <time>2019-12-20T09:24:46Z</time>
      </trkpt>
      <trkpt lat="38.2710260" lon="-0.7016160">
        <ele>130.8</ele>
        <time>2019-12-20T09:24:47Z</time>
      </trkpt>
      <trkpt lat="38.2709960" lon="-0.7015910">
        <ele>131.0</ele>
        <time>2019-12-20T09:24:48Z</time>
      </trkpt>
      <trkpt lat="38.2709660" lon="-0.7015660">
        <ele>131.0</ele>
        <time>2019-12-20T09:24:49Z</time>
      </trkpt>
      <trkpt lat="38.2709050" lon="-0.7015160">
        <ele>130.8</ele>
        <time>2019-12-20T09:24:50Z</time>
      </trkpt>
      <trkpt lat="38.2708980" lon="-0.7014710">
        <ele>130.8</ele>
        <time>2019-12-20T09:24:51Z</time>
      </trkpt>
      <trkpt lat="38.2708980" lon="-0.7014040">
        <ele>130.6</ele>
        <time>2019-12-20T09:24:52Z</time>
      </trkpt>
      <trkpt lat="38.2709090" lon="-0.7013380">
        <ele>130.8</ele>
        <time>2019-12-20T09:24:53Z</time>
      </trkpt>
      <trkpt lat="38.2709210" lon="-0.7012690">
        <ele>130.8</ele>
        <time>2019-12-20T09:24:54Z</time>
      </trkpt>
      <trkpt lat="38.2709340" lon="-0.7012010">
        <ele>130.8</ele>
        <time>2019-12-20T09:24:55Z</time>
      </trkpt>
      <trkpt lat="38.2709570" lon="-0.7011360">
        <ele>130.8</ele>
        <time>2019-12-20T09:24:56Z</time>
      </trkpt>
      <trkpt lat="38.2709860" lon="-0.7010750">
        <ele>131.0</ele>
        <time>2019-12-20T09:24:57Z</time>
      </trkpt>
      <trkpt lat="38.2710110" lon="-0.7010100">
        <ele>131.0</ele>
        <time>2019-12-20T09:24:58Z</time>
      </trkpt>
      <trkpt lat="38.2710290" lon="-0.7009430">
        <ele>131.0</ele>
        <time>2019-12-20T09:24:59Z</time>
      </trkpt>
      <trkpt lat="38.2710360" lon="-0.7008680">
        <ele>131.2</ele>
        <time>2019-12-20T09:25:00Z</time>
      </trkpt>
      <trkpt lat="38.2710400" lon="-0.7007940">
        <ele>131.4</ele>
        <time>2019-12-20T09:25:01Z</time>
      </trkpt>
      <trkpt lat="38.2710490" lon="-0.7007200">
        <ele>131.2</ele>
        <time>2019-12-20T09:25:02Z</time>
      </trkpt>
      <trkpt lat="38.2710630" lon="-0.7006500">
        <ele>131.4</ele>
        <time>2019-12-20T09:25:03Z</time>
      </trkpt>
      <trkpt lat="38.2710770" lon="-0.7005800">
        <ele>131.6</ele>
        <time>2019-12-20T09:25:04Z</time>
      </trkpt>
      <trkpt lat="38.2710920" lon="-0.7005110">
        <ele>131.6</ele>
        <time>2019-12-20T09:25:05Z</time>
      </trkpt>
      <trkpt lat="38.2711080" lon="-0.7004410">
        <ele>132.0</ele>
        <time>2019-12-20T09:25:06Z</time>
      </trkpt>
      <trkpt lat="38.2711280" lon="-0.7003720">
        <ele>132.0</ele>
        <time>2019-12-20T09:25:07Z</time>
      </trkpt>
      <trkpt lat="38.2711440" lon="-0.7003020">
        <ele>132.0</ele>
        <time>2019-12-20T09:25:08Z</time>
      </trkpt>
      <trkpt lat="38.2711590" lon="-0.7002320">
        <ele>132.2</ele>
        <time>2019-12-20T09:25:09Z</time>
      </trkpt>
      <trkpt lat="38.2711700" lon="-0.7001650">
        <ele>132.6</ele>
        <time>2019-12-20T09:25:10Z</time>
      </trkpt>
      <trkpt lat="38.2711840" lon="-0.7000960">
        <ele>132.6</ele>
        <time>2019-12-20T09:25:11Z</time>
      </trkpt>
      <trkpt lat="38.2712000" lon="-0.7000280">
        <ele>132.8</ele>
        <time>2019-12-20T09:25:12Z</time>
      </trkpt>
      <trkpt lat="38.2712150" lon="-0.6999560">
        <ele>132.8</ele>
        <time>2019-12-20T09:25:13Z</time>
      </trkpt>
      <trkpt lat="38.2712270" lon="-0.6998840">
        <ele>132.8</ele>
        <time>2019-12-20T09:25:14Z</time>
      </trkpt>
      <trkpt lat="38.2712390" lon="-0.6998110">
        <ele>132.8</ele>
        <time>2019-12-20T09:25:15Z</time>
      </trkpt>
      <trkpt lat="38.2712500" lon="-0.6997400">
        <ele>132.8</ele>
        <time>2019-12-20T09:25:16Z</time>
      </trkpt>
      <trkpt lat="38.2712610" lon="-0.6996660">
        <ele>132.8</ele>
        <time>2019-12-20T09:25:17Z</time>
      </trkpt>
      <trkpt lat="38.2712730" lon="-0.6995920">
        <ele>132.8</ele>
        <time>2019-12-20T09:25:18Z</time>
      </trkpt>
      <trkpt lat="38.2712870" lon="-0.6995190">
        <ele>133.0</ele>
        <time>2019-12-20T09:25:19Z</time>
      </trkpt>
      <trkpt lat="38.2713000" lon="-0.6994440">
        <ele>133.0</ele>
        <time>2019-12-20T09:25:20Z</time>
      </trkpt>
      <trkpt lat="38.2713160" lon="-0.6993700">
        <ele>133.0</ele>
        <time>2019-12-20T09:25:21Z</time>
      </trkpt>
      <trkpt lat="38.2713290" lon="-0.6992950">
        <ele>133.0</ele>
        <time>2019-12-20T09:25:22Z</time>
      </trkpt>
      <trkpt lat="38.2713430" lon="-0.6992180">
        <ele>132.8</ele>
        <time>2019-12-20T09:25:23Z</time>
      </trkpt>
      <trkpt lat="38.2713560" lon="-0.6991420">
        <ele>132.6</ele>
        <time>2019-12-20T09:25:24Z</time>
      </trkpt>
      <trkpt lat="38.2713690" lon="-0.6990670">
        <ele>132.8</ele>
        <time>2019-12-20T09:25:25Z</time>
      </trkpt>
      <trkpt lat="38.2713830" lon="-0.6989910">
        <ele>132.8</ele>
        <time>2019-12-20T09:25:26Z</time>
      </trkpt>
      <trkpt lat="38.2713980" lon="-0.6989120">
        <ele>132.8</ele>
        <time>2019-12-20T09:25:27Z</time>
      </trkpt>
      <trkpt lat="38.2714120" lon="-0.6988340">
        <ele>133.0</ele>
        <time>2019-12-20T09:25:28Z</time>
      </trkpt>
      <trkpt lat="38.2714230" lon="-0.6987560">
        <ele>132.8</ele>
        <time>2019-12-20T09:25:29Z</time>
      </trkpt>
      <trkpt lat="38.2714330" lon="-0.6986800">
        <ele>132.8</ele>
        <time>2019-12-20T09:25:30Z</time>
      </trkpt>
      <trkpt lat="38.2714440" lon="-0.6986020">
        <ele>132.8</ele>
        <time>2019-12-20T09:25:31Z</time>
      </trkpt>
      <trkpt lat="38.2714540" lon="-0.6985240">
        <ele>132.8</ele>
        <time>2019-12-20T09:25:32Z</time>
      </trkpt>
      <trkpt lat="38.2714670" lon="-0.6984460">
        <ele>132.8</ele>
        <time>2019-12-20T09:25:33Z</time>
      </trkpt>
      <trkpt lat="38.2714780" lon="-0.6983680">
        <ele>133.0</ele>
        <time>2019-12-20T09:25:34Z</time>
      </trkpt>
      <trkpt lat="38.2714870" lon="-0.6982890">
        <ele>133.0</ele>
        <time>2019-12-20T09:25:35Z</time>
      </trkpt>
      <trkpt lat="38.2714970" lon="-0.6982120">
        <ele>133.0</ele>
        <time>2019-12-20T09:25:36Z</time>
      </trkpt>
      <trkpt lat="38.2715100" lon="-0.6981390">
        <ele>132.8</ele>
        <time>2019-12-20T09:25:37Z</time>
      </trkpt>
      <trkpt lat="38.2715230" lon="-0.6980640">
        <ele>133.0</ele>
        <time>2019-12-20T09:25:38Z</time>
      </trkpt>
      <trkpt lat="38.2715340" lon="-0.6979870">
        <ele>133.0</ele>
        <time>2019-12-20T09:25:39Z</time>
      </trkpt>
      <trkpt lat="38.2715480" lon="-0.6979120">
        <ele>132.8</ele>
        <time>2019-12-20T09:25:40Z</time>
      </trkpt>
      <trkpt lat="38.2715600" lon="-0.6978360">
        <ele>133.0</ele>
        <time>2019-12-20T09:25:41Z</time>
      </trkpt>
      <trkpt lat="38.2715700" lon="-0.6977590">
        <ele>133.0</ele>
        <time>2019-12-20T09:25:42Z</time>
      </trkpt>
      <trkpt lat="38.2715810" lon="-0.6976840">
        <ele>133.2</ele>
        <time>2019-12-20T09:25:43Z</time>
      </trkpt>
      <trkpt lat="38.2715940" lon="-0.6976070">
        <ele>133.2</ele>
        <time>2019-12-20T09:25:44Z</time>
      </trkpt>
      <trkpt lat="38.2716080" lon="-0.6975330">
        <ele>133.2</ele>
        <time>2019-12-20T09:25:45Z</time>
      </trkpt>
      <trkpt lat="38.2716220" lon="-0.6974550">
        <ele>133.2</ele>
        <time>2019-12-20T09:25:46Z</time>
      </trkpt>
      <trkpt lat="38.2716360" lon="-0.6973820">
        <ele>133.2</ele>
        <time>2019-12-20T09:25:47Z</time>
      </trkpt>
      <trkpt lat="38.2716470" lon="-0.6973070">
        <ele>133.2</ele>
        <time>2019-12-20T09:25:48Z</time>
      </trkpt>
      <trkpt lat="38.2716560" lon="-0.6972330">
        <ele>133.4</ele>
        <time>2019-12-20T09:25:49Z</time>
      </trkpt>
      <trkpt lat="38.2716700" lon="-0.6971540">
        <ele>133.4</ele>
        <time>2019-12-20T09:25:50Z</time>
      </trkpt>
      <trkpt lat="38.2716830" lon="-0.6970790">
        <ele>133.4</ele>
        <time>2019-12-20T09:25:51Z</time>
      </trkpt>
      <trkpt lat="38.2716930" lon="-0.6970000">
        <ele>133.4</ele>
        <time>2019-12-20T09:25:52Z</time>
      </trkpt>
      <trkpt lat="38.2717050" lon="-0.6969220">
        <ele>133.4</ele>
        <time>2019-12-20T09:25:53Z</time>
      </trkpt>
      <trkpt lat="38.2717170" lon="-0.6968420">
        <ele>133.6</ele>
        <time>2019-12-20T09:25:54Z</time>
      </trkpt>
      <trkpt lat="38.2717310" lon="-0.6967670">
        <ele>133.6</ele>
        <time>2019-12-20T09:25:55Z</time>
      </trkpt>
      <trkpt lat="38.2717460" lon="-0.6966900">
        <ele>133.6</ele>
        <time>2019-12-20T09:25:56Z</time>
      </trkpt>
      <trkpt lat="38.2717580" lon="-0.6966050">
        <ele>133.6</ele>
        <time>2019-12-20T09:25:57Z</time>
      </trkpt>
      <trkpt lat="38.2717720" lon="-0.6965270">
        <ele>133.6</ele>
        <time>2019-12-20T09:25:58Z</time>
      </trkpt>
      <trkpt lat="38.2717860" lon="-0.6964500">
        <ele>133.8</ele>
        <time>2019-12-20T09:25:59Z</time>
      </trkpt>
      <trkpt lat="38.2717970" lon="-0.6963720">
        <ele>133.8</ele>
        <time>2019-12-20T09:26:00Z</time>
      </trkpt>
      <trkpt lat="38.2718070" lon="-0.6962940">
        <ele>133.8</ele>
        <time>2019-12-20T09:26:01Z</time>
      </trkpt>
      <trkpt lat="38.2718200" lon="-0.6962160">
        <ele>133.8</ele>
        <time>2019-12-20T09:26:02Z</time>
      </trkpt>
      <trkpt lat="38.2718350" lon="-0.6961370">
        <ele>133.8</ele>
        <time>2019-12-20T09:26:03Z</time>
      </trkpt>
      <trkpt lat="38.2718470" lon="-0.6960550">
        <ele>133.8</ele>
        <time>2019-12-20T09:26:04Z</time>
      </trkpt>
      <trkpt lat="38.2718620" lon="-0.6959740">
        <ele>133.8</ele>
        <time>2019-12-20T09:26:05Z</time>
      </trkpt>
      <trkpt lat="38.2718810" lon="-0.6958940">
        <ele>133.8</ele>
        <time>2019-12-20T09:26:06Z</time>
      </trkpt>
      <trkpt lat="38.2719000" lon="-0.6958150">
        <ele>133.8</ele>
        <time>2019-12-20T09:26:07Z</time>
      </trkpt>
      <trkpt lat="38.2719170" lon="-0.6957360">
        <ele>133.8</ele>
        <time>2019-12-20T09:26:08Z</time>
      </trkpt>
      <trkpt lat="38.2719280" lon="-0.6956570">
        <ele>133.8</ele>
        <time>2019-12-20T09:26:09Z</time>
      </trkpt>
      <trkpt lat="38.2719410" lon="-0.6955690">
        <ele>133.8</ele>
        <time>2019-12-20T09:26:10Z</time>
      </trkpt>
      <trkpt lat="38.2719600" lon="-0.6954890">
        <ele>134.0</ele>
        <time>2019-12-20T09:26:11Z</time>
      </trkpt>
      <trkpt lat="38.2719850" lon="-0.6954150">
        <ele>133.8</ele>
        <time>2019-12-20T09:26:12Z</time>
      </trkpt>
      <trkpt lat="38.2719940" lon="-0.6953560">
        <ele>133.8</ele>
        <time>2019-12-20T09:26:13Z</time>
      </trkpt>
      <trkpt lat="38.2720020" lon="-0.6952960">
        <ele>134.0</ele>
        <time>2019-12-20T09:26:14Z</time>
      </trkpt>
      <trkpt lat="38.2720190" lon="-0.6951770">
        <ele>133.8</ele>
        <time>2019-12-20T09:26:15Z</time>
      </trkpt>
      <trkpt lat="38.2720320" lon="-0.6951000">
        <ele>134.0</ele>
        <time>2019-12-20T09:26:16Z</time>
      </trkpt>
      <trkpt lat="38.2720390" lon="-0.6950260">
        <ele>134.0</ele>
        <time>2019-12-20T09:26:17Z</time>
      </trkpt>
      <trkpt lat="38.2720400" lon="-0.6949640">
        <ele>134.2</ele>
        <time>2019-12-20T09:26:18Z</time>
      </trkpt>
      <trkpt lat="38.2720380" lon="-0.6949240">
        <ele>134.2</ele>
        <time>2019-12-20T09:26:19Z</time>
      </trkpt>
      <trkpt lat="38.2720370" lon="-0.6948970">
        <ele>134.2</ele>
        <time>2019-12-20T09:26:20Z</time>
      </trkpt>
      <trkpt lat="38.2720390" lon="-0.6948760">
        <ele>134.2</ele>
        <time>2019-12-20T09:26:21Z</time>
      </trkpt>
      <trkpt lat="38.2720390" lon="-0.6948560">
        <ele>134.4</ele>
        <time>2019-12-20T09:26:22Z</time>
      </trkpt>
      <trkpt lat="38.2720360" lon="-0.6948260">
        <ele>134.2</ele>
        <time>2019-12-20T09:26:23Z</time>
      </trkpt>
      <trkpt lat="38.2720260" lon="-0.6947920">
        <ele>134.2</ele>
        <time>2019-12-20T09:26:24Z</time>
      </trkpt>
      <trkpt lat="38.2720180" lon="-0.6947490">
        <ele>134.2</ele>
        <time>2019-12-20T09:26:25Z</time>
      </trkpt>
      <trkpt lat="38.2720140" lon="-0.6946950">
        <ele>134.0</ele>
        <time>2019-12-20T09:26:26Z</time>
      </trkpt>
      <trkpt lat="38.2720160" lon="-0.6946370">
        <ele>133.8</ele>
        <time>2019-12-20T09:26:27Z</time>
      </trkpt>
      <trkpt lat="38.2720300" lon="-0.6945780">
        <ele>133.6</ele>
        <time>2019-12-20T09:26:28Z</time>
      </trkpt>
      <trkpt lat="38.2720550" lon="-0.6945140">
        <ele>133.6</ele>
        <time>2019-12-20T09:26:29Z</time>
      </trkpt>
      <trkpt lat="38.2720830" lon="-0.6944570">
        <ele>133.6</ele>
        <time>2019-12-20T09:26:30Z</time>
      </trkpt>
      <trkpt lat="38.2721130" lon="-0.6943960">
        <ele>133.6</ele>
        <time>2019-12-20T09:26:31Z</time>
      </trkpt>
      <trkpt lat="38.2721440" lon="-0.6943350">
        <ele>133.6</ele>
        <time>2019-12-20T09:26:32Z</time>
      </trkpt>
      <trkpt lat="38.2721690" lon="-0.6942710">
        <ele>133.6</ele>
        <time>2019-12-20T09:26:33Z</time>
      </trkpt>
      <trkpt lat="38.2721880" lon="-0.6942020">
        <ele>133.6</ele>
        <time>2019-12-20T09:26:34Z</time>
      </trkpt>
      <trkpt lat="38.2722020" lon="-0.6941310">
        <ele>133.8</ele>
        <time>2019-12-20T09:26:35Z</time>
      </trkpt>
      <trkpt lat="38.2722130" lon="-0.6940550">
        <ele>133.8</ele>
        <time>2019-12-20T09:26:36Z</time>
      </trkpt>
      <trkpt lat="38.2722250" lon="-0.6939770">
        <ele>133.8</ele>
        <time>2019-12-20T09:26:37Z</time>
      </trkpt>
      <trkpt lat="38.2722390" lon="-0.6939010">
        <ele>133.8</ele>
        <time>2019-12-20T09:26:38Z</time>
      </trkpt>
      <trkpt lat="38.2722530" lon="-0.6938240">
        <ele>133.8</ele>
        <time>2019-12-20T09:26:39Z</time>
      </trkpt>
      <trkpt lat="38.2722650" lon="-0.6937440">
        <ele>133.8</ele>
        <time>2019-12-20T09:26:40Z</time>
      </trkpt>
      <trkpt lat="38.2722790" lon="-0.6936630">
        <ele>133.6</ele>
        <time>2019-12-20T09:26:41Z</time>
      </trkpt>
      <trkpt lat="38.2722910" lon="-0.6935810">
        <ele>133.8</ele>
        <time>2019-12-20T09:26:42Z</time>
      </trkpt>
      <trkpt lat="38.2723050" lon="-0.6934970">
        <ele>134.0</ele>
        <time>2019-12-20T09:26:43Z</time>
      </trkpt>
      <trkpt lat="38.2723200" lon="-0.6934150">
        <ele>133.8</ele>
        <time>2019-12-20T09:26:44Z</time>
      </trkpt>
      <trkpt lat="38.2723350" lon="-0.6933330">
        <ele>133.8</ele>
        <time>2019-12-20T09:26:45Z</time>
      </trkpt>
      <trkpt lat="38.2723480" lon="-0.6932510">
        <ele>133.8</ele>
        <time>2019-12-20T09:26:46Z</time>
      </trkpt>
      <trkpt lat="38.2723600" lon="-0.6931740">
        <ele>133.8</ele>
        <time>2019-12-20T09:26:47Z</time>
      </trkpt>
      <trkpt lat="38.2723730" lon="-0.6930920">
        <ele>133.8</ele>
        <time>2019-12-20T09:26:48Z</time>
      </trkpt>
      <trkpt lat="38.2723840" lon="-0.6930150">
        <ele>133.8</ele>
        <time>2019-12-20T09:26:49Z</time>
      </trkpt>
      <trkpt lat="38.2723950" lon="-0.6929390">
        <ele>133.8</ele>
        <time>2019-12-20T09:26:50Z</time>
      </trkpt>
      <trkpt lat="38.2724060" lon="-0.6928560">
        <ele>133.8</ele>
        <time>2019-12-20T09:26:51Z</time>
      </trkpt>
      <trkpt lat="38.2724200" lon="-0.6927780">
        <ele>133.8</ele>
        <time>2019-12-20T09:26:52Z</time>
      </trkpt>
      <trkpt lat="38.2724320" lon="-0.6926940">
        <ele>133.8</ele>
        <time>2019-12-20T09:26:53Z</time>
      </trkpt>
      <trkpt lat="38.2724460" lon="-0.6926120">
        <ele>134.0</ele>
        <time>2019-12-20T09:26:54Z</time>
      </trkpt>
      <trkpt lat="38.2724600" lon="-0.6925260">
        <ele>133.8</ele>
        <time>2019-12-20T09:26:55Z</time>
      </trkpt>
      <trkpt lat="38.2724720" lon="-0.6924370">
        <ele>133.8</ele>
        <time>2019-12-20T09:26:56Z</time>
      </trkpt>
      <trkpt lat="38.2724840" lon="-0.6923510">
        <ele>133.8</ele>
        <time>2019-12-20T09:26:57Z</time>
      </trkpt>
      <trkpt lat="38.2724980" lon="-0.6922660">
        <ele>133.8</ele>
        <time>2019-12-20T09:26:58Z</time>
      </trkpt>
      <trkpt lat="38.2725100" lon="-0.6921830">
        <ele>133.8</ele>
        <time>2019-12-20T09:26:59Z</time>
      </trkpt>
      <trkpt lat="38.2725230" lon="-0.6921030">
        <ele>133.8</ele>
        <time>2019-12-20T09:27:00Z</time>
      </trkpt>
      <trkpt lat="38.2725390" lon="-0.6920250">
        <ele>133.8</ele>
        <time>2019-12-20T09:27:01Z</time>
      </trkpt>
      <trkpt lat="38.2725500" lon="-0.6919410">
        <ele>133.8</ele>
        <time>2019-12-20T09:27:02Z</time>
      </trkpt>
      <trkpt lat="38.2725610" lon="-0.6918590">
        <ele>133.8</ele>
        <time>2019-12-20T09:27:03Z</time>
      </trkpt>
      <trkpt lat="38.2725730" lon="-0.6917730">
        <ele>134.0</ele>
        <time>2019-12-20T09:27:04Z</time>
      </trkpt>
      <trkpt lat="38.2725870" lon="-0.6916890">
        <ele>134.0</ele>
        <time>2019-12-20T09:27:05Z</time>
      </trkpt>
      <trkpt lat="38.2726040" lon="-0.6916080">
        <ele>133.8</ele>
        <time>2019-12-20T09:27:06Z</time>
      </trkpt>
      <trkpt lat="38.2726170" lon="-0.6915280">
        <ele>133.8</ele>
        <time>2019-12-20T09:27:07Z</time>
      </trkpt>
      <trkpt lat="38.2726310" lon="-0.6914450">
        <ele>133.6</ele>
        <time>2019-12-20T09:27:08Z</time>
      </trkpt>
      <trkpt lat="38.2726430" lon="-0.6913580">
        <ele>133.6</ele>
        <time>2019-12-20T09:27:09Z</time>
      </trkpt>
      <trkpt lat="38.2726570" lon="-0.6912740">
        <ele>133.8</ele>
        <time>2019-12-20T09:27:10Z</time>
      </trkpt>
      <trkpt lat="38.2726750" lon="-0.6911920">
        <ele>133.8</ele>
        <time>2019-12-20T09:27:11Z</time>
      </trkpt>
      <trkpt lat="38.2726900" lon="-0.6911050">
        <ele>133.8</ele>
        <time>2019-12-20T09:27:12Z</time>
      </trkpt>
      <trkpt lat="38.2727000" lon="-0.6910630">
        <ele>133.8</ele>
        <time>2019-12-20T09:27:13Z</time>
      </trkpt>
      <trkpt lat="38.2727100" lon="-0.6910210">
        <ele>133.8</ele>
        <time>2019-12-20T09:27:14Z</time>
      </trkpt>
      <trkpt lat="38.2727170" lon="-0.6909350">
        <ele>133.6</ele>
        <time>2019-12-20T09:27:15Z</time>
      </trkpt>
      <trkpt lat="38.2727170" lon="-0.6908510">
        <ele>133.6</ele>
        <time>2019-12-20T09:27:16Z</time>
      </trkpt>
      <trkpt lat="38.2727050" lon="-0.6907680">
        <ele>133.6</ele>
        <time>2019-12-20T09:27:17Z</time>
      </trkpt>
      <trkpt lat="38.2726890" lon="-0.6906900">
        <ele>133.4</ele>
        <time>2019-12-20T09:27:18Z</time>
      </trkpt>
      <trkpt lat="38.2726810" lon="-0.6906100">
        <ele>133.2</ele>
        <time>2019-12-20T09:27:19Z</time>
      </trkpt>
      <trkpt lat="38.2726920" lon="-0.6905280">
        <ele>133.2</ele>
        <time>2019-12-20T09:27:20Z</time>
      </trkpt>
      <trkpt lat="38.2727170" lon="-0.6904500">
        <ele>133.4</ele>
        <time>2019-12-20T09:27:21Z</time>
      </trkpt>
      <trkpt lat="38.2727510" lon="-0.6903780">
        <ele>133.2</ele>
        <time>2019-12-20T09:27:22Z</time>
      </trkpt>
      <trkpt lat="38.2727870" lon="-0.6903100">
        <ele>133.4</ele>
        <time>2019-12-20T09:27:23Z</time>
      </trkpt>
      <trkpt lat="38.2728160" lon="-0.6902410">
        <ele>133.4</ele>
        <time>2019-12-20T09:27:24Z</time>
      </trkpt>
      <trkpt lat="38.2728320" lon="-0.6901660">
        <ele>133.6</ele>
        <time>2019-12-20T09:27:25Z</time>
      </trkpt>
      <trkpt lat="38.2728290" lon="-0.6900880">
        <ele>133.6</ele>
        <time>2019-12-20T09:27:26Z</time>
      </trkpt>
      <trkpt lat="38.2728130" lon="-0.6900200">
        <ele>133.4</ele>
        <time>2019-12-20T09:27:27Z</time>
      </trkpt>
      <trkpt lat="38.2728030" lon="-0.6899510">
        <ele>133.6</ele>
        <time>2019-12-20T09:27:28Z</time>
      </trkpt>
      <trkpt lat="38.2728050" lon="-0.6898730">
        <ele>133.4</ele>
        <time>2019-12-20T09:27:29Z</time>
      </trkpt>
      <trkpt lat="38.2728160" lon="-0.6897930">
        <ele>133.2</ele>
        <time>2019-12-20T09:27:30Z</time>
      </trkpt>
      <trkpt lat="38.2728290" lon="-0.6897150">
        <ele>133.0</ele>
        <time>2019-12-20T09:27:31Z</time>
      </trkpt>
      <trkpt lat="38.2728410" lon="-0.6896340">
        <ele>133.0</ele>
        <time>2019-12-20T09:27:32Z</time>
      </trkpt>
      <trkpt lat="38.2728550" lon="-0.6895560">
        <ele>133.0</ele>
        <time>2019-12-20T09:27:33Z</time>
      </trkpt>
      <trkpt lat="38.2728680" lon="-0.6894740">
        <ele>132.8</ele>
        <time>2019-12-20T09:27:34Z</time>
      </trkpt>
      <trkpt lat="38.2728830" lon="-0.6893920">
        <ele>132.8</ele>
        <time>2019-12-20T09:27:35Z</time>
      </trkpt>
      <trkpt lat="38.2728920" lon="-0.6893120">
        <ele>132.8</ele>
        <time>2019-12-20T09:27:36Z</time>
      </trkpt>
      <trkpt lat="38.2729040" lon="-0.6892270">
        <ele>132.8</ele>
        <time>2019-12-20T09:27:37Z</time>
      </trkpt>
      <trkpt lat="38.2729150" lon="-0.6891420">
        <ele>132.8</ele>
        <time>2019-12-20T09:27:38Z</time>
      </trkpt>
      <trkpt lat="38.2729290" lon="-0.6890580">
        <ele>132.6</ele>
        <time>2019-12-20T09:27:39Z</time>
      </trkpt>
      <trkpt lat="38.2729430" lon="-0.6889740">
        <ele>132.6</ele>
        <time>2019-12-20T09:27:40Z</time>
      </trkpt>
      <trkpt lat="38.2729550" lon="-0.6888880">
        <ele>132.6</ele>
        <time>2019-12-20T09:27:41Z</time>
      </trkpt>
      <trkpt lat="38.2729600" lon="-0.6888070">
        <ele>132.4</ele>
        <time>2019-12-20T09:27:42Z</time>
      </trkpt>
      <trkpt lat="38.2729750" lon="-0.6887230">
        <ele>132.4</ele>
        <time>2019-12-20T09:27:43Z</time>
      </trkpt>
      <trkpt lat="38.2729870" lon="-0.6886400">
        <ele>132.2</ele>
        <time>2019-12-20T09:27:44Z</time>
      </trkpt>
      <trkpt lat="38.2729970" lon="-0.6885560">
        <ele>132.2</ele>
        <time>2019-12-20T09:27:45Z</time>
      </trkpt>
      <trkpt lat="38.2730090" lon="-0.6884740">
        <ele>132.0</ele>
        <time>2019-12-20T09:27:46Z</time>
      </trkpt>
      <trkpt lat="38.2730210" lon="-0.6883880">
        <ele>132.0</ele>
        <time>2019-12-20T09:27:47Z</time>
      </trkpt>
      <trkpt lat="38.2730310" lon="-0.6883030">
        <ele>132.0</ele>
        <time>2019-12-20T09:27:48Z</time>
      </trkpt>
      <trkpt lat="38.2730410" lon="-0.6882200">
        <ele>132.0</ele>
        <time>2019-12-20T09:27:49Z</time>
      </trkpt>
      <trkpt lat="38.2730500" lon="-0.6881350">
        <ele>131.8</ele>
        <time>2019-12-20T09:27:50Z</time>
      </trkpt>
      <trkpt lat="38.2730610" lon="-0.6880450">
        <ele>131.8</ele>
        <time>2019-12-20T09:27:51Z</time>
      </trkpt>
      <trkpt lat="38.2730770" lon="-0.6879600">
        <ele>131.8</ele>
        <time>2019-12-20T09:27:52Z</time>
      </trkpt>
      <trkpt lat="38.2730930" lon="-0.6878770">
        <ele>131.8</ele>
        <time>2019-12-20T09:27:53Z</time>
      </trkpt>
      <trkpt lat="38.2731070" lon="-0.6878000">
        <ele>132.0</ele>
        <time>2019-12-20T09:27:54Z</time>
      </trkpt>
      <trkpt lat="38.2731220" lon="-0.6877180">
        <ele>131.8</ele>
        <time>2019-12-20T09:27:55Z</time>
      </trkpt>
      <trkpt lat="38.2731340" lon="-0.6876310">
        <ele>131.6</ele>
        <time>2019-12-20T09:27:56Z</time>
      </trkpt>
      <trkpt lat="38.2731480" lon="-0.6875470">
        <ele>131.6</ele>
        <time>2019-12-20T09:27:57Z</time>
      </trkpt>
      <trkpt lat="38.2731610" lon="-0.6874630">
        <ele>131.6</ele>
        <time>2019-12-20T09:27:58Z</time>
      </trkpt>
      <trkpt lat="38.2731740" lon="-0.6873790">
        <ele>131.4</ele>
        <time>2019-12-20T09:27:59Z</time>
      </trkpt>
      <trkpt lat="38.2731860" lon="-0.6872940">
        <ele>131.6</ele>
        <time>2019-12-20T09:28:00Z</time>
      </trkpt>
      <trkpt lat="38.2732000" lon="-0.6872110">
        <ele>131.6</ele>
        <time>2019-12-20T09:28:01Z</time>
      </trkpt>
      <trkpt lat="38.2732170" lon="-0.6871260">
        <ele>131.6</ele>
        <time>2019-12-20T09:28:02Z</time>
      </trkpt>
      <trkpt lat="38.2732320" lon="-0.6870420">
        <ele>131.4</ele>
        <time>2019-12-20T09:28:03Z</time>
      </trkpt>
      <trkpt lat="38.2732500" lon="-0.6869590">
        <ele>131.4</ele>
        <time>2019-12-20T09:28:04Z</time>
      </trkpt>
      <trkpt lat="38.2732640" lon="-0.6868750">
        <ele>131.4</ele>
        <time>2019-12-20T09:28:05Z</time>
      </trkpt>
      <trkpt lat="38.2732780" lon="-0.6867910">
        <ele>131.4</ele>
        <time>2019-12-20T09:28:06Z</time>
      </trkpt>
      <trkpt lat="38.2732900" lon="-0.6867090">
        <ele>131.6</ele>
        <time>2019-12-20T09:28:07Z</time>
      </trkpt>
      <trkpt lat="38.2733030" lon="-0.6866290">
        <ele>131.6</ele>
        <time>2019-12-20T09:28:08Z</time>
      </trkpt>
      <trkpt lat="38.2733190" lon="-0.6865510">
        <ele>131.6</ele>
        <time>2019-12-20T09:28:09Z</time>
      </trkpt>
      <trkpt lat="38.2733360" lon="-0.6864730">
        <ele>131.6</ele>
        <time>2019-12-20T09:28:10Z</time>
      </trkpt>
      <trkpt lat="38.2733500" lon="-0.6863910">
        <ele>131.8</ele>
        <time>2019-12-20T09:28:11Z</time>
      </trkpt>
      <trkpt lat="38.2733650" lon="-0.6863090">
        <ele>131.8</ele>
        <time>2019-12-20T09:28:12Z</time>
      </trkpt>
      <trkpt lat="38.2733810" lon="-0.6862300">
        <ele>131.6</ele>
        <time>2019-12-20T09:28:13Z</time>
      </trkpt>
      <trkpt lat="38.2733960" lon="-0.6861480">
        <ele>131.6</ele>
        <time>2019-12-20T09:28:14Z</time>
      </trkpt>
      <trkpt lat="38.2734060" lon="-0.6860700">
        <ele>131.8</ele>
        <time>2019-12-20T09:28:15Z</time>
      </trkpt>
      <trkpt lat="38.2734150" lon="-0.6859940">
        <ele>131.6</ele>
        <time>2019-12-20T09:28:16Z</time>
      </trkpt>
      <trkpt lat="38.2734300" lon="-0.6859150">
        <ele>131.8</ele>
        <time>2019-12-20T09:28:17Z</time>
      </trkpt>
      <trkpt lat="38.2734420" lon="-0.6858350">
        <ele>131.8</ele>
        <time>2019-12-20T09:28:18Z</time>
      </trkpt>
      <trkpt lat="38.2734550" lon="-0.6857540">
        <ele>131.8</ele>
        <time>2019-12-20T09:28:19Z</time>
      </trkpt>
      <trkpt lat="38.2734650" lon="-0.6856730">
        <ele>131.8</ele>
        <time>2019-12-20T09:28:20Z</time>
      </trkpt>
      <trkpt lat="38.2734750" lon="-0.6855930">
        <ele>131.8</ele>
        <time>2019-12-20T09:28:21Z</time>
      </trkpt>
      <trkpt lat="38.2734840" lon="-0.6855120">
        <ele>131.8</ele>
        <time>2019-12-20T09:28:22Z</time>
      </trkpt>
      <trkpt lat="38.2734960" lon="-0.6854340">
        <ele>131.8</ele>
        <time>2019-12-20T09:28:23Z</time>
      </trkpt>
      <trkpt lat="38.2735100" lon="-0.6853570">
        <ele>131.8</ele>
        <time>2019-12-20T09:28:24Z</time>
      </trkpt>
      <trkpt lat="38.2735320" lon="-0.6852810">
        <ele>131.8</ele>
        <time>2019-12-20T09:28:25Z</time>
      </trkpt>
      <trkpt lat="38.2735500" lon="-0.6852030">
        <ele>131.8</ele>
        <time>2019-12-20T09:28:26Z</time>
      </trkpt>
      <trkpt lat="38.2735670" lon="-0.6851260">
        <ele>131.8</ele>
        <time>2019-12-20T09:28:27Z</time>
      </trkpt>
      <trkpt lat="38.2735850" lon="-0.6850500">
        <ele>131.8</ele>
        <time>2019-12-20T09:28:28Z</time>
      </trkpt>
      <trkpt lat="38.2735990" lon="-0.6849730">
        <ele>131.6</ele>
        <time>2019-12-20T09:28:29Z</time>
      </trkpt>
      <trkpt lat="38.2736080" lon="-0.6848950">
        <ele>131.8</ele>
        <time>2019-12-20T09:28:30Z</time>
      </trkpt>
      <trkpt lat="38.2736230" lon="-0.6848160">
        <ele>131.8</ele>
        <time>2019-12-20T09:28:31Z</time>
      </trkpt>
      <trkpt lat="38.2736360" lon="-0.6847370">
        <ele>131.8</ele>
        <time>2019-12-20T09:28:32Z</time>
      </trkpt>
      <trkpt lat="38.2736560" lon="-0.6846630">
        <ele>131.8</ele>
        <time>2019-12-20T09:28:33Z</time>
      </trkpt>
      <trkpt lat="38.2736590" lon="-0.6845840">
        <ele>131.6</ele>
        <time>2019-12-20T09:28:34Z</time>
      </trkpt>
      <trkpt lat="38.2736740" lon="-0.6845080">
        <ele>131.6</ele>
        <time>2019-12-20T09:28:35Z</time>
      </trkpt>
      <trkpt lat="38.2736850" lon="-0.6844310">
        <ele>131.6</ele>
        <time>2019-12-20T09:28:36Z</time>
      </trkpt>
      <trkpt lat="38.2736980" lon="-0.6843480">
        <ele>131.6</ele>
        <time>2019-12-20T09:28:37Z</time>
      </trkpt>
      <trkpt lat="38.2737140" lon="-0.6842710">
        <ele>131.6</ele>
        <time>2019-12-20T09:28:38Z</time>
      </trkpt>
      <trkpt lat="38.2737280" lon="-0.6841890">
        <ele>131.6</ele>
        <time>2019-12-20T09:28:39Z</time>
      </trkpt>
      <trkpt lat="38.2737390" lon="-0.6841120">
        <ele>131.8</ele>
        <time>2019-12-20T09:28:40Z</time>
      </trkpt>
      <trkpt lat="38.2737500" lon="-0.6840340">
        <ele>131.6</ele>
        <time>2019-12-20T09:28:41Z</time>
      </trkpt>
      <trkpt lat="38.2737610" lon="-0.6839570">
        <ele>131.6</ele>
        <time>2019-12-20T09:28:42Z</time>
      </trkpt>
      <trkpt lat="38.2737720" lon="-0.6838800">
        <ele>131.6</ele>
        <time>2019-12-20T09:28:43Z</time>
      </trkpt>
      <trkpt lat="38.2737890" lon="-0.6838060">
        <ele>131.6</ele>
        <time>2019-12-20T09:28:44Z</time>
      </trkpt>
      <trkpt lat="38.2738010" lon="-0.6837340">
        <ele>131.6</ele>
        <time>2019-12-20T09:28:45Z</time>
      </trkpt>
      <trkpt lat="38.2738070" lon="-0.6836570">
        <ele>131.6</ele>
        <time>2019-12-20T09:28:46Z</time>
      </trkpt>
      <trkpt lat="38.2738070" lon="-0.6835840">
        <ele>131.6</ele>
        <time>2019-12-20T09:28:47Z</time>
      </trkpt>
      <trkpt lat="38.2737930" lon="-0.6835250">
        <ele>131.6</ele>
        <time>2019-12-20T09:28:48Z</time>
      </trkpt>
      <trkpt lat="38.2737790" lon="-0.6834690">
        <ele>131.6</ele>
        <time>2019-12-20T09:28:49Z</time>
      </trkpt>
      <trkpt lat="38.2737790" lon="-0.6834050">
        <ele>132.0</ele>
        <time>2019-12-20T09:28:50Z</time>
      </trkpt>
      <trkpt lat="38.2737920" lon="-0.6833440">
        <ele>131.8</ele>
        <time>2019-12-20T09:28:51Z</time>
      </trkpt>
      <trkpt lat="38.2738130" lon="-0.6832890">
        <ele>131.8</ele>
        <time>2019-12-20T09:28:52Z</time>
      </trkpt>
      <trkpt lat="38.2738260" lon="-0.6832260">
        <ele>132.0</ele>
        <time>2019-12-20T09:28:53Z</time>
      </trkpt>
      <trkpt lat="38.2738440" lon="-0.6831690">
        <ele>131.8</ele>
        <time>2019-12-20T09:28:54Z</time>
      </trkpt>
      <trkpt lat="38.2738580" lon="-0.6831090">
        <ele>132.0</ele>
        <time>2019-12-20T09:28:55Z</time>
      </trkpt>
      <trkpt lat="38.2738680" lon="-0.6830410">
        <ele>132.0</ele>
        <time>2019-12-20T09:28:56Z</time>
      </trkpt>
      <trkpt lat="38.2738900" lon="-0.6829880">
        <ele>132.2</ele>
        <time>2019-12-20T09:28:57Z</time>
      </trkpt>
      <trkpt lat="38.2739090" lon="-0.6829320">
        <ele>132.6</ele>
        <time>2019-12-20T09:28:58Z</time>
      </trkpt>
      <trkpt lat="38.2739170" lon="-0.6828760">
        <ele>132.6</ele>
        <time>2019-12-20T09:28:59Z</time>
      </trkpt>
      <trkpt lat="38.2739200" lon="-0.6828170">
        <ele>132.6</ele>
        <time>2019-12-20T09:29:00Z</time>
      </trkpt>
      <trkpt lat="38.2739110" lon="-0.6827570">
        <ele>132.6</ele>
        <time>2019-12-20T09:29:01Z</time>
      </trkpt>
      <trkpt lat="38.2738880" lon="-0.6827040">
        <ele>132.6</ele>
        <time>2019-12-20T09:29:02Z</time>
      </trkpt>
      <trkpt lat="38.2738590" lon="-0.6826600">
        <ele>132.6</ele>
        <time>2019-12-20T09:29:03Z</time>
      </trkpt>
      <trkpt lat="38.2738300" lon="-0.6826200">
        <ele>132.6</ele>
        <time>2019-12-20T09:29:04Z</time>
      </trkpt>
      <trkpt lat="38.2737970" lon="-0.6825810">
        <ele>132.6</ele>
        <time>2019-12-20T09:29:05Z</time>
      </trkpt>
      <trkpt lat="38.2737660" lon="-0.6825330">
        <ele>132.4</ele>
        <time>2019-12-20T09:29:06Z</time>
      </trkpt>
      <trkpt lat="38.2737400" lon="-0.6824860">
        <ele>132.2</ele>
        <time>2019-12-20T09:29:07Z</time>
      </trkpt>
      <trkpt lat="38.2737120" lon="-0.6824510">
        <ele>132.2</ele>
        <time>2019-12-20T09:29:08Z</time>
      </trkpt>
      <trkpt lat="38.2736840" lon="-0.6824000">
        <ele>132.0</ele>
        <time>2019-12-20T09:29:09Z</time>
      </trkpt>
      <trkpt lat="38.2736540" lon="-0.6823490">
        <ele>132.0</ele>
        <time>2019-12-20T09:29:10Z</time>
      </trkpt>
      <trkpt lat="38.2736230" lon="-0.6822970">
        <ele>132.0</ele>
        <time>2019-12-20T09:29:11Z</time>
      </trkpt>
      <trkpt lat="38.2735840" lon="-0.6822360">
        <ele>132.0</ele>
        <time>2019-12-20T09:29:12Z</time>
      </trkpt>
      <trkpt lat="38.2735430" lon="-0.6821760">
        <ele>132.0</ele>
        <time>2019-12-20T09:29:13Z</time>
      </trkpt>
      <trkpt lat="38.2735040" lon="-0.6821480">
        <ele>132.0</ele>
        <time>2019-12-20T09:29:14Z</time>
      </trkpt>
      <trkpt lat="38.2734660" lon="-0.6821520">
        <ele>132.2</ele>
        <time>2019-12-20T09:29:15Z</time>
      </trkpt>
      <trkpt lat="38.2734400" lon="-0.6821670">
        <ele>132.2</ele>
        <time>2019-12-20T09:29:16Z</time>
      </trkpt>
      <trkpt lat="38.2734310" lon="-0.6821980">
        <ele>132.2</ele>
        <time>2019-12-20T09:29:17Z</time>
      </trkpt>
      <trkpt lat="38.2734330" lon="-0.6822310">
        <ele>132.0</ele>
        <time>2019-12-20T09:29:18Z</time>
      </trkpt>
      <trkpt lat="38.2740620" lon="-0.6841830">
        <ele>90.5</ele>
        <time>2018-10-04T07:17:17Z</time>
      </trkpt>
      <trkpt lat="38.2740620" lon="-0.6841830">
        <ele>90.5</ele>
        <time>2018-10-04T07:17:18Z</time>
      </trkpt>
      <trkpt lat="38.2740620" lon="-0.6841830">
        <ele>90.5</ele>
        <time>2018-10-04T07:17:19Z</time>
      </trkpt>
      <trkpt lat="38.2740620" lon="-0.6841830">
        <ele>90.5</ele>
        <time>2018-10-04T07:17:20Z</time>
      </trkpt>
      <trkpt lat="38.2740570" lon="-0.6842350">
        <ele>90.7</ele>
        <time>2018-10-04T07:17:21Z</time>
      </trkpt>
      <trkpt lat="38.2740490" lon="-0.6842900">
        <ele>90.8</ele>
        <time>2018-10-04T07:17:22Z</time>
      </trkpt>
      <trkpt lat="38.2740410" lon="-0.6843480">
        <ele>90.9</ele>
        <time>2018-10-04T07:17:23Z</time>
      </trkpt>
      <trkpt lat="38.2740340" lon="-0.6844060">
        <ele>91.1</ele>
        <time>2018-10-04T07:17:24Z</time>
      </trkpt>
      <trkpt lat="38.2740260" lon="-0.6844680">
        <ele>91.3</ele>
        <time>2018-10-04T07:17:25Z</time>
      </trkpt>
      <trkpt lat="38.2740180" lon="-0.6845340">
        <ele>91.4</ele>
        <time>2018-10-04T07:17:26Z</time>
      </trkpt>
      <trkpt lat="38.2740090" lon="-0.6845990">
        <ele>91.6</ele>
        <time>2018-10-04T07:17:27Z</time>
      </trkpt>
      <trkpt lat="38.2739990" lon="-0.6846650">
        <ele>91.8</ele>
        <time>2018-10-04T07:17:28Z</time>
      </trkpt>
      <trkpt lat="38.2739890" lon="-0.6847320">
        <ele>92.0</ele>
        <time>2018-10-04T07:17:29Z</time>
      </trkpt>
      <trkpt lat="38.2739780" lon="-0.6848000">
        <ele>92.2</ele>
        <time>2018-10-04T07:17:30Z</time>
      </trkpt>
      <trkpt lat="38.2739640" lon="-0.6848700">
        <ele>92.4</ele>
        <time>2018-10-04T07:17:31Z</time>
      </trkpt>
      <trkpt lat="38.2739500" lon="-0.6849410">
        <ele>92.6</ele>
        <time>2018-10-04T07:17:32Z</time>
      </trkpt>
      <trkpt lat="38.2739360" lon="-0.6850140">
        <ele>92.8</ele>
        <time>2018-10-04T07:17:33Z</time>
      </trkpt>
      <trkpt lat="38.2739240" lon="-0.6850870">
        <ele>93.0</ele>
        <time>2018-10-04T07:17:34Z</time>
      </trkpt>
      <trkpt lat="38.2739120" lon="-0.6851610">
        <ele>92.9</ele>
        <time>2018-10-04T07:17:35Z</time>
      </trkpt>
      <trkpt lat="38.2739020" lon="-0.6852350">
        <ele>92.8</ele>
        <time>2018-10-04T07:17:36Z</time>
      </trkpt>
      <trkpt lat="38.2738940" lon="-0.6853110">
        <ele>92.7</ele>
        <time>2018-10-04T07:17:37Z</time>
      </trkpt>
      <trkpt lat="38.2738840" lon="-0.6853860">
        <ele>92.7</ele>
        <time>2018-10-04T07:17:38Z</time>
      </trkpt>
      <trkpt lat="38.2738730" lon="-0.6854610">
        <ele>92.7</ele>
        <time>2018-10-04T07:17:39Z</time>
      </trkpt>
      <trkpt lat="38.2738620" lon="-0.6855360">
        <ele>92.6</ele>
        <time>2018-10-04T07:17:40Z</time>
      </trkpt>
      <trkpt lat="38.2738500" lon="-0.6856110">
        <ele>92.6</ele>
        <time>2018-10-04T07:17:41Z</time>
      </trkpt>
      <trkpt lat="38.2738370" lon="-0.6856870">
        <ele>92.5</ele>
        <time>2018-10-04T07:17:42Z</time>
      </trkpt>
      <trkpt lat="38.2738250" lon="-0.6857630">
        <ele>92.5</ele>
        <time>2018-10-04T07:17:43Z</time>
      </trkpt>
      <trkpt lat="38.2738120" lon="-0.6858400">
        <ele>92.4</ele>
        <time>2018-10-04T07:17:44Z</time>
      </trkpt>
      <trkpt lat="38.2737990" lon="-0.6859170">
        <ele>92.4</ele>
        <time>2018-10-04T07:17:45Z</time>
      </trkpt>
      <trkpt lat="38.2737850" lon="-0.6859960">
        <ele>92.3</ele>
        <time>2018-10-04T07:17:46Z</time>
      </trkpt>
      <trkpt lat="38.2737720" lon="-0.6860740">
        <ele>92.3</ele>
        <time>2018-10-04T07:17:47Z</time>
      </trkpt>
      <trkpt lat="38.2737570" lon="-0.6861530">
        <ele>92.2</ele>
        <time>2018-10-04T07:17:48Z</time>
      </trkpt>
      <trkpt lat="38.2737440" lon="-0.6862300">
        <ele>92.2</ele>
        <time>2018-10-04T07:17:49Z</time>
      </trkpt>
      <trkpt lat="38.2737300" lon="-0.6863110">
        <ele>92.1</ele>
        <time>2018-10-04T07:17:50Z</time>
      </trkpt>
      <trkpt lat="38.2737180" lon="-0.6863900">
        <ele>92.0</ele>
        <time>2018-10-04T07:17:51Z</time>
      </trkpt>
      <trkpt lat="38.2737050" lon="-0.6864710">
        <ele>91.9</ele>
        <time>2018-10-04T07:17:52Z</time>
      </trkpt>
      <trkpt lat="38.2736930" lon="-0.6865510">
        <ele>91.9</ele>
        <time>2018-10-04T07:17:53Z</time>
      </trkpt>
      <trkpt lat="38.2736790" lon="-0.6866300">
        <ele>91.8</ele>
        <time>2018-10-04T07:17:54Z</time>
      </trkpt>
      <trkpt lat="38.2736650" lon="-0.6867110">
        <ele>91.8</ele>
        <time>2018-10-04T07:17:55Z</time>
      </trkpt>
      <trkpt lat="38.2736510" lon="-0.6867910">
        <ele>91.7</ele>
        <time>2018-10-04T07:17:56Z</time>
      </trkpt>
      <trkpt lat="38.2736380" lon="-0.6868700">
        <ele>91.7</ele>
        <time>2018-10-04T07:17:57Z</time>
      </trkpt>
      <trkpt lat="38.2736240" lon="-0.6869490">
        <ele>91.6</ele>
        <time>2018-10-04T07:17:58Z</time>
      </trkpt>
      <trkpt lat="38.2736120" lon="-0.6870280">
        <ele>91.6</ele>
        <time>2018-10-04T07:17:59Z</time>
      </trkpt>
      <trkpt lat="38.2735990" lon="-0.6871070">
        <ele>91.5</ele>
        <time>2018-10-04T07:18:00Z</time>
      </trkpt>
      <trkpt lat="38.2735860" lon="-0.6871850">
        <ele>91.5</ele>
        <time>2018-10-04T07:18:01Z</time>
      </trkpt>
      <trkpt lat="38.2735720" lon="-0.6872650">
        <ele>91.5</ele>
        <time>2018-10-04T07:18:02Z</time>
      </trkpt>
      <trkpt lat="38.2735580" lon="-0.6873440">
        <ele>91.4</ele>
        <time>2018-10-04T07:18:03Z</time>
      </trkpt>
      <trkpt lat="38.2735440" lon="-0.6874240">
        <ele>91.4</ele>
        <time>2018-10-04T07:18:04Z</time>
      </trkpt>
      <trkpt lat="38.2735320" lon="-0.6875030">
        <ele>91.4</ele>
        <time>2018-10-04T07:18:05Z</time>
      </trkpt>
      <trkpt lat="38.2735190" lon="-0.6875820">
        <ele>91.4</ele>
        <time>2018-10-04T07:18:06Z</time>
      </trkpt>
      <trkpt lat="38.2735060" lon="-0.6876610">
        <ele>91.3</ele>
        <time>2018-10-04T07:18:07Z</time>
      </trkpt>
      <trkpt lat="38.2734920" lon="-0.6877410">
        <ele>91.3</ele>
        <time>2018-10-04T07:18:08Z</time>
      </trkpt>
      <trkpt lat="38.2734780" lon="-0.6878200">
        <ele>91.2</ele>
        <time>2018-10-04T07:18:09Z</time>
      </trkpt>
      <trkpt lat="38.2734650" lon="-0.6878990">
        <ele>91.2</ele>
        <time>2018-10-04T07:18:10Z</time>
      </trkpt>
      <trkpt lat="38.2734520" lon="-0.6879790">
        <ele>91.1</ele>
        <time>2018-10-04T07:18:11Z</time>
      </trkpt>
      <trkpt lat="38.2734390" lon="-0.6880590">
        <ele>91.0</ele>
        <time>2018-10-04T07:18:12Z</time>
      </trkpt>
      <trkpt lat="38.2734250" lon="-0.6881380">
        <ele>91.0</ele>
        <time>2018-10-04T07:18:13Z</time>
      </trkpt>
      <trkpt lat="38.2734130" lon="-0.6882180">
        <ele>91.0</ele>
        <time>2018-10-04T07:18:14Z</time>
      </trkpt>
      <trkpt lat="38.2733990" lon="-0.6882980">
        <ele>88.5</ele>
        <time>2018-10-04T07:18:15Z</time>
      </trkpt>
      <trkpt lat="38.2733860" lon="-0.6883780">
        <ele>86.4</ele>
        <time>2018-10-04T07:18:16Z</time>
      </trkpt>
      <trkpt lat="38.2733710" lon="-0.6884590">
        <ele>86.0</ele>
        <time>2018-10-04T07:18:17Z</time>
      </trkpt>
      <trkpt lat="38.2733550" lon="-0.6885400">
        <ele>86.0</ele>
        <time>2018-10-04T07:18:18Z</time>
      </trkpt>
      <trkpt lat="38.2733400" lon="-0.6886210">
        <ele>86.0</ele>
        <time>2018-10-04T07:18:19Z</time>
      </trkpt>
      <trkpt lat="38.2733270" lon="-0.6887010">
        <ele>86.0</ele>
        <time>2018-10-04T07:18:20Z</time>
      </trkpt>
      <trkpt lat="38.2733110" lon="-0.6887820">
        <ele>86.0</ele>
        <time>2018-10-04T07:18:21Z</time>
      </trkpt>
      <trkpt lat="38.2732960" lon="-0.6888630">
        <ele>86.0</ele>
        <time>2018-10-04T07:18:22Z</time>
      </trkpt>
      <trkpt lat="38.2732820" lon="-0.6889450">
        <ele>86.0</ele>
        <time>2018-10-04T07:18:23Z</time>
      </trkpt>
      <trkpt lat="38.2732680" lon="-0.6890270">
        <ele>86.0</ele>
        <time>2018-10-04T07:18:24Z</time>
      </trkpt>
      <trkpt lat="38.2732540" lon="-0.6891090">
        <ele>86.0</ele>
        <time>2018-10-04T07:18:25Z</time>
      </trkpt>
      <trkpt lat="38.2732410" lon="-0.6891910">
        <ele>86.0</ele>
        <time>2018-10-04T07:18:26Z</time>
      </trkpt>
      <trkpt lat="38.2732280" lon="-0.6892720">
        <ele>86.0</ele>
        <time>2018-10-04T07:18:27Z</time>
      </trkpt>
      <trkpt lat="38.2732150" lon="-0.6893520">
        <ele>86.0</ele>
        <time>2018-10-04T07:18:28Z</time>
      </trkpt>
      <trkpt lat="38.2732020" lon="-0.6894310">
        <ele>86.0</ele>
        <time>2018-10-04T07:18:29Z</time>
      </trkpt>
      <trkpt lat="38.2731880" lon="-0.6895090">
        <ele>86.0</ele>
        <time>2018-10-04T07:18:30Z</time>
      </trkpt>
      <trkpt lat="38.2731760" lon="-0.6895880">
        <ele>86.0</ele>
        <time>2018-10-04T07:18:31Z</time>
      </trkpt>
      <trkpt lat="38.2731630" lon="-0.6896640">
        <ele>86.0</ele>
        <time>2018-10-04T07:18:32Z</time>
      </trkpt>
      <trkpt lat="38.2731500" lon="-0.6897410">
        <ele>85.9</ele>
        <time>2018-10-04T07:18:33Z</time>
      </trkpt>
      <trkpt lat="38.2731370" lon="-0.6898170">
        <ele>85.6</ele>
        <time>2018-10-04T07:18:34Z</time>
      </trkpt>
      <trkpt lat="38.2731220" lon="-0.6898930">
        <ele>85.7</ele>
        <time>2018-10-04T07:18:35Z</time>
      </trkpt>
      <trkpt lat="38.2731100" lon="-0.6899670">
        <ele>86.0</ele>
        <time>2018-10-04T07:18:36Z</time>
      </trkpt>
      <trkpt lat="38.2730990" lon="-0.6900340">
        <ele>86.4</ele>
        <time>2018-10-04T07:18:37Z</time>
      </trkpt>
      <trkpt lat="38.2730920" lon="-0.6900840">
        <ele>86.7</ele>
        <time>2018-10-04T07:18:38Z</time>
      </trkpt>
      <trkpt lat="38.2730850" lon="-0.6901290">
        <ele>87.0</ele>
        <time>2018-10-04T07:18:39Z</time>
      </trkpt>
      <trkpt lat="38.2730830" lon="-0.6901660">
        <ele>87.3</ele>
        <time>2018-10-04T07:18:40Z</time>
      </trkpt>
      <trkpt lat="38.2730760" lon="-0.6902050">
        <ele>87.6</ele>
        <time>2018-10-04T07:18:41Z</time>
      </trkpt>
      <trkpt lat="38.2730720" lon="-0.6902440">
        <ele>87.9</ele>
        <time>2018-10-04T07:18:42Z</time>
      </trkpt>
      <trkpt lat="38.2730740" lon="-0.6902910">
        <ele>88.0</ele>
        <time>2018-10-04T07:18:43Z</time>
      </trkpt>
      <trkpt lat="38.2730850" lon="-0.6903380">
        <ele>88.0</ele>
        <time>2018-10-04T07:18:44Z</time>
      </trkpt>
      <trkpt lat="38.2731020" lon="-0.6903890">
        <ele>88.4</ele>
        <time>2018-10-04T07:18:45Z</time>
      </trkpt>
      <trkpt lat="38.2731220" lon="-0.6904430">
        <ele>88.7</ele>
        <time>2018-10-04T07:18:46Z</time>
      </trkpt>
      <trkpt lat="38.2731390" lon="-0.6905030">
        <ele>88.9</ele>
        <time>2018-10-04T07:18:47Z</time>
      </trkpt>
      <trkpt lat="38.2731450" lon="-0.6905700">
        <ele>89.1</ele>
        <time>2018-10-04T07:18:48Z</time>
      </trkpt>
      <trkpt lat="38.2731360" lon="-0.6906430">
        <ele>89.3</ele>
        <time>2018-10-04T07:18:49Z</time>
      </trkpt>
      <trkpt lat="38.2731120" lon="-0.6907170">
        <ele>89.5</ele>
        <time>2018-10-04T07:18:50Z</time>
      </trkpt>
      <trkpt lat="38.2730800" lon="-0.6907790">
        <ele>89.7</ele>
        <time>2018-10-04T07:18:51Z</time>
      </trkpt>
      <trkpt lat="38.2730310" lon="-0.6908350">
        <ele>90.0</ele>
        <time>2018-10-04T07:18:52Z</time>
      </trkpt>
      <trkpt lat="38.2729830" lon="-0.6908940">
        <ele>90.0</ele>
        <time>2018-10-04T07:18:53Z</time>
      </trkpt>
      <trkpt lat="38.2729490" lon="-0.6909670">
        <ele>89.9</ele>
        <time>2018-10-04T07:18:54Z</time>
      </trkpt>
      <trkpt lat="38.2729350" lon="-0.6910500">
        <ele>89.8</ele>
        <time>2018-10-04T07:18:55Z</time>
      </trkpt>
      <trkpt lat="38.2729200" lon="-0.6911320">
        <ele>89.7</ele>
        <time>2018-10-04T07:18:56Z</time>
      </trkpt>
      <trkpt lat="38.2729080" lon="-0.6912140">
        <ele>89.6</ele>
        <time>2018-10-04T07:18:57Z</time>
      </trkpt>
      <trkpt lat="38.2728950" lon="-0.6912960">
        <ele>89.5</ele>
        <time>2018-10-04T07:18:58Z</time>
      </trkpt>
      <trkpt lat="38.2728820" lon="-0.6913760">
        <ele>89.4</ele>
        <time>2018-10-04T07:18:59Z</time>
      </trkpt>
      <trkpt lat="38.2728680" lon="-0.6914570">
        <ele>89.4</ele>
        <time>2018-10-04T07:19:00Z</time>
      </trkpt>
      <trkpt lat="38.2728550" lon="-0.6915380">
        <ele>89.3</ele>
        <time>2018-10-04T07:19:01Z</time>
      </trkpt>
      <trkpt lat="38.2728440" lon="-0.6916180">
        <ele>89.2</ele>
        <time>2018-10-04T07:19:02Z</time>
      </trkpt>
      <trkpt lat="38.2728320" lon="-0.6916970">
        <ele>89.1</ele>
        <time>2018-10-04T07:19:03Z</time>
      </trkpt>
      <trkpt lat="38.2728200" lon="-0.6917780">
        <ele>89.0</ele>
        <time>2018-10-04T07:19:04Z</time>
      </trkpt>
      <trkpt lat="38.2728080" lon="-0.6918590">
        <ele>89.0</ele>
        <time>2018-10-04T07:19:05Z</time>
      </trkpt>
      <trkpt lat="38.2727970" lon="-0.6919380">
        <ele>88.9</ele>
        <time>2018-10-04T07:19:06Z</time>
      </trkpt>
      <trkpt lat="38.2727840" lon="-0.6920170">
        <ele>88.8</ele>
        <time>2018-10-04T07:19:07Z</time>
      </trkpt>
      <trkpt lat="38.2727720" lon="-0.6920940">
        <ele>88.7</ele>
        <time>2018-10-04T07:19:08Z</time>
      </trkpt>
      <trkpt lat="38.2727590" lon="-0.6921690">
        <ele>88.7</ele>
        <time>2018-10-04T07:19:09Z</time>
      </trkpt>
      <trkpt lat="38.2727470" lon="-0.6922440">
        <ele>88.6</ele>
        <time>2018-10-04T07:19:10Z</time>
      </trkpt>
      <trkpt lat="38.2727350" lon="-0.6923180">
        <ele>88.5</ele>
        <time>2018-10-04T07:19:11Z</time>
      </trkpt>
      <trkpt lat="38.2727220" lon="-0.6923900">
        <ele>88.5</ele>
        <time>2018-10-04T07:19:12Z</time>
      </trkpt>
      <trkpt lat="38.2727110" lon="-0.6924630">
        <ele>88.4</ele>
        <time>2018-10-04T07:19:13Z</time>
      </trkpt>
      <trkpt lat="38.2726990" lon="-0.6925360">
        <ele>88.3</ele>
        <time>2018-10-04T07:19:14Z</time>
      </trkpt>
      <trkpt lat="38.2726850" lon="-0.6926120">
        <ele>88.2</ele>
        <time>2018-10-04T07:19:15Z</time>
      </trkpt>
      <trkpt lat="38.2726720" lon="-0.6926890">
        <ele>88.1</ele>
        <time>2018-10-04T07:19:16Z</time>
      </trkpt>
      <trkpt lat="38.2726590" lon="-0.6927680">
        <ele>88.0</ele>
        <time>2018-10-04T07:19:17Z</time>
      </trkpt>
      <trkpt lat="38.2726460" lon="-0.6928470">
        <ele>88.1</ele>
        <time>2018-10-04T07:19:18Z</time>
      </trkpt>
      <trkpt lat="38.2726340" lon="-0.6929280">
        <ele>88.1</ele>
        <time>2018-10-04T07:19:19Z</time>
      </trkpt>
      <trkpt lat="38.2726210" lon="-0.6930100">
        <ele>88.2</ele>
        <time>2018-10-04T07:19:20Z</time>
      </trkpt>
      <trkpt lat="38.2726060" lon="-0.6930920">
        <ele>88.2</ele>
        <time>2018-10-04T07:19:21Z</time>
      </trkpt>
      <trkpt lat="38.2725920" lon="-0.6931750">
        <ele>88.3</ele>
        <time>2018-10-04T07:19:22Z</time>
      </trkpt>
      <trkpt lat="38.2725770" lon="-0.6932580">
        <ele>88.3</ele>
        <time>2018-10-04T07:19:23Z</time>
      </trkpt>
      <trkpt lat="38.2725620" lon="-0.6933410">
        <ele>88.3</ele>
        <time>2018-10-04T07:19:24Z</time>
      </trkpt>
      <trkpt lat="38.2725480" lon="-0.6934230">
        <ele>88.4</ele>
        <time>2018-10-04T07:19:25Z</time>
      </trkpt>
      <trkpt lat="38.2725350" lon="-0.6935040">
        <ele>88.4</ele>
        <time>2018-10-04T07:19:26Z</time>
      </trkpt>
      <trkpt lat="38.2725230" lon="-0.6935850">
        <ele>88.5</ele>
        <time>2018-10-04T07:19:27Z</time>
      </trkpt>
      <trkpt lat="38.2725090" lon="-0.6936680">
        <ele>88.5</ele>
        <time>2018-10-04T07:19:28Z</time>
      </trkpt>
      <trkpt lat="38.2724950" lon="-0.6937500">
        <ele>88.6</ele>
        <time>2018-10-04T07:19:29Z</time>
      </trkpt>
      <trkpt lat="38.2724800" lon="-0.6938310">
        <ele>88.6</ele>
        <time>2018-10-04T07:19:30Z</time>
      </trkpt>
      <trkpt lat="38.2724660" lon="-0.6939130">
        <ele>88.7</ele>
        <time>2018-10-04T07:19:31Z</time>
      </trkpt>
      <trkpt lat="38.2724530" lon="-0.6939930">
        <ele>88.7</ele>
        <time>2018-10-04T07:19:32Z</time>
      </trkpt>
      <trkpt lat="38.2724410" lon="-0.6940720">
        <ele>88.8</ele>
        <time>2018-10-04T07:19:33Z</time>
      </trkpt>
      <trkpt lat="38.2724270" lon="-0.6941500">
        <ele>88.8</ele>
        <time>2018-10-04T07:19:34Z</time>
      </trkpt>
      <trkpt lat="38.2724120" lon="-0.6942270">
        <ele>88.9</ele>
        <time>2018-10-04T07:19:35Z</time>
      </trkpt>
      <trkpt lat="38.2724000" lon="-0.6942990">
        <ele>89.0</ele>
        <time>2018-10-04T07:19:36Z</time>
      </trkpt>
      <trkpt lat="38.2723950" lon="-0.6943620">
        <ele>89.0</ele>
        <time>2018-10-04T07:19:37Z</time>
      </trkpt>
      <trkpt lat="38.2723990" lon="-0.6944260">
        <ele>89.0</ele>
        <time>2018-10-04T07:19:38Z</time>
      </trkpt>
      <trkpt lat="38.2724130" lon="-0.6944870">
        <ele>89.0</ele>
        <time>2018-10-04T07:19:39Z</time>
      </trkpt>
      <trkpt lat="38.2724290" lon="-0.6945480">
        <ele>89.0</ele>
        <time>2018-10-04T07:19:40Z</time>
      </trkpt>
      <trkpt lat="38.2724460" lon="-0.6946110">
        <ele>89.0</ele>
        <time>2018-10-04T07:19:41Z</time>
      </trkpt>
      <trkpt lat="38.2724660" lon="-0.6946770">
        <ele>89.9</ele>
        <time>2018-10-04T07:19:42Z</time>
      </trkpt>
      <trkpt lat="38.2724940" lon="-0.6947400">
        <ele>90.6</ele>
        <time>2018-10-04T07:19:43Z</time>
      </trkpt>
      <trkpt lat="38.2725340" lon="-0.6947870">
        <ele>91.3</ele>
        <time>2018-10-04T07:19:44Z</time>
      </trkpt>
      <trkpt lat="38.2725820" lon="-0.6948150">
        <ele>91.9</ele>
        <time>2018-10-04T07:19:45Z</time>
      </trkpt>
      <trkpt lat="38.2726350" lon="-0.6948280">
        <ele>92.6</ele>
        <time>2018-10-04T07:19:46Z</time>
      </trkpt>
      <trkpt lat="38.2726940" lon="-0.6948460">
        <ele>93.1</ele>
        <time>2018-10-04T07:19:47Z</time>
      </trkpt>
      <trkpt lat="38.2727520" lon="-0.6948620">
        <ele>93.2</ele>
        <time>2018-10-04T07:19:48Z</time>
      </trkpt>
      <trkpt lat="38.2728120" lon="-0.6948770">
        <ele>93.4</ele>
        <time>2018-10-04T07:19:49Z</time>
      </trkpt>
      <trkpt lat="38.2728710" lon="-0.6948930">
        <ele>93.6</ele>
        <time>2018-10-04T07:19:50Z</time>
      </trkpt>
      <trkpt lat="38.2729290" lon="-0.6949090">
        <ele>93.9</ele>
        <time>2018-10-04T07:19:51Z</time>
      </trkpt>
      <trkpt lat="38.2729880" lon="-0.6949260">
        <ele>94.2</ele>
        <time>2018-10-04T07:19:52Z</time>
      </trkpt>
      <trkpt lat="38.2730480" lon="-0.6949490">
        <ele>94.4</ele>
        <time>2018-10-04T07:19:53Z</time>
      </trkpt>
      <trkpt lat="38.2731060" lon="-0.6949700">
        <ele>94.6</ele>
        <time>2018-10-04T07:19:54Z</time>
      </trkpt>
      <trkpt lat="38.2731660" lon="-0.6949860">
        <ele>94.7</ele>
        <time>2018-10-04T07:19:55Z</time>
      </trkpt>
      <trkpt lat="38.2732260" lon="-0.6950080">
        <ele>94.8</ele>
        <time>2018-10-04T07:19:56Z</time>
      </trkpt>
      <trkpt lat="38.2732860" lon="-0.6950290">
        <ele>94.9</ele>
        <time>2018-10-04T07:19:57Z</time>
      </trkpt>
      <trkpt lat="38.2733460" lon="-0.6950510">
        <ele>94.9</ele>
        <time>2018-10-04T07:19:58Z</time>
      </trkpt>
      <trkpt lat="38.2734060" lon="-0.6950730">
        <ele>94.9</ele>
        <time>2018-10-04T07:19:59Z</time>
      </trkpt>
      <trkpt lat="38.2734670" lon="-0.6950940">
        <ele>95.0</ele>
        <time>2018-10-04T07:20:00Z</time>
      </trkpt>
      <trkpt lat="38.2735290" lon="-0.6951150">
        <ele>95.0</ele>
        <time>2018-10-04T07:20:01Z</time>
      </trkpt>
      <trkpt lat="38.2735890" lon="-0.6951360">
        <ele>95.0</ele>
        <time>2018-10-04T07:20:02Z</time>
      </trkpt>
      <trkpt lat="38.2736520" lon="-0.6951570">
        <ele>95.1</ele>
        <time>2018-10-04T07:20:03Z</time>
      </trkpt>
      <trkpt lat="38.2737150" lon="-0.6951740">
        <ele>95.1</ele>
        <time>2018-10-04T07:20:04Z</time>
      </trkpt>
      <trkpt lat="38.2737780" lon="-0.6951870">
        <ele>95.1</ele>
        <time>2018-10-04T07:20:05Z</time>
      </trkpt>
      <trkpt lat="38.2738420" lon="-0.6951970">
        <ele>95.1</ele>
        <time>2018-10-04T07:20:06Z</time>
      </trkpt>
      <trkpt lat="38.2739040" lon="-0.6952050">
        <ele>95.1</ele>
        <time>2018-10-04T07:20:07Z</time>
      </trkpt>
      <trkpt lat="38.2739650" lon="-0.6952120">
        <ele>95.1</ele>
        <time>2018-10-04T07:20:08Z</time>
      </trkpt>
      <trkpt lat="38.2740280" lon="-0.6952160">
        <ele>95.1</ele>
        <time>2018-10-04T07:20:09Z</time>
      </trkpt>
      <trkpt lat="38.2740920" lon="-0.6952280">
        <ele>95.1</ele>
        <time>2018-10-04T07:20:10Z</time>
      </trkpt>
      <trkpt lat="38.2741540" lon="-0.6952490">
        <ele>95.1</ele>
        <time>2018-10-04T07:20:11Z</time>
      </trkpt>
      <trkpt lat="38.2742130" lon="-0.6952750">
        <ele>95.0</ele>
        <time>2018-10-04T07:20:12Z</time>
      </trkpt>
      <trkpt lat="38.2742660" lon="-0.6953170">
        <ele>95.0</ele>
        <time>2018-10-04T07:20:13Z</time>
      </trkpt>
      <trkpt lat="38.2743230" lon="-0.6953530">
        <ele>95.0</ele>
        <time>2018-10-04T07:20:14Z</time>
      </trkpt>
      <trkpt lat="38.2743770" lon="-0.6953980">
        <ele>95.0</ele>
        <time>2018-10-04T07:20:15Z</time>
      </trkpt>
      <trkpt lat="38.2744290" lon="-0.6954450">
        <ele>95.0</ele>
        <time>2018-10-04T07:20:16Z</time>
      </trkpt>
      <trkpt lat="38.2744800" lon="-0.6954900">
        <ele>95.0</ele>
        <time>2018-10-04T07:20:17Z</time>
      </trkpt>
      <trkpt lat="38.2745320" lon="-0.6955330">
        <ele>95.0</ele>
        <time>2018-10-04T07:20:18Z</time>
      </trkpt>
      <trkpt lat="38.2745830" lon="-0.6955780">
        <ele>95.0</ele>
        <time>2018-10-04T07:20:19Z</time>
      </trkpt>
      <trkpt lat="38.2746340" lon="-0.6956240">
        <ele>95.0</ele>
        <time>2018-10-04T07:20:20Z</time>
      </trkpt>
      <trkpt lat="38.2746850" lon="-0.6956690">
        <ele>95.0</ele>
        <time>2018-10-04T07:20:21Z</time>
      </trkpt>
      <trkpt lat="38.2747370" lon="-0.6957130">
        <ele>95.0</ele>
        <time>2018-10-04T07:20:22Z</time>
      </trkpt>
      <trkpt lat="38.2747870" lon="-0.6957600">
        <ele>95.0</ele>
        <time>2018-10-04T07:20:23Z</time>
      </trkpt>
      <trkpt lat="38.2748410" lon="-0.6958030">
        <ele>95.0</ele>
        <time>2018-10-04T07:20:24Z</time>
      </trkpt>
      <trkpt lat="38.2748960" lon="-0.6958430">
        <ele>95.0</ele>
        <time>2018-10-04T07:20:25Z</time>
      </trkpt>
      <trkpt lat="38.2749490" lon="-0.6958830">
        <ele>95.0</ele>
        <time>2018-10-04T07:20:26Z</time>
      </trkpt>
      <trkpt lat="38.2750050" lon="-0.6959220">
        <ele>95.0</ele>
        <time>2018-10-04T07:20:27Z</time>
      </trkpt>
      <trkpt lat="38.2750610" lon="-0.6959620">
        <ele>95.0</ele>
        <time>2018-10-04T07:20:28Z</time>
      </trkpt>
      <trkpt lat="38.2751160" lon="-0.6960030">
        <ele>95.0</ele>
        <time>2018-10-04T07:20:29Z</time>
      </trkpt>
      <trkpt lat="38.2751710" lon="-0.6960450">
        <ele>95.1</ele>
        <time>2018-10-04T07:20:30Z</time>
      </trkpt>
      <trkpt lat="38.2752260" lon="-0.6960850">
        <ele>95.1</ele>
        <time>2018-10-04T07:20:31Z</time>
      </trkpt>
      <trkpt lat="38.2752810" lon="-0.6961240">
        <ele>95.1</ele>
        <time>2018-10-04T07:20:32Z</time>
      </trkpt>
      <trkpt lat="38.2753370" lon="-0.6961600">
        <ele>95.1</ele>
        <time>2018-10-04T07:20:33Z</time>
      </trkpt>
      <trkpt lat="38.2753940" lon="-0.6961970">
        <ele>95.1</ele>
        <time>2018-10-04T07:20:34Z</time>
      </trkpt>
      <trkpt lat="38.2754500" lon="-0.6962330">
        <ele>95.1</ele>
        <time>2018-10-04T07:20:35Z</time>
      </trkpt>
      <trkpt lat="38.2755080" lon="-0.6962680">
        <ele>95.1</ele>
        <time>2018-10-04T07:20:36Z</time>
      </trkpt>
      <trkpt lat="38.2755670" lon="-0.6963000">
        <ele>95.1</ele>
        <time>2018-10-04T07:20:37Z</time>
      </trkpt>
      <trkpt lat="38.2756280" lon="-0.6963300">
        <ele>95.2</ele>
        <time>2018-10-04T07:20:38Z</time>
      </trkpt>
      <trkpt lat="38.2756900" lon="-0.6963560">
        <ele>95.2</ele>
        <time>2018-10-04T07:20:39Z</time>
      </trkpt>
      <trkpt lat="38.2757530" lon="-0.6963770">
        <ele>95.2</ele>
        <time>2018-10-04T07:20:40Z</time>
      </trkpt>
      <trkpt lat="38.2758170" lon="-0.6963900">
        <ele>95.2</ele>
        <time>2018-10-04T07:20:41Z</time>
      </trkpt>
      <trkpt lat="38.2758840" lon="-0.6963960">
        <ele>95.2</ele>
        <time>2018-10-04T07:20:42Z</time>
      </trkpt>
      <trkpt lat="38.2759490" lon="-0.6963990">
        <ele>95.2</ele>
        <time>2018-10-04T07:20:43Z</time>
      </trkpt>
      <trkpt lat="38.2760150" lon="-0.6963940">
        <ele>95.3</ele>
        <time>2018-10-04T07:20:44Z</time>
      </trkpt>
      <trkpt lat="38.2760810" lon="-0.6963820">
        <ele>95.3</ele>
        <time>2018-10-04T07:20:45Z</time>
      </trkpt>
      <trkpt lat="38.2761470" lon="-0.6963660">
        <ele>95.4</ele>
        <time>2018-10-04T07:20:46Z</time>
      </trkpt>
      <trkpt lat="38.2762130" lon="-0.6963480">
        <ele>95.4</ele>
        <time>2018-10-04T07:20:47Z</time>
      </trkpt>
      <trkpt lat="38.2762780" lon="-0.6963310">
        <ele>95.5</ele>
        <time>2018-10-04T07:20:48Z</time>
      </trkpt>
      <trkpt lat="38.2763420" lon="-0.6963140">
        <ele>95.5</ele>
        <time>2018-10-04T07:20:49Z</time>
      </trkpt>
      <trkpt lat="38.2764070" lon="-0.6962960">
        <ele>95.5</ele>
        <time>2018-10-04T07:20:50Z</time>
      </trkpt>
      <trkpt lat="38.2764720" lon="-0.6962750">
        <ele>95.7</ele>
        <time>2018-10-04T07:20:51Z</time>
      </trkpt>
      <trkpt lat="38.2765380" lon="-0.6962510">
        <ele>95.8</ele>
        <time>2018-10-04T07:20:52Z</time>
      </trkpt>
      <trkpt lat="38.2766030" lon="-0.6962290">
        <ele>95.9</ele>
        <time>2018-10-04T07:20:53Z</time>
      </trkpt>
      <trkpt lat="38.2766700" lon="-0.6962120">
        <ele>96.0</ele>
        <time>2018-10-04T07:20:54Z</time>
      </trkpt>
      <trkpt lat="38.2767360" lon="-0.6962040">
        <ele>95.9</ele>
        <time>2018-10-04T07:20:55Z</time>
      </trkpt>
      <trkpt lat="38.2768030" lon="-0.6961960">
        <ele>95.8</ele>
        <time>2018-10-04T07:20:56Z</time>
      </trkpt>
      <trkpt lat="38.2768710" lon="-0.6961900">
        <ele>95.8</ele>
        <time>2018-10-04T07:20:57Z</time>
      </trkpt>
      <trkpt lat="38.2769390" lon="-0.6961860">
        <ele>95.7</ele>
        <time>2018-10-04T07:20:58Z</time>
      </trkpt>
      <trkpt lat="38.2770070" lon="-0.6961830">
        <ele>95.7</ele>
        <time>2018-10-04T07:20:59Z</time>
      </trkpt>
      <trkpt lat="38.2770760" lon="-0.6961820">
        <ele>95.6</ele>
        <time>2018-10-04T07:21:00Z</time>
      </trkpt>
      <trkpt lat="38.2771450" lon="-0.6961800">
        <ele>95.6</ele>
        <time>2018-10-04T07:21:01Z</time>
      </trkpt>
      <trkpt lat="38.2772140" lon="-0.6961800">
        <ele>95.5</ele>
        <time>2018-10-04T07:21:02Z</time>
      </trkpt>
      <trkpt lat="38.2772820" lon="-0.6961800">
        <ele>95.5</ele>
        <time>2018-10-04T07:21:03Z</time>
      </trkpt>
      <trkpt lat="38.2773480" lon="-0.6961810">
        <ele>95.4</ele>
        <time>2018-10-04T07:21:04Z</time>
      </trkpt>
      <trkpt lat="38.2774150" lon="-0.6961830">
        <ele>95.4</ele>
        <time>2018-10-04T07:21:05Z</time>
      </trkpt>
      <trkpt lat="38.2774810" lon="-0.6961880">
        <ele>95.3</ele>
        <time>2018-10-04T07:21:06Z</time>
      </trkpt>
      <trkpt lat="38.2775470" lon="-0.6961980">
        <ele>95.3</ele>
        <time>2018-10-04T07:21:07Z</time>
      </trkpt>
      <trkpt lat="38.2776100" lon="-0.6962110">
        <ele>95.2</ele>
        <time>2018-10-04T07:21:08Z</time>
      </trkpt>
      <trkpt lat="38.2776730" lon="-0.6962250">
        <ele>95.2</ele>
        <time>2018-10-04T07:21:09Z</time>
      </trkpt>
      <trkpt lat="38.2777350" lon="-0.6962450">
        <ele>95.1</ele>
        <time>2018-10-04T07:21:10Z</time>
      </trkpt>
      <trkpt lat="38.2777970" lon="-0.6962700">
        <ele>95.1</ele>
        <time>2018-10-04T07:21:11Z</time>
      </trkpt>
      <trkpt lat="38.2778600" lon="-0.6962950">
        <ele>95.0</ele>
        <time>2018-10-04T07:21:12Z</time>
      </trkpt>
      <trkpt lat="38.2779220" lon="-0.6963200">
        <ele>95.0</ele>
        <time>2018-10-04T07:21:13Z</time>
      </trkpt>
      <trkpt lat="38.2779850" lon="-0.6963470">
        <ele>95.0</ele>
        <time>2018-10-04T07:21:14Z</time>
      </trkpt>
      <trkpt lat="38.2780470" lon="-0.6963740">
        <ele>95.0</ele>
        <time>2018-10-04T07:21:15Z</time>
      </trkpt>
      <trkpt lat="38.2781100" lon="-0.6963990">
        <ele>95.0</ele>
        <time>2018-10-04T07:21:16Z</time>
      </trkpt>
      <trkpt lat="38.2781740" lon="-0.6964210">
        <ele>95.0</ele>
        <time>2018-10-04T07:21:17Z</time>
      </trkpt>
      <trkpt lat="38.2782370" lon="-0.6964430">
        <ele>95.0</ele>
        <time>2018-10-04T07:21:18Z</time>
      </trkpt>
      <trkpt lat="38.2783000" lon="-0.6964610">
        <ele>95.0</ele>
        <time>2018-10-04T07:21:19Z</time>
      </trkpt>
      <trkpt lat="38.2783630" lon="-0.6964780">
        <ele>95.4</ele>
        <time>2018-10-04T07:21:20Z</time>
      </trkpt>
      <trkpt lat="38.2784250" lon="-0.6964950">
        <ele>96.0</ele>
        <time>2018-10-04T07:21:21Z</time>
      </trkpt>
      <trkpt lat="38.2784860" lon="-0.6965120">
        <ele>96.0</ele>
        <time>2018-10-04T07:21:22Z</time>
      </trkpt>
      <trkpt lat="38.2785470" lon="-0.6965270">
        <ele>96.0</ele>
        <time>2018-10-04T07:21:23Z</time>
      </trkpt>
      <trkpt lat="38.2786070" lon="-0.6965450">
        <ele>96.0</ele>
        <time>2018-10-04T07:21:24Z</time>
      </trkpt>
      <trkpt lat="38.2786660" lon="-0.6965630">
        <ele>96.0</ele>
        <time>2018-10-04T07:21:25Z</time>
      </trkpt>
      <trkpt lat="38.2787250" lon="-0.6965850">
        <ele>96.0</ele>
        <time>2018-10-04T07:21:26Z</time>
      </trkpt>
      <trkpt lat="38.2787830" lon="-0.6966070">
        <ele>96.0</ele>
        <time>2018-10-04T07:21:27Z</time>
      </trkpt>
      <trkpt lat="38.2788390" lon="-0.6966300">
        <ele>96.0</ele>
        <time>2018-10-04T07:21:28Z</time>
      </trkpt>
      <trkpt lat="38.2788970" lon="-0.6966480">
        <ele>96.1</ele>
        <time>2018-10-04T07:21:29Z</time>
      </trkpt>
      <trkpt lat="38.2789520" lon="-0.6966690">
        <ele>96.0</ele>
        <time>2018-10-04T07:21:30Z</time>
      </trkpt>
      <trkpt lat="38.2790060" lon="-0.6966910">
        <ele>96.0</ele>
        <time>2018-10-04T07:21:31Z</time>
      </trkpt>
      <trkpt lat="38.2790590" lon="-0.6967090">
        <ele>96.0</ele>
        <time>2018-10-04T07:21:32Z</time>
      </trkpt>
      <trkpt lat="38.2791100" lon="-0.6967220">
        <ele>96.0</ele>
        <time>2018-10-04T07:21:33Z</time>
      </trkpt>
      <trkpt lat="38.2791600" lon="-0.6967300">
        <ele>96.0</ele>
        <time>2018-10-04T07:21:34Z</time>
      </trkpt>
      <trkpt lat="38.2792070" lon="-0.6967310">
        <ele>96.0</ele>
        <time>2018-10-04T07:21:35Z</time>
      </trkpt>
      <trkpt lat="38.2792510" lon="-0.6967210">
        <ele>96.5</ele>
        <time>2018-10-04T07:21:36Z</time>
      </trkpt>
      <trkpt lat="38.2792900" lon="-0.6966980">
        <ele>96.9</ele>
        <time>2018-10-04T07:21:37Z</time>
      </trkpt>
      <trkpt lat="38.2793200" lon="-0.6966660">
        <ele>97.3</ele>
        <time>2018-10-04T07:21:38Z</time>
      </trkpt>
      <trkpt lat="38.2793450" lon="-0.6966240">
        <ele>97.8</ele>
        <time>2018-10-04T07:21:39Z</time>
      </trkpt>
      <trkpt lat="38.2793630" lon="-0.6965730">
        <ele>98.2</ele>
        <time>2018-10-04T07:21:40Z</time>
      </trkpt>
      <trkpt lat="38.2793770" lon="-0.6965140">
        <ele>98.7</ele>
        <time>2018-10-04T07:21:41Z</time>
      </trkpt>
      <trkpt lat="38.2793890" lon="-0.6964500">
        <ele>99.0</ele>
        <time>2018-10-04T07:21:42Z</time>
      </trkpt>
      <trkpt lat="38.2794060" lon="-0.6963840">
        <ele>99.0</ele>
        <time>2018-10-04T07:21:43Z</time>
      </trkpt>
      <trkpt lat="38.2794290" lon="-0.6963190">
        <ele>99.0</ele>
        <time>2018-10-04T07:21:44Z</time>
      </trkpt>
      <trkpt lat="38.2794560" lon="-0.6962550">
        <ele>99.0</ele>
        <time>2018-10-04T07:21:45Z</time>
      </trkpt>
      <trkpt lat="38.2794920" lon="-0.6961960">
        <ele>99.0</ele>
        <time>2018-10-04T07:21:46Z</time>
      </trkpt>
      <trkpt lat="38.2795350" lon="-0.6961430">
        <ele>99.0</ele>
        <time>2018-10-04T07:21:47Z</time>
      </trkpt>
      <trkpt lat="38.2795840" lon="-0.6961010">
        <ele>99.0</ele>
        <time>2018-10-04T07:21:48Z</time>
      </trkpt>
      <trkpt lat="38.2796380" lon="-0.6960690">
        <ele>99.0</ele>
        <time>2018-10-04T07:21:49Z</time>
      </trkpt>
      <trkpt lat="38.2796970" lon="-0.6960470">
        <ele>99.0</ele>
        <time>2018-10-04T07:21:50Z</time>
      </trkpt>
      <trkpt lat="38.2797570" lon="-0.6960390">
        <ele>99.0</ele>
        <time>2018-10-04T07:21:51Z</time>
      </trkpt>
      <trkpt lat="38.2798160" lon="-0.6960460">
        <ele>99.0</ele>
        <time>2018-10-04T07:21:52Z</time>
      </trkpt>
      <trkpt lat="38.2798740" lon="-0.6960660">
        <ele>99.0</ele>
        <time>2018-10-04T07:21:53Z</time>
      </trkpt>
      <trkpt lat="38.2799290" lon="-0.6961000">
        <ele>99.0</ele>
        <time>2018-10-04T07:21:54Z</time>
      </trkpt>
      <trkpt lat="38.2799830" lon="-0.6961420">
        <ele>99.4</ele>
        <time>2018-10-04T07:21:55Z</time>
      </trkpt>
      <trkpt lat="38.2800280" lon="-0.6961950">
        <ele>99.7</ele>
        <time>2018-10-04T07:21:56Z</time>
      </trkpt>
      <trkpt lat="38.2800660" lon="-0.6962580">
        <ele>100.0</ele>
        <time>2018-10-04T07:21:57Z</time>
      </trkpt>
      <trkpt lat="38.2800940" lon="-0.6963300">
        <ele>100.3</ele>
        <time>2018-10-04T07:21:58Z</time>
      </trkpt>
      <trkpt lat="38.2801100" lon="-0.6964100">
        <ele>100.7</ele>
        <time>2018-10-04T07:21:59Z</time>
      </trkpt>
      <trkpt lat="38.2801160" lon="-0.6964880">
        <ele>101.0</ele>
        <time>2018-10-04T07:22:00Z</time>
      </trkpt>
      <trkpt lat="38.2801060" lon="-0.6965690">
        <ele>101.0</ele>
        <time>2018-10-04T07:22:01Z</time>
      </trkpt>
      <trkpt lat="38.2800890" lon="-0.6966490">
        <ele>101.0</ele>
        <time>2018-10-04T07:22:02Z</time>
      </trkpt>
      <trkpt lat="38.2800600" lon="-0.6967270">
        <ele>101.0</ele>
        <time>2018-10-04T07:22:03Z</time>
      </trkpt>
      <trkpt lat="38.2800220" lon="-0.6967980">
        <ele>101.0</ele>
        <time>2018-10-04T07:22:04Z</time>
      </trkpt>
      <trkpt lat="38.2799760" lon="-0.6968650">
        <ele>98.2</ele>
        <time>2018-10-04T07:22:05Z</time>
      </trkpt>
      <trkpt lat="38.2799220" lon="-0.6969310">
        <ele>96.8</ele>
        <time>2018-10-04T07:22:06Z</time>
      </trkpt>
      <trkpt lat="38.2798720" lon="-0.6970030">
        <ele>95.8</ele>
        <time>2018-10-04T07:22:07Z</time>
      </trkpt>
      <trkpt lat="38.2798290" lon="-0.6970840">
        <ele>95.7</ele>
        <time>2018-10-04T07:22:08Z</time>
      </trkpt>
      <trkpt lat="38.2798000" lon="-0.6971720">
        <ele>95.5</ele>
        <time>2018-10-04T07:22:09Z</time>
      </trkpt>
      <trkpt lat="38.2797800" lon="-0.6972620">
        <ele>95.4</ele>
        <time>2018-10-04T07:22:10Z</time>
      </trkpt>
      <trkpt lat="38.2797680" lon="-0.6973510">
        <ele>95.2</ele>
        <time>2018-10-04T07:22:11Z</time>
      </trkpt>
      <trkpt lat="38.2797620" lon="-0.6974420">
        <ele>95.1</ele>
        <time>2018-10-04T07:22:12Z</time>
      </trkpt>
      <trkpt lat="38.2797580" lon="-0.6975320">
        <ele>94.9</ele>
        <time>2018-10-04T07:22:13Z</time>
      </trkpt>
      <trkpt lat="38.2797550" lon="-0.6976230">
        <ele>94.8</ele>
        <time>2018-10-04T07:22:14Z</time>
      </trkpt>
      <trkpt lat="38.2797520" lon="-0.6977140">
        <ele>94.6</ele>
        <time>2018-10-04T07:22:15Z</time>
      </trkpt>
      <trkpt lat="38.2797460" lon="-0.6978060">
        <ele>94.5</ele>
        <time>2018-10-04T07:22:16Z</time>
      </trkpt>
      <trkpt lat="38.2797410" lon="-0.6978980">
        <ele>94.3</ele>
        <time>2018-10-04T07:22:17Z</time>
      </trkpt>
      <trkpt lat="38.2797360" lon="-0.6979900">
        <ele>94.1</ele>
        <time>2018-10-04T07:22:18Z</time>
      </trkpt>
      <trkpt lat="38.2797320" lon="-0.6980830">
        <ele>94.0</ele>
        <time>2018-10-04T07:22:19Z</time>
      </trkpt>
      <trkpt lat="38.2797270" lon="-0.6981760">
        <ele>93.8</ele>
        <time>2018-10-04T07:22:20Z</time>
      </trkpt>
      <trkpt lat="38.2797220" lon="-0.6982690">
        <ele>93.7</ele>
        <time>2018-10-04T07:22:21Z</time>
      </trkpt>
      <trkpt lat="38.2797170" lon="-0.6983630">
        <ele>93.5</ele>
        <time>2018-10-04T07:22:22Z</time>
      </trkpt>
      <trkpt lat="38.2797100" lon="-0.6984570">
        <ele>93.3</ele>
        <time>2018-10-04T07:22:23Z</time>
      </trkpt>
      <trkpt lat="38.2797010" lon="-0.6985490">
        <ele>93.0</ele>
        <time>2018-10-04T07:22:24Z</time>
      </trkpt>
      <trkpt lat="38.2796950" lon="-0.6986390">
        <ele>92.7</ele>
        <time>2018-10-04T07:22:25Z</time>
      </trkpt>
      <trkpt lat="38.2796900" lon="-0.6987300">
        <ele>92.4</ele>
        <time>2018-10-04T07:22:26Z</time>
      </trkpt>
      <trkpt lat="38.2796840" lon="-0.6988210">
        <ele>92.0</ele>
        <time>2018-10-04T07:22:27Z</time>
      </trkpt>
      <trkpt lat="38.2796770" lon="-0.6989130">
        <ele>91.6</ele>
        <time>2018-10-04T07:22:28Z</time>
      </trkpt>
      <trkpt lat="38.2796700" lon="-0.6990030">
        <ele>91.2</ele>
        <time>2018-10-04T07:22:29Z</time>
      </trkpt>
      <trkpt lat="38.2796630" lon="-0.6990940">
        <ele>90.8</ele>
        <time>2018-10-04T07:22:30Z</time>
      </trkpt>
      <trkpt lat="38.2796550" lon="-0.6991840">
        <ele>90.4</ele>
        <time>2018-10-04T07:22:31Z</time>
      </trkpt>
      <trkpt lat="38.2796480" lon="-0.6992760">
        <ele>90.1</ele>
        <time>2018-10-04T07:22:32Z</time>
      </trkpt>
      <trkpt lat="38.2796400" lon="-0.6993670">
        <ele>89.8</ele>
        <time>2018-10-04T07:22:33Z</time>
      </trkpt>
      <trkpt lat="38.2796330" lon="-0.6994570">
        <ele>89.6</ele>
        <time>2018-10-04T07:22:34Z</time>
      </trkpt>
      <trkpt lat="38.2796250" lon="-0.6995470">
        <ele>89.4</ele>
        <time>2018-10-04T07:22:35Z</time>
      </trkpt>
      <trkpt lat="38.2796170" lon="-0.6996370">
        <ele>89.3</ele>
        <time>2018-10-04T07:22:36Z</time>
      </trkpt>
      <trkpt lat="38.2796090" lon="-0.6997260">
        <ele>89.1</ele>
        <time>2018-10-04T07:22:37Z</time>
      </trkpt>
      <trkpt lat="38.2796020" lon="-0.6998150">
        <ele>89.0</ele>
        <time>2018-10-04T07:22:38Z</time>
      </trkpt>
      <trkpt lat="38.2795960" lon="-0.6999020">
        <ele>88.8</ele>
        <time>2018-10-04T07:22:39Z</time>
      </trkpt>
      <trkpt lat="38.2795880" lon="-0.6999890">
        <ele>88.7</ele>
        <time>2018-10-04T07:22:40Z</time>
      </trkpt>
      <trkpt lat="38.2795790" lon="-0.7000760">
        <ele>88.5</ele>
        <time>2018-10-04T07:22:41Z</time>
      </trkpt>
      <trkpt lat="38.2795720" lon="-0.7001640">
        <ele>88.4</ele>
        <time>2018-10-04T07:22:42Z</time>
      </trkpt>
      <trkpt lat="38.2795640" lon="-0.7002510">
        <ele>88.2</ele>
        <time>2018-10-04T07:22:43Z</time>
      </trkpt>
      <trkpt lat="38.2795550" lon="-0.7003370">
        <ele>88.1</ele>
        <time>2018-10-04T07:22:44Z</time>
      </trkpt>
      <trkpt lat="38.2795470" lon="-0.7004210">
        <ele>88.0</ele>
        <time>2018-10-04T07:22:45Z</time>
      </trkpt>
      <trkpt lat="38.2795410" lon="-0.7005040">
        <ele>87.9</ele>
        <time>2018-10-04T07:22:46Z</time>
      </trkpt>
      <trkpt lat="38.2795340" lon="-0.7005860">
        <ele>87.8</ele>
        <time>2018-10-04T07:22:47Z</time>
      </trkpt>
      <trkpt lat="38.2795280" lon="-0.7006650">
        <ele>87.8</ele>
        <time>2018-10-04T07:22:48Z</time>
      </trkpt>
      <trkpt lat="38.2795220" lon="-0.7007450">
        <ele>87.9</ele>
        <time>2018-10-04T07:22:49Z</time>
      </trkpt>
      <trkpt lat="38.2795150" lon="-0.7008240">
        <ele>88.0</ele>
        <time>2018-10-04T07:22:50Z</time>
      </trkpt>
      <trkpt lat="38.2795090" lon="-0.7009020">
        <ele>88.2</ele>
        <time>2018-10-04T07:22:51Z</time>
      </trkpt>
      <trkpt lat="38.2795010" lon="-0.7009810">
        <ele>88.4</ele>
        <time>2018-10-04T07:22:52Z</time>
      </trkpt>
      <trkpt lat="38.2794940" lon="-0.7010590">
        <ele>88.6</ele>
        <time>2018-10-04T07:22:53Z</time>
      </trkpt>
      <trkpt lat="38.2794870" lon="-0.7011370">
        <ele>88.8</ele>
        <time>2018-10-04T07:22:54Z</time>
      </trkpt>
      <trkpt lat="38.2794810" lon="-0.7012150">
        <ele>88.9</ele>
        <time>2018-10-04T07:22:55Z</time>
      </trkpt>
      <trkpt lat="38.2794740" lon="-0.7012940">
        <ele>89.0</ele>
        <time>2018-10-04T07:22:56Z</time>
      </trkpt>
      <trkpt lat="38.2794670" lon="-0.7013740">
        <ele>89.4</ele>
        <time>2018-10-04T07:22:57Z</time>
      </trkpt>
      <trkpt lat="38.2794590" lon="-0.7014530">
        <ele>89.9</ele>
        <time>2018-10-04T07:22:58Z</time>
      </trkpt>
      <trkpt lat="38.2794520" lon="-0.7015320">
        <ele>90.5</ele>
        <time>2018-10-04T07:22:59Z</time>
      </trkpt>
      <trkpt lat="38.2794450" lon="-0.7016090">
        <ele>91.0</ele>
        <time>2018-10-04T07:23:00Z</time>
      </trkpt>
      <trkpt lat="38.2794400" lon="-0.7016860">
        <ele>91.7</ele>
        <time>2018-10-04T07:23:01Z</time>
      </trkpt>
      <trkpt lat="38.2794330" lon="-0.7017630">
        <ele>92.4</ele>
        <time>2018-10-04T07:23:02Z</time>
      </trkpt>
      <trkpt lat="38.2794260" lon="-0.7018400">
        <ele>93.1</ele>
        <time>2018-10-04T07:23:03Z</time>
      </trkpt>
      <trkpt lat="38.2794190" lon="-0.7019170">
        <ele>93.8</ele>
        <time>2018-10-04T07:23:04Z</time>
      </trkpt>
      <trkpt lat="38.2794120" lon="-0.7019930">
        <ele>94.5</ele>
        <time>2018-10-04T07:23:05Z</time>
      </trkpt>
      <trkpt lat="38.2794060" lon="-0.7020670">
        <ele>95.2</ele>
        <time>2018-10-04T07:23:06Z</time>
      </trkpt>
      <trkpt lat="38.2793990" lon="-0.7021420">
        <ele>95.9</ele>
        <time>2018-10-04T07:23:07Z</time>
      </trkpt>
      <trkpt lat="38.2793930" lon="-0.7022160">
        <ele>96.6</ele>
        <time>2018-10-04T07:23:08Z</time>
      </trkpt>
      <trkpt lat="38.2793870" lon="-0.7022900">
        <ele>97.2</ele>
        <time>2018-10-04T07:23:09Z</time>
      </trkpt>
      <trkpt lat="38.2793820" lon="-0.7023640">
        <ele>97.9</ele>
        <time>2018-10-04T07:23:10Z</time>
      </trkpt>
      <trkpt lat="38.2793750" lon="-0.7024380">
        <ele>98.5</ele>
        <time>2018-10-04T07:23:11Z</time>
      </trkpt>
      <trkpt lat="38.2793680" lon="-0.7025120">
        <ele>99.2</ele>
        <time>2018-10-04T07:23:12Z</time>
      </trkpt>
      <trkpt lat="38.2793610" lon="-0.7025860">
        <ele>100.0</ele>
        <time>2018-10-04T07:23:13Z</time>
      </trkpt>
      <trkpt lat="38.2793550" lon="-0.7026580">
        <ele>100.7</ele>
        <time>2018-10-04T07:23:14Z</time>
      </trkpt>
      <trkpt lat="38.2793480" lon="-0.7027310">
        <ele>101.5</ele>
        <time>2018-10-04T07:23:15Z</time>
      </trkpt>
      <trkpt lat="38.2793420" lon="-0.7028040">
        <ele>103.0</ele>
        <time>2018-10-04T07:23:16Z</time>
      </trkpt>
      <trkpt lat="38.2793360" lon="-0.7028770">
        <ele>103.8</ele>
        <time>2018-10-04T07:23:17Z</time>
      </trkpt>
      <trkpt lat="38.2793290" lon="-0.7029500">
        <ele>104.6</ele>
        <time>2018-10-04T07:23:18Z</time>
      </trkpt>
      <trkpt lat="38.2793220" lon="-0.7030230">
        <ele>105.4</ele>
        <time>2018-10-04T07:23:19Z</time>
      </trkpt>
      <trkpt lat="38.2793170" lon="-0.7030950">
        <ele>106.3</ele>
        <time>2018-10-04T07:23:20Z</time>
      </trkpt>
      <trkpt lat="38.2793200" lon="-0.7031650">
        <ele>107.1</ele>
        <time>2018-10-04T07:23:21Z</time>
      </trkpt>
      <trkpt lat="38.2793320" lon="-0.7032310">
        <ele>108.0</ele>
        <time>2018-10-04T07:23:22Z</time>
      </trkpt>
      <trkpt lat="38.2793480" lon="-0.7032960">
        <ele>108.9</ele>
        <time>2018-10-04T07:23:23Z</time>
      </trkpt>
      <trkpt lat="38.2793690" lon="-0.7033610">
        <ele>109.8</ele>
        <time>2018-10-04T07:23:24Z</time>
      </trkpt>
      <trkpt lat="38.2793970" lon="-0.7034240">
        <ele>110.8</ele>
        <time>2018-10-04T07:23:25Z</time>
      </trkpt>
      <trkpt lat="38.2794260" lon="-0.7034860">
        <ele>111.0</ele>
        <time>2018-10-04T07:23:26Z</time>
      </trkpt>
      <trkpt lat="38.2794540" lon="-0.7035490">
        <ele>111.0</ele>
        <time>2018-10-04T07:23:27Z</time>
      </trkpt>
      <trkpt lat="38.2794780" lon="-0.7036150">
        <ele>111.0</ele>
        <time>2018-10-04T07:23:28Z</time>
      </trkpt>
      <trkpt lat="38.2795020" lon="-0.7036800">
        <ele>111.0</ele>
        <time>2018-10-04T07:23:29Z</time>
      </trkpt>
      <trkpt lat="38.2795280" lon="-0.7037430">
        <ele>111.0</ele>
        <time>2018-10-04T07:23:30Z</time>
      </trkpt>
      <trkpt lat="38.2795610" lon="-0.7037990">
        <ele>110.9</ele>
        <time>2018-10-04T07:23:31Z</time>
      </trkpt>
      <trkpt lat="38.2796020" lon="-0.7038470">
        <ele>110.9</ele>
        <time>2018-10-04T07:23:32Z</time>
      </trkpt>
      <trkpt lat="38.2796490" lon="-0.7038880">
        <ele>110.8</ele>
        <time>2018-10-04T07:23:33Z</time>
      </trkpt>
      <trkpt lat="38.2796970" lon="-0.7039240">
        <ele>110.8</ele>
        <time>2018-10-04T07:23:34Z</time>
      </trkpt>
      <trkpt lat="38.2797470" lon="-0.7039640">
        <ele>110.8</ele>
        <time>2018-10-04T07:23:35Z</time>
      </trkpt>
      <trkpt lat="38.2797950" lon="-0.7040050">
        <ele>110.7</ele>
        <time>2018-10-04T07:23:36Z</time>
      </trkpt>
      <trkpt lat="38.2798420" lon="-0.7040470">
        <ele>110.7</ele>
        <time>2018-10-04T07:23:37Z</time>
      </trkpt>
      <trkpt lat="38.2798870" lon="-0.7040910">
        <ele>110.6</ele>
        <time>2018-10-04T07:23:38Z</time>
      </trkpt>
      <trkpt lat="38.2799290" lon="-0.7041380">
        <ele>110.6</ele>
        <time>2018-10-04T07:23:39Z</time>
      </trkpt>
      <trkpt lat="38.2799720" lon="-0.7041840">
        <ele>110.5</ele>
        <time>2018-10-04T07:23:40Z</time>
      </trkpt>
      <trkpt lat="38.2800130" lon="-0.7042310">
        <ele>110.5</ele>
        <time>2018-10-04T07:23:41Z</time>
      </trkpt>
      <trkpt lat="38.2800510" lon="-0.7042820">
        <ele>110.4</ele>
        <time>2018-10-04T07:23:42Z</time>
      </trkpt>
      <trkpt lat="38.2800850" lon="-0.7043340">
        <ele>110.4</ele>
        <time>2018-10-04T07:23:43Z</time>
      </trkpt>
      <trkpt lat="38.2801200" lon="-0.7043870">
        <ele>110.3</ele>
        <time>2018-10-04T07:23:44Z</time>
      </trkpt>
      <trkpt lat="38.2801540" lon="-0.7044400">
        <ele>110.3</ele>
        <time>2018-10-04T07:23:45Z</time>
      </trkpt>
      <trkpt lat="38.2801910" lon="-0.7044940">
        <ele>110.2</ele>
        <time>2018-10-04T07:23:46Z</time>
      </trkpt>
      <trkpt lat="38.2802260" lon="-0.7045470">
        <ele>110.2</ele>
        <time>2018-10-04T07:23:47Z</time>
      </trkpt>
      <trkpt lat="38.2802650" lon="-0.7045990">
        <ele>110.1</ele>
        <time>2018-10-04T07:23:48Z</time>
      </trkpt>
      <trkpt lat="38.2803070" lon="-0.7046520">
        <ele>110.1</ele>
        <time>2018-10-04T07:23:49Z</time>
      </trkpt>
      <trkpt lat="38.2803520" lon="-0.7047050">
        <ele>110.0</ele>
        <time>2018-10-04T07:23:50Z</time>
      </trkpt>
      <trkpt lat="38.2804030" lon="-0.7047570">
        <ele>110.5</ele>
        <time>2018-10-04T07:23:51Z</time>
      </trkpt>
      <trkpt lat="38.2804620" lon="-0.7048060">
        <ele>110.8</ele>
        <time>2018-10-04T07:23:52Z</time>
      </trkpt>
      <trkpt lat="38.2805240" lon="-0.7048550">
        <ele>111.0</ele>
        <time>2018-10-04T07:23:53Z</time>
      </trkpt>
      <trkpt lat="38.2805920" lon="-0.7049050">
        <ele>111.3</ele>
        <time>2018-10-04T07:23:54Z</time>
      </trkpt>
      <trkpt lat="38.2806610" lon="-0.7049560">
        <ele>111.5</ele>
        <time>2018-10-04T07:23:55Z</time>
      </trkpt>
      <trkpt lat="38.2807310" lon="-0.7050090">
        <ele>111.8</ele>
        <time>2018-10-04T07:23:56Z</time>
      </trkpt>
      <trkpt lat="38.2808010" lon="-0.7050610">
        <ele>112.0</ele>
        <time>2018-10-04T07:23:57Z</time>
      </trkpt>
      <trkpt lat="38.2808690" lon="-0.7051140">
        <ele>112.4</ele>
        <time>2018-10-04T07:23:58Z</time>
      </trkpt>
      <trkpt lat="38.2809380" lon="-0.7051680">
        <ele>112.8</ele>
        <time>2018-10-04T07:23:59Z</time>
      </trkpt>
      <trkpt lat="38.2810060" lon="-0.7052240">
        <ele>113.2</ele>
        <time>2018-10-04T07:24:00Z</time>
      </trkpt>
      <trkpt lat="38.2810740" lon="-0.7052840">
        <ele>113.7</ele>
        <time>2018-10-04T07:24:01Z</time>
      </trkpt>
      <trkpt lat="38.2811370" lon="-0.7053520">
        <ele>114.0</ele>
        <time>2018-10-04T07:24:02Z</time>
      </trkpt>
      <trkpt lat="38.2811970" lon="-0.7054230">
        <ele>114.0</ele>
        <time>2018-10-04T07:24:03Z</time>
      </trkpt>
      <trkpt lat="38.2812600" lon="-0.7054900">
        <ele>113.9</ele>
        <time>2018-10-04T07:24:04Z</time>
      </trkpt>
      <trkpt lat="38.2813210" lon="-0.7055620">
        <ele>113.6</ele>
        <time>2018-10-04T07:24:05Z</time>
      </trkpt>
      <trkpt lat="38.2813750" lon="-0.7056400">
        <ele>113.5</ele>
        <time>2018-10-04T07:24:06Z</time>
      </trkpt>
      <trkpt lat="38.2814240" lon="-0.7057190">
        <ele>113.4</ele>
        <time>2018-10-04T07:24:07Z</time>
      </trkpt>
      <trkpt lat="38.2814700" lon="-0.7058010">
        <ele>113.4</ele>
        <time>2018-10-04T07:24:08Z</time>
      </trkpt>
      <trkpt lat="38.2815110" lon="-0.7058850">
        <ele>113.3</ele>
        <time>2018-10-04T07:24:09Z</time>
      </trkpt>
      <trkpt lat="38.2815460" lon="-0.7059690">
        <ele>113.3</ele>
        <time>2018-10-04T07:24:10Z</time>
      </trkpt>
      <trkpt lat="38.2815760" lon="-0.7060600">
        <ele>113.2</ele>
        <time>2018-10-04T07:24:11Z</time>
      </trkpt>
      <trkpt lat="38.2816100" lon="-0.7061450">
        <ele>113.2</ele>
        <time>2018-10-04T07:24:12Z</time>
      </trkpt>
      <trkpt lat="38.2816460" lon="-0.7062270">
        <ele>113.2</ele>
        <time>2018-10-04T07:24:13Z</time>
      </trkpt>
      <trkpt lat="38.2816820" lon="-0.7063050">
        <ele>113.2</ele>
        <time>2018-10-04T07:24:14Z</time>
      </trkpt>
      <trkpt lat="38.2817170" lon="-0.7063810">
        <ele>113.2</ele>
        <time>2018-10-04T07:24:15Z</time>
      </trkpt>
      <trkpt lat="38.2817510" lon="-0.7064540">
        <ele>113.1</ele>
        <time>2018-10-04T07:24:16Z</time>
      </trkpt>
      <trkpt lat="38.2817840" lon="-0.7065230">
        <ele>113.1</ele>
        <time>2018-10-04T07:24:17Z</time>
      </trkpt>
      <trkpt lat="38.2818170" lon="-0.7065860">
        <ele>113.1</ele>
        <time>2018-10-04T07:24:18Z</time>
      </trkpt>
      <trkpt lat="38.2818490" lon="-0.7066480">
        <ele>113.1</ele>
        <time>2018-10-04T07:24:19Z</time>
      </trkpt>
      <trkpt lat="38.2818800" lon="-0.7067090">
        <ele>113.1</ele>
        <time>2018-10-04T07:24:20Z</time>
      </trkpt>
      <trkpt lat="38.2819120" lon="-0.7067690">
        <ele>113.1</ele>
        <time>2018-10-04T07:24:21Z</time>
      </trkpt>
      <trkpt lat="38.2819450" lon="-0.7068240">
        <ele>113.1</ele>
        <time>2018-10-04T07:24:22Z</time>
      </trkpt>
      <trkpt lat="38.2819810" lon="-0.7068720">
        <ele>113.1</ele>
        <time>2018-10-04T07:24:23Z</time>
      </trkpt>
      <trkpt lat="38.2820190" lon="-0.7069140">
        <ele>113.1</ele>
        <time>2018-10-04T07:24:24Z</time>
      </trkpt>
      <trkpt lat="38.2820590" lon="-0.7069530">
        <ele>113.2</ele>
        <time>2018-10-04T07:24:25Z</time>
      </trkpt>
      <trkpt lat="38.2821030" lon="-0.7069910">
        <ele>113.3</ele>
        <time>2018-10-04T07:24:26Z</time>
      </trkpt>
      <trkpt lat="38.2821470" lon="-0.7070270">
        <ele>113.4</ele>
        <time>2018-10-04T07:24:27Z</time>
      </trkpt>
      <trkpt lat="38.2821950" lon="-0.7070620">
        <ele>113.5</ele>
        <time>2018-10-04T07:24:28Z</time>
      </trkpt>
      <trkpt lat="38.2822440" lon="-0.7070950">
        <ele>113.7</ele>
        <time>2018-10-04T07:24:29Z</time>
      </trkpt>
      <trkpt lat="38.2822940" lon="-0.7071260">
        <ele>114.0</ele>
        <time>2018-10-04T07:24:30Z</time>
      </trkpt>
      <trkpt lat="38.2823420" lon="-0.7071590">
        <ele>114.2</ele>
        <time>2018-10-04T07:24:31Z</time>
      </trkpt>
      <trkpt lat="38.2823930" lon="-0.7071940">
        <ele>114.5</ele>
        <time>2018-10-04T07:24:32Z</time>
      </trkpt>
      <trkpt lat="38.2824410" lon="-0.7072330">
        <ele>114.6</ele>
        <time>2018-10-04T07:24:33Z</time>
      </trkpt>
      <trkpt lat="38.2824900" lon="-0.7072730">
        <ele>114.7</ele>
        <time>2018-10-04T07:24:34Z</time>
      </trkpt>
      <trkpt lat="38.2825400" lon="-0.7073140">
        <ele>114.8</ele>
        <time>2018-10-04T07:24:35Z</time>
      </trkpt>
      <trkpt lat="38.2825890" lon="-0.7073550">
        <ele>114.8</ele>
        <time>2018-10-04T07:24:36Z</time>
      </trkpt>
      <trkpt lat="38.2826390" lon="-0.7073970">
        <ele>114.9</ele>
        <time>2018-10-04T07:24:37Z</time>
      </trkpt>
      <trkpt lat="38.2826870" lon="-0.7074380">
        <ele>114.9</ele>
        <time>2018-10-04T07:24:38Z</time>
      </trkpt>
      <trkpt lat="38.2827340" lon="-0.7074800">
        <ele>114.9</ele>
        <time>2018-10-04T07:24:39Z</time>
      </trkpt>
      <trkpt lat="38.2827810" lon="-0.7075230">
        <ele>115.0</ele>
        <time>2018-10-04T07:24:40Z</time>
      </trkpt>
      <trkpt lat="38.2828280" lon="-0.7075660">
        <ele>115.0</ele>
        <time>2018-10-04T07:24:41Z</time>
      </trkpt>
      <trkpt lat="38.2828750" lon="-0.7076080">
        <ele>115.1</ele>
        <time>2018-10-04T07:24:42Z</time>
      </trkpt>
      <trkpt lat="38.2829210" lon="-0.7076500">
        <ele>115.1</ele>
        <time>2018-10-04T07:24:43Z</time>
      </trkpt>
      <trkpt lat="38.2829650" lon="-0.7076940">
        <ele>115.2</ele>
        <time>2018-10-04T07:24:44Z</time>
      </trkpt>
      <trkpt lat="38.2830080" lon="-0.7077410">
        <ele>115.3</ele>
        <time>2018-10-04T07:24:45Z</time>
      </trkpt>
      <trkpt lat="38.2830510" lon="-0.7077890">
        <ele>115.3</ele>
        <time>2018-10-04T07:24:46Z</time>
      </trkpt>
      <trkpt lat="38.2830930" lon="-0.7078380">
        <ele>115.4</ele>
        <time>2018-10-04T07:24:47Z</time>
      </trkpt>
      <trkpt lat="38.2831320" lon="-0.7078880">
        <ele>115.5</ele>
        <time>2018-10-04T07:24:48Z</time>
      </trkpt>
      <trkpt lat="38.2831720" lon="-0.7079380">
        <ele>115.7</ele>
        <time>2018-10-04T07:24:49Z</time>
      </trkpt>
      <trkpt lat="38.2832110" lon="-0.7079880">
        <ele>115.9</ele>
        <time>2018-10-04T07:24:50Z</time>
      </trkpt>
      <trkpt lat="38.2832500" lon="-0.7080380">
        <ele>116.0</ele>
        <time>2018-10-04T07:24:51Z</time>
      </trkpt>
      <trkpt lat="38.2832920" lon="-0.7080890">
        <ele>115.9</ele>
        <time>2018-10-04T07:24:52Z</time>
      </trkpt>
      <trkpt lat="38.2833330" lon="-0.7081410">
        <ele>115.9</ele>
        <time>2018-10-04T07:24:53Z</time>
      </trkpt>
      <trkpt lat="38.2833740" lon="-0.7081930">
        <ele>115.8</ele>
        <time>2018-10-04T07:24:54Z</time>
      </trkpt>
      <trkpt lat="38.2834150" lon="-0.7082430">
        <ele>115.7</ele>
        <time>2018-10-04T07:24:55Z</time>
      </trkpt>
      <trkpt lat="38.2834570" lon="-0.7082920">
        <ele>115.7</ele>
        <time>2018-10-04T07:24:56Z</time>
      </trkpt>
      <trkpt lat="38.2834980" lon="-0.7083420">
        <ele>115.7</ele>
        <time>2018-10-04T07:24:57Z</time>
      </trkpt>
      <trkpt lat="38.2835380" lon="-0.7083930">
        <ele>115.6</ele>
        <time>2018-10-04T07:24:58Z</time>
      </trkpt>
      <trkpt lat="38.2835790" lon="-0.7084430">
        <ele>115.6</ele>
        <time>2018-10-04T07:24:59Z</time>
      </trkpt>
      <trkpt lat="38.2836200" lon="-0.7084920">
        <ele>115.6</ele>
        <time>2018-10-04T07:25:00Z</time>
      </trkpt>
      <trkpt lat="38.2836590" lon="-0.7085410">
        <ele>115.6</ele>
        <time>2018-10-04T07:25:01Z</time>
      </trkpt>
      <trkpt lat="38.2836980" lon="-0.7085880">
        <ele>115.5</ele>
        <time>2018-10-04T07:25:02Z</time>
      </trkpt>
      <trkpt lat="38.2837400" lon="-0.7086350">
        <ele>115.5</ele>
        <time>2018-10-04T07:25:03Z</time>
      </trkpt>
      <trkpt lat="38.2837790" lon="-0.7086790">
        <ele>115.5</ele>
        <time>2018-10-04T07:25:04Z</time>
      </trkpt>
      <trkpt lat="38.2838210" lon="-0.7087210">
        <ele>115.5</ele>
        <time>2018-10-04T07:25:05Z</time>
      </trkpt>
      <trkpt lat="38.2838660" lon="-0.7087580">
        <ele>115.5</ele>
        <time>2018-10-04T07:25:06Z</time>
      </trkpt>
      <trkpt lat="38.2839120" lon="-0.7087930">
        <ele>115.5</ele>
        <time>2018-10-04T07:25:07Z</time>
      </trkpt>
      <trkpt lat="38.2839610" lon="-0.7088240">
        <ele>115.4</ele>
        <time>2018-10-04T07:25:08Z</time>
      </trkpt>
      <trkpt lat="38.2840130" lon="-0.7088480">
        <ele>115.3</ele>
        <time>2018-10-04T07:25:09Z</time>
      </trkpt>
      <trkpt lat="38.2840680" lon="-0.7088650">
        <ele>115.2</ele>
        <time>2018-10-04T07:25:10Z</time>
      </trkpt>
      <trkpt lat="38.2841230" lon="-0.7088800">
        <ele>115.1</ele>
        <time>2018-10-04T07:25:11Z</time>
      </trkpt>
      <trkpt lat="38.2841790" lon="-0.7088890">
        <ele>115.0</ele>
        <time>2018-10-04T07:25:12Z</time>
      </trkpt>
      <trkpt lat="38.2842310" lon="-0.7088940">
        <ele>114.8</ele>
        <time>2018-10-04T07:25:13Z</time>
      </trkpt>
      <trkpt lat="38.2842850" lon="-0.7089000">
        <ele>114.7</ele>
        <time>2018-10-04T07:25:14Z</time>
      </trkpt>
      <trkpt lat="38.2843390" lon="-0.7089000">
        <ele>114.6</ele>
        <time>2018-10-04T07:25:15Z</time>
      </trkpt>
      <trkpt lat="38.2843950" lon="-0.7089000">
        <ele>114.5</ele>
        <time>2018-10-04T07:25:16Z</time>
      </trkpt>
      <trkpt lat="38.2844510" lon="-0.7088990">
        <ele>114.5</ele>
        <time>2018-10-04T07:25:17Z</time>
      </trkpt>
      <trkpt lat="38.2845070" lon="-0.7088990">
        <ele>114.5</ele>
        <time>2018-10-04T07:25:18Z</time>
      </trkpt>
      <trkpt lat="38.2845600" lon="-0.7089020">
        <ele>114.4</ele>
        <time>2018-10-04T07:25:19Z</time>
      </trkpt>
      <trkpt lat="38.2846130" lon="-0.7089060">
        <ele>114.4</ele>
        <time>2018-10-04T07:25:20Z</time>
      </trkpt>
      <trkpt lat="38.2846650" lon="-0.7089100">
        <ele>114.3</ele>
        <time>2018-10-04T07:25:21Z</time>
      </trkpt>
      <trkpt lat="38.2847200" lon="-0.7089140">
        <ele>114.3</ele>
        <time>2018-10-04T07:25:22Z</time>
      </trkpt>
      <trkpt lat="38.2847730" lon="-0.7089220">
        <ele>114.2</ele>
        <time>2018-10-04T07:25:23Z</time>
      </trkpt>
      <trkpt lat="38.2848250" lon="-0.7089280">
        <ele>114.2</ele>
        <time>2018-10-04T07:25:24Z</time>
      </trkpt>
      <trkpt lat="38.2848790" lon="-0.7089330">
        <ele>114.2</ele>
        <time>2018-10-04T07:25:25Z</time>
      </trkpt>
      <trkpt lat="38.2849320" lon="-0.7089380">
        <ele>114.1</ele>
        <time>2018-10-04T07:25:26Z</time>
      </trkpt>
      <trkpt lat="38.2849810" lon="-0.7089440">
        <ele>114.1</ele>
        <time>2018-10-04T07:25:27Z</time>
      </trkpt>
      <trkpt lat="38.2850310" lon="-0.7089500">
        <ele>114.0</ele>
        <time>2018-10-04T07:25:28Z</time>
      </trkpt>
      <trkpt lat="38.2850820" lon="-0.7089570">
        <ele>114.0</ele>
        <time>2018-10-04T07:25:29Z</time>
      </trkpt>
      <trkpt lat="38.2851320" lon="-0.7089650">
        <ele>114.0</ele>
        <time>2018-10-04T07:25:30Z</time>
      </trkpt>
      <trkpt lat="38.2851820" lon="-0.7089730">
        <ele>114.0</ele>
        <time>2018-10-04T07:25:31Z</time>
      </trkpt>
      <trkpt lat="38.2852310" lon="-0.7089800">
        <ele>114.0</ele>
        <time>2018-10-04T07:25:32Z</time>
      </trkpt>
      <trkpt lat="38.2852820" lon="-0.7089860">
        <ele>114.1</ele>
        <time>2018-10-04T07:25:33Z</time>
      </trkpt>
      <trkpt lat="38.2853290" lon="-0.7089920">
        <ele>114.2</ele>
        <time>2018-10-04T07:25:34Z</time>
      </trkpt>
      <trkpt lat="38.2853750" lon="-0.7089970">
        <ele>114.3</ele>
        <time>2018-10-04T07:25:35Z</time>
      </trkpt>
      <trkpt lat="38.2854220" lon="-0.7090030">
        <ele>114.4</ele>
        <time>2018-10-04T07:25:36Z</time>
      </trkpt>
      <trkpt lat="38.2854650" lon="-0.7090110">
        <ele>114.4</ele>
        <time>2018-10-04T07:25:37Z</time>
      </trkpt>
      <trkpt lat="38.2855090" lon="-0.7090220">
        <ele>114.4</ele>
        <time>2018-10-04T07:25:38Z</time>
      </trkpt>
      <trkpt lat="38.2855490" lon="-0.7090350">
        <ele>114.3</ele>
        <time>2018-10-04T07:25:39Z</time>
      </trkpt>
      <trkpt lat="38.2855870" lon="-0.7090490">
        <ele>114.3</ele>
        <time>2018-10-04T07:25:40Z</time>
      </trkpt>
      <trkpt lat="38.2856240" lon="-0.7090620">
        <ele>114.2</ele>
        <time>2018-10-04T07:25:41Z</time>
      </trkpt>
      <trkpt lat="38.2856610" lon="-0.7090740">
        <ele>114.1</ele>
        <time>2018-10-04T07:25:42Z</time>
      </trkpt>
      <trkpt lat="38.2856950" lon="-0.7090830">
        <ele>114.1</ele>
        <time>2018-10-04T07:25:43Z</time>
      </trkpt>
      <trkpt lat="38.2857250" lon="-0.7091010">
        <ele>114.0</ele>
        <time>2018-10-04T07:25:44Z</time>
      </trkpt>
      <trkpt lat="38.2857530" lon="-0.7091290">
        <ele>114.4</ele>
        <time>2018-10-04T07:25:45Z</time>
      </trkpt>
      <trkpt lat="38.2857870" lon="-0.7091570">
        <ele>115.5</ele>
        <time>2018-10-04T07:25:46Z</time>
      </trkpt>
      <trkpt lat="38.2858240" lon="-0.7091840">
        <ele>116.6</ele>
        <time>2018-10-04T07:25:47Z</time>
      </trkpt>
      <trkpt lat="38.2858640" lon="-0.7092120">
        <ele>117.6</ele>
        <time>2018-10-04T07:25:48Z</time>
      </trkpt>
      <trkpt lat="38.2859040" lon="-0.7092460">
        <ele>118.3</ele>
        <time>2018-10-04T07:25:49Z</time>
      </trkpt>
      <trkpt lat="38.2859490" lon="-0.7092800">
        <ele>118.7</ele>
        <time>2018-10-04T07:25:50Z</time>
      </trkpt>
      <trkpt lat="38.2859950" lon="-0.7093170">
        <ele>119.1</ele>
        <time>2018-10-04T07:25:51Z</time>
      </trkpt>
      <trkpt lat="38.2860480" lon="-0.7093510">
        <ele>119.5</ele>
        <time>2018-10-04T07:25:52Z</time>
      </trkpt>
      <trkpt lat="38.2861000" lon="-0.7093880">
        <ele>120.0</ele>
        <time>2018-10-04T07:25:53Z</time>
      </trkpt>
      <trkpt lat="38.2861570" lon="-0.7094230">
        <ele>120.5</ele>
        <time>2018-10-04T07:25:54Z</time>
      </trkpt>
      <trkpt lat="38.2862140" lon="-0.7094580">
        <ele>120.9</ele>
        <time>2018-10-04T07:25:55Z</time>
      </trkpt>
      <trkpt lat="38.2862740" lon="-0.7094910">
        <ele>121.3</ele>
        <time>2018-10-04T07:25:56Z</time>
      </trkpt>
      <trkpt lat="38.2863380" lon="-0.7095200">
        <ele>121.7</ele>
        <time>2018-10-04T07:25:57Z</time>
      </trkpt>
      <trkpt lat="38.2864010" lon="-0.7095430">
        <ele>122.2</ele>
        <time>2018-10-04T07:25:58Z</time>
      </trkpt>
      <trkpt lat="38.2864610" lon="-0.7095650">
        <ele>122.6</ele>
        <time>2018-10-04T07:25:59Z</time>
      </trkpt>
      <trkpt lat="38.2865250" lon="-0.7095910">
        <ele>123.0</ele>
        <time>2018-10-04T07:26:00Z</time>
      </trkpt>
      <trkpt lat="38.2865900" lon="-0.7096200">
        <ele>122.9</ele>
        <time>2018-10-04T07:26:01Z</time>
      </trkpt>
      <trkpt lat="38.2866530" lon="-0.7096510">
        <ele>122.8</ele>
        <time>2018-10-04T07:26:02Z</time>
      </trkpt>
      <trkpt lat="38.2867160" lon="-0.7096860">
        <ele>122.7</ele>
        <time>2018-10-04T07:26:03Z</time>
      </trkpt>
      <trkpt lat="38.2867750" lon="-0.7097260">
        <ele>122.6</ele>
        <time>2018-10-04T07:26:04Z</time>
      </trkpt>
      <trkpt lat="38.2868350" lon="-0.7097660">
        <ele>122.4</ele>
        <time>2018-10-04T07:26:05Z</time>
      </trkpt>
      <trkpt lat="38.2868930" lon="-0.7098100">
        <ele>122.1</ele>
        <time>2018-10-04T07:26:06Z</time>
      </trkpt>
      <trkpt lat="38.2869520" lon="-0.7098520">
        <ele>121.7</ele>
        <time>2018-10-04T07:26:07Z</time>
      </trkpt>
      <trkpt lat="38.2870110" lon="-0.7098920">
        <ele>121.4</ele>
        <time>2018-10-04T07:26:08Z</time>
      </trkpt>
      <trkpt lat="38.2870670" lon="-0.7099370">
        <ele>121.2</ele>
        <time>2018-10-04T07:26:09Z</time>
      </trkpt>
      <trkpt lat="38.2871210" lon="-0.7099850">
        <ele>121.0</ele>
        <time>2018-10-04T07:26:10Z</time>
      </trkpt>
      <trkpt lat="38.2871730" lon="-0.7100370">
        <ele>120.9</ele>
        <time>2018-10-04T07:26:11Z</time>
      </trkpt>
      <trkpt lat="38.2872220" lon="-0.7100910">
        <ele>120.9</ele>
        <time>2018-10-04T07:26:12Z</time>
      </trkpt>
      <trkpt lat="38.2872690" lon="-0.7101470">
        <ele>120.8</ele>
        <time>2018-10-04T07:26:13Z</time>
      </trkpt>
      <trkpt lat="38.2873140" lon="-0.7102060">
        <ele>120.8</ele>
        <time>2018-10-04T07:26:14Z</time>
      </trkpt>
      <trkpt lat="38.2873600" lon="-0.7102650">
        <ele>120.7</ele>
        <time>2018-10-04T07:26:15Z</time>
      </trkpt>
      <trkpt lat="38.2874060" lon="-0.7103240">
        <ele>120.7</ele>
        <time>2018-10-04T07:26:16Z</time>
      </trkpt>
      <trkpt lat="38.2874520" lon="-0.7103830">
        <ele>120.7</ele>
        <time>2018-10-04T07:26:17Z</time>
      </trkpt>
      <trkpt lat="38.2874980" lon="-0.7104430">
        <ele>120.7</ele>
        <time>2018-10-04T07:26:18Z</time>
      </trkpt>
      <trkpt lat="38.2875430" lon="-0.7105010">
        <ele>120.6</ele>
        <time>2018-10-04T07:26:19Z</time>
      </trkpt>
      <trkpt lat="38.2875880" lon="-0.7105590">
        <ele>120.6</ele>
        <time>2018-10-04T07:26:20Z</time>
      </trkpt>
      <trkpt lat="38.2876320" lon="-0.7106170">
        <ele>120.6</ele>
        <time>2018-10-04T07:26:21Z</time>
      </trkpt>
      <trkpt lat="38.2876740" lon="-0.7106760">
        <ele>120.6</ele>
        <time>2018-10-04T07:26:22Z</time>
      </trkpt>
      <trkpt lat="38.2877170" lon="-0.7107330">
        <ele>120.6</ele>
        <time>2018-10-04T07:26:23Z</time>
      </trkpt>
      <trkpt lat="38.2877580" lon="-0.7107920">
        <ele>120.6</ele>
        <time>2018-10-04T07:26:24Z</time>
      </trkpt>
      <trkpt lat="38.2878000" lon="-0.7108490">
        <ele>120.5</ele>
        <time>2018-10-04T07:26:25Z</time>
      </trkpt>
      <trkpt lat="38.2878420" lon="-0.7109060">
        <ele>120.5</ele>
        <time>2018-10-04T07:26:26Z</time>
      </trkpt>
      <trkpt lat="38.2878820" lon="-0.7109620">
        <ele>120.5</ele>
        <time>2018-10-04T07:26:27Z</time>
      </trkpt>
      <trkpt lat="38.2879200" lon="-0.7110170">
        <ele>120.5</ele>
        <time>2018-10-04T07:26:28Z</time>
      </trkpt>
      <trkpt lat="38.2879570" lon="-0.7110730">
        <ele>120.5</ele>
        <time>2018-10-04T07:26:29Z</time>
      </trkpt>
      <trkpt lat="38.2879960" lon="-0.7111300">
        <ele>120.5</ele>
        <time>2018-10-04T07:26:30Z</time>
      </trkpt>
      <trkpt lat="38.2880340" lon="-0.7111870">
        <ele>120.5</ele>
        <time>2018-10-04T07:26:31Z</time>
      </trkpt>
      <trkpt lat="38.2880710" lon="-0.7112440">
        <ele>120.5</ele>
        <time>2018-10-04T07:26:32Z</time>
      </trkpt>
      <trkpt lat="38.2881070" lon="-0.7113010">
        <ele>120.5</ele>
        <time>2018-10-04T07:26:33Z</time>
      </trkpt>
      <trkpt lat="38.2881430" lon="-0.7113570">
        <ele>120.5</ele>
        <time>2018-10-04T07:26:34Z</time>
      </trkpt>
      <trkpt lat="38.2881810" lon="-0.7114130">
        <ele>120.5</ele>
        <time>2018-10-04T07:26:35Z</time>
      </trkpt>
      <trkpt lat="38.2882190" lon="-0.7114680">
        <ele>120.5</ele>
        <time>2018-10-04T07:26:36Z</time>
      </trkpt>
      <trkpt lat="38.2882540" lon="-0.7115250">
        <ele>120.5</ele>
        <time>2018-10-04T07:26:37Z</time>
      </trkpt>
      <trkpt lat="38.2882880" lon="-0.7115820">
        <ele>120.5</ele>
        <time>2018-10-04T07:26:38Z</time>
      </trkpt>
      <trkpt lat="38.2883200" lon="-0.7116410">
        <ele>120.6</ele>
        <time>2018-10-04T07:26:39Z</time>
      </trkpt>
      <trkpt lat="38.2883540" lon="-0.7116990">
        <ele>120.6</ele>
        <time>2018-10-04T07:26:40Z</time>
      </trkpt>
      <trkpt lat="38.2883840" lon="-0.7117600">
        <ele>120.7</ele>
        <time>2018-10-04T07:26:41Z</time>
      </trkpt>
      <trkpt lat="38.2884150" lon="-0.7118210">
        <ele>120.9</ele>
        <time>2018-10-04T07:26:42Z</time>
      </trkpt>
      <trkpt lat="38.2884440" lon="-0.7118830">
        <ele>121.0</ele>
        <time>2018-10-04T07:26:43Z</time>
      </trkpt>
      <trkpt lat="38.2884730" lon="-0.7119450">
        <ele>121.3</ele>
        <time>2018-10-04T07:26:44Z</time>
      </trkpt>
      <trkpt lat="38.2885000" lon="-0.7120090">
        <ele>121.6</ele>
        <time>2018-10-04T07:26:45Z</time>
      </trkpt>
      <trkpt lat="38.2885260" lon="-0.7120720">
        <ele>121.9</ele>
        <time>2018-10-04T07:26:46Z</time>
      </trkpt>
      <trkpt lat="38.2885500" lon="-0.7121350">
        <ele>122.2</ele>
        <time>2018-10-04T07:26:47Z</time>
      </trkpt>
      <trkpt lat="38.2885710" lon="-0.7121970">
        <ele>122.3</ele>
        <time>2018-10-04T07:26:48Z</time>
      </trkpt>
      <trkpt lat="38.2885910" lon="-0.7122600">
        <ele>122.4</ele>
        <time>2018-10-04T07:26:49Z</time>
      </trkpt>
      <trkpt lat="38.2886100" lon="-0.7123240">
        <ele>122.5</ele>
        <time>2018-10-04T07:26:50Z</time>
      </trkpt>
      <trkpt lat="38.2886310" lon="-0.7123890">
        <ele>122.7</ele>
        <time>2018-10-04T07:26:51Z</time>
      </trkpt>
      <trkpt lat="38.2886550" lon="-0.7124540">
        <ele>122.8</ele>
        <time>2018-10-04T07:26:52Z</time>
      </trkpt>
      <trkpt lat="38.2886860" lon="-0.7125130">
        <ele>123.1</ele>
        <time>2018-10-04T07:26:53Z</time>
      </trkpt>
      <trkpt lat="38.2887150" lon="-0.7125690">
        <ele>123.3</ele>
        <time>2018-10-04T07:26:54Z</time>
      </trkpt>
      <trkpt lat="38.2887430" lon="-0.7126300">
        <ele>123.5</ele>
        <time>2018-10-04T07:26:55Z</time>
      </trkpt>
      <trkpt lat="38.2887740" lon="-0.7126890">
        <ele>123.7</ele>
        <time>2018-10-04T07:26:56Z</time>
      </trkpt>
      <trkpt lat="38.2887900" lon="-0.7127200">
        <ele>123.8</ele>
        <time>2018-10-04T07:26:57Z</time>
      </trkpt>
      <trkpt lat="38.2888060" lon="-0.7127510">
        <ele>123.8</ele>
        <time>2018-10-04T07:26:58Z</time>
      </trkpt>
      <trkpt lat="38.2888220" lon="-0.7127820">
        <ele>123.8</ele>
        <time>2018-10-04T07:26:59Z</time>
      </trkpt>
      <trkpt lat="38.2888380" lon="-0.7128140">
        <ele>123.8</ele>
        <time>2018-10-04T07:27:00Z</time>
      </trkpt>
      <trkpt lat="38.2888540" lon="-0.7128450">
        <ele>123.9</ele>
        <time>2018-10-04T07:27:01Z</time>
      </trkpt>
      <trkpt lat="38.2888700" lon="-0.7128760">
        <ele>123.9</ele>
        <time>2018-10-04T07:27:02Z</time>
      </trkpt>
      <trkpt lat="38.2888700" lon="-0.7128760">
        <ele>123.9</ele>
        <time>2018-10-04T07:27:03Z</time>
      </trkpt>
      <trkpt lat="38.2888700" lon="-0.7128760">
        <ele>123.9</ele>
        <time>2018-10-04T07:27:04Z</time>
      </trkpt>
      <trkpt lat="38.2891190" lon="-0.7131400">
        <ele>124.0</ele>
        <time>2018-10-04T07:27:05Z</time>
      </trkpt>
      <trkpt lat="38.2891770" lon="-0.7131610">
        <ele>124.0</ele>
        <time>2018-10-04T07:27:06Z</time>
      </trkpt>
      <trkpt lat="38.2892270" lon="-0.7131970">
        <ele>124.4</ele>
        <time>2018-10-04T07:27:07Z</time>
      </trkpt>
      <trkpt lat="38.2892760" lon="-0.7132400">
        <ele>124.7</ele>
        <time>2018-10-04T07:27:08Z</time>
      </trkpt>
      <trkpt lat="38.2893230" lon="-0.7132830">
        <ele>124.9</ele>
        <time>2018-10-04T07:27:09Z</time>
      </trkpt>
      <trkpt lat="38.2893630" lon="-0.7133340">
        <ele>124.9</ele>
        <time>2018-10-04T07:27:10Z</time>
      </trkpt>
      <trkpt lat="38.2894040" lon="-0.7133840">
        <ele>125.0</ele>
        <time>2018-10-04T07:27:11Z</time>
      </trkpt>
      <trkpt lat="38.2894400" lon="-0.7134410">
        <ele>125.0</ele>
        <time>2018-10-04T07:27:12Z</time>
      </trkpt>
      <trkpt lat="38.2894780" lon="-0.7134970">
        <ele>125.1</ele>
        <time>2018-10-04T07:27:13Z</time>
      </trkpt>
      <trkpt lat="38.2895130" lon="-0.7135560">
        <ele>125.1</ele>
        <time>2018-10-04T07:27:14Z</time>
      </trkpt>
      <trkpt lat="38.2895480" lon="-0.7136150">
        <ele>125.2</ele>
        <time>2018-10-04T07:27:15Z</time>
      </trkpt>
      <trkpt lat="38.2895840" lon="-0.7136740">
        <ele>125.2</ele>
        <time>2018-10-04T07:27:16Z</time>
      </trkpt>
      <trkpt lat="38.2896180" lon="-0.7137340">
        <ele>125.2</ele>
        <time>2018-10-04T07:27:17Z</time>
      </trkpt>
      <trkpt lat="38.2896520" lon="-0.7137950">
        <ele>125.2</ele>
        <time>2018-10-04T07:27:18Z</time>
      </trkpt>
      <trkpt lat="38.2896890" lon="-0.7138560">
        <ele>125.2</ele>
        <time>2018-10-04T07:27:19Z</time>
      </trkpt>
      <trkpt lat="38.2897290" lon="-0.7139090">
        <ele>125.2</ele>
        <time>2018-10-04T07:27:20Z</time>
      </trkpt>
      <trkpt lat="38.2897700" lon="-0.7139610">
        <ele>125.2</ele>
        <time>2018-10-04T07:27:21Z</time>
      </trkpt>
      <trkpt lat="38.2898110" lon="-0.7140130">
        <ele>125.2</ele>
        <time>2018-10-04T07:27:22Z</time>
      </trkpt>
      <trkpt lat="38.2898540" lon="-0.7140630">
        <ele>125.2</ele>
        <time>2018-10-04T07:27:23Z</time>
      </trkpt>
      <trkpt lat="38.2898970" lon="-0.7141120">
        <ele>125.2</ele>
        <time>2018-10-04T07:27:24Z</time>
      </trkpt>
      <trkpt lat="38.2899430" lon="-0.7141560">
        <ele>125.2</ele>
        <time>2018-10-04T07:27:25Z</time>
      </trkpt>
      <trkpt lat="38.2899930" lon="-0.7141970">
        <ele>125.2</ele>
        <time>2018-10-04T07:27:26Z</time>
      </trkpt>
      <trkpt lat="38.2900430" lon="-0.7142400">
        <ele>125.2</ele>
        <time>2018-10-04T07:27:27Z</time>
      </trkpt>
      <trkpt lat="38.2900960" lon="-0.7142830">
        <ele>125.1</ele>
        <time>2018-10-04T07:27:28Z</time>
      </trkpt>
      <trkpt lat="38.2901500" lon="-0.7143260">
        <ele>125.1</ele>
        <time>2018-10-04T07:27:29Z</time>
      </trkpt>
      <trkpt lat="38.2902070" lon="-0.7143660">
        <ele>125.1</ele>
        <time>2018-10-04T07:27:30Z</time>
      </trkpt>
      <trkpt lat="38.2902710" lon="-0.7143860">
        <ele>125.1</ele>
        <time>2018-10-04T07:27:31Z</time>
      </trkpt>
      <trkpt lat="38.2903400" lon="-0.7143910">
        <ele>125.1</ele>
        <time>2018-10-04T07:27:32Z</time>
      </trkpt>
      <trkpt lat="38.2904050" lon="-0.7143880">
        <ele>125.0</ele>
        <time>2018-10-04T07:27:33Z</time>
      </trkpt>
      <trkpt lat="38.2904710" lon="-0.7143650">
        <ele>125.0</ele>
        <time>2018-10-04T07:27:34Z</time>
      </trkpt>
      <trkpt lat="38.2905330" lon="-0.7143230">
        <ele>125.0</ele>
        <time>2018-10-04T07:27:35Z</time>
      </trkpt>
      <trkpt lat="38.2905880" lon="-0.7142670">
        <ele>125.0</ele>
        <time>2018-10-04T07:27:36Z</time>
      </trkpt>
      <trkpt lat="38.2906420" lon="-0.7142100">
        <ele>125.0</ele>
        <time>2018-10-04T07:27:37Z</time>
      </trkpt>
      <trkpt lat="38.2906990" lon="-0.7141520">
        <ele>124.9</ele>
        <time>2018-10-04T07:27:38Z</time>
      </trkpt>
      <trkpt lat="38.2907590" lon="-0.7141000">
        <ele>124.9</ele>
        <time>2018-10-04T07:27:39Z</time>
      </trkpt>
      <trkpt lat="38.2908220" lon="-0.7140570">
        <ele>124.9</ele>
        <time>2018-10-04T07:27:40Z</time>
      </trkpt>
      <trkpt lat="38.2908880" lon="-0.7140200">
        <ele>124.9</ele>
        <time>2018-10-04T07:27:41Z</time>
      </trkpt>
      <trkpt lat="38.2909510" lon="-0.7139910">
        <ele>124.9</ele>
        <time>2018-10-04T07:27:42Z</time>
      </trkpt>
      <trkpt lat="38.2910150" lon="-0.7139640">
        <ele>124.8</ele>
        <time>2018-10-04T07:27:43Z</time>
      </trkpt>
      <trkpt lat="38.2910810" lon="-0.7139420">
        <ele>124.8</ele>
        <time>2018-10-04T07:27:44Z</time>
      </trkpt>
      <trkpt lat="38.2911490" lon="-0.7139270">
        <ele>124.8</ele>
        <time>2018-10-04T07:27:45Z</time>
      </trkpt>
      <trkpt lat="38.2912180" lon="-0.7139190">
        <ele>124.7</ele>
        <time>2018-10-04T07:27:46Z</time>
      </trkpt>
      <trkpt lat="38.2912880" lon="-0.7139160">
        <ele>124.7</ele>
        <time>2018-10-04T07:27:47Z</time>
      </trkpt>
      <trkpt lat="38.2913590" lon="-0.7139190">
        <ele>124.7</ele>
        <time>2018-10-04T07:27:48Z</time>
      </trkpt>
      <trkpt lat="38.2914290" lon="-0.7139290">
        <ele>124.6</ele>
        <time>2018-10-04T07:27:49Z</time>
      </trkpt>
      <trkpt lat="38.2914990" lon="-0.7139440">
        <ele>124.6</ele>
        <time>2018-10-04T07:27:50Z</time>
      </trkpt>
      <trkpt lat="38.2915680" lon="-0.7139630">
        <ele>124.6</ele>
        <time>2018-10-04T07:27:51Z</time>
      </trkpt>
      <trkpt lat="38.2916350" lon="-0.7139870">
        <ele>124.6</ele>
        <time>2018-10-04T07:27:52Z</time>
      </trkpt>
      <trkpt lat="38.2917020" lon="-0.7140110">
        <ele>124.5</ele>
        <time>2018-10-04T07:27:53Z</time>
      </trkpt>
      <trkpt lat="38.2917680" lon="-0.7140380">
        <ele>124.5</ele>
        <time>2018-10-04T07:27:54Z</time>
      </trkpt>
      <trkpt lat="38.2918330" lon="-0.7140670">
        <ele>124.5</ele>
        <time>2018-10-04T07:27:55Z</time>
      </trkpt>
      <trkpt lat="38.2918970" lon="-0.7140960">
        <ele>124.5</ele>
        <time>2018-10-04T07:27:56Z</time>
      </trkpt>
      <trkpt lat="38.2919590" lon="-0.7141320">
        <ele>124.4</ele>
        <time>2018-10-04T07:27:57Z</time>
      </trkpt>
      <trkpt lat="38.2920140" lon="-0.7141800">
        <ele>124.4</ele>
        <time>2018-10-04T07:27:58Z</time>
      </trkpt>
      <trkpt lat="38.2920660" lon="-0.7142330">
        <ele>124.4</ele>
        <time>2018-10-04T07:27:59Z</time>
      </trkpt>
      <trkpt lat="38.2921160" lon="-0.7142870">
        <ele>124.4</ele>
        <time>2018-10-04T07:28:00Z</time>
      </trkpt>
      <trkpt lat="38.2921660" lon="-0.7143390">
        <ele>124.4</ele>
        <time>2018-10-04T07:28:01Z</time>
      </trkpt>
      <trkpt lat="38.2922160" lon="-0.7143890">
        <ele>124.4</ele>
        <time>2018-10-04T07:28:02Z</time>
      </trkpt>
      <trkpt lat="38.2922670" lon="-0.7144370">
        <ele>124.3</ele>
        <time>2018-10-04T07:28:03Z</time>
      </trkpt>
      <trkpt lat="38.2923170" lon="-0.7144820">
        <ele>124.3</ele>
        <time>2018-10-04T07:28:04Z</time>
      </trkpt>
      <trkpt lat="38.2923700" lon="-0.7145220">
        <ele>124.3</ele>
        <time>2018-10-04T07:28:05Z</time>
      </trkpt>
      <trkpt lat="38.2924210" lon="-0.7145530">
        <ele>124.3</ele>
        <time>2018-10-04T07:28:06Z</time>
      </trkpt>
      <trkpt lat="38.2924740" lon="-0.7145680">
        <ele>124.2</ele>
        <time>2018-10-04T07:28:07Z</time>
      </trkpt>
      <trkpt lat="38.2925280" lon="-0.7145600">
        <ele>124.2</ele>
        <time>2018-10-04T07:28:08Z</time>
      </trkpt>
      <trkpt lat="38.2925810" lon="-0.7145490">
        <ele>124.2</ele>
        <time>2018-10-04T07:28:09Z</time>
      </trkpt>
      <trkpt lat="38.2926380" lon="-0.7145390">
        <ele>124.1</ele>
        <time>2018-10-04T07:28:10Z</time>
      </trkpt>
      <trkpt lat="38.2926940" lon="-0.7145360">
        <ele>124.1</ele>
        <time>2018-10-04T07:28:11Z</time>
      </trkpt>
      <trkpt lat="38.2927490" lon="-0.7145430">
        <ele>124.0</ele>
        <time>2018-10-04T07:28:12Z</time>
      </trkpt>
      <trkpt lat="38.2928050" lon="-0.7145390">
        <ele>124.0</ele>
        <time>2018-10-04T07:28:13Z</time>
      </trkpt>
      <trkpt lat="38.2928550" lon="-0.7145040">
        <ele>124.0</ele>
        <time>2018-10-04T07:28:14Z</time>
      </trkpt>
      <trkpt lat="38.2929020" lon="-0.7144550">
        <ele>124.0</ele>
        <time>2018-10-04T07:28:15Z</time>
      </trkpt>
      <trkpt lat="38.2929490" lon="-0.7143950">
        <ele>123.9</ele>
        <time>2018-10-04T07:28:16Z</time>
      </trkpt>
      <trkpt lat="38.2929940" lon="-0.7143340">
        <ele>123.8</ele>
        <time>2018-10-04T07:28:17Z</time>
      </trkpt>
      <trkpt lat="38.2930370" lon="-0.7142700">
        <ele>123.7</ele>
        <time>2018-10-04T07:28:18Z</time>
      </trkpt>
      <trkpt lat="38.2930790" lon="-0.7142050">
        <ele>123.7</ele>
        <time>2018-10-04T07:28:19Z</time>
      </trkpt>
      <trkpt lat="38.2931210" lon="-0.7141410">
        <ele>123.7</ele>
        <time>2018-10-04T07:28:20Z</time>
      </trkpt>
      <trkpt lat="38.2931660" lon="-0.7140810">
        <ele>123.9</ele>
        <time>2018-10-04T07:28:21Z</time>
      </trkpt>
      <trkpt lat="38.2932140" lon="-0.7140290">
        <ele>124.1</ele>
        <time>2018-10-04T07:28:22Z</time>
      </trkpt>
      <trkpt lat="38.2932690" lon="-0.7139890">
        <ele>124.2</ele>
        <time>2018-10-04T07:28:23Z</time>
      </trkpt>
      <trkpt lat="38.2933300" lon="-0.7139740">
        <ele>124.4</ele>
        <time>2018-10-04T07:28:24Z</time>
      </trkpt>
      <trkpt lat="38.2933910" lon="-0.7139780">
        <ele>124.7</ele>
        <time>2018-10-04T07:28:25Z</time>
      </trkpt>
      <trkpt lat="38.2934480" lon="-0.7140000">
        <ele>124.9</ele>
        <time>2018-10-04T07:28:26Z</time>
      </trkpt>
      <trkpt lat="38.2935010" lon="-0.7140300">
        <ele>125.0</ele>
        <time>2018-10-04T07:28:27Z</time>
      </trkpt>
      <trkpt lat="38.2935540" lon="-0.7140620">
        <ele>125.2</ele>
        <time>2018-10-04T07:28:28Z</time>
      </trkpt>
      <trkpt lat="38.2936060" lon="-0.7140960">
        <ele>125.4</ele>
        <time>2018-10-04T07:28:29Z</time>
      </trkpt>
      <trkpt lat="38.2936560" lon="-0.7141320">
        <ele>125.5</ele>
        <time>2018-10-04T07:28:30Z</time>
      </trkpt>
      <trkpt lat="38.2937050" lon="-0.7141700">
        <ele>125.6</ele>
        <time>2018-10-04T07:28:31Z</time>
      </trkpt>
      <trkpt lat="38.2937540" lon="-0.7142080">
        <ele>125.5</ele>
        <time>2018-10-04T07:28:32Z</time>
      </trkpt>
      <trkpt lat="38.2938030" lon="-0.7142460">
        <ele>125.2</ele>
        <time>2018-10-04T07:28:33Z</time>
      </trkpt>
      <trkpt lat="38.2938520" lon="-0.7142850">
        <ele>125.0</ele>
        <time>2018-10-04T07:28:34Z</time>
      </trkpt>
      <trkpt lat="38.2939020" lon="-0.7143250">
        <ele>124.8</ele>
        <time>2018-10-04T07:28:35Z</time>
      </trkpt>
      <trkpt lat="38.2939520" lon="-0.7143620">
        <ele>124.7</ele>
        <time>2018-10-04T07:28:36Z</time>
      </trkpt>
      <trkpt lat="38.2940030" lon="-0.7144000">
        <ele>124.4</ele>
        <time>2018-10-04T07:28:37Z</time>
      </trkpt>
      <trkpt lat="38.2940530" lon="-0.7144400">
        <ele>124.1</ele>
        <time>2018-10-04T07:28:38Z</time>
      </trkpt>
      <trkpt lat="38.2941040" lon="-0.7144800">
        <ele>123.6</ele>
        <time>2018-10-04T07:28:39Z</time>
      </trkpt>
      <trkpt lat="38.2941550" lon="-0.7145170">
        <ele>123.4</ele>
        <time>2018-10-04T07:28:40Z</time>
      </trkpt>
      <trkpt lat="38.2942070" lon="-0.7145520">
        <ele>123.1</ele>
        <time>2018-10-04T07:28:41Z</time>
      </trkpt>
      <trkpt lat="38.2942610" lon="-0.7145810">
        <ele>122.9</ele>
        <time>2018-10-04T07:28:42Z</time>
      </trkpt>
      <trkpt lat="38.2943170" lon="-0.7146090">
        <ele>122.6</ele>
        <time>2018-10-04T07:28:43Z</time>
      </trkpt>
      <trkpt lat="38.2943730" lon="-0.7146360">
        <ele>122.2</ele>
        <time>2018-10-04T07:28:44Z</time>
      </trkpt>
      <trkpt lat="38.2944320" lon="-0.7146600">
        <ele>122.0</ele>
        <time>2018-10-04T07:28:45Z</time>
      </trkpt>
      <trkpt lat="38.2944930" lon="-0.7146810">
        <ele>122.2</ele>
        <time>2018-10-04T07:28:46Z</time>
      </trkpt>
      <trkpt lat="38.2945560" lon="-0.7146940">
        <ele>122.3</ele>
        <time>2018-10-04T07:28:47Z</time>
      </trkpt>
      <trkpt lat="38.2946200" lon="-0.7146980">
        <ele>122.4</ele>
        <time>2018-10-04T07:28:48Z</time>
      </trkpt>
      <trkpt lat="38.2946850" lon="-0.7146930">
        <ele>122.5</ele>
        <time>2018-10-04T07:28:49Z</time>
      </trkpt>
      <trkpt lat="38.2947500" lon="-0.7146830">
        <ele>122.6</ele>
        <time>2018-10-04T07:28:50Z</time>
      </trkpt>
      <trkpt lat="38.2948160" lon="-0.7146700">
        <ele>122.7</ele>
        <time>2018-10-04T07:28:51Z</time>
      </trkpt>
      <trkpt lat="38.2948820" lon="-0.7146570">
        <ele>122.8</ele>
        <time>2018-10-04T07:28:52Z</time>
      </trkpt>
      <trkpt lat="38.2949480" lon="-0.7146440">
        <ele>122.9</ele>
        <time>2018-10-04T07:28:53Z</time>
      </trkpt>
      <trkpt lat="38.2950160" lon="-0.7146320">
        <ele>122.9</ele>
        <time>2018-10-04T07:28:54Z</time>
      </trkpt>
      <trkpt lat="38.2950830" lon="-0.7146190">
        <ele>123.0</ele>
        <time>2018-10-04T07:28:55Z</time>
      </trkpt>
      <trkpt lat="38.2951510" lon="-0.7146070">
        <ele>123.1</ele>
        <time>2018-10-04T07:28:56Z</time>
      </trkpt>
      <trkpt lat="38.2952180" lon="-0.7145940">
        <ele>123.3</ele>
        <time>2018-10-04T07:28:57Z</time>
      </trkpt>
      <trkpt lat="38.2952850" lon="-0.7145850">
        <ele>123.4</ele>
        <time>2018-10-04T07:28:58Z</time>
      </trkpt>
      <trkpt lat="38.2953530" lon="-0.7145750">
        <ele>123.4</ele>
        <time>2018-10-04T07:28:59Z</time>
      </trkpt>
      <trkpt lat="38.2954200" lon="-0.7145670">
        <ele>123.5</ele>
        <time>2018-10-04T07:29:00Z</time>
      </trkpt>
      <trkpt lat="38.2954870" lon="-0.7145600">
        <ele>123.5</ele>
        <time>2018-10-04T07:29:01Z</time>
      </trkpt>
      <trkpt lat="38.2955550" lon="-0.7145570">
        <ele>123.7</ele>
        <time>2018-10-04T07:29:02Z</time>
      </trkpt>
      <trkpt lat="38.2956220" lon="-0.7145580">
        <ele>123.9</ele>
        <time>2018-10-04T07:29:03Z</time>
      </trkpt>
      <trkpt lat="38.2956870" lon="-0.7145680">
        <ele>124.0</ele>
        <time>2018-10-04T07:29:04Z</time>
      </trkpt>
      <trkpt lat="38.2957510" lon="-0.7145830">
        <ele>124.2</ele>
        <time>2018-10-04T07:29:05Z</time>
      </trkpt>
      <trkpt lat="38.2958130" lon="-0.7146050">
        <ele>124.3</ele>
        <time>2018-10-04T07:29:06Z</time>
      </trkpt>
      <trkpt lat="38.2958740" lon="-0.7146300">
        <ele>124.5</ele>
        <time>2018-10-04T07:29:07Z</time>
      </trkpt>
      <trkpt lat="38.2959320" lon="-0.7146580">
        <ele>124.7</ele>
        <time>2018-10-04T07:29:08Z</time>
      </trkpt>
      <trkpt lat="38.2959890" lon="-0.7146900">
        <ele>125.2</ele>
        <time>2018-10-04T07:29:09Z</time>
      </trkpt>
      <trkpt lat="38.2960430" lon="-0.7147230">
        <ele>125.6</ele>
        <time>2018-10-04T07:29:10Z</time>
      </trkpt>
      <trkpt lat="38.2960910" lon="-0.7147640">
        <ele>126.1</ele>
        <time>2018-10-04T07:29:11Z</time>
      </trkpt>
      <trkpt lat="38.2961310" lon="-0.7148130">
        <ele>126.7</ele>
        <time>2018-10-04T07:29:12Z</time>
      </trkpt>
      <trkpt lat="38.2961670" lon="-0.7148690">
        <ele>127.2</ele>
        <time>2018-10-04T07:29:13Z</time>
      </trkpt>
      <trkpt lat="38.2961920" lon="-0.7149300">
        <ele>127.6</ele>
        <time>2018-10-04T07:29:14Z</time>
      </trkpt>
      <trkpt lat="38.2962140" lon="-0.7149920">
        <ele>128.1</ele>
        <time>2018-10-04T07:29:15Z</time>
      </trkpt>
      <trkpt lat="38.2962330" lon="-0.7150590">
        <ele>128.5</ele>
        <time>2018-10-04T07:29:16Z</time>
      </trkpt>
      <trkpt lat="38.2962520" lon="-0.7151260">
        <ele>129.1</ele>
        <time>2018-10-04T07:29:17Z</time>
      </trkpt>
      <trkpt lat="38.2962690" lon="-0.7151940">
        <ele>129.7</ele>
        <time>2018-10-04T07:29:18Z</time>
      </trkpt>
      <trkpt lat="38.2962850" lon="-0.7152600">
        <ele>130.2</ele>
        <time>2018-10-04T07:29:19Z</time>
      </trkpt>
      <trkpt lat="38.2963000" lon="-0.7153230">
        <ele>130.7</ele>
        <time>2018-10-04T07:29:20Z</time>
      </trkpt>
      <trkpt lat="38.2963130" lon="-0.7153820">
        <ele>131.7</ele>
        <time>2018-10-04T07:29:21Z</time>
      </trkpt>
      <trkpt lat="38.2963230" lon="-0.7154400">
        <ele>132.5</ele>
        <time>2018-10-04T07:29:22Z</time>
      </trkpt>
      <trkpt lat="38.2963310" lon="-0.7154990">
        <ele>133.1</ele>
        <time>2018-10-04T07:29:23Z</time>
      </trkpt>
      <trkpt lat="38.2963390" lon="-0.7155540">
        <ele>133.7</ele>
        <time>2018-10-04T07:29:24Z</time>
      </trkpt>
      <trkpt lat="38.2963450" lon="-0.7156070">
        <ele>134.3</ele>
        <time>2018-10-04T07:29:25Z</time>
      </trkpt>
      <trkpt lat="38.2963490" lon="-0.7156590">
        <ele>134.9</ele>
        <time>2018-10-04T07:29:26Z</time>
      </trkpt>
      <trkpt lat="38.2963520" lon="-0.7157090">
        <ele>135.7</ele>
        <time>2018-10-04T07:29:27Z</time>
      </trkpt>
      <trkpt lat="38.2963560" lon="-0.7157570">
        <ele>136.2</ele>
        <time>2018-10-04T07:29:28Z</time>
      </trkpt>
      <trkpt lat="38.2963610" lon="-0.7158050">
        <ele>136.5</ele>
        <time>2018-10-04T07:29:29Z</time>
      </trkpt>
      <trkpt lat="38.2963660" lon="-0.7158490">
        <ele>136.7</ele>
        <time>2018-10-04T07:29:30Z</time>
      </trkpt>
      <trkpt lat="38.2963710" lon="-0.7158960">
        <ele>137.0</ele>
        <time>2018-10-04T07:29:31Z</time>
      </trkpt>
      <trkpt lat="38.2963720" lon="-0.7159450">
        <ele>137.3</ele>
        <time>2018-10-04T07:29:32Z</time>
      </trkpt>
      <trkpt lat="38.2963740" lon="-0.7159930">
        <ele>137.6</ele>
        <time>2018-10-04T07:29:33Z</time>
      </trkpt>
      <trkpt lat="38.2963750" lon="-0.7160430">
        <ele>138.1</ele>
        <time>2018-10-04T07:29:34Z</time>
      </trkpt>
      <trkpt lat="38.2963790" lon="-0.7160910">
        <ele>138.6</ele>
        <time>2018-10-04T07:29:35Z</time>
      </trkpt>
      <trkpt lat="38.2963820" lon="-0.7161420">
        <ele>139.0</ele>
        <time>2018-10-04T07:29:36Z</time>
      </trkpt>
      <trkpt lat="38.2963850" lon="-0.7161910">
        <ele>139.3</ele>
        <time>2018-10-04T07:29:37Z</time>
      </trkpt>
      <trkpt lat="38.2963870" lon="-0.7162410">
        <ele>139.7</ele>
        <time>2018-10-04T07:29:38Z</time>
      </trkpt>
      <trkpt lat="38.2963900" lon="-0.7162930">
        <ele>140.0</ele>
        <time>2018-10-04T07:29:39Z</time>
      </trkpt>
      <trkpt lat="38.2963950" lon="-0.7163430">
        <ele>140.4</ele>
        <time>2018-10-04T07:29:40Z</time>
      </trkpt>
      <trkpt lat="38.2963990" lon="-0.7163940">
        <ele>140.7</ele>
        <time>2018-10-04T07:29:41Z</time>
      </trkpt>
      <trkpt lat="38.2964040" lon="-0.7164460">
        <ele>141.0</ele>
        <time>2018-10-04T07:29:42Z</time>
      </trkpt>
      <trkpt lat="38.2964080" lon="-0.7164970">
        <ele>141.3</ele>
        <time>2018-10-04T07:29:43Z</time>
      </trkpt>
      <trkpt lat="38.2964130" lon="-0.7165470">
        <ele>141.6</ele>
        <time>2018-10-04T07:29:44Z</time>
      </trkpt>
      <trkpt lat="38.2964190" lon="-0.7165930">
        <ele>141.9</ele>
        <time>2018-10-04T07:29:45Z</time>
      </trkpt>
      <trkpt lat="38.2964260" lon="-0.7166360">
        <ele>142.3</ele>
        <time>2018-10-04T07:29:46Z</time>
      </trkpt>
      <trkpt lat="38.2964340" lon="-0.7166790">
        <ele>142.7</ele>
        <time>2018-10-04T07:29:47Z</time>
      </trkpt>
      <trkpt lat="38.2964430" lon="-0.7167240">
        <ele>143.2</ele>
        <time>2018-10-04T07:29:48Z</time>
      </trkpt>
      <trkpt lat="38.2964520" lon="-0.7167690">
        <ele>143.7</ele>
        <time>2018-10-04T07:29:49Z</time>
      </trkpt>
      <trkpt lat="38.2964630" lon="-0.7168140">
        <ele>144.2</ele>
        <time>2018-10-04T07:29:50Z</time>
      </trkpt>
      <trkpt lat="38.2964750" lon="-0.7168580">
        <ele>144.6</ele>
        <time>2018-10-04T07:29:51Z</time>
      </trkpt>
      <trkpt lat="38.2964880" lon="-0.7169020">
        <ele>145.0</ele>
        <time>2018-10-04T07:29:52Z</time>
      </trkpt>
      <trkpt lat="38.2965020" lon="-0.7169470">
        <ele>145.3</ele>
        <time>2018-10-04T07:29:53Z</time>
      </trkpt>
      <trkpt lat="38.2965170" lon="-0.7169920">
        <ele>145.6</ele>
        <time>2018-10-04T07:29:54Z</time>
      </trkpt>
      <trkpt lat="38.2965320" lon="-0.7170350">
        <ele>145.8</ele>
        <time>2018-10-04T07:29:55Z</time>
      </trkpt>
      <trkpt lat="38.2965480" lon="-0.7170790">
        <ele>146.1</ele>
        <time>2018-10-04T07:29:56Z</time>
      </trkpt>
      <trkpt lat="38.2965640" lon="-0.7171230">
        <ele>146.6</ele>
        <time>2018-10-04T07:29:57Z</time>
      </trkpt>
      <trkpt lat="38.2965780" lon="-0.7171680">
        <ele>146.9</ele>
        <time>2018-10-04T07:29:58Z</time>
      </trkpt>
      <trkpt lat="38.2965930" lon="-0.7172130">
        <ele>147.2</ele>
        <time>2018-10-04T07:29:59Z</time>
      </trkpt>
      <trkpt lat="38.2966100" lon="-0.7172580">
        <ele>147.4</ele>
        <time>2018-10-04T07:30:00Z</time>
      </trkpt>
      <trkpt lat="38.2966260" lon="-0.7173020">
        <ele>147.5</ele>
        <time>2018-10-04T07:30:01Z</time>
      </trkpt>
      <trkpt lat="38.2966430" lon="-0.7173470">
        <ele>147.7</ele>
        <time>2018-10-04T07:30:02Z</time>
      </trkpt>
      <trkpt lat="38.2966610" lon="-0.7173910">
        <ele>147.8</ele>
        <time>2018-10-04T07:30:03Z</time>
      </trkpt>
      <trkpt lat="38.2966780" lon="-0.7174370">
        <ele>147.9</ele>
        <time>2018-10-04T07:30:04Z</time>
      </trkpt>
      <trkpt lat="38.2966950" lon="-0.7174820">
        <ele>148.0</ele>
        <time>2018-10-04T07:30:05Z</time>
      </trkpt>
      <trkpt lat="38.2967130" lon="-0.7175290">
        <ele>148.2</ele>
        <time>2018-10-04T07:30:06Z</time>
      </trkpt>
      <trkpt lat="38.2967310" lon="-0.7175770">
        <ele>148.2</ele>
        <time>2018-10-04T07:30:07Z</time>
      </trkpt>
      <trkpt lat="38.2967500" lon="-0.7176250">
        <ele>148.3</ele>
        <time>2018-10-04T07:30:08Z</time>
      </trkpt>
      <trkpt lat="38.2967690" lon="-0.7176760">
        <ele>148.4</ele>
        <time>2018-10-04T07:30:09Z</time>
      </trkpt>
      <trkpt lat="38.2967890" lon="-0.7177250">
        <ele>148.4</ele>
        <time>2018-10-04T07:30:10Z</time>
      </trkpt>
      <trkpt lat="38.2968100" lon="-0.7177790">
        <ele>148.5</ele>
        <time>2018-10-04T07:30:11Z</time>
      </trkpt>
      <trkpt lat="38.2968310" lon="-0.7178350">
        <ele>148.6</ele>
        <time>2018-10-04T07:30:12Z</time>
      </trkpt>
      <trkpt lat="38.2968500" lon="-0.7178920">
        <ele>148.6</ele>
        <time>2018-10-04T07:30:13Z</time>
      </trkpt>
      <trkpt lat="38.2968700" lon="-0.7179500">
        <ele>148.7</ele>
        <time>2018-10-04T07:30:14Z</time>
      </trkpt>
      <trkpt lat="38.2968880" lon="-0.7180110">
        <ele>148.8</ele>
        <time>2018-10-04T07:30:15Z</time>
      </trkpt>
      <trkpt lat="38.2969050" lon="-0.7180740">
        <ele>148.8</ele>
        <time>2018-10-04T07:30:16Z</time>
      </trkpt>
      <trkpt lat="38.2969230" lon="-0.7181370">
        <ele>148.9</ele>
        <time>2018-10-04T07:30:17Z</time>
      </trkpt>
      <trkpt lat="38.2969390" lon="-0.7182010">
        <ele>148.9</ele>
        <time>2018-10-04T07:30:18Z</time>
      </trkpt>
      <trkpt lat="38.2969560" lon="-0.7182700">
        <ele>149.0</ele>
        <time>2018-10-04T07:30:19Z</time>
      </trkpt>
      <trkpt lat="38.2969700" lon="-0.7183400">
        <ele>149.1</ele>
        <time>2018-10-04T07:30:20Z</time>
      </trkpt>
      <trkpt lat="38.2969820" lon="-0.7184110">
        <ele>149.2</ele>
        <time>2018-10-04T07:30:21Z</time>
      </trkpt>
      <trkpt lat="38.2969920" lon="-0.7184820">
        <ele>149.2</ele>
        <time>2018-10-04T07:30:22Z</time>
      </trkpt>
      <trkpt lat="38.2970020" lon="-0.7185530">
        <ele>149.3</ele>
        <time>2018-10-04T07:30:23Z</time>
      </trkpt>
      <trkpt lat="38.2970150" lon="-0.7186230">
        <ele>149.4</ele>
        <time>2018-10-04T07:30:24Z</time>
      </trkpt>
      <trkpt lat="38.2970270" lon="-0.7186880">
        <ele>149.5</ele>
        <time>2018-10-04T07:30:25Z</time>
      </trkpt>
      <trkpt lat="38.2970390" lon="-0.7187490">
        <ele>149.6</ele>
        <time>2018-10-04T07:30:26Z</time>
      </trkpt>
      <trkpt lat="38.2970500" lon="-0.7188090">
        <ele>149.6</ele>
        <time>2018-10-04T07:30:27Z</time>
      </trkpt>
      <trkpt lat="38.2970620" lon="-0.7188670">
        <ele>149.8</ele>
        <time>2018-10-04T07:30:28Z</time>
      </trkpt>
      <trkpt lat="38.2970770" lon="-0.7189220">
        <ele>149.9</ele>
        <time>2018-10-04T07:30:29Z</time>
      </trkpt>
      <trkpt lat="38.2970960" lon="-0.7189730">
        <ele>150.0</ele>
        <time>2018-10-04T07:30:30Z</time>
      </trkpt>
      <trkpt lat="38.2971210" lon="-0.7190200">
        <ele>150.1</ele>
        <time>2018-10-04T07:30:31Z</time>
      </trkpt>
      <trkpt lat="38.2971480" lon="-0.7190630">
        <ele>150.2</ele>
        <time>2018-10-04T07:30:32Z</time>
      </trkpt>
      <trkpt lat="38.2971770" lon="-0.7191050">
        <ele>150.3</ele>
        <time>2018-10-04T07:30:33Z</time>
      </trkpt>
      <trkpt lat="38.2972080" lon="-0.7191450">
        <ele>150.4</ele>
        <time>2018-10-04T07:30:34Z</time>
      </trkpt>
      <trkpt lat="38.2972410" lon="-0.7191830">
        <ele>150.5</ele>
        <time>2018-10-04T07:30:35Z</time>
      </trkpt>
      <trkpt lat="38.2972740" lon="-0.7192230">
        <ele>150.6</ele>
        <time>2018-10-04T07:30:36Z</time>
      </trkpt>
      <trkpt lat="38.2973140" lon="-0.7192620">
        <ele>150.7</ele>
        <time>2018-10-04T07:30:37Z</time>
      </trkpt>
      <trkpt lat="38.2973520" lon="-0.7193040">
        <ele>150.9</ele>
        <time>2018-10-04T07:30:38Z</time>
      </trkpt>
      <trkpt lat="38.2973880" lon="-0.7193450">
        <ele>150.9</ele>
        <time>2018-10-04T07:30:39Z</time>
      </trkpt>
      <trkpt lat="38.2974270" lon="-0.7193870">
        <ele>151.0</ele>
        <time>2018-10-04T07:30:40Z</time>
      </trkpt>
      <trkpt lat="38.2974660" lon="-0.7194310">
        <ele>151.1</ele>
        <time>2018-10-04T07:30:41Z</time>
      </trkpt>
      <trkpt lat="38.2975040" lon="-0.7194780">
        <ele>151.2</ele>
        <time>2018-10-04T07:30:42Z</time>
      </trkpt>
      <trkpt lat="38.2975410" lon="-0.7195280">
        <ele>151.3</ele>
        <time>2018-10-04T07:30:43Z</time>
      </trkpt>
      <trkpt lat="38.2975790" lon="-0.7195770">
        <ele>151.4</ele>
        <time>2018-10-04T07:30:44Z</time>
      </trkpt>
      <trkpt lat="38.2976180" lon="-0.7196280">
        <ele>151.6</ele>
        <time>2018-10-04T07:30:45Z</time>
      </trkpt>
      <trkpt lat="38.2976550" lon="-0.7196800">
        <ele>151.7</ele>
        <time>2018-10-04T07:30:46Z</time>
      </trkpt>
      <trkpt lat="38.2976900" lon="-0.7197340">
        <ele>151.8</ele>
        <time>2018-10-04T07:30:47Z</time>
      </trkpt>
      <trkpt lat="38.2977290" lon="-0.7197860">
        <ele>151.9</ele>
        <time>2018-10-04T07:30:48Z</time>
      </trkpt>
      <trkpt lat="38.2977670" lon="-0.7198390">
        <ele>152.0</ele>
        <time>2018-10-04T07:30:49Z</time>
      </trkpt>
      <trkpt lat="38.2978040" lon="-0.7198930">
        <ele>152.1</ele>
        <time>2018-10-04T07:30:50Z</time>
      </trkpt>
      <trkpt lat="38.2978390" lon="-0.7199490">
        <ele>152.1</ele>
        <time>2018-10-04T07:30:51Z</time>
      </trkpt>
      <trkpt lat="38.2978730" lon="-0.7200080">
        <ele>152.2</ele>
        <time>2018-10-04T07:30:52Z</time>
      </trkpt>
      <trkpt lat="38.2979050" lon="-0.7200680">
        <ele>152.2</ele>
        <time>2018-10-04T07:30:53Z</time>
      </trkpt>
      <trkpt lat="38.2979370" lon="-0.7201290">
        <ele>152.2</ele>
        <time>2018-10-04T07:30:54Z</time>
      </trkpt>
      <trkpt lat="38.2979700" lon="-0.7201890">
        <ele>152.2</ele>
        <time>2018-10-04T07:30:55Z</time>
      </trkpt>
      <trkpt lat="38.2980060" lon="-0.7202470">
        <ele>152.2</ele>
        <time>2018-10-04T07:30:56Z</time>
      </trkpt>
      <trkpt lat="38.2980420" lon="-0.7203070">
        <ele>152.3</ele>
        <time>2018-10-04T07:30:57Z</time>
      </trkpt>
      <trkpt lat="38.2980780" lon="-0.7203660">
        <ele>152.2</ele>
        <time>2018-10-04T07:30:58Z</time>
      </trkpt>
      <trkpt lat="38.2981200" lon="-0.7204190">
        <ele>152.1</ele>
        <time>2018-10-04T07:30:59Z</time>
      </trkpt>
      <trkpt lat="38.2981650" lon="-0.7204690">
        <ele>152.1</ele>
        <time>2018-10-04T07:31:00Z</time>
      </trkpt>
      <trkpt lat="38.2982150" lon="-0.7205160">
        <ele>151.9</ele>
        <time>2018-10-04T07:31:01Z</time>
      </trkpt>
      <trkpt lat="38.2982670" lon="-0.7205580">
        <ele>151.7</ele>
        <time>2018-10-04T07:31:02Z</time>
      </trkpt>
      <trkpt lat="38.2983220" lon="-0.7205990">
        <ele>151.5</ele>
        <time>2018-10-04T07:31:03Z</time>
      </trkpt>
      <trkpt lat="38.2983790" lon="-0.7206430">
        <ele>151.0</ele>
        <time>2018-10-04T07:31:04Z</time>
      </trkpt>
      <trkpt lat="38.2984340" lon="-0.7206900">
        <ele>150.6</ele>
        <time>2018-10-04T07:31:05Z</time>
      </trkpt>
      <trkpt lat="38.2984910" lon="-0.7207370">
        <ele>150.1</ele>
        <time>2018-10-04T07:31:06Z</time>
      </trkpt>
      <trkpt lat="38.2985470" lon="-0.7207870">
        <ele>149.6</ele>
        <time>2018-10-04T07:31:07Z</time>
      </trkpt>
      <trkpt lat="38.2986030" lon="-0.7208400">
        <ele>149.2</ele>
        <time>2018-10-04T07:31:08Z</time>
      </trkpt>
      <trkpt lat="38.2986580" lon="-0.7208970">
        <ele>148.7</ele>
        <time>2018-10-04T07:31:09Z</time>
      </trkpt>
      <trkpt lat="38.2987130" lon="-0.7209580">
        <ele>148.4</ele>
        <time>2018-10-04T07:31:10Z</time>
      </trkpt>
      <trkpt lat="38.2987670" lon="-0.7210220">
        <ele>148.1</ele>
        <time>2018-10-04T07:31:11Z</time>
      </trkpt>
      <trkpt lat="38.2988230" lon="-0.7210890">
        <ele>147.8</ele>
        <time>2018-10-04T07:31:12Z</time>
      </trkpt>
      <trkpt lat="38.2988810" lon="-0.7211560">
        <ele>147.5</ele>
        <time>2018-10-04T07:31:13Z</time>
      </trkpt>
      <trkpt lat="38.2989390" lon="-0.7212250">
        <ele>147.1</ele>
        <time>2018-10-04T07:31:14Z</time>
      </trkpt>
      <trkpt lat="38.2989960" lon="-0.7212960">
        <ele>147.0</ele>
        <time>2018-10-04T07:31:15Z</time>
      </trkpt>
      <trkpt lat="38.2990560" lon="-0.7213650">
        <ele>146.8</ele>
        <time>2018-10-04T07:31:16Z</time>
      </trkpt>
      <trkpt lat="38.2991150" lon="-0.7214330">
        <ele>146.6</ele>
        <time>2018-10-04T07:31:17Z</time>
      </trkpt>
      <trkpt lat="38.2991740" lon="-0.7214970">
        <ele>146.5</ele>
        <time>2018-10-04T07:31:18Z</time>
      </trkpt>
      <trkpt lat="38.2992320" lon="-0.7215590">
        <ele>146.4</ele>
        <time>2018-10-04T07:31:19Z</time>
      </trkpt>
      <trkpt lat="38.2992890" lon="-0.7216170">
        <ele>146.3</ele>
        <time>2018-10-04T07:31:20Z</time>
      </trkpt>
      <trkpt lat="38.2993430" lon="-0.7216750">
        <ele>146.4</ele>
        <time>2018-10-04T07:31:21Z</time>
      </trkpt>
      <trkpt lat="38.2993970" lon="-0.7217310">
        <ele>146.6</ele>
        <time>2018-10-04T07:31:22Z</time>
      </trkpt>
      <trkpt lat="38.2994460" lon="-0.7217850">
        <ele>146.7</ele>
        <time>2018-10-04T07:31:23Z</time>
      </trkpt>
      <trkpt lat="38.2994950" lon="-0.7218380">
        <ele>147.0</ele>
        <time>2018-10-04T07:31:24Z</time>
      </trkpt>
      <trkpt lat="38.2995420" lon="-0.7218870">
        <ele>147.0</ele>
        <time>2018-10-04T07:31:25Z</time>
      </trkpt>
      <trkpt lat="38.2995880" lon="-0.7219340">
        <ele>147.0</ele>
        <time>2018-10-04T07:31:26Z</time>
      </trkpt>
      <trkpt lat="38.2996320" lon="-0.7219790">
        <ele>147.0</ele>
        <time>2018-10-04T07:31:27Z</time>
      </trkpt>
      <trkpt lat="38.2996710" lon="-0.7220220">
        <ele>147.0</ele>
        <time>2018-10-04T07:31:28Z</time>
      </trkpt>
      <trkpt lat="38.2997100" lon="-0.7220620">
        <ele>147.0</ele>
        <time>2018-10-04T07:31:29Z</time>
      </trkpt>
      <trkpt lat="38.2997490" lon="-0.7220990">
        <ele>147.0</ele>
        <time>2018-10-04T07:31:30Z</time>
      </trkpt>
      <trkpt lat="38.2997840" lon="-0.7221370">
        <ele>147.0</ele>
        <time>2018-10-04T07:31:31Z</time>
      </trkpt>
      <trkpt lat="38.2998140" lon="-0.7221760">
        <ele>147.0</ele>
        <time>2018-10-04T07:31:32Z</time>
      </trkpt>
      <trkpt lat="38.2998490" lon="-0.7222140">
        <ele>147.0</ele>
        <time>2018-10-04T07:31:33Z</time>
      </trkpt>
      <trkpt lat="38.2998840" lon="-0.7222420">
        <ele>147.0</ele>
        <time>2018-10-04T07:31:34Z</time>
      </trkpt>
      <trkpt lat="38.2999210" lon="-0.7222530">
        <ele>147.0</ele>
        <time>2018-10-04T07:31:35Z</time>
      </trkpt>
      <trkpt lat="38.2999480" lon="-0.7222490">
        <ele>147.0</ele>
        <time>2018-10-04T07:31:36Z</time>
      </trkpt>
      <trkpt lat="38.2999730" lon="-0.7222370">
        <ele>147.0</ele>
        <time>2018-10-04T07:31:37Z</time>
      </trkpt>
      <trkpt lat="38.3000010" lon="-0.7222200">
        <ele>146.9</ele>
        <time>2018-10-04T07:31:38Z</time>
      </trkpt>
      <trkpt lat="38.3000340" lon="-0.7222090">
        <ele>146.9</ele>
        <time>2018-10-04T07:31:39Z</time>
      </trkpt>
      <trkpt lat="38.3000670" lon="-0.7222190">
        <ele>146.9</ele>
        <time>2018-10-04T07:31:40Z</time>
      </trkpt>
      <trkpt lat="38.3000970" lon="-0.7222380">
        <ele>146.9</ele>
        <time>2018-10-04T07:31:41Z</time>
      </trkpt>
      <trkpt lat="38.3001250" lon="-0.7222640">
        <ele>146.9</ele>
        <time>2018-10-04T07:31:42Z</time>
      </trkpt>
      <trkpt lat="38.3001490" lon="-0.7222940">
        <ele>147.0</ele>
        <time>2018-10-04T07:31:43Z</time>
      </trkpt>
      <trkpt lat="38.3001560" lon="-0.7223300">
        <ele>147.0</ele>
        <time>2018-10-04T07:31:44Z</time>
      </trkpt>
      <trkpt lat="38.3001590" lon="-0.7223610">
        <ele>147.0</ele>
        <time>2018-10-04T07:31:45Z</time>
      </trkpt>
      <trkpt lat="38.3001660" lon="-0.7223930">
        <ele>147.0</ele>
        <time>2018-10-04T07:31:46Z</time>
      </trkpt>
      <trkpt lat="38.3001650" lon="-0.7224220">
        <ele>147.0</ele>
        <time>2018-10-04T07:31:47Z</time>
      </trkpt>
      <trkpt lat="38.3001690" lon="-0.7224570">
        <ele>147.1</ele>
        <time>2018-10-04T07:31:48Z</time>
      </trkpt>
      <trkpt lat="38.3001790" lon="-0.7224990">
        <ele>147.1</ele>
        <time>2018-10-04T07:31:49Z</time>
      </trkpt>
      <trkpt lat="38.3001930" lon="-0.7225430">
        <ele>147.1</ele>
        <time>2018-10-04T07:31:50Z</time>
      </trkpt>
      <trkpt lat="38.3002130" lon="-0.7225860">
        <ele>147.2</ele>
        <time>2018-10-04T07:31:51Z</time>
      </trkpt>
      <trkpt lat="38.3002380" lon="-0.7226240">
        <ele>147.2</ele>
        <time>2018-10-04T07:31:52Z</time>
      </trkpt>
      <trkpt lat="38.3002650" lon="-0.7226600">
        <ele>147.2</ele>
        <time>2018-10-04T07:31:53Z</time>
      </trkpt>
      <trkpt lat="38.3002960" lon="-0.7226920">
        <ele>147.1</ele>
        <time>2018-10-04T07:31:54Z</time>
      </trkpt>
      <trkpt lat="38.3003250" lon="-0.7227240">
        <ele>147.1</ele>
        <time>2018-10-04T07:31:55Z</time>
      </trkpt>
      <trkpt lat="38.3003530" lon="-0.7227530">
        <ele>147.2</ele>
        <time>2018-10-04T07:31:56Z</time>
      </trkpt>
      <trkpt lat="38.3003760" lon="-0.7227710">
        <ele>147.4</ele>
        <time>2018-10-04T07:31:57Z</time>
      </trkpt>
      <trkpt lat="38.3003790" lon="-0.7227730">
        <ele>147.4</ele>
        <time>2018-10-04T07:31:58Z</time>
      </trkpt>
      <trkpt lat="38.3003790" lon="-0.7227730">
        <ele>147.4</ele>
        <time>2018-10-04T07:31:59Z</time>
      </trkpt>
      <trkpt lat="38.3003860" lon="-0.7227750">
        <ele>147.4</ele>
        <time>2018-10-04T07:32:00Z</time>
      </trkpt>
      <trkpt lat="38.3003910" lon="-0.7227750">
        <ele>147.5</ele>
        <time>2018-10-04T07:32:01Z</time>
      </trkpt>
      <trkpt lat="38.3003960" lon="-0.7227750">
        <ele>147.5</ele>
        <time>2018-10-04T07:32:02Z</time>
      </trkpt>
      <trkpt lat="38.3004010" lon="-0.7227810">
        <ele>147.5</ele>
        <time>2018-10-04T07:32:03Z</time>
      </trkpt>
      <trkpt lat="38.3004050" lon="-0.7227860">
        <ele>147.5</ele>
        <time>2018-10-04T07:32:04Z</time>
      </trkpt>
      <trkpt lat="38.3004090" lon="-0.7227860">
        <ele>147.6</ele>
        <time>2018-10-04T07:32:05Z</time>
      </trkpt>
      <trkpt lat="38.3004160" lon="-0.7227920">
        <ele>147.6</ele>
        <time>2018-10-04T07:32:06Z</time>
      </trkpt>
      <trkpt lat="38.3004200" lon="-0.7227920">
        <ele>147.6</ele>
        <time>2018-10-04T07:32:07Z</time>
      </trkpt>
      <trkpt lat="38.3004230" lon="-0.7227920">
        <ele>147.6</ele>
        <time>2018-10-04T07:32:08Z</time>
      </trkpt>
      <trkpt lat="38.3004220" lon="-0.7227940">
        <ele>147.7</ele>
        <time>2018-10-04T07:32:09Z</time>
      </trkpt>
      <trkpt lat="38.3004210" lon="-0.7227940">
        <ele>147.7</ele>
        <time>2018-10-04T07:32:10Z</time>
      </trkpt>
      <trkpt lat="38.3004300" lon="-0.7227900">
        <ele>147.7</ele>
        <time>2018-10-04T07:32:11Z</time>
      </trkpt>
      <trkpt lat="38.3004470" lon="-0.7227880">
        <ele>147.8</ele>
        <time>2018-10-04T07:32:12Z</time>
      </trkpt>
      <trkpt lat="38.3004670" lon="-0.7227910">
        <ele>148.0</ele>
        <time>2018-10-04T07:32:13Z</time>
      </trkpt>
      <trkpt lat="38.3004910" lon="-0.7227950">
        <ele>148.2</ele>
        <time>2018-10-04T07:32:14Z</time>
      </trkpt>
      <trkpt lat="38.3005170" lon="-0.7227990">
        <ele>148.4</ele>
        <time>2018-10-04T07:32:15Z</time>
      </trkpt>
      <trkpt lat="38.3005430" lon="-0.7228080">
        <ele>148.7</ele>
        <time>2018-10-04T07:32:16Z</time>
      </trkpt>
      <trkpt lat="38.3005700" lon="-0.7228190">
        <ele>148.9</ele>
        <time>2018-10-04T07:32:17Z</time>
      </trkpt>
      <trkpt lat="38.3005950" lon="-0.7228300">
        <ele>149.1</ele>
        <time>2018-10-04T07:32:18Z</time>
      </trkpt>
      <trkpt lat="38.3006200" lon="-0.7228400">
        <ele>149.2</ele>
        <time>2018-10-04T07:32:19Z</time>
      </trkpt>
      <trkpt lat="38.3006440" lon="-0.7228500">
        <ele>149.3</ele>
        <time>2018-10-04T07:32:20Z</time>
      </trkpt>
      <trkpt lat="38.3006650" lon="-0.7228670">
        <ele>149.5</ele>
        <time>2018-10-04T07:32:21Z</time>
      </trkpt>
      <trkpt lat="38.3006870" lon="-0.7228850">
        <ele>149.6</ele>
        <time>2018-10-04T07:32:22Z</time>
      </trkpt>
      <trkpt lat="38.3007110" lon="-0.7229050">
        <ele>149.8</ele>
        <time>2018-10-04T07:32:23Z</time>
      </trkpt>
      <trkpt lat="38.3007340" lon="-0.7229250">
        <ele>149.9</ele>
        <time>2018-10-04T07:32:24Z</time>
      </trkpt>
      <trkpt lat="38.3007560" lon="-0.7229450">
        <ele>150.1</ele>
        <time>2018-10-04T07:32:25Z</time>
      </trkpt>
      <trkpt lat="38.3007780" lon="-0.7229650">
        <ele>150.2</ele>
        <time>2018-10-04T07:32:26Z</time>
      </trkpt>
      <trkpt lat="38.3008000" lon="-0.7229870">
        <ele>150.4</ele>
        <time>2018-10-04T07:32:27Z</time>
      </trkpt>
      <trkpt lat="38.3008240" lon="-0.7230070">
        <ele>150.7</ele>
        <time>2018-10-04T07:32:28Z</time>
      </trkpt>
      <trkpt lat="38.3008470" lon="-0.7230240">
        <ele>151.0</ele>
        <time>2018-10-04T07:32:29Z</time>
      </trkpt>
      <trkpt lat="38.3008690" lon="-0.7230410">
        <ele>151.2</ele>
        <time>2018-10-04T07:32:30Z</time>
      </trkpt>
      <trkpt lat="38.3008920" lon="-0.7230540">
        <ele>151.4</ele>
        <time>2018-10-04T07:32:31Z</time>
      </trkpt>
      <trkpt lat="38.3009170" lon="-0.7230640">
        <ele>151.6</ele>
        <time>2018-10-04T07:32:32Z</time>
      </trkpt>
      <trkpt lat="38.3009390" lon="-0.7230780">
        <ele>151.8</ele>
        <time>2018-10-04T07:32:33Z</time>
      </trkpt>
      <trkpt lat="38.3009560" lon="-0.7230930">
        <ele>151.9</ele>
        <time>2018-10-04T07:32:34Z</time>
      </trkpt>
      <trkpt lat="38.3009760" lon="-0.7231100">
        <ele>152.1</ele>
        <time>2018-10-04T07:32:35Z</time>
      </trkpt>
      <trkpt lat="38.3009970" lon="-0.7231250">
        <ele>152.3</ele>
        <time>2018-10-04T07:32:36Z</time>
      </trkpt>
      <trkpt lat="38.3010170" lon="-0.7231420">
        <ele>152.6</ele>
        <time>2018-10-04T07:32:37Z</time>
      </trkpt>
      <trkpt lat="38.3010370" lon="-0.7231570">
        <ele>152.8</ele>
        <time>2018-10-04T07:32:38Z</time>
      </trkpt>
      <trkpt lat="38.3010550" lon="-0.7231740">
        <ele>153.1</ele>
        <time>2018-10-04T07:32:39Z</time>
      </trkpt>
      <trkpt lat="38.3010690" lon="-0.7231950">
        <ele>153.3</ele>
        <time>2018-10-04T07:32:40Z</time>
      </trkpt>
      <trkpt lat="38.3010860" lon="-0.7232110">
        <ele>153.5</ele>
        <time>2018-10-04T07:32:41Z</time>
      </trkpt>
      <trkpt lat="38.3011030" lon="-0.7232270">
        <ele>153.7</ele>
        <time>2018-10-04T07:32:42Z</time>
      </trkpt>
      <trkpt lat="38.3011210" lon="-0.7232430">
        <ele>153.9</ele>
        <time>2018-10-04T07:32:43Z</time>
      </trkpt>
      <trkpt lat="38.3011390" lon="-0.7232590">
        <ele>154.0</ele>
        <time>2018-10-04T07:32:44Z</time>
      </trkpt>
      <trkpt lat="38.3011590" lon="-0.7232750">
        <ele>154.2</ele>
        <time>2018-10-04T07:32:45Z</time>
      </trkpt>
      <trkpt lat="38.3011780" lon="-0.7232920">
        <ele>154.4</ele>
        <time>2018-10-04T07:32:46Z</time>
      </trkpt>
      <trkpt lat="38.3011960" lon="-0.7233080">
        <ele>154.5</ele>
        <time>2018-10-04T07:32:47Z</time>
      </trkpt>
      <trkpt lat="38.3012160" lon="-0.7233240">
        <ele>154.7</ele>
        <time>2018-10-04T07:32:48Z</time>
      </trkpt>
      <trkpt lat="38.3012360" lon="-0.7233380">
        <ele>155.0</ele>
        <time>2018-10-04T07:32:49Z</time>
      </trkpt>
      <trkpt lat="38.3012580" lon="-0.7233470">
        <ele>155.2</ele>
        <time>2018-10-04T07:32:50Z</time>
      </trkpt>
      <trkpt lat="38.3012840" lon="-0.7233550">
        <ele>155.6</ele>
        <time>2018-10-04T07:32:51Z</time>
      </trkpt>
      <trkpt lat="38.3013090" lon="-0.7233690">
        <ele>155.9</ele>
        <time>2018-10-04T07:32:52Z</time>
      </trkpt>
      <trkpt lat="38.3013340" lon="-0.7233810">
        <ele>156.3</ele>
        <time>2018-10-04T07:32:53Z</time>
      </trkpt>
      <trkpt lat="38.3013590" lon="-0.7233970">
        <ele>156.5</ele>
        <time>2018-10-04T07:32:54Z</time>
      </trkpt>
      <trkpt lat="38.3013920" lon="-0.7234020">
        <ele>156.7</ele>
        <time>2018-10-04T07:32:55Z</time>
      </trkpt>
      <trkpt lat="38.3014280" lon="-0.7233990">
        <ele>157.0</ele>
        <time>2018-10-04T07:32:56Z</time>
      </trkpt>
      <trkpt lat="38.3014600" lon="-0.7234070">
        <ele>157.3</ele>
        <time>2018-10-04T07:32:57Z</time>
      </trkpt>
      <trkpt lat="38.3014930" lon="-0.7234120">
        <ele>157.5</ele>
        <time>2018-10-04T07:32:58Z</time>
      </trkpt>
      <trkpt lat="38.3015260" lon="-0.7234190">
        <ele>158.0</ele>
        <time>2018-10-04T07:32:59Z</time>
      </trkpt>
      <trkpt lat="38.3015610" lon="-0.7234250">
        <ele>158.4</ele>
        <time>2018-10-04T07:33:00Z</time>
      </trkpt>
      <trkpt lat="38.3015970" lon="-0.7234320">
        <ele>158.9</ele>
        <time>2018-10-04T07:33:01Z</time>
      </trkpt>
      <trkpt lat="38.3016320" lon="-0.7234390">
        <ele>159.3</ele>
        <time>2018-10-04T07:33:02Z</time>
      </trkpt>
      <trkpt lat="38.3016650" lon="-0.7234510">
        <ele>159.7</ele>
        <time>2018-10-04T07:33:03Z</time>
      </trkpt>
      <trkpt lat="38.3017000" lon="-0.7234630">
        <ele>160.2</ele>
        <time>2018-10-04T07:33:04Z</time>
      </trkpt>
      <trkpt lat="38.3017350" lon="-0.7234720">
        <ele>160.5</ele>
        <time>2018-10-04T07:33:05Z</time>
      </trkpt>
      <trkpt lat="38.3017700" lon="-0.7234770">
        <ele>160.9</ele>
        <time>2018-10-04T07:33:06Z</time>
      </trkpt>
      <trkpt lat="38.3018070" lon="-0.7234810">
        <ele>161.2</ele>
        <time>2018-10-04T07:33:07Z</time>
      </trkpt>
      <trkpt lat="38.3018450" lon="-0.7234830">
        <ele>161.6</ele>
        <time>2018-10-04T07:33:08Z</time>
      </trkpt>
      <trkpt lat="38.3018820" lon="-0.7234870">
        <ele>162.0</ele>
        <time>2018-10-04T07:33:09Z</time>
      </trkpt>
      <trkpt lat="38.3019180" lon="-0.7234890">
        <ele>162.3</ele>
        <time>2018-10-04T07:33:10Z</time>
      </trkpt>
      <trkpt lat="38.3019510" lon="-0.7234920">
        <ele>162.7</ele>
        <time>2018-10-04T07:33:11Z</time>
      </trkpt>
      <trkpt lat="38.3019840" lon="-0.7234950">
        <ele>163.1</ele>
        <time>2018-10-04T07:33:12Z</time>
      </trkpt>
      <trkpt lat="38.3020150" lon="-0.7234990">
        <ele>163.7</ele>
        <time>2018-10-04T07:33:13Z</time>
      </trkpt>
      <trkpt lat="38.3020460" lon="-0.7235010">
        <ele>164.2</ele>
        <time>2018-10-04T07:33:14Z</time>
      </trkpt>
      <trkpt lat="38.3020750" lon="-0.7234980">
        <ele>164.6</ele>
        <time>2018-10-04T07:33:15Z</time>
      </trkpt>
      <trkpt lat="38.3021050" lon="-0.7234950">
        <ele>164.9</ele>
        <time>2018-10-04T07:33:16Z</time>
      </trkpt>
      <trkpt lat="38.3021340" lon="-0.7234970">
        <ele>165.2</ele>
        <time>2018-10-04T07:33:17Z</time>
      </trkpt>
      <trkpt lat="38.3021630" lon="-0.7235020">
        <ele>165.5</ele>
        <time>2018-10-04T07:33:18Z</time>
      </trkpt>
      <trkpt lat="38.3021910" lon="-0.7235010">
        <ele>165.8</ele>
        <time>2018-10-04T07:33:19Z</time>
      </trkpt>
      <trkpt lat="38.3022190" lon="-0.7235000">
        <ele>166.1</ele>
        <time>2018-10-04T07:33:20Z</time>
      </trkpt>
      <trkpt lat="38.3022470" lon="-0.7235020">
        <ele>166.4</ele>
        <time>2018-10-04T07:33:21Z</time>
      </trkpt>
      <trkpt lat="38.3022750" lon="-0.7235040">
        <ele>166.7</ele>
        <time>2018-10-04T07:33:22Z</time>
      </trkpt>
      <trkpt lat="38.3023040" lon="-0.7235070">
        <ele>167.1</ele>
        <time>2018-10-04T07:33:23Z</time>
      </trkpt>
      <trkpt lat="38.3023330" lon="-0.7235120">
        <ele>167.5</ele>
        <time>2018-10-04T07:33:24Z</time>
      </trkpt>
      <trkpt lat="38.3023630" lon="-0.7235160">
        <ele>168.0</ele>
        <time>2018-10-04T07:33:25Z</time>
      </trkpt>
      <trkpt lat="38.3023920" lon="-0.7235200">
        <ele>168.4</ele>
        <time>2018-10-04T07:33:26Z</time>
      </trkpt>
      <trkpt lat="38.3024220" lon="-0.7235260">
        <ele>168.8</ele>
        <time>2018-10-04T07:33:27Z</time>
      </trkpt>
      <trkpt lat="38.3024530" lon="-0.7235320">
        <ele>169.2</ele>
        <time>2018-10-04T07:33:28Z</time>
      </trkpt>
      <trkpt lat="38.3024840" lon="-0.7235390">
        <ele>169.5</ele>
        <time>2018-10-04T07:33:29Z</time>
      </trkpt>
      <trkpt lat="38.3025160" lon="-0.7235480">
        <ele>169.9</ele>
        <time>2018-10-04T07:33:30Z</time>
      </trkpt>
      <trkpt lat="38.3025470" lon="-0.7235570">
        <ele>170.3</ele>
        <time>2018-10-04T07:33:31Z</time>
      </trkpt>
      <trkpt lat="38.3025800" lon="-0.7235700">
        <ele>170.6</ele>
        <time>2018-10-04T07:33:32Z</time>
      </trkpt>
      <trkpt lat="38.3026120" lon="-0.7235870">
        <ele>171.0</ele>
        <time>2018-10-04T07:33:33Z</time>
      </trkpt>
      <trkpt lat="38.3026450" lon="-0.7236050">
        <ele>171.4</ele>
        <time>2018-10-04T07:33:34Z</time>
      </trkpt>
      <trkpt lat="38.3026790" lon="-0.7236180">
        <ele>171.7</ele>
        <time>2018-10-04T07:33:35Z</time>
      </trkpt>
      <trkpt lat="38.3027150" lon="-0.7236260">
        <ele>172.1</ele>
        <time>2018-10-04T07:33:36Z</time>
      </trkpt>
      <trkpt lat="38.3027490" lon="-0.7236330">
        <ele>172.4</ele>
        <time>2018-10-04T07:33:37Z</time>
      </trkpt>
      <trkpt lat="38.3027870" lon="-0.7236410">
        <ele>172.7</ele>
        <time>2018-10-04T07:33:38Z</time>
      </trkpt>
      <trkpt lat="38.3028280" lon="-0.7236490">
        <ele>173.1</ele>
        <time>2018-10-04T07:33:39Z</time>
      </trkpt>
      <trkpt lat="38.3028690" lon="-0.7236630">
        <ele>173.5</ele>
        <time>2018-10-04T07:33:40Z</time>
      </trkpt>
      <trkpt lat="38.3029120" lon="-0.7236760">
        <ele>173.8</ele>
        <time>2018-10-04T07:33:41Z</time>
      </trkpt>
      <trkpt lat="38.3029550" lon="-0.7236900">
        <ele>174.2</ele>
        <time>2018-10-04T07:33:42Z</time>
      </trkpt>
      <trkpt lat="38.3030010" lon="-0.7237000">
        <ele>174.6</ele>
        <time>2018-10-04T07:33:43Z</time>
      </trkpt>
      <trkpt lat="38.3030470" lon="-0.7237060">
        <ele>174.9</ele>
        <time>2018-10-04T07:33:44Z</time>
      </trkpt>
      <trkpt lat="38.3030900" lon="-0.7237040">
        <ele>175.3</ele>
        <time>2018-10-04T07:33:45Z</time>
      </trkpt>
      <trkpt lat="38.3031350" lon="-0.7236990">
        <ele>175.6</ele>
        <time>2018-10-04T07:33:46Z</time>
      </trkpt>
      <trkpt lat="38.3031790" lon="-0.7236950">
        <ele>176.1</ele>
        <time>2018-10-04T07:33:47Z</time>
      </trkpt>
      <trkpt lat="38.3032250" lon="-0.7236930">
        <ele>176.5</ele>
        <time>2018-10-04T07:33:48Z</time>
      </trkpt>
      <trkpt lat="38.3032690" lon="-0.7236920">
        <ele>176.8</ele>
        <time>2018-10-04T07:33:49Z</time>
      </trkpt>
      <trkpt lat="38.3033140" lon="-0.7236970">
        <ele>177.0</ele>
        <time>2018-10-04T07:33:50Z</time>
      </trkpt>
      <trkpt lat="38.3033550" lon="-0.7237000">
        <ele>177.1</ele>
        <time>2018-10-04T07:33:51Z</time>
      </trkpt>
      <trkpt lat="38.3033960" lon="-0.7237030">
        <ele>177.2</ele>
        <time>2018-10-04T07:33:52Z</time>
      </trkpt>
      <trkpt lat="38.3034370" lon="-0.7237060">
        <ele>177.4</ele>
        <time>2018-10-04T07:33:53Z</time>
      </trkpt>
      <trkpt lat="38.3034760" lon="-0.7237100">
        <ele>177.5</ele>
        <time>2018-10-04T07:33:54Z</time>
      </trkpt>
      <trkpt lat="38.3035150" lon="-0.7237160">
        <ele>177.7</ele>
        <time>2018-10-04T07:33:55Z</time>
      </trkpt>
      <trkpt lat="38.3035530" lon="-0.7237210">
        <ele>177.9</ele>
        <time>2018-10-04T07:33:56Z</time>
      </trkpt>
      <trkpt lat="38.3035910" lon="-0.7237310">
        <ele>178.2</ele>
        <time>2018-10-04T07:33:57Z</time>
      </trkpt>
      <trkpt lat="38.3036280" lon="-0.7237440">
        <ele>178.6</ele>
        <time>2018-10-04T07:33:58Z</time>
      </trkpt>
      <trkpt lat="38.3036680" lon="-0.7237560">
        <ele>179.0</ele>
        <time>2018-10-04T07:33:59Z</time>
      </trkpt>
      <trkpt lat="38.3037080" lon="-0.7237630">
        <ele>179.3</ele>
        <time>2018-10-04T07:34:00Z</time>
      </trkpt>
      <trkpt lat="38.3037510" lon="-0.7237670">
        <ele>179.6</ele>
        <time>2018-10-04T07:34:01Z</time>
      </trkpt>
      <trkpt lat="38.3037910" lon="-0.7237760">
        <ele>179.9</ele>
        <time>2018-10-04T07:34:02Z</time>
      </trkpt>
      <trkpt lat="38.3038310" lon="-0.7237860">
        <ele>180.4</ele>
        <time>2018-10-04T07:34:03Z</time>
      </trkpt>
      <trkpt lat="38.3038690" lon="-0.7237940">
        <ele>180.8</ele>
        <time>2018-10-04T07:34:04Z</time>
      </trkpt>
      <trkpt lat="38.3039060" lon="-0.7238000">
        <ele>181.0</ele>
        <time>2018-10-04T07:34:05Z</time>
      </trkpt>
      <trkpt lat="38.3039450" lon="-0.7238110">
        <ele>181.2</ele>
        <time>2018-10-04T07:34:06Z</time>
      </trkpt>
      <trkpt lat="38.3039860" lon="-0.7238210">
        <ele>181.5</ele>
        <time>2018-10-04T07:34:07Z</time>
      </trkpt>
      <trkpt lat="38.3040270" lon="-0.7238300">
        <ele>181.7</ele>
        <time>2018-10-04T07:34:08Z</time>
      </trkpt>
      <trkpt lat="38.3040680" lon="-0.7238400">
        <ele>181.9</ele>
        <time>2018-10-04T07:34:09Z</time>
      </trkpt>
      <trkpt lat="38.3041100" lon="-0.7238460">
        <ele>182.2</ele>
        <time>2018-10-04T07:34:10Z</time>
      </trkpt>
      <trkpt lat="38.3041530" lon="-0.7238510">
        <ele>182.4</ele>
        <time>2018-10-04T07:34:11Z</time>
      </trkpt>
      <trkpt lat="38.3041960" lon="-0.7238590">
        <ele>182.7</ele>
        <time>2018-10-04T07:34:12Z</time>
      </trkpt>
      <trkpt lat="38.3042420" lon="-0.7238680">
        <ele>182.9</ele>
        <time>2018-10-04T07:34:13Z</time>
      </trkpt>
      <trkpt lat="38.3042900" lon="-0.7238760">
        <ele>183.1</ele>
        <time>2018-10-04T07:34:14Z</time>
      </trkpt>
      <trkpt lat="38.3043410" lon="-0.7238820">
        <ele>183.4</ele>
        <time>2018-10-04T07:34:15Z</time>
      </trkpt>
      <trkpt lat="38.3043950" lon="-0.7238900">
        <ele>183.6</ele>
        <time>2018-10-04T07:34:16Z</time>
      </trkpt>
      <trkpt lat="38.3044490" lon="-0.7238970">
        <ele>183.7</ele>
        <time>2018-10-04T07:34:17Z</time>
      </trkpt>
      <trkpt lat="38.3045070" lon="-0.7239000">
        <ele>183.8</ele>
        <time>2018-10-04T07:34:18Z</time>
      </trkpt>
      <trkpt lat="38.3045640" lon="-0.7238990">
        <ele>183.9</ele>
        <time>2018-10-04T07:34:19Z</time>
      </trkpt>
      <trkpt lat="38.3046240" lon="-0.7238880">
        <ele>184.0</ele>
        <time>2018-10-04T07:34:20Z</time>
      </trkpt>
      <trkpt lat="38.3046830" lon="-0.7238820">
        <ele>184.0</ele>
        <time>2018-10-04T07:34:21Z</time>
      </trkpt>
      <trkpt lat="38.3047420" lon="-0.7238840">
        <ele>183.9</ele>
        <time>2018-10-04T07:34:22Z</time>
      </trkpt>
      <trkpt lat="38.3048000" lon="-0.7238890">
        <ele>183.6</ele>
        <time>2018-10-04T07:34:23Z</time>
      </trkpt>
      <trkpt lat="38.3048570" lon="-0.7238940">
        <ele>183.3</ele>
        <time>2018-10-04T07:34:24Z</time>
      </trkpt>
      <trkpt lat="38.3049140" lon="-0.7238980">
        <ele>183.0</ele>
        <time>2018-10-04T07:34:25Z</time>
      </trkpt>
      <trkpt lat="38.3049710" lon="-0.7239060">
        <ele>182.7</ele>
        <time>2018-10-04T07:34:26Z</time>
      </trkpt>
      <trkpt lat="38.3050230" lon="-0.7239320">
        <ele>182.3</ele>
        <time>2018-10-04T07:34:27Z</time>
      </trkpt>
      <trkpt lat="38.3050720" lon="-0.7239720">
        <ele>182.0</ele>
        <time>2018-10-04T07:34:28Z</time>
      </trkpt>
      <trkpt lat="38.3051200" lon="-0.7240230">
        <ele>181.3</ele>
        <time>2018-10-04T07:34:29Z</time>
      </trkpt>
      <trkpt lat="38.3051610" lon="-0.7240880">
        <ele>180.8</ele>
        <time>2018-10-04T07:34:30Z</time>
      </trkpt>
      <trkpt lat="38.3052070" lon="-0.7241510">
        <ele>180.3</ele>
        <time>2018-10-04T07:34:31Z</time>
      </trkpt>
      <trkpt lat="38.3052580" lon="-0.7242140">
        <ele>179.8</ele>
        <time>2018-10-04T07:34:32Z</time>
      </trkpt>
      <trkpt lat="38.3053130" lon="-0.7242790">
        <ele>179.4</ele>
        <time>2018-10-04T07:34:33Z</time>
      </trkpt>
      <trkpt lat="38.3053700" lon="-0.7243460">
        <ele>178.8</ele>
        <time>2018-10-04T07:34:34Z</time>
      </trkpt>
      <trkpt lat="38.3054290" lon="-0.7244130">
        <ele>178.1</ele>
        <time>2018-10-04T07:34:35Z</time>
      </trkpt>
      <trkpt lat="38.3054880" lon="-0.7244790">
        <ele>177.5</ele>
        <time>2018-10-04T07:34:36Z</time>
      </trkpt>
      <trkpt lat="38.3055480" lon="-0.7245440">
        <ele>177.0</ele>
        <time>2018-10-04T07:34:37Z</time>
      </trkpt>
      <trkpt lat="38.3056060" lon="-0.7246090">
        <ele>176.4</ele>
        <time>2018-10-04T07:34:38Z</time>
      </trkpt>
      <trkpt lat="38.3056620" lon="-0.7246800">
        <ele>176.1</ele>
        <time>2018-10-04T07:34:39Z</time>
      </trkpt>
      <trkpt lat="38.3057130" lon="-0.7247490">
        <ele>175.7</ele>
        <time>2018-10-04T07:34:40Z</time>
      </trkpt>
      <trkpt lat="38.3057590" lon="-0.7247960">
        <ele>175.5</ele>
        <time>2018-10-04T07:34:41Z</time>
      </trkpt>
      <trkpt lat="38.3057800" lon="-0.7248310">
        <ele>175.3</ele>
        <time>2018-10-04T07:34:42Z</time>
      </trkpt>
      <trkpt lat="38.3057700" lon="-0.7248560">
        <ele>175.2</ele>
        <time>2018-10-04T07:34:43Z</time>
      </trkpt>
      <trkpt lat="38.3057610" lon="-0.7248790">
        <ele>175.9</ele>
        <time>2018-10-04T07:34:44Z</time>
      </trkpt>
      <trkpt lat="38.3057480" lon="-0.7249070">
        <ele>176.3</ele>
        <time>2018-10-04T07:34:45Z</time>
      </trkpt>
      <trkpt lat="38.3057340" lon="-0.7249400">
        <ele>176.8</ele>
        <time>2018-10-04T07:34:46Z</time>
      </trkpt>
      <trkpt lat="38.3057210" lon="-0.7249720">
        <ele>177.3</ele>
        <time>2018-10-04T07:34:47Z</time>
      </trkpt>
      <trkpt lat="38.3057010" lon="-0.7249920">
        <ele>177.8</ele>
        <time>2018-10-04T07:34:48Z</time>
      </trkpt>
      <trkpt lat="38.3056800" lon="-0.7250150">
        <ele>178.3</ele>
        <time>2018-10-04T07:34:49Z</time>
      </trkpt>
      <trkpt lat="38.3056570" lon="-0.7250350">
        <ele>178.9</ele>
        <time>2018-10-04T07:34:50Z</time>
      </trkpt>
      <trkpt lat="38.3056320" lon="-0.7250540">
        <ele>179.5</ele>
        <time>2018-10-04T07:34:51Z</time>
      </trkpt>
      <trkpt lat="38.3056090" lon="-0.7250770">
        <ele>179.8</ele>
        <time>2018-10-04T07:34:52Z</time>
      </trkpt>
      <trkpt lat="38.3055850" lon="-0.7251010">
        <ele>180.2</ele>
        <time>2018-10-04T07:34:53Z</time>
      </trkpt>
      <trkpt lat="38.3055610" lon="-0.7251250">
        <ele>180.5</ele>
        <time>2018-10-04T07:34:54Z</time>
      </trkpt>
      <trkpt lat="38.3055390" lon="-0.7251500">
        <ele>180.9</ele>
        <time>2018-10-04T07:34:55Z</time>
      </trkpt>
      <trkpt lat="38.3055160" lon="-0.7251770">
        <ele>181.2</ele>
        <time>2018-10-04T07:34:56Z</time>
      </trkpt>
      <trkpt lat="38.3054900" lon="-0.7251980">
        <ele>181.6</ele>
        <time>2018-10-04T07:34:57Z</time>
      </trkpt>
      <trkpt lat="38.3054650" lon="-0.7252230">
        <ele>182.0</ele>
        <time>2018-10-04T07:34:58Z</time>
      </trkpt>
      <trkpt lat="38.3054440" lon="-0.7252520">
        <ele>182.3</ele>
        <time>2018-10-04T07:34:59Z</time>
      </trkpt>
      <trkpt lat="38.3054240" lon="-0.7252860">
        <ele>182.9</ele>
        <time>2018-10-04T07:35:00Z</time>
      </trkpt>
      <trkpt lat="38.3054060" lon="-0.7253210">
        <ele>183.5</ele>
        <time>2018-10-04T07:35:01Z</time>
      </trkpt>
      <trkpt lat="38.3053900" lon="-0.7253560">
        <ele>184.1</ele>
        <time>2018-10-04T07:35:02Z</time>
      </trkpt>
      <trkpt lat="38.3053740" lon="-0.7253910">
        <ele>184.7</ele>
        <time>2018-10-04T07:35:03Z</time>
      </trkpt>
      <trkpt lat="38.3053590" lon="-0.7254280">
        <ele>185.3</ele>
        <time>2018-10-04T07:35:04Z</time>
      </trkpt>
      <trkpt lat="38.3053460" lon="-0.7254680">
        <ele>185.9</ele>
        <time>2018-10-04T07:35:05Z</time>
      </trkpt>
      <trkpt lat="38.3053350" lon="-0.7255120">
        <ele>186.6</ele>
        <time>2018-10-04T07:35:06Z</time>
      </trkpt>
      <trkpt lat="38.3053260" lon="-0.7255580">
        <ele>187.1</ele>
        <time>2018-10-04T07:35:07Z</time>
      </trkpt>
      <trkpt lat="38.3053190" lon="-0.7256040">
        <ele>187.4</ele>
        <time>2018-10-04T07:35:08Z</time>
      </trkpt>
      <trkpt lat="38.3053140" lon="-0.7256510">
        <ele>187.7</ele>
        <time>2018-10-04T07:35:09Z</time>
      </trkpt>
      <trkpt lat="38.3053160" lon="-0.7256980">
        <ele>188.0</ele>
        <time>2018-10-04T07:35:10Z</time>
      </trkpt>
      <trkpt lat="38.3053210" lon="-0.7257470">
        <ele>188.4</ele>
        <time>2018-10-04T07:35:11Z</time>
      </trkpt>
      <trkpt lat="38.3053310" lon="-0.7257970">
        <ele>188.7</ele>
        <time>2018-10-04T07:35:12Z</time>
      </trkpt>
      <trkpt lat="38.3053480" lon="-0.7258430">
        <ele>189.0</ele>
        <time>2018-10-04T07:35:13Z</time>
      </trkpt>
      <trkpt lat="38.3053610" lon="-0.7258910">
        <ele>189.3</ele>
        <time>2018-10-04T07:35:14Z</time>
      </trkpt>
      <trkpt lat="38.3053740" lon="-0.7259380">
        <ele>189.6</ele>
        <time>2018-10-04T07:35:15Z</time>
      </trkpt>
      <trkpt lat="38.3053870" lon="-0.7259870">
        <ele>190.0</ele>
        <time>2018-10-04T07:35:16Z</time>
      </trkpt>
      <trkpt lat="38.3054010" lon="-0.7260350">
        <ele>190.3</ele>
        <time>2018-10-04T07:35:17Z</time>
      </trkpt>
      <trkpt lat="38.3054150" lon="-0.7260830">
        <ele>190.6</ele>
        <time>2018-10-04T07:35:18Z</time>
      </trkpt>
      <trkpt lat="38.3054260" lon="-0.7261320">
        <ele>191.2</ele>
        <time>2018-10-04T07:35:19Z</time>
      </trkpt>
      <trkpt lat="38.3054340" lon="-0.7261840">
        <ele>192.1</ele>
        <time>2018-10-04T07:35:20Z</time>
      </trkpt>
      <trkpt lat="38.3054420" lon="-0.7262350">
        <ele>193.0</ele>
        <time>2018-10-04T07:35:21Z</time>
      </trkpt>
      <trkpt lat="38.3054550" lon="-0.7262850">
        <ele>193.6</ele>
        <time>2018-10-04T07:35:22Z</time>
      </trkpt>
      <trkpt lat="38.3054690" lon="-0.7263330">
        <ele>194.2</ele>
        <time>2018-10-04T07:35:23Z</time>
      </trkpt>
      <trkpt lat="38.3054830" lon="-0.7263820">
        <ele>194.8</ele>
        <time>2018-10-04T07:35:24Z</time>
      </trkpt>
      <trkpt lat="38.3054950" lon="-0.7264310">
        <ele>195.4</ele>
        <time>2018-10-04T07:35:25Z</time>
      </trkpt>
      <trkpt lat="38.3055080" lon="-0.7264810">
        <ele>196.0</ele>
        <time>2018-10-04T07:35:26Z</time>
      </trkpt>
      <trkpt lat="38.3055220" lon="-0.7265310">
        <ele>196.6</ele>
        <time>2018-10-04T07:35:27Z</time>
      </trkpt>
      <trkpt lat="38.3055370" lon="-0.7265810">
        <ele>197.2</ele>
        <time>2018-10-04T07:35:28Z</time>
      </trkpt>
      <trkpt lat="38.3055510" lon="-0.7266330">
        <ele>197.9</ele>
        <time>2018-10-04T07:35:29Z</time>
      </trkpt>
      <trkpt lat="38.3055650" lon="-0.7266870">
        <ele>198.7</ele>
        <time>2018-10-04T07:35:30Z</time>
      </trkpt>
      <trkpt lat="38.3055790" lon="-0.7267400">
        <ele>199.4</ele>
        <time>2018-10-04T07:35:31Z</time>
      </trkpt>
      <trkpt lat="38.3055920" lon="-0.7267950">
        <ele>200.2</ele>
        <time>2018-10-04T07:35:32Z</time>
      </trkpt>
      <trkpt lat="38.3056040" lon="-0.7268490">
        <ele>201.0</ele>
        <time>2018-10-04T07:35:33Z</time>
      </trkpt>
      <trkpt lat="38.3056160" lon="-0.7269040">
        <ele>201.9</ele>
        <time>2018-10-04T07:35:34Z</time>
      </trkpt>
      <trkpt lat="38.3056270" lon="-0.7269590">
        <ele>202.8</ele>
        <time>2018-10-04T07:35:35Z</time>
      </trkpt>
      <trkpt lat="38.3056380" lon="-0.7270160">
        <ele>203.5</ele>
        <time>2018-10-04T07:35:36Z</time>
      </trkpt>
      <trkpt lat="38.3056480" lon="-0.7270720">
        <ele>204.3</ele>
        <time>2018-10-04T07:35:37Z</time>
      </trkpt>
      <trkpt lat="38.3056590" lon="-0.7271260">
        <ele>204.9</ele>
        <time>2018-10-04T07:35:38Z</time>
      </trkpt>
      <trkpt lat="38.3056690" lon="-0.7271800">
        <ele>205.5</ele>
        <time>2018-10-04T07:35:39Z</time>
      </trkpt>
      <trkpt lat="38.3056800" lon="-0.7272320">
        <ele>205.9</ele>
        <time>2018-10-04T07:35:40Z</time>
      </trkpt>
      <trkpt lat="38.3056910" lon="-0.7272850">
        <ele>206.3</ele>
        <time>2018-10-04T07:35:41Z</time>
      </trkpt>
      <trkpt lat="38.3057010" lon="-0.7273360">
        <ele>206.6</ele>
        <time>2018-10-04T07:35:42Z</time>
      </trkpt>
      <trkpt lat="38.3057120" lon="-0.7273870">
        <ele>206.9</ele>
        <time>2018-10-04T07:35:43Z</time>
      </trkpt>
      <trkpt lat="38.3057220" lon="-0.7274380">
        <ele>207.2</ele>
        <time>2018-10-04T07:35:44Z</time>
      </trkpt>
      <trkpt lat="38.3057320" lon="-0.7274870">
        <ele>207.5</ele>
        <time>2018-10-04T07:35:45Z</time>
      </trkpt>
      <trkpt lat="38.3057430" lon="-0.7275370">
        <ele>207.7</ele>
        <time>2018-10-04T07:35:46Z</time>
      </trkpt>
      <trkpt lat="38.3057530" lon="-0.7275850">
        <ele>207.9</ele>
        <time>2018-10-04T07:35:47Z</time>
      </trkpt>
      <trkpt lat="38.3057610" lon="-0.7276330">
        <ele>208.1</ele>
        <time>2018-10-04T07:35:48Z</time>
      </trkpt>
      <trkpt lat="38.3057690" lon="-0.7276790">
        <ele>208.3</ele>
        <time>2018-10-04T07:35:49Z</time>
      </trkpt>
      <trkpt lat="38.3057770" lon="-0.7277270">
        <ele>208.5</ele>
        <time>2018-10-04T07:35:50Z</time>
      </trkpt>
      <trkpt lat="38.3057830" lon="-0.7277740">
        <ele>208.6</ele>
        <time>2018-10-04T07:35:51Z</time>
      </trkpt>
      <trkpt lat="38.3057900" lon="-0.7278210">
        <ele>208.7</ele>
        <time>2018-10-04T07:35:52Z</time>
      </trkpt>
      <trkpt lat="38.3057950" lon="-0.7278680">
        <ele>208.6</ele>
        <time>2018-10-04T07:35:53Z</time>
      </trkpt>
      <trkpt lat="38.3058010" lon="-0.7279150">
        <ele>208.6</ele>
        <time>2018-10-04T07:35:54Z</time>
      </trkpt>
      <trkpt lat="38.3058050" lon="-0.7279610">
        <ele>208.6</ele>
        <time>2018-10-04T07:35:55Z</time>
      </trkpt>
      <trkpt lat="38.3058090" lon="-0.7280070">
        <ele>208.5</ele>
        <time>2018-10-04T07:35:56Z</time>
      </trkpt>
      <trkpt lat="38.3058130" lon="-0.7280530">
        <ele>208.5</ele>
        <time>2018-10-04T07:35:57Z</time>
      </trkpt>
      <trkpt lat="38.3058170" lon="-0.7280990">
        <ele>208.5</ele>
        <time>2018-10-04T07:35:58Z</time>
      </trkpt>
      <trkpt lat="38.3058190" lon="-0.7281440">
        <ele>208.4</ele>
        <time>2018-10-04T07:35:59Z</time>
      </trkpt>
      <trkpt lat="38.3058210" lon="-0.7281900">
        <ele>208.4</ele>
        <time>2018-10-04T07:36:00Z</time>
      </trkpt>
      <trkpt lat="38.3058240" lon="-0.7282350">
        <ele>208.4</ele>
        <time>2018-10-04T07:36:01Z</time>
      </trkpt>
      <trkpt lat="38.3058270" lon="-0.7282800">
        <ele>208.4</ele>
        <time>2018-10-04T07:36:02Z</time>
      </trkpt>
      <trkpt lat="38.3058300" lon="-0.7283260">
        <ele>208.5</ele>
        <time>2018-10-04T07:36:03Z</time>
      </trkpt>
      <trkpt lat="38.3058320" lon="-0.7283710">
        <ele>208.6</ele>
        <time>2018-10-04T07:36:04Z</time>
      </trkpt>
      <trkpt lat="38.3058330" lon="-0.7284170">
        <ele>208.7</ele>
        <time>2018-10-04T07:36:05Z</time>
      </trkpt>
      <trkpt lat="38.3058330" lon="-0.7284620">
        <ele>209.0</ele>
        <time>2018-10-04T07:36:06Z</time>
      </trkpt>
      <trkpt lat="38.3058310" lon="-0.7285070">
        <ele>209.2</ele>
        <time>2018-10-04T07:36:07Z</time>
      </trkpt>
      <trkpt lat="38.3058290" lon="-0.7285520">
        <ele>209.4</ele>
        <time>2018-10-04T07:36:08Z</time>
      </trkpt>
      <trkpt lat="38.3058250" lon="-0.7285970">
        <ele>209.7</ele>
        <time>2018-10-04T07:36:09Z</time>
      </trkpt>
      <trkpt lat="38.3058210" lon="-0.7286430">
        <ele>209.9</ele>
        <time>2018-10-04T07:36:10Z</time>
      </trkpt>
      <trkpt lat="38.3058150" lon="-0.7286870">
        <ele>210.1</ele>
        <time>2018-10-04T07:36:11Z</time>
      </trkpt>
      <trkpt lat="38.3058070" lon="-0.7287330">
        <ele>210.4</ele>
        <time>2018-10-04T07:36:12Z</time>
      </trkpt>
      <trkpt lat="38.3057980" lon="-0.7287790">
        <ele>210.8</ele>
        <time>2018-10-04T07:36:13Z</time>
      </trkpt>
      <trkpt lat="38.3057890" lon="-0.7288250">
        <ele>211.5</ele>
        <time>2018-10-04T07:36:14Z</time>
      </trkpt>
      <trkpt lat="38.3057780" lon="-0.7288710">
        <ele>212.2</ele>
        <time>2018-10-04T07:36:15Z</time>
      </trkpt>
      <trkpt lat="38.3057720" lon="-0.7289180">
        <ele>212.8</ele>
        <time>2018-10-04T07:36:16Z</time>
      </trkpt>
      <trkpt lat="38.3057640" lon="-0.7289640">
        <ele>213.5</ele>
        <time>2018-10-04T07:36:17Z</time>
      </trkpt>
      <trkpt lat="38.3057510" lon="-0.7290090">
        <ele>214.2</ele>
        <time>2018-10-04T07:36:18Z</time>
      </trkpt>
      <trkpt lat="38.3057360" lon="-0.7290530">
        <ele>214.8</ele>
        <time>2018-10-04T07:36:19Z</time>
      </trkpt>
      <trkpt lat="38.3057210" lon="-0.7290960">
        <ele>215.5</ele>
        <time>2018-10-04T07:36:20Z</time>
      </trkpt>
      <trkpt lat="38.3057050" lon="-0.7291380">
        <ele>216.2</ele>
        <time>2018-10-04T07:36:21Z</time>
      </trkpt>
      <trkpt lat="38.3056900" lon="-0.7291800">
        <ele>216.9</ele>
        <time>2018-10-04T07:36:22Z</time>
      </trkpt>
      <trkpt lat="38.3056740" lon="-0.7292230">
        <ele>217.7</ele>
        <time>2018-10-04T07:36:23Z</time>
      </trkpt>
      <trkpt lat="38.3056550" lon="-0.7292660">
        <ele>218.4</ele>
        <time>2018-10-04T07:36:24Z</time>
      </trkpt>
      <trkpt lat="38.3056370" lon="-0.7293090">
        <ele>219.0</ele>
        <time>2018-10-04T07:36:25Z</time>
      </trkpt>
      <trkpt lat="38.3056180" lon="-0.7293510">
        <ele>219.6</ele>
        <time>2018-10-04T07:36:26Z</time>
      </trkpt>
      <trkpt lat="38.3056000" lon="-0.7293940">
        <ele>220.2</ele>
        <time>2018-10-04T07:36:27Z</time>
      </trkpt>
      <trkpt lat="38.3055830" lon="-0.7294390">
        <ele>220.8</ele>
        <time>2018-10-04T07:36:28Z</time>
      </trkpt>
      <trkpt lat="38.3055690" lon="-0.7294850">
        <ele>221.4</ele>
        <time>2018-10-04T07:36:29Z</time>
      </trkpt>
      <trkpt lat="38.3055590" lon="-0.7295320">
        <ele>222.0</ele>
        <time>2018-10-04T07:36:30Z</time>
      </trkpt>
      <trkpt lat="38.3055510" lon="-0.7295810">
        <ele>222.8</ele>
        <time>2018-10-04T07:36:31Z</time>
      </trkpt>
      <trkpt lat="38.3055460" lon="-0.7296320">
        <ele>223.6</ele>
        <time>2018-10-04T07:36:32Z</time>
      </trkpt>
      <trkpt lat="38.3055450" lon="-0.7296830">
        <ele>224.1</ele>
        <time>2018-10-04T07:36:33Z</time>
      </trkpt>
      <trkpt lat="38.3055470" lon="-0.7297340">
        <ele>224.5</ele>
        <time>2018-10-04T07:36:34Z</time>
      </trkpt>
      <trkpt lat="38.3055530" lon="-0.7297840">
        <ele>224.8</ele>
        <time>2018-10-04T07:36:35Z</time>
      </trkpt>
      <trkpt lat="38.3055660" lon="-0.7298310">
        <ele>225.1</ele>
        <time>2018-10-04T07:36:36Z</time>
      </trkpt>
      <trkpt lat="38.3055820" lon="-0.7298770">
        <ele>225.4</ele>
        <time>2018-10-04T07:36:37Z</time>
      </trkpt>
      <trkpt lat="38.3056020" lon="-0.7299190">
        <ele>225.5</ele>
        <time>2018-10-04T07:36:38Z</time>
      </trkpt>
      <trkpt lat="38.3056280" lon="-0.7299540">
        <ele>225.5</ele>
        <time>2018-10-04T07:36:39Z</time>
      </trkpt>
      <trkpt lat="38.3056560" lon="-0.7299900">
        <ele>225.3</ele>
        <time>2018-10-04T07:36:40Z</time>
      </trkpt>
      <trkpt lat="38.3056850" lon="-0.7300240">
        <ele>225.1</ele>
        <time>2018-10-04T07:36:41Z</time>
      </trkpt>
      <trkpt lat="38.3057160" lon="-0.7300550">
        <ele>224.9</ele>
        <time>2018-10-04T07:36:42Z</time>
      </trkpt>
      <trkpt lat="38.3057460" lon="-0.7300870">
        <ele>224.7</ele>
        <time>2018-10-04T07:36:43Z</time>
      </trkpt>
      <trkpt lat="38.3057770" lon="-0.7301170">
        <ele>224.5</ele>
        <time>2018-10-04T07:36:44Z</time>
      </trkpt>
      <trkpt lat="38.3058090" lon="-0.7301480">
        <ele>224.3</ele>
        <time>2018-10-04T07:36:45Z</time>
      </trkpt>
      <trkpt lat="38.3058380" lon="-0.7301810">
        <ele>224.1</ele>
        <time>2018-10-04T07:36:46Z</time>
      </trkpt>
      <trkpt lat="38.3058660" lon="-0.7302130">
        <ele>223.9</ele>
        <time>2018-10-04T07:36:47Z</time>
      </trkpt>
      <trkpt lat="38.3058950" lon="-0.7302450">
        <ele>223.7</ele>
        <time>2018-10-04T07:36:48Z</time>
      </trkpt>
      <trkpt lat="38.3059210" lon="-0.7302790">
        <ele>223.5</ele>
        <time>2018-10-04T07:36:49Z</time>
      </trkpt>
      <trkpt lat="38.3059470" lon="-0.7303130">
        <ele>223.4</ele>
        <time>2018-10-04T07:36:50Z</time>
      </trkpt>
      <trkpt lat="38.3059750" lon="-0.7303420">
        <ele>223.2</ele>
        <time>2018-10-04T07:36:51Z</time>
      </trkpt>
      <trkpt lat="38.3060020" lon="-0.7303710">
        <ele>223.0</ele>
        <time>2018-10-04T07:36:52Z</time>
      </trkpt>
      <trkpt lat="38.3060290" lon="-0.7304030">
        <ele>222.7</ele>
        <time>2018-10-04T07:36:53Z</time>
      </trkpt>
      <trkpt lat="38.3060540" lon="-0.7304340">
        <ele>222.3</ele>
        <time>2018-10-04T07:36:54Z</time>
      </trkpt>
      <trkpt lat="38.3060760" lon="-0.7304690">
        <ele>221.9</ele>
        <time>2018-10-04T07:36:55Z</time>
      </trkpt>
      <trkpt lat="38.3060910" lon="-0.7305060">
        <ele>221.5</ele>
        <time>2018-10-04T07:36:56Z</time>
      </trkpt>
      <trkpt lat="38.3061100" lon="-0.7305400">
        <ele>221.1</ele>
        <time>2018-10-04T07:36:57Z</time>
      </trkpt>
      <trkpt lat="38.3061320" lon="-0.7305720">
        <ele>220.7</ele>
        <time>2018-10-04T07:36:58Z</time>
      </trkpt>
      <trkpt lat="38.3061550" lon="-0.7306030">
        <ele>220.4</ele>
        <time>2018-10-04T07:36:59Z</time>
      </trkpt>
      <trkpt lat="38.3061740" lon="-0.7306340">
        <ele>220.1</ele>
        <time>2018-10-04T07:37:00Z</time>
      </trkpt>
      <trkpt lat="38.3061930" lon="-0.7306590">
        <ele>220.0</ele>
        <time>2018-10-04T07:37:01Z</time>
      </trkpt>
      <trkpt lat="38.3062110" lon="-0.7306860">
        <ele>219.9</ele>
        <time>2018-10-04T07:37:02Z</time>
      </trkpt>
      <trkpt lat="38.3062270" lon="-0.7307130">
        <ele>219.8</ele>
        <time>2018-10-04T07:37:03Z</time>
      </trkpt>
      <trkpt lat="38.3062410" lon="-0.7307420">
        <ele>219.8</ele>
        <time>2018-10-04T07:37:04Z</time>
      </trkpt>
      <trkpt lat="38.3062520" lon="-0.7307740">
        <ele>219.9</ele>
        <time>2018-10-04T07:37:05Z</time>
      </trkpt>
      <trkpt lat="38.3062640" lon="-0.7308050">
        <ele>220.0</ele>
        <time>2018-10-04T07:37:06Z</time>
      </trkpt>
      <trkpt lat="38.3062730" lon="-0.7308380">
        <ele>220.0</ele>
        <time>2018-10-04T07:37:07Z</time>
      </trkpt>
      <trkpt lat="38.3062810" lon="-0.7308730">
        <ele>220.1</ele>
        <time>2018-10-04T07:37:08Z</time>
      </trkpt>
      <trkpt lat="38.3062850" lon="-0.7309070">
        <ele>220.3</ele>
        <time>2018-10-04T07:37:09Z</time>
      </trkpt>
      <trkpt lat="38.3062900" lon="-0.7309430">
        <ele>220.5</ele>
        <time>2018-10-04T07:37:10Z</time>
      </trkpt>
      <trkpt lat="38.3062920" lon="-0.7309780">
        <ele>220.6</ele>
        <time>2018-10-04T07:37:11Z</time>
      </trkpt>
      <trkpt lat="38.3062880" lon="-0.7310180">
        <ele>220.9</ele>
        <time>2018-10-04T07:37:12Z</time>
      </trkpt>
      <trkpt lat="38.3062830" lon="-0.7310580">
        <ele>221.1</ele>
        <time>2018-10-04T07:37:13Z</time>
      </trkpt>
      <trkpt lat="38.3062760" lon="-0.7310960">
        <ele>221.3</ele>
        <time>2018-10-04T07:37:14Z</time>
      </trkpt>
      <trkpt lat="38.3062660" lon="-0.7311340">
        <ele>221.6</ele>
        <time>2018-10-04T07:37:15Z</time>
      </trkpt>
      <trkpt lat="38.3062590" lon="-0.7311700">
        <ele>221.8</ele>
        <time>2018-10-04T07:37:16Z</time>
      </trkpt>
      <trkpt lat="38.3062480" lon="-0.7312070">
        <ele>222.1</ele>
        <time>2018-10-04T07:37:17Z</time>
      </trkpt>
      <trkpt lat="38.3062350" lon="-0.7312420">
        <ele>222.3</ele>
        <time>2018-10-04T07:37:18Z</time>
      </trkpt>
      <trkpt lat="38.3062190" lon="-0.7312750">
        <ele>222.7</ele>
        <time>2018-10-04T07:37:19Z</time>
      </trkpt>
      <trkpt lat="38.3062010" lon="-0.7313050">
        <ele>223.0</ele>
        <time>2018-10-04T07:37:20Z</time>
      </trkpt>
      <trkpt lat="38.3061850" lon="-0.7313360">
        <ele>223.3</ele>
        <time>2018-10-04T07:37:21Z</time>
      </trkpt>
      <trkpt lat="38.3061720" lon="-0.7313710">
        <ele>223.6</ele>
        <time>2018-10-04T07:37:22Z</time>
      </trkpt>
      <trkpt lat="38.3061640" lon="-0.7314070">
        <ele>223.8</ele>
        <time>2018-10-04T07:37:23Z</time>
      </trkpt>
      <trkpt lat="38.3061550" lon="-0.7314440">
        <ele>224.0</ele>
        <time>2018-10-04T07:37:24Z</time>
      </trkpt>
      <trkpt lat="38.3061480" lon="-0.7314830">
        <ele>224.1</ele>
        <time>2018-10-04T07:37:25Z</time>
      </trkpt>
      <trkpt lat="38.3061420" lon="-0.7315230">
        <ele>224.3</ele>
        <time>2018-10-04T07:37:26Z</time>
      </trkpt>
      <trkpt lat="38.3061350" lon="-0.7315630">
        <ele>224.3</ele>
        <time>2018-10-04T07:37:27Z</time>
      </trkpt>
      <trkpt lat="38.3061290" lon="-0.7316010">
        <ele>224.4</ele>
        <time>2018-10-04T07:37:28Z</time>
      </trkpt>
      <trkpt lat="38.3061240" lon="-0.7316400">
        <ele>224.4</ele>
        <time>2018-10-04T07:37:29Z</time>
      </trkpt>
      <trkpt lat="38.3061210" lon="-0.7316760">
        <ele>224.4</ele>
        <time>2018-10-04T07:37:30Z</time>
      </trkpt>
      <trkpt lat="38.3061190" lon="-0.7317140">
        <ele>224.4</ele>
        <time>2018-10-04T07:37:31Z</time>
      </trkpt>
      <trkpt lat="38.3061170" lon="-0.7317510">
        <ele>224.4</ele>
        <time>2018-10-04T07:37:32Z</time>
      </trkpt>
      <trkpt lat="38.3061160" lon="-0.7317870">
        <ele>224.4</ele>
        <time>2018-10-04T07:37:33Z</time>
      </trkpt>
      <trkpt lat="38.3061150" lon="-0.7318240">
        <ele>224.3</ele>
        <time>2018-10-04T07:37:34Z</time>
      </trkpt>
      <trkpt lat="38.3061140" lon="-0.7318600">
        <ele>224.3</ele>
        <time>2018-10-04T07:37:35Z</time>
      </trkpt>
      <trkpt lat="38.3061120" lon="-0.7318950">
        <ele>224.3</ele>
        <time>2018-10-04T07:37:36Z</time>
      </trkpt>
      <trkpt lat="38.3061130" lon="-0.7319310">
        <ele>224.3</ele>
        <time>2018-10-04T07:37:37Z</time>
      </trkpt>
      <trkpt lat="38.3061120" lon="-0.7319670">
        <ele>224.2</ele>
        <time>2018-10-04T07:37:38Z</time>
      </trkpt>
      <trkpt lat="38.3061120" lon="-0.7320010">
        <ele>224.2</ele>
        <time>2018-10-04T07:37:39Z</time>
      </trkpt>
      <trkpt lat="38.3061100" lon="-0.7320370">
        <ele>224.2</ele>
        <time>2018-10-04T07:37:40Z</time>
      </trkpt>
      <trkpt lat="38.3061080" lon="-0.7320710">
        <ele>224.2</ele>
        <time>2018-10-04T07:37:41Z</time>
      </trkpt>
      <trkpt lat="38.3061060" lon="-0.7321060">
        <ele>224.2</ele>
        <time>2018-10-04T07:37:42Z</time>
      </trkpt>
      <trkpt lat="38.3061010" lon="-0.7321420">
        <ele>224.2</ele>
        <time>2018-10-04T07:37:43Z</time>
      </trkpt>
      <trkpt lat="38.3060980" lon="-0.7321770">
        <ele>224.2</ele>
        <time>2018-10-04T07:37:44Z</time>
      </trkpt>
      <trkpt lat="38.3060930" lon="-0.7322110">
        <ele>224.2</ele>
        <time>2018-10-04T07:37:45Z</time>
      </trkpt>
      <trkpt lat="38.3060890" lon="-0.7322460">
        <ele>224.2</ele>
        <time>2018-10-04T07:37:46Z</time>
      </trkpt>
      <trkpt lat="38.3060840" lon="-0.7322810">
        <ele>224.3</ele>
        <time>2018-10-04T07:37:47Z</time>
      </trkpt>
      <trkpt lat="38.3060810" lon="-0.7323160">
        <ele>224.3</ele>
        <time>2018-10-04T07:37:48Z</time>
      </trkpt>
      <trkpt lat="38.3060760" lon="-0.7323520">
        <ele>224.3</ele>
        <time>2018-10-04T07:37:49Z</time>
      </trkpt>
      <trkpt lat="38.3060720" lon="-0.7323900">
        <ele>224.4</ele>
        <time>2018-10-04T07:37:50Z</time>
      </trkpt>
      <trkpt lat="38.3060690" lon="-0.7324280">
        <ele>224.5</ele>
        <time>2018-10-04T07:37:51Z</time>
      </trkpt>
      <trkpt lat="38.3060680" lon="-0.7324680">
        <ele>224.6</ele>
        <time>2018-10-04T07:37:52Z</time>
      </trkpt>
      <trkpt lat="38.3060630" lon="-0.7325070">
        <ele>224.6</ele>
        <time>2018-10-04T07:37:53Z</time>
      </trkpt>
      <trkpt lat="38.3060590" lon="-0.7325450">
        <ele>224.7</ele>
        <time>2018-10-04T07:37:54Z</time>
      </trkpt>
      <trkpt lat="38.3060530" lon="-0.7325830">
        <ele>224.8</ele>
        <time>2018-10-04T07:37:55Z</time>
      </trkpt>
      <trkpt lat="38.3060490" lon="-0.7326230">
        <ele>224.8</ele>
        <time>2018-10-04T07:37:56Z</time>
      </trkpt>
      <trkpt lat="38.3060430" lon="-0.7326630">
        <ele>224.8</ele>
        <time>2018-10-04T07:37:57Z</time>
      </trkpt>
      <trkpt lat="38.3060400" lon="-0.7327030">
        <ele>224.9</ele>
        <time>2018-10-04T07:37:58Z</time>
      </trkpt>
      <trkpt lat="38.3060380" lon="-0.7327430">
        <ele>224.9</ele>
        <time>2018-10-04T07:37:59Z</time>
      </trkpt>
      <trkpt lat="38.3060360" lon="-0.7327820">
        <ele>224.9</ele>
        <time>2018-10-04T07:38:00Z</time>
      </trkpt>
      <trkpt lat="38.3060330" lon="-0.7328220">
        <ele>224.9</ele>
        <time>2018-10-04T07:38:01Z</time>
      </trkpt>
      <trkpt lat="38.3060280" lon="-0.7328640">
        <ele>224.9</ele>
        <time>2018-10-04T07:38:02Z</time>
      </trkpt>
      <trkpt lat="38.3060250" lon="-0.7329060">
        <ele>224.9</ele>
        <time>2018-10-04T07:38:03Z</time>
      </trkpt>
      <trkpt lat="38.3060200" lon="-0.7329480">
        <ele>224.9</ele>
        <time>2018-10-04T07:38:04Z</time>
      </trkpt>
      <trkpt lat="38.3060150" lon="-0.7329890">
        <ele>224.9</ele>
        <time>2018-10-04T07:38:05Z</time>
      </trkpt>
      <trkpt lat="38.3060100" lon="-0.7330290">
        <ele>224.9</ele>
        <time>2018-10-04T07:38:06Z</time>
      </trkpt>
      <trkpt lat="38.3060050" lon="-0.7330720">
        <ele>224.9</ele>
        <time>2018-10-04T07:38:07Z</time>
      </trkpt>
      <trkpt lat="38.3059980" lon="-0.7331150">
        <ele>224.8</ele>
        <time>2018-10-04T07:38:08Z</time>
      </trkpt>
      <trkpt lat="38.3059910" lon="-0.7331580">
        <ele>224.8</ele>
        <time>2018-10-04T07:38:09Z</time>
      </trkpt>
      <trkpt lat="38.3059840" lon="-0.7332020">
        <ele>224.7</ele>
        <time>2018-10-04T07:38:10Z</time>
      </trkpt>
      <trkpt lat="38.3059750" lon="-0.7332450">
        <ele>224.7</ele>
        <time>2018-10-04T07:38:11Z</time>
      </trkpt>
      <trkpt lat="38.3059670" lon="-0.7332870">
        <ele>224.6</ele>
        <time>2018-10-04T07:38:12Z</time>
      </trkpt>
      <trkpt lat="38.3059570" lon="-0.7333290">
        <ele>224.5</ele>
        <time>2018-10-04T07:38:13Z</time>
      </trkpt>
      <trkpt lat="38.3059490" lon="-0.7333710">
        <ele>224.4</ele>
        <time>2018-10-04T07:38:14Z</time>
      </trkpt>
      <trkpt lat="38.3059390" lon="-0.7334140">
        <ele>224.3</ele>
        <time>2018-10-04T07:38:15Z</time>
      </trkpt>
      <trkpt lat="38.3059340" lon="-0.7334580">
        <ele>224.2</ele>
        <time>2018-10-04T07:38:16Z</time>
      </trkpt>
      <trkpt lat="38.3059230" lon="-0.7335040">
        <ele>224.1</ele>
        <time>2018-10-04T07:38:17Z</time>
      </trkpt>
      <trkpt lat="38.3059100" lon="-0.7335510">
        <ele>224.0</ele>
        <time>2018-10-04T07:38:18Z</time>
      </trkpt>
      <trkpt lat="38.3058960" lon="-0.7335990">
        <ele>224.0</ele>
        <time>2018-10-04T07:38:19Z</time>
      </trkpt>
      <trkpt lat="38.3058830" lon="-0.7336530">
        <ele>223.9</ele>
        <time>2018-10-04T07:38:20Z</time>
      </trkpt>
      <trkpt lat="38.3058720" lon="-0.7337130">
        <ele>223.0</ele>
        <time>2018-10-04T07:38:21Z</time>
      </trkpt>
      <trkpt lat="38.3058650" lon="-0.7337740">
        <ele>222.5</ele>
        <time>2018-10-04T07:38:22Z</time>
      </trkpt>
      <trkpt lat="38.3058580" lon="-0.7338390">
        <ele>222.1</ele>
        <time>2018-10-04T07:38:23Z</time>
      </trkpt>
      <trkpt lat="38.3058510" lon="-0.7339080">
        <ele>221.9</ele>
        <time>2018-10-04T07:38:24Z</time>
      </trkpt>
      <trkpt lat="38.3058470" lon="-0.7339800">
        <ele>221.6</ele>
        <time>2018-10-04T07:38:25Z</time>
      </trkpt>
      <trkpt lat="38.3058480" lon="-0.7340550">
        <ele>221.3</ele>
        <time>2018-10-04T07:38:26Z</time>
      </trkpt>
      <trkpt lat="38.3058480" lon="-0.7341330">
        <ele>220.8</ele>
        <time>2018-10-04T07:38:27Z</time>
      </trkpt>
      <trkpt lat="38.3058470" lon="-0.7342130">
        <ele>220.0</ele>
        <time>2018-10-04T07:38:28Z</time>
      </trkpt>
      <trkpt lat="38.3058420" lon="-0.7343000">
        <ele>219.0</ele>
        <time>2018-10-04T07:38:29Z</time>
      </trkpt>
      <trkpt lat="38.3058380" lon="-0.7343840">
        <ele>218.4</ele>
        <time>2018-10-04T07:38:30Z</time>
      </trkpt>
      <trkpt lat="38.3058280" lon="-0.7344720">
        <ele>217.5</ele>
        <time>2018-10-04T07:38:31Z</time>
      </trkpt>
      <trkpt lat="38.3058210" lon="-0.7345620">
        <ele>216.6</ele>
        <time>2018-10-04T07:38:32Z</time>
      </trkpt>
      <trkpt lat="38.3058160" lon="-0.7346510">
        <ele>215.7</ele>
        <time>2018-10-04T07:38:33Z</time>
      </trkpt>
      <trkpt lat="38.3058110" lon="-0.7347420">
        <ele>214.8</ele>
        <time>2018-10-04T07:38:34Z</time>
      </trkpt>
      <trkpt lat="38.3058070" lon="-0.7348330">
        <ele>213.8</ele>
        <time>2018-10-04T07:38:35Z</time>
      </trkpt>
      <trkpt lat="38.3058020" lon="-0.7349220">
        <ele>212.9</ele>
        <time>2018-10-04T07:38:36Z</time>
      </trkpt>
      <trkpt lat="38.3058000" lon="-0.7350150">
        <ele>211.9</ele>
        <time>2018-10-04T07:38:37Z</time>
      </trkpt>
      <trkpt lat="38.3058020" lon="-0.7351070">
        <ele>210.9</ele>
        <time>2018-10-04T07:38:38Z</time>
      </trkpt>
      <trkpt lat="38.3057990" lon="-0.7352000">
        <ele>210.1</ele>
        <time>2018-10-04T07:38:39Z</time>
      </trkpt>
      <trkpt lat="38.3057960" lon="-0.7352930">
        <ele>209.4</ele>
        <time>2018-10-04T07:38:40Z</time>
      </trkpt>
      <trkpt lat="38.3057920" lon="-0.7353850">
        <ele>208.7</ele>
        <time>2018-10-04T07:38:41Z</time>
      </trkpt>
      <trkpt lat="38.3057910" lon="-0.7354750">
        <ele>208.1</ele>
        <time>2018-10-04T07:38:42Z</time>
      </trkpt>
      <trkpt lat="38.3057920" lon="-0.7355660">
        <ele>208.4</ele>
        <time>2018-10-04T07:38:43Z</time>
      </trkpt>
      <trkpt lat="38.3057940" lon="-0.7356520">
        <ele>208.8</ele>
        <time>2018-10-04T07:38:44Z</time>
      </trkpt>
      <trkpt lat="38.3057990" lon="-0.7357360">
        <ele>209.3</ele>
        <time>2018-10-04T07:38:45Z</time>
      </trkpt>
      <trkpt lat="38.3058030" lon="-0.7358180">
        <ele>209.6</ele>
        <time>2018-10-04T07:38:46Z</time>
      </trkpt>
      <trkpt lat="38.3058070" lon="-0.7359000">
        <ele>209.9</ele>
        <time>2018-10-04T07:38:47Z</time>
      </trkpt>
      <trkpt lat="38.3058100" lon="-0.7359800">
        <ele>210.2</ele>
        <time>2018-10-04T07:38:48Z</time>
      </trkpt>
      <trkpt lat="38.3058130" lon="-0.7360590">
        <ele>210.5</ele>
        <time>2018-10-04T07:38:49Z</time>
      </trkpt>
      <trkpt lat="38.3058180" lon="-0.7361370">
        <ele>210.8</ele>
        <time>2018-10-04T07:38:50Z</time>
      </trkpt>
      <trkpt lat="38.3058250" lon="-0.7362130">
        <ele>211.1</ele>
        <time>2018-10-04T07:38:51Z</time>
      </trkpt>
      <trkpt lat="38.3058350" lon="-0.7362880">
        <ele>211.4</ele>
        <time>2018-10-04T07:38:52Z</time>
      </trkpt>
      <trkpt lat="38.3058460" lon="-0.7363610">
        <ele>211.8</ele>
        <time>2018-10-04T07:38:53Z</time>
      </trkpt>
      <trkpt lat="38.3058580" lon="-0.7364340">
        <ele>212.1</ele>
        <time>2018-10-04T07:38:54Z</time>
      </trkpt>
      <trkpt lat="38.3058710" lon="-0.7365050">
        <ele>212.4</ele>
        <time>2018-10-04T07:38:55Z</time>
      </trkpt>
      <trkpt lat="38.3058840" lon="-0.7365760">
        <ele>212.7</ele>
        <time>2018-10-04T07:38:56Z</time>
      </trkpt>
      <trkpt lat="38.3058970" lon="-0.7366450">
        <ele>213.0</ele>
        <time>2018-10-04T07:38:57Z</time>
      </trkpt>
      <trkpt lat="38.3059130" lon="-0.7367120">
        <ele>213.3</ele>
        <time>2018-10-04T07:38:58Z</time>
      </trkpt>
      <trkpt lat="38.3059320" lon="-0.7367780">
        <ele>213.6</ele>
        <time>2018-10-04T07:38:59Z</time>
      </trkpt>
      <trkpt lat="38.3059520" lon="-0.7368430">
        <ele>213.9</ele>
        <time>2018-10-04T07:39:00Z</time>
      </trkpt>
      <trkpt lat="38.3059720" lon="-0.7369090">
        <ele>214.2</ele>
        <time>2018-10-04T07:39:01Z</time>
      </trkpt>
      <trkpt lat="38.3059920" lon="-0.7369770">
        <ele>214.6</ele>
        <time>2018-10-04T07:39:02Z</time>
      </trkpt>
      <trkpt lat="38.3060130" lon="-0.7370470">
        <ele>215.0</ele>
        <time>2018-10-04T07:39:03Z</time>
      </trkpt>
      <trkpt lat="38.3060370" lon="-0.7371180">
        <ele>215.4</ele>
        <time>2018-10-04T07:39:04Z</time>
      </trkpt>
      <trkpt lat="38.3060610" lon="-0.7371910">
        <ele>215.9</ele>
        <time>2018-10-04T07:39:05Z</time>
      </trkpt>
      <trkpt lat="38.3060850" lon="-0.7372620">
        <ele>216.3</ele>
        <time>2018-10-04T07:39:06Z</time>
      </trkpt>
      <trkpt lat="38.3061080" lon="-0.7373300">
        <ele>216.8</ele>
        <time>2018-10-04T07:39:07Z</time>
      </trkpt>
      <trkpt lat="38.3061250" lon="-0.7373980">
        <ele>217.1</ele>
        <time>2018-10-04T07:39:08Z</time>
      </trkpt>
      <trkpt lat="38.3061400" lon="-0.7374630">
        <ele>217.4</ele>
        <time>2018-10-04T07:39:09Z</time>
      </trkpt>
      <trkpt lat="38.3061510" lon="-0.7375240">
        <ele>217.6</ele>
        <time>2018-10-04T07:39:10Z</time>
      </trkpt>
      <trkpt lat="38.3061600" lon="-0.7375830">
        <ele>217.9</ele>
        <time>2018-10-04T07:39:11Z</time>
      </trkpt>
      <trkpt lat="38.3061680" lon="-0.7376420">
        <ele>218.2</ele>
        <time>2018-10-04T07:39:12Z</time>
      </trkpt>
      <trkpt lat="38.3061750" lon="-0.7377000">
        <ele>218.4</ele>
        <time>2018-10-04T07:39:13Z</time>
      </trkpt>
      <trkpt lat="38.3061810" lon="-0.7377580">
        <ele>218.6</ele>
        <time>2018-10-04T07:39:14Z</time>
      </trkpt>
      <trkpt lat="38.3061880" lon="-0.7378160">
        <ele>218.9</ele>
        <time>2018-10-04T07:39:15Z</time>
      </trkpt>
      <trkpt lat="38.3061950" lon="-0.7378720">
        <ele>219.0</ele>
        <time>2018-10-04T07:39:16Z</time>
      </trkpt>
      <trkpt lat="38.3062030" lon="-0.7379290">
        <ele>219.3</ele>
        <time>2018-10-04T07:39:17Z</time>
      </trkpt>
      <trkpt lat="38.3062120" lon="-0.7379880">
        <ele>219.5</ele>
        <time>2018-10-04T07:39:18Z</time>
      </trkpt>
      <trkpt lat="38.3062210" lon="-0.7380460">
        <ele>219.7</ele>
        <time>2018-10-04T07:39:19Z</time>
      </trkpt>
      <trkpt lat="38.3062300" lon="-0.7381070">
        <ele>219.9</ele>
        <time>2018-10-04T07:39:20Z</time>
      </trkpt>
      <trkpt lat="38.3062400" lon="-0.7381690">
        <ele>220.1</ele>
        <time>2018-10-04T07:39:21Z</time>
      </trkpt>
      <trkpt lat="38.3062500" lon="-0.7382340">
        <ele>220.3</ele>
        <time>2018-10-04T07:39:22Z</time>
      </trkpt>
      <trkpt lat="38.3062660" lon="-0.7382970">
        <ele>220.5</ele>
        <time>2018-10-04T07:39:23Z</time>
      </trkpt>
      <trkpt lat="38.3062930" lon="-0.7383530">
        <ele>220.7</ele>
        <time>2018-10-04T07:39:24Z</time>
      </trkpt>
      <trkpt lat="38.3063300" lon="-0.7383930">
        <ele>221.0</ele>
        <time>2018-10-04T07:39:25Z</time>
      </trkpt>
      <trkpt lat="38.3063700" lon="-0.7384100">
        <ele>221.5</ele>
        <time>2018-10-04T07:39:26Z</time>
      </trkpt>
      <trkpt lat="38.3064070" lon="-0.7384140">
        <ele>222.3</ele>
        <time>2018-10-04T07:39:27Z</time>
      </trkpt>
      <trkpt lat="38.3064380" lon="-0.7384080">
        <ele>223.1</ele>
        <time>2018-10-04T07:39:28Z</time>
      </trkpt>
      <trkpt lat="38.3064670" lon="-0.7384030">
        <ele>223.5</ele>
        <time>2018-10-04T07:39:29Z</time>
      </trkpt>
      <trkpt lat="38.3064950" lon="-0.7383960">
        <ele>223.9</ele>
        <time>2018-10-04T07:39:30Z</time>
      </trkpt>
      <trkpt lat="38.3065260" lon="-0.7383840">
        <ele>224.3</ele>
        <time>2018-10-04T07:39:31Z</time>
      </trkpt>
      <trkpt lat="38.3065530" lon="-0.7383680">
        <ele>224.9</ele>
        <time>2018-10-04T07:39:32Z</time>
      </trkpt>
      <trkpt lat="38.3065770" lon="-0.7383490">
        <ele>225.6</ele>
        <time>2018-10-04T07:39:33Z</time>
      </trkpt>
      <trkpt lat="38.3066000" lon="-0.7383290">
        <ele>226.0</ele>
        <time>2018-10-04T07:39:34Z</time>
      </trkpt>
      <trkpt lat="38.3066200" lon="-0.7383070">
        <ele>226.3</ele>
        <time>2018-10-04T07:39:35Z</time>
      </trkpt>
      <trkpt lat="38.3066370" lon="-0.7382900">
        <ele>226.6</ele>
        <time>2018-10-04T07:39:36Z</time>
      </trkpt>
      <trkpt lat="38.3066530" lon="-0.7382720">
        <ele>226.9</ele>
        <time>2018-10-04T07:39:37Z</time>
      </trkpt>
      <trkpt lat="38.3066680" lon="-0.7382520">
        <ele>227.5</ele>
        <time>2018-10-04T07:39:38Z</time>
      </trkpt>
      <trkpt lat="38.3066810" lon="-0.7382280">
        <ele>228.0</ele>
        <time>2018-10-04T07:39:39Z</time>
      </trkpt>
      <trkpt lat="38.3066940" lon="-0.7382040">
        <ele>228.5</ele>
        <time>2018-10-04T07:39:40Z</time>
      </trkpt>
      <trkpt lat="38.3067070" lon="-0.7381780">
        <ele>228.7</ele>
        <time>2018-10-04T07:39:41Z</time>
      </trkpt>
      <trkpt lat="38.3067160" lon="-0.7381510">
        <ele>229.0</ele>
        <time>2018-10-04T07:39:42Z</time>
      </trkpt>
      <trkpt lat="38.3067230" lon="-0.7381200">
        <ele>229.2</ele>
        <time>2018-10-04T07:39:43Z</time>
      </trkpt>
      <trkpt lat="38.3067320" lon="-0.7380910">
        <ele>229.4</ele>
        <time>2018-10-04T07:39:44Z</time>
      </trkpt>
      <trkpt lat="38.3067350" lon="-0.7380570">
        <ele>229.4</ele>
        <time>2018-10-04T07:39:45Z</time>
      </trkpt>
      <trkpt lat="38.3067340" lon="-0.7380200">
        <ele>229.4</ele>
        <time>2018-10-04T07:39:46Z</time>
      </trkpt>
      <trkpt lat="38.3067320" lon="-0.7379820">
        <ele>229.6</ele>
        <time>2018-10-04T07:39:47Z</time>
      </trkpt>
      <trkpt lat="38.3067310" lon="-0.7379460">
        <ele>229.8</ele>
        <time>2018-10-04T07:39:48Z</time>
      </trkpt>
      <trkpt lat="38.3067300" lon="-0.7379090">
        <ele>230.1</ele>
        <time>2018-10-04T07:39:49Z</time>
      </trkpt>
      <trkpt lat="38.3067290" lon="-0.7378720">
        <ele>230.2</ele>
        <time>2018-10-04T07:39:50Z</time>
      </trkpt>
      <trkpt lat="38.3067310" lon="-0.7378330">
        <ele>230.3</ele>
        <time>2018-10-04T07:39:51Z</time>
      </trkpt>
      <trkpt lat="38.3067330" lon="-0.7377960">
        <ele>230.3</ele>
        <time>2018-10-04T07:39:52Z</time>
      </trkpt>
      <trkpt lat="38.3067420" lon="-0.7377620">
        <ele>230.5</ele>
        <time>2018-10-04T07:39:53Z</time>
      </trkpt>
      <trkpt lat="38.3067580" lon="-0.7377290">
        <ele>230.7</ele>
        <time>2018-10-04T07:39:54Z</time>
      </trkpt>
      <trkpt lat="38.3067750" lon="-0.7376970">
        <ele>231.0</ele>
        <time>2018-10-04T07:39:55Z</time>
      </trkpt>
      <trkpt lat="38.3067900" lon="-0.7376630">
        <ele>231.0</ele>
        <time>2018-10-04T07:39:56Z</time>
      </trkpt>
      <trkpt lat="38.3068060" lon="-0.7376320">
        <ele>231.1</ele>
        <time>2018-10-04T07:39:57Z</time>
      </trkpt>
      <trkpt lat="38.3068220" lon="-0.7376000">
        <ele>231.1</ele>
        <time>2018-10-04T07:39:58Z</time>
      </trkpt>
      <trkpt lat="38.3068360" lon="-0.7375670">
        <ele>231.5</ele>
        <time>2018-10-04T07:39:59Z</time>
      </trkpt>
      <trkpt lat="38.3068510" lon="-0.7375340">
        <ele>232.0</ele>
        <time>2018-10-04T07:40:00Z</time>
      </trkpt>
      <trkpt lat="38.3068670" lon="-0.7375000">
        <ele>232.5</ele>
        <time>2018-10-04T07:40:01Z</time>
      </trkpt>
      <trkpt lat="38.3068820" lon="-0.7374650">
        <ele>232.7</ele>
        <time>2018-10-04T07:40:02Z</time>
      </trkpt>
      <trkpt lat="38.3068990" lon="-0.7374320">
        <ele>232.9</ele>
        <time>2018-10-04T07:40:03Z</time>
      </trkpt>
      <trkpt lat="38.3069170" lon="-0.7373990">
        <ele>233.5</ele>
        <time>2018-10-04T07:40:04Z</time>
      </trkpt>
      <trkpt lat="38.3069370" lon="-0.7373660">
        <ele>234.0</ele>
        <time>2018-10-04T07:40:05Z</time>
      </trkpt>
      <trkpt lat="38.3069560" lon="-0.7373340">
        <ele>234.3</ele>
        <time>2018-10-04T07:40:06Z</time>
      </trkpt>
      <trkpt lat="38.3069740" lon="-0.7373020">
        <ele>234.6</ele>
        <time>2018-10-04T07:40:07Z</time>
      </trkpt>
      <trkpt lat="38.3069900" lon="-0.7372660">
        <ele>234.9</ele>
        <time>2018-10-04T07:40:08Z</time>
      </trkpt>
      <trkpt lat="38.3070040" lon="-0.7372290">
        <ele>235.4</ele>
        <time>2018-10-04T07:40:09Z</time>
      </trkpt>
      <trkpt lat="38.3070170" lon="-0.7371920">
        <ele>235.8</ele>
        <time>2018-10-04T07:40:10Z</time>
      </trkpt>
      <trkpt lat="38.3070320" lon="-0.7371570">
        <ele>236.0</ele>
        <time>2018-10-04T07:40:11Z</time>
      </trkpt>
      <trkpt lat="38.3070480" lon="-0.7371230">
        <ele>236.2</ele>
        <time>2018-10-04T07:40:12Z</time>
      </trkpt>
      <trkpt lat="38.3070660" lon="-0.7370930">
        <ele>236.4</ele>
        <time>2018-10-04T07:40:13Z</time>
      </trkpt>
      <trkpt lat="38.3070850" lon="-0.7370650">
        <ele>236.9</ele>
        <time>2018-10-04T07:40:14Z</time>
      </trkpt>
      <trkpt lat="38.3071030" lon="-0.7370360">
        <ele>237.4</ele>
        <time>2018-10-04T07:40:15Z</time>
      </trkpt>
      <trkpt lat="38.3071220" lon="-0.7370080">
        <ele>237.9</ele>
        <time>2018-10-04T07:40:16Z</time>
      </trkpt>
      <trkpt lat="38.3071430" lon="-0.7369830">
        <ele>238.5</ele>
        <time>2018-10-04T07:40:17Z</time>
      </trkpt>
      <trkpt lat="38.3071670" lon="-0.7369590">
        <ele>239.0</ele>
        <time>2018-10-04T07:40:18Z</time>
      </trkpt>
      <trkpt lat="38.3071930" lon="-0.7369380">
        <ele>239.1</ele>
        <time>2018-10-04T07:40:19Z</time>
      </trkpt>
      <trkpt lat="38.3072200" lon="-0.7369170">
        <ele>239.3</ele>
        <time>2018-10-04T07:40:20Z</time>
      </trkpt>
      <trkpt lat="38.3072490" lon="-0.7368980">
        <ele>239.4</ele>
        <time>2018-10-04T07:40:21Z</time>
      </trkpt>
      <trkpt lat="38.3072800" lon="-0.7368850">
        <ele>239.6</ele>
        <time>2018-10-04T07:40:22Z</time>
      </trkpt>
      <trkpt lat="38.3073130" lon="-0.7368750">
        <ele>239.9</ele>
        <time>2018-10-04T07:40:23Z</time>
      </trkpt>
      <trkpt lat="38.3073450" lon="-0.7368690">
        <ele>240.5</ele>
        <time>2018-10-04T07:40:24Z</time>
      </trkpt>
      <trkpt lat="38.3073780" lon="-0.7368650">
        <ele>241.2</ele>
        <time>2018-10-04T07:40:25Z</time>
      </trkpt>
      <trkpt lat="38.3074110" lon="-0.7368620">
        <ele>241.9</ele>
        <time>2018-10-04T07:40:26Z</time>
      </trkpt>
      <trkpt lat="38.3074420" lon="-0.7368580">
        <ele>242.5</ele>
        <time>2018-10-04T07:40:27Z</time>
      </trkpt>
      <trkpt lat="38.3074740" lon="-0.7368550">
        <ele>243.0</ele>
        <time>2018-10-04T07:40:28Z</time>
      </trkpt>
      <trkpt lat="38.3075040" lon="-0.7368510">
        <ele>243.4</ele>
        <time>2018-10-04T07:40:29Z</time>
      </trkpt>
      <trkpt lat="38.3075310" lon="-0.7368450">
        <ele>243.7</ele>
        <time>2018-10-04T07:40:30Z</time>
      </trkpt>
      <trkpt lat="38.3075590" lon="-0.7368380">
        <ele>244.3</ele>
        <time>2018-10-04T07:40:31Z</time>
      </trkpt>
      <trkpt lat="38.3075850" lon="-0.7368300">
        <ele>244.8</ele>
        <time>2018-10-04T07:40:32Z</time>
      </trkpt>
      <trkpt lat="38.3076140" lon="-0.7368240">
        <ele>245.5</ele>
        <time>2018-10-04T07:40:33Z</time>
      </trkpt>
      <trkpt lat="38.3076430" lon="-0.7368150">
        <ele>246.3</ele>
        <time>2018-10-04T07:40:34Z</time>
      </trkpt>
      <trkpt lat="38.3076700" lon="-0.7368010">
        <ele>247.1</ele>
        <time>2018-10-04T07:40:35Z</time>
      </trkpt>
      <trkpt lat="38.3076980" lon="-0.7367880">
        <ele>247.3</ele>
        <time>2018-10-04T07:40:36Z</time>
      </trkpt>
      <trkpt lat="38.3077240" lon="-0.7367690">
        <ele>247.6</ele>
        <time>2018-10-04T07:40:37Z</time>
      </trkpt>
      <trkpt lat="38.3077480" lon="-0.7367480">
        <ele>247.9</ele>
        <time>2018-10-04T07:40:38Z</time>
      </trkpt>
      <trkpt lat="38.3077720" lon="-0.7367240">
        <ele>247.9</ele>
        <time>2018-10-04T07:40:39Z</time>
      </trkpt>
      <trkpt lat="38.3077950" lon="-0.7366970">
        <ele>248.0</ele>
        <time>2018-10-04T07:40:40Z</time>
      </trkpt>
      <trkpt lat="38.3078160" lon="-0.7366660">
        <ele>248.0</ele>
        <time>2018-10-04T07:40:41Z</time>
      </trkpt>
      <trkpt lat="38.3078360" lon="-0.7366330">
        <ele>247.7</ele>
        <time>2018-10-04T07:40:42Z</time>
      </trkpt>
      <trkpt lat="38.3078510" lon="-0.7365960">
        <ele>247.5</ele>
        <time>2018-10-04T07:40:43Z</time>
      </trkpt>
      <trkpt lat="38.3078630" lon="-0.7365580">
        <ele>247.1</ele>
        <time>2018-10-04T07:40:44Z</time>
      </trkpt>
      <trkpt lat="38.3078750" lon="-0.7365190">
        <ele>246.6</ele>
        <time>2018-10-04T07:40:45Z</time>
      </trkpt>
      <trkpt lat="38.3078860" lon="-0.7364770">
        <ele>246.1</ele>
        <time>2018-10-04T07:40:46Z</time>
      </trkpt>
      <trkpt lat="38.3078960" lon="-0.7364330">
        <ele>245.5</ele>
        <time>2018-10-04T07:40:47Z</time>
      </trkpt>
      <trkpt lat="38.3079050" lon="-0.7363880">
        <ele>244.9</ele>
        <time>2018-10-04T07:40:48Z</time>
      </trkpt>
      <trkpt lat="38.3079130" lon="-0.7363400">
        <ele>244.4</ele>
        <time>2018-10-04T07:40:49Z</time>
      </trkpt>
      <trkpt lat="38.3079230" lon="-0.7362900">
        <ele>243.9</ele>
        <time>2018-10-04T07:40:50Z</time>
      </trkpt>
      <trkpt lat="38.3079330" lon="-0.7362400">
        <ele>243.4</ele>
        <time>2018-10-04T07:40:51Z</time>
      </trkpt>
      <trkpt lat="38.3079430" lon="-0.7361880">
        <ele>243.0</ele>
        <time>2018-10-04T07:40:52Z</time>
      </trkpt>
      <trkpt lat="38.3079530" lon="-0.7361340">
        <ele>242.4</ele>
        <time>2018-10-04T07:40:53Z</time>
      </trkpt>
      <trkpt lat="38.3079630" lon="-0.7360780">
        <ele>242.0</ele>
        <time>2018-10-04T07:40:54Z</time>
      </trkpt>
      <trkpt lat="38.3079770" lon="-0.7360200">
        <ele>241.8</ele>
        <time>2018-10-04T07:40:55Z</time>
      </trkpt>
      <trkpt lat="38.3079980" lon="-0.7359630">
        <ele>241.6</ele>
        <time>2018-10-04T07:40:56Z</time>
      </trkpt>
      <trkpt lat="38.3080260" lon="-0.7359140">
        <ele>241.4</ele>
        <time>2018-10-04T07:40:57Z</time>
      </trkpt>
      <trkpt lat="38.3080630" lon="-0.7358740">
        <ele>241.8</ele>
        <time>2018-10-04T07:40:58Z</time>
      </trkpt>
      <trkpt lat="38.3081050" lon="-0.7358440">
        <ele>242.2</ele>
        <time>2018-10-04T07:40:59Z</time>
      </trkpt>
      <trkpt lat="38.3081490" lon="-0.7358230">
        <ele>242.7</ele>
        <time>2018-10-04T07:41:00Z</time>
      </trkpt>
      <trkpt lat="38.3081960" lon="-0.7358110">
        <ele>243.1</ele>
        <time>2018-10-04T07:41:01Z</time>
      </trkpt>
      <trkpt lat="38.3082420" lon="-0.7358020">
        <ele>243.6</ele>
        <time>2018-10-04T07:41:02Z</time>
      </trkpt>
      <trkpt lat="38.3082890" lon="-0.7357960">
        <ele>244.0</ele>
        <time>2018-10-04T07:41:03Z</time>
      </trkpt>
      <trkpt lat="38.3083350" lon="-0.7357900">
        <ele>244.3</ele>
        <time>2018-10-04T07:41:04Z</time>
      </trkpt>
      <trkpt lat="38.3083800" lon="-0.7357820">
        <ele>244.7</ele>
        <time>2018-10-04T07:41:05Z</time>
      </trkpt>
      <trkpt lat="38.3084240" lon="-0.7357710">
        <ele>245.3</ele>
        <time>2018-10-04T07:41:06Z</time>
      </trkpt>
      <trkpt lat="38.3084660" lon="-0.7357610">
        <ele>245.7</ele>
        <time>2018-10-04T07:41:07Z</time>
      </trkpt>
      <trkpt lat="38.3085060" lon="-0.7357470">
        <ele>246.0</ele>
        <time>2018-10-04T07:41:08Z</time>
      </trkpt>
      <trkpt lat="38.3085380" lon="-0.7357260">
        <ele>246.3</ele>
        <time>2018-10-04T07:41:09Z</time>
      </trkpt>
      <trkpt lat="38.3085670" lon="-0.7357060">
        <ele>246.7</ele>
        <time>2018-10-04T07:41:10Z</time>
      </trkpt>
      <trkpt lat="38.3085930" lon="-0.7356860">
        <ele>247.1</ele>
        <time>2018-10-04T07:41:11Z</time>
      </trkpt>
      <trkpt lat="38.3086160" lon="-0.7356660">
        <ele>247.4</ele>
        <time>2018-10-04T07:41:12Z</time>
      </trkpt>
      <trkpt lat="38.3086380" lon="-0.7356460">
        <ele>247.6</ele>
        <time>2018-10-04T07:41:13Z</time>
      </trkpt>
      <trkpt lat="38.3086600" lon="-0.7356250">
        <ele>247.9</ele>
        <time>2018-10-04T07:41:14Z</time>
      </trkpt>
      <trkpt lat="38.3086810" lon="-0.7356060">
        <ele>248.1</ele>
        <time>2018-10-04T07:41:15Z</time>
      </trkpt>
      <trkpt lat="38.3087030" lon="-0.7355890">
        <ele>248.3</ele>
        <time>2018-10-04T07:41:16Z</time>
      </trkpt>
      <trkpt lat="38.3087240" lon="-0.7355720">
        <ele>248.6</ele>
        <time>2018-10-04T07:41:17Z</time>
      </trkpt>
      <trkpt lat="38.3087430" lon="-0.7355560">
        <ele>248.8</ele>
        <time>2018-10-04T07:41:18Z</time>
      </trkpt>
      <trkpt lat="38.3087610" lon="-0.7355380">
        <ele>248.9</ele>
        <time>2018-10-04T07:41:19Z</time>
      </trkpt>
      <trkpt lat="38.3087810" lon="-0.7355200">
        <ele>248.9</ele>
        <time>2018-10-04T07:41:20Z</time>
      </trkpt>
      <trkpt lat="38.3088010" lon="-0.7355040">
        <ele>249.1</ele>
        <time>2018-10-04T07:41:21Z</time>
      </trkpt>
      <trkpt lat="38.3088200" lon="-0.7354880">
        <ele>249.3</ele>
        <time>2018-10-04T07:41:22Z</time>
      </trkpt>
      <trkpt lat="38.3088380" lon="-0.7354720">
        <ele>249.6</ele>
        <time>2018-10-04T07:41:23Z</time>
      </trkpt>
      <trkpt lat="38.3088580" lon="-0.7354580">
        <ele>249.8</ele>
        <time>2018-10-04T07:41:24Z</time>
      </trkpt>
      <trkpt lat="38.3088780" lon="-0.7354460">
        <ele>250.1</ele>
        <time>2018-10-04T07:41:25Z</time>
      </trkpt>
      <trkpt lat="38.3089000" lon="-0.7354340">
        <ele>250.5</ele>
        <time>2018-10-04T07:41:26Z</time>
      </trkpt>
      <trkpt lat="38.3089210" lon="-0.7354210">
        <ele>250.8</ele>
        <time>2018-10-04T07:41:27Z</time>
      </trkpt>
      <trkpt lat="38.3089430" lon="-0.7354090">
        <ele>251.2</ele>
        <time>2018-10-04T07:41:28Z</time>
      </trkpt>
      <trkpt lat="38.3089660" lon="-0.7353980">
        <ele>251.5</ele>
        <time>2018-10-04T07:41:29Z</time>
      </trkpt>
      <trkpt lat="38.3089900" lon="-0.7353860">
        <ele>251.9</ele>
        <time>2018-10-04T07:41:30Z</time>
      </trkpt>
      <trkpt lat="38.3090150" lon="-0.7353770">
        <ele>252.3</ele>
        <time>2018-10-04T07:41:31Z</time>
      </trkpt>
      <trkpt lat="38.3090400" lon="-0.7353670">
        <ele>252.6</ele>
        <time>2018-10-04T07:41:32Z</time>
      </trkpt>
      <trkpt lat="38.3090650" lon="-0.7353580">
        <ele>253.0</ele>
        <time>2018-10-04T07:41:33Z</time>
      </trkpt>
      <trkpt lat="38.3090910" lon="-0.7353480">
        <ele>253.4</ele>
        <time>2018-10-04T07:41:34Z</time>
      </trkpt>
      <trkpt lat="38.3091160" lon="-0.7353390">
        <ele>253.8</ele>
        <time>2018-10-04T07:41:35Z</time>
      </trkpt>
      <trkpt lat="38.3091430" lon="-0.7353340">
        <ele>254.3</ele>
        <time>2018-10-04T07:41:36Z</time>
      </trkpt>
      <trkpt lat="38.3091680" lon="-0.7353290">
        <ele>254.7</ele>
        <time>2018-10-04T07:41:37Z</time>
      </trkpt>
      <trkpt lat="38.3091920" lon="-0.7353240">
        <ele>255.1</ele>
        <time>2018-10-04T07:41:38Z</time>
      </trkpt>
      <trkpt lat="38.3092180" lon="-0.7353170">
        <ele>255.4</ele>
        <time>2018-10-04T07:41:39Z</time>
      </trkpt>
      <trkpt lat="38.3092430" lon="-0.7353110">
        <ele>255.8</ele>
        <time>2018-10-04T07:41:40Z</time>
      </trkpt>
      <trkpt lat="38.3092670" lon="-0.7353060">
        <ele>256.1</ele>
        <time>2018-10-04T07:41:41Z</time>
      </trkpt>
      <trkpt lat="38.3092900" lon="-0.7353030">
        <ele>257.6</ele>
        <time>2018-10-04T07:41:42Z</time>
      </trkpt>
      <trkpt lat="38.3093130" lon="-0.7353070">
        <ele>257.9</ele>
        <time>2018-10-04T07:41:43Z</time>
      </trkpt>
      <trkpt lat="38.3093350" lon="-0.7353190">
        <ele>258.1</ele>
        <time>2018-10-04T07:41:44Z</time>
      </trkpt>
      <trkpt lat="38.3093580" lon="-0.7353400">
        <ele>258.4</ele>
        <time>2018-10-04T07:41:45Z</time>
      </trkpt>
      <trkpt lat="38.3093740" lon="-0.7353700">
        <ele>258.7</ele>
        <time>2018-10-04T07:41:46Z</time>
      </trkpt>
      <trkpt lat="38.3093820" lon="-0.7354080">
        <ele>258.9</ele>
        <time>2018-10-04T07:41:47Z</time>
      </trkpt>
      <trkpt lat="38.3093850" lon="-0.7354510">
        <ele>259.0</ele>
        <time>2018-10-04T07:41:48Z</time>
      </trkpt>
      <trkpt lat="38.3093850" lon="-0.7354990">
        <ele>259.1</ele>
        <time>2018-10-04T07:41:49Z</time>
      </trkpt>
      <trkpt lat="38.3093780" lon="-0.7355490">
        <ele>259.2</ele>
        <time>2018-10-04T07:41:50Z</time>
      </trkpt>
      <trkpt lat="38.3093650" lon="-0.7356000">
        <ele>259.1</ele>
        <time>2018-10-04T07:41:51Z</time>
      </trkpt>
      <trkpt lat="38.3093490" lon="-0.7356510">
        <ele>258.8</ele>
        <time>2018-10-04T07:41:52Z</time>
      </trkpt>
      <trkpt lat="38.3093310" lon="-0.7357040">
        <ele>258.6</ele>
        <time>2018-10-04T07:41:53Z</time>
      </trkpt>
      <trkpt lat="38.3093110" lon="-0.7357560">
        <ele>258.4</ele>
        <time>2018-10-04T07:41:54Z</time>
      </trkpt>
      <trkpt lat="38.3092930" lon="-0.7358050">
        <ele>258.3</ele>
        <time>2018-10-04T07:41:55Z</time>
      </trkpt>
      <trkpt lat="38.3092760" lon="-0.7358480">
        <ele>258.2</ele>
        <time>2018-10-04T07:41:56Z</time>
      </trkpt>
      <trkpt lat="38.3092610" lon="-0.7358890">
        <ele>258.2</ele>
        <time>2018-10-04T07:41:57Z</time>
      </trkpt>
      <trkpt lat="38.3092500" lon="-0.7359300">
        <ele>258.2</ele>
        <time>2018-10-04T07:41:58Z</time>
      </trkpt>
      <trkpt lat="38.3092400" lon="-0.7359720">
        <ele>258.2</ele>
        <time>2018-10-04T07:41:59Z</time>
      </trkpt>
      <trkpt lat="38.3092320" lon="-0.7360120">
        <ele>258.1</ele>
        <time>2018-10-04T07:42:00Z</time>
      </trkpt>
      <trkpt lat="38.3092250" lon="-0.7360560">
        <ele>258.1</ele>
        <time>2018-10-04T07:42:01Z</time>
      </trkpt>
      <trkpt lat="38.3092220" lon="-0.7360960">
        <ele>258.2</ele>
        <time>2018-10-04T07:42:02Z</time>
      </trkpt>
      <trkpt lat="38.3092220" lon="-0.7361370">
        <ele>258.5</ele>
        <time>2018-10-04T07:42:03Z</time>
      </trkpt>
      <trkpt lat="38.3092230" lon="-0.7361760">
        <ele>258.7</ele>
        <time>2018-10-04T07:42:04Z</time>
      </trkpt>
      <trkpt lat="38.3092270" lon="-0.7362140">
        <ele>258.7</ele>
        <time>2018-10-04T07:42:05Z</time>
      </trkpt>
      <trkpt lat="38.3092330" lon="-0.7362490">
        <ele>258.7</ele>
        <time>2018-10-04T07:42:06Z</time>
      </trkpt>
      <trkpt lat="38.3092380" lon="-0.7362830">
        <ele>258.6</ele>
        <time>2018-10-04T07:42:07Z</time>
      </trkpt>
      <trkpt lat="38.3092430" lon="-0.7363160">
        <ele>258.6</ele>
        <time>2018-10-04T07:42:08Z</time>
      </trkpt>
      <trkpt lat="38.3092510" lon="-0.7363460">
        <ele>258.6</ele>
        <time>2018-10-04T07:42:09Z</time>
      </trkpt>
      <trkpt lat="38.3092590" lon="-0.7363780">
        <ele>258.6</ele>
        <time>2018-10-04T07:42:10Z</time>
      </trkpt>
      <trkpt lat="38.3092690" lon="-0.7364110">
        <ele>258.5</ele>
        <time>2018-10-04T07:42:11Z</time>
      </trkpt>
      <trkpt lat="38.3092770" lon="-0.7364460">
        <ele>258.5</ele>
        <time>2018-10-04T07:42:12Z</time>
      </trkpt>
      <trkpt lat="38.3092860" lon="-0.7364800">
        <ele>258.5</ele>
        <time>2018-10-04T07:42:13Z</time>
      </trkpt>
      <trkpt lat="38.3092940" lon="-0.7365130">
        <ele>258.4</ele>
        <time>2018-10-04T07:42:14Z</time>
      </trkpt>
      <trkpt lat="38.3093020" lon="-0.7365470">
        <ele>258.4</ele>
        <time>2018-10-04T07:42:15Z</time>
      </trkpt>
      <trkpt lat="38.3093090" lon="-0.7365800">
        <ele>258.4</ele>
        <time>2018-10-04T07:42:16Z</time>
      </trkpt>
      <trkpt lat="38.3093140" lon="-0.7366110">
        <ele>258.3</ele>
        <time>2018-10-04T07:42:17Z</time>
      </trkpt>
      <trkpt lat="38.3093190" lon="-0.7366420">
        <ele>258.3</ele>
        <time>2018-10-04T07:42:18Z</time>
      </trkpt>
      <trkpt lat="38.3093210" lon="-0.7366730">
        <ele>258.3</ele>
        <time>2018-10-04T07:42:19Z</time>
      </trkpt>
      <trkpt lat="38.3093220" lon="-0.7367060">
        <ele>258.3</ele>
        <time>2018-10-04T07:42:20Z</time>
      </trkpt>
      <trkpt lat="38.3093230" lon="-0.7367380">
        <ele>258.2</ele>
        <time>2018-10-04T07:42:21Z</time>
      </trkpt>
      <trkpt lat="38.3093220" lon="-0.7367700">
        <ele>258.2</ele>
        <time>2018-10-04T07:42:22Z</time>
      </trkpt>
      <trkpt lat="38.3093220" lon="-0.7368030">
        <ele>258.2</ele>
        <time>2018-10-04T07:42:23Z</time>
      </trkpt>
      <trkpt lat="38.3093210" lon="-0.7368360">
        <ele>258.2</ele>
        <time>2018-10-04T07:42:24Z</time>
      </trkpt>
      <trkpt lat="38.3093170" lon="-0.7368690">
        <ele>258.1</ele>
        <time>2018-10-04T07:42:25Z</time>
      </trkpt>
      <trkpt lat="38.3093110" lon="-0.7369010">
        <ele>258.1</ele>
        <time>2018-10-04T07:42:26Z</time>
      </trkpt>
      <trkpt lat="38.3093030" lon="-0.7369300">
        <ele>258.1</ele>
        <time>2018-10-04T07:42:27Z</time>
      </trkpt>
      <trkpt lat="38.3092940" lon="-0.7369600">
        <ele>258.1</ele>
        <time>2018-10-04T07:42:28Z</time>
      </trkpt>
      <trkpt lat="38.3092820" lon="-0.7369910">
        <ele>258.1</ele>
        <time>2018-10-04T07:42:29Z</time>
      </trkpt>
      <trkpt lat="38.3092660" lon="-0.7370240">
        <ele>258.1</ele>
        <time>2018-10-04T07:42:30Z</time>
      </trkpt>
      <trkpt lat="38.3092450" lon="-0.7370580">
        <ele>258.1</ele>
        <time>2018-10-04T07:42:31Z</time>
      </trkpt>
      <trkpt lat="38.3092210" lon="-0.7370910">
        <ele>258.1</ele>
        <time>2018-10-04T07:42:32Z</time>
      </trkpt>
      <trkpt lat="38.3091880" lon="-0.7371130">
        <ele>258.1</ele>
        <time>2018-10-04T07:42:33Z</time>
      </trkpt>
      <trkpt lat="38.3091510" lon="-0.7371200">
        <ele>258.1</ele>
        <time>2018-10-04T07:42:34Z</time>
      </trkpt>
      <trkpt lat="38.3091080" lon="-0.7371210">
        <ele>258.1</ele>
        <time>2018-10-04T07:42:35Z</time>
      </trkpt>
      <trkpt lat="38.3090610" lon="-0.7371230">
        <ele>258.1</ele>
        <time>2018-10-04T07:42:36Z</time>
      </trkpt>
      <trkpt lat="38.3090110" lon="-0.7371360">
        <ele>258.1</ele>
        <time>2018-10-04T07:42:37Z</time>
      </trkpt>
      <trkpt lat="38.3089620" lon="-0.7371580">
        <ele>258.1</ele>
        <time>2018-10-04T07:42:38Z</time>
      </trkpt>
      <trkpt lat="38.3089190" lon="-0.7371910">
        <ele>258.1</ele>
        <time>2018-10-04T07:42:39Z</time>
      </trkpt>
      <trkpt lat="38.3088910" lon="-0.7372380">
        <ele>258.2</ele>
        <time>2018-10-04T07:42:40Z</time>
      </trkpt>
      <trkpt lat="38.3088760" lon="-0.7372880">
        <ele>258.2</ele>
        <time>2018-10-04T07:42:41Z</time>
      </trkpt>
      <trkpt lat="38.3088730" lon="-0.7373320">
        <ele>258.2</ele>
        <time>2018-10-04T07:42:42Z</time>
      </trkpt>
      <trkpt lat="38.3088770" lon="-0.7373650">
        <ele>258.2</ele>
        <time>2018-10-04T07:42:43Z</time>
      </trkpt>
      <trkpt lat="38.3088820" lon="-0.7373970">
        <ele>258.2</ele>
        <time>2018-10-04T07:42:44Z</time>
      </trkpt>
      <trkpt lat="38.3088870" lon="-0.7374230">
        <ele>258.2</ele>
        <time>2018-10-04T07:42:45Z</time>
      </trkpt>
      <trkpt lat="38.3088910" lon="-0.7374520">
        <ele>258.2</ele>
        <time>2018-10-04T07:42:46Z</time>
      </trkpt>
      <trkpt lat="38.3088950" lon="-0.7374780">
        <ele>258.2</ele>
        <time>2018-10-04T07:42:47Z</time>
      </trkpt>
      <trkpt lat="38.3088970" lon="-0.7375050">
        <ele>258.2</ele>
        <time>2018-10-04T07:42:48Z</time>
      </trkpt>
      <trkpt lat="38.3088990" lon="-0.7375330">
        <ele>258.2</ele>
        <time>2018-10-04T07:42:49Z</time>
      </trkpt>
      <trkpt lat="38.3089000" lon="-0.7375600">
        <ele>258.2</ele>
        <time>2018-10-04T07:42:50Z</time>
      </trkpt>
      <trkpt lat="38.3088970" lon="-0.7375870">
        <ele>258.2</ele>
        <time>2018-10-04T07:42:51Z</time>
      </trkpt>
      <trkpt lat="38.3088930" lon="-0.7376150">
        <ele>258.2</ele>
        <time>2018-10-04T07:42:52Z</time>
      </trkpt>
      <trkpt lat="38.3088880" lon="-0.7376420">
        <ele>258.2</ele>
        <time>2018-10-04T07:42:53Z</time>
      </trkpt>
      <trkpt lat="38.3088830" lon="-0.7376690">
        <ele>258.2</ele>
        <time>2018-10-04T07:42:54Z</time>
      </trkpt>
      <trkpt lat="38.3088780" lon="-0.7376950">
        <ele>258.2</ele>
        <time>2018-10-04T07:42:55Z</time>
      </trkpt>
      <trkpt lat="38.3088720" lon="-0.7377210">
        <ele>258.2</ele>
        <time>2018-10-04T07:42:56Z</time>
      </trkpt>
      <trkpt lat="38.3088620" lon="-0.7377470">
        <ele>258.2</ele>
        <time>2018-10-04T07:42:57Z</time>
      </trkpt>
      <trkpt lat="38.3088530" lon="-0.7377750">
        <ele>258.2</ele>
        <time>2018-10-04T07:42:58Z</time>
      </trkpt>
      <trkpt lat="38.3088430" lon="-0.7378030">
        <ele>258.2</ele>
        <time>2018-10-04T07:42:59Z</time>
      </trkpt>
      <trkpt lat="38.3088330" lon="-0.7378330">
        <ele>258.2</ele>
        <time>2018-10-04T07:43:00Z</time>
      </trkpt>
      <trkpt lat="38.3088220" lon="-0.7378590">
        <ele>258.2</ele>
        <time>2018-10-04T07:43:01Z</time>
      </trkpt>
      <trkpt lat="38.3088090" lon="-0.7378840">
        <ele>258.2</ele>
        <time>2018-10-04T07:43:02Z</time>
      </trkpt>
      <trkpt lat="38.3087980" lon="-0.7379100">
        <ele>258.2</ele>
        <time>2018-10-04T07:43:03Z</time>
      </trkpt>
      <trkpt lat="38.3087850" lon="-0.7379340">
        <ele>258.2</ele>
        <time>2018-10-04T07:43:04Z</time>
      </trkpt>
      <trkpt lat="38.3087740" lon="-0.7379590">
        <ele>258.2</ele>
        <time>2018-10-04T07:43:05Z</time>
      </trkpt>
      <trkpt lat="38.3087630" lon="-0.7379830">
        <ele>258.2</ele>
        <time>2018-10-04T07:43:06Z</time>
      </trkpt>
      <trkpt lat="38.3087510" lon="-0.7380040">
        <ele>258.2</ele>
        <time>2018-10-04T07:43:07Z</time>
      </trkpt>
      <trkpt lat="38.3087390" lon="-0.7380250">
        <ele>258.2</ele>
        <time>2018-10-04T07:43:08Z</time>
      </trkpt>
      <trkpt lat="38.3087260" lon="-0.7380450">
        <ele>258.2</ele>
        <time>2018-10-04T07:43:09Z</time>
      </trkpt>
      <trkpt lat="38.3087090" lon="-0.7380610">
        <ele>258.2</ele>
        <time>2018-10-04T07:43:10Z</time>
      </trkpt>
      <trkpt lat="38.3086890" lon="-0.7380750">
        <ele>258.2</ele>
        <time>2018-10-04T07:43:11Z</time>
      </trkpt>
      <trkpt lat="38.3086680" lon="-0.7380890">
        <ele>258.2</ele>
        <time>2018-10-04T07:43:12Z</time>
      </trkpt>
      <trkpt lat="38.3086450" lon="-0.7380980">
        <ele>258.2</ele>
        <time>2018-10-04T07:43:13Z</time>
      </trkpt>
      <trkpt lat="38.3086210" lon="-0.7381010">
        <ele>258.2</ele>
        <time>2018-10-04T07:43:14Z</time>
      </trkpt>
      <trkpt lat="38.3085970" lon="-0.7380980">
        <ele>258.2</ele>
        <time>2018-10-04T07:43:15Z</time>
      </trkpt>
      <trkpt lat="38.3085710" lon="-0.7380890">
        <ele>258.2</ele>
        <time>2018-10-04T07:43:16Z</time>
      </trkpt>
      <trkpt lat="38.3085470" lon="-0.7380780">
        <ele>258.2</ele>
        <time>2018-10-04T07:43:17Z</time>
      </trkpt>
      <trkpt lat="38.3085250" lon="-0.7380590">
        <ele>258.2</ele>
        <time>2018-10-04T07:43:18Z</time>
      </trkpt>
      <trkpt lat="38.3085070" lon="-0.7380320">
        <ele>258.2</ele>
        <time>2018-10-04T07:43:19Z</time>
      </trkpt>
      <trkpt lat="38.3084880" lon="-0.7380020">
        <ele>258.2</ele>
        <time>2018-10-04T07:43:20Z</time>
      </trkpt>
      <trkpt lat="38.3084700" lon="-0.7379710">
        <ele>258.2</ele>
        <time>2018-10-04T07:43:21Z</time>
      </trkpt>
      <trkpt lat="38.3084570" lon="-0.7379360">
        <ele>258.2</ele>
        <time>2018-10-04T07:43:22Z</time>
      </trkpt>
      <trkpt lat="38.3084440" lon="-0.7378980">
        <ele>258.2</ele>
        <time>2018-10-04T07:43:23Z</time>
      </trkpt>
      <trkpt lat="38.3084300" lon="-0.7378610">
        <ele>258.2</ele>
        <time>2018-10-04T07:43:24Z</time>
      </trkpt>
      <trkpt lat="38.3084140" lon="-0.7378260">
        <ele>258.2</ele>
        <time>2018-10-04T07:43:25Z</time>
      </trkpt>
      <trkpt lat="38.3083960" lon="-0.7377930">
        <ele>258.3</ele>
        <time>2018-10-04T07:43:26Z</time>
      </trkpt>
      <trkpt lat="38.3083750" lon="-0.7377630">
        <ele>258.3</ele>
        <time>2018-10-04T07:43:27Z</time>
      </trkpt>
      <trkpt lat="38.3083570" lon="-0.7377330">
        <ele>258.3</ele>
        <time>2018-10-04T07:43:28Z</time>
      </trkpt>
      <trkpt lat="38.3083440" lon="-0.7377010">
        <ele>258.3</ele>
        <time>2018-10-04T07:43:29Z</time>
      </trkpt>
      <trkpt lat="38.3083380" lon="-0.7376660">
        <ele>258.3</ele>
        <time>2018-10-04T07:43:30Z</time>
      </trkpt>
      <trkpt lat="38.3083380" lon="-0.7376280">
        <ele>258.3</ele>
        <time>2018-10-04T07:43:31Z</time>
      </trkpt>
      <trkpt lat="38.3083450" lon="-0.7375980">
        <ele>258.3</ele>
        <time>2018-10-04T07:43:32Z</time>
      </trkpt>
      <trkpt lat="38.3083630" lon="-0.7375760">
        <ele>258.3</ele>
        <time>2018-10-04T07:43:33Z</time>
      </trkpt>
      <trkpt lat="38.3083890" lon="-0.7375690">
        <ele>258.3</ele>
        <time>2018-10-04T07:43:34Z</time>
      </trkpt>
      <trkpt lat="38.3084120" lon="-0.7375810">
        <ele>258.3</ele>
        <time>2018-10-04T07:43:35Z</time>
      </trkpt>
      <trkpt lat="38.3084310" lon="-0.7376030">
        <ele>258.3</ele>
        <time>2018-10-04T07:43:36Z</time>
      </trkpt>
      <trkpt lat="38.3084470" lon="-0.7376300">
        <ele>258.3</ele>
        <time>2018-10-04T07:43:37Z</time>
      </trkpt>
      <trkpt lat="38.3084650" lon="-0.7376570">
        <ele>258.3</ele>
        <time>2018-10-04T07:43:38Z</time>
      </trkpt>
      <trkpt lat="38.3084820" lon="-0.7376830">
        <ele>258.3</ele>
        <time>2018-10-04T07:43:39Z</time>
      </trkpt>
      <trkpt lat="38.3084990" lon="-0.7377110">
        <ele>258.4</ele>
        <time>2018-10-04T07:43:40Z</time>
      </trkpt>
      <trkpt lat="38.3085170" lon="-0.7377380">
        <ele>258.4</ele>
        <time>2018-10-04T07:43:41Z</time>
      </trkpt>
      <trkpt lat="38.3085370" lon="-0.7377600">
        <ele>258.4</ele>
        <time>2018-10-04T07:43:42Z</time>
      </trkpt>
      <trkpt lat="38.3085580" lon="-0.7377720">
        <ele>258.4</ele>
        <time>2018-10-04T07:43:43Z</time>
      </trkpt>
      <trkpt lat="38.3085820" lon="-0.7377780">
        <ele>258.4</ele>
        <time>2018-10-04T07:43:44Z</time>
      </trkpt>
      <trkpt lat="38.3086460" lon="-0.7377440">
        <ele>258.4</ele>
        <time>2018-10-04T07:44:58Z</time>
      </trkpt>
      <trkpt lat="38.3086450" lon="-0.7377440">
        <ele>258.4</ele>
        <time>2018-10-04T07:44:59Z</time>
      </trkpt>
      <trkpt lat="38.3086390" lon="-0.7377500">
        <ele>258.4</ele>
        <time>2018-10-04T07:45:00Z</time>
      </trkpt>
      <trkpt lat="38.3086260" lon="-0.7377630">
        <ele>258.4</ele>
        <time>2018-10-04T07:45:01Z</time>
      </trkpt>
      <trkpt lat="38.3086100" lon="-0.7377760">
        <ele>258.4</ele>
        <time>2018-10-04T07:45:02Z</time>
      </trkpt>
      <trkpt lat="38.3085830" lon="-0.7377800">
        <ele>258.4</ele>
        <time>2018-10-04T07:45:03Z</time>
      </trkpt>
      <trkpt lat="38.3085540" lon="-0.7377660">
        <ele>258.4</ele>
        <time>2018-10-04T07:45:04Z</time>
      </trkpt>
      <trkpt lat="38.3085250" lon="-0.7377360">
        <ele>258.5</ele>
        <time>2018-10-04T07:45:05Z</time>
      </trkpt>
      <trkpt lat="38.3084970" lon="-0.7376910">
        <ele>258.5</ele>
        <time>2018-10-04T07:45:06Z</time>
      </trkpt>
      <trkpt lat="38.3084690" lon="-0.7376390">
        <ele>258.5</ele>
        <time>2018-10-04T07:45:07Z</time>
      </trkpt>
      <trkpt lat="38.3084360" lon="-0.7375960">
        <ele>258.5</ele>
        <time>2018-10-04T07:45:08Z</time>
      </trkpt>
      <trkpt lat="38.3084050" lon="-0.7375740">
        <ele>258.5</ele>
        <time>2018-10-04T07:45:09Z</time>
      </trkpt>
      <trkpt lat="38.3083730" lon="-0.7375660">
        <ele>258.6</ele>
        <time>2018-10-04T07:45:10Z</time>
      </trkpt>
      <trkpt lat="38.3083470" lon="-0.7375790">
        <ele>258.6</ele>
        <time>2018-10-04T07:45:11Z</time>
      </trkpt>
      <trkpt lat="38.3083370" lon="-0.7376090">
        <ele>258.6</ele>
        <time>2018-10-04T07:45:12Z</time>
      </trkpt>
      <trkpt lat="38.3083360" lon="-0.7376440">
        <ele>258.6</ele>
        <time>2018-10-04T07:45:13Z</time>
      </trkpt>
      <trkpt lat="38.3083460" lon="-0.7376870">
        <ele>258.6</ele>
        <time>2018-10-04T07:45:14Z</time>
      </trkpt>
      <trkpt lat="38.3083640" lon="-0.7377330">
        <ele>258.6</ele>
        <time>2018-10-04T07:45:15Z</time>
      </trkpt>
      <trkpt lat="38.3083890" lon="-0.7377810">
        <ele>258.7</ele>
        <time>2018-10-04T07:45:16Z</time>
      </trkpt>
      <trkpt lat="38.3084210" lon="-0.7378340">
        <ele>258.7</ele>
        <time>2018-10-04T07:45:17Z</time>
      </trkpt>
      <trkpt lat="38.3084500" lon="-0.7378950">
        <ele>258.7</ele>
        <time>2018-10-04T07:45:18Z</time>
      </trkpt>
      <trkpt lat="38.3084790" lon="-0.7379590">
        <ele>258.7</ele>
        <time>2018-10-04T07:45:19Z</time>
      </trkpt>
      <trkpt lat="38.3085100" lon="-0.7380220">
        <ele>258.8</ele>
        <time>2018-10-04T07:45:20Z</time>
      </trkpt>
      <trkpt lat="38.3085480" lon="-0.7380710">
        <ele>258.8</ele>
        <time>2018-10-04T07:45:21Z</time>
      </trkpt>
      <trkpt lat="38.3085900" lon="-0.7380920">
        <ele>258.8</ele>
        <time>2018-10-04T07:45:22Z</time>
      </trkpt>
      <trkpt lat="38.3086360" lon="-0.7380950">
        <ele>258.9</ele>
        <time>2018-10-04T07:45:23Z</time>
      </trkpt>
      <trkpt lat="38.3086750" lon="-0.7380790">
        <ele>258.9</ele>
        <time>2018-10-04T07:45:24Z</time>
      </trkpt>
      <trkpt lat="38.3087140" lon="-0.7380380">
        <ele>258.9</ele>
        <time>2018-10-04T07:45:25Z</time>
      </trkpt>
      <trkpt lat="38.3087540" lon="-0.7379750">
        <ele>259.0</ele>
        <time>2018-10-04T07:45:26Z</time>
      </trkpt>
      <trkpt lat="38.3087940" lon="-0.7379020">
        <ele>259.0</ele>
        <time>2018-10-04T07:45:27Z</time>
      </trkpt>
      <trkpt lat="38.3088300" lon="-0.7378150">
        <ele>259.1</ele>
        <time>2018-10-04T07:45:28Z</time>
      </trkpt>
      <trkpt lat="38.3088600" lon="-0.7377230">
        <ele>259.1</ele>
        <time>2018-10-04T07:45:29Z</time>
      </trkpt>
      <trkpt lat="38.3088790" lon="-0.7376400">
        <ele>259.2</ele>
        <time>2018-10-04T07:45:30Z</time>
      </trkpt>
      <trkpt lat="38.3088870" lon="-0.7375550">
        <ele>259.2</ele>
        <time>2018-10-04T07:45:31Z</time>
      </trkpt>
      <trkpt lat="38.3088830" lon="-0.7374770">
        <ele>259.2</ele>
        <time>2018-10-04T07:45:32Z</time>
      </trkpt>
      <trkpt lat="38.3088790" lon="-0.7373950">
        <ele>259.2</ele>
        <time>2018-10-04T07:45:33Z</time>
      </trkpt>
      <trkpt lat="38.3088730" lon="-0.7373180">
        <ele>259.2</ele>
        <time>2018-10-04T07:45:34Z</time>
      </trkpt>
      <trkpt lat="38.3088750" lon="-0.7372680">
        <ele>259.2</ele>
        <time>2018-10-04T07:45:35Z</time>
      </trkpt>
      <trkpt lat="38.3088920" lon="-0.7372360">
        <ele>259.2</ele>
        <time>2018-10-04T07:45:36Z</time>
      </trkpt>
      <trkpt lat="38.3089200" lon="-0.7371990">
        <ele>259.2</ele>
        <time>2018-10-04T07:45:37Z</time>
      </trkpt>
      <trkpt lat="38.3089550" lon="-0.7371770">
        <ele>259.2</ele>
        <time>2018-10-04T07:45:38Z</time>
      </trkpt>
      <trkpt lat="38.3089930" lon="-0.7371600">
        <ele>259.1</ele>
        <time>2018-10-04T07:45:39Z</time>
      </trkpt>
      <trkpt lat="38.3090330" lon="-0.7371450">
        <ele>259.1</ele>
        <time>2018-10-04T07:45:40Z</time>
      </trkpt>
      <trkpt lat="38.3090730" lon="-0.7371320">
        <ele>259.1</ele>
        <time>2018-10-04T07:45:41Z</time>
      </trkpt>
      <trkpt lat="38.3091120" lon="-0.7371290">
        <ele>259.1</ele>
        <time>2018-10-04T07:45:42Z</time>
      </trkpt>
      <trkpt lat="38.3091500" lon="-0.7371260">
        <ele>259.1</ele>
        <time>2018-10-04T07:45:43Z</time>
      </trkpt>
      <trkpt lat="38.3091920" lon="-0.7371150">
        <ele>259.1</ele>
        <time>2018-10-04T07:45:44Z</time>
      </trkpt>
      <trkpt lat="38.3092260" lon="-0.7370940">
        <ele>259.1</ele>
        <time>2018-10-04T07:45:45Z</time>
      </trkpt>
      <trkpt lat="38.3092530" lon="-0.7370590">
        <ele>259.1</ele>
        <time>2018-10-04T07:45:46Z</time>
      </trkpt>
      <trkpt lat="38.3092760" lon="-0.7370190">
        <ele>259.1</ele>
        <time>2018-10-04T07:45:47Z</time>
      </trkpt>
      <trkpt lat="38.3092920" lon="-0.7369690">
        <ele>259.0</ele>
        <time>2018-10-04T07:45:48Z</time>
      </trkpt>
      <trkpt lat="38.3093010" lon="-0.7369150">
        <ele>259.0</ele>
        <time>2018-10-04T07:45:49Z</time>
      </trkpt>
      <trkpt lat="38.3093090" lon="-0.7368490">
        <ele>259.0</ele>
        <time>2018-10-04T07:45:50Z</time>
      </trkpt>
      <trkpt lat="38.3093160" lon="-0.7367690">
        <ele>259.0</ele>
        <time>2018-10-04T07:45:51Z</time>
      </trkpt>
      <trkpt lat="38.3093170" lon="-0.7366810">
        <ele>259.0</ele>
        <time>2018-10-04T07:45:52Z</time>
      </trkpt>
      <trkpt lat="38.3093060" lon="-0.7365880">
        <ele>258.9</ele>
        <time>2018-10-04T07:45:53Z</time>
      </trkpt>
      <trkpt lat="38.3092830" lon="-0.7364910">
        <ele>258.9</ele>
        <time>2018-10-04T07:45:54Z</time>
      </trkpt>
      <trkpt lat="38.3092580" lon="-0.7363910">
        <ele>258.9</ele>
        <time>2018-10-04T07:45:55Z</time>
      </trkpt>
      <trkpt lat="38.3092350" lon="-0.7362940">
        <ele>258.8</ele>
        <time>2018-10-04T07:45:56Z</time>
      </trkpt>
      <trkpt lat="38.3092210" lon="-0.7361920">
        <ele>258.8</ele>
        <time>2018-10-04T07:45:57Z</time>
      </trkpt>
      <trkpt lat="38.3092200" lon="-0.7360960">
        <ele>258.7</ele>
        <time>2018-10-04T07:45:58Z</time>
      </trkpt>
      <trkpt lat="38.3092330" lon="-0.7360070">
        <ele>258.6</ele>
        <time>2018-10-04T07:45:59Z</time>
      </trkpt>
      <trkpt lat="38.3092600" lon="-0.7359180">
        <ele>258.5</ele>
        <time>2018-10-04T07:46:00Z</time>
      </trkpt>
      <trkpt lat="38.3092940" lon="-0.7358300">
        <ele>258.4</ele>
        <time>2018-10-04T07:46:01Z</time>
      </trkpt>
      <trkpt lat="38.3093290" lon="-0.7357400">
        <ele>258.3</ele>
        <time>2018-10-04T07:46:02Z</time>
      </trkpt>
      <trkpt lat="38.3093610" lon="-0.7356470">
        <ele>258.2</ele>
        <time>2018-10-04T07:46:03Z</time>
      </trkpt>
      <trkpt lat="38.3093840" lon="-0.7355530">
        <ele>258.1</ele>
        <time>2018-10-04T07:46:04Z</time>
      </trkpt>
      <trkpt lat="38.3093910" lon="-0.7354600">
        <ele>258.0</ele>
        <time>2018-10-04T07:46:05Z</time>
      </trkpt>
      <trkpt lat="38.3093830" lon="-0.7353750">
        <ele>257.9</ele>
        <time>2018-10-04T07:46:06Z</time>
      </trkpt>
      <trkpt lat="38.3093680" lon="-0.7352940">
        <ele>257.8</ele>
        <time>2018-10-04T07:46:07Z</time>
      </trkpt>
      <trkpt lat="38.3093620" lon="-0.7352220">
        <ele>257.0</ele>
        <time>2018-10-04T07:46:08Z</time>
      </trkpt>
      <trkpt lat="38.3093590" lon="-0.7351590">
        <ele>257.3</ele>
        <time>2018-10-04T07:46:09Z</time>
      </trkpt>
      <trkpt lat="38.3093540" lon="-0.7350960">
        <ele>257.8</ele>
        <time>2018-10-04T07:46:10Z</time>
      </trkpt>
      <trkpt lat="38.3093460" lon="-0.7350360">
        <ele>258.5</ele>
        <time>2018-10-04T07:46:11Z</time>
      </trkpt>
      <trkpt lat="38.3093380" lon="-0.7349770">
        <ele>259.1</ele>
        <time>2018-10-04T07:46:12Z</time>
      </trkpt>
      <trkpt lat="38.3093300" lon="-0.7349190">
        <ele>259.7</ele>
        <time>2018-10-04T07:46:13Z</time>
      </trkpt>
      <trkpt lat="38.3093230" lon="-0.7348670">
        <ele>260.2</ele>
        <time>2018-10-04T07:46:14Z</time>
      </trkpt>
      <trkpt lat="38.3093180" lon="-0.7348200">
        <ele>260.5</ele>
        <time>2018-10-04T07:46:15Z</time>
      </trkpt>
      <trkpt lat="38.3093150" lon="-0.7347760">
        <ele>260.8</ele>
        <time>2018-10-04T07:46:16Z</time>
      </trkpt>
      <trkpt lat="38.3093140" lon="-0.7347360">
        <ele>261.1</ele>
        <time>2018-10-04T07:46:17Z</time>
      </trkpt>
      <trkpt lat="38.3093140" lon="-0.7346980">
        <ele>261.4</ele>
        <time>2018-10-04T07:46:18Z</time>
      </trkpt>
      <trkpt lat="38.3093120" lon="-0.7346590">
        <ele>261.7</ele>
        <time>2018-10-04T07:46:19Z</time>
      </trkpt>
      <trkpt lat="38.3093120" lon="-0.7346250">
        <ele>261.9</ele>
        <time>2018-10-04T07:46:20Z</time>
      </trkpt>
      <trkpt lat="38.3093120" lon="-0.7345890">
        <ele>262.2</ele>
        <time>2018-10-04T07:46:21Z</time>
      </trkpt>
      <trkpt lat="38.3093170" lon="-0.7345590">
        <ele>262.4</ele>
        <time>2018-10-04T07:46:22Z</time>
      </trkpt>
      <trkpt lat="38.3093240" lon="-0.7345290">
        <ele>262.7</ele>
        <time>2018-10-04T07:46:23Z</time>
      </trkpt>
      <trkpt lat="38.3093310" lon="-0.7345020">
        <ele>262.8</ele>
        <time>2018-10-04T07:46:24Z</time>
      </trkpt>
      <trkpt lat="38.3093360" lon="-0.7344730">
        <ele>263.0</ele>
        <time>2018-10-04T07:46:25Z</time>
      </trkpt>
      <trkpt lat="38.3093430" lon="-0.7344450">
        <ele>263.3</ele>
        <time>2018-10-04T07:46:26Z</time>
      </trkpt>
      <trkpt lat="38.3093480" lon="-0.7344170">
        <ele>263.6</ele>
        <time>2018-10-04T07:46:27Z</time>
      </trkpt>
      <trkpt lat="38.3093550" lon="-0.7343870">
        <ele>264.0</ele>
        <time>2018-10-04T07:46:28Z</time>
      </trkpt>
      <trkpt lat="38.3093620" lon="-0.7343610">
        <ele>264.4</ele>
        <time>2018-10-04T07:46:29Z</time>
      </trkpt>
      <trkpt lat="38.3093680" lon="-0.7343400">
        <ele>264.7</ele>
        <time>2018-10-04T07:46:30Z</time>
      </trkpt>
      <trkpt lat="38.3093730" lon="-0.7343160">
        <ele>265.0</ele>
        <time>2018-10-04T07:46:31Z</time>
      </trkpt>
      <trkpt lat="38.3093770" lon="-0.7342920">
        <ele>265.3</ele>
        <time>2018-10-04T07:46:32Z</time>
      </trkpt>
      <trkpt lat="38.3093820" lon="-0.7342680">
        <ele>265.7</ele>
        <time>2018-10-04T07:46:33Z</time>
      </trkpt>
      <trkpt lat="38.3093880" lon="-0.7342430">
        <ele>266.1</ele>
        <time>2018-10-04T07:46:34Z</time>
      </trkpt>
      <trkpt lat="38.3093970" lon="-0.7342240">
        <ele>266.6</ele>
        <time>2018-10-04T07:46:35Z</time>
      </trkpt>
      <trkpt lat="38.3094080" lon="-0.7342020">
        <ele>267.1</ele>
        <time>2018-10-04T07:46:36Z</time>
      </trkpt>
      <trkpt lat="38.3094200" lon="-0.7341800">
        <ele>267.7</ele>
        <time>2018-10-04T07:46:37Z</time>
      </trkpt>
      <trkpt lat="38.3094340" lon="-0.7341610">
        <ele>268.1</ele>
        <time>2018-10-04T07:46:38Z</time>
      </trkpt>
      <trkpt lat="38.3094490" lon="-0.7341400">
        <ele>268.5</ele>
        <time>2018-10-04T07:46:39Z</time>
      </trkpt>
      <trkpt lat="38.3094630" lon="-0.7341190">
        <ele>268.9</ele>
        <time>2018-10-04T07:46:40Z</time>
      </trkpt>
      <trkpt lat="38.3094770" lon="-0.7340980">
        <ele>269.2</ele>
        <time>2018-10-04T07:46:41Z</time>
      </trkpt>
      <trkpt lat="38.3094920" lon="-0.7340790">
        <ele>269.7</ele>
        <time>2018-10-04T07:46:42Z</time>
      </trkpt>
      <trkpt lat="38.3095080" lon="-0.7340600">
        <ele>270.2</ele>
        <time>2018-10-04T07:46:43Z</time>
      </trkpt>
      <trkpt lat="38.3095250" lon="-0.7340420">
        <ele>270.7</ele>
        <time>2018-10-04T07:46:44Z</time>
      </trkpt>
      <trkpt lat="38.3095440" lon="-0.7340240">
        <ele>271.2</ele>
        <time>2018-10-04T07:46:45Z</time>
      </trkpt>
      <trkpt lat="38.3095620" lon="-0.7340070">
        <ele>271.6</ele>
        <time>2018-10-04T07:46:46Z</time>
      </trkpt>
      <trkpt lat="38.3095810" lon="-0.7339910">
        <ele>272.0</ele>
        <time>2018-10-04T07:46:47Z</time>
      </trkpt>
      <trkpt lat="38.3096020" lon="-0.7339780">
        <ele>272.4</ele>
        <time>2018-10-04T07:46:48Z</time>
      </trkpt>
      <trkpt lat="38.3096230" lon="-0.7339640">
        <ele>272.8</ele>
        <time>2018-10-04T07:46:49Z</time>
      </trkpt>
      <trkpt lat="38.3096450" lon="-0.7339510">
        <ele>273.2</ele>
        <time>2018-10-04T07:46:50Z</time>
      </trkpt>
      <trkpt lat="38.3096680" lon="-0.7339390">
        <ele>273.7</ele>
        <time>2018-10-04T07:46:51Z</time>
      </trkpt>
      <trkpt lat="38.3096920" lon="-0.7339270">
        <ele>274.0</ele>
        <time>2018-10-04T07:46:52Z</time>
      </trkpt>
      <trkpt lat="38.3097160" lon="-0.7339160">
        <ele>274.4</ele>
        <time>2018-10-04T07:46:53Z</time>
      </trkpt>
      <trkpt lat="38.3097400" lon="-0.7339050">
        <ele>274.8</ele>
        <time>2018-10-04T07:46:54Z</time>
      </trkpt>
      <trkpt lat="38.3097630" lon="-0.7338920">
        <ele>275.1</ele>
        <time>2018-10-04T07:46:55Z</time>
      </trkpt>
      <trkpt lat="38.3097870" lon="-0.7338790">
        <ele>275.4</ele>
        <time>2018-10-04T07:46:56Z</time>
      </trkpt>
      <trkpt lat="38.3098100" lon="-0.7338660">
        <ele>275.7</ele>
        <time>2018-10-04T07:46:57Z</time>
      </trkpt>
      <trkpt lat="38.3098330" lon="-0.7338530">
        <ele>275.9</ele>
        <time>2018-10-04T07:46:58Z</time>
      </trkpt>
      <trkpt lat="38.3098560" lon="-0.7338400">
        <ele>276.1</ele>
        <time>2018-10-04T07:46:59Z</time>
      </trkpt>
      <trkpt lat="38.3098780" lon="-0.7338240">
        <ele>276.2</ele>
        <time>2018-10-04T07:47:00Z</time>
      </trkpt>
      <trkpt lat="38.3099020" lon="-0.7338070">
        <ele>276.4</ele>
        <time>2018-10-04T07:47:01Z</time>
      </trkpt>
      <trkpt lat="38.3099270" lon="-0.7337910">
        <ele>276.5</ele>
        <time>2018-10-04T07:47:02Z</time>
      </trkpt>
      <trkpt lat="38.3099520" lon="-0.7337730">
        <ele>276.6</ele>
        <time>2018-10-04T07:47:03Z</time>
      </trkpt>
      <trkpt lat="38.3099760" lon="-0.7337530">
        <ele>276.7</ele>
        <time>2018-10-04T07:47:04Z</time>
      </trkpt>
      <trkpt lat="38.3100020" lon="-0.7337340">
        <ele>276.8</ele>
        <time>2018-10-04T07:47:05Z</time>
      </trkpt>
      <trkpt lat="38.3100310" lon="-0.7337140">
        <ele>276.9</ele>
        <time>2018-10-04T07:47:06Z</time>
      </trkpt>
      <trkpt lat="38.3100620" lon="-0.7336910">
        <ele>277.0</ele>
        <time>2018-10-04T07:47:07Z</time>
      </trkpt>
      <trkpt lat="38.3100970" lon="-0.7336680">
        <ele>277.0</ele>
        <time>2018-10-04T07:47:08Z</time>
      </trkpt>
      <trkpt lat="38.3101340" lon="-0.7336470">
        <ele>276.9</ele>
        <time>2018-10-04T07:47:09Z</time>
      </trkpt>
      <trkpt lat="38.3101750" lon="-0.7336330">
        <ele>276.9</ele>
        <time>2018-10-04T07:47:10Z</time>
      </trkpt>
      <trkpt lat="38.3102200" lon="-0.7336290">
        <ele>276.8</ele>
        <time>2018-10-04T07:47:11Z</time>
      </trkpt>
      <trkpt lat="38.3102690" lon="-0.7336330">
        <ele>276.7</ele>
        <time>2018-10-04T07:47:12Z</time>
      </trkpt>
      <trkpt lat="38.3103200" lon="-0.7336470">
        <ele>276.6</ele>
        <time>2018-10-04T07:47:13Z</time>
      </trkpt>
      <trkpt lat="38.3103710" lon="-0.7336670">
        <ele>276.6</ele>
        <time>2018-10-04T07:47:14Z</time>
      </trkpt>
      <trkpt lat="38.3104220" lon="-0.7336890">
        <ele>276.5</ele>
        <time>2018-10-04T07:47:15Z</time>
      </trkpt>
      <trkpt lat="38.3104710" lon="-0.7337170">
        <ele>276.4</ele>
        <time>2018-10-04T07:47:16Z</time>
      </trkpt>
      <trkpt lat="38.3105220" lon="-0.7337440">
        <ele>276.3</ele>
        <time>2018-10-04T07:47:17Z</time>
      </trkpt>
      <trkpt lat="38.3105730" lon="-0.7337730">
        <ele>276.1</ele>
        <time>2018-10-04T07:47:18Z</time>
      </trkpt>
      <trkpt lat="38.3106260" lon="-0.7337970">
        <ele>276.0</ele>
        <time>2018-10-04T07:47:19Z</time>
      </trkpt>
      <trkpt lat="38.3106810" lon="-0.7338160">
        <ele>275.9</ele>
        <time>2018-10-04T07:47:20Z</time>
      </trkpt>
      <trkpt lat="38.3107360" lon="-0.7338290">
        <ele>275.8</ele>
        <time>2018-10-04T07:47:21Z</time>
      </trkpt>
      <trkpt lat="38.3107910" lon="-0.7338430">
        <ele>275.8</ele>
        <time>2018-10-04T07:47:22Z</time>
      </trkpt>
      <trkpt lat="38.3108470" lon="-0.7338540">
        <ele>275.7</ele>
        <time>2018-10-04T07:47:23Z</time>
      </trkpt>
      <trkpt lat="38.3109030" lon="-0.7338590">
        <ele>275.6</ele>
        <time>2018-10-04T07:47:24Z</time>
      </trkpt>
      <trkpt lat="38.3109590" lon="-0.7338660">
        <ele>275.5</ele>
        <time>2018-10-04T07:47:25Z</time>
      </trkpt>
      <trkpt lat="38.3110150" lon="-0.7338690">
        <ele>275.4</ele>
        <time>2018-10-04T07:47:26Z</time>
      </trkpt>
      <trkpt lat="38.3110730" lon="-0.7338710">
        <ele>275.3</ele>
        <time>2018-10-04T07:47:27Z</time>
      </trkpt>
      <trkpt lat="38.3111300" lon="-0.7338760">
        <ele>275.2</ele>
        <time>2018-10-04T07:47:28Z</time>
      </trkpt>
      <trkpt lat="38.3111890" lon="-0.7338860">
        <ele>275.1</ele>
        <time>2018-10-04T07:47:29Z</time>
      </trkpt>
      <trkpt lat="38.3112460" lon="-0.7339040">
        <ele>275.1</ele>
        <time>2018-10-04T07:47:30Z</time>
      </trkpt>
      <trkpt lat="38.3113040" lon="-0.7339240">
        <ele>275.0</ele>
        <time>2018-10-04T07:47:31Z</time>
      </trkpt>
      <trkpt lat="38.3113610" lon="-0.7339510">
        <ele>275.0</ele>
        <time>2018-10-04T07:47:32Z</time>
      </trkpt>
      <trkpt lat="38.3114180" lon="-0.7339770">
        <ele>274.9</ele>
        <time>2018-10-04T07:47:33Z</time>
      </trkpt>
      <trkpt lat="38.3114750" lon="-0.7340050">
        <ele>274.9</ele>
        <time>2018-10-04T07:47:34Z</time>
      </trkpt>
      <trkpt lat="38.3115320" lon="-0.7340330">
        <ele>274.8</ele>
        <time>2018-10-04T07:47:35Z</time>
      </trkpt>
      <trkpt lat="38.3115890" lon="-0.7340630">
        <ele>274.8</ele>
        <time>2018-10-04T07:47:36Z</time>
      </trkpt>
      <trkpt lat="38.3116460" lon="-0.7340920">
        <ele>274.7</ele>
        <time>2018-10-04T07:47:37Z</time>
      </trkpt>
      <trkpt lat="38.3117030" lon="-0.7341170">
        <ele>274.7</ele>
        <time>2018-10-04T07:47:38Z</time>
      </trkpt>
      <trkpt lat="38.3117600" lon="-0.7341410">
        <ele>274.6</ele>
        <time>2018-10-04T07:47:39Z</time>
      </trkpt>
      <trkpt lat="38.3118190" lon="-0.7341610">
        <ele>274.6</ele>
        <time>2018-10-04T07:47:40Z</time>
      </trkpt>
      <trkpt lat="38.3118780" lon="-0.7341760">
        <ele>274.5</ele>
        <time>2018-10-04T07:47:41Z</time>
      </trkpt>
      <trkpt lat="38.3119380" lon="-0.7341830">
        <ele>274.5</ele>
        <time>2018-10-04T07:47:42Z</time>
      </trkpt>
      <trkpt lat="38.3120000" lon="-0.7341800">
        <ele>274.5</ele>
        <time>2018-10-04T07:47:43Z</time>
      </trkpt>
      <trkpt lat="38.3120610" lon="-0.7341750">
        <ele>274.4</ele>
        <time>2018-10-04T07:47:44Z</time>
      </trkpt>
      <trkpt lat="38.3121200" lon="-0.7341710">
        <ele>274.3</ele>
        <time>2018-10-04T07:47:45Z</time>
      </trkpt>
      <trkpt lat="38.3121790" lon="-0.7341710">
        <ele>274.2</ele>
        <time>2018-10-04T07:47:46Z</time>
      </trkpt>
      <trkpt lat="38.3122390" lon="-0.7341740">
        <ele>274.1</ele>
        <time>2018-10-04T07:47:47Z</time>
      </trkpt>
      <trkpt lat="38.3122980" lon="-0.7341850">
        <ele>273.9</ele>
        <time>2018-10-04T07:47:48Z</time>
      </trkpt>
      <trkpt lat="38.3123550" lon="-0.7342060">
        <ele>273.8</ele>
        <time>2018-10-04T07:47:49Z</time>
      </trkpt>
      <trkpt lat="38.3124100" lon="-0.7342380">
        <ele>273.6</ele>
        <time>2018-10-04T07:47:50Z</time>
      </trkpt>
      <trkpt lat="38.3124600" lon="-0.7342790">
        <ele>273.5</ele>
        <time>2018-10-04T07:47:51Z</time>
      </trkpt>
      <trkpt lat="38.3125050" lon="-0.7343300">
        <ele>273.3</ele>
        <time>2018-10-04T07:47:52Z</time>
      </trkpt>
      <trkpt lat="38.3125460" lon="-0.7343880">
        <ele>273.1</ele>
        <time>2018-10-04T07:47:53Z</time>
      </trkpt>
      <trkpt lat="38.3125850" lon="-0.7344480">
        <ele>272.9</ele>
        <time>2018-10-04T07:47:54Z</time>
      </trkpt>
      <trkpt lat="38.3126240" lon="-0.7345100">
        <ele>272.8</ele>
        <time>2018-10-04T07:47:55Z</time>
      </trkpt>
      <trkpt lat="38.3126690" lon="-0.7345690">
        <ele>272.6</ele>
        <time>2018-10-04T07:47:56Z</time>
      </trkpt>
      <trkpt lat="38.3127170" lon="-0.7346250">
        <ele>272.5</ele>
        <time>2018-10-04T07:47:57Z</time>
      </trkpt>
      <trkpt lat="38.3127680" lon="-0.7346770">
        <ele>272.3</ele>
        <time>2018-10-04T07:47:58Z</time>
      </trkpt>
      <trkpt lat="38.3128230" lon="-0.7347200">
        <ele>272.1</ele>
        <time>2018-10-04T07:47:59Z</time>
      </trkpt>
      <trkpt lat="38.3128820" lon="-0.7347530">
        <ele>271.9</ele>
        <time>2018-10-04T07:48:00Z</time>
      </trkpt>
      <trkpt lat="38.3129460" lon="-0.7347660">
        <ele>271.6</ele>
        <time>2018-10-04T07:48:01Z</time>
      </trkpt>
      <trkpt lat="38.3130130" lon="-0.7347710">
        <ele>271.2</ele>
        <time>2018-10-04T07:48:02Z</time>
      </trkpt>
      <trkpt lat="38.3130790" lon="-0.7347730">
        <ele>271.0</ele>
        <time>2018-10-04T07:48:03Z</time>
      </trkpt>
      <trkpt lat="38.3131430" lon="-0.7347700">
        <ele>270.4</ele>
        <time>2018-10-04T07:48:04Z</time>
      </trkpt>
      <trkpt lat="38.3132090" lon="-0.7347670">
        <ele>269.9</ele>
        <time>2018-10-04T07:48:05Z</time>
      </trkpt>
      <trkpt lat="38.3132770" lon="-0.7347680">
        <ele>269.2</ele>
        <time>2018-10-04T07:48:06Z</time>
      </trkpt>
      <trkpt lat="38.3133450" lon="-0.7347780">
        <ele>268.7</ele>
        <time>2018-10-04T07:48:07Z</time>
      </trkpt>
      <trkpt lat="38.3134110" lon="-0.7348040">
        <ele>268.3</ele>
        <time>2018-10-04T07:48:08Z</time>
      </trkpt>
      <trkpt lat="38.3134700" lon="-0.7348500">
        <ele>267.8</ele>
        <time>2018-10-04T07:48:09Z</time>
      </trkpt>
      <trkpt lat="38.3135270" lon="-0.7349110">
        <ele>267.4</ele>
        <time>2018-10-04T07:48:10Z</time>
      </trkpt>
      <trkpt lat="38.3135770" lon="-0.7349810">
        <ele>266.7</ele>
        <time>2018-10-04T07:48:11Z</time>
      </trkpt>
      <trkpt lat="38.3136300" lon="-0.7350560">
        <ele>266.2</ele>
        <time>2018-10-04T07:48:12Z</time>
      </trkpt>
      <trkpt lat="38.3136910" lon="-0.7351190">
        <ele>265.5</ele>
        <time>2018-10-04T07:48:13Z</time>
      </trkpt>
      <trkpt lat="38.3137490" lon="-0.7351790">
        <ele>265.1</ele>
        <time>2018-10-04T07:48:14Z</time>
      </trkpt>
      <trkpt lat="38.3138120" lon="-0.7352380">
        <ele>264.7</ele>
        <time>2018-10-04T07:48:15Z</time>
      </trkpt>
      <trkpt lat="38.3138780" lon="-0.7352960">
        <ele>264.0</ele>
        <time>2018-10-04T07:48:16Z</time>
      </trkpt>
      <trkpt lat="38.3139450" lon="-0.7353530">
        <ele>263.6</ele>
        <time>2018-10-04T07:48:17Z</time>
      </trkpt>
      <trkpt lat="38.3140120" lon="-0.7354120">
        <ele>262.8</ele>
        <time>2018-10-04T07:48:18Z</time>
      </trkpt>
      <trkpt lat="38.3140820" lon="-0.7354700">
        <ele>262.3</ele>
        <time>2018-10-04T07:48:19Z</time>
      </trkpt>
      <trkpt lat="38.3141550" lon="-0.7355280">
        <ele>261.8</ele>
        <time>2018-10-04T07:48:20Z</time>
      </trkpt>
      <trkpt lat="38.3142270" lon="-0.7355860">
        <ele>261.1</ele>
        <time>2018-10-04T07:48:21Z</time>
      </trkpt>
      <trkpt lat="38.3142960" lon="-0.7356520">
        <ele>260.6</ele>
        <time>2018-10-04T07:48:22Z</time>
      </trkpt>
      <trkpt lat="38.3143600" lon="-0.7357310">
        <ele>259.9</ele>
        <time>2018-10-04T07:48:23Z</time>
      </trkpt>
      <trkpt lat="38.3144230" lon="-0.7358090">
        <ele>259.2</ele>
        <time>2018-10-04T07:48:24Z</time>
      </trkpt>
      <trkpt lat="38.3144870" lon="-0.7358880">
        <ele>258.7</ele>
        <time>2018-10-04T07:48:25Z</time>
      </trkpt>
      <trkpt lat="38.3145500" lon="-0.7359660">
        <ele>258.3</ele>
        <time>2018-10-04T07:48:26Z</time>
      </trkpt>
      <trkpt lat="38.3146140" lon="-0.7360430">
        <ele>257.7</ele>
        <time>2018-10-04T07:48:27Z</time>
      </trkpt>
      <trkpt lat="38.3146760" lon="-0.7361250">
        <ele>256.8</ele>
        <time>2018-10-04T07:48:28Z</time>
      </trkpt>
      <trkpt lat="38.3147400" lon="-0.7362070">
        <ele>256.2</ele>
        <time>2018-10-04T07:48:29Z</time>
      </trkpt>
      <trkpt lat="38.3148010" lon="-0.7362920">
        <ele>255.5</ele>
        <time>2018-10-04T07:48:30Z</time>
      </trkpt>
      <trkpt lat="38.3148650" lon="-0.7363760">
        <ele>254.6</ele>
        <time>2018-10-04T07:48:31Z</time>
      </trkpt>
      <trkpt lat="38.3149300" lon="-0.7364600">
        <ele>254.0</ele>
        <time>2018-10-04T07:48:32Z</time>
      </trkpt>
      <trkpt lat="38.3149970" lon="-0.7365430">
        <ele>253.1</ele>
        <time>2018-10-04T07:48:33Z</time>
      </trkpt>
      <trkpt lat="38.3150640" lon="-0.7366270">
        <ele>252.2</ele>
        <time>2018-10-04T07:48:34Z</time>
      </trkpt>
      <trkpt lat="38.3151300" lon="-0.7367140">
        <ele>251.5</ele>
        <time>2018-10-04T07:48:35Z</time>
      </trkpt>
      <trkpt lat="38.3151930" lon="-0.7368060">
        <ele>250.8</ele>
        <time>2018-10-04T07:48:36Z</time>
      </trkpt>
      <trkpt lat="38.3152520" lon="-0.7369040">
        <ele>249.7</ele>
        <time>2018-10-04T07:48:37Z</time>
      </trkpt>
      <trkpt lat="38.3153030" lon="-0.7370100">
        <ele>248.7</ele>
        <time>2018-10-04T07:48:38Z</time>
      </trkpt>
      <trkpt lat="38.3153630" lon="-0.7371180">
        <ele>247.4</ele>
        <time>2018-10-04T07:48:39Z</time>
      </trkpt>
      <trkpt lat="38.3154220" lon="-0.7372290">
        <ele>246.7</ele>
        <time>2018-10-04T07:48:40Z</time>
      </trkpt>
      <trkpt lat="38.3154820" lon="-0.7373440">
        <ele>246.3</ele>
        <time>2018-10-04T07:48:41Z</time>
      </trkpt>
      <trkpt lat="38.3155400" lon="-0.7374640">
        <ele>246.2</ele>
        <time>2018-10-04T07:48:42Z</time>
      </trkpt>
      <trkpt lat="38.3155980" lon="-0.7375830">
        <ele>246.1</ele>
        <time>2018-10-04T07:48:43Z</time>
      </trkpt>
      <trkpt lat="38.3156570" lon="-0.7376970">
        <ele>246.0</ele>
        <time>2018-10-04T07:48:44Z</time>
      </trkpt>
      <trkpt lat="38.3157160" lon="-0.7378030">
        <ele>245.9</ele>
        <time>2018-10-04T07:48:45Z</time>
      </trkpt>
      <trkpt lat="38.3157710" lon="-0.7379060">
        <ele>245.8</ele>
        <time>2018-10-04T07:48:46Z</time>
      </trkpt>
      <trkpt lat="38.3158230" lon="-0.7380050">
        <ele>245.9</ele>
        <time>2018-10-04T07:48:47Z</time>
      </trkpt>
      <trkpt lat="38.3158750" lon="-0.7380970">
        <ele>245.9</ele>
        <time>2018-10-04T07:48:48Z</time>
      </trkpt>
      <trkpt lat="38.3159230" lon="-0.7381860">
        <ele>246.0</ele>
        <time>2018-10-04T07:48:49Z</time>
      </trkpt>
      <trkpt lat="38.3159580" lon="-0.7382740">
        <ele>247.7</ele>
        <time>2018-10-04T07:48:50Z</time>
      </trkpt>
      <trkpt lat="38.3159960" lon="-0.7383540">
        <ele>249.6</ele>
        <time>2018-10-04T07:48:51Z</time>
      </trkpt>
      <trkpt lat="38.3160350" lon="-0.7384230">
        <ele>251.3</ele>
        <time>2018-10-04T07:48:52Z</time>
      </trkpt>
      <trkpt lat="38.3160730" lon="-0.7384880">
        <ele>252.9</ele>
        <time>2018-10-04T07:48:53Z</time>
      </trkpt>
      <trkpt lat="38.3161110" lon="-0.7385420">
        <ele>254.4</ele>
        <time>2018-10-04T07:48:54Z</time>
      </trkpt>
      <trkpt lat="38.3161510" lon="-0.7385740">
        <ele>255.6</ele>
        <time>2018-10-04T07:48:55Z</time>
      </trkpt>
      <trkpt lat="38.3161840" lon="-0.7385780">
        <ele>256.5</ele>
        <time>2018-10-04T07:48:56Z</time>
      </trkpt>
      <trkpt lat="38.3162020" lon="-0.7385620">
        <ele>257.0</ele>
        <time>2018-10-04T07:48:57Z</time>
      </trkpt>
      <trkpt lat="38.3162200" lon="-0.7385230">
        <ele>257.9</ele>
        <time>2018-10-04T07:48:58Z</time>
      </trkpt>
      <trkpt lat="38.3162310" lon="-0.7384660">
        <ele>255.2</ele>
        <time>2018-10-04T07:48:59Z</time>
      </trkpt>
      <trkpt lat="38.3162430" lon="-0.7383960">
        <ele>253.5</ele>
        <time>2018-10-04T07:49:00Z</time>
      </trkpt>
      <trkpt lat="38.3162670" lon="-0.7383140">
        <ele>251.4</ele>
        <time>2018-10-04T07:49:01Z</time>
      </trkpt>
      <trkpt lat="38.3162960" lon="-0.7382210">
        <ele>249.5</ele>
        <time>2018-10-04T07:49:02Z</time>
      </trkpt>
      <trkpt lat="38.3163280" lon="-0.7381170">
        <ele>247.4</ele>
        <time>2018-10-04T07:49:03Z</time>
      </trkpt>
      <trkpt lat="38.3163600" lon="-0.7380030">
        <ele>245.0</ele>
        <time>2018-10-04T07:49:04Z</time>
      </trkpt>
      <trkpt lat="38.3163900" lon="-0.7378800">
        <ele>242.3</ele>
        <time>2018-10-04T07:49:05Z</time>
      </trkpt>
      <trkpt lat="38.3164210" lon="-0.7377520">
        <ele>240.6</ele>
        <time>2018-10-04T07:49:06Z</time>
      </trkpt>
      <trkpt lat="38.3164540" lon="-0.7376210">
        <ele>237.8</ele>
        <time>2018-10-04T07:49:07Z</time>
      </trkpt>
      <trkpt lat="38.3164900" lon="-0.7374870">
        <ele>236.1</ele>
        <time>2018-10-04T07:49:08Z</time>
      </trkpt>
      <trkpt lat="38.3165280" lon="-0.7373510">
        <ele>233.1</ele>
        <time>2018-10-04T07:49:09Z</time>
      </trkpt>
      <trkpt lat="38.3165660" lon="-0.7372240">
        <ele>230.8</ele>
        <time>2018-10-04T07:49:10Z</time>
      </trkpt>
      <trkpt lat="38.3166030" lon="-0.7371120">
        <ele>229.2</ele>
        <time>2018-10-04T07:49:11Z</time>
      </trkpt>
      <trkpt lat="38.3166380" lon="-0.7370110">
        <ele>227.9</ele>
        <time>2018-10-04T07:49:12Z</time>
      </trkpt>
      <trkpt lat="38.3166710" lon="-0.7369230">
        <ele>226.4</ele>
        <time>2018-10-04T07:49:13Z</time>
      </trkpt>
      <trkpt lat="38.3167200" lon="-0.7368550">
        <ele>225.2</ele>
        <time>2018-10-04T07:49:14Z</time>
      </trkpt>
      <trkpt lat="38.3167830" lon="-0.7368110">
        <ele>224.5</ele>
        <time>2018-10-04T07:49:15Z</time>
      </trkpt>
      <trkpt lat="38.3168540" lon="-0.7367900">
        <ele>224.1</ele>
        <time>2018-10-04T07:49:16Z</time>
      </trkpt>
      <trkpt lat="38.3169270" lon="-0.7367880">
        <ele>223.6</ele>
        <time>2018-10-04T07:49:17Z</time>
      </trkpt>
      <trkpt lat="38.3169990" lon="-0.7367960">
        <ele>223.1</ele>
        <time>2018-10-04T07:49:18Z</time>
      </trkpt>
      <trkpt lat="38.3170710" lon="-0.7368060">
        <ele>222.6</ele>
        <time>2018-10-04T07:49:19Z</time>
      </trkpt>
      <trkpt lat="38.3171430" lon="-0.7368150">
        <ele>222.3</ele>
        <time>2018-10-04T07:49:20Z</time>
      </trkpt>
      <trkpt lat="38.3172160" lon="-0.7368170">
        <ele>221.5</ele>
        <time>2018-10-04T07:49:21Z</time>
      </trkpt>
      <trkpt lat="38.3172910" lon="-0.7368140">
        <ele>221.0</ele>
        <time>2018-10-04T07:49:22Z</time>
      </trkpt>
      <trkpt lat="38.3173650" lon="-0.7368020">
        <ele>220.4</ele>
        <time>2018-10-04T07:49:23Z</time>
      </trkpt>
      <trkpt lat="38.3174260" lon="-0.7367910">
        <ele>220.1</ele>
        <time>2018-10-04T07:49:24Z</time>
      </trkpt>
      <trkpt lat="38.3174840" lon="-0.7367800">
        <ele>220.0</ele>
        <time>2018-10-04T07:49:25Z</time>
      </trkpt>
      <trkpt lat="38.3175410" lon="-0.7367640">
        <ele>219.5</ele>
        <time>2018-10-04T07:49:26Z</time>
      </trkpt>
      <trkpt lat="38.3176000" lon="-0.7367470">
        <ele>219.3</ele>
        <time>2018-10-04T07:49:27Z</time>
      </trkpt>
      <trkpt lat="38.3176620" lon="-0.7367280">
        <ele>219.2</ele>
        <time>2018-10-04T07:49:28Z</time>
      </trkpt>
      <trkpt lat="38.3177250" lon="-0.7367090">
        <ele>218.8</ele>
        <time>2018-10-04T07:49:29Z</time>
      </trkpt>
      <trkpt lat="38.3177890" lon="-0.7366900">
        <ele>218.6</ele>
        <time>2018-10-04T07:49:30Z</time>
      </trkpt>
      <trkpt lat="38.3178360" lon="-0.7366810">
        <ele>218.3</ele>
        <time>2018-10-04T07:49:31Z</time>
      </trkpt>
      <trkpt lat="38.3178770" lon="-0.7366760">
        <ele>218.1</ele>
        <time>2018-10-04T07:49:32Z</time>
      </trkpt>
      <trkpt lat="38.3179010" lon="-0.7366660">
        <ele>218.0</ele>
        <time>2018-10-04T07:49:33Z</time>
      </trkpt>
      <trkpt lat="38.3179180" lon="-0.7366510">
        <ele>218.0</ele>
        <time>2018-10-04T07:49:34Z</time>
      </trkpt>
      <trkpt lat="38.3179390" lon="-0.7366280">
        <ele>217.7</ele>
        <time>2018-10-04T07:49:35Z</time>
      </trkpt>
      <trkpt lat="38.3179680" lon="-0.7366190">
        <ele>217.5</ele>
        <time>2018-10-04T07:49:36Z</time>
      </trkpt>
      <trkpt lat="38.3179950" lon="-0.7366110">
        <ele>217.3</ele>
        <time>2018-10-04T07:49:37Z</time>
      </trkpt>
      <trkpt lat="38.3180200" lon="-0.7366120">
        <ele>217.4</ele>
        <time>2018-10-04T07:49:38Z</time>
      </trkpt>
      <trkpt lat="38.3180430" lon="-0.7366170">
        <ele>217.1</ele>
        <time>2018-10-04T07:49:39Z</time>
      </trkpt>
      <trkpt lat="38.3180610" lon="-0.7366170">
        <ele>216.9</ele>
        <time>2018-10-04T07:49:40Z</time>
      </trkpt>
      <trkpt lat="38.3180670" lon="-0.7366180">
        <ele>216.9</ele>
        <time>2018-10-04T07:49:41Z</time>
      </trkpt>
      <trkpt lat="38.3180670" lon="-0.7366210">
        <ele>217.0</ele>
        <time>2018-10-04T07:49:42Z</time>
      </trkpt>
      <trkpt lat="38.3180690" lon="-0.7366160">
        <ele>217.1</ele>
        <time>2018-10-04T07:49:43Z</time>
      </trkpt>
      <trkpt lat="38.3180750" lon="-0.7366120">
        <ele>217.2</ele>
        <time>2018-10-04T07:49:44Z</time>
      </trkpt>
      <trkpt lat="38.3180870" lon="-0.7366060">
        <ele>217.3</ele>
        <time>2018-10-04T07:49:45Z</time>
      </trkpt>
      <trkpt lat="38.3181010" lon="-0.7366080">
        <ele>217.0</ele>
        <time>2018-10-04T07:49:46Z</time>
      </trkpt>
      <trkpt lat="38.3181110" lon="-0.7366150">
        <ele>217.0</ele>
        <time>2018-10-04T07:49:47Z</time>
      </trkpt>
      <trkpt lat="38.3181180" lon="-0.7366250">
        <ele>217.1</ele>
        <time>2018-10-04T07:49:48Z</time>
      </trkpt>
      <trkpt lat="38.3181230" lon="-0.7366350">
        <ele>217.2</ele>
        <time>2018-10-04T07:49:49Z</time>
      </trkpt>
      <trkpt lat="38.3181290" lon="-0.7366460">
        <ele>217.0</ele>
        <time>2018-10-04T07:49:50Z</time>
      </trkpt>
      <trkpt lat="38.3181380" lon="-0.7366550">
        <ele>217.1</ele>
        <time>2018-10-04T07:49:51Z</time>
      </trkpt>
      <trkpt lat="38.3181480" lon="-0.7366660">
        <ele>217.1</ele>
        <time>2018-10-04T07:49:52Z</time>
      </trkpt>
      <trkpt lat="38.3181530" lon="-0.7366720">
        <ele>217.2</ele>
        <time>2018-10-04T07:49:53Z</time>
      </trkpt>
      <trkpt lat="38.3181580" lon="-0.7366810">
        <ele>217.0</ele>
        <time>2018-10-04T07:49:54Z</time>
      </trkpt>
      <trkpt lat="38.3181670" lon="-0.7366870">
        <ele>217.1</ele>
        <time>2018-10-04T07:49:55Z</time>
      </trkpt>
      <trkpt lat="38.3181750" lon="-0.7366960">
        <ele>217.2</ele>
        <time>2018-10-04T07:49:56Z</time>
      </trkpt>
      <trkpt lat="38.3181830" lon="-0.7367000">
        <ele>217.3</ele>
        <time>2018-10-04T07:49:57Z</time>
      </trkpt>
      <trkpt lat="38.3181920" lon="-0.7367030">
        <ele>217.2</ele>
        <time>2018-10-04T07:49:58Z</time>
      </trkpt>
      <trkpt lat="38.3181990" lon="-0.7367050">
        <ele>217.2</ele>
        <time>2018-10-04T07:49:59Z</time>
      </trkpt>
      <trkpt lat="38.3182060" lon="-0.7367110">
        <ele>217.1</ele>
        <time>2018-10-04T07:50:00Z</time>
      </trkpt>
      <trkpt lat="38.3182140" lon="-0.7367190">
        <ele>217.0</ele>
        <time>2018-10-04T07:50:01Z</time>
      </trkpt>
      <trkpt lat="38.3182200" lon="-0.7367250">
        <ele>217.0</ele>
        <time>2018-10-04T07:50:02Z</time>
      </trkpt>
      <trkpt lat="38.3182250" lon="-0.7367280">
        <ele>216.9</ele>
        <time>2018-10-04T07:50:03Z</time>
      </trkpt>
      <trkpt lat="38.3182320" lon="-0.7367290">
        <ele>216.9</ele>
        <time>2018-10-04T07:50:04Z</time>
      </trkpt>
      <trkpt lat="38.3182400" lon="-0.7367300">
        <ele>216.8</ele>
        <time>2018-10-04T07:50:05Z</time>
      </trkpt>
      <trkpt lat="38.3182510" lon="-0.7367270">
        <ele>216.8</ele>
        <time>2018-10-04T07:50:06Z</time>
      </trkpt>
      <trkpt lat="38.3182700" lon="-0.7367210">
        <ele>216.7</ele>
        <time>2018-10-04T07:50:07Z</time>
      </trkpt>
      <trkpt lat="38.3182950" lon="-0.7367140">
        <ele>216.6</ele>
        <time>2018-10-04T07:50:08Z</time>
      </trkpt>
      <trkpt lat="38.3183270" lon="-0.7367000">
        <ele>216.5</ele>
        <time>2018-10-04T07:50:09Z</time>
      </trkpt>
      <trkpt lat="38.3183630" lon="-0.7366760">
        <ele>216.3</ele>
        <time>2018-10-04T07:50:10Z</time>
      </trkpt>
      <trkpt lat="38.3184010" lon="-0.7366430">
        <ele>216.2</ele>
        <time>2018-10-04T07:50:11Z</time>
      </trkpt>
      <trkpt lat="38.3184390" lon="-0.7366040">
        <ele>216.0</ele>
        <time>2018-10-04T07:50:12Z</time>
      </trkpt>
      <trkpt lat="38.3184740" lon="-0.7365570">
        <ele>215.9</ele>
        <time>2018-10-04T07:50:13Z</time>
      </trkpt>
      <trkpt lat="38.3185070" lon="-0.7365070">
        <ele>215.8</ele>
        <time>2018-10-04T07:50:14Z</time>
      </trkpt>
      <trkpt lat="38.3185350" lon="-0.7364520">
        <ele>215.6</ele>
        <time>2018-10-04T07:50:15Z</time>
      </trkpt>
      <trkpt lat="38.3185570" lon="-0.7363920">
        <ele>215.4</ele>
        <time>2018-10-04T07:50:16Z</time>
      </trkpt>
      <trkpt lat="38.3185800" lon="-0.7363320">
        <ele>215.3</ele>
        <time>2018-10-04T07:50:17Z</time>
      </trkpt>
      <trkpt lat="38.3186060" lon="-0.7362720">
        <ele>215.1</ele>
        <time>2018-10-04T07:50:18Z</time>
      </trkpt>
      <trkpt lat="38.3186330" lon="-0.7362120">
        <ele>215.0</ele>
        <time>2018-10-04T07:50:19Z</time>
      </trkpt>
      <trkpt lat="38.3186660" lon="-0.7361560">
        <ele>214.8</ele>
        <time>2018-10-04T07:50:20Z</time>
      </trkpt>
      <trkpt lat="38.3187100" lon="-0.7361130">
        <ele>214.6</ele>
        <time>2018-10-04T07:50:21Z</time>
      </trkpt>
      <trkpt lat="38.3187620" lon="-0.7360850">
        <ele>214.4</ele>
        <time>2018-10-04T07:50:22Z</time>
      </trkpt>
      <trkpt lat="38.3188180" lon="-0.7360780">
        <ele>214.3</ele>
        <time>2018-10-04T07:50:23Z</time>
      </trkpt>
      <trkpt lat="38.3188740" lon="-0.7360750">
        <ele>214.1</ele>
        <time>2018-10-04T07:50:24Z</time>
      </trkpt>
      <trkpt lat="38.3189300" lon="-0.7360760">
        <ele>213.9</ele>
        <time>2018-10-04T07:50:25Z</time>
      </trkpt>
      <trkpt lat="38.3189890" lon="-0.7360710">
        <ele>213.5</ele>
        <time>2018-10-04T07:50:26Z</time>
      </trkpt>
      <trkpt lat="38.3190430" lon="-0.7360510">
        <ele>213.1</ele>
        <time>2018-10-04T07:50:27Z</time>
      </trkpt>
      <trkpt lat="38.3190980" lon="-0.7360060">
        <ele>212.7</ele>
        <time>2018-10-04T07:50:28Z</time>
      </trkpt>
      <trkpt lat="38.3191420" lon="-0.7359420">
        <ele>212.1</ele>
        <time>2018-10-04T07:50:29Z</time>
      </trkpt>
      <trkpt lat="38.3191760" lon="-0.7358630">
        <ele>211.4</ele>
        <time>2018-10-04T07:50:30Z</time>
      </trkpt>
      <trkpt lat="38.3192060" lon="-0.7357760">
        <ele>210.6</ele>
        <time>2018-10-04T07:50:31Z</time>
      </trkpt>
      <trkpt lat="38.3192410" lon="-0.7356850">
        <ele>209.8</ele>
        <time>2018-10-04T07:50:32Z</time>
      </trkpt>
      <trkpt lat="38.3192830" lon="-0.7355970">
        <ele>209.0</ele>
        <time>2018-10-04T07:50:33Z</time>
      </trkpt>
      <trkpt lat="38.3193340" lon="-0.7355130">
        <ele>208.0</ele>
        <time>2018-10-04T07:50:34Z</time>
      </trkpt>
      <trkpt lat="38.3193980" lon="-0.7354390">
        <ele>207.3</ele>
        <time>2018-10-04T07:50:35Z</time>
      </trkpt>
      <trkpt lat="38.3194700" lon="-0.7353780">
        <ele>206.5</ele>
        <time>2018-10-04T07:50:36Z</time>
      </trkpt>
      <trkpt lat="38.3195490" lon="-0.7353360">
        <ele>205.5</ele>
        <time>2018-10-04T07:50:37Z</time>
      </trkpt>
      <trkpt lat="38.3196310" lon="-0.7353110">
        <ele>204.7</ele>
        <time>2018-10-04T07:50:38Z</time>
      </trkpt>
      <trkpt lat="38.3197140" lon="-0.7352820">
        <ele>203.7</ele>
        <time>2018-10-04T07:50:39Z</time>
      </trkpt>
      <trkpt lat="38.3197930" lon="-0.7352480">
        <ele>202.9</ele>
        <time>2018-10-04T07:50:40Z</time>
      </trkpt>
      <trkpt lat="38.3198780" lon="-0.7352110">
        <ele>201.7</ele>
        <time>2018-10-04T07:50:41Z</time>
      </trkpt>
      <trkpt lat="38.3199620" lon="-0.7351690">
        <ele>200.4</ele>
        <time>2018-10-04T07:50:42Z</time>
      </trkpt>
      <trkpt lat="38.3200380" lon="-0.7351240">
        <ele>199.5</ele>
        <time>2018-10-04T07:50:43Z</time>
      </trkpt>
      <trkpt lat="38.3201080" lon="-0.7350800">
        <ele>198.2</ele>
        <time>2018-10-04T07:50:44Z</time>
      </trkpt>
      <trkpt lat="38.3201880" lon="-0.7350500">
        <ele>196.9</ele>
        <time>2018-10-04T07:50:45Z</time>
      </trkpt>
      <trkpt lat="38.3202720" lon="-0.7350430">
        <ele>195.6</ele>
        <time>2018-10-04T07:50:46Z</time>
      </trkpt>
      <trkpt lat="38.3203610" lon="-0.7350470">
        <ele>194.0</ele>
        <time>2018-10-04T07:50:47Z</time>
      </trkpt>
      <trkpt lat="38.3204520" lon="-0.7350450">
        <ele>194.0</ele>
        <time>2018-10-04T07:50:48Z</time>
      </trkpt>
      <trkpt lat="38.3205440" lon="-0.7350380">
        <ele>194.0</ele>
        <time>2018-10-04T07:50:49Z</time>
      </trkpt>
      <trkpt lat="38.3206360" lon="-0.7350280">
        <ele>194.0</ele>
        <time>2018-10-04T07:50:50Z</time>
      </trkpt>
      <trkpt lat="38.3207300" lon="-0.7350110">
        <ele>194.0</ele>
        <time>2018-10-04T07:50:51Z</time>
      </trkpt>
      <trkpt lat="38.3208210" lon="-0.7349890">
        <ele>193.4</ele>
        <time>2018-10-04T07:50:52Z</time>
      </trkpt>
      <trkpt lat="38.3209130" lon="-0.7349610">
        <ele>192.9</ele>
        <time>2018-10-04T07:50:53Z</time>
      </trkpt>
      <trkpt lat="38.3210020" lon="-0.7349290">
        <ele>192.0</ele>
        <time>2018-10-04T07:50:54Z</time>
      </trkpt>
      <trkpt lat="38.3210910" lon="-0.7349050">
        <ele>190.6</ele>
        <time>2018-10-04T07:50:55Z</time>
      </trkpt>
      <trkpt lat="38.3211740" lon="-0.7348880">
        <ele>188.7</ele>
        <time>2018-10-04T07:50:56Z</time>
      </trkpt>
      <trkpt lat="38.3212460" lon="-0.7348690">
        <ele>187.1</ele>
        <time>2018-10-04T07:50:57Z</time>
      </trkpt>
      <trkpt lat="38.3213030" lon="-0.7348440">
        <ele>185.9</ele>
        <time>2018-10-04T07:50:58Z</time>
      </trkpt>
      <trkpt lat="38.3213560" lon="-0.7348020">
        <ele>184.4</ele>
        <time>2018-10-04T07:50:59Z</time>
      </trkpt>
      <trkpt lat="38.3214020" lon="-0.7347370">
        <ele>183.0</ele>
        <time>2018-10-04T07:51:00Z</time>
      </trkpt>
      <trkpt lat="38.3214330" lon="-0.7346540">
        <ele>181.7</ele>
        <time>2018-10-04T07:51:01Z</time>
      </trkpt>
      <trkpt lat="38.3214620" lon="-0.7345470">
        <ele>180.7</ele>
        <time>2018-10-04T07:51:02Z</time>
      </trkpt>
      <trkpt lat="38.3214920" lon="-0.7344250">
        <ele>180.0</ele>
        <time>2018-10-04T07:51:03Z</time>
      </trkpt>
      <trkpt lat="38.3215230" lon="-0.7342920">
        <ele>179.7</ele>
        <time>2018-10-04T07:51:04Z</time>
      </trkpt>
      <trkpt lat="38.3215680" lon="-0.7341660">
        <ele>179.8</ele>
        <time>2018-10-04T07:51:05Z</time>
      </trkpt>
      <trkpt lat="38.3216310" lon="-0.7340620">
        <ele>180.0</ele>
        <time>2018-10-04T07:51:06Z</time>
      </trkpt>
      <trkpt lat="38.3216980" lon="-0.7339660">
        <ele>180.6</ele>
        <time>2018-10-04T07:51:07Z</time>
      </trkpt>
      <trkpt lat="38.3217590" lon="-0.7338810">
        <ele>181.4</ele>
        <time>2018-10-04T07:51:08Z</time>
      </trkpt>
      <trkpt lat="38.3218050" lon="-0.7337980">
        <ele>182.3</ele>
        <time>2018-10-04T07:51:09Z</time>
      </trkpt>
      <trkpt lat="38.3218430" lon="-0.7337210">
        <ele>183.1</ele>
        <time>2018-10-04T07:51:10Z</time>
      </trkpt>
      <trkpt lat="38.3218720" lon="-0.7336710">
        <ele>183.7</ele>
        <time>2018-10-04T07:51:11Z</time>
      </trkpt>
      <trkpt lat="38.3218980" lon="-0.7336360">
        <ele>184.2</ele>
        <time>2018-10-04T07:51:12Z</time>
      </trkpt>
      <trkpt lat="38.3219240" lon="-0.7336070">
        <ele>184.6</ele>
        <time>2018-10-04T07:51:13Z</time>
      </trkpt>
      <trkpt lat="38.3219500" lon="-0.7335830">
        <ele>185.1</ele>
        <time>2018-10-04T07:51:14Z</time>
      </trkpt>
      <trkpt lat="38.3219740" lon="-0.7335670">
        <ele>185.3</ele>
        <time>2018-10-04T07:51:15Z</time>
      </trkpt>
      <trkpt lat="38.3219970" lon="-0.7335490">
        <ele>185.5</ele>
        <time>2018-10-04T07:51:16Z</time>
      </trkpt>
      <trkpt lat="38.3220150" lon="-0.7335270">
        <ele>185.7</ele>
        <time>2018-10-04T07:51:17Z</time>
      </trkpt>
      <trkpt lat="38.3220330" lon="-0.7335060">
        <ele>185.9</ele>
        <time>2018-10-04T07:51:18Z</time>
      </trkpt>
      <trkpt lat="38.3220520" lon="-0.7334860">
        <ele>186.1</ele>
        <time>2018-10-04T07:51:19Z</time>
      </trkpt>
      <trkpt lat="38.3220700" lon="-0.7334690">
        <ele>186.3</ele>
        <time>2018-10-04T07:51:20Z</time>
      </trkpt>
      <trkpt lat="38.3220890" lon="-0.7334500">
        <ele>186.5</ele>
        <time>2018-10-04T07:51:21Z</time>
      </trkpt>
      <trkpt lat="38.3221080" lon="-0.7334320">
        <ele>186.7</ele>
        <time>2018-10-04T07:51:22Z</time>
      </trkpt>
      <trkpt lat="38.3221260" lon="-0.7334130">
        <ele>186.9</ele>
        <time>2018-10-04T07:51:23Z</time>
      </trkpt>
      <trkpt lat="38.3221450" lon="-0.7333940">
        <ele>187.1</ele>
        <time>2018-10-04T07:51:24Z</time>
      </trkpt>
      <trkpt lat="38.3221660" lon="-0.7333750">
        <ele>187.4</ele>
        <time>2018-10-04T07:51:25Z</time>
      </trkpt>
      <trkpt lat="38.3221850" lon="-0.7333540">
        <ele>187.5</ele>
        <time>2018-10-04T07:51:26Z</time>
      </trkpt>
      <trkpt lat="38.3222000" lon="-0.7333290">
        <ele>187.7</ele>
        <time>2018-10-04T07:51:27Z</time>
      </trkpt>
      <trkpt lat="38.3222150" lon="-0.7333050">
        <ele>187.9</ele>
        <time>2018-10-04T07:51:28Z</time>
      </trkpt>
      <trkpt lat="38.3222330" lon="-0.7332870">
        <ele>188.0</ele>
        <time>2018-10-04T07:51:29Z</time>
      </trkpt>
      <trkpt lat="38.3222530" lon="-0.7332720">
        <ele>188.2</ele>
        <time>2018-10-04T07:51:30Z</time>
      </trkpt>
      <trkpt lat="38.3222730" lon="-0.7332600">
        <ele>188.4</ele>
        <time>2018-10-04T07:51:31Z</time>
      </trkpt>
      <trkpt lat="38.3222970" lon="-0.7332480">
        <ele>188.7</ele>
        <time>2018-10-04T07:51:32Z</time>
      </trkpt>
      <trkpt lat="38.3223230" lon="-0.7332420">
        <ele>188.9</ele>
        <time>2018-10-04T07:51:33Z</time>
      </trkpt>
      <trkpt lat="38.3223500" lon="-0.7332450">
        <ele>189.0</ele>
        <time>2018-10-04T07:51:34Z</time>
      </trkpt>
      <trkpt lat="38.3223760" lon="-0.7332560">
        <ele>189.2</ele>
        <time>2018-10-04T07:51:35Z</time>
      </trkpt>
      <trkpt lat="38.3223960" lon="-0.7332820">
        <ele>189.4</ele>
        <time>2018-10-04T07:51:36Z</time>
      </trkpt>
      <trkpt lat="38.3224050" lon="-0.7333150">
        <ele>189.6</ele>
        <time>2018-10-04T07:51:37Z</time>
      </trkpt>
      <trkpt lat="38.3224050" lon="-0.7333490">
        <ele>189.7</ele>
        <time>2018-10-04T07:51:38Z</time>
      </trkpt>
      <trkpt lat="38.3224000" lon="-0.7333850">
        <ele>189.9</ele>
        <time>2018-10-04T07:51:39Z</time>
      </trkpt>
      <trkpt lat="38.3223900" lon="-0.7334180">
        <ele>190.0</ele>
        <time>2018-10-04T07:51:40Z</time>
      </trkpt>
      <trkpt lat="38.3223740" lon="-0.7334490">
        <ele>190.0</ele>
        <time>2018-10-04T07:51:41Z</time>
      </trkpt>
      <trkpt lat="38.3223510" lon="-0.7334750">
        <ele>190.1</ele>
        <time>2018-10-04T07:51:42Z</time>
      </trkpt>
      <trkpt lat="38.3223260" lon="-0.7335000">
        <ele>190.2</ele>
        <time>2018-10-04T07:51:43Z</time>
      </trkpt>
      <trkpt lat="38.3223000" lon="-0.7335290">
        <ele>190.3</ele>
        <time>2018-10-04T07:51:44Z</time>
      </trkpt>
      <trkpt lat="38.3222780" lon="-0.7335630">
        <ele>190.3</ele>
        <time>2018-10-04T07:51:45Z</time>
      </trkpt>
      <trkpt lat="38.3222580" lon="-0.7335990">
        <ele>190.4</ele>
        <time>2018-10-04T07:51:46Z</time>
      </trkpt>
      <trkpt lat="38.3222390" lon="-0.7336370">
        <ele>190.5</ele>
        <time>2018-10-04T07:51:47Z</time>
      </trkpt>
      <trkpt lat="38.3222210" lon="-0.7336770">
        <ele>190.5</ele>
        <time>2018-10-04T07:51:48Z</time>
      </trkpt>
      <trkpt lat="38.3222030" lon="-0.7337170">
        <ele>190.6</ele>
        <time>2018-10-04T07:51:49Z</time>
      </trkpt>
      <trkpt lat="38.3221870" lon="-0.7337580">
        <ele>190.6</ele>
        <time>2018-10-04T07:51:50Z</time>
      </trkpt>
      <trkpt lat="38.3221730" lon="-0.7337990">
        <ele>190.7</ele>
        <time>2018-10-04T07:51:51Z</time>
      </trkpt>
      <trkpt lat="38.3221640" lon="-0.7338420">
        <ele>190.7</ele>
        <time>2018-10-04T07:51:52Z</time>
      </trkpt>
      <trkpt lat="38.3221600" lon="-0.7338890">
        <ele>190.8</ele>
        <time>2018-10-04T07:51:53Z</time>
      </trkpt>
      <trkpt lat="38.3221610" lon="-0.7339360">
        <ele>190.8</ele>
        <time>2018-10-04T07:51:54Z</time>
      </trkpt>
      <trkpt lat="38.3221670" lon="-0.7339860">
        <ele>190.9</ele>
        <time>2018-10-04T07:51:55Z</time>
      </trkpt>
      <trkpt lat="38.3221740" lon="-0.7340380">
        <ele>190.9</ele>
        <time>2018-10-04T07:51:56Z</time>
      </trkpt>
      <trkpt lat="38.3221830" lon="-0.7340910">
        <ele>191.0</ele>
        <time>2018-10-04T07:51:57Z</time>
      </trkpt>
      <trkpt lat="38.3221950" lon="-0.7341450">
        <ele>191.0</ele>
        <time>2018-10-04T07:51:58Z</time>
      </trkpt>
      <trkpt lat="38.3222100" lon="-0.7341970">
        <ele>191.0</ele>
        <time>2018-10-04T07:51:59Z</time>
      </trkpt>
      <trkpt lat="38.3222320" lon="-0.7342460">
        <ele>191.0</ele>
        <time>2018-10-04T07:52:00Z</time>
      </trkpt>
      <trkpt lat="38.3222540" lon="-0.7342980">
        <ele>191.1</ele>
        <time>2018-10-04T07:52:01Z</time>
      </trkpt>
      <trkpt lat="38.3222740" lon="-0.7343520">
        <ele>191.1</ele>
        <time>2018-10-04T07:52:02Z</time>
      </trkpt>
      <trkpt lat="38.3222940" lon="-0.7344100">
        <ele>191.1</ele>
        <time>2018-10-04T07:52:03Z</time>
      </trkpt>
      <trkpt lat="38.3223160" lon="-0.7344680">
        <ele>191.2</ele>
        <time>2018-10-04T07:52:04Z</time>
      </trkpt>
      <trkpt lat="38.3223420" lon="-0.7345240">
        <ele>191.2</ele>
        <time>2018-10-04T07:52:05Z</time>
      </trkpt>
      <trkpt lat="38.3223710" lon="-0.7345760">
        <ele>191.2</ele>
        <time>2018-10-04T07:52:06Z</time>
      </trkpt>
      <trkpt lat="38.3224040" lon="-0.7346250">
        <ele>191.3</ele>
        <time>2018-10-04T07:52:07Z</time>
      </trkpt>
      <trkpt lat="38.3224410" lon="-0.7346680">
        <ele>191.3</ele>
        <time>2018-10-04T07:52:08Z</time>
      </trkpt>
      <trkpt lat="38.3224800" lon="-0.7347090">
        <ele>191.4</ele>
        <time>2018-10-04T07:52:09Z</time>
      </trkpt>
      <trkpt lat="38.3225210" lon="-0.7347430">
        <ele>191.4</ele>
        <time>2018-10-04T07:52:10Z</time>
      </trkpt>
      <trkpt lat="38.3225630" lon="-0.7347750">
        <ele>191.5</ele>
        <time>2018-10-04T07:52:11Z</time>
      </trkpt>
      <trkpt lat="38.3226080" lon="-0.7348010">
        <ele>191.6</ele>
        <time>2018-10-04T07:52:12Z</time>
      </trkpt>
      <trkpt lat="38.3226540" lon="-0.7348180">
        <ele>191.6</ele>
        <time>2018-10-04T07:52:13Z</time>
      </trkpt>
      <trkpt lat="38.3226960" lon="-0.7348250">
        <ele>191.7</ele>
        <time>2018-10-04T07:52:14Z</time>
      </trkpt>
      <trkpt lat="38.3227290" lon="-0.7348150">
        <ele>191.8</ele>
        <time>2018-10-04T07:52:15Z</time>
      </trkpt>
      <trkpt lat="38.3227550" lon="-0.7347900">
        <ele>191.8</ele>
        <time>2018-10-04T07:52:16Z</time>
      </trkpt>
      <trkpt lat="38.3227750" lon="-0.7347560">
        <ele>191.9</ele>
        <time>2018-10-04T07:52:17Z</time>
      </trkpt>
      <trkpt lat="38.3227890" lon="-0.7347140">
        <ele>192.0</ele>
        <time>2018-10-04T07:52:18Z</time>
      </trkpt>
      <trkpt lat="38.3227970" lon="-0.7346650">
        <ele>191.8</ele>
        <time>2018-10-04T07:52:19Z</time>
      </trkpt>
      <trkpt lat="38.3228000" lon="-0.7346100">
        <ele>191.5</ele>
        <time>2018-10-04T07:52:20Z</time>
      </trkpt>
      <trkpt lat="38.3228020" lon="-0.7345510">
        <ele>191.3</ele>
        <time>2018-10-04T07:52:21Z</time>
      </trkpt>
      <trkpt lat="38.3228050" lon="-0.7344880">
        <ele>191.0</ele>
        <time>2018-10-04T07:52:22Z</time>
      </trkpt>
      <trkpt lat="38.3228080" lon="-0.7344210">
        <ele>190.8</ele>
        <time>2018-10-04T07:52:23Z</time>
      </trkpt>
      <trkpt lat="38.3228170" lon="-0.7343480">
        <ele>190.5</ele>
        <time>2018-10-04T07:52:24Z</time>
      </trkpt>
      <trkpt lat="38.3228350" lon="-0.7342730">
        <ele>190.2</ele>
        <time>2018-10-04T07:52:25Z</time>
      </trkpt>
      <trkpt lat="38.3228580" lon="-0.7341940">
        <ele>189.7</ele>
        <time>2018-10-04T07:52:26Z</time>
      </trkpt>
      <trkpt lat="38.3228800" lon="-0.7341150">
        <ele>189.4</ele>
        <time>2018-10-04T07:52:27Z</time>
      </trkpt>
      <trkpt lat="38.3229010" lon="-0.7340370">
        <ele>189.0</ele>
        <time>2018-10-04T07:52:28Z</time>
      </trkpt>
      <trkpt lat="38.3229280" lon="-0.7339700">
        <ele>188.9</ele>
        <time>2018-10-04T07:52:29Z</time>
      </trkpt>
      <trkpt lat="38.3229610" lon="-0.7339190">
        <ele>188.8</ele>
        <time>2018-10-04T07:52:30Z</time>
      </trkpt>
      <trkpt lat="38.3229980" lon="-0.7338870">
        <ele>188.8</ele>
        <time>2018-10-04T07:52:31Z</time>
      </trkpt>
      <trkpt lat="38.3230430" lon="-0.7338740">
        <ele>188.9</ele>
        <time>2018-10-04T07:52:32Z</time>
      </trkpt>
      <trkpt lat="38.3230930" lon="-0.7338790">
        <ele>189.0</ele>
        <time>2018-10-04T07:52:33Z</time>
      </trkpt>
      <trkpt lat="38.3231450" lon="-0.7338950">
        <ele>189.1</ele>
        <time>2018-10-04T07:52:34Z</time>
      </trkpt>
      <trkpt lat="38.3231990" lon="-0.7339110">
        <ele>189.2</ele>
        <time>2018-10-04T07:52:35Z</time>
      </trkpt>
      <trkpt lat="38.3232550" lon="-0.7339240">
        <ele>189.3</ele>
        <time>2018-10-04T07:52:36Z</time>
      </trkpt>
      <trkpt lat="38.3233110" lon="-0.7339360">
        <ele>189.4</ele>
        <time>2018-10-04T07:52:37Z</time>
      </trkpt>
      <trkpt lat="38.3233680" lon="-0.7339460">
        <ele>189.3</ele>
        <time>2018-10-04T07:52:38Z</time>
      </trkpt>
      <trkpt lat="38.3234270" lon="-0.7339500">
        <ele>189.3</ele>
        <time>2018-10-04T07:52:39Z</time>
      </trkpt>
      <trkpt lat="38.3234870" lon="-0.7339460">
        <ele>189.3</ele>
        <time>2018-10-04T07:52:40Z</time>
      </trkpt>
      <trkpt lat="38.3235450" lon="-0.7339290">
        <ele>189.3</ele>
        <time>2018-10-04T07:52:41Z</time>
      </trkpt>
      <trkpt lat="38.3235990" lon="-0.7339000">
        <ele>189.2</ele>
        <time>2018-10-04T07:52:42Z</time>
      </trkpt>
      <trkpt lat="38.3236480" lon="-0.7338670">
        <ele>189.0</ele>
        <time>2018-10-04T07:52:43Z</time>
      </trkpt>
      <trkpt lat="38.3236940" lon="-0.7338300">
        <ele>188.9</ele>
        <time>2018-10-04T07:52:44Z</time>
      </trkpt>
      <trkpt lat="38.3237430" lon="-0.7337930">
        <ele>188.7</ele>
        <time>2018-10-04T07:52:45Z</time>
      </trkpt>
      <trkpt lat="38.3237950" lon="-0.7337590">
        <ele>188.4</ele>
        <time>2018-10-04T07:52:46Z</time>
      </trkpt>
      <trkpt lat="38.3238530" lon="-0.7337300">
        <ele>188.1</ele>
        <time>2018-10-04T07:52:47Z</time>
      </trkpt>
      <trkpt lat="38.3239140" lon="-0.7336990">
        <ele>187.7</ele>
        <time>2018-10-04T07:52:48Z</time>
      </trkpt>
      <trkpt lat="38.3239810" lon="-0.7336690">
        <ele>187.4</ele>
        <time>2018-10-04T07:52:49Z</time>
      </trkpt>
      <trkpt lat="38.3240510" lon="-0.7336410">
        <ele>187.2</ele>
        <time>2018-10-04T07:52:50Z</time>
      </trkpt>
      <trkpt lat="38.3241190" lon="-0.7336080">
        <ele>186.9</ele>
        <time>2018-10-04T07:52:51Z</time>
      </trkpt>
      <trkpt lat="38.3241840" lon="-0.7335670">
        <ele>186.6</ele>
        <time>2018-10-04T07:52:52Z</time>
      </trkpt>
      <trkpt lat="38.3242440" lon="-0.7335230">
        <ele>186.5</ele>
        <time>2018-10-04T07:52:53Z</time>
      </trkpt>
      <trkpt lat="38.3242980" lon="-0.7334800">
        <ele>186.4</ele>
        <time>2018-10-04T07:52:54Z</time>
      </trkpt>
      <trkpt lat="38.3243450" lon="-0.7334370">
        <ele>186.3</ele>
        <time>2018-10-04T07:52:55Z</time>
      </trkpt>
      <trkpt lat="38.3243820" lon="-0.7333950">
        <ele>186.3</ele>
        <time>2018-10-04T07:52:56Z</time>
      </trkpt>
      <trkpt lat="38.3244080" lon="-0.7333530">
        <ele>186.3</ele>
        <time>2018-10-04T07:52:57Z</time>
      </trkpt>
      <trkpt lat="38.3244330" lon="-0.7333200">
        <ele>186.3</ele>
        <time>2018-10-04T07:52:58Z</time>
      </trkpt>
      <trkpt lat="38.3244590" lon="-0.7332900">
        <ele>186.4</ele>
        <time>2018-10-04T07:52:59Z</time>
      </trkpt>
      <trkpt lat="38.3244830" lon="-0.7332610">
        <ele>186.5</ele>
        <time>2018-10-04T07:53:00Z</time>
      </trkpt>
      <trkpt lat="38.3245050" lon="-0.7332310">
        <ele>186.6</ele>
        <time>2018-10-04T07:53:01Z</time>
      </trkpt>
      <trkpt lat="38.3245250" lon="-0.7332010">
        <ele>186.7</ele>
        <time>2018-10-04T07:53:02Z</time>
      </trkpt>
      <trkpt lat="38.3245450" lon="-0.7331740">
        <ele>186.8</ele>
        <time>2018-10-04T07:53:03Z</time>
      </trkpt>
      <trkpt lat="38.3245660" lon="-0.7331470">
        <ele>186.9</ele>
        <time>2018-10-04T07:53:04Z</time>
      </trkpt>
      <trkpt lat="38.3245860" lon="-0.7331190">
        <ele>187.0</ele>
        <time>2018-10-04T07:53:05Z</time>
      </trkpt>
      <trkpt lat="38.3246040" lon="-0.7330930">
        <ele>187.1</ele>
        <time>2018-10-04T07:53:06Z</time>
      </trkpt>
      <trkpt lat="38.3246220" lon="-0.7330670">
        <ele>187.2</ele>
        <time>2018-10-04T07:53:07Z</time>
      </trkpt>
      <trkpt lat="38.3246380" lon="-0.7330400">
        <ele>187.3</ele>
        <time>2018-10-04T07:53:08Z</time>
      </trkpt>
      <trkpt lat="38.3246530" lon="-0.7330130">
        <ele>187.4</ele>
        <time>2018-10-04T07:53:09Z</time>
      </trkpt>
      <trkpt lat="38.3246680" lon="-0.7329880">
        <ele>187.5</ele>
        <time>2018-10-04T07:53:10Z</time>
      </trkpt>
      <trkpt lat="38.3246820" lon="-0.7329620">
        <ele>187.6</ele>
        <time>2018-10-04T07:53:11Z</time>
      </trkpt>
      <trkpt lat="38.3246960" lon="-0.7329370">
        <ele>187.7</ele>
        <time>2018-10-04T07:53:12Z</time>
      </trkpt>
      <trkpt lat="38.3247090" lon="-0.7329090">
        <ele>187.9</ele>
        <time>2018-10-04T07:53:13Z</time>
      </trkpt>
      <trkpt lat="38.3247210" lon="-0.7328820">
        <ele>188.1</ele>
        <time>2018-10-04T07:53:14Z</time>
      </trkpt>
      <trkpt lat="38.3247330" lon="-0.7328540">
        <ele>188.3</ele>
        <time>2018-10-04T07:53:15Z</time>
      </trkpt>
      <trkpt lat="38.3247450" lon="-0.7328270">
        <ele>188.6</ele>
        <time>2018-10-04T07:53:16Z</time>
      </trkpt>
      <trkpt lat="38.3247560" lon="-0.7327990">
        <ele>188.8</ele>
        <time>2018-10-04T07:53:17Z</time>
      </trkpt>
      <trkpt lat="38.3247660" lon="-0.7327670">
        <ele>188.9</ele>
        <time>2018-10-04T07:53:18Z</time>
      </trkpt>
      <trkpt lat="38.3247750" lon="-0.7327250">
        <ele>189.1</ele>
        <time>2018-10-04T07:53:19Z</time>
      </trkpt>
      <trkpt lat="38.3247810" lon="-0.7326720">
        <ele>189.4</ele>
        <time>2018-10-04T07:53:20Z</time>
      </trkpt>
      <trkpt lat="38.3247780" lon="-0.7326090">
        <ele>189.7</ele>
        <time>2018-10-04T07:53:21Z</time>
      </trkpt>
      <trkpt lat="38.3247580" lon="-0.7325390">
        <ele>190.2</ele>
        <time>2018-10-04T07:53:22Z</time>
      </trkpt>
      <trkpt lat="38.3247300" lon="-0.7324630">
        <ele>190.8</ele>
        <time>2018-10-04T07:53:23Z</time>
      </trkpt>
      <trkpt lat="38.3246940" lon="-0.7323810">
        <ele>191.4</ele>
        <time>2018-10-04T07:53:24Z</time>
      </trkpt>
      <trkpt lat="38.3246540" lon="-0.7322840">
        <ele>192.2</ele>
        <time>2018-10-04T07:53:25Z</time>
      </trkpt>
      <trkpt lat="38.3246110" lon="-0.7321640">
        <ele>193.0</ele>
        <time>2018-10-04T07:53:26Z</time>
      </trkpt>
      <trkpt lat="38.3245650" lon="-0.7320350">
        <ele>193.4</ele>
        <time>2018-10-04T07:53:27Z</time>
      </trkpt>
      <trkpt lat="38.3245120" lon="-0.7319050">
        <ele>193.1</ele>
        <time>2018-10-04T07:53:28Z</time>
      </trkpt>
      <trkpt lat="38.3244650" lon="-0.7317760">
        <ele>191.9</ele>
        <time>2018-10-04T07:53:29Z</time>
      </trkpt>
      <trkpt lat="38.3244330" lon="-0.7316390">
        <ele>190.5</ele>
        <time>2018-10-04T07:53:30Z</time>
      </trkpt>
      <trkpt lat="38.3244170" lon="-0.7314980">
        <ele>189.5</ele>
        <time>2018-10-04T07:53:31Z</time>
      </trkpt>
      <trkpt lat="38.3244150" lon="-0.7313610">
        <ele>188.5</ele>
        <time>2018-10-04T07:53:32Z</time>
      </trkpt>
      <trkpt lat="38.3244150" lon="-0.7312250">
        <ele>187.2</ele>
        <time>2018-10-04T07:53:33Z</time>
      </trkpt>
      <trkpt lat="38.3244180" lon="-0.7310930">
        <ele>186.0</ele>
        <time>2018-10-04T07:53:34Z</time>
      </trkpt>
      <trkpt lat="38.3244230" lon="-0.7309640">
        <ele>185.0</ele>
        <time>2018-10-04T07:53:35Z</time>
      </trkpt>
      <trkpt lat="38.3244310" lon="-0.7308430">
        <ele>185.0</ele>
        <time>2018-10-04T07:53:36Z</time>
      </trkpt>
      <trkpt lat="38.3244400" lon="-0.7307270">
        <ele>184.9</ele>
        <time>2018-10-04T07:53:37Z</time>
      </trkpt>
      <trkpt lat="38.3244520" lon="-0.7306170">
        <ele>185.0</ele>
        <time>2018-10-04T07:53:38Z</time>
      </trkpt>
      <trkpt lat="38.3244660" lon="-0.7305110">
        <ele>185.1</ele>
        <time>2018-10-04T07:53:39Z</time>
      </trkpt>
      <trkpt lat="38.3244830" lon="-0.7304090">
        <ele>185.2</ele>
        <time>2018-10-04T07:53:40Z</time>
      </trkpt>
      <trkpt lat="38.3245030" lon="-0.7303100">
        <ele>185.4</ele>
        <time>2018-10-04T07:53:41Z</time>
      </trkpt>
      <trkpt lat="38.3245230" lon="-0.7302150">
        <ele>185.6</ele>
        <time>2018-10-04T07:53:42Z</time>
      </trkpt>
      <trkpt lat="38.3245390" lon="-0.7301260">
        <ele>185.6</ele>
        <time>2018-10-04T07:53:43Z</time>
      </trkpt>
      <trkpt lat="38.3245480" lon="-0.7300380">
        <ele>185.6</ele>
        <time>2018-10-04T07:53:44Z</time>
      </trkpt>
      <trkpt lat="38.3245470" lon="-0.7299560">
        <ele>185.5</ele>
        <time>2018-10-04T07:53:45Z</time>
      </trkpt>
      <trkpt lat="38.3245350" lon="-0.7298770">
        <ele>185.4</ele>
        <time>2018-10-04T07:53:46Z</time>
      </trkpt>
      <trkpt lat="38.3245030" lon="-0.7298190">
        <ele>185.4</ele>
        <time>2018-10-04T07:53:47Z</time>
      </trkpt>
      <trkpt lat="38.3244590" lon="-0.7297750">
        <ele>185.3</ele>
        <time>2018-10-04T07:53:48Z</time>
      </trkpt>
      <trkpt lat="38.3244090" lon="-0.7297340">
        <ele>185.2</ele>
        <time>2018-10-04T07:53:49Z</time>
      </trkpt>
      <trkpt lat="38.3243630" lon="-0.7296810">
        <ele>185.0</ele>
        <time>2018-10-04T07:53:50Z</time>
      </trkpt>
      <trkpt lat="38.3243290" lon="-0.7296090">
        <ele>184.8</ele>
        <time>2018-10-04T07:53:51Z</time>
      </trkpt>
      <trkpt lat="38.3243110" lon="-0.7295200">
        <ele>184.4</ele>
        <time>2018-10-04T07:53:52Z</time>
      </trkpt>
      <trkpt lat="38.3243120" lon="-0.7294200">
        <ele>183.5</ele>
        <time>2018-10-04T07:53:53Z</time>
      </trkpt>
      <trkpt lat="38.3243250" lon="-0.7293160">
        <ele>182.4</ele>
        <time>2018-10-04T07:53:54Z</time>
      </trkpt>
      <trkpt lat="38.3243390" lon="-0.7292210">
        <ele>181.3</ele>
        <time>2018-10-04T07:53:55Z</time>
      </trkpt>
      <trkpt lat="38.3243470" lon="-0.7291390">
        <ele>180.2</ele>
        <time>2018-10-04T07:53:56Z</time>
      </trkpt>
      <trkpt lat="38.3243580" lon="-0.7290740">
        <ele>179.3</ele>
        <time>2018-10-04T07:53:57Z</time>
      </trkpt>
      <trkpt lat="38.3243810" lon="-0.7290270">
        <ele>178.9</ele>
        <time>2018-10-04T07:53:58Z</time>
      </trkpt>
      <trkpt lat="38.3244120" lon="-0.7290070">
        <ele>178.5</ele>
        <time>2018-10-04T07:53:59Z</time>
      </trkpt>
      <trkpt lat="38.3244510" lon="-0.7290040">
        <ele>178.2</ele>
        <time>2018-10-04T07:54:00Z</time>
      </trkpt>
      <trkpt lat="38.3244900" lon="-0.7290170">
        <ele>177.8</ele>
        <time>2018-10-04T07:54:01Z</time>
      </trkpt>
      <trkpt lat="38.3245190" lon="-0.7290510">
        <ele>177.4</ele>
        <time>2018-10-04T07:54:02Z</time>
      </trkpt>
      <trkpt lat="38.3245330" lon="-0.7290950">
        <ele>177.2</ele>
        <time>2018-10-04T07:54:03Z</time>
      </trkpt>
      <trkpt lat="38.3245420" lon="-0.7291420">
        <ele>177.0</ele>
        <time>2018-10-04T07:54:04Z</time>
      </trkpt>
      <trkpt lat="38.3245540" lon="-0.7291910">
        <ele>176.9</ele>
        <time>2018-10-04T07:54:05Z</time>
      </trkpt>
      <trkpt lat="38.3245650" lon="-0.7292410">
        <ele>176.8</ele>
        <time>2018-10-04T07:54:06Z</time>
      </trkpt>
      <trkpt lat="38.3245770" lon="-0.7292900">
        <ele>176.8</ele>
        <time>2018-10-04T07:54:07Z</time>
      </trkpt>
      <trkpt lat="38.3245880" lon="-0.7293400">
        <ele>176.7</ele>
        <time>2018-10-04T07:54:08Z</time>
      </trkpt>
      <trkpt lat="38.3246000" lon="-0.7293920">
        <ele>176.7</ele>
        <time>2018-10-04T07:54:09Z</time>
      </trkpt>
      <trkpt lat="38.3246150" lon="-0.7294450">
        <ele>176.6</ele>
        <time>2018-10-04T07:54:10Z</time>
      </trkpt>
      <trkpt lat="38.3246340" lon="-0.7295010">
        <ele>176.5</ele>
        <time>2018-10-04T07:54:11Z</time>
      </trkpt>
      <trkpt lat="38.3246590" lon="-0.7295590">
        <ele>176.4</ele>
        <time>2018-10-04T07:54:12Z</time>
      </trkpt>
      <trkpt lat="38.3246930" lon="-0.7296160">
        <ele>176.2</ele>
        <time>2018-10-04T07:54:13Z</time>
      </trkpt>
      <trkpt lat="38.3247340" lon="-0.7296650">
        <ele>175.9</ele>
        <time>2018-10-04T07:54:14Z</time>
      </trkpt>
      <trkpt lat="38.3247810" lon="-0.7297050">
        <ele>175.5</ele>
        <time>2018-10-04T07:54:15Z</time>
      </trkpt>
      <trkpt lat="38.3248310" lon="-0.7297240">
        <ele>175.2</ele>
        <time>2018-10-04T07:54:16Z</time>
      </trkpt>
      <trkpt lat="38.3248900" lon="-0.7297150">
        <ele>174.8</ele>
        <time>2018-10-04T07:54:17Z</time>
      </trkpt>
      <trkpt lat="38.3249610" lon="-0.7296930">
        <ele>174.2</ele>
        <time>2018-10-04T07:54:18Z</time>
      </trkpt>
      <trkpt lat="38.3250410" lon="-0.7296630">
        <ele>173.3</ele>
        <time>2018-10-04T07:54:19Z</time>
      </trkpt>
      <trkpt lat="38.3251180" lon="-0.7296320">
        <ele>172.3</ele>
        <time>2018-10-04T07:54:20Z</time>
      </trkpt>
      <trkpt lat="38.3251840" lon="-0.7296050">
        <ele>171.2</ele>
        <time>2018-10-04T07:54:21Z</time>
      </trkpt>
      <trkpt lat="38.3252420" lon="-0.7295830">
        <ele>170.5</ele>
        <time>2018-10-04T07:54:22Z</time>
      </trkpt>
      <trkpt lat="38.3252890" lon="-0.7295580">
        <ele>169.8</ele>
        <time>2018-10-04T07:54:23Z</time>
      </trkpt>
      <trkpt lat="38.3253290" lon="-0.7295140">
        <ele>169.4</ele>
        <time>2018-10-04T07:54:24Z</time>
      </trkpt>
      <trkpt lat="38.3253610" lon="-0.7294630">
        <ele>169.0</ele>
        <time>2018-10-04T07:54:25Z</time>
      </trkpt>
      <trkpt lat="38.3253870" lon="-0.7294100">
        <ele>169.0</ele>
        <time>2018-10-04T07:54:26Z</time>
      </trkpt>
      <trkpt lat="38.3254040" lon="-0.7293530">
        <ele>169.0</ele>
        <time>2018-10-04T07:54:27Z</time>
      </trkpt>
      <trkpt lat="38.3254280" lon="-0.7293010">
        <ele>169.1</ele>
        <time>2018-10-04T07:54:28Z</time>
      </trkpt>
      <trkpt lat="38.3254580" lon="-0.7292660">
        <ele>169.2</ele>
        <time>2018-10-04T07:54:29Z</time>
      </trkpt>
      <trkpt lat="38.3254880" lon="-0.7292550">
        <ele>169.2</ele>
        <time>2018-10-04T07:54:30Z</time>
      </trkpt>
      <trkpt lat="38.3255190" lon="-0.7292570">
        <ele>169.2</ele>
        <time>2018-10-04T07:54:31Z</time>
      </trkpt>
      <trkpt lat="38.3255470" lon="-0.7292710">
        <ele>169.3</ele>
        <time>2018-10-04T07:54:32Z</time>
      </trkpt>
      <trkpt lat="38.3255660" lon="-0.7292970">
        <ele>169.4</ele>
        <time>2018-10-04T07:54:33Z</time>
      </trkpt>
      <trkpt lat="38.3255700" lon="-0.7293330">
        <ele>169.4</ele>
        <time>2018-10-04T07:54:34Z</time>
      </trkpt>
      <trkpt lat="38.3255770" lon="-0.7293720">
        <ele>169.5</ele>
        <time>2018-10-04T07:54:35Z</time>
      </trkpt>
      <trkpt lat="38.3255770" lon="-0.7294130">
        <ele>169.6</ele>
        <time>2018-10-04T07:54:36Z</time>
      </trkpt>
      <trkpt lat="38.3255670" lon="-0.7294520">
        <ele>169.7</ele>
        <time>2018-10-04T07:54:37Z</time>
      </trkpt>
      <trkpt lat="38.3255590" lon="-0.7294940">
        <ele>169.8</ele>
        <time>2018-10-04T07:54:38Z</time>
      </trkpt>
      <trkpt lat="38.3255540" lon="-0.7295360">
        <ele>169.9</ele>
        <time>2018-10-04T07:54:39Z</time>
      </trkpt>
      <trkpt lat="38.3255530" lon="-0.7295780">
        <ele>170.0</ele>
        <time>2018-10-04T07:54:40Z</time>
      </trkpt>
      <trkpt lat="38.3255520" lon="-0.7296190">
        <ele>170.1</ele>
        <time>2018-10-04T07:54:41Z</time>
      </trkpt>
      <trkpt lat="38.3255500" lon="-0.7296610">
        <ele>170.2</ele>
        <time>2018-10-04T07:54:42Z</time>
      </trkpt>
      <trkpt lat="38.3255450" lon="-0.7297000">
        <ele>170.3</ele>
        <time>2018-10-04T07:54:43Z</time>
      </trkpt>
      <trkpt lat="38.3255380" lon="-0.7297400">
        <ele>170.5</ele>
        <time>2018-10-04T07:54:44Z</time>
      </trkpt>
      <trkpt lat="38.3255340" lon="-0.7297810">
        <ele>170.6</ele>
        <time>2018-10-04T07:54:45Z</time>
      </trkpt>
      <trkpt lat="38.3255310" lon="-0.7298230">
        <ele>170.7</ele>
        <time>2018-10-04T07:54:46Z</time>
      </trkpt>
      <trkpt lat="38.3255310" lon="-0.7298640">
        <ele>170.7</ele>
        <time>2018-10-04T07:54:47Z</time>
      </trkpt>
      <trkpt lat="38.3255330" lon="-0.7299070">
        <ele>170.9</ele>
        <time>2018-10-04T07:54:48Z</time>
      </trkpt>
      <trkpt lat="38.3255400" lon="-0.7299480">
        <ele>171.0</ele>
        <time>2018-10-04T07:54:49Z</time>
      </trkpt>
      <trkpt lat="38.3255530" lon="-0.7299850">
        <ele>171.0</ele>
        <time>2018-10-04T07:54:50Z</time>
      </trkpt>
      <trkpt lat="38.3255700" lon="-0.7300210">
        <ele>171.1</ele>
        <time>2018-10-04T07:54:51Z</time>
      </trkpt>
      <trkpt lat="38.3255900" lon="-0.7300530">
        <ele>171.1</ele>
        <time>2018-10-04T07:54:52Z</time>
      </trkpt>
      <trkpt lat="38.3256110" lon="-0.7300860">
        <ele>171.2</ele>
        <time>2018-10-04T07:54:53Z</time>
      </trkpt>
      <trkpt lat="38.3256360" lon="-0.7301140">
        <ele>171.3</ele>
        <time>2018-10-04T07:54:54Z</time>
      </trkpt>
      <trkpt lat="38.3256640" lon="-0.7301380">
        <ele>171.3</ele>
        <time>2018-10-04T07:54:55Z</time>
      </trkpt>
      <trkpt lat="38.3256940" lon="-0.7301580">
        <ele>171.4</ele>
        <time>2018-10-04T07:54:56Z</time>
      </trkpt>
      <trkpt lat="38.3257250" lon="-0.7301800">
        <ele>171.4</ele>
        <time>2018-10-04T07:54:57Z</time>
      </trkpt>
      <trkpt lat="38.3257560" lon="-0.7301980">
        <ele>171.5</ele>
        <time>2018-10-04T07:54:58Z</time>
      </trkpt>
      <trkpt lat="38.3257890" lon="-0.7302110">
        <ele>171.5</ele>
        <time>2018-10-04T07:54:59Z</time>
      </trkpt>
      <trkpt lat="38.3258240" lon="-0.7302200">
        <ele>171.6</ele>
        <time>2018-10-04T07:55:00Z</time>
      </trkpt>
      <trkpt lat="38.3258590" lon="-0.7302280">
        <ele>171.7</ele>
        <time>2018-10-04T07:55:01Z</time>
      </trkpt>
      <trkpt lat="38.3258940" lon="-0.7302400">
        <ele>171.7</ele>
        <time>2018-10-04T07:55:02Z</time>
      </trkpt>
      <trkpt lat="38.3259280" lon="-0.7302510">
        <ele>171.7</ele>
        <time>2018-10-04T07:55:03Z</time>
      </trkpt>
      <trkpt lat="38.3259630" lon="-0.7302600">
        <ele>171.8</ele>
        <time>2018-10-04T07:55:04Z</time>
      </trkpt>
      <trkpt lat="38.3259980" lon="-0.7302760">
        <ele>171.8</ele>
        <time>2018-10-04T07:55:05Z</time>
      </trkpt>
      <trkpt lat="38.3260300" lon="-0.7302960">
        <ele>171.9</ele>
        <time>2018-10-04T07:55:06Z</time>
      </trkpt>
      <trkpt lat="38.3260610" lon="-0.7303190">
        <ele>172.0</ele>
        <time>2018-10-04T07:55:07Z</time>
      </trkpt>
      <trkpt lat="38.3260910" lon="-0.7303430">
        <ele>172.0</ele>
        <time>2018-10-04T07:55:08Z</time>
      </trkpt>
      <trkpt lat="38.3261210" lon="-0.7303690">
        <ele>172.1</ele>
        <time>2018-10-04T07:55:09Z</time>
      </trkpt>
      <trkpt lat="38.3261500" lon="-0.7303970">
        <ele>172.1</ele>
        <time>2018-10-04T07:55:10Z</time>
      </trkpt>
      <trkpt lat="38.3261800" lon="-0.7304260">
        <ele>172.2</ele>
        <time>2018-10-04T07:55:11Z</time>
      </trkpt>
      <trkpt lat="38.3262080" lon="-0.7304580">
        <ele>172.2</ele>
        <time>2018-10-04T07:55:12Z</time>
      </trkpt>
      <trkpt lat="38.3262350" lon="-0.7304890">
        <ele>172.3</ele>
        <time>2018-10-04T07:55:13Z</time>
      </trkpt>
      <trkpt lat="38.3262620" lon="-0.7305220">
        <ele>172.3</ele>
        <time>2018-10-04T07:55:14Z</time>
      </trkpt>
      <trkpt lat="38.3262870" lon="-0.7305570">
        <ele>172.4</ele>
        <time>2018-10-04T07:55:15Z</time>
      </trkpt>
      <trkpt lat="38.3263100" lon="-0.7305940">
        <ele>172.5</ele>
        <time>2018-10-04T07:55:16Z</time>
      </trkpt>
      <trkpt lat="38.3263330" lon="-0.7306310">
        <ele>172.5</ele>
        <time>2018-10-04T07:55:17Z</time>
      </trkpt>
      <trkpt lat="38.3263550" lon="-0.7306680">
        <ele>172.6</ele>
        <time>2018-10-04T07:55:18Z</time>
      </trkpt>
      <trkpt lat="38.3263780" lon="-0.7307030">
        <ele>172.6</ele>
        <time>2018-10-04T07:55:19Z</time>
      </trkpt>
      <trkpt lat="38.3264040" lon="-0.7307330">
        <ele>172.7</ele>
        <time>2018-10-04T07:55:20Z</time>
      </trkpt>
      <trkpt lat="38.3264310" lon="-0.7307620">
        <ele>172.7</ele>
        <time>2018-10-04T07:55:21Z</time>
      </trkpt>
      <trkpt lat="38.3264610" lon="-0.7307880">
        <ele>172.9</ele>
        <time>2018-10-04T07:55:22Z</time>
      </trkpt>
      <trkpt lat="38.3264890" lon="-0.7308120">
        <ele>173.0</ele>
        <time>2018-10-04T07:55:23Z</time>
      </trkpt>
      <trkpt lat="38.3265160" lon="-0.7308340">
        <ele>173.0</ele>
        <time>2018-10-04T07:55:24Z</time>
      </trkpt>
      <trkpt lat="38.3265430" lon="-0.7308530">
        <ele>173.1</ele>
        <time>2018-10-04T07:55:25Z</time>
      </trkpt>
      <trkpt lat="38.3265710" lon="-0.7308730">
        <ele>173.2</ele>
        <time>2018-10-04T07:55:26Z</time>
      </trkpt>
      <trkpt lat="38.3265970" lon="-0.7308940">
        <ele>173.3</ele>
        <time>2018-10-04T07:55:27Z</time>
      </trkpt>
      <trkpt lat="38.3266230" lon="-0.7309140">
        <ele>173.5</ele>
        <time>2018-10-04T07:55:28Z</time>
      </trkpt>
      <trkpt lat="38.3266500" lon="-0.7309370">
        <ele>173.7</ele>
        <time>2018-10-04T07:55:29Z</time>
      </trkpt>
      <trkpt lat="38.3266750" lon="-0.7309610">
        <ele>173.8</ele>
        <time>2018-10-04T07:55:30Z</time>
      </trkpt>
      <trkpt lat="38.3266980" lon="-0.7309890">
        <ele>173.9</ele>
        <time>2018-10-04T07:55:31Z</time>
      </trkpt>
      <trkpt lat="38.3267150" lon="-0.7310190">
        <ele>173.9</ele>
        <time>2018-10-04T07:55:32Z</time>
      </trkpt>
      <trkpt lat="38.3267310" lon="-0.7310540">
        <ele>174.0</ele>
        <time>2018-10-04T07:55:33Z</time>
      </trkpt>
      <trkpt lat="38.3267450" lon="-0.7310890">
        <ele>174.1</ele>
        <time>2018-10-04T07:55:34Z</time>
      </trkpt>
      <trkpt lat="38.3267590" lon="-0.7311270">
        <ele>174.2</ele>
        <time>2018-10-04T07:55:35Z</time>
      </trkpt>
      <trkpt lat="38.3267710" lon="-0.7311650">
        <ele>174.3</ele>
        <time>2018-10-04T07:55:36Z</time>
      </trkpt>
      <trkpt lat="38.3267830" lon="-0.7312030">
        <ele>174.4</ele>
        <time>2018-10-04T07:55:37Z</time>
      </trkpt>
      <trkpt lat="38.3267950" lon="-0.7312360">
        <ele>174.6</ele>
        <time>2018-10-04T07:55:38Z</time>
      </trkpt>
      <trkpt lat="38.3268080" lon="-0.7312690">
        <ele>174.6</ele>
        <time>2018-10-04T07:55:39Z</time>
      </trkpt>
      <trkpt lat="38.3268180" lon="-0.7313050">
        <ele>174.7</ele>
        <time>2018-10-04T07:55:40Z</time>
      </trkpt>
      <trkpt lat="38.3268250" lon="-0.7313410">
        <ele>174.8</ele>
        <time>2018-10-04T07:55:41Z</time>
      </trkpt>
      <trkpt lat="38.3268250" lon="-0.7313790">
        <ele>174.9</ele>
        <time>2018-10-04T07:55:42Z</time>
      </trkpt>
      <trkpt lat="38.3268270" lon="-0.7314180">
        <ele>175.0</ele>
        <time>2018-10-04T07:55:43Z</time>
      </trkpt>
      <trkpt lat="38.3268310" lon="-0.7314550">
        <ele>175.2</ele>
        <time>2018-10-04T07:55:44Z</time>
      </trkpt>
      <trkpt lat="38.3268390" lon="-0.7314900">
        <ele>175.3</ele>
        <time>2018-10-04T07:55:45Z</time>
      </trkpt>
      <trkpt lat="38.3268470" lon="-0.7315250">
        <ele>175.4</ele>
        <time>2018-10-04T07:55:46Z</time>
      </trkpt>
      <trkpt lat="38.3268530" lon="-0.7315610">
        <ele>175.5</ele>
        <time>2018-10-04T07:55:47Z</time>
      </trkpt>
      <trkpt lat="38.3268620" lon="-0.7315960">
        <ele>175.6</ele>
        <time>2018-10-04T07:55:48Z</time>
      </trkpt>
      <trkpt lat="38.3268750" lon="-0.7316300">
        <ele>175.8</ele>
        <time>2018-10-04T07:55:49Z</time>
      </trkpt>
      <trkpt lat="38.3268900" lon="-0.7316600">
        <ele>175.9</ele>
        <time>2018-10-04T07:55:50Z</time>
      </trkpt>
      <trkpt lat="38.3269020" lon="-0.7316920">
        <ele>176.0</ele>
        <time>2018-10-04T07:55:51Z</time>
      </trkpt>
      <trkpt lat="38.3269110" lon="-0.7317260">
        <ele>176.1</ele>
        <time>2018-10-04T07:55:52Z</time>
      </trkpt>
      <trkpt lat="38.3269170" lon="-0.7317600">
        <ele>176.2</ele>
        <time>2018-10-04T07:55:53Z</time>
      </trkpt>
      <trkpt lat="38.3269200" lon="-0.7317950">
        <ele>176.3</ele>
        <time>2018-10-04T07:55:54Z</time>
      </trkpt>
      <trkpt lat="38.3269210" lon="-0.7318290">
        <ele>176.4</ele>
        <time>2018-10-04T07:55:55Z</time>
      </trkpt>
      <trkpt lat="38.3269220" lon="-0.7318640">
        <ele>176.5</ele>
        <time>2018-10-04T07:55:56Z</time>
      </trkpt>
      <trkpt lat="38.3269250" lon="-0.7318990">
        <ele>176.6</ele>
        <time>2018-10-04T07:55:57Z</time>
      </trkpt>
      <trkpt lat="38.3269260" lon="-0.7319350">
        <ele>176.7</ele>
        <time>2018-10-04T07:55:58Z</time>
      </trkpt>
      <trkpt lat="38.3269240" lon="-0.7319710">
        <ele>176.9</ele>
        <time>2018-10-04T07:55:59Z</time>
      </trkpt>
      <trkpt lat="38.3269200" lon="-0.7320060">
        <ele>177.0</ele>
        <time>2018-10-04T07:56:00Z</time>
      </trkpt>
      <trkpt lat="38.3269140" lon="-0.7320410">
        <ele>177.1</ele>
        <time>2018-10-04T07:56:01Z</time>
      </trkpt>
      <trkpt lat="38.3269090" lon="-0.7320760">
        <ele>177.2</ele>
        <time>2018-10-04T07:56:02Z</time>
      </trkpt>
      <trkpt lat="38.3269050" lon="-0.7321110">
        <ele>177.3</ele>
        <time>2018-10-04T07:56:03Z</time>
      </trkpt>
      <trkpt lat="38.3268990" lon="-0.7321450">
        <ele>177.4</ele>
        <time>2018-10-04T07:56:04Z</time>
      </trkpt>
      <trkpt lat="38.3268940" lon="-0.7321810">
        <ele>177.6</ele>
        <time>2018-10-04T07:56:05Z</time>
      </trkpt>
      <trkpt lat="38.3268880" lon="-0.7322160">
        <ele>177.7</ele>
        <time>2018-10-04T07:56:06Z</time>
      </trkpt>
      <trkpt lat="38.3268860" lon="-0.7322520">
        <ele>177.9</ele>
        <time>2018-10-04T07:56:07Z</time>
      </trkpt>
      <trkpt lat="38.3268860" lon="-0.7322880">
        <ele>178.6</ele>
        <time>2018-10-04T07:56:08Z</time>
      </trkpt>
      <trkpt lat="38.3268880" lon="-0.7323240">
        <ele>178.9</ele>
        <time>2018-10-04T07:56:09Z</time>
      </trkpt>
      <trkpt lat="38.3268920" lon="-0.7323570">
        <ele>179.2</ele>
        <time>2018-10-04T07:56:10Z</time>
      </trkpt>
      <trkpt lat="38.3268980" lon="-0.7323900">
        <ele>179.5</ele>
        <time>2018-10-04T07:56:11Z</time>
      </trkpt>
      <trkpt lat="38.3269050" lon="-0.7324230">
        <ele>179.8</ele>
        <time>2018-10-04T07:56:12Z</time>
      </trkpt>
      <trkpt lat="38.3269130" lon="-0.7324570">
        <ele>180.2</ele>
        <time>2018-10-04T07:56:13Z</time>
      </trkpt>
      <trkpt lat="38.3269230" lon="-0.7324930">
        <ele>180.5</ele>
        <time>2018-10-04T07:56:14Z</time>
      </trkpt>
      <trkpt lat="38.3269340" lon="-0.7325270">
        <ele>180.9</ele>
        <time>2018-10-04T07:56:15Z</time>
      </trkpt>
      <trkpt lat="38.3269460" lon="-0.7325610">
        <ele>181.3</ele>
        <time>2018-10-04T07:56:16Z</time>
      </trkpt>
      <trkpt lat="38.3269570" lon="-0.7325930">
        <ele>181.6</ele>
        <time>2018-10-04T07:56:17Z</time>
      </trkpt>
      <trkpt lat="38.3269690" lon="-0.7326260">
        <ele>182.0</ele>
        <time>2018-10-04T07:56:18Z</time>
      </trkpt>
      <trkpt lat="38.3269800" lon="-0.7326590">
        <ele>182.3</ele>
        <time>2018-10-04T07:56:19Z</time>
      </trkpt>
      <trkpt lat="38.3269930" lon="-0.7326900">
        <ele>182.6</ele>
        <time>2018-10-04T07:56:20Z</time>
      </trkpt>
      <trkpt lat="38.3270070" lon="-0.7327210">
        <ele>182.9</ele>
        <time>2018-10-04T07:56:21Z</time>
      </trkpt>
      <trkpt lat="38.3270210" lon="-0.7327510">
        <ele>183.1</ele>
        <time>2018-10-04T07:56:22Z</time>
      </trkpt>
      <trkpt lat="38.3270350" lon="-0.7327810">
        <ele>183.4</ele>
        <time>2018-10-04T07:56:23Z</time>
      </trkpt>
      <trkpt lat="38.3270480" lon="-0.7328130">
        <ele>183.6</ele>
        <time>2018-10-04T07:56:24Z</time>
      </trkpt>
      <trkpt lat="38.3270630" lon="-0.7328440">
        <ele>183.8</ele>
        <time>2018-10-04T07:56:25Z</time>
      </trkpt>
      <trkpt lat="38.3270790" lon="-0.7328730">
        <ele>184.0</ele>
        <time>2018-10-04T07:56:26Z</time>
      </trkpt>
      <trkpt lat="38.3270960" lon="-0.7329040">
        <ele>184.3</ele>
        <time>2018-10-04T07:56:27Z</time>
      </trkpt>
      <trkpt lat="38.3271130" lon="-0.7329340">
        <ele>184.6</ele>
        <time>2018-10-04T07:56:28Z</time>
      </trkpt>
      <trkpt lat="38.3271280" lon="-0.7329650">
        <ele>185.0</ele>
        <time>2018-10-04T07:56:29Z</time>
      </trkpt>
      <trkpt lat="38.3271450" lon="-0.7329950">
        <ele>185.3</ele>
        <time>2018-10-04T07:56:30Z</time>
      </trkpt>
      <trkpt lat="38.3271630" lon="-0.7330230">
        <ele>185.5</ele>
        <time>2018-10-04T07:56:31Z</time>
      </trkpt>
      <trkpt lat="38.3271810" lon="-0.7330510">
        <ele>185.7</ele>
        <time>2018-10-04T07:56:32Z</time>
      </trkpt>
      <trkpt lat="38.3271960" lon="-0.7330800">
        <ele>186.1</ele>
        <time>2018-10-04T07:56:33Z</time>
      </trkpt>
      <trkpt lat="38.3272110" lon="-0.7331100">
        <ele>186.5</ele>
        <time>2018-10-04T07:56:34Z</time>
      </trkpt>
      <trkpt lat="38.3272280" lon="-0.7331390">
        <ele>186.9</ele>
        <time>2018-10-04T07:56:35Z</time>
      </trkpt>
      <trkpt lat="38.3272460" lon="-0.7331670">
        <ele>187.1</ele>
        <time>2018-10-04T07:56:36Z</time>
      </trkpt>
      <trkpt lat="38.3272620" lon="-0.7331960">
        <ele>187.4</ele>
        <time>2018-10-04T07:56:37Z</time>
      </trkpt>
      <trkpt lat="38.3272780" lon="-0.7332260">
        <ele>187.6</ele>
        <time>2018-10-04T07:56:38Z</time>
      </trkpt>
      <trkpt lat="38.3272940" lon="-0.7332570">
        <ele>188.0</ele>
        <time>2018-10-04T07:56:39Z</time>
      </trkpt>
      <trkpt lat="38.3273100" lon="-0.7332870">
        <ele>188.3</ele>
        <time>2018-10-04T07:56:40Z</time>
      </trkpt>
      <trkpt lat="38.3273260" lon="-0.7333170">
        <ele>188.6</ele>
        <time>2018-10-04T07:56:41Z</time>
      </trkpt>
      <trkpt lat="38.3273440" lon="-0.7333470">
        <ele>188.9</ele>
        <time>2018-10-04T07:56:42Z</time>
      </trkpt>
      <trkpt lat="38.3273610" lon="-0.7333770">
        <ele>189.3</ele>
        <time>2018-10-04T07:56:43Z</time>
      </trkpt>
      <trkpt lat="38.3273760" lon="-0.7334090">
        <ele>189.6</ele>
        <time>2018-10-04T07:56:44Z</time>
      </trkpt>
      <trkpt lat="38.3273920" lon="-0.7334410">
        <ele>189.9</ele>
        <time>2018-10-04T07:56:45Z</time>
      </trkpt>
      <trkpt lat="38.3274090" lon="-0.7334700">
        <ele>190.3</ele>
        <time>2018-10-04T07:56:46Z</time>
      </trkpt>
      <trkpt lat="38.3274280" lon="-0.7334980">
        <ele>190.7</ele>
        <time>2018-10-04T07:56:47Z</time>
      </trkpt>
      <trkpt lat="38.3274480" lon="-0.7335260">
        <ele>191.1</ele>
        <time>2018-10-04T07:56:48Z</time>
      </trkpt>
      <trkpt lat="38.3274690" lon="-0.7335500">
        <ele>191.6</ele>
        <time>2018-10-04T07:56:49Z</time>
      </trkpt>
      <trkpt lat="38.3274920" lon="-0.7335730">
        <ele>192.0</ele>
        <time>2018-10-04T07:56:50Z</time>
      </trkpt>
      <trkpt lat="38.3275150" lon="-0.7335950">
        <ele>192.3</ele>
        <time>2018-10-04T07:56:51Z</time>
      </trkpt>
      <trkpt lat="38.3275400" lon="-0.7336130">
        <ele>192.5</ele>
        <time>2018-10-04T07:56:52Z</time>
      </trkpt>
      <trkpt lat="38.3275650" lon="-0.7336310">
        <ele>192.7</ele>
        <time>2018-10-04T07:56:53Z</time>
      </trkpt>
      <trkpt lat="38.3275900" lon="-0.7336480">
        <ele>193.2</ele>
        <time>2018-10-04T07:56:54Z</time>
      </trkpt>
      <trkpt lat="38.3276150" lon="-0.7336660">
        <ele>193.6</ele>
        <time>2018-10-04T07:56:55Z</time>
      </trkpt>
      <trkpt lat="38.3276400" lon="-0.7336850">
        <ele>194.1</ele>
        <time>2018-10-04T07:56:56Z</time>
      </trkpt>
      <trkpt lat="38.3276650" lon="-0.7337040">
        <ele>194.6</ele>
        <time>2018-10-04T07:56:57Z</time>
      </trkpt>
      <trkpt lat="38.3276900" lon="-0.7337240">
        <ele>195.0</ele>
        <time>2018-10-04T07:56:58Z</time>
      </trkpt>
      <trkpt lat="38.3277150" lon="-0.7337420">
        <ele>195.5</ele>
        <time>2018-10-04T07:56:59Z</time>
      </trkpt>
      <trkpt lat="38.3277390" lon="-0.7337610">
        <ele>196.2</ele>
        <time>2018-10-04T07:57:00Z</time>
      </trkpt>
      <trkpt lat="38.3277620" lon="-0.7337800">
        <ele>196.8</ele>
        <time>2018-10-04T07:57:01Z</time>
      </trkpt>
      <trkpt lat="38.3277850" lon="-0.7337990">
        <ele>197.3</ele>
        <time>2018-10-04T07:57:02Z</time>
      </trkpt>
      <trkpt lat="38.3278080" lon="-0.7338170">
        <ele>197.7</ele>
        <time>2018-10-04T07:57:03Z</time>
      </trkpt>
      <trkpt lat="38.3278320" lon="-0.7338340">
        <ele>198.2</ele>
        <time>2018-10-04T07:57:04Z</time>
      </trkpt>
      <trkpt lat="38.3278560" lon="-0.7338490">
        <ele>198.5</ele>
        <time>2018-10-04T07:57:05Z</time>
      </trkpt>
      <trkpt lat="38.3278800" lon="-0.7338640">
        <ele>198.9</ele>
        <time>2018-10-04T07:57:06Z</time>
      </trkpt>
      <trkpt lat="38.3279040" lon="-0.7338770">
        <ele>199.3</ele>
        <time>2018-10-04T07:57:07Z</time>
      </trkpt>
      <trkpt lat="38.3279290" lon="-0.7338890">
        <ele>199.6</ele>
        <time>2018-10-04T07:57:08Z</time>
      </trkpt>
      <trkpt lat="38.3279540" lon="-0.7339010">
        <ele>199.9</ele>
        <time>2018-10-04T07:57:09Z</time>
      </trkpt>
      <trkpt lat="38.3279800" lon="-0.7339120">
        <ele>200.3</ele>
        <time>2018-10-04T07:57:10Z</time>
      </trkpt>
      <trkpt lat="38.3280060" lon="-0.7339220">
        <ele>200.6</ele>
        <time>2018-10-04T07:57:11Z</time>
      </trkpt>
      <trkpt lat="38.3280320" lon="-0.7339300">
        <ele>201.0</ele>
        <time>2018-10-04T07:57:12Z</time>
      </trkpt>
      <trkpt lat="38.3280590" lon="-0.7339410">
        <ele>201.4</ele>
        <time>2018-10-04T07:57:13Z</time>
      </trkpt>
      <trkpt lat="38.3280840" lon="-0.7339520">
        <ele>201.7</ele>
        <time>2018-10-04T07:57:14Z</time>
      </trkpt>
      <trkpt lat="38.3281100" lon="-0.7339610">
        <ele>202.1</ele>
        <time>2018-10-04T07:57:15Z</time>
      </trkpt>
      <trkpt lat="38.3281380" lon="-0.7339710">
        <ele>202.5</ele>
        <time>2018-10-04T07:57:16Z</time>
      </trkpt>
      <trkpt lat="38.3281660" lon="-0.7339800">
        <ele>202.9</ele>
        <time>2018-10-04T07:57:17Z</time>
      </trkpt>
      <trkpt lat="38.3281940" lon="-0.7339890">
        <ele>203.3</ele>
        <time>2018-10-04T07:57:18Z</time>
      </trkpt>
      <trkpt lat="38.3282230" lon="-0.7339940">
        <ele>203.7</ele>
        <time>2018-10-04T07:57:19Z</time>
      </trkpt>
      <trkpt lat="38.3282500" lon="-0.7340020">
        <ele>203.9</ele>
        <time>2018-10-04T07:57:20Z</time>
      </trkpt>
      <trkpt lat="38.3282780" lon="-0.7340070">
        <ele>204.1</ele>
        <time>2018-10-04T07:57:21Z</time>
      </trkpt>
      <trkpt lat="38.3283060" lon="-0.7340130">
        <ele>204.4</ele>
        <time>2018-10-04T07:57:22Z</time>
      </trkpt>
      <trkpt lat="38.3283330" lon="-0.7340190">
        <ele>204.7</ele>
        <time>2018-10-04T07:57:23Z</time>
      </trkpt>
      <trkpt lat="38.3283610" lon="-0.7340240">
        <ele>205.0</ele>
        <time>2018-10-04T07:57:24Z</time>
      </trkpt>
      <trkpt lat="38.3283890" lon="-0.7340280">
        <ele>205.4</ele>
        <time>2018-10-04T07:57:25Z</time>
      </trkpt>
      <trkpt lat="38.3284170" lon="-0.7340300">
        <ele>205.5</ele>
        <time>2018-10-04T07:57:26Z</time>
      </trkpt>
      <trkpt lat="38.3284460" lon="-0.7340320">
        <ele>205.7</ele>
        <time>2018-10-04T07:57:27Z</time>
      </trkpt>
      <trkpt lat="38.3284760" lon="-0.7340360">
        <ele>205.9</ele>
        <time>2018-10-04T07:57:28Z</time>
      </trkpt>
      <trkpt lat="38.3285050" lon="-0.7340420">
        <ele>206.2</ele>
        <time>2018-10-04T07:57:29Z</time>
      </trkpt>
      <trkpt lat="38.3285350" lon="-0.7340480">
        <ele>206.5</ele>
        <time>2018-10-04T07:57:30Z</time>
      </trkpt>
      <trkpt lat="38.3285650" lon="-0.7340550">
        <ele>206.8</ele>
        <time>2018-10-04T07:57:31Z</time>
      </trkpt>
      <trkpt lat="38.3285950" lon="-0.7340620">
        <ele>207.0</ele>
        <time>2018-10-04T07:57:32Z</time>
      </trkpt>
      <trkpt lat="38.3286250" lon="-0.7340720">
        <ele>207.2</ele>
        <time>2018-10-04T07:57:33Z</time>
      </trkpt>
      <trkpt lat="38.3286550" lon="-0.7340820">
        <ele>207.4</ele>
        <time>2018-10-04T07:57:34Z</time>
      </trkpt>
      <trkpt lat="38.3286850" lon="-0.7340910">
        <ele>207.7</ele>
        <time>2018-10-04T07:57:35Z</time>
      </trkpt>
      <trkpt lat="38.3287130" lon="-0.7341050">
        <ele>207.9</ele>
        <time>2018-10-04T07:57:36Z</time>
      </trkpt>
      <trkpt lat="38.3287420" lon="-0.7341210">
        <ele>208.1</ele>
        <time>2018-10-04T07:57:37Z</time>
      </trkpt>
      <trkpt lat="38.3287760" lon="-0.7341360">
        <ele>208.4</ele>
        <time>2018-10-04T07:57:38Z</time>
      </trkpt>
      <trkpt lat="38.3288130" lon="-0.7341470">
        <ele>208.5</ele>
        <time>2018-10-04T07:57:39Z</time>
      </trkpt>
      <trkpt lat="38.3288520" lon="-0.7341510">
        <ele>208.8</ele>
        <time>2018-10-04T07:57:40Z</time>
      </trkpt>
      <trkpt lat="38.3288910" lon="-0.7341500">
        <ele>209.1</ele>
        <time>2018-10-04T07:57:41Z</time>
      </trkpt>
      <trkpt lat="38.3289280" lon="-0.7341430">
        <ele>209.4</ele>
        <time>2018-10-04T07:57:42Z</time>
      </trkpt>
      <trkpt lat="38.3289620" lon="-0.7341330">
        <ele>209.7</ele>
        <time>2018-10-04T07:57:43Z</time>
      </trkpt>
      <trkpt lat="38.3289910" lon="-0.7341230">
        <ele>210.0</ele>
        <time>2018-10-04T07:57:44Z</time>
      </trkpt>
      <trkpt lat="38.3290170" lon="-0.7341120">
        <ele>210.3</ele>
        <time>2018-10-04T07:57:45Z</time>
      </trkpt>
      <trkpt lat="38.3290420" lon="-0.7341020">
        <ele>210.6</ele>
        <time>2018-10-04T07:57:46Z</time>
      </trkpt>
      <trkpt lat="38.3290670" lon="-0.7340900">
        <ele>210.9</ele>
        <time>2018-10-04T07:57:47Z</time>
      </trkpt>
      <trkpt lat="38.3290900" lon="-0.7340760">
        <ele>210.9</ele>
        <time>2018-10-04T07:57:48Z</time>
      </trkpt>
      <trkpt lat="38.3291130" lon="-0.7340610">
        <ele>211.3</ele>
        <time>2018-10-04T07:57:49Z</time>
      </trkpt>
      <trkpt lat="38.3291350" lon="-0.7340450">
        <ele>211.7</ele>
        <time>2018-10-04T07:57:50Z</time>
      </trkpt>
      <trkpt lat="38.3291520" lon="-0.7340230">
        <ele>211.7</ele>
        <time>2018-10-04T07:57:51Z</time>
      </trkpt>
      <trkpt lat="38.3291670" lon="-0.7339990">
        <ele>211.7</ele>
        <time>2018-10-04T07:57:52Z</time>
      </trkpt>
      <trkpt lat="38.3291810" lon="-0.7339740">
        <ele>212.0</ele>
        <time>2018-10-04T07:57:53Z</time>
      </trkpt>
      <trkpt lat="38.3291940" lon="-0.7339460">
        <ele>212.0</ele>
        <time>2018-10-04T07:57:54Z</time>
      </trkpt>
      <trkpt lat="38.3292080" lon="-0.7339190">
        <ele>212.4</ele>
        <time>2018-10-04T07:57:55Z</time>
      </trkpt>
      <trkpt lat="38.3292230" lon="-0.7338910">
        <ele>212.4</ele>
        <time>2018-10-04T07:57:56Z</time>
      </trkpt>
      <trkpt lat="38.3292360" lon="-0.7338610">
        <ele>212.7</ele>
        <time>2018-10-04T07:57:57Z</time>
      </trkpt>
      <trkpt lat="38.3292490" lon="-0.7338330">
        <ele>212.7</ele>
        <time>2018-10-04T07:57:58Z</time>
      </trkpt>
      <trkpt lat="38.3292630" lon="-0.7338030">
        <ele>212.8</ele>
        <time>2018-10-04T07:57:59Z</time>
      </trkpt>
      <trkpt lat="38.3292760" lon="-0.7337750">
        <ele>213.1</ele>
        <time>2018-10-04T07:58:00Z</time>
      </trkpt>
      <trkpt lat="38.3292890" lon="-0.7337450">
        <ele>213.1</ele>
        <time>2018-10-04T07:58:01Z</time>
      </trkpt>
      <trkpt lat="38.3293040" lon="-0.7337160">
        <ele>213.4</ele>
        <time>2018-10-04T07:58:02Z</time>
      </trkpt>
      <trkpt lat="38.3293210" lon="-0.7336900">
        <ele>213.4</ele>
        <time>2018-10-04T07:58:03Z</time>
      </trkpt>
      <trkpt lat="38.3293440" lon="-0.7336710">
        <ele>213.6</ele>
        <time>2018-10-04T07:58:04Z</time>
      </trkpt>
      <trkpt lat="38.3293710" lon="-0.7336620">
        <ele>213.9</ele>
        <time>2018-10-04T07:58:05Z</time>
      </trkpt>
      <trkpt lat="38.3294000" lon="-0.7336710">
        <ele>213.9</ele>
        <time>2018-10-04T07:58:06Z</time>
      </trkpt>
      <trkpt lat="38.3294240" lon="-0.7336880">
        <ele>214.2</ele>
        <time>2018-10-04T07:58:07Z</time>
      </trkpt>
      <trkpt lat="38.3294460" lon="-0.7337120">
        <ele>214.5</ele>
        <time>2018-10-04T07:58:08Z</time>
      </trkpt>
      <trkpt lat="38.3294680" lon="-0.7337380">
        <ele>214.6</ele>
        <time>2018-10-04T07:58:09Z</time>
      </trkpt>
      <trkpt lat="38.3294880" lon="-0.7337640">
        <ele>214.9</ele>
        <time>2018-10-04T07:58:10Z</time>
      </trkpt>
      <trkpt lat="38.3295090" lon="-0.7337900">
        <ele>215.3</ele>
        <time>2018-10-04T07:58:11Z</time>
      </trkpt>
      <trkpt lat="38.3295300" lon="-0.7338150">
        <ele>215.5</ele>
        <time>2018-10-04T07:58:12Z</time>
      </trkpt>
      <trkpt lat="38.3295470" lon="-0.7338390">
        <ele>215.8</ele>
        <time>2018-10-04T07:58:13Z</time>
      </trkpt>
      <trkpt lat="38.3295640" lon="-0.7338630">
        <ele>216.0</ele>
        <time>2018-10-04T07:58:14Z</time>
      </trkpt>
      <trkpt lat="38.3295830" lon="-0.7338900">
        <ele>216.4</ele>
        <time>2018-10-04T07:58:15Z</time>
      </trkpt>
      <trkpt lat="38.3296030" lon="-0.7339150">
        <ele>216.6</ele>
        <time>2018-10-04T07:58:16Z</time>
      </trkpt>
      <trkpt lat="38.3296210" lon="-0.7339410">
        <ele>217.2</ele>
        <time>2018-10-04T07:58:17Z</time>
      </trkpt>
      <trkpt lat="38.3296380" lon="-0.7339670">
        <ele>217.2</ele>
        <time>2018-10-04T07:58:18Z</time>
      </trkpt>
      <trkpt lat="38.3296560" lon="-0.7339920">
        <ele>217.9</ele>
        <time>2018-10-04T07:58:19Z</time>
      </trkpt>
      <trkpt lat="38.3296760" lon="-0.7340160">
        <ele>218.5</ele>
        <time>2018-10-04T07:58:20Z</time>
      </trkpt>
      <trkpt lat="38.3296950" lon="-0.7340380">
        <ele>218.7</ele>
        <time>2018-10-04T07:58:21Z</time>
      </trkpt>
      <trkpt lat="38.3297140" lon="-0.7340600">
        <ele>219.3</ele>
        <time>2018-10-04T07:58:22Z</time>
      </trkpt>
      <trkpt lat="38.3297280" lon="-0.7340820">
        <ele>219.4</ele>
        <time>2018-10-04T07:58:23Z</time>
      </trkpt>
      <trkpt lat="38.3297440" lon="-0.7341020">
        <ele>220.0</ele>
        <time>2018-10-04T07:58:24Z</time>
      </trkpt>
      <trkpt lat="38.3297590" lon="-0.7341240">
        <ele>220.1</ele>
        <time>2018-10-04T07:58:25Z</time>
      </trkpt>
      <trkpt lat="38.3297720" lon="-0.7341450">
        <ele>220.1</ele>
        <time>2018-10-04T07:58:26Z</time>
      </trkpt>
      <trkpt lat="38.3297880" lon="-0.7341660">
        <ele>220.7</ele>
        <time>2018-10-04T07:58:27Z</time>
      </trkpt>
      <trkpt lat="38.3298030" lon="-0.7341860">
        <ele>220.7</ele>
        <time>2018-10-04T07:58:28Z</time>
      </trkpt>
      <trkpt lat="38.3298180" lon="-0.7342060">
        <ele>221.4</ele>
        <time>2018-10-04T07:58:29Z</time>
      </trkpt>
      <trkpt lat="38.3298340" lon="-0.7342250">
        <ele>221.4</ele>
        <time>2018-10-04T07:58:30Z</time>
      </trkpt>
      <trkpt lat="38.3298500" lon="-0.7342440">
        <ele>222.0</ele>
        <time>2018-10-04T07:58:31Z</time>
      </trkpt>
      <trkpt lat="38.3298650" lon="-0.7342650">
        <ele>222.0</ele>
        <time>2018-10-04T07:58:32Z</time>
      </trkpt>
      <trkpt lat="38.3298800" lon="-0.7342850">
        <ele>222.7</ele>
        <time>2018-10-04T07:58:33Z</time>
      </trkpt>
      <trkpt lat="38.3298940" lon="-0.7343030">
        <ele>222.7</ele>
        <time>2018-10-04T07:58:34Z</time>
      </trkpt>
      <trkpt lat="38.3299090" lon="-0.7343200">
        <ele>223.4</ele>
        <time>2018-10-04T07:58:35Z</time>
      </trkpt>
      <trkpt lat="38.3299230" lon="-0.7343380">
        <ele>223.5</ele>
        <time>2018-10-04T07:58:36Z</time>
      </trkpt>
      <trkpt lat="38.3299390" lon="-0.7343560">
        <ele>223.5</ele>
        <time>2018-10-04T07:58:37Z</time>
      </trkpt>
      <trkpt lat="38.3299520" lon="-0.7343710">
        <ele>224.2</ele>
        <time>2018-10-04T07:58:38Z</time>
      </trkpt>
      <trkpt lat="38.3299630" lon="-0.7343870">
        <ele>224.2</ele>
        <time>2018-10-04T07:58:39Z</time>
      </trkpt>
      <trkpt lat="38.3299720" lon="-0.7344020">
        <ele>224.2</ele>
        <time>2018-10-04T07:58:40Z</time>
      </trkpt>
      <trkpt lat="38.3299770" lon="-0.7344190">
        <ele>224.9</ele>
        <time>2018-10-04T07:58:41Z</time>
      </trkpt>
      <trkpt lat="38.3299870" lon="-0.7344350">
        <ele>225.0</ele>
        <time>2018-10-04T07:58:42Z</time>
      </trkpt>
      <trkpt lat="38.3300000" lon="-0.7344500">
        <ele>225.0</ele>
        <time>2018-10-04T07:58:43Z</time>
      </trkpt>
      <trkpt lat="38.3300090" lon="-0.7344660">
        <ele>225.0</ele>
        <time>2018-10-04T07:58:44Z</time>
      </trkpt>
      <trkpt lat="38.3300200" lon="-0.7344800">
        <ele>225.6</ele>
        <time>2018-10-04T07:58:45Z</time>
      </trkpt>
      <trkpt lat="38.3300350" lon="-0.7344940">
        <ele>225.6</ele>
        <time>2018-10-04T07:58:46Z</time>
      </trkpt>
      <trkpt lat="38.3300500" lon="-0.7345080">
        <ele>226.2</ele>
        <time>2018-10-04T07:58:47Z</time>
      </trkpt>
      <trkpt lat="38.3300670" lon="-0.7345250">
        <ele>226.2</ele>
        <time>2018-10-04T07:58:48Z</time>
      </trkpt>
      <trkpt lat="38.3300820" lon="-0.7345450">
        <ele>226.8</ele>
        <time>2018-10-04T07:58:49Z</time>
      </trkpt>
      <trkpt lat="38.3300970" lon="-0.7345660">
        <ele>226.8</ele>
        <time>2018-10-04T07:58:50Z</time>
      </trkpt>
      <trkpt lat="38.3301110" lon="-0.7345880">
        <ele>227.4</ele>
        <time>2018-10-04T07:58:51Z</time>
      </trkpt>
      <trkpt lat="38.3301260" lon="-0.7346100">
        <ele>227.4</ele>
        <time>2018-10-04T07:58:52Z</time>
      </trkpt>
      <trkpt lat="38.3301420" lon="-0.7346330">
        <ele>227.2</ele>
        <time>2018-10-04T07:58:53Z</time>
      </trkpt>
      <trkpt lat="38.3301590" lon="-0.7346560">
        <ele>228.0</ele>
        <time>2018-10-04T07:58:54Z</time>
      </trkpt>
      <trkpt lat="38.3301770" lon="-0.7346830">
        <ele>227.8</ele>
        <time>2018-10-04T07:58:55Z</time>
      </trkpt>
      <trkpt lat="38.3301940" lon="-0.7347100">
        <ele>228.6</ele>
        <time>2018-10-04T07:58:56Z</time>
      </trkpt>
      <trkpt lat="38.3302120" lon="-0.7347390">
        <ele>229.3</ele>
        <time>2018-10-04T07:58:57Z</time>
      </trkpt>
      <trkpt lat="38.3302300" lon="-0.7347710">
        <ele>229.0</ele>
        <time>2018-10-04T07:58:58Z</time>
      </trkpt>
      <trkpt lat="38.3302470" lon="-0.7348040">
        <ele>229.6</ele>
        <time>2018-10-04T07:58:59Z</time>
      </trkpt>
      <trkpt lat="38.3302660" lon="-0.7348380">
        <ele>229.6</ele>
        <time>2018-10-04T07:59:00Z</time>
      </trkpt>
      <trkpt lat="38.3302820" lon="-0.7348740">
        <ele>230.1</ele>
        <time>2018-10-04T07:59:01Z</time>
      </trkpt>
      <trkpt lat="38.3302950" lon="-0.7349130">
        <ele>229.7</ele>
        <time>2018-10-04T07:59:02Z</time>
      </trkpt>
      <trkpt lat="38.3303080" lon="-0.7349540">
        <ele>229.3</ele>
        <time>2018-10-04T07:59:03Z</time>
      </trkpt>
      <trkpt lat="38.3303150" lon="-0.7349950">
        <ele>229.7</ele>
        <time>2018-10-04T07:59:04Z</time>
      </trkpt>
      <trkpt lat="38.3303180" lon="-0.7350430">
        <ele>229.2</ele>
        <time>2018-10-04T07:59:05Z</time>
      </trkpt>
      <trkpt lat="38.3303180" lon="-0.7350950">
        <ele>228.6</ele>
        <time>2018-10-04T07:59:06Z</time>
      </trkpt>
      <trkpt lat="38.3303160" lon="-0.7351480">
        <ele>227.6</ele>
        <time>2018-10-04T07:59:07Z</time>
      </trkpt>
      <trkpt lat="38.3303100" lon="-0.7352090">
        <ele>226.3</ele>
        <time>2018-10-04T07:59:08Z</time>
      </trkpt>
      <trkpt lat="38.3302960" lon="-0.7352770">
        <ele>225.3</ele>
        <time>2018-10-04T07:59:09Z</time>
      </trkpt>
      <trkpt lat="38.3302710" lon="-0.7353500">
        <ele>224.1</ele>
        <time>2018-10-04T07:59:10Z</time>
      </trkpt>
      <trkpt lat="38.3302390" lon="-0.7354330">
        <ele>222.7</ele>
        <time>2018-10-04T07:59:11Z</time>
      </trkpt>
      <trkpt lat="38.3301900" lon="-0.7355210">
        <ele>221.3</ele>
        <time>2018-10-04T07:59:12Z</time>
      </trkpt>
      <trkpt lat="38.3301340" lon="-0.7356150">
        <ele>219.2</ele>
        <time>2018-10-04T07:59:13Z</time>
      </trkpt>
      <trkpt lat="38.3300740" lon="-0.7357100">
        <ele>217.5</ele>
        <time>2018-10-04T07:59:14Z</time>
      </trkpt>
      <trkpt lat="38.3300150" lon="-0.7358010">
        <ele>216.3</ele>
        <time>2018-10-04T07:59:15Z</time>
      </trkpt>
      <trkpt lat="38.3299600" lon="-0.7358840">
        <ele>214.8</ele>
        <time>2018-10-04T07:59:16Z</time>
      </trkpt>
      <trkpt lat="38.3299090" lon="-0.7359480">
        <ele>214.1</ele>
        <time>2018-10-04T07:59:17Z</time>
      </trkpt>
      <trkpt lat="38.3298560" lon="-0.7359890">
        <ele>213.0</ele>
        <time>2018-10-04T07:59:18Z</time>
      </trkpt>
      <trkpt lat="38.3297980" lon="-0.7360060">
        <ele>212.0</ele>
        <time>2018-10-04T07:59:19Z</time>
      </trkpt>
      <trkpt lat="38.3297470" lon="-0.7359970">
        <ele>212.0</ele>
        <time>2018-10-04T07:59:20Z</time>
      </trkpt>
      <trkpt lat="38.3296970" lon="-0.7359810">
        <ele>211.2</ele>
        <time>2018-10-04T07:59:21Z</time>
      </trkpt>
      <trkpt lat="38.3296500" lon="-0.7359710">
        <ele>210.8</ele>
        <time>2018-10-04T07:59:22Z</time>
      </trkpt>
      <trkpt lat="38.3296120" lon="-0.7359640">
        <ele>210.4</ele>
        <time>2018-10-04T07:59:23Z</time>
      </trkpt>
      <trkpt lat="38.3295830" lon="-0.7359740">
        <ele>210.0</ele>
        <time>2018-10-04T07:59:24Z</time>
      </trkpt>
      <trkpt lat="38.3295680" lon="-0.7360050">
        <ele>209.5</ele>
        <time>2018-10-04T07:59:25Z</time>
      </trkpt>
      <trkpt lat="38.3295570" lon="-0.7360500">
        <ele>209.3</ele>
        <time>2018-10-04T07:59:26Z</time>
      </trkpt>
      <trkpt lat="38.3295550" lon="-0.7361070">
        <ele>209.0</ele>
        <time>2018-10-04T07:59:27Z</time>
      </trkpt>
      <trkpt lat="38.3295570" lon="-0.7361720">
        <ele>208.6</ele>
        <time>2018-10-04T07:59:28Z</time>
      </trkpt>
      <trkpt lat="38.3295590" lon="-0.7362460">
        <ele>208.3</ele>
        <time>2018-10-04T07:59:29Z</time>
      </trkpt>
      <trkpt lat="38.3295680" lon="-0.7363260">
        <ele>207.7</ele>
        <time>2018-10-04T07:59:30Z</time>
      </trkpt>
      <trkpt lat="38.3295940" lon="-0.7363980">
        <ele>207.7</ele>
        <time>2018-10-04T07:59:31Z</time>
      </trkpt>
      <trkpt lat="38.3296290" lon="-0.7364610">
        <ele>207.9</ele>
        <time>2018-10-04T07:59:32Z</time>
      </trkpt>
      <trkpt lat="38.3296700" lon="-0.7365090">
        <ele>208.0</ele>
        <time>2018-10-04T07:59:33Z</time>
      </trkpt>
      <trkpt lat="38.3297120" lon="-0.7365430">
        <ele>208.0</ele>
        <time>2018-10-04T07:59:34Z</time>
      </trkpt>
      <trkpt lat="38.3297480" lon="-0.7365750">
        <ele>207.9</ele>
        <time>2018-10-04T07:59:35Z</time>
      </trkpt>
      <trkpt lat="38.3297740" lon="-0.7366070">
        <ele>207.8</ele>
        <time>2018-10-04T07:59:36Z</time>
      </trkpt>
      <trkpt lat="38.3297850" lon="-0.7366420">
        <ele>207.7</ele>
        <time>2018-10-04T07:59:37Z</time>
      </trkpt>
      <trkpt lat="38.3297950" lon="-0.7366760">
        <ele>207.6</ele>
        <time>2018-10-04T07:59:38Z</time>
      </trkpt>
      <trkpt lat="38.3298040" lon="-0.7367120">
        <ele>207.5</ele>
        <time>2018-10-04T07:59:39Z</time>
      </trkpt>
      <trkpt lat="38.3298070" lon="-0.7367470">
        <ele>207.4</ele>
        <time>2018-10-04T07:59:40Z</time>
      </trkpt>
      <trkpt lat="38.3298080" lon="-0.7367830">
        <ele>207.3</ele>
        <time>2018-10-04T07:59:41Z</time>
      </trkpt>
      <trkpt lat="38.3298090" lon="-0.7368180">
        <ele>207.2</ele>
        <time>2018-10-04T07:59:42Z</time>
      </trkpt>
      <trkpt lat="38.3298070" lon="-0.7368530">
        <ele>207.2</ele>
        <time>2018-10-04T07:59:43Z</time>
      </trkpt>
      <trkpt lat="38.3298070" lon="-0.7368890">
        <ele>207.1</ele>
        <time>2018-10-04T07:59:44Z</time>
      </trkpt>
      <trkpt lat="38.3298040" lon="-0.7369230">
        <ele>207.0</ele>
        <time>2018-10-04T07:59:45Z</time>
      </trkpt>
      <trkpt lat="38.3298000" lon="-0.7369580">
        <ele>206.9</ele>
        <time>2018-10-04T07:59:46Z</time>
      </trkpt>
      <trkpt lat="38.3297940" lon="-0.7369950">
        <ele>206.9</ele>
        <time>2018-10-04T07:59:47Z</time>
      </trkpt>
      <trkpt lat="38.3297870" lon="-0.7370340">
        <ele>206.8</ele>
        <time>2018-10-04T07:59:48Z</time>
      </trkpt>
      <trkpt lat="38.3297790" lon="-0.7370740">
        <ele>206.8</ele>
        <time>2018-10-04T07:59:49Z</time>
      </trkpt>
      <trkpt lat="38.3297670" lon="-0.7371210">
        <ele>206.7</ele>
        <time>2018-10-04T07:59:50Z</time>
      </trkpt>
      <trkpt lat="38.3297550" lon="-0.7371780">
        <ele>206.7</ele>
        <time>2018-10-04T07:59:51Z</time>
      </trkpt>
      <trkpt lat="38.3297420" lon="-0.7372450">
        <ele>206.5</ele>
        <time>2018-10-04T07:59:52Z</time>
      </trkpt>
      <trkpt lat="38.3297290" lon="-0.7373180">
        <ele>206.2</ele>
        <time>2018-10-04T07:59:53Z</time>
      </trkpt>
      <trkpt lat="38.3297160" lon="-0.7374000">
        <ele>206.0</ele>
        <time>2018-10-04T07:59:54Z</time>
      </trkpt>
      <trkpt lat="38.3297080" lon="-0.7374850">
        <ele>205.7</ele>
        <time>2018-10-04T07:59:55Z</time>
      </trkpt>
      <trkpt lat="38.3297070" lon="-0.7375720">
        <ele>205.2</ele>
        <time>2018-10-04T07:59:56Z</time>
      </trkpt>
      <trkpt lat="38.3297160" lon="-0.7376590">
        <ele>205.0</ele>
        <time>2018-10-04T07:59:57Z</time>
      </trkpt>
      <trkpt lat="38.3297340" lon="-0.7377420">
        <ele>204.8</ele>
        <time>2018-10-04T07:59:58Z</time>
      </trkpt>
      <trkpt lat="38.3297600" lon="-0.7378180">
        <ele>204.7</ele>
        <time>2018-10-04T07:59:59Z</time>
      </trkpt>
      <trkpt lat="38.3297850" lon="-0.7378980">
        <ele>204.7</ele>
        <time>2018-10-04T08:00:00Z</time>
      </trkpt>
      <trkpt lat="38.3298100" lon="-0.7379830">
        <ele>204.9</ele>
        <time>2018-10-04T08:00:01Z</time>
      </trkpt>
      <trkpt lat="38.3298290" lon="-0.7380740">
        <ele>205.0</ele>
        <time>2018-10-04T08:00:02Z</time>
      </trkpt>
      <trkpt lat="38.3298390" lon="-0.7381750">
        <ele>205.4</ele>
        <time>2018-10-04T08:00:03Z</time>
      </trkpt>
      <trkpt lat="38.3298390" lon="-0.7382840">
        <ele>206.1</ele>
        <time>2018-10-04T08:00:04Z</time>
      </trkpt>
      <trkpt lat="38.3298290" lon="-0.7383970">
        <ele>206.2</ele>
        <time>2018-10-04T08:00:05Z</time>
      </trkpt>
      <trkpt lat="38.3298170" lon="-0.7384970">
        <ele>206.1</ele>
        <time>2018-10-04T08:00:06Z</time>
      </trkpt>
      <trkpt lat="38.3298040" lon="-0.7385950">
        <ele>206.3</ele>
        <time>2018-10-04T08:00:07Z</time>
      </trkpt>
      <trkpt lat="38.3298050" lon="-0.7386810">
        <ele>207.0</ele>
        <time>2018-10-04T08:00:08Z</time>
      </trkpt>
      <trkpt lat="38.3298290" lon="-0.7387490">
        <ele>208.0</ele>
        <time>2018-10-04T08:00:09Z</time>
      </trkpt>
      <trkpt lat="38.3298590" lon="-0.7388050">
        <ele>208.8</ele>
        <time>2018-10-04T08:00:10Z</time>
      </trkpt>
      <trkpt lat="38.3298920" lon="-0.7388510">
        <ele>209.7</ele>
        <time>2018-10-04T08:00:11Z</time>
      </trkpt>
      <trkpt lat="38.3299220" lon="-0.7388910">
        <ele>210.5</ele>
        <time>2018-10-04T08:00:12Z</time>
      </trkpt>
      <trkpt lat="38.3299490" lon="-0.7389280">
        <ele>211.3</ele>
        <time>2018-10-04T08:00:13Z</time>
      </trkpt>
      <trkpt lat="38.3299690" lon="-0.7389650">
        <ele>212.8</ele>
        <time>2018-10-04T08:00:14Z</time>
      </trkpt>
      <trkpt lat="38.3299860" lon="-0.7390020">
        <ele>214.1</ele>
        <time>2018-10-04T08:00:15Z</time>
      </trkpt>
      <trkpt lat="38.3300000" lon="-0.7390370">
        <ele>214.8</ele>
        <time>2018-10-04T08:00:16Z</time>
      </trkpt>
      <trkpt lat="38.3300100" lon="-0.7390690">
        <ele>215.3</ele>
        <time>2018-10-04T08:00:17Z</time>
      </trkpt>
      <trkpt lat="38.3300180" lon="-0.7390980">
        <ele>215.5</ele>
        <time>2018-10-04T08:00:18Z</time>
      </trkpt>
      <trkpt lat="38.3300220" lon="-0.7391260">
        <ele>215.6</ele>
        <time>2018-10-04T08:00:19Z</time>
      </trkpt>
      <trkpt lat="38.3300250" lon="-0.7391550">
        <ele>215.8</ele>
        <time>2018-10-04T08:00:20Z</time>
      </trkpt>
      <trkpt lat="38.3300250" lon="-0.7391820">
        <ele>216.1</ele>
        <time>2018-10-04T08:00:21Z</time>
      </trkpt>
      <trkpt lat="38.3300250" lon="-0.7392100">
        <ele>216.6</ele>
        <time>2018-10-04T08:00:22Z</time>
      </trkpt>
      <trkpt lat="38.3300240" lon="-0.7392370">
        <ele>217.0</ele>
        <time>2018-10-04T08:00:23Z</time>
      </trkpt>
      <trkpt lat="38.3300230" lon="-0.7392640">
        <ele>217.4</ele>
        <time>2018-10-04T08:00:24Z</time>
      </trkpt>
      <trkpt lat="38.3300190" lon="-0.7392900">
        <ele>217.6</ele>
        <time>2018-10-04T08:00:25Z</time>
      </trkpt>
      <trkpt lat="38.3300170" lon="-0.7393130">
        <ele>217.7</ele>
        <time>2018-10-04T08:00:26Z</time>
      </trkpt>
      <trkpt lat="38.3300150" lon="-0.7393360">
        <ele>217.8</ele>
        <time>2018-10-04T08:00:27Z</time>
      </trkpt>
      <trkpt lat="38.3300130" lon="-0.7393600">
        <ele>218.0</ele>
        <time>2018-10-04T08:00:28Z</time>
      </trkpt>
      <trkpt lat="38.3300100" lon="-0.7393840">
        <ele>218.0</ele>
        <time>2018-10-04T08:00:29Z</time>
      </trkpt>
      <trkpt lat="38.3300080" lon="-0.7394080">
        <ele>218.1</ele>
        <time>2018-10-04T08:00:30Z</time>
      </trkpt>
      <trkpt lat="38.3300100" lon="-0.7394350">
        <ele>218.2</ele>
        <time>2018-10-04T08:00:31Z</time>
      </trkpt>
      <trkpt lat="38.3300110" lon="-0.7394610">
        <ele>218.2</ele>
        <time>2018-10-04T08:00:32Z</time>
      </trkpt>
      <trkpt lat="38.3300110" lon="-0.7394880">
        <ele>218.3</ele>
        <time>2018-10-04T08:00:33Z</time>
      </trkpt>
      <trkpt lat="38.3300120" lon="-0.7395150">
        <ele>218.3</ele>
        <time>2018-10-04T08:00:34Z</time>
      </trkpt>
      <trkpt lat="38.3300130" lon="-0.7395440">
        <ele>218.4</ele>
        <time>2018-10-04T08:00:35Z</time>
      </trkpt>
      <trkpt lat="38.3300130" lon="-0.7395720">
        <ele>218.3</ele>
        <time>2018-10-04T08:00:36Z</time>
      </trkpt>
      <trkpt lat="38.3300120" lon="-0.7396010">
        <ele>218.0</ele>
        <time>2018-10-04T08:00:37Z</time>
      </trkpt>
      <trkpt lat="38.3300120" lon="-0.7396300">
        <ele>217.7</ele>
        <time>2018-10-04T08:00:38Z</time>
      </trkpt>
      <trkpt lat="38.3300160" lon="-0.7396580">
        <ele>217.4</ele>
        <time>2018-10-04T08:00:39Z</time>
      </trkpt>
      <trkpt lat="38.3300180" lon="-0.7396870">
        <ele>217.3</ele>
        <time>2018-10-04T08:00:40Z</time>
      </trkpt>
      <trkpt lat="38.3300210" lon="-0.7397170">
        <ele>217.2</ele>
        <time>2018-10-04T08:00:41Z</time>
      </trkpt>
      <trkpt lat="38.3300230" lon="-0.7397470">
        <ele>217.2</ele>
        <time>2018-10-04T08:00:42Z</time>
      </trkpt>
      <trkpt lat="38.3300240" lon="-0.7397760">
        <ele>217.1</ele>
        <time>2018-10-04T08:00:43Z</time>
      </trkpt>
      <trkpt lat="38.3300270" lon="-0.7398050">
        <ele>217.0</ele>
        <time>2018-10-04T08:00:44Z</time>
      </trkpt>
      <trkpt lat="38.3300300" lon="-0.7398340">
        <ele>216.8</ele>
        <time>2018-10-04T08:00:45Z</time>
      </trkpt>
      <trkpt lat="38.3300340" lon="-0.7398640">
        <ele>216.7</ele>
        <time>2018-10-04T08:00:46Z</time>
      </trkpt>
      <trkpt lat="38.3300370" lon="-0.7398950">
        <ele>216.5</ele>
        <time>2018-10-04T08:00:47Z</time>
      </trkpt>
      <trkpt lat="38.3300410" lon="-0.7399250">
        <ele>216.4</ele>
        <time>2018-10-04T08:00:48Z</time>
      </trkpt>
      <trkpt lat="38.3300440" lon="-0.7399560">
        <ele>216.3</ele>
        <time>2018-10-04T08:00:49Z</time>
      </trkpt>
      <trkpt lat="38.3300460" lon="-0.7399870">
        <ele>216.2</ele>
        <time>2018-10-04T08:00:50Z</time>
      </trkpt>
      <trkpt lat="38.3300500" lon="-0.7400170">
        <ele>216.2</ele>
        <time>2018-10-04T08:00:51Z</time>
      </trkpt>
      <trkpt lat="38.3300540" lon="-0.7400460">
        <ele>216.2</ele>
        <time>2018-10-04T08:00:52Z</time>
      </trkpt>
      <trkpt lat="38.3300580" lon="-0.7400750">
        <ele>216.2</ele>
        <time>2018-10-04T08:00:53Z</time>
      </trkpt>
      <trkpt lat="38.3300600" lon="-0.7401050">
        <ele>216.0</ele>
        <time>2018-10-04T08:00:54Z</time>
      </trkpt>
      <trkpt lat="38.3300640" lon="-0.7401340">
        <ele>215.8</ele>
        <time>2018-10-04T08:00:55Z</time>
      </trkpt>
      <trkpt lat="38.3300690" lon="-0.7401630">
        <ele>215.6</ele>
        <time>2018-10-04T08:00:56Z</time>
      </trkpt>
      <trkpt lat="38.3300740" lon="-0.7401930">
        <ele>215.3</ele>
        <time>2018-10-04T08:00:57Z</time>
      </trkpt>
      <trkpt lat="38.3300780" lon="-0.7402240">
        <ele>215.0</ele>
        <time>2018-10-04T08:00:58Z</time>
      </trkpt>
      <trkpt lat="38.3300840" lon="-0.7402580">
        <ele>214.7</ele>
        <time>2018-10-04T08:00:59Z</time>
      </trkpt>
      <trkpt lat="38.3300940" lon="-0.7402920">
        <ele>214.5</ele>
        <time>2018-10-04T08:01:00Z</time>
      </trkpt>
      <trkpt lat="38.3301070" lon="-0.7403290">
        <ele>214.8</ele>
        <time>2018-10-04T08:01:01Z</time>
      </trkpt>
      <trkpt lat="38.3301250" lon="-0.7403710">
        <ele>215.1</ele>
        <time>2018-10-04T08:01:02Z</time>
      </trkpt>
      <trkpt lat="38.3301450" lon="-0.7404140">
        <ele>215.2</ele>
        <time>2018-10-04T08:01:03Z</time>
      </trkpt>
      <trkpt lat="38.3301690" lon="-0.7404580">
        <ele>215.2</ele>
        <time>2018-10-04T08:01:04Z</time>
      </trkpt>
      <trkpt lat="38.3301970" lon="-0.7405050">
        <ele>215.4</ele>
        <time>2018-10-04T08:01:05Z</time>
      </trkpt>
      <trkpt lat="38.3302280" lon="-0.7405540">
        <ele>215.7</ele>
        <time>2018-10-04T08:01:06Z</time>
      </trkpt>
      <trkpt lat="38.3302610" lon="-0.7406080">
        <ele>215.6</ele>
        <time>2018-10-04T08:01:07Z</time>
      </trkpt>
      <trkpt lat="38.3302990" lon="-0.7406640">
        <ele>215.5</ele>
        <time>2018-10-04T08:01:08Z</time>
      </trkpt>
      <trkpt lat="38.3303400" lon="-0.7407220">
        <ele>215.8</ele>
        <time>2018-10-04T08:01:09Z</time>
      </trkpt>
      <trkpt lat="38.3303870" lon="-0.7407760">
        <ele>216.0</ele>
        <time>2018-10-04T08:01:10Z</time>
      </trkpt>
      <trkpt lat="38.3304370" lon="-0.7408180">
        <ele>216.4</ele>
        <time>2018-10-04T08:01:11Z</time>
      </trkpt>
      <trkpt lat="38.3305000" lon="-0.7408230">
        <ele>216.9</ele>
        <time>2018-10-04T08:01:12Z</time>
      </trkpt>
      <trkpt lat="38.3305600" lon="-0.7408220">
        <ele>217.9</ele>
        <time>2018-10-04T08:01:13Z</time>
      </trkpt>
      <trkpt lat="38.3306230" lon="-0.7408280">
        <ele>218.9</ele>
        <time>2018-10-04T08:01:14Z</time>
      </trkpt>
      <trkpt lat="38.3306850" lon="-0.7408530">
        <ele>219.7</ele>
        <time>2018-10-04T08:01:15Z</time>
      </trkpt>
      <trkpt lat="38.3307470" lon="-0.7409020">
        <ele>220.8</ele>
        <time>2018-10-04T08:01:16Z</time>
      </trkpt>
      <trkpt lat="38.3308070" lon="-0.7409660">
        <ele>221.7</ele>
        <time>2018-10-04T08:01:17Z</time>
      </trkpt>
      <trkpt lat="38.3308690" lon="-0.7410380">
        <ele>221.4</ele>
        <time>2018-10-04T08:01:18Z</time>
      </trkpt>
      <trkpt lat="38.3309280" lon="-0.7411160">
        <ele>222.4</ele>
        <time>2018-10-04T08:01:19Z</time>
      </trkpt>
      <trkpt lat="38.3309760" lon="-0.7411990">
        <ele>222.7</ele>
        <time>2018-10-04T08:01:20Z</time>
      </trkpt>
      <trkpt lat="38.3310070" lon="-0.7412760">
        <ele>222.7</ele>
        <time>2018-10-04T08:01:21Z</time>
      </trkpt>
      <trkpt lat="38.3310200" lon="-0.7413450">
        <ele>223.0</ele>
        <time>2018-10-04T08:01:22Z</time>
      </trkpt>
      <trkpt lat="38.3310190" lon="-0.7414080">
        <ele>223.1</ele>
        <time>2018-10-04T08:01:23Z</time>
      </trkpt>
      <trkpt lat="38.3310130" lon="-0.7414650">
        <ele>223.0</ele>
        <time>2018-10-04T08:01:24Z</time>
      </trkpt>
      <trkpt lat="38.3310010" lon="-0.7415210">
        <ele>223.0</ele>
        <time>2018-10-04T08:01:25Z</time>
      </trkpt>
      <trkpt lat="38.3309860" lon="-0.7415760">
        <ele>223.0</ele>
        <time>2018-10-04T08:01:26Z</time>
      </trkpt>
      <trkpt lat="38.3309690" lon="-0.7416300">
        <ele>222.8</ele>
        <time>2018-10-04T08:01:27Z</time>
      </trkpt>
      <trkpt lat="38.3309540" lon="-0.7416830">
        <ele>222.7</ele>
        <time>2018-10-04T08:01:28Z</time>
      </trkpt>
      <trkpt lat="38.3309420" lon="-0.7417350">
        <ele>222.6</ele>
        <time>2018-10-04T08:01:29Z</time>
      </trkpt>
      <trkpt lat="38.3309310" lon="-0.7417820">
        <ele>222.6</ele>
        <time>2018-10-04T08:01:30Z</time>
      </trkpt>
      <trkpt lat="38.3309200" lon="-0.7418250">
        <ele>222.7</ele>
        <time>2018-10-04T08:01:31Z</time>
      </trkpt>
      <trkpt lat="38.3309090" lon="-0.7418660">
        <ele>223.1</ele>
        <time>2018-10-04T08:01:32Z</time>
      </trkpt>
      <trkpt lat="38.3308960" lon="-0.7419030">
        <ele>223.5</ele>
        <time>2018-10-04T08:01:33Z</time>
      </trkpt>
      <trkpt lat="38.3308840" lon="-0.7419370">
        <ele>223.8</ele>
        <time>2018-10-04T08:01:34Z</time>
      </trkpt>
      <trkpt lat="38.3308700" lon="-0.7419700">
        <ele>224.0</ele>
        <time>2018-10-04T08:01:35Z</time>
      </trkpt>
      <trkpt lat="38.3308510" lon="-0.7419990">
        <ele>224.2</ele>
        <time>2018-10-04T08:01:36Z</time>
      </trkpt>
      <trkpt lat="38.3308290" lon="-0.7420280">
        <ele>224.3</ele>
        <time>2018-10-04T08:01:37Z</time>
      </trkpt>
      <trkpt lat="38.3308020" lon="-0.7420590">
        <ele>224.4</ele>
        <time>2018-10-04T08:01:38Z</time>
      </trkpt>
      <trkpt lat="38.3307740" lon="-0.7420970">
        <ele>224.8</ele>
        <time>2018-10-04T08:01:39Z</time>
      </trkpt>
      <trkpt lat="38.3307420" lon="-0.7421420">
        <ele>225.2</ele>
        <time>2018-10-04T08:01:40Z</time>
      </trkpt>
      <trkpt lat="38.3307090" lon="-0.7421950">
        <ele>225.5</ele>
        <time>2018-10-04T08:01:41Z</time>
      </trkpt>
      <trkpt lat="38.3306710" lon="-0.7422540">
        <ele>225.7</ele>
        <time>2018-10-04T08:01:42Z</time>
      </trkpt>
      <trkpt lat="38.3306320" lon="-0.7423170">
        <ele>226.0</ele>
        <time>2018-10-04T08:01:43Z</time>
      </trkpt>
      <trkpt lat="38.3305930" lon="-0.7423820">
        <ele>226.6</ele>
        <time>2018-10-04T08:01:44Z</time>
      </trkpt>
      <trkpt lat="38.3305540" lon="-0.7424500">
        <ele>226.7</ele>
        <time>2018-10-04T08:01:45Z</time>
      </trkpt>
      <trkpt lat="38.3305170" lon="-0.7425220">
        <ele>226.9</ele>
        <time>2018-10-04T08:01:46Z</time>
      </trkpt>
      <trkpt lat="38.3304840" lon="-0.7426000">
        <ele>227.2</ele>
        <time>2018-10-04T08:01:47Z</time>
      </trkpt>
      <trkpt lat="38.3304650" lon="-0.7426840">
        <ele>227.5</ele>
        <time>2018-10-04T08:01:48Z</time>
      </trkpt>
      <trkpt lat="38.3304720" lon="-0.7427540">
        <ele>227.8</ele>
        <time>2018-10-04T08:01:49Z</time>
      </trkpt>
      <trkpt lat="38.3304870" lon="-0.7428130">
        <ele>228.6</ele>
        <time>2018-10-04T08:01:50Z</time>
      </trkpt>
      <trkpt lat="38.3305030" lon="-0.7428610">
        <ele>229.4</ele>
        <time>2018-10-04T08:01:51Z</time>
      </trkpt>
      <trkpt lat="38.3305160" lon="-0.7429020">
        <ele>230.2</ele>
        <time>2018-10-04T08:01:52Z</time>
      </trkpt>
      <trkpt lat="38.3305230" lon="-0.7429370">
        <ele>230.8</ele>
        <time>2018-10-04T08:01:53Z</time>
      </trkpt>
      <trkpt lat="38.3305280" lon="-0.7429690">
        <ele>231.4</ele>
        <time>2018-10-04T08:01:54Z</time>
      </trkpt>
      <trkpt lat="38.3305320" lon="-0.7429980">
        <ele>231.9</ele>
        <time>2018-10-04T08:01:55Z</time>
      </trkpt>
      <trkpt lat="38.3305350" lon="-0.7430300">
        <ele>232.4</ele>
        <time>2018-10-04T08:01:56Z</time>
      </trkpt>
      <trkpt lat="38.3305370" lon="-0.7430640">
        <ele>233.0</ele>
        <time>2018-10-04T08:01:57Z</time>
      </trkpt>
      <trkpt lat="38.3305350" lon="-0.7431010">
        <ele>233.5</ele>
        <time>2018-10-04T08:01:58Z</time>
      </trkpt>
      <trkpt lat="38.3305330" lon="-0.7431370">
        <ele>233.9</ele>
        <time>2018-10-04T08:01:59Z</time>
      </trkpt>
      <trkpt lat="38.3305270" lon="-0.7431790">
        <ele>234.1</ele>
        <time>2018-10-04T08:02:00Z</time>
      </trkpt>
      <trkpt lat="38.3305230" lon="-0.7432180">
        <ele>234.1</ele>
        <time>2018-10-04T08:02:01Z</time>
      </trkpt>
      <trkpt lat="38.3305190" lon="-0.7432570">
        <ele>234.3</ele>
        <time>2018-10-04T08:02:02Z</time>
      </trkpt>
      <trkpt lat="38.3305140" lon="-0.7432970">
        <ele>234.7</ele>
        <time>2018-10-04T08:02:03Z</time>
      </trkpt>
      <trkpt lat="38.3305080" lon="-0.7433360">
        <ele>235.1</ele>
        <time>2018-10-04T08:02:04Z</time>
      </trkpt>
      <trkpt lat="38.3305030" lon="-0.7433750">
        <ele>235.5</ele>
        <time>2018-10-04T08:02:05Z</time>
      </trkpt>
      <trkpt lat="38.3305000" lon="-0.7434160">
        <ele>235.8</ele>
        <time>2018-10-04T08:02:06Z</time>
      </trkpt>
      <trkpt lat="38.3305010" lon="-0.7434590">
        <ele>235.9</ele>
        <time>2018-10-04T08:02:07Z</time>
      </trkpt>
      <trkpt lat="38.3305080" lon="-0.7435030">
        <ele>235.9</ele>
        <time>2018-10-04T08:02:08Z</time>
      </trkpt>
      <trkpt lat="38.3305210" lon="-0.7435430">
        <ele>236.2</ele>
        <time>2018-10-04T08:02:09Z</time>
      </trkpt>
      <trkpt lat="38.3305370" lon="-0.7435770">
        <ele>236.6</ele>
        <time>2018-10-04T08:02:10Z</time>
      </trkpt>
      <trkpt lat="38.3305530" lon="-0.7436070">
        <ele>237.2</ele>
        <time>2018-10-04T08:02:11Z</time>
      </trkpt>
      <trkpt lat="38.3305710" lon="-0.7436360">
        <ele>237.8</ele>
        <time>2018-10-04T08:02:12Z</time>
      </trkpt>
      <trkpt lat="38.3305880" lon="-0.7436650">
        <ele>238.2</ele>
        <time>2018-10-04T08:02:13Z</time>
      </trkpt>
      <trkpt lat="38.3306040" lon="-0.7436920">
        <ele>238.5</ele>
        <time>2018-10-04T08:02:14Z</time>
      </trkpt>
      <trkpt lat="38.3306180" lon="-0.7437190">
        <ele>238.7</ele>
        <time>2018-10-04T08:02:15Z</time>
      </trkpt>
      <trkpt lat="38.3306320" lon="-0.7437480">
        <ele>238.9</ele>
        <time>2018-10-04T08:02:16Z</time>
      </trkpt>
      <trkpt lat="38.3306430" lon="-0.7437800">
        <ele>239.0</ele>
        <time>2018-10-04T08:02:17Z</time>
      </trkpt>
      <trkpt lat="38.3306520" lon="-0.7438150">
        <ele>239.1</ele>
        <time>2018-10-04T08:02:18Z</time>
      </trkpt>
      <trkpt lat="38.3306610" lon="-0.7438510">
        <ele>239.1</ele>
        <time>2018-10-04T08:02:19Z</time>
      </trkpt>
      <trkpt lat="38.3306700" lon="-0.7438880">
        <ele>239.2</ele>
        <time>2018-10-04T08:02:20Z</time>
      </trkpt>
      <trkpt lat="38.3306770" lon="-0.7439250">
        <ele>239.2</ele>
        <time>2018-10-04T08:02:21Z</time>
      </trkpt>
      <trkpt lat="38.3306840" lon="-0.7439610">
        <ele>239.3</ele>
        <time>2018-10-04T08:02:22Z</time>
      </trkpt>
      <trkpt lat="38.3306910" lon="-0.7439960">
        <ele>239.3</ele>
        <time>2018-10-04T08:02:23Z</time>
      </trkpt>
      <trkpt lat="38.3306980" lon="-0.7440310">
        <ele>239.4</ele>
        <time>2018-10-04T08:02:24Z</time>
      </trkpt>
      <trkpt lat="38.3307030" lon="-0.7440660">
        <ele>239.4</ele>
        <time>2018-10-04T08:02:25Z</time>
      </trkpt>
      <trkpt lat="38.3307070" lon="-0.7441010">
        <ele>239.4</ele>
        <time>2018-10-04T08:02:26Z</time>
      </trkpt>
      <trkpt lat="38.3307080" lon="-0.7441360">
        <ele>239.2</ele>
        <time>2018-10-04T08:02:27Z</time>
      </trkpt>
      <trkpt lat="38.3307110" lon="-0.7441710">
        <ele>238.9</ele>
        <time>2018-10-04T08:02:28Z</time>
      </trkpt>
      <trkpt lat="38.3307130" lon="-0.7442060">
        <ele>238.7</ele>
        <time>2018-10-04T08:02:29Z</time>
      </trkpt>
      <trkpt lat="38.3307160" lon="-0.7442380">
        <ele>238.5</ele>
        <time>2018-10-04T08:02:30Z</time>
      </trkpt>
      <trkpt lat="38.3307170" lon="-0.7442700">
        <ele>238.2</ele>
        <time>2018-10-04T08:02:31Z</time>
      </trkpt>
      <trkpt lat="38.3307170" lon="-0.7443030">
        <ele>238.0</ele>
        <time>2018-10-04T08:02:32Z</time>
      </trkpt>
      <trkpt lat="38.3307170" lon="-0.7443350">
        <ele>237.7</ele>
        <time>2018-10-04T08:02:33Z</time>
      </trkpt>
      <trkpt lat="38.3307180" lon="-0.7443650">
        <ele>237.3</ele>
        <time>2018-10-04T08:02:34Z</time>
      </trkpt>
      <trkpt lat="38.3307210" lon="-0.7443950">
        <ele>237.0</ele>
        <time>2018-10-04T08:02:35Z</time>
      </trkpt>
      <trkpt lat="38.3307200" lon="-0.7444240">
        <ele>236.7</ele>
        <time>2018-10-04T08:02:36Z</time>
      </trkpt>
      <trkpt lat="38.3307180" lon="-0.7444520">
        <ele>236.5</ele>
        <time>2018-10-04T08:02:37Z</time>
      </trkpt>
      <trkpt lat="38.3307150" lon="-0.7444810">
        <ele>236.2</ele>
        <time>2018-10-04T08:02:38Z</time>
      </trkpt>
      <trkpt lat="38.3307150" lon="-0.7445090">
        <ele>236.0</ele>
        <time>2018-10-04T08:02:39Z</time>
      </trkpt>
      <trkpt lat="38.3307140" lon="-0.7445390">
        <ele>235.7</ele>
        <time>2018-10-04T08:02:40Z</time>
      </trkpt>
      <trkpt lat="38.3307130" lon="-0.7445690">
        <ele>235.4</ele>
        <time>2018-10-04T08:02:41Z</time>
      </trkpt>
      <trkpt lat="38.3307130" lon="-0.7446000">
        <ele>235.0</ele>
        <time>2018-10-04T08:02:42Z</time>
      </trkpt>
      <trkpt lat="38.3307150" lon="-0.7446350">
        <ele>234.7</ele>
        <time>2018-10-04T08:02:43Z</time>
      </trkpt>
      <trkpt lat="38.3307180" lon="-0.7446690">
        <ele>234.4</ele>
        <time>2018-10-04T08:02:44Z</time>
      </trkpt>
      <trkpt lat="38.3307260" lon="-0.7447040">
        <ele>234.2</ele>
        <time>2018-10-04T08:02:45Z</time>
      </trkpt>
      <trkpt lat="38.3307360" lon="-0.7447390">
        <ele>234.0</ele>
        <time>2018-10-04T08:02:46Z</time>
      </trkpt>
      <trkpt lat="38.3307470" lon="-0.7447740">
        <ele>233.8</ele>
        <time>2018-10-04T08:02:47Z</time>
      </trkpt>
      <trkpt lat="38.3307610" lon="-0.7448080">
        <ele>233.7</ele>
        <time>2018-10-04T08:02:48Z</time>
      </trkpt>
      <trkpt lat="38.3307780" lon="-0.7448410">
        <ele>233.4</ele>
        <time>2018-10-04T08:02:49Z</time>
      </trkpt>
      <trkpt lat="38.3307980" lon="-0.7448740">
        <ele>233.1</ele>
        <time>2018-10-04T08:02:50Z</time>
      </trkpt>
      <trkpt lat="38.3308200" lon="-0.7449050">
        <ele>232.9</ele>
        <time>2018-10-04T08:02:51Z</time>
      </trkpt>
      <trkpt lat="38.3308430" lon="-0.7449360">
        <ele>232.8</ele>
        <time>2018-10-04T08:02:52Z</time>
      </trkpt>
      <trkpt lat="38.3308650" lon="-0.7449690">
        <ele>232.9</ele>
        <time>2018-10-04T08:02:53Z</time>
      </trkpt>
      <trkpt lat="38.3308860" lon="-0.7450030">
        <ele>232.9</ele>
        <time>2018-10-04T08:02:54Z</time>
      </trkpt>
      <trkpt lat="38.3309060" lon="-0.7450390">
        <ele>232.6</ele>
        <time>2018-10-04T08:02:55Z</time>
      </trkpt>
      <trkpt lat="38.3309270" lon="-0.7450760">
        <ele>232.3</ele>
        <time>2018-10-04T08:02:56Z</time>
      </trkpt>
      <trkpt lat="38.3309500" lon="-0.7451120">
        <ele>232.0</ele>
        <time>2018-10-04T08:02:57Z</time>
      </trkpt>
      <trkpt lat="38.3309710" lon="-0.7451510">
        <ele>231.8</ele>
        <time>2018-10-04T08:02:58Z</time>
      </trkpt>
      <trkpt lat="38.3309950" lon="-0.7451860">
        <ele>232.0</ele>
        <time>2018-10-04T08:02:59Z</time>
      </trkpt>
      <trkpt lat="38.3310210" lon="-0.7452140">
        <ele>232.1</ele>
        <time>2018-10-04T08:03:00Z</time>
      </trkpt>
      <trkpt lat="38.3310490" lon="-0.7452410">
        <ele>232.0</ele>
        <time>2018-10-04T08:03:01Z</time>
      </trkpt>
      <trkpt lat="38.3310780" lon="-0.7452670">
        <ele>232.0</ele>
        <time>2018-10-04T08:03:02Z</time>
      </trkpt>
      <trkpt lat="38.3311040" lon="-0.7452930">
        <ele>232.2</ele>
        <time>2018-10-04T08:03:03Z</time>
      </trkpt>
      <trkpt lat="38.3311300" lon="-0.7453160">
        <ele>232.4</ele>
        <time>2018-10-04T08:03:04Z</time>
      </trkpt>
      <trkpt lat="38.3311560" lon="-0.7453370">
        <ele>232.7</ele>
        <time>2018-10-04T08:03:05Z</time>
      </trkpt>
      <trkpt lat="38.3311780" lon="-0.7453620">
        <ele>233.0</ele>
        <time>2018-10-04T08:03:06Z</time>
      </trkpt>
      <trkpt lat="38.3311990" lon="-0.7453900">
        <ele>233.3</ele>
        <time>2018-10-04T08:03:07Z</time>
      </trkpt>
      <trkpt lat="38.3312140" lon="-0.7454200">
        <ele>233.5</ele>
        <time>2018-10-04T08:03:08Z</time>
      </trkpt>
      <trkpt lat="38.3312260" lon="-0.7454520">
        <ele>233.7</ele>
        <time>2018-10-04T08:03:09Z</time>
      </trkpt>
      <trkpt lat="38.3312350" lon="-0.7454850">
        <ele>234.0</ele>
        <time>2018-10-04T08:03:10Z</time>
      </trkpt>
      <trkpt lat="38.3312420" lon="-0.7455210">
        <ele>233.8</ele>
        <time>2018-10-04T08:03:11Z</time>
      </trkpt>
      <trkpt lat="38.3312480" lon="-0.7455580">
        <ele>233.5</ele>
        <time>2018-10-04T08:03:12Z</time>
      </trkpt>
      <trkpt lat="38.3312560" lon="-0.7455960">
        <ele>233.2</ele>
        <time>2018-10-04T08:03:13Z</time>
      </trkpt>
      <trkpt lat="38.3312640" lon="-0.7456360">
        <ele>232.9</ele>
        <time>2018-10-04T08:03:14Z</time>
      </trkpt>
      <trkpt lat="38.3312770" lon="-0.7456770">
        <ele>232.6</ele>
        <time>2018-10-04T08:03:15Z</time>
      </trkpt>
      <trkpt lat="38.3312940" lon="-0.7457190">
        <ele>232.6</ele>
        <time>2018-10-04T08:03:16Z</time>
      </trkpt>
      <trkpt lat="38.3313120" lon="-0.7457670">
        <ele>232.6</ele>
        <time>2018-10-04T08:03:17Z</time>
      </trkpt>
      <trkpt lat="38.3313290" lon="-0.7458200">
        <ele>232.6</ele>
        <time>2018-10-04T08:03:18Z</time>
      </trkpt>
      <trkpt lat="38.3313480" lon="-0.7458750">
        <ele>232.6</ele>
        <time>2018-10-04T08:03:19Z</time>
      </trkpt>
      <trkpt lat="38.3313710" lon="-0.7459300">
        <ele>232.5</ele>
        <time>2018-10-04T08:03:20Z</time>
      </trkpt>
      <trkpt lat="38.3313940" lon="-0.7459840">
        <ele>232.4</ele>
        <time>2018-10-04T08:03:21Z</time>
      </trkpt>
      <trkpt lat="38.3314170" lon="-0.7460400">
        <ele>232.6</ele>
        <time>2018-10-04T08:03:22Z</time>
      </trkpt>
      <trkpt lat="38.3314380" lon="-0.7460970">
        <ele>232.8</ele>
        <time>2018-10-04T08:03:23Z</time>
      </trkpt>
      <trkpt lat="38.3314600" lon="-0.7461550">
        <ele>233.1</ele>
        <time>2018-10-04T08:03:24Z</time>
      </trkpt>
      <trkpt lat="38.3314800" lon="-0.7462140">
        <ele>233.5</ele>
        <time>2018-10-04T08:03:25Z</time>
      </trkpt>
      <trkpt lat="38.3315020" lon="-0.7462730">
        <ele>234.3</ele>
        <time>2018-10-04T08:03:26Z</time>
      </trkpt>
      <trkpt lat="38.3315250" lon="-0.7463320">
        <ele>234.7</ele>
        <time>2018-10-04T08:03:27Z</time>
      </trkpt>
      <trkpt lat="38.3315470" lon="-0.7463900">
        <ele>234.9</ele>
        <time>2018-10-04T08:03:28Z</time>
      </trkpt>
      <trkpt lat="38.3315720" lon="-0.7464460">
        <ele>234.8</ele>
        <time>2018-10-04T08:03:29Z</time>
      </trkpt>
      <trkpt lat="38.3315950" lon="-0.7465020">
        <ele>234.7</ele>
        <time>2018-10-04T08:03:30Z</time>
      </trkpt>
      <trkpt lat="38.3316170" lon="-0.7465610">
        <ele>234.8</ele>
        <time>2018-10-04T08:03:31Z</time>
      </trkpt>
      <trkpt lat="38.3316390" lon="-0.7466200">
        <ele>235.0</ele>
        <time>2018-10-04T08:03:32Z</time>
      </trkpt>
      <trkpt lat="38.3316630" lon="-0.7466780">
        <ele>235.1</ele>
        <time>2018-10-04T08:03:33Z</time>
      </trkpt>
      <trkpt lat="38.3316870" lon="-0.7467350">
        <ele>235.7</ele>
        <time>2018-10-04T08:03:34Z</time>
      </trkpt>
      <trkpt lat="38.3317110" lon="-0.7467910">
        <ele>236.4</ele>
        <time>2018-10-04T08:03:35Z</time>
      </trkpt>
      <trkpt lat="38.3317360" lon="-0.7468470">
        <ele>236.8</ele>
        <time>2018-10-04T08:03:36Z</time>
      </trkpt>
      <trkpt lat="38.3317630" lon="-0.7469020">
        <ele>237.1</ele>
        <time>2018-10-04T08:03:37Z</time>
      </trkpt>
      <trkpt lat="38.3317860" lon="-0.7469590">
        <ele>237.3</ele>
        <time>2018-10-04T08:03:38Z</time>
      </trkpt>
      <trkpt lat="38.3318080" lon="-0.7470160">
        <ele>237.5</ele>
        <time>2018-10-04T08:03:39Z</time>
      </trkpt>
      <trkpt lat="38.3318310" lon="-0.7470750">
        <ele>237.5</ele>
        <time>2018-10-04T08:03:40Z</time>
      </trkpt>
      <trkpt lat="38.3318540" lon="-0.7471370">
        <ele>237.6</ele>
        <time>2018-10-04T08:03:41Z</time>
      </trkpt>
      <trkpt lat="38.3318780" lon="-0.7472000">
        <ele>237.8</ele>
        <time>2018-10-04T08:03:42Z</time>
      </trkpt>
      <trkpt lat="38.3319040" lon="-0.7472650">
        <ele>238.4</ele>
        <time>2018-10-04T08:03:43Z</time>
      </trkpt>
      <trkpt lat="38.3319310" lon="-0.7473250">
        <ele>238.7</ele>
        <time>2018-10-04T08:03:44Z</time>
      </trkpt>
      <trkpt lat="38.3319550" lon="-0.7473850">
        <ele>238.8</ele>
        <time>2018-10-04T08:03:45Z</time>
      </trkpt>
      <trkpt lat="38.3319780" lon="-0.7474450">
        <ele>239.0</ele>
        <time>2018-10-04T08:03:46Z</time>
      </trkpt>
      <trkpt lat="38.3320010" lon="-0.7475060">
        <ele>239.1</ele>
        <time>2018-10-04T08:03:47Z</time>
      </trkpt>
      <trkpt lat="38.3320260" lon="-0.7475650">
        <ele>239.0</ele>
        <time>2018-10-04T08:03:48Z</time>
      </trkpt>
      <trkpt lat="38.3320500" lon="-0.7476270">
        <ele>239.0</ele>
        <time>2018-10-04T08:03:49Z</time>
      </trkpt>
      <trkpt lat="38.3320740" lon="-0.7476890">
        <ele>239.2</ele>
        <time>2018-10-04T08:03:50Z</time>
      </trkpt>
      <trkpt lat="38.3320990" lon="-0.7477500">
        <ele>239.7</ele>
        <time>2018-10-04T08:03:51Z</time>
      </trkpt>
      <trkpt lat="38.3321250" lon="-0.7478120">
        <ele>240.3</ele>
        <time>2018-10-04T08:03:52Z</time>
      </trkpt>
      <trkpt lat="38.3321500" lon="-0.7478730">
        <ele>240.0</ele>
        <time>2018-10-04T08:03:53Z</time>
      </trkpt>
      <trkpt lat="38.3321750" lon="-0.7479330">
        <ele>239.9</ele>
        <time>2018-10-04T08:03:54Z</time>
      </trkpt>
      <trkpt lat="38.3321990" lon="-0.7479930">
        <ele>239.9</ele>
        <time>2018-10-04T08:03:55Z</time>
      </trkpt>
      <trkpt lat="38.3322220" lon="-0.7480510">
        <ele>239.8</ele>
        <time>2018-10-04T08:03:56Z</time>
      </trkpt>
      <trkpt lat="38.3322440" lon="-0.7481080">
        <ele>239.5</ele>
        <time>2018-10-04T08:03:57Z</time>
      </trkpt>
      <trkpt lat="38.3322680" lon="-0.7481640">
        <ele>239.5</ele>
        <time>2018-10-04T08:03:58Z</time>
      </trkpt>
      <trkpt lat="38.3322880" lon="-0.7482200">
        <ele>239.5</ele>
        <time>2018-10-04T08:03:59Z</time>
      </trkpt>
      <trkpt lat="38.3323080" lon="-0.7482740">
        <ele>239.8</ele>
        <time>2018-10-04T08:04:00Z</time>
      </trkpt>
      <trkpt lat="38.3323280" lon="-0.7483240">
        <ele>239.8</ele>
        <time>2018-10-04T08:04:01Z</time>
      </trkpt>
      <trkpt lat="38.3323490" lon="-0.7483730">
        <ele>239.5</ele>
        <time>2018-10-04T08:04:02Z</time>
      </trkpt>
      <trkpt lat="38.3323700" lon="-0.7484210">
        <ele>239.1</ele>
        <time>2018-10-04T08:04:03Z</time>
      </trkpt>
      <trkpt lat="38.3323910" lon="-0.7484690">
        <ele>239.0</ele>
        <time>2018-10-04T08:04:04Z</time>
      </trkpt>
      <trkpt lat="38.3324160" lon="-0.7485150">
        <ele>238.9</ele>
        <time>2018-10-04T08:04:05Z</time>
      </trkpt>
      <trkpt lat="38.3324420" lon="-0.7485590">
        <ele>239.0</ele>
        <time>2018-10-04T08:04:06Z</time>
      </trkpt>
      <trkpt lat="38.3324720" lon="-0.7485970">
        <ele>238.9</ele>
        <time>2018-10-04T08:04:07Z</time>
      </trkpt>
      <trkpt lat="38.3325060" lon="-0.7486270">
        <ele>238.8</ele>
        <time>2018-10-04T08:04:08Z</time>
      </trkpt>
      <trkpt lat="38.3325430" lon="-0.7486520">
        <ele>239.2</ele>
        <time>2018-10-04T08:04:09Z</time>
      </trkpt>
      <trkpt lat="38.3325820" lon="-0.7486730">
        <ele>239.9</ele>
        <time>2018-10-04T08:04:10Z</time>
      </trkpt>
      <trkpt lat="38.3326230" lon="-0.7486900">
        <ele>240.4</ele>
        <time>2018-10-04T08:04:11Z</time>
      </trkpt>
      <trkpt lat="38.3326660" lon="-0.7486990">
        <ele>240.9</ele>
        <time>2018-10-04T08:04:12Z</time>
      </trkpt>
      <trkpt lat="38.3327120" lon="-0.7486990">
        <ele>241.6</ele>
        <time>2018-10-04T08:04:13Z</time>
      </trkpt>
      <trkpt lat="38.3327580" lon="-0.7486950">
        <ele>242.1</ele>
        <time>2018-10-04T08:04:14Z</time>
      </trkpt>
      <trkpt lat="38.3328060" lon="-0.7486870">
        <ele>242.8</ele>
        <time>2018-10-04T08:04:15Z</time>
      </trkpt>
      <trkpt lat="38.3328540" lon="-0.7486740">
        <ele>244.1</ele>
        <time>2018-10-04T08:04:16Z</time>
      </trkpt>
      <trkpt lat="38.3329010" lon="-0.7486610">
        <ele>245.1</ele>
        <time>2018-10-04T08:04:17Z</time>
      </trkpt>
      <trkpt lat="38.3329490" lon="-0.7486480">
        <ele>246.3</ele>
        <time>2018-10-04T08:04:18Z</time>
      </trkpt>
      <trkpt lat="38.3329970" lon="-0.7486400">
        <ele>247.6</ele>
        <time>2018-10-04T08:04:19Z</time>
      </trkpt>
      <trkpt lat="38.3330460" lon="-0.7486410">
        <ele>248.5</ele>
        <time>2018-10-04T08:04:20Z</time>
      </trkpt>
      <trkpt lat="38.3330940" lon="-0.7486500">
        <ele>249.5</ele>
        <time>2018-10-04T08:04:21Z</time>
      </trkpt>
      <trkpt lat="38.3331390" lon="-0.7486660">
        <ele>250.6</ele>
        <time>2018-10-04T08:04:22Z</time>
      </trkpt>
      <trkpt lat="38.3331820" lon="-0.7486910">
        <ele>252.2</ele>
        <time>2018-10-04T08:04:23Z</time>
      </trkpt>
      <trkpt lat="38.3332180" lon="-0.7487300">
        <ele>252.6</ele>
        <time>2018-10-04T08:04:24Z</time>
      </trkpt>
      <trkpt lat="38.3332450" lon="-0.7487770">
        <ele>252.6</ele>
        <time>2018-10-04T08:04:25Z</time>
      </trkpt>
      <trkpt lat="38.3332590" lon="-0.7488320">
        <ele>252.8</ele>
        <time>2018-10-04T08:04:26Z</time>
      </trkpt>
      <trkpt lat="38.3332680" lon="-0.7488880">
        <ele>252.7</ele>
        <time>2018-10-04T08:04:27Z</time>
      </trkpt>
      <trkpt lat="38.3332760" lon="-0.7489450">
        <ele>252.5</ele>
        <time>2018-10-04T08:04:28Z</time>
      </trkpt>
      <trkpt lat="38.3332830" lon="-0.7490020">
        <ele>252.0</ele>
        <time>2018-10-04T08:04:29Z</time>
      </trkpt>
      <trkpt lat="38.3332870" lon="-0.7490590">
        <ele>251.3</ele>
        <time>2018-10-04T08:04:30Z</time>
      </trkpt>
      <trkpt lat="38.3332900" lon="-0.7491160">
        <ele>250.5</ele>
        <time>2018-10-04T08:04:31Z</time>
      </trkpt>
      <trkpt lat="38.3332920" lon="-0.7491740">
        <ele>249.9</ele>
        <time>2018-10-04T08:04:32Z</time>
      </trkpt>
      <trkpt lat="38.3332960" lon="-0.7492320">
        <ele>249.6</ele>
        <time>2018-10-04T08:04:33Z</time>
      </trkpt>
      <trkpt lat="38.3333000" lon="-0.7492880">
        <ele>249.1</ele>
        <time>2018-10-04T08:04:34Z</time>
      </trkpt>
      <trkpt lat="38.3333060" lon="-0.7493430">
        <ele>248.7</ele>
        <time>2018-10-04T08:04:35Z</time>
      </trkpt>
      <trkpt lat="38.3333120" lon="-0.7494020">
        <ele>248.0</ele>
        <time>2018-10-04T08:04:36Z</time>
      </trkpt>
      <trkpt lat="38.3333200" lon="-0.7494630">
        <ele>247.1</ele>
        <time>2018-10-04T08:04:37Z</time>
      </trkpt>
      <trkpt lat="38.3333290" lon="-0.7495300">
        <ele>246.8</ele>
        <time>2018-10-04T08:04:38Z</time>
      </trkpt>
      <trkpt lat="38.3333360" lon="-0.7496000">
        <ele>246.4</ele>
        <time>2018-10-04T08:04:39Z</time>
      </trkpt>
      <trkpt lat="38.3333420" lon="-0.7496720">
        <ele>245.4</ele>
        <time>2018-10-04T08:04:40Z</time>
      </trkpt>
      <trkpt lat="38.3333470" lon="-0.7497460">
        <ele>244.5</ele>
        <time>2018-10-04T08:04:41Z</time>
      </trkpt>
      <trkpt lat="38.3333520" lon="-0.7498200">
        <ele>243.7</ele>
        <time>2018-10-04T08:04:42Z</time>
      </trkpt>
      <trkpt lat="38.3333630" lon="-0.7498940">
        <ele>243.1</ele>
        <time>2018-10-04T08:04:43Z</time>
      </trkpt>
      <trkpt lat="38.3333860" lon="-0.7499620">
        <ele>243.3</ele>
        <time>2018-10-04T08:04:44Z</time>
      </trkpt>
      <trkpt lat="38.3334200" lon="-0.7500240">
        <ele>243.5</ele>
        <time>2018-10-04T08:04:45Z</time>
      </trkpt>
      <trkpt lat="38.3334590" lon="-0.7500820">
        <ele>243.4</ele>
        <time>2018-10-04T08:04:46Z</time>
      </trkpt>
      <trkpt lat="38.3335000" lon="-0.7501370">
        <ele>243.4</ele>
        <time>2018-10-04T08:04:47Z</time>
      </trkpt>
      <trkpt lat="38.3335400" lon="-0.7501950">
        <ele>243.7</ele>
        <time>2018-10-04T08:04:48Z</time>
      </trkpt>
      <trkpt lat="38.3335810" lon="-0.7502520">
        <ele>243.8</ele>
        <time>2018-10-04T08:04:49Z</time>
      </trkpt>
      <trkpt lat="38.3336200" lon="-0.7503120">
        <ele>244.3</ele>
        <time>2018-10-04T08:04:50Z</time>
      </trkpt>
      <trkpt lat="38.3336580" lon="-0.7503720">
        <ele>244.7</ele>
        <time>2018-10-04T08:04:51Z</time>
      </trkpt>
      <trkpt lat="38.3336970" lon="-0.7504310">
        <ele>244.9</ele>
        <time>2018-10-04T08:04:52Z</time>
      </trkpt>
      <trkpt lat="38.3337400" lon="-0.7504870">
        <ele>245.0</ele>
        <time>2018-10-04T08:04:53Z</time>
      </trkpt>
      <trkpt lat="38.3337810" lon="-0.7505420">
        <ele>245.5</ele>
        <time>2018-10-04T08:04:54Z</time>
      </trkpt>
      <trkpt lat="38.3338230" lon="-0.7505950">
        <ele>246.1</ele>
        <time>2018-10-04T08:04:55Z</time>
      </trkpt>
      <trkpt lat="38.3338670" lon="-0.7506440">
        <ele>246.7</ele>
        <time>2018-10-04T08:04:56Z</time>
      </trkpt>
      <trkpt lat="38.3339110" lon="-0.7506910">
        <ele>247.1</ele>
        <time>2018-10-04T08:04:57Z</time>
      </trkpt>
      <trkpt lat="38.3339560" lon="-0.7507350">
        <ele>247.5</ele>
        <time>2018-10-04T08:04:58Z</time>
      </trkpt>
      <trkpt lat="38.3340030" lon="-0.7507710">
        <ele>247.7</ele>
        <time>2018-10-04T08:04:59Z</time>
      </trkpt>
      <trkpt lat="38.3340520" lon="-0.7507950">
        <ele>247.8</ele>
        <time>2018-10-04T08:05:00Z</time>
      </trkpt>
      <trkpt lat="38.3341040" lon="-0.7508000">
        <ele>248.1</ele>
        <time>2018-10-04T08:05:01Z</time>
      </trkpt>
      <trkpt lat="38.3341540" lon="-0.7507890">
        <ele>249.0</ele>
        <time>2018-10-04T08:05:02Z</time>
      </trkpt>
      <trkpt lat="38.3342020" lon="-0.7507780">
        <ele>249.5</ele>
        <time>2018-10-04T08:05:03Z</time>
      </trkpt>
      <trkpt lat="38.3342470" lon="-0.7507810">
        <ele>249.8</ele>
        <time>2018-10-04T08:05:04Z</time>
      </trkpt>
      <trkpt lat="38.3342860" lon="-0.7508070">
        <ele>250.1</ele>
        <time>2018-10-04T08:05:05Z</time>
      </trkpt>
      <trkpt lat="38.3343040" lon="-0.7508530">
        <ele>250.1</ele>
        <time>2018-10-04T08:05:06Z</time>
      </trkpt>
      <trkpt lat="38.3343170" lon="-0.7509040">
        <ele>249.5</ele>
        <time>2018-10-04T08:05:07Z</time>
      </trkpt>
      <trkpt lat="38.3343230" lon="-0.7509570">
        <ele>249.2</ele>
        <time>2018-10-04T08:05:08Z</time>
      </trkpt>
      <trkpt lat="38.3343270" lon="-0.7510100">
        <ele>248.7</ele>
        <time>2018-10-04T08:05:09Z</time>
      </trkpt>
      <trkpt lat="38.3343310" lon="-0.7510600">
        <ele>248.2</ele>
        <time>2018-10-04T08:05:10Z</time>
      </trkpt>
      <trkpt lat="38.3343330" lon="-0.7511090">
        <ele>248.0</ele>
        <time>2018-10-04T08:05:11Z</time>
      </trkpt>
      <trkpt lat="38.3343360" lon="-0.7511590">
        <ele>247.8</ele>
        <time>2018-10-04T08:05:12Z</time>
      </trkpt>
      <trkpt lat="38.3343440" lon="-0.7512070">
        <ele>247.6</ele>
        <time>2018-10-04T08:05:13Z</time>
      </trkpt>
      <trkpt lat="38.3343560" lon="-0.7512520">
        <ele>247.4</ele>
        <time>2018-10-04T08:05:14Z</time>
      </trkpt>
      <trkpt lat="38.3343700" lon="-0.7512930">
        <ele>247.3</ele>
        <time>2018-10-04T08:05:15Z</time>
      </trkpt>
      <trkpt lat="38.3343860" lon="-0.7513320">
        <ele>247.1</ele>
        <time>2018-10-04T08:05:16Z</time>
      </trkpt>
      <trkpt lat="38.3344050" lon="-0.7513650">
        <ele>247.0</ele>
        <time>2018-10-04T08:05:17Z</time>
      </trkpt>
      <trkpt lat="38.3344220" lon="-0.7513990">
        <ele>246.9</ele>
        <time>2018-10-04T08:05:18Z</time>
      </trkpt>
      <trkpt lat="38.3344400" lon="-0.7514290">
        <ele>246.7</ele>
        <time>2018-10-04T08:05:19Z</time>
      </trkpt>
      <trkpt lat="38.3344600" lon="-0.7514580">
        <ele>246.6</ele>
        <time>2018-10-04T08:05:20Z</time>
      </trkpt>
      <trkpt lat="38.3344820" lon="-0.7514860">
        <ele>246.5</ele>
        <time>2018-10-04T08:05:21Z</time>
      </trkpt>
      <trkpt lat="38.3345040" lon="-0.7515130">
        <ele>246.4</ele>
        <time>2018-10-04T08:05:22Z</time>
      </trkpt>
      <trkpt lat="38.3345270" lon="-0.7515370">
        <ele>246.4</ele>
        <time>2018-10-04T08:05:23Z</time>
      </trkpt>
      <trkpt lat="38.3345510" lon="-0.7515590">
        <ele>246.3</ele>
        <time>2018-10-04T08:05:24Z</time>
      </trkpt>
      <trkpt lat="38.3345770" lon="-0.7515760">
        <ele>246.3</ele>
        <time>2018-10-04T08:05:25Z</time>
      </trkpt>
      <trkpt lat="38.3346050" lon="-0.7515880">
        <ele>246.2</ele>
        <time>2018-10-04T08:05:26Z</time>
      </trkpt>
      <trkpt lat="38.3346310" lon="-0.7515940">
        <ele>246.2</ele>
        <time>2018-10-04T08:05:27Z</time>
      </trkpt>
      <trkpt lat="38.3346600" lon="-0.7515950">
        <ele>246.4</ele>
        <time>2018-10-04T08:05:28Z</time>
      </trkpt>
      <trkpt lat="38.3346890" lon="-0.7515900">
        <ele>246.7</ele>
        <time>2018-10-04T08:05:29Z</time>
      </trkpt>
      <trkpt lat="38.3347180" lon="-0.7515780">
        <ele>246.9</ele>
        <time>2018-10-04T08:05:30Z</time>
      </trkpt>
      <trkpt lat="38.3347460" lon="-0.7515620">
        <ele>247.2</ele>
        <time>2018-10-04T08:05:31Z</time>
      </trkpt>
      <trkpt lat="38.3347750" lon="-0.7515460">
        <ele>247.6</ele>
        <time>2018-10-04T08:05:32Z</time>
      </trkpt>
      <trkpt lat="38.3348030" lon="-0.7515270">
        <ele>247.9</ele>
        <time>2018-10-04T08:05:33Z</time>
      </trkpt>
      <trkpt lat="38.3348290" lon="-0.7515050">
        <ele>248.4</ele>
        <time>2018-10-04T08:05:34Z</time>
      </trkpt>
      <trkpt lat="38.3348530" lon="-0.7514820">
        <ele>248.8</ele>
        <time>2018-10-04T08:05:35Z</time>
      </trkpt>
      <trkpt lat="38.3348760" lon="-0.7514580">
        <ele>249.3</ele>
        <time>2018-10-04T08:05:36Z</time>
      </trkpt>
      <trkpt lat="38.3348980" lon="-0.7514320">
        <ele>249.7</ele>
        <time>2018-10-04T08:05:37Z</time>
      </trkpt>
      <trkpt lat="38.3349150" lon="-0.7514020">
        <ele>250.1</ele>
        <time>2018-10-04T08:05:38Z</time>
      </trkpt>
      <trkpt lat="38.3349150" lon="-0.7514020">
        <ele>250.1</ele>
        <time>2018-10-04T08:05:39Z</time>
      </trkpt>
      <trkpt lat="38.3349150" lon="-0.7514020">
        <ele>250.1</ele>
        <time>2018-10-04T08:05:40Z</time>
      </trkpt>
      <trkpt lat="38.3349600" lon="-0.7512700">
        <ele>251.7</ele>
        <time>2018-10-04T08:05:41Z</time>
      </trkpt>
      <trkpt lat="38.3349630" lon="-0.7512480">
        <ele>251.9</ele>
        <time>2018-10-04T08:05:42Z</time>
      </trkpt>
      <trkpt lat="38.3349680" lon="-0.7512030">
        <ele>252.4</ele>
        <time>2018-10-04T08:05:43Z</time>
      </trkpt>
      <trkpt lat="38.3349680" lon="-0.7512030">
        <ele>252.4</ele>
        <time>2018-10-04T08:05:44Z</time>
      </trkpt>
      <trkpt lat="38.3349810" lon="-0.7511120">
        <ele>253.2</ele>
        <time>2018-10-04T08:05:45Z</time>
      </trkpt>
      <trkpt lat="38.3349930" lon="-0.7510670">
        <ele>253.5</ele>
        <time>2018-10-04T08:05:46Z</time>
      </trkpt>
      <trkpt lat="38.3350080" lon="-0.7510240">
        <ele>253.8</ele>
        <time>2018-10-04T08:05:47Z</time>
      </trkpt>
      <trkpt lat="38.3350230" lon="-0.7509810">
        <ele>254.3</ele>
        <time>2018-10-04T08:05:48Z</time>
      </trkpt>
      <trkpt lat="38.3350390" lon="-0.7509380">
        <ele>254.8</ele>
        <time>2018-10-04T08:05:49Z</time>
      </trkpt>
      <trkpt lat="38.3350580" lon="-0.7508970">
        <ele>255.4</ele>
        <time>2018-10-04T08:05:50Z</time>
      </trkpt>
      <trkpt lat="38.3350760" lon="-0.7508550">
        <ele>255.9</ele>
        <time>2018-10-04T08:05:51Z</time>
      </trkpt>
      <trkpt lat="38.3350930" lon="-0.7508120">
        <ele>256.5</ele>
        <time>2018-10-04T08:05:52Z</time>
      </trkpt>
      <trkpt lat="38.3351100" lon="-0.7507690">
        <ele>257.1</ele>
        <time>2018-10-04T08:05:53Z</time>
      </trkpt>
      <trkpt lat="38.3351280" lon="-0.7507260">
        <ele>257.7</ele>
        <time>2018-10-04T08:05:54Z</time>
      </trkpt>
      <trkpt lat="38.3351470" lon="-0.7506830">
        <ele>258.4</ele>
        <time>2018-10-04T08:05:55Z</time>
      </trkpt>
      <trkpt lat="38.3351680" lon="-0.7506390">
        <ele>259.1</ele>
        <time>2018-10-04T08:05:56Z</time>
      </trkpt>
      <trkpt lat="38.3351860" lon="-0.7505940">
        <ele>259.8</ele>
        <time>2018-10-04T08:05:57Z</time>
      </trkpt>
      <trkpt lat="38.3352030" lon="-0.7505480">
        <ele>260.7</ele>
        <time>2018-10-04T08:05:58Z</time>
      </trkpt>
      <trkpt lat="38.3352240" lon="-0.7505010">
        <ele>261.7</ele>
        <time>2018-10-04T08:05:59Z</time>
      </trkpt>
      <trkpt lat="38.3352480" lon="-0.7504580">
        <ele>262.4</ele>
        <time>2018-10-04T08:06:00Z</time>
      </trkpt>
      <trkpt lat="38.3352810" lon="-0.7504230">
        <ele>263.2</ele>
        <time>2018-10-04T08:06:01Z</time>
      </trkpt>
      <trkpt lat="38.3353190" lon="-0.7504030">
        <ele>263.9</ele>
        <time>2018-10-04T08:06:02Z</time>
      </trkpt>
      <trkpt lat="38.3353600" lon="-0.7504000">
        <ele>264.8</ele>
        <time>2018-10-04T08:06:03Z</time>
      </trkpt>
      <trkpt lat="38.3353980" lon="-0.7504120">
        <ele>265.6</ele>
        <time>2018-10-04T08:06:04Z</time>
      </trkpt>
      <trkpt lat="38.3354330" lon="-0.7504350">
        <ele>265.7</ele>
        <time>2018-10-04T08:06:05Z</time>
      </trkpt>
      <trkpt lat="38.3354630" lon="-0.7504660">
        <ele>266.2</ele>
        <time>2018-10-04T08:06:06Z</time>
      </trkpt>
      <trkpt lat="38.3354900" lon="-0.7504960">
        <ele>266.9</ele>
        <time>2018-10-04T08:06:07Z</time>
      </trkpt>
      <trkpt lat="38.3355190" lon="-0.7505260">
        <ele>267.0</ele>
        <time>2018-10-04T08:06:08Z</time>
      </trkpt>
      <trkpt lat="38.3355430" lon="-0.7505590">
        <ele>267.0</ele>
        <time>2018-10-04T08:06:09Z</time>
      </trkpt>
      <trkpt lat="38.3355660" lon="-0.7505950">
        <ele>267.1</ele>
        <time>2018-10-04T08:06:10Z</time>
      </trkpt>
      <trkpt lat="38.3355860" lon="-0.7506310">
        <ele>267.0</ele>
        <time>2018-10-04T08:06:11Z</time>
      </trkpt>
      <trkpt lat="38.3356060" lon="-0.7506680">
        <ele>267.0</ele>
        <time>2018-10-04T08:06:12Z</time>
      </trkpt>
      <trkpt lat="38.3356240" lon="-0.7507080">
        <ele>267.0</ele>
        <time>2018-10-04T08:06:13Z</time>
      </trkpt>
      <trkpt lat="38.3356400" lon="-0.7507510">
        <ele>267.0</ele>
        <time>2018-10-04T08:06:14Z</time>
      </trkpt>
      <trkpt lat="38.3356520" lon="-0.7507950">
        <ele>267.2</ele>
        <time>2018-10-04T08:06:15Z</time>
      </trkpt>
      <trkpt lat="38.3356630" lon="-0.7508420">
        <ele>267.4</ele>
        <time>2018-10-04T08:06:16Z</time>
      </trkpt>
      <trkpt lat="38.3356730" lon="-0.7508910">
        <ele>267.3</ele>
        <time>2018-10-04T08:06:17Z</time>
      </trkpt>
      <trkpt lat="38.3356800" lon="-0.7509410">
        <ele>267.1</ele>
        <time>2018-10-04T08:06:18Z</time>
      </trkpt>
      <trkpt lat="38.3356860" lon="-0.7509940">
        <ele>266.9</ele>
        <time>2018-10-04T08:06:19Z</time>
      </trkpt>
      <trkpt lat="38.3356920" lon="-0.7510470">
        <ele>267.0</ele>
        <time>2018-10-04T08:06:20Z</time>
      </trkpt>
      <trkpt lat="38.3356990" lon="-0.7511020">
        <ele>267.0</ele>
        <time>2018-10-04T08:06:21Z</time>
      </trkpt>
      <trkpt lat="38.3357040" lon="-0.7511580">
        <ele>266.8</ele>
        <time>2018-10-04T08:06:22Z</time>
      </trkpt>
      <trkpt lat="38.3357100" lon="-0.7512140">
        <ele>266.6</ele>
        <time>2018-10-04T08:06:23Z</time>
      </trkpt>
      <trkpt lat="38.3357190" lon="-0.7512720">
        <ele>266.4</ele>
        <time>2018-10-04T08:06:24Z</time>
      </trkpt>
      <trkpt lat="38.3357290" lon="-0.7513300">
        <ele>266.4</ele>
        <time>2018-10-04T08:06:25Z</time>
      </trkpt>
      <trkpt lat="38.3357400" lon="-0.7513880">
        <ele>266.4</ele>
        <time>2018-10-04T08:06:26Z</time>
      </trkpt>
      <trkpt lat="38.3357530" lon="-0.7514470">
        <ele>266.3</ele>
        <time>2018-10-04T08:06:27Z</time>
      </trkpt>
      <trkpt lat="38.3357660" lon="-0.7515070">
        <ele>266.2</ele>
        <time>2018-10-04T08:06:28Z</time>
      </trkpt>
      <trkpt lat="38.3357800" lon="-0.7515670">
        <ele>266.3</ele>
        <time>2018-10-04T08:06:29Z</time>
      </trkpt>
      <trkpt lat="38.3357940" lon="-0.7516290">
        <ele>266.3</ele>
        <time>2018-10-04T08:06:30Z</time>
      </trkpt>
      <trkpt lat="38.3358070" lon="-0.7516920">
        <ele>266.2</ele>
        <time>2018-10-04T08:06:31Z</time>
      </trkpt>
      <trkpt lat="38.3358190" lon="-0.7517550">
        <ele>266.3</ele>
        <time>2018-10-04T08:06:32Z</time>
      </trkpt>
      <trkpt lat="38.3358300" lon="-0.7518180">
        <ele>266.4</ele>
        <time>2018-10-04T08:06:33Z</time>
      </trkpt>
      <trkpt lat="38.3358410" lon="-0.7518810">
        <ele>266.5</ele>
        <time>2018-10-04T08:06:34Z</time>
      </trkpt>
      <trkpt lat="38.3358490" lon="-0.7519450">
        <ele>266.4</ele>
        <time>2018-10-04T08:06:35Z</time>
      </trkpt>
      <trkpt lat="38.3358570" lon="-0.7520070">
        <ele>266.2</ele>
        <time>2018-10-04T08:06:36Z</time>
      </trkpt>
      <trkpt lat="38.3358650" lon="-0.7520690">
        <ele>266.4</ele>
        <time>2018-10-04T08:06:37Z</time>
      </trkpt>
      <trkpt lat="38.3358740" lon="-0.7521290">
        <ele>266.3</ele>
        <time>2018-10-04T08:06:38Z</time>
      </trkpt>
      <trkpt lat="38.3358820" lon="-0.7521880">
        <ele>266.1</ele>
        <time>2018-10-04T08:06:39Z</time>
      </trkpt>
      <trkpt lat="38.3358930" lon="-0.7522430">
        <ele>266.0</ele>
        <time>2018-10-04T08:06:40Z</time>
      </trkpt>
      <trkpt lat="38.3359070" lon="-0.7522970">
        <ele>266.0</ele>
        <time>2018-10-04T08:06:41Z</time>
      </trkpt>
      <trkpt lat="38.3359250" lon="-0.7523480">
        <ele>266.4</ele>
        <time>2018-10-04T08:06:42Z</time>
      </trkpt>
      <trkpt lat="38.3359490" lon="-0.7523920">
        <ele>266.7</ele>
        <time>2018-10-04T08:06:43Z</time>
      </trkpt>
      <trkpt lat="38.3359770" lon="-0.7524290">
        <ele>267.1</ele>
        <time>2018-10-04T08:06:44Z</time>
      </trkpt>
      <trkpt lat="38.3360030" lon="-0.7524630">
        <ele>267.3</ele>
        <time>2018-10-04T08:06:45Z</time>
      </trkpt>
      <trkpt lat="38.3360490" lon="-0.7525080">
        <ele>267.6</ele>
        <time>2018-10-04T08:06:46Z</time>
      </trkpt>
      <trkpt lat="38.3360640" lon="-0.7525220">
        <ele>267.7</ele>
        <time>2018-10-04T08:06:47Z</time>
      </trkpt>
      <trkpt lat="38.3360940" lon="-0.7525530">
        <ele>267.9</ele>
        <time>2018-10-04T08:06:48Z</time>
      </trkpt>
      <trkpt lat="38.3360940" lon="-0.7525530">
        <ele>267.9</ele>
        <time>2018-10-04T08:06:49Z</time>
      </trkpt>
      <trkpt lat="38.3361530" lon="-0.7526180">
        <ele>268.2</ele>
        <time>2018-10-04T08:06:50Z</time>
      </trkpt>
      <trkpt lat="38.3361850" lon="-0.7526520">
        <ele>268.4</ele>
        <time>2018-10-04T08:06:51Z</time>
      </trkpt>
      <trkpt lat="38.3362170" lon="-0.7526900">
        <ele>268.6</ele>
        <time>2018-10-04T08:06:52Z</time>
      </trkpt>
      <trkpt lat="38.3362500" lon="-0.7527300">
        <ele>268.7</ele>
        <time>2018-10-04T08:06:53Z</time>
      </trkpt>
      <trkpt lat="38.3362780" lon="-0.7527720">
        <ele>268.8</ele>
        <time>2018-10-04T08:06:54Z</time>
      </trkpt>
      <trkpt lat="38.3363100" lon="-0.7528100">
        <ele>268.9</ele>
        <time>2018-10-04T08:06:55Z</time>
      </trkpt>
      <trkpt lat="38.3363440" lon="-0.7528450">
        <ele>269.1</ele>
        <time>2018-10-04T08:06:56Z</time>
      </trkpt>
      <trkpt lat="38.3363800" lon="-0.7528780">
        <ele>269.2</ele>
        <time>2018-10-04T08:06:57Z</time>
      </trkpt>
      <trkpt lat="38.3364160" lon="-0.7529100">
        <ele>269.4</ele>
        <time>2018-10-04T08:06:58Z</time>
      </trkpt>
      <trkpt lat="38.3364530" lon="-0.7529420">
        <ele>269.5</ele>
        <time>2018-10-04T08:06:59Z</time>
      </trkpt>
      <trkpt lat="38.3364900" lon="-0.7529720">
        <ele>269.5</ele>
        <time>2018-10-04T08:07:00Z</time>
      </trkpt>
      <trkpt lat="38.3365430" lon="-0.7530160">
        <ele>269.7</ele>
        <time>2018-10-04T08:07:01Z</time>
      </trkpt>
      <trkpt lat="38.3365600" lon="-0.7530290">
        <ele>269.7</ele>
        <time>2018-10-04T08:07:02Z</time>
      </trkpt>
      <trkpt lat="38.3365970" lon="-0.7530530">
        <ele>269.8</ele>
        <time>2018-10-04T08:07:03Z</time>
      </trkpt>
      <trkpt lat="38.3365970" lon="-0.7530530">
        <ele>269.8</ele>
        <time>2018-10-04T08:07:04Z</time>
      </trkpt>
      <trkpt lat="38.3366670" lon="-0.7531090">
        <ele>269.9</ele>
        <time>2018-10-04T08:07:05Z</time>
      </trkpt>
      <trkpt lat="38.3366960" lon="-0.7531450">
        <ele>270.0</ele>
        <time>2018-10-04T08:07:06Z</time>
      </trkpt>
      <trkpt lat="38.3367200" lon="-0.7531850">
        <ele>270.1</ele>
        <time>2018-10-04T08:07:07Z</time>
      </trkpt>
      <trkpt lat="38.3367390" lon="-0.7532260">
        <ele>270.2</ele>
        <time>2018-10-04T08:07:08Z</time>
      </trkpt>
      <trkpt lat="38.3367550" lon="-0.7532670">
        <ele>270.3</ele>
        <time>2018-10-04T08:07:09Z</time>
      </trkpt>
      <trkpt lat="38.3367700" lon="-0.7533060">
        <ele>270.4</ele>
        <time>2018-10-04T08:07:10Z</time>
      </trkpt>
      <trkpt lat="38.3367850" lon="-0.7533370">
        <ele>270.4</ele>
        <time>2018-10-04T08:07:11Z</time>
      </trkpt>
      <trkpt lat="38.3368050" lon="-0.7533550">
        <ele>270.5</ele>
        <time>2018-10-04T08:07:12Z</time>
      </trkpt>
      <trkpt lat="38.3368260" lon="-0.7533580">
        <ele>270.6</ele>
        <time>2018-10-04T08:07:13Z</time>
      </trkpt>
      <trkpt lat="38.3368400" lon="-0.7533430">
        <ele>270.6</ele>
        <time>2018-10-04T08:07:14Z</time>
      </trkpt>
      <trkpt lat="38.3368430" lon="-0.7533170">
        <ele>270.7</ele>
        <time>2018-10-04T08:07:15Z</time>
      </trkpt>
      <trkpt lat="38.3368360" lon="-0.7532840">
        <ele>270.8</ele>
        <time>2018-10-04T08:07:16Z</time>
      </trkpt>
      <trkpt lat="38.3368210" lon="-0.7532480">
        <ele>271.3</ele>
        <time>2018-10-04T08:07:17Z</time>
      </trkpt>
      <trkpt lat="38.3368010" lon="-0.7532090">
        <ele>271.4</ele>
        <time>2018-10-04T08:07:18Z</time>
      </trkpt>
      <trkpt lat="38.3367810" lon="-0.7531660">
        <ele>271.5</ele>
        <time>2018-10-04T08:07:19Z</time>
      </trkpt>
      <trkpt lat="38.3367530" lon="-0.7530930">
        <ele>271.7</ele>
        <time>2018-10-04T08:07:20Z</time>
      </trkpt>
      <trkpt lat="38.3367430" lon="-0.7530690">
        <ele>271.8</ele>
        <time>2018-10-04T08:07:21Z</time>
      </trkpt>
      <trkpt lat="38.3367200" lon="-0.7530190">
        <ele>271.9</ele>
        <time>2018-10-04T08:07:22Z</time>
      </trkpt>
      <trkpt lat="38.3367200" lon="-0.7530190">
        <ele>271.9</ele>
        <time>2018-10-04T08:07:23Z</time>
      </trkpt>
      <trkpt lat="38.3366610" lon="-0.7529350">
        <ele>272.4</ele>
        <time>2018-10-04T08:07:24Z</time>
      </trkpt>
      <trkpt lat="38.3366290" lon="-0.7529000">
        <ele>272.6</ele>
        <time>2018-10-04T08:07:25Z</time>
      </trkpt>
      <trkpt lat="38.3365990" lon="-0.7528690">
        <ele>272.8</ele>
        <time>2018-10-04T08:07:26Z</time>
      </trkpt>
      <trkpt lat="38.3365590" lon="-0.7528250">
        <ele>273.1</ele>
        <time>2018-10-04T08:07:27Z</time>
      </trkpt>
      <trkpt lat="38.3365460" lon="-0.7528110">
        <ele>273.3</ele>
        <time>2018-10-04T08:07:28Z</time>
      </trkpt>
      <trkpt lat="38.3365220" lon="-0.7527840">
        <ele>273.5</ele>
        <time>2018-10-04T08:07:29Z</time>
      </trkpt>
      <trkpt lat="38.3365220" lon="-0.7527840">
        <ele>273.5</ele>
        <time>2018-10-04T08:07:30Z</time>
      </trkpt>
      <trkpt lat="38.3364800" lon="-0.7527270">
        <ele>273.9</ele>
        <time>2018-10-04T08:07:31Z</time>
      </trkpt>
      <trkpt lat="38.3364580" lon="-0.7526990">
        <ele>274.1</ele>
        <time>2018-10-04T08:07:32Z</time>
      </trkpt>
      <trkpt lat="38.3364370" lon="-0.7526700">
        <ele>274.3</ele>
        <time>2018-10-04T08:07:33Z</time>
      </trkpt>
      <trkpt lat="38.3364180" lon="-0.7526410">
        <ele>274.5</ele>
        <time>2018-10-04T08:07:34Z</time>
      </trkpt>
      <trkpt lat="38.3363980" lon="-0.7526120">
        <ele>274.7</ele>
        <time>2018-10-04T08:07:35Z</time>
      </trkpt>
      <trkpt lat="38.3363770" lon="-0.7525840">
        <ele>274.9</ele>
        <time>2018-10-04T08:07:36Z</time>
      </trkpt>
      <trkpt lat="38.3363560" lon="-0.7525560">
        <ele>275.1</ele>
        <time>2018-10-04T08:07:37Z</time>
      </trkpt>
      <trkpt lat="38.3363370" lon="-0.7525230">
        <ele>275.2</ele>
        <time>2018-10-04T08:07:38Z</time>
      </trkpt>
      <trkpt lat="38.3363170" lon="-0.7524930">
        <ele>275.3</ele>
        <time>2018-10-04T08:07:39Z</time>
      </trkpt>
      <trkpt lat="38.3362970" lon="-0.7524600">
        <ele>275.5</ele>
        <time>2018-10-04T08:07:40Z</time>
      </trkpt>
      <trkpt lat="38.3362770" lon="-0.7524260">
        <ele>275.6</ele>
        <time>2018-10-04T08:07:41Z</time>
      </trkpt>
      <trkpt lat="38.3362600" lon="-0.7523910">
        <ele>275.8</ele>
        <time>2018-10-04T08:07:42Z</time>
      </trkpt>
      <trkpt lat="38.3362440" lon="-0.7523540">
        <ele>275.9</ele>
        <time>2018-10-04T08:07:43Z</time>
      </trkpt>
      <trkpt lat="38.3362330" lon="-0.7523130">
        <ele>275.9</ele>
        <time>2018-10-04T08:07:44Z</time>
      </trkpt>
      <trkpt lat="38.3362330" lon="-0.7523130">
        <ele>275.9</ele>
        <time>2018-10-04T08:07:45Z</time>
      </trkpt>
      <trkpt lat="38.3362170" lon="-0.7522240">
        <ele>276.1</ele>
        <time>2018-10-04T08:07:46Z</time>
      </trkpt>
      <trkpt lat="38.3362100" lon="-0.7521740">
        <ele>276.1</ele>
        <time>2018-10-04T08:07:47Z</time>
      </trkpt>
      <trkpt lat="38.3362040" lon="-0.7521180">
        <ele>276.1</ele>
        <time>2018-10-04T08:07:48Z</time>
      </trkpt>
      <trkpt lat="38.3361980" lon="-0.7520550">
        <ele>276.0</ele>
        <time>2018-10-04T08:07:49Z</time>
      </trkpt>
      <trkpt lat="38.3361920" lon="-0.7519840">
        <ele>275.8</ele>
        <time>2018-10-04T08:07:50Z</time>
      </trkpt>
      <trkpt lat="38.3361790" lon="-0.7518710">
        <ele>275.4</ele>
        <time>2018-10-04T08:07:51Z</time>
      </trkpt>
      <trkpt lat="38.3361730" lon="-0.7518320">
        <ele>275.3</ele>
        <time>2018-10-04T08:07:52Z</time>
      </trkpt>
      <trkpt lat="38.3361620" lon="-0.7517510">
        <ele>275.1</ele>
        <time>2018-10-04T08:07:53Z</time>
      </trkpt>
      <trkpt lat="38.3361620" lon="-0.7517510">
        <ele>275.1</ele>
        <time>2018-10-04T08:07:54Z</time>
      </trkpt>
      <trkpt lat="38.3361370" lon="-0.7515830">
        <ele>274.7</ele>
        <time>2018-10-04T08:07:55Z</time>
      </trkpt>
      <trkpt lat="38.3361230" lon="-0.7514950">
        <ele>274.4</ele>
        <time>2018-10-04T08:07:56Z</time>
      </trkpt>
      <trkpt lat="38.3361070" lon="-0.7514060">
        <ele>274.2</ele>
        <time>2018-10-04T08:07:57Z</time>
      </trkpt>
      <trkpt lat="38.3360880" lon="-0.7513160">
        <ele>274.1</ele>
        <time>2018-10-04T08:07:58Z</time>
      </trkpt>
      <trkpt lat="38.3360660" lon="-0.7512240">
        <ele>273.9</ele>
        <time>2018-10-04T08:07:59Z</time>
      </trkpt>
      <trkpt lat="38.3360380" lon="-0.7511290">
        <ele>273.8</ele>
        <time>2018-10-04T08:08:00Z</time>
      </trkpt>
      <trkpt lat="38.3360030" lon="-0.7509840">
        <ele>273.8</ele>
        <time>2018-10-04T08:08:01Z</time>
      </trkpt>
      <trkpt lat="38.3359920" lon="-0.7509350">
        <ele>273.8</ele>
        <time>2018-10-04T08:08:02Z</time>
      </trkpt>
      <trkpt lat="38.3359760" lon="-0.7508380">
        <ele>273.9</ele>
        <time>2018-10-04T08:08:03Z</time>
      </trkpt>
      <trkpt lat="38.3359760" lon="-0.7508380">
        <ele>273.9</ele>
        <time>2018-10-04T08:08:04Z</time>
      </trkpt>
      <trkpt lat="38.3359450" lon="-0.7506090">
        <ele>274.3</ele>
        <time>2018-10-04T08:08:05Z</time>
      </trkpt>
      <trkpt lat="38.3359340" lon="-0.7505260">
        <ele>274.7</ele>
        <time>2018-10-04T08:08:06Z</time>
      </trkpt>
      <trkpt lat="38.3359230" lon="-0.7504510">
        <ele>275.1</ele>
        <time>2018-10-04T08:08:07Z</time>
      </trkpt>
      <trkpt lat="38.3359210" lon="-0.7503810">
        <ele>275.7</ele>
        <time>2018-10-04T08:08:08Z</time>
      </trkpt>
      <trkpt lat="38.3359270" lon="-0.7503190">
        <ele>276.2</ele>
        <time>2018-10-04T08:08:09Z</time>
      </trkpt>
      <trkpt lat="38.3359360" lon="-0.7502600">
        <ele>276.6</ele>
        <time>2018-10-04T08:08:10Z</time>
      </trkpt>
      <trkpt lat="38.3359360" lon="-0.7502050">
        <ele>276.9</ele>
        <time>2018-10-04T08:08:11Z</time>
      </trkpt>
      <trkpt lat="38.3359340" lon="-0.7501560">
        <ele>277.2</ele>
        <time>2018-10-04T08:08:12Z</time>
      </trkpt>
      <trkpt lat="38.3359300" lon="-0.7501120">
        <ele>277.4</ele>
        <time>2018-10-04T08:08:13Z</time>
      </trkpt>
      <trkpt lat="38.3359240" lon="-0.7500710">
        <ele>277.7</ele>
        <time>2018-10-04T08:08:14Z</time>
      </trkpt>
      <trkpt lat="38.3359240" lon="-0.7500710">
        <ele>277.7</ele>
        <time>2018-10-04T08:08:15Z</time>
      </trkpt>
      <trkpt lat="38.3359150" lon="-0.7499890">
        <ele>278.2</ele>
        <time>2018-10-04T08:08:16Z</time>
      </trkpt>
      <trkpt lat="38.3359130" lon="-0.7499490">
        <ele>278.4</ele>
        <time>2018-10-04T08:08:17Z</time>
      </trkpt>
      <trkpt lat="38.3359100" lon="-0.7499100">
        <ele>278.7</ele>
        <time>2018-10-04T08:08:18Z</time>
      </trkpt>
      <trkpt lat="38.3359050" lon="-0.7498710">
        <ele>278.9</ele>
        <time>2018-10-04T08:08:19Z</time>
      </trkpt>
      <trkpt lat="38.3359010" lon="-0.7498330">
        <ele>279.1</ele>
        <time>2018-10-04T08:08:20Z</time>
      </trkpt>
      <trkpt lat="38.3358960" lon="-0.7497940">
        <ele>279.4</ele>
        <time>2018-10-04T08:08:21Z</time>
      </trkpt>
      <trkpt lat="38.3358940" lon="-0.7497550">
        <ele>279.6</ele>
        <time>2018-10-04T08:08:22Z</time>
      </trkpt>
      <trkpt lat="38.3358910" lon="-0.7497160">
        <ele>279.9</ele>
        <time>2018-10-04T08:08:23Z</time>
      </trkpt>
      <trkpt lat="38.3358880" lon="-0.7496760">
        <ele>280.1</ele>
        <time>2018-10-04T08:08:24Z</time>
      </trkpt>
      <trkpt lat="38.3358860" lon="-0.7496350">
        <ele>280.3</ele>
        <time>2018-10-04T08:08:25Z</time>
      </trkpt>
      <trkpt lat="38.3358850" lon="-0.7495950">
        <ele>280.6</ele>
        <time>2018-10-04T08:08:26Z</time>
      </trkpt>
      <trkpt lat="38.3358840" lon="-0.7495550">
        <ele>280.8</ele>
        <time>2018-10-04T08:08:27Z</time>
      </trkpt>
      <trkpt lat="38.3358840" lon="-0.7495140">
        <ele>281.1</ele>
        <time>2018-10-04T08:08:28Z</time>
      </trkpt>
      <trkpt lat="38.3358820" lon="-0.7494740">
        <ele>281.3</ele>
        <time>2018-10-04T08:08:29Z</time>
      </trkpt>
      <trkpt lat="38.3358820" lon="-0.7494330">
        <ele>281.6</ele>
        <time>2018-10-04T08:08:30Z</time>
      </trkpt>
      <trkpt lat="38.3358810" lon="-0.7493920">
        <ele>281.8</ele>
        <time>2018-10-04T08:08:31Z</time>
      </trkpt>
      <trkpt lat="38.3358790" lon="-0.7493500">
        <ele>282.0</ele>
        <time>2018-10-04T08:08:32Z</time>
      </trkpt>
      <trkpt lat="38.3358760" lon="-0.7493090">
        <ele>282.3</ele>
        <time>2018-10-04T08:08:33Z</time>
      </trkpt>
      <trkpt lat="38.3358700" lon="-0.7492690">
        <ele>282.6</ele>
        <time>2018-10-04T08:08:34Z</time>
      </trkpt>
      <trkpt lat="38.3358670" lon="-0.7492280">
        <ele>282.9</ele>
        <time>2018-10-04T08:08:35Z</time>
      </trkpt>
      <trkpt lat="38.3358620" lon="-0.7491870">
        <ele>283.2</ele>
        <time>2018-10-04T08:08:36Z</time>
      </trkpt>
      <trkpt lat="38.3358550" lon="-0.7491470">
        <ele>283.3</ele>
        <time>2018-10-04T08:08:37Z</time>
      </trkpt>
      <trkpt lat="38.3358490" lon="-0.7491060">
        <ele>283.5</ele>
        <time>2018-10-04T08:08:38Z</time>
      </trkpt>
      <trkpt lat="38.3358400" lon="-0.7490670">
        <ele>283.6</ele>
        <time>2018-10-04T08:08:39Z</time>
      </trkpt>
      <trkpt lat="38.3358300" lon="-0.7490280">
        <ele>283.8</ele>
        <time>2018-10-04T08:08:40Z</time>
      </trkpt>
      <trkpt lat="38.3358190" lon="-0.7489880">
        <ele>283.9</ele>
        <time>2018-10-04T08:08:41Z</time>
      </trkpt>
      <trkpt lat="38.3358070" lon="-0.7489490">
        <ele>284.1</ele>
        <time>2018-10-04T08:08:42Z</time>
      </trkpt>
      <trkpt lat="38.3357930" lon="-0.7489090">
        <ele>284.3</ele>
        <time>2018-10-04T08:08:43Z</time>
      </trkpt>
      <trkpt lat="38.3357930" lon="-0.7489090">
        <ele>284.3</ele>
        <time>2018-10-04T08:08:44Z</time>
      </trkpt>
      <trkpt lat="38.3357670" lon="-0.7488280">
        <ele>284.7</ele>
        <time>2018-10-04T08:08:45Z</time>
      </trkpt>
      <trkpt lat="38.3357510" lon="-0.7487870">
        <ele>284.9</ele>
        <time>2018-10-04T08:08:46Z</time>
      </trkpt>
      <trkpt lat="38.3357340" lon="-0.7487470">
        <ele>285.1</ele>
        <time>2018-10-04T08:08:47Z</time>
      </trkpt>
      <trkpt lat="38.3357170" lon="-0.7487050">
        <ele>285.2</ele>
        <time>2018-10-04T08:08:48Z</time>
      </trkpt>
      <trkpt lat="38.3356990" lon="-0.7486630">
        <ele>285.3</ele>
        <time>2018-10-04T08:08:49Z</time>
      </trkpt>
      <trkpt lat="38.3356800" lon="-0.7486200">
        <ele>285.5</ele>
        <time>2018-10-04T08:08:50Z</time>
      </trkpt>
      <trkpt lat="38.3356610" lon="-0.7485740">
        <ele>285.6</ele>
        <time>2018-10-04T08:08:51Z</time>
      </trkpt>
      <trkpt lat="38.3356430" lon="-0.7485280">
        <ele>285.7</ele>
        <time>2018-10-04T08:08:52Z</time>
      </trkpt>
      <trkpt lat="38.3356250" lon="-0.7484810">
        <ele>285.9</ele>
        <time>2018-10-04T08:08:53Z</time>
      </trkpt>
      <trkpt lat="38.3356060" lon="-0.7484360">
        <ele>286.0</ele>
        <time>2018-10-04T08:08:54Z</time>
      </trkpt>
      <trkpt lat="38.3355870" lon="-0.7483900">
        <ele>286.2</ele>
        <time>2018-10-04T08:08:55Z</time>
      </trkpt>
      <trkpt lat="38.3355670" lon="-0.7483420">
        <ele>286.3</ele>
        <time>2018-10-04T08:08:56Z</time>
      </trkpt>
      <trkpt lat="38.3355470" lon="-0.7482930">
        <ele>286.5</ele>
        <time>2018-10-04T08:08:57Z</time>
      </trkpt>
      <trkpt lat="38.3355250" lon="-0.7482450">
        <ele>286.6</ele>
        <time>2018-10-04T08:08:58Z</time>
      </trkpt>
      <trkpt lat="38.3355020" lon="-0.7481950">
        <ele>286.8</ele>
        <time>2018-10-04T08:08:59Z</time>
      </trkpt>
      <trkpt lat="38.3354800" lon="-0.7481440">
        <ele>286.9</ele>
        <time>2018-10-04T08:09:00Z</time>
      </trkpt>
      <trkpt lat="38.3354570" lon="-0.7480930">
        <ele>287.1</ele>
        <time>2018-10-04T08:09:01Z</time>
      </trkpt>
      <trkpt lat="38.3354270" lon="-0.7480150">
        <ele>287.2</ele>
        <time>2018-10-04T08:09:02Z</time>
      </trkpt>
      <trkpt lat="38.3354170" lon="-0.7479880">
        <ele>287.3</ele>
        <time>2018-10-04T08:09:03Z</time>
      </trkpt>
      <trkpt lat="38.3353980" lon="-0.7479330">
        <ele>287.3</ele>
        <time>2018-10-04T08:09:04Z</time>
      </trkpt>
      <trkpt lat="38.3353980" lon="-0.7479330">
        <ele>287.3</ele>
        <time>2018-10-04T08:09:05Z</time>
      </trkpt>
      <trkpt lat="38.3353620" lon="-0.7478220">
        <ele>287.5</ele>
        <time>2018-10-04T08:09:06Z</time>
      </trkpt>
      <trkpt lat="38.3353440" lon="-0.7477670">
        <ele>287.6</ele>
        <time>2018-10-04T08:09:07Z</time>
      </trkpt>
      <trkpt lat="38.3353260" lon="-0.7477110">
        <ele>287.7</ele>
        <time>2018-10-04T08:09:08Z</time>
      </trkpt>
      <trkpt lat="38.3352970" lon="-0.7476270">
        <ele>287.8</ele>
        <time>2018-10-04T08:09:09Z</time>
      </trkpt>
      <trkpt lat="38.3352870" lon="-0.7476000">
        <ele>287.8</ele>
        <time>2018-10-04T08:09:10Z</time>
      </trkpt>
      <trkpt lat="38.3352680" lon="-0.7475450">
        <ele>287.9</ele>
        <time>2018-10-04T08:09:11Z</time>
      </trkpt>
      <trkpt lat="38.3352680" lon="-0.7475450">
        <ele>287.9</ele>
        <time>2018-10-04T08:09:12Z</time>
      </trkpt>
      <trkpt lat="38.3352280" lon="-0.7474370">
        <ele>288.1</ele>
        <time>2018-10-04T08:09:13Z</time>
      </trkpt>
      <trkpt lat="38.3352280" lon="-0.7474370">
        <ele>288.1</ele>
        <time>2018-10-04T08:09:14Z</time>
      </trkpt>
      <trkpt lat="38.3351870" lon="-0.7473260">
        <ele>288.3</ele>
        <time>2018-10-04T08:09:15Z</time>
      </trkpt>
      <trkpt lat="38.3351560" lon="-0.7472420">
        <ele>288.4</ele>
        <time>2018-10-04T08:09:16Z</time>
      </trkpt>
      <trkpt lat="38.3351450" lon="-0.7472140">
        <ele>288.4</ele>
        <time>2018-10-04T08:09:17Z</time>
      </trkpt>
      <trkpt lat="38.3351220" lon="-0.7471570">
        <ele>288.5</ele>
        <time>2018-10-04T08:09:18Z</time>
      </trkpt>
      <trkpt lat="38.3351220" lon="-0.7471570">
        <ele>288.5</ele>
        <time>2018-10-04T08:09:19Z</time>
      </trkpt>
      <trkpt lat="38.3350740" lon="-0.7470440">
        <ele>288.7</ele>
        <time>2018-10-04T08:09:20Z</time>
      </trkpt>
      <trkpt lat="38.3350500" lon="-0.7469870">
        <ele>288.9</ele>
        <time>2018-10-04T08:09:21Z</time>
      </trkpt>
      <trkpt lat="38.3350270" lon="-0.7469290">
        <ele>289.0</ele>
        <time>2018-10-04T08:09:22Z</time>
      </trkpt>
      <trkpt lat="38.3350050" lon="-0.7468710">
        <ele>289.1</ele>
        <time>2018-10-04T08:09:23Z</time>
      </trkpt>
      <trkpt lat="38.3349870" lon="-0.7468120">
        <ele>289.2</ele>
        <time>2018-10-04T08:09:24Z</time>
      </trkpt>
      <trkpt lat="38.3349700" lon="-0.7467520">
        <ele>289.3</ele>
        <time>2018-10-04T08:09:25Z</time>
      </trkpt>
      <trkpt lat="38.3349560" lon="-0.7466910">
        <ele>289.4</ele>
        <time>2018-10-04T08:09:26Z</time>
      </trkpt>
      <trkpt lat="38.3349430" lon="-0.7466300">
        <ele>289.6</ele>
        <time>2018-10-04T08:09:27Z</time>
      </trkpt>
      <trkpt lat="38.3349310" lon="-0.7465680">
        <ele>289.7</ele>
        <time>2018-10-04T08:09:28Z</time>
      </trkpt>
      <trkpt lat="38.3349180" lon="-0.7465070">
        <ele>289.8</ele>
        <time>2018-10-04T08:09:29Z</time>
      </trkpt>
      <trkpt lat="38.3349060" lon="-0.7464450">
        <ele>289.8</ele>
        <time>2018-10-04T08:09:30Z</time>
      </trkpt>
      <trkpt lat="38.3348870" lon="-0.7463520">
        <ele>289.9</ele>
        <time>2018-10-04T08:09:31Z</time>
      </trkpt>
      <trkpt lat="38.3348800" lon="-0.7463210">
        <ele>290.0</ele>
        <time>2018-10-04T08:09:32Z</time>
      </trkpt>
      <trkpt lat="38.3348670" lon="-0.7462590">
        <ele>290.0</ele>
        <time>2018-10-04T08:09:33Z</time>
      </trkpt>
      <trkpt lat="38.3348670" lon="-0.7462590">
        <ele>290.0</ele>
        <time>2018-10-04T08:09:34Z</time>
      </trkpt>
      <trkpt lat="38.3348380" lon="-0.7461370">
        <ele>290.2</ele>
        <time>2018-10-04T08:09:35Z</time>
      </trkpt>
      <trkpt lat="38.3348210" lon="-0.7460770">
        <ele>290.2</ele>
        <time>2018-10-04T08:09:36Z</time>
      </trkpt>
      <trkpt lat="38.3348040" lon="-0.7460160">
        <ele>290.3</ele>
        <time>2018-10-04T08:09:37Z</time>
      </trkpt>
      <trkpt lat="38.3347870" lon="-0.7459560">
        <ele>290.4</ele>
        <time>2018-10-04T08:09:38Z</time>
      </trkpt>
      <trkpt lat="38.3347700" lon="-0.7458940">
        <ele>290.5</ele>
        <time>2018-10-04T08:09:39Z</time>
      </trkpt>
      <trkpt lat="38.3347530" lon="-0.7458310">
        <ele>290.6</ele>
        <time>2018-10-04T08:09:40Z</time>
      </trkpt>
      <trkpt lat="38.3347350" lon="-0.7457680">
        <ele>290.7</ele>
        <time>2018-10-04T08:09:41Z</time>
      </trkpt>
      <trkpt lat="38.3347170" lon="-0.7457060">
        <ele>290.8</ele>
        <time>2018-10-04T08:09:42Z</time>
      </trkpt>
      <trkpt lat="38.3346990" lon="-0.7456440">
        <ele>291.0</ele>
        <time>2018-10-04T08:09:43Z</time>
      </trkpt>
      <trkpt lat="38.3346800" lon="-0.7455820">
        <ele>291.1</ele>
        <time>2018-10-04T08:09:44Z</time>
      </trkpt>
      <trkpt lat="38.3346620" lon="-0.7455210">
        <ele>291.1</ele>
        <time>2018-10-04T08:09:45Z</time>
      </trkpt>
      <trkpt lat="38.3346530" lon="-0.7454650">
        <ele>291.2</ele>
        <time>2018-10-04T08:09:46Z</time>
      </trkpt>
      <trkpt lat="38.3346680" lon="-0.7454250">
        <ele>291.0</ele>
        <time>2018-10-04T08:09:47Z</time>
      </trkpt>
      <trkpt lat="38.3346940" lon="-0.7454040">
        <ele>290.8</ele>
        <time>2018-10-04T08:09:48Z</time>
      </trkpt>
      <trkpt lat="38.3347290" lon="-0.7453930">
        <ele>290.5</ele>
        <time>2018-10-04T08:09:49Z</time>
      </trkpt>
      <trkpt lat="38.3347730" lon="-0.7453930">
        <ele>290.2</ele>
        <time>2018-10-04T08:09:50Z</time>
      </trkpt>
      <trkpt lat="38.3348210" lon="-0.7453960">
        <ele>289.9</ele>
        <time>2018-10-04T08:09:51Z</time>
      </trkpt>
      <trkpt lat="38.3348750" lon="-0.7454020">
        <ele>289.7</ele>
        <time>2018-10-04T08:09:52Z</time>
      </trkpt>
      <trkpt lat="38.3349350" lon="-0.7454080">
        <ele>289.4</ele>
        <time>2018-10-04T08:09:53Z</time>
      </trkpt>
      <trkpt lat="38.3350000" lon="-0.7454110">
        <ele>289.1</ele>
        <time>2018-10-04T08:09:54Z</time>
      </trkpt>
      <trkpt lat="38.3350720" lon="-0.7454150">
        <ele>288.7</ele>
        <time>2018-10-04T08:09:55Z</time>
      </trkpt>
      <trkpt lat="38.3351470" lon="-0.7454200">
        <ele>288.3</ele>
        <time>2018-10-04T08:09:56Z</time>
      </trkpt>
      <trkpt lat="38.3352280" lon="-0.7454320">
        <ele>287.7</ele>
        <time>2018-10-04T08:09:57Z</time>
      </trkpt>
      <trkpt lat="38.3353110" lon="-0.7454520">
        <ele>287.2</ele>
        <time>2018-10-04T08:09:58Z</time>
      </trkpt>
      <trkpt lat="38.3353930" lon="-0.7454870">
        <ele>286.6</ele>
        <time>2018-10-04T08:09:59Z</time>
      </trkpt>
      <trkpt lat="38.3354750" lon="-0.7455250">
        <ele>286.0</ele>
        <time>2018-10-04T08:10:00Z</time>
      </trkpt>
      <trkpt lat="38.3355560" lon="-0.7455590">
        <ele>285.5</ele>
        <time>2018-10-04T08:10:01Z</time>
      </trkpt>
      <trkpt lat="38.3356240" lon="-0.7455830">
        <ele>285.1</ele>
        <time>2018-10-04T08:10:02Z</time>
      </trkpt>
      <trkpt lat="38.3356730" lon="-0.7455990">
        <ele>284.9</ele>
        <time>2018-10-04T08:10:03Z</time>
      </trkpt>
      <trkpt lat="38.3357130" lon="-0.7456010">
        <ele>284.6</ele>
        <time>2018-10-04T08:10:04Z</time>
      </trkpt>
      <trkpt lat="38.3357510" lon="-0.7455790">
        <ele>284.4</ele>
        <time>2018-10-04T08:10:05Z</time>
      </trkpt>
      <trkpt lat="38.3357810" lon="-0.7455470">
        <ele>284.5</ele>
        <time>2018-10-04T08:10:06Z</time>
      </trkpt>
      <trkpt lat="38.3357950" lon="-0.7454980">
        <ele>284.6</ele>
        <time>2018-10-04T08:10:07Z</time>
      </trkpt>
      <trkpt lat="38.3358000" lon="-0.7454430">
        <ele>284.6</ele>
        <time>2018-10-04T08:10:08Z</time>
      </trkpt>
      <trkpt lat="38.3358020" lon="-0.7453840">
        <ele>284.7</ele>
        <time>2018-10-04T08:10:09Z</time>
      </trkpt>
      <trkpt lat="38.3358000" lon="-0.7453220">
        <ele>284.8</ele>
        <time>2018-10-04T08:10:10Z</time>
      </trkpt>
      <trkpt lat="38.3357970" lon="-0.7452200">
        <ele>284.9</ele>
        <time>2018-10-04T08:10:11Z</time>
      </trkpt>
      <trkpt lat="38.3357950" lon="-0.7451860">
        <ele>284.9</ele>
        <time>2018-10-04T08:10:12Z</time>
      </trkpt>
      <trkpt lat="38.3357940" lon="-0.7451160">
        <ele>285.0</ele>
        <time>2018-10-04T08:10:13Z</time>
      </trkpt>
      <trkpt lat="38.3357940" lon="-0.7451160">
        <ele>285.0</ele>
        <time>2018-10-04T08:10:14Z</time>
      </trkpt>
      <trkpt lat="38.3357880" lon="-0.7449690">
        <ele>285.1</ele>
        <time>2018-10-04T08:10:15Z</time>
      </trkpt>
      <trkpt lat="38.3357840" lon="-0.7448930">
        <ele>285.0</ele>
        <time>2018-10-04T08:10:16Z</time>
      </trkpt>
      <trkpt lat="38.3357790" lon="-0.7448170">
        <ele>285.0</ele>
        <time>2018-10-04T08:10:17Z</time>
      </trkpt>
      <trkpt lat="38.3357720" lon="-0.7447370">
        <ele>284.9</ele>
        <time>2018-10-04T08:10:18Z</time>
      </trkpt>
      <trkpt lat="38.3357590" lon="-0.7446540">
        <ele>284.8</ele>
        <time>2018-10-04T08:10:19Z</time>
      </trkpt>
      <trkpt lat="38.3357410" lon="-0.7445200">
        <ele>284.6</ele>
        <time>2018-10-04T08:10:20Z</time>
      </trkpt>
      <trkpt lat="38.3357340" lon="-0.7444750">
        <ele>284.5</ele>
        <time>2018-10-04T08:10:21Z</time>
      </trkpt>
      <trkpt lat="38.3357230" lon="-0.7443800">
        <ele>284.3</ele>
        <time>2018-10-04T08:10:22Z</time>
      </trkpt>
      <trkpt lat="38.3357230" lon="-0.7443800">
        <ele>284.3</ele>
        <time>2018-10-04T08:10:23Z</time>
      </trkpt>
      <trkpt lat="38.3356900" lon="-0.7441880">
        <ele>283.9</ele>
        <time>2018-10-04T08:10:24Z</time>
      </trkpt>
      <trkpt lat="38.3356690" lon="-0.7440900">
        <ele>283.6</ele>
        <time>2018-10-04T08:10:25Z</time>
      </trkpt>
      <trkpt lat="38.3356520" lon="-0.7439910">
        <ele>283.4</ele>
        <time>2018-10-04T08:10:26Z</time>
      </trkpt>
      <trkpt lat="38.3356420" lon="-0.7438880">
        <ele>283.1</ele>
        <time>2018-10-04T08:10:27Z</time>
      </trkpt>
      <trkpt lat="38.3356420" lon="-0.7437870">
        <ele>283.0</ele>
        <time>2018-10-04T08:10:28Z</time>
      </trkpt>
      <trkpt lat="38.3356450" lon="-0.7436850">
        <ele>282.7</ele>
        <time>2018-10-04T08:10:29Z</time>
      </trkpt>
      <trkpt lat="38.3356500" lon="-0.7435820">
        <ele>282.6</ele>
        <time>2018-10-04T08:10:30Z</time>
      </trkpt>
      <trkpt lat="38.3356520" lon="-0.7434790">
        <ele>282.4</ele>
        <time>2018-10-04T08:10:31Z</time>
      </trkpt>
      <trkpt lat="38.3356440" lon="-0.7433240">
        <ele>282.1</ele>
        <time>2018-10-04T08:10:32Z</time>
      </trkpt>
      <trkpt lat="38.3356390" lon="-0.7432730">
        <ele>282.0</ele>
        <time>2018-10-04T08:10:33Z</time>
      </trkpt>
      <trkpt lat="38.3356270" lon="-0.7431720">
        <ele>281.9</ele>
        <time>2018-10-04T08:10:34Z</time>
      </trkpt>
      <trkpt lat="38.3356270" lon="-0.7431720">
        <ele>281.9</ele>
        <time>2018-10-04T08:10:35Z</time>
      </trkpt>
      <trkpt lat="38.3355860" lon="-0.7429450">
        <ele>281.7</ele>
        <time>2018-10-04T08:10:36Z</time>
      </trkpt>
      <trkpt lat="38.3355800" lon="-0.7429010">
        <ele>281.7</ele>
        <time>2018-10-04T08:10:37Z</time>
      </trkpt>
      <trkpt lat="38.3355760" lon="-0.7428140">
        <ele>281.7</ele>
        <time>2018-10-04T08:10:38Z</time>
      </trkpt>
      <trkpt lat="38.3355760" lon="-0.7428140">
        <ele>281.7</ele>
        <time>2018-10-04T08:10:39Z</time>
      </trkpt>
      <trkpt lat="38.3355980" lon="-0.7426380">
        <ele>281.6</ele>
        <time>2018-10-04T08:10:40Z</time>
      </trkpt>
      <trkpt lat="38.3356300" lon="-0.7425560">
        <ele>281.6</ele>
        <time>2018-10-04T08:10:41Z</time>
      </trkpt>
      <trkpt lat="38.3356750" lon="-0.7424830">
        <ele>281.6</ele>
        <time>2018-10-04T08:10:42Z</time>
      </trkpt>
      <trkpt lat="38.3357310" lon="-0.7424150">
        <ele>281.7</ele>
        <time>2018-10-04T08:10:43Z</time>
      </trkpt>
      <trkpt lat="38.3357880" lon="-0.7423490">
        <ele>281.8</ele>
        <time>2018-10-04T08:10:44Z</time>
      </trkpt>
      <trkpt lat="38.3358470" lon="-0.7422860">
        <ele>282.1</ele>
        <time>2018-10-04T08:10:45Z</time>
      </trkpt>
      <trkpt lat="38.3359110" lon="-0.7422320">
        <ele>282.3</ele>
        <time>2018-10-04T08:10:46Z</time>
      </trkpt>
      <trkpt lat="38.3359740" lon="-0.7421740">
        <ele>282.5</ele>
        <time>2018-10-04T08:10:47Z</time>
      </trkpt>
      <trkpt lat="38.3360340" lon="-0.7421110">
        <ele>282.7</ele>
        <time>2018-10-04T08:10:48Z</time>
      </trkpt>
      <trkpt lat="38.3360890" lon="-0.7420420">
        <ele>282.8</ele>
        <time>2018-10-04T08:10:49Z</time>
      </trkpt>
      <trkpt lat="38.3361400" lon="-0.7419640">
        <ele>282.7</ele>
        <time>2018-10-04T08:10:50Z</time>
      </trkpt>
      <trkpt lat="38.3361880" lon="-0.7418850">
        <ele>283.1</ele>
        <time>2018-10-04T08:10:51Z</time>
      </trkpt>
      <trkpt lat="38.3362440" lon="-0.7417520">
        <ele>282.9</ele>
        <time>2018-10-04T08:10:52Z</time>
      </trkpt>
      <trkpt lat="38.3362580" lon="-0.7417050">
        <ele>282.8</ele>
        <time>2018-10-04T08:10:53Z</time>
      </trkpt>
      <trkpt lat="38.3362710" lon="-0.7416100">
        <ele>282.3</ele>
        <time>2018-10-04T08:10:54Z</time>
      </trkpt>
      <trkpt lat="38.3362710" lon="-0.7416100">
        <ele>282.3</ele>
        <time>2018-10-04T08:10:55Z</time>
      </trkpt>
      <trkpt lat="38.3362710" lon="-0.7414210">
        <ele>281.0</ele>
        <time>2018-10-04T08:10:56Z</time>
      </trkpt>
      <trkpt lat="38.3362680" lon="-0.7413270">
        <ele>280.5</ele>
        <time>2018-10-04T08:10:57Z</time>
      </trkpt>
      <trkpt lat="38.3362640" lon="-0.7412330">
        <ele>279.6</ele>
        <time>2018-10-04T08:10:58Z</time>
      </trkpt>
      <trkpt lat="38.3362620" lon="-0.7411360">
        <ele>278.7</ele>
        <time>2018-10-04T08:10:59Z</time>
      </trkpt>
      <trkpt lat="38.3362630" lon="-0.7410370">
        <ele>278.2</ele>
        <time>2018-10-04T08:11:00Z</time>
      </trkpt>
      <trkpt lat="38.3362660" lon="-0.7409330">
        <ele>277.9</ele>
        <time>2018-10-04T08:11:01Z</time>
      </trkpt>
      <trkpt lat="38.3362680" lon="-0.7408260">
        <ele>278.0</ele>
        <time>2018-10-04T08:11:02Z</time>
      </trkpt>
      <trkpt lat="38.3362680" lon="-0.7407160">
        <ele>277.8</ele>
        <time>2018-10-04T08:11:03Z</time>
      </trkpt>
      <trkpt lat="38.3362430" lon="-0.7405600">
        <ele>277.4</ele>
        <time>2018-10-04T08:11:04Z</time>
      </trkpt>
      <trkpt lat="38.3362280" lon="-0.7405120">
        <ele>277.2</ele>
        <time>2018-10-04T08:11:05Z</time>
      </trkpt>
      <trkpt lat="38.3361780" lon="-0.7404320">
        <ele>276.4</ele>
        <time>2018-10-04T08:11:06Z</time>
      </trkpt>
      <trkpt lat="38.3361780" lon="-0.7404320">
        <ele>276.4</ele>
        <time>2018-10-04T08:11:07Z</time>
      </trkpt>
      <trkpt lat="38.3360430" lon="-0.7403340">
        <ele>275.4</ele>
        <time>2018-10-04T08:11:08Z</time>
      </trkpt>
      <trkpt lat="38.3359700" lon="-0.7403000">
        <ele>275.0</ele>
        <time>2018-10-04T08:11:09Z</time>
      </trkpt>
      <trkpt lat="38.3358980" lon="-0.7402700">
        <ele>274.7</ele>
        <time>2018-10-04T08:11:10Z</time>
      </trkpt>
      <trkpt lat="38.3358290" lon="-0.7402310">
        <ele>274.5</ele>
        <time>2018-10-04T08:11:11Z</time>
      </trkpt>
      <trkpt lat="38.3357660" lon="-0.7401820">
        <ele>274.3</ele>
        <time>2018-10-04T08:11:12Z</time>
      </trkpt>
      <trkpt lat="38.3357110" lon="-0.7401260">
        <ele>274.3</ele>
        <time>2018-10-04T08:11:13Z</time>
      </trkpt>
      <trkpt lat="38.3356390" lon="-0.7400470">
        <ele>274.1</ele>
        <time>2018-10-04T08:11:14Z</time>
      </trkpt>
      <trkpt lat="38.3356200" lon="-0.7400240">
        <ele>274.1</ele>
        <time>2018-10-04T08:11:15Z</time>
      </trkpt>
      <trkpt lat="38.3356010" lon="-0.7400020">
        <ele>274.1</ele>
        <time>2018-10-04T08:11:16Z</time>
      </trkpt>
      <trkpt lat="38.3355820" lon="-0.7399790">
        <ele>274.1</ele>
        <time>2018-10-04T08:11:17Z</time>
      </trkpt>
      <trkpt lat="38.3355630" lon="-0.7399570">
        <ele>274.0</ele>
        <time>2018-10-04T08:11:18Z</time>
      </trkpt>
      <trkpt lat="38.3355630" lon="-0.7399570">
        <ele>274.0</ele>
        <time>2018-10-04T08:11:19Z</time>
      </trkpt>
      <trkpt lat="38.3355630" lon="-0.7399570">
        <ele>274.0</ele>
        <time>2018-10-04T08:11:20Z</time>
      </trkpt>
      <trkpt lat="38.3355140" lon="-0.7396030">
        <ele>273.0</ele>
        <time>2018-10-04T08:11:21Z</time>
      </trkpt>
      <trkpt lat="38.3355360" lon="-0.7395180">
        <ele>272.6</ele>
        <time>2018-10-04T08:11:22Z</time>
      </trkpt>
      <trkpt lat="38.3355600" lon="-0.7394290">
        <ele>272.2</ele>
        <time>2018-10-04T08:11:23Z</time>
      </trkpt>
      <trkpt lat="38.3355830" lon="-0.7393350">
        <ele>271.8</ele>
        <time>2018-10-04T08:11:24Z</time>
      </trkpt>
      <trkpt lat="38.3356100" lon="-0.7391910">
        <ele>270.7</ele>
        <time>2018-10-04T08:11:25Z</time>
      </trkpt>
      <trkpt lat="38.3356190" lon="-0.7391420">
        <ele>270.4</ele>
        <time>2018-10-04T08:11:26Z</time>
      </trkpt>
      <trkpt lat="38.3356310" lon="-0.7390450">
        <ele>269.6</ele>
        <time>2018-10-04T08:11:27Z</time>
      </trkpt>
      <trkpt lat="38.3356310" lon="-0.7390450">
        <ele>269.6</ele>
        <time>2018-10-04T08:11:28Z</time>
      </trkpt>
      <trkpt lat="38.3356630" lon="-0.7388810">
        <ele>268.6</ele>
        <time>2018-10-04T08:11:29Z</time>
      </trkpt>
      <trkpt lat="38.3356830" lon="-0.7388130">
        <ele>268.2</ele>
        <time>2018-10-04T08:11:30Z</time>
      </trkpt>
      <trkpt lat="38.3357200" lon="-0.7387260">
        <ele>267.7</ele>
        <time>2018-10-04T08:11:31Z</time>
      </trkpt>
      <trkpt lat="38.3357600" lon="-0.7386430">
        <ele>267.1</ele>
        <time>2018-10-04T08:11:32Z</time>
      </trkpt>
      <trkpt lat="38.3358050" lon="-0.7385630">
        <ele>266.7</ele>
        <time>2018-10-04T08:11:33Z</time>
      </trkpt>
      <trkpt lat="38.3358560" lon="-0.7384800">
        <ele>266.7</ele>
        <time>2018-10-04T08:11:34Z</time>
      </trkpt>
      <trkpt lat="38.3359100" lon="-0.7383920">
        <ele>266.4</ele>
        <time>2018-10-04T08:11:35Z</time>
      </trkpt>
      <trkpt lat="38.3359640" lon="-0.7382990">
        <ele>266.1</ele>
        <time>2018-10-04T08:11:36Z</time>
      </trkpt>
      <trkpt lat="38.3360150" lon="-0.7382030">
        <ele>265.4</ele>
        <time>2018-10-04T08:11:37Z</time>
      </trkpt>
      <trkpt lat="38.3360660" lon="-0.7381050">
        <ele>264.8</ele>
        <time>2018-10-04T08:11:38Z</time>
      </trkpt>
      <trkpt lat="38.3361150" lon="-0.7380070">
        <ele>263.9</ele>
        <time>2018-10-04T08:11:39Z</time>
      </trkpt>
      <trkpt lat="38.3361620" lon="-0.7379090">
        <ele>263.0</ele>
        <time>2018-10-04T08:11:40Z</time>
      </trkpt>
      <trkpt lat="38.3362140" lon="-0.7378110">
        <ele>262.0</ele>
        <time>2018-10-04T08:11:41Z</time>
      </trkpt>
      <trkpt lat="38.3362630" lon="-0.7377060">
        <ele>260.6</ele>
        <time>2018-10-04T08:11:42Z</time>
      </trkpt>
      <trkpt lat="38.3363190" lon="-0.7375990">
        <ele>259.2</ele>
        <time>2018-10-04T08:11:43Z</time>
      </trkpt>
      <trkpt lat="38.3363820" lon="-0.7374860">
        <ele>258.0</ele>
        <time>2018-10-04T08:11:44Z</time>
      </trkpt>
      <trkpt lat="38.3364440" lon="-0.7373690">
        <ele>256.9</ele>
        <time>2018-10-04T08:11:45Z</time>
      </trkpt>
      <trkpt lat="38.3365060" lon="-0.7372520">
        <ele>255.8</ele>
        <time>2018-10-04T08:11:46Z</time>
      </trkpt>
      <trkpt lat="38.3365640" lon="-0.7371420">
        <ele>254.7</ele>
        <time>2018-10-04T08:11:47Z</time>
      </trkpt>
      <trkpt lat="38.3366240" lon="-0.7370420">
        <ele>253.7</ele>
        <time>2018-10-04T08:11:48Z</time>
      </trkpt>
      <trkpt lat="38.3366930" lon="-0.7369470">
        <ele>252.9</ele>
        <time>2018-10-04T08:11:49Z</time>
      </trkpt>
      <trkpt lat="38.3367680" lon="-0.7368590">
        <ele>252.4</ele>
        <time>2018-10-04T08:11:50Z</time>
      </trkpt>
      <trkpt lat="38.3368500" lon="-0.7367760">
        <ele>251.7</ele>
        <time>2018-10-04T08:11:51Z</time>
      </trkpt>
      <trkpt lat="38.3369270" lon="-0.7367030">
        <ele>250.8</ele>
        <time>2018-10-04T08:11:52Z</time>
      </trkpt>
      <trkpt lat="38.3370410" lon="-0.7365970">
        <ele>249.8</ele>
        <time>2018-10-04T08:11:53Z</time>
      </trkpt>
      <trkpt lat="38.3370790" lon="-0.7365580">
        <ele>249.2</ele>
        <time>2018-10-04T08:11:54Z</time>
      </trkpt>
      <trkpt lat="38.3371460" lon="-0.7364720">
        <ele>248.2</ele>
        <time>2018-10-04T08:11:55Z</time>
      </trkpt>
      <trkpt lat="38.3371460" lon="-0.7364720">
        <ele>248.2</ele>
        <time>2018-10-04T08:11:56Z</time>
      </trkpt>
      <trkpt lat="38.3372560" lon="-0.7362800">
        <ele>246.2</ele>
        <time>2018-10-04T08:11:57Z</time>
      </trkpt>
      <trkpt lat="38.3372980" lon="-0.7361790">
        <ele>245.5</ele>
        <time>2018-10-04T08:11:58Z</time>
      </trkpt>
      <trkpt lat="38.3373380" lon="-0.7360750">
        <ele>244.6</ele>
        <time>2018-10-04T08:11:59Z</time>
      </trkpt>
      <trkpt lat="38.3373790" lon="-0.7359710">
        <ele>243.5</ele>
        <time>2018-10-04T08:12:00Z</time>
      </trkpt>
      <trkpt lat="38.3374220" lon="-0.7358650">
        <ele>242.4</ele>
        <time>2018-10-04T08:12:01Z</time>
      </trkpt>
      <trkpt lat="38.3374650" lon="-0.7357620">
        <ele>241.4</ele>
        <time>2018-10-04T08:12:02Z</time>
      </trkpt>
      <trkpt lat="38.3375070" lon="-0.7356580">
        <ele>240.7</ele>
        <time>2018-10-04T08:12:03Z</time>
      </trkpt>
      <trkpt lat="38.3375480" lon="-0.7355540">
        <ele>239.8</ele>
        <time>2018-10-04T08:12:04Z</time>
      </trkpt>
      <trkpt lat="38.3375910" lon="-0.7354490">
        <ele>239.0</ele>
        <time>2018-10-04T08:12:05Z</time>
      </trkpt>
      <trkpt lat="38.3376300" lon="-0.7353430">
        <ele>238.6</ele>
        <time>2018-10-04T08:12:06Z</time>
      </trkpt>
      <trkpt lat="38.3376580" lon="-0.7352320">
        <ele>238.0</ele>
        <time>2018-10-04T08:12:07Z</time>
      </trkpt>
      <trkpt lat="38.3376710" lon="-0.7351170">
        <ele>237.6</ele>
        <time>2018-10-04T08:12:08Z</time>
      </trkpt>
      <trkpt lat="38.3376780" lon="-0.7350030">
        <ele>237.1</ele>
        <time>2018-10-04T08:12:09Z</time>
      </trkpt>
      <trkpt lat="38.3376840" lon="-0.7348900">
        <ele>236.8</ele>
        <time>2018-10-04T08:12:10Z</time>
      </trkpt>
      <trkpt lat="38.3376960" lon="-0.7347250">
        <ele>236.5</ele>
        <time>2018-10-04T08:12:11Z</time>
      </trkpt>
      <trkpt lat="38.3377070" lon="-0.7346140">
        <ele>236.3</ele>
        <time>2018-10-04T08:12:12Z</time>
      </trkpt>
      <trkpt lat="38.3377170" lon="-0.7345070">
        <ele>236.1</ele>
        <time>2018-10-04T08:12:13Z</time>
      </trkpt>
      <trkpt lat="38.3377190" lon="-0.7344070">
        <ele>236.0</ele>
        <time>2018-10-04T08:12:14Z</time>
      </trkpt>
      <trkpt lat="38.3377110" lon="-0.7343040">
        <ele>235.8</ele>
        <time>2018-10-04T08:12:15Z</time>
      </trkpt>
      <trkpt lat="38.3376980" lon="-0.7342000">
        <ele>235.7</ele>
        <time>2018-10-04T08:12:16Z</time>
      </trkpt>
      <trkpt lat="38.3376800" lon="-0.7340940">
        <ele>235.6</ele>
        <time>2018-10-04T08:12:17Z</time>
      </trkpt>
      <trkpt lat="38.3376580" lon="-0.7339980">
        <ele>235.4</ele>
        <time>2018-10-04T08:12:18Z</time>
      </trkpt>
      <trkpt lat="38.3376360" lon="-0.7339190">
        <ele>235.2</ele>
        <time>2018-10-04T08:12:19Z</time>
      </trkpt>
      <trkpt lat="38.3376070" lon="-0.7338550">
        <ele>235.0</ele>
        <time>2018-10-04T08:12:20Z</time>
      </trkpt>
      <trkpt lat="38.3375720" lon="-0.7338100">
        <ele>234.8</ele>
        <time>2018-10-04T08:12:21Z</time>
      </trkpt>
      <trkpt lat="38.3375290" lon="-0.7337800">
        <ele>234.7</ele>
        <time>2018-10-04T08:12:22Z</time>
      </trkpt>
      <trkpt lat="38.3374830" lon="-0.7337600">
        <ele>234.7</ele>
        <time>2018-10-04T08:12:23Z</time>
      </trkpt>
      <trkpt lat="38.3374320" lon="-0.7337560">
        <ele>234.6</ele>
        <time>2018-10-04T08:12:24Z</time>
      </trkpt>
      <trkpt lat="38.3373770" lon="-0.7337550">
        <ele>234.6</ele>
        <time>2018-10-04T08:12:25Z</time>
      </trkpt>
      <trkpt lat="38.3373200" lon="-0.7337460">
        <ele>234.7</ele>
        <time>2018-10-04T08:12:26Z</time>
      </trkpt>
      <trkpt lat="38.3372600" lon="-0.7337330">
        <ele>234.8</ele>
        <time>2018-10-04T08:12:27Z</time>
      </trkpt>
      <trkpt lat="38.3371770" lon="-0.7336950">
        <ele>235.0</ele>
        <time>2018-10-04T08:12:28Z</time>
      </trkpt>
      <trkpt lat="38.3371500" lon="-0.7336780">
        <ele>235.1</ele>
        <time>2018-10-04T08:12:29Z</time>
      </trkpt>
      <trkpt lat="38.3371060" lon="-0.7336290">
        <ele>235.2</ele>
        <time>2018-10-04T08:12:30Z</time>
      </trkpt>
      <trkpt lat="38.3371060" lon="-0.7336290">
        <ele>235.2</ele>
        <time>2018-10-04T08:12:31Z</time>
      </trkpt>
      <trkpt lat="38.3370370" lon="-0.7334690">
        <ele>235.1</ele>
        <time>2018-10-04T08:12:32Z</time>
      </trkpt>
      <trkpt lat="38.3370270" lon="-0.7334370">
        <ele>235.1</ele>
        <time>2018-10-04T08:12:33Z</time>
      </trkpt>
      <trkpt lat="38.3370100" lon="-0.7333710">
        <ele>235.0</ele>
        <time>2018-10-04T08:12:34Z</time>
      </trkpt>
      <trkpt lat="38.3370100" lon="-0.7333710">
        <ele>235.0</ele>
        <time>2018-10-04T08:12:35Z</time>
      </trkpt>
      <trkpt lat="38.3369800" lon="-0.7332460">
        <ele>234.6</ele>
        <time>2018-10-04T08:12:36Z</time>
      </trkpt>
      <trkpt lat="38.3369660" lon="-0.7331850">
        <ele>234.4</ele>
        <time>2018-10-04T08:12:37Z</time>
      </trkpt>
      <trkpt lat="38.3369510" lon="-0.7331260">
        <ele>234.1</ele>
        <time>2018-10-04T08:12:38Z</time>
      </trkpt>
      <trkpt lat="38.3369350" lon="-0.7330680">
        <ele>233.9</ele>
        <time>2018-10-04T08:12:39Z</time>
      </trkpt>
      <trkpt lat="38.3369150" lon="-0.7330110">
        <ele>233.7</ele>
        <time>2018-10-04T08:12:40Z</time>
      </trkpt>
      <trkpt lat="38.3368900" lon="-0.7329580">
        <ele>233.4</ele>
        <time>2018-10-04T08:12:41Z</time>
      </trkpt>
      <trkpt lat="38.3368600" lon="-0.7329100">
        <ele>233.2</ele>
        <time>2018-10-04T08:12:42Z</time>
      </trkpt>
      <trkpt lat="38.3368260" lon="-0.7328710">
        <ele>232.9</ele>
        <time>2018-10-04T08:12:43Z</time>
      </trkpt>
      <trkpt lat="38.3367610" lon="-0.7328220">
        <ele>232.5</ele>
        <time>2018-10-04T08:12:44Z</time>
      </trkpt>
      <trkpt lat="38.3367370" lon="-0.7328080">
        <ele>232.5</ele>
        <time>2018-10-04T08:12:45Z</time>
      </trkpt>
      <trkpt lat="38.3366860" lon="-0.7327920">
        <ele>232.5</ele>
        <time>2018-10-04T08:12:46Z</time>
      </trkpt>
      <trkpt lat="38.3366860" lon="-0.7327920">
        <ele>232.5</ele>
        <time>2018-10-04T08:12:47Z</time>
      </trkpt>
      <trkpt lat="38.3366030" lon="-0.7327780">
        <ele>232.4</ele>
        <time>2018-10-04T08:12:48Z</time>
      </trkpt>
      <trkpt lat="38.3365470" lon="-0.7327780">
        <ele>232.5</ele>
        <time>2018-10-04T08:12:49Z</time>
      </trkpt>
      <trkpt lat="38.3364940" lon="-0.7327790">
        <ele>232.9</ele>
        <time>2018-10-04T08:12:50Z</time>
      </trkpt>
      <trkpt lat="38.3364220" lon="-0.7327830">
        <ele>232.9</ele>
        <time>2018-10-04T08:12:51Z</time>
      </trkpt>
      <trkpt lat="38.3363990" lon="-0.7327840">
        <ele>232.9</ele>
        <time>2018-10-04T08:12:52Z</time>
      </trkpt>
      <trkpt lat="38.3363590" lon="-0.7327860">
        <ele>232.9</ele>
        <time>2018-10-04T08:12:53Z</time>
      </trkpt>
      <trkpt lat="38.3363590" lon="-0.7327860">
        <ele>232.9</ele>
        <time>2018-10-04T08:12:54Z</time>
      </trkpt>
      <trkpt lat="38.3362890" lon="-0.7327690">
        <ele>232.7</ele>
        <time>2018-10-04T08:12:55Z</time>
      </trkpt>
      <trkpt lat="38.3362590" lon="-0.7327530">
        <ele>232.5</ele>
        <time>2018-10-04T08:12:56Z</time>
      </trkpt>
      <trkpt lat="38.3362320" lon="-0.7327270">
        <ele>232.3</ele>
        <time>2018-10-04T08:12:57Z</time>
      </trkpt>
      <trkpt lat="38.3362100" lon="-0.7326960">
        <ele>232.1</ele>
        <time>2018-10-04T08:12:58Z</time>
      </trkpt>
      <trkpt lat="38.3361900" lon="-0.7326580">
        <ele>232.0</ele>
        <time>2018-10-04T08:12:59Z</time>
      </trkpt>
      <trkpt lat="38.3361720" lon="-0.7326130">
        <ele>232.0</ele>
        <time>2018-10-04T08:13:00Z</time>
      </trkpt>
      <trkpt lat="38.3361550" lon="-0.7325620">
        <ele>231.8</ele>
        <time>2018-10-04T08:13:01Z</time>
      </trkpt>
      <trkpt lat="38.3361380" lon="-0.7325070">
        <ele>231.1</ele>
        <time>2018-10-04T08:13:02Z</time>
      </trkpt>
      <trkpt lat="38.3361190" lon="-0.7324460">
        <ele>230.4</ele>
        <time>2018-10-04T08:13:03Z</time>
      </trkpt>
      <trkpt lat="38.3360980" lon="-0.7323830">
        <ele>229.6</ele>
        <time>2018-10-04T08:13:04Z</time>
      </trkpt>
      <trkpt lat="38.3360750" lon="-0.7323170">
        <ele>228.8</ele>
        <time>2018-10-04T08:13:05Z</time>
      </trkpt>
      <trkpt lat="38.3360500" lon="-0.7322480">
        <ele>227.9</ele>
        <time>2018-10-04T08:13:06Z</time>
      </trkpt>
      <trkpt lat="38.3360270" lon="-0.7321740">
        <ele>227.0</ele>
        <time>2018-10-04T08:13:07Z</time>
      </trkpt>
      <trkpt lat="38.3360090" lon="-0.7320940">
        <ele>226.0</ele>
        <time>2018-10-04T08:13:08Z</time>
      </trkpt>
      <trkpt lat="38.3359940" lon="-0.7320080">
        <ele>223.6</ele>
        <time>2018-10-04T08:13:09Z</time>
      </trkpt>
      <trkpt lat="38.3359830" lon="-0.7319210">
        <ele>222.3</ele>
        <time>2018-10-04T08:13:10Z</time>
      </trkpt>
      <trkpt lat="38.3359760" lon="-0.7318320">
        <ele>221.0</ele>
        <time>2018-10-04T08:13:11Z</time>
      </trkpt>
      <trkpt lat="38.3359670" lon="-0.7317440">
        <ele>219.7</ele>
        <time>2018-10-04T08:13:12Z</time>
      </trkpt>
      <trkpt lat="38.3359560" lon="-0.7316600">
        <ele>218.4</ele>
        <time>2018-10-04T08:13:13Z</time>
      </trkpt>
      <trkpt lat="38.3359370" lon="-0.7315830">
        <ele>217.9</ele>
        <time>2018-10-04T08:13:14Z</time>
      </trkpt>
      <trkpt lat="38.3359160" lon="-0.7315090">
        <ele>217.6</ele>
        <time>2018-10-04T08:13:15Z</time>
      </trkpt>
      <trkpt lat="38.3359020" lon="-0.7314330">
        <ele>217.4</ele>
        <time>2018-10-04T08:13:16Z</time>
      </trkpt>
      <trkpt lat="38.3358960" lon="-0.7313580">
        <ele>217.2</ele>
        <time>2018-10-04T08:13:17Z</time>
      </trkpt>
      <trkpt lat="38.3358990" lon="-0.7312810">
        <ele>216.9</ele>
        <time>2018-10-04T08:13:18Z</time>
      </trkpt>
      <trkpt lat="38.3359090" lon="-0.7312050">
        <ele>216.7</ele>
        <time>2018-10-04T08:13:19Z</time>
      </trkpt>
      <trkpt lat="38.3359270" lon="-0.7311260">
        <ele>216.3</ele>
        <time>2018-10-04T08:13:20Z</time>
      </trkpt>
      <trkpt lat="38.3359460" lon="-0.7310440">
        <ele>216.1</ele>
        <time>2018-10-04T08:13:21Z</time>
      </trkpt>
      <trkpt lat="38.3359520" lon="-0.7309140">
        <ele>215.7</ele>
        <time>2018-10-04T08:13:22Z</time>
      </trkpt>
      <trkpt lat="38.3359510" lon="-0.7308710">
        <ele>215.5</ele>
        <time>2018-10-04T08:13:23Z</time>
      </trkpt>
      <trkpt lat="38.3359420" lon="-0.7307790">
        <ele>215.1</ele>
        <time>2018-10-04T08:13:24Z</time>
      </trkpt>
      <trkpt lat="38.3359420" lon="-0.7307790">
        <ele>215.1</ele>
        <time>2018-10-04T08:13:25Z</time>
      </trkpt>
      <trkpt lat="38.3359310" lon="-0.7306080">
        <ele>214.0</ele>
        <time>2018-10-04T08:13:26Z</time>
      </trkpt>
      <trkpt lat="38.3359460" lon="-0.7305320">
        <ele>213.5</ele>
        <time>2018-10-04T08:13:27Z</time>
      </trkpt>
      <trkpt lat="38.3359710" lon="-0.7304550">
        <ele>212.7</ele>
        <time>2018-10-04T08:13:28Z</time>
      </trkpt>
      <trkpt lat="38.3360200" lon="-0.7303420">
        <ele>211.8</ele>
        <time>2018-10-04T08:13:29Z</time>
      </trkpt>
      <trkpt lat="38.3360350" lon="-0.7303000">
        <ele>211.5</ele>
        <time>2018-10-04T08:13:30Z</time>
      </trkpt>
      <trkpt lat="38.3360670" lon="-0.7302080">
        <ele>210.9</ele>
        <time>2018-10-04T08:13:31Z</time>
      </trkpt>
      <trkpt lat="38.3360670" lon="-0.7302080">
        <ele>210.9</ele>
        <time>2018-10-04T08:13:32Z</time>
      </trkpt>
      <trkpt lat="38.3361150" lon="-0.7299980">
        <ele>210.2</ele>
        <time>2018-10-04T08:13:33Z</time>
      </trkpt>
      <trkpt lat="38.3361320" lon="-0.7298860">
        <ele>209.8</ele>
        <time>2018-10-04T08:13:34Z</time>
      </trkpt>
      <trkpt lat="38.3361460" lon="-0.7297740">
        <ele>209.3</ele>
        <time>2018-10-04T08:13:35Z</time>
      </trkpt>
      <trkpt lat="38.3361620" lon="-0.7296610">
        <ele>208.8</ele>
        <time>2018-10-04T08:13:36Z</time>
      </trkpt>
      <trkpt lat="38.3361770" lon="-0.7295540">
        <ele>208.4</ele>
        <time>2018-10-04T08:13:37Z</time>
      </trkpt>
      <trkpt lat="38.3362060" lon="-0.7294130">
        <ele>207.9</ele>
        <time>2018-10-04T08:13:38Z</time>
      </trkpt>
      <trkpt lat="38.3362290" lon="-0.7293220">
        <ele>207.4</ele>
        <time>2018-10-04T08:13:39Z</time>
      </trkpt>
      <trkpt lat="38.3362490" lon="-0.7292370">
        <ele>206.9</ele>
        <time>2018-10-04T08:13:40Z</time>
      </trkpt>
      <trkpt lat="38.3362660" lon="-0.7291680">
        <ele>206.5</ele>
        <time>2018-10-04T08:13:41Z</time>
      </trkpt>
      <trkpt lat="38.3362740" lon="-0.7291020">
        <ele>206.1</ele>
        <time>2018-10-04T08:13:42Z</time>
      </trkpt>
      <trkpt lat="38.3362740" lon="-0.7291020">
        <ele>206.1</ele>
        <time>2018-10-04T08:13:43Z</time>
      </trkpt>
      <trkpt lat="38.3362430" lon="-0.7289940">
        <ele>205.5</ele>
        <time>2018-10-04T08:13:44Z</time>
      </trkpt>
      <trkpt lat="38.3362180" lon="-0.7289530">
        <ele>205.3</ele>
        <time>2018-10-04T08:13:45Z</time>
      </trkpt>
      <trkpt lat="38.3361640" lon="-0.7289160">
        <ele>204.7</ele>
        <time>2018-10-04T08:13:46Z</time>
      </trkpt>
      <trkpt lat="38.3361640" lon="-0.7289160">
        <ele>204.7</ele>
        <time>2018-10-04T08:13:47Z</time>
      </trkpt>
      <trkpt lat="38.3360730" lon="-0.7288390">
        <ele>204.0</ele>
        <time>2018-10-04T08:13:48Z</time>
      </trkpt>
      <trkpt lat="38.3360570" lon="-0.7287900">
        <ele>203.8</ele>
        <time>2018-10-04T08:13:49Z</time>
      </trkpt>
      <trkpt lat="38.3360600" lon="-0.7287390">
        <ele>203.6</ele>
        <time>2018-10-04T08:13:50Z</time>
      </trkpt>
      <trkpt lat="38.3360810" lon="-0.7286920">
        <ele>203.4</ele>
        <time>2018-10-04T08:13:51Z</time>
      </trkpt>
      <trkpt lat="38.3361050" lon="-0.7286420">
        <ele>203.2</ele>
        <time>2018-10-04T08:13:52Z</time>
      </trkpt>
      <trkpt lat="38.3361270" lon="-0.7285850">
        <ele>202.8</ele>
        <time>2018-10-04T08:13:53Z</time>
      </trkpt>
      <trkpt lat="38.3361480" lon="-0.7285190">
        <ele>202.3</ele>
        <time>2018-10-04T08:13:54Z</time>
      </trkpt>
      <trkpt lat="38.3361670" lon="-0.7284430">
        <ele>201.9</ele>
        <time>2018-10-04T08:13:55Z</time>
      </trkpt>
      <trkpt lat="38.3361880" lon="-0.7283580">
        <ele>201.5</ele>
        <time>2018-10-04T08:13:56Z</time>
      </trkpt>
      <trkpt lat="38.3362090" lon="-0.7282660">
        <ele>200.9</ele>
        <time>2018-10-04T08:13:57Z</time>
      </trkpt>
      <trkpt lat="38.3362290" lon="-0.7281690">
        <ele>200.6</ele>
        <time>2018-10-04T08:13:58Z</time>
      </trkpt>
      <trkpt lat="38.3362480" lon="-0.7280670">
        <ele>200.4</ele>
        <time>2018-10-04T08:13:59Z</time>
      </trkpt>
      <trkpt lat="38.3362650" lon="-0.7279610">
        <ele>200.2</ele>
        <time>2018-10-04T08:14:00Z</time>
      </trkpt>
      <trkpt lat="38.3362820" lon="-0.7278560">
        <ele>199.9</ele>
        <time>2018-10-04T08:14:01Z</time>
      </trkpt>
      <trkpt lat="38.3363020" lon="-0.7277530">
        <ele>199.6</ele>
        <time>2018-10-04T08:14:02Z</time>
      </trkpt>
      <trkpt lat="38.3363310" lon="-0.7276550">
        <ele>199.4</ele>
        <time>2018-10-04T08:14:03Z</time>
      </trkpt>
      <trkpt lat="38.3363690" lon="-0.7275620">
        <ele>199.1</ele>
        <time>2018-10-04T08:14:04Z</time>
      </trkpt>
      <trkpt lat="38.3364120" lon="-0.7274750">
        <ele>198.9</ele>
        <time>2018-10-04T08:14:05Z</time>
      </trkpt>
      <trkpt lat="38.3364580" lon="-0.7273920">
        <ele>198.7</ele>
        <time>2018-10-04T08:14:06Z</time>
      </trkpt>
      <trkpt lat="38.3365030" lon="-0.7273130">
        <ele>198.5</ele>
        <time>2018-10-04T08:14:07Z</time>
      </trkpt>
      <trkpt lat="38.3365470" lon="-0.7272360">
        <ele>198.3</ele>
        <time>2018-10-04T08:14:08Z</time>
      </trkpt>
      <trkpt lat="38.3365930" lon="-0.7271630">
        <ele>198.1</ele>
        <time>2018-10-04T08:14:09Z</time>
      </trkpt>
      <trkpt lat="38.3366390" lon="-0.7270900">
        <ele>197.7</ele>
        <time>2018-10-04T08:14:10Z</time>
      </trkpt>
      <trkpt lat="38.3367090" lon="-0.7269750">
        <ele>197.2</ele>
        <time>2018-10-04T08:14:11Z</time>
      </trkpt>
      <trkpt lat="38.3367330" lon="-0.7269360">
        <ele>196.9</ele>
        <time>2018-10-04T08:14:12Z</time>
      </trkpt>
      <trkpt lat="38.3367820" lon="-0.7268540">
        <ele>196.5</ele>
        <time>2018-10-04T08:14:13Z</time>
      </trkpt>
      <trkpt lat="38.3367820" lon="-0.7268540">
        <ele>196.5</ele>
        <time>2018-10-04T08:14:14Z</time>
      </trkpt>
      <trkpt lat="38.3368870" lon="-0.7266880">
        <ele>195.7</ele>
        <time>2018-10-04T08:14:15Z</time>
      </trkpt>
      <trkpt lat="38.3369400" lon="-0.7266080">
        <ele>195.2</ele>
        <time>2018-10-04T08:14:16Z</time>
      </trkpt>
      <trkpt lat="38.3369820" lon="-0.7265310">
        <ele>194.8</ele>
        <time>2018-10-04T08:14:17Z</time>
      </trkpt>
      <trkpt lat="38.3370150" lon="-0.7264520">
        <ele>194.4</ele>
        <time>2018-10-04T08:14:18Z</time>
      </trkpt>
      <trkpt lat="38.3370560" lon="-0.7263190">
        <ele>193.4</ele>
        <time>2018-10-04T08:14:19Z</time>
      </trkpt>
      <trkpt lat="38.3370680" lon="-0.7262740">
        <ele>193.0</ele>
        <time>2018-10-04T08:14:20Z</time>
      </trkpt>
      <trkpt lat="38.3370860" lon="-0.7262040">
        <ele>192.5</ele>
        <time>2018-10-04T08:14:21Z</time>
      </trkpt>
      <trkpt lat="38.3370860" lon="-0.7262040">
        <ele>192.5</ele>
        <time>2018-10-04T08:14:22Z</time>
      </trkpt>
      <trkpt lat="38.3371260" lon="-0.7260680">
        <ele>191.4</ele>
        <time>2018-10-04T08:14:23Z</time>
      </trkpt>
      <trkpt lat="38.3371450" lon="-0.7259980">
        <ele>191.0</ele>
        <time>2018-10-04T08:14:24Z</time>
      </trkpt>
      <trkpt lat="38.3371620" lon="-0.7259340">
        <ele>190.6</ele>
        <time>2018-10-04T08:14:25Z</time>
      </trkpt>
      <trkpt lat="38.3371770" lon="-0.7258820">
        <ele>190.3</ele>
        <time>2018-10-04T08:14:26Z</time>
      </trkpt>
      <trkpt lat="38.3371890" lon="-0.7258490">
        <ele>190.2</ele>
        <time>2018-10-04T08:14:27Z</time>
      </trkpt>
      <trkpt lat="38.3372020" lon="-0.7258200">
        <ele>190.1</ele>
        <time>2018-10-04T08:14:28Z</time>
      </trkpt>
      <trkpt lat="38.3372180" lon="-0.7257830">
        <ele>189.9</ele>
        <time>2018-10-04T08:14:29Z</time>
      </trkpt>
      <trkpt lat="38.3372470" lon="-0.7257400">
        <ele>189.8</ele>
        <time>2018-10-04T08:14:30Z</time>
      </trkpt>
      <trkpt lat="38.3372870" lon="-0.7256970">
        <ele>189.6</ele>
        <time>2018-10-04T08:14:31Z</time>
      </trkpt>
      <trkpt lat="38.3373380" lon="-0.7256630">
        <ele>189.4</ele>
        <time>2018-10-04T08:14:32Z</time>
      </trkpt>
      <trkpt lat="38.3373990" lon="-0.7256420">
        <ele>189.2</ele>
        <time>2018-10-04T08:14:33Z</time>
      </trkpt>
      <trkpt lat="38.3374620" lon="-0.7256240">
        <ele>189.0</ele>
        <time>2018-10-04T08:14:34Z</time>
      </trkpt>
      <trkpt lat="38.3375270" lon="-0.7256080">
        <ele>188.9</ele>
        <time>2018-10-04T08:14:35Z</time>
      </trkpt>
      <trkpt lat="38.3375910" lon="-0.7255830">
        <ele>188.8</ele>
        <time>2018-10-04T08:14:36Z</time>
      </trkpt>
      <trkpt lat="38.3376530" lon="-0.7255510">
        <ele>188.7</ele>
        <time>2018-10-04T08:14:37Z</time>
      </trkpt>
      <trkpt lat="38.3377150" lon="-0.7255140">
        <ele>188.6</ele>
        <time>2018-10-04T08:14:38Z</time>
      </trkpt>
      <trkpt lat="38.3377710" lon="-0.7254670">
        <ele>188.5</ele>
        <time>2018-10-04T08:14:39Z</time>
      </trkpt>
      <trkpt lat="38.3378240" lon="-0.7254170">
        <ele>188.4</ele>
        <time>2018-10-04T08:14:40Z</time>
      </trkpt>
      <trkpt lat="38.3378770" lon="-0.7253750">
        <ele>188.3</ele>
        <time>2018-10-04T08:14:41Z</time>
      </trkpt>
      <trkpt lat="38.3379330" lon="-0.7253500">
        <ele>188.2</ele>
        <time>2018-10-04T08:14:42Z</time>
      </trkpt>
      <trkpt lat="38.3379910" lon="-0.7253460">
        <ele>188.1</ele>
        <time>2018-10-04T08:14:43Z</time>
      </trkpt>
      <trkpt lat="38.3380490" lon="-0.7253610">
        <ele>188.0</ele>
        <time>2018-10-04T08:14:44Z</time>
      </trkpt>
      <trkpt lat="38.3381070" lon="-0.7253840">
        <ele>187.8</ele>
        <time>2018-10-04T08:14:45Z</time>
      </trkpt>
      <trkpt lat="38.3381700" lon="-0.7254090">
        <ele>187.6</ele>
        <time>2018-10-04T08:14:46Z</time>
      </trkpt>
      <trkpt lat="38.3382370" lon="-0.7254410">
        <ele>187.3</ele>
        <time>2018-10-04T08:14:47Z</time>
      </trkpt>
      <trkpt lat="38.3383080" lon="-0.7254780">
        <ele>186.9</ele>
        <time>2018-10-04T08:14:48Z</time>
      </trkpt>
      <trkpt lat="38.3383840" lon="-0.7255210">
        <ele>186.6</ele>
        <time>2018-10-04T08:14:49Z</time>
      </trkpt>
      <trkpt lat="38.3384600" lon="-0.7255660">
        <ele>186.3</ele>
        <time>2018-10-04T08:14:50Z</time>
      </trkpt>
      <trkpt lat="38.3385420" lon="-0.7256080">
        <ele>185.7</ele>
        <time>2018-10-04T08:14:51Z</time>
      </trkpt>
      <trkpt lat="38.3386440" lon="-0.7256610">
        <ele>185.2</ele>
        <time>2018-10-04T08:14:52Z</time>
      </trkpt>
      <trkpt lat="38.3386990" lon="-0.7257000">
        <ele>184.9</ele>
        <time>2018-10-04T08:14:53Z</time>
      </trkpt>
      <trkpt lat="38.3387550" lon="-0.7257430">
        <ele>184.6</ele>
        <time>2018-10-04T08:14:54Z</time>
      </trkpt>
      <trkpt lat="38.3388140" lon="-0.7257780">
        <ele>184.3</ele>
        <time>2018-10-04T08:14:55Z</time>
      </trkpt>
      <trkpt lat="38.3388740" lon="-0.7258160">
        <ele>184.0</ele>
        <time>2018-10-04T08:14:56Z</time>
      </trkpt>
      <trkpt lat="38.3389300" lon="-0.7258620">
        <ele>184.1</ele>
        <time>2018-10-04T08:14:57Z</time>
      </trkpt>
      <trkpt lat="38.3389860" lon="-0.7259130">
        <ele>184.2</ele>
        <time>2018-10-04T08:14:58Z</time>
      </trkpt>
      <trkpt lat="38.3390390" lon="-0.7259630">
        <ele>184.2</ele>
        <time>2018-10-04T08:14:59Z</time>
      </trkpt>
      <trkpt lat="38.3391150" lon="-0.7260400">
        <ele>184.4</ele>
        <time>2018-10-04T08:15:00Z</time>
      </trkpt>
      <trkpt lat="38.3391390" lon="-0.7260660">
        <ele>184.5</ele>
        <time>2018-10-04T08:15:01Z</time>
      </trkpt>
      <trkpt lat="38.3391840" lon="-0.7261200">
        <ele>184.6</ele>
        <time>2018-10-04T08:15:02Z</time>
      </trkpt>
      <trkpt lat="38.3391840" lon="-0.7261200">
        <ele>184.6</ele>
        <time>2018-10-04T08:15:03Z</time>
      </trkpt>
      <trkpt lat="38.3392310" lon="-0.7261710">
        <ele>184.7</ele>
        <time>2018-10-04T08:15:04Z</time>
      </trkpt>
      <trkpt lat="38.3393330" lon="-0.7262790">
        <ele>185.0</ele>
        <time>2018-10-04T08:15:05Z</time>
      </trkpt>
      <trkpt lat="38.3393670" lon="-0.7263140">
        <ele>185.1</ele>
        <time>2018-10-04T08:15:06Z</time>
      </trkpt>
      <trkpt lat="38.3394110" lon="-0.7263560">
        <ele>185.3</ele>
        <time>2018-10-04T08:15:07Z</time>
      </trkpt>
      <trkpt lat="38.3394440" lon="-0.7263850">
        <ele>185.5</ele>
        <time>2018-10-04T08:15:08Z</time>
      </trkpt>
      <trkpt lat="38.3394760" lon="-0.7264140">
        <ele>185.6</ele>
        <time>2018-10-04T08:15:09Z</time>
      </trkpt>
      <trkpt lat="38.3395390" lon="-0.7264690">
        <ele>185.8</ele>
        <time>2018-10-04T08:15:10Z</time>
      </trkpt>
      <trkpt lat="38.3395600" lon="-0.7264870">
        <ele>185.9</ele>
        <time>2018-10-04T08:15:11Z</time>
      </trkpt>
      <trkpt lat="38.3395810" lon="-0.7265050">
        <ele>186.0</ele>
        <time>2018-10-04T08:15:12Z</time>
      </trkpt>
      <trkpt lat="38.3396440" lon="-0.7265600">
        <ele>186.3</ele>
        <time>2018-10-04T08:15:13Z</time>
      </trkpt>
      <trkpt lat="38.3396440" lon="-0.7265600">
        <ele>186.3</ele>
        <time>2018-10-04T08:15:14Z</time>
      </trkpt>
      <trkpt lat="38.3397100" lon="-0.7266110">
        <ele>186.4</ele>
        <time>2018-10-04T08:15:15Z</time>
      </trkpt>
      <trkpt lat="38.3397740" lon="-0.7266640">
        <ele>186.5</ele>
        <time>2018-10-04T08:15:16Z</time>
      </trkpt>
      <trkpt lat="38.3398160" lon="-0.7266970">
        <ele>186.6</ele>
        <time>2018-10-04T08:15:17Z</time>
      </trkpt>
      <trkpt lat="38.3398620" lon="-0.7267290">
        <ele>186.6</ele>
        <time>2018-10-04T08:15:18Z</time>
      </trkpt>
      <trkpt lat="38.3399120" lon="-0.7267620">
        <ele>186.7</ele>
        <time>2018-10-04T08:15:19Z</time>
      </trkpt>
      <trkpt lat="38.3399640" lon="-0.7267980">
        <ele>186.7</ele>
        <time>2018-10-04T08:15:20Z</time>
      </trkpt>
      <trkpt lat="38.3400190" lon="-0.7268320">
        <ele>186.7</ele>
        <time>2018-10-04T08:15:21Z</time>
      </trkpt>
      <trkpt lat="38.3400800" lon="-0.7268650">
        <ele>186.7</ele>
        <time>2018-10-04T08:15:22Z</time>
      </trkpt>
      <trkpt lat="38.3401390" lon="-0.7268960">
        <ele>186.7</ele>
        <time>2018-10-04T08:15:23Z</time>
      </trkpt>
      <trkpt lat="38.3402260" lon="-0.7269350">
        <ele>186.6</ele>
        <time>2018-10-04T08:15:24Z</time>
      </trkpt>
      <trkpt lat="38.3402880" lon="-0.7269590">
        <ele>186.6</ele>
        <time>2018-10-04T08:15:25Z</time>
      </trkpt>
      <trkpt lat="38.3403490" lon="-0.7269860">
        <ele>186.6</ele>
        <time>2018-10-04T08:15:26Z</time>
      </trkpt>
      <trkpt lat="38.3404080" lon="-0.7270160">
        <ele>186.5</ele>
        <time>2018-10-04T08:15:27Z</time>
      </trkpt>
      <trkpt lat="38.3404680" lon="-0.7270480">
        <ele>186.5</ele>
        <time>2018-10-04T08:15:28Z</time>
      </trkpt>
      <trkpt lat="38.3405240" lon="-0.7270880">
        <ele>186.4</ele>
        <time>2018-10-04T08:15:29Z</time>
      </trkpt>
      <trkpt lat="38.3405770" lon="-0.7271370">
        <ele>186.4</ele>
        <time>2018-10-04T08:15:30Z</time>
      </trkpt>
      <trkpt lat="38.3406190" lon="-0.7271980">
        <ele>186.3</ele>
        <time>2018-10-04T08:15:31Z</time>
      </trkpt>
      <trkpt lat="38.3406590" lon="-0.7272670">
        <ele>186.2</ele>
        <time>2018-10-04T08:15:32Z</time>
      </trkpt>
      <trkpt lat="38.3407010" lon="-0.7273380">
        <ele>186.1</ele>
        <time>2018-10-04T08:15:33Z</time>
      </trkpt>
      <trkpt lat="38.3407430" lon="-0.7274070">
        <ele>185.9</ele>
        <time>2018-10-04T08:15:34Z</time>
      </trkpt>
      <trkpt lat="38.3407920" lon="-0.7274660">
        <ele>185.8</ele>
        <time>2018-10-04T08:15:35Z</time>
      </trkpt>
      <trkpt lat="38.3408410" lon="-0.7275090">
        <ele>185.6</ele>
        <time>2018-10-04T08:15:36Z</time>
      </trkpt>
      <trkpt lat="38.3408910" lon="-0.7275370">
        <ele>185.5</ele>
        <time>2018-10-04T08:15:37Z</time>
      </trkpt>
      <trkpt lat="38.3409430" lon="-0.7275480">
        <ele>185.4</ele>
        <time>2018-10-04T08:15:38Z</time>
      </trkpt>
      <trkpt lat="38.3410000" lon="-0.7275530">
        <ele>185.3</ele>
        <time>2018-10-04T08:15:39Z</time>
      </trkpt>
      <trkpt lat="38.3410580" lon="-0.7275570">
        <ele>185.1</ele>
        <time>2018-10-04T08:15:40Z</time>
      </trkpt>
      <trkpt lat="38.3411190" lon="-0.7275570">
        <ele>185.0</ele>
        <time>2018-10-04T08:15:41Z</time>
      </trkpt>
      <trkpt lat="38.3411780" lon="-0.7275550">
        <ele>184.9</ele>
        <time>2018-10-04T08:15:42Z</time>
      </trkpt>
      <trkpt lat="38.3412380" lon="-0.7275460">
        <ele>184.9</ele>
        <time>2018-10-04T08:15:43Z</time>
      </trkpt>
      <trkpt lat="38.3412960" lon="-0.7275260">
        <ele>184.9</ele>
        <time>2018-10-04T08:15:44Z</time>
      </trkpt>
      <trkpt lat="38.3413520" lon="-0.7275020">
        <ele>184.9</ele>
        <time>2018-10-04T08:15:45Z</time>
      </trkpt>
      <trkpt lat="38.3414060" lon="-0.7274840">
        <ele>184.9</ele>
        <time>2018-10-04T08:15:46Z</time>
      </trkpt>
      <trkpt lat="38.3414560" lon="-0.7274760">
        <ele>185.0</ele>
        <time>2018-10-04T08:15:47Z</time>
      </trkpt>
      <trkpt lat="38.3415030" lon="-0.7274700">
        <ele>185.1</ele>
        <time>2018-10-04T08:15:48Z</time>
      </trkpt>
      <trkpt lat="38.3415490" lon="-0.7274610">
        <ele>185.1</ele>
        <time>2018-10-04T08:15:49Z</time>
      </trkpt>
      <trkpt lat="38.3415950" lon="-0.7274410">
        <ele>185.3</ele>
        <time>2018-10-04T08:15:50Z</time>
      </trkpt>
      <trkpt lat="38.3416400" lon="-0.7274130">
        <ele>185.4</ele>
        <time>2018-10-04T08:15:51Z</time>
      </trkpt>
      <trkpt lat="38.3416830" lon="-0.7273800">
        <ele>185.5</ele>
        <time>2018-10-04T08:15:52Z</time>
      </trkpt>
      <trkpt lat="38.3417270" lon="-0.7273450">
        <ele>185.7</ele>
        <time>2018-10-04T08:15:53Z</time>
      </trkpt>
      <trkpt lat="38.3417730" lon="-0.7273110">
        <ele>185.8</ele>
        <time>2018-10-04T08:15:54Z</time>
      </trkpt>
      <trkpt lat="38.3418220" lon="-0.7272800">
        <ele>185.9</ele>
        <time>2018-10-04T08:15:55Z</time>
      </trkpt>
      <trkpt lat="38.3418740" lon="-0.7272530">
        <ele>186.0</ele>
        <time>2018-10-04T08:15:56Z</time>
      </trkpt>
      <trkpt lat="38.3419270" lon="-0.7272270">
        <ele>186.1</ele>
        <time>2018-10-04T08:15:57Z</time>
      </trkpt>
      <trkpt lat="38.3419790" lon="-0.7271920">
        <ele>186.2</ele>
        <time>2018-10-04T08:15:58Z</time>
      </trkpt>
      <trkpt lat="38.3420500" lon="-0.7271250">
        <ele>186.3</ele>
        <time>2018-10-04T08:15:59Z</time>
      </trkpt>
      <trkpt lat="38.3420720" lon="-0.7271000">
        <ele>186.3</ele>
        <time>2018-10-04T08:16:00Z</time>
      </trkpt>
      <trkpt lat="38.3421170" lon="-0.7270510">
        <ele>186.4</ele>
        <time>2018-10-04T08:16:01Z</time>
      </trkpt>
      <trkpt lat="38.3421170" lon="-0.7270510">
        <ele>186.4</ele>
        <time>2018-10-04T08:16:02Z</time>
      </trkpt>
      <trkpt lat="38.3422080" lon="-0.7269660">
        <ele>186.6</ele>
        <time>2018-10-04T08:16:03Z</time>
      </trkpt>
      <trkpt lat="38.3422550" lon="-0.7269350">
        <ele>186.7</ele>
        <time>2018-10-04T08:16:04Z</time>
      </trkpt>
      <trkpt lat="38.3423030" lon="-0.7269090">
        <ele>186.8</ele>
        <time>2018-10-04T08:16:05Z</time>
      </trkpt>
      <trkpt lat="38.3423520" lon="-0.7268890">
        <ele>186.9</ele>
        <time>2018-10-04T08:16:06Z</time>
      </trkpt>
      <trkpt lat="38.3424000" lon="-0.7268720">
        <ele>187.0</ele>
        <time>2018-10-04T08:16:07Z</time>
      </trkpt>
      <trkpt lat="38.3424470" lon="-0.7268580">
        <ele>187.1</ele>
        <time>2018-10-04T08:16:08Z</time>
      </trkpt>
      <trkpt lat="38.3424920" lon="-0.7268450">
        <ele>187.2</ele>
        <time>2018-10-04T08:16:09Z</time>
      </trkpt>
      <trkpt lat="38.3425370" lon="-0.7268340">
        <ele>187.4</ele>
        <time>2018-10-04T08:16:10Z</time>
      </trkpt>
      <trkpt lat="38.3425800" lon="-0.7268250">
        <ele>187.7</ele>
        <time>2018-10-04T08:16:11Z</time>
      </trkpt>
      <trkpt lat="38.3426210" lon="-0.7268170">
        <ele>187.9</ele>
        <time>2018-10-04T08:16:12Z</time>
      </trkpt>
      <trkpt lat="38.3426590" lon="-0.7268110">
        <ele>188.1</ele>
        <time>2018-10-04T08:16:13Z</time>
      </trkpt>
      <trkpt lat="38.3426950" lon="-0.7268050">
        <ele>188.2</ele>
        <time>2018-10-04T08:16:14Z</time>
      </trkpt>
      <trkpt lat="38.3427320" lon="-0.7267980">
        <ele>188.4</ele>
        <time>2018-10-04T08:16:15Z</time>
      </trkpt>
      <trkpt lat="38.3427690" lon="-0.7267900">
        <ele>188.8</ele>
        <time>2018-10-04T08:16:16Z</time>
      </trkpt>
      <trkpt lat="38.3428060" lon="-0.7267810">
        <ele>189.1</ele>
        <time>2018-10-04T08:16:17Z</time>
      </trkpt>
      <trkpt lat="38.3428430" lon="-0.7267720">
        <ele>189.4</ele>
        <time>2018-10-04T08:16:18Z</time>
      </trkpt>
      <trkpt lat="38.3428780" lon="-0.7267630">
        <ele>189.7</ele>
        <time>2018-10-04T08:16:19Z</time>
      </trkpt>
      <trkpt lat="38.3429100" lon="-0.7267570">
        <ele>189.9</ele>
        <time>2018-10-04T08:16:20Z</time>
      </trkpt>
      <trkpt lat="38.3429420" lon="-0.7267540">
        <ele>190.2</ele>
        <time>2018-10-04T08:16:21Z</time>
      </trkpt>
      <trkpt lat="38.3429710" lon="-0.7267490">
        <ele>190.4</ele>
        <time>2018-10-04T08:16:22Z</time>
      </trkpt>
      <trkpt lat="38.3430010" lon="-0.7267470">
        <ele>190.6</ele>
        <time>2018-10-04T08:16:23Z</time>
      </trkpt>
      <trkpt lat="38.3430470" lon="-0.7267460">
        <ele>191.0</ele>
        <time>2018-10-04T08:16:24Z</time>
      </trkpt>
      <trkpt lat="38.3430620" lon="-0.7267460">
        <ele>191.1</ele>
        <time>2018-10-04T08:16:25Z</time>
      </trkpt>
      <trkpt lat="38.3430940" lon="-0.7267470">
        <ele>191.3</ele>
        <time>2018-10-04T08:16:26Z</time>
      </trkpt>
      <trkpt lat="38.3430940" lon="-0.7267470">
        <ele>191.3</ele>
        <time>2018-10-04T08:16:27Z</time>
      </trkpt>
      <trkpt lat="38.3431560" lon="-0.7267570">
        <ele>191.7</ele>
        <time>2018-10-04T08:16:28Z</time>
      </trkpt>
      <trkpt lat="38.3431880" lon="-0.7267620">
        <ele>192.1</ele>
        <time>2018-10-04T08:16:29Z</time>
      </trkpt>
      <trkpt lat="38.3432220" lon="-0.7267680">
        <ele>192.6</ele>
        <time>2018-10-04T08:16:30Z</time>
      </trkpt>
      <trkpt lat="38.3432560" lon="-0.7267750">
        <ele>193.0</ele>
        <time>2018-10-04T08:16:31Z</time>
      </trkpt>
      <trkpt lat="38.3432910" lon="-0.7267830">
        <ele>193.4</ele>
        <time>2018-10-04T08:16:32Z</time>
      </trkpt>
      <trkpt lat="38.3433260" lon="-0.7267950">
        <ele>193.6</ele>
        <time>2018-10-04T08:16:33Z</time>
      </trkpt>
      <trkpt lat="38.3433600" lon="-0.7268050">
        <ele>193.8</ele>
        <time>2018-10-04T08:16:34Z</time>
      </trkpt>
      <trkpt lat="38.3433940" lon="-0.7268140">
        <ele>194.1</ele>
        <time>2018-10-04T08:16:35Z</time>
      </trkpt>
      <trkpt lat="38.3434270" lon="-0.7268270">
        <ele>194.3</ele>
        <time>2018-10-04T08:16:36Z</time>
      </trkpt>
      <trkpt lat="38.3434600" lon="-0.7268410">
        <ele>194.4</ele>
        <time>2018-10-04T08:16:37Z</time>
      </trkpt>
      <trkpt lat="38.3434910" lon="-0.7268580">
        <ele>194.5</ele>
        <time>2018-10-04T08:16:38Z</time>
      </trkpt>
      <trkpt lat="38.3435240" lon="-0.7268710">
        <ele>194.6</ele>
        <time>2018-10-04T08:16:39Z</time>
      </trkpt>
      <trkpt lat="38.3435600" lon="-0.7268830">
        <ele>194.8</ele>
        <time>2018-10-04T08:16:40Z</time>
      </trkpt>
      <trkpt lat="38.3436020" lon="-0.7268930">
        <ele>194.9</ele>
        <time>2018-10-04T08:16:41Z</time>
      </trkpt>
      <trkpt lat="38.3436500" lon="-0.7269010">
        <ele>195.1</ele>
        <time>2018-10-04T08:16:42Z</time>
      </trkpt>
      <trkpt lat="38.3436920" lon="-0.7269000">
        <ele>195.1</ele>
        <time>2018-10-04T08:16:43Z</time>
      </trkpt>
      <trkpt lat="38.3437260" lon="-0.7268800">
        <ele>194.6</ele>
        <time>2018-10-04T08:16:44Z</time>
      </trkpt>
      <trkpt lat="38.3437400" lon="-0.7268380">
        <ele>193.5</ele>
        <time>2018-10-04T08:16:45Z</time>
      </trkpt>
      <trkpt lat="38.3437370" lon="-0.7267870">
        <ele>192.2</ele>
        <time>2018-10-04T08:16:46Z</time>
      </trkpt>
      <trkpt lat="38.3437230" lon="-0.7267370">
        <ele>190.9</ele>
        <time>2018-10-04T08:16:47Z</time>
      </trkpt>
      <trkpt lat="38.3437100" lon="-0.7266790">
        <ele>189.5</ele>
        <time>2018-10-04T08:16:48Z</time>
      </trkpt>
      <trkpt lat="38.3437030" lon="-0.7266170">
        <ele>188.0</ele>
        <time>2018-10-04T08:16:49Z</time>
      </trkpt>
      <trkpt lat="38.3436990" lon="-0.7265500">
        <ele>186.3</ele>
        <time>2018-10-04T08:16:50Z</time>
      </trkpt>
      <trkpt lat="38.3436960" lon="-0.7264790">
        <ele>184.0</ele>
        <time>2018-10-04T08:16:51Z</time>
      </trkpt>
      <trkpt lat="38.3436930" lon="-0.7264080">
        <ele>183.5</ele>
        <time>2018-10-04T08:16:52Z</time>
      </trkpt>
      <trkpt lat="38.3436900" lon="-0.7263370">
        <ele>183.1</ele>
        <time>2018-10-04T08:16:53Z</time>
      </trkpt>
      <trkpt lat="38.3436870" lon="-0.7262640">
        <ele>182.6</ele>
        <time>2018-10-04T08:16:54Z</time>
      </trkpt>
      <trkpt lat="38.3436830" lon="-0.7261910">
        <ele>182.1</ele>
        <time>2018-10-04T08:16:55Z</time>
      </trkpt>
      <trkpt lat="38.3436800" lon="-0.7261180">
        <ele>181.5</ele>
        <time>2018-10-04T08:16:56Z</time>
      </trkpt>
      <trkpt lat="38.3436780" lon="-0.7260440">
        <ele>181.0</ele>
        <time>2018-10-04T08:16:57Z</time>
      </trkpt>
      <trkpt lat="38.3436760" lon="-0.7259720">
        <ele>180.4</ele>
        <time>2018-10-04T08:16:58Z</time>
      </trkpt>
      <trkpt lat="38.3436740" lon="-0.7258990">
        <ele>179.8</ele>
        <time>2018-10-04T08:16:59Z</time>
      </trkpt>
      <trkpt lat="38.3436710" lon="-0.7258260">
        <ele>179.2</ele>
        <time>2018-10-04T08:17:00Z</time>
      </trkpt>
      <trkpt lat="38.3436680" lon="-0.7257520">
        <ele>178.6</ele>
        <time>2018-10-04T08:17:01Z</time>
      </trkpt>
      <trkpt lat="38.3436650" lon="-0.7256760">
        <ele>178.0</ele>
        <time>2018-10-04T08:17:02Z</time>
      </trkpt>
      <trkpt lat="38.3436610" lon="-0.7255990">
        <ele>178.0</ele>
        <time>2018-10-04T08:17:03Z</time>
      </trkpt>
      <trkpt lat="38.3436580" lon="-0.7255200">
        <ele>178.1</ele>
        <time>2018-10-04T08:17:04Z</time>
      </trkpt>
      <trkpt lat="38.3436560" lon="-0.7254410">
        <ele>178.1</ele>
        <time>2018-10-04T08:17:05Z</time>
      </trkpt>
      <trkpt lat="38.3436520" lon="-0.7253620">
        <ele>178.1</ele>
        <time>2018-10-04T08:17:06Z</time>
      </trkpt>
      <trkpt lat="38.3436500" lon="-0.7252830">
        <ele>178.2</ele>
        <time>2018-10-04T08:17:07Z</time>
      </trkpt>
      <trkpt lat="38.3436490" lon="-0.7252040">
        <ele>178.3</ele>
        <time>2018-10-04T08:17:08Z</time>
      </trkpt>
      <trkpt lat="38.3436460" lon="-0.7251260">
        <ele>178.5</ele>
        <time>2018-10-04T08:17:09Z</time>
      </trkpt>
      <trkpt lat="38.3436440" lon="-0.7250490">
        <ele>178.6</ele>
        <time>2018-10-04T08:17:10Z</time>
      </trkpt>
      <trkpt lat="38.3436410" lon="-0.7249740">
        <ele>178.8</ele>
        <time>2018-10-04T08:17:11Z</time>
      </trkpt>
      <trkpt lat="38.3436360" lon="-0.7249020">
        <ele>179.0</ele>
        <time>2018-10-04T08:17:12Z</time>
      </trkpt>
      <trkpt lat="38.3436160" lon="-0.7248450">
        <ele>179.1</ele>
        <time>2018-10-04T08:17:13Z</time>
      </trkpt>
      <trkpt lat="38.3435820" lon="-0.7248130">
        <ele>179.1</ele>
        <time>2018-10-04T08:17:14Z</time>
      </trkpt>
      <trkpt lat="38.3435390" lon="-0.7248000">
        <ele>178.6</ele>
        <time>2018-10-04T08:17:15Z</time>
      </trkpt>
      <trkpt lat="38.3434920" lon="-0.7247880">
        <ele>178.6</ele>
        <time>2018-10-04T08:17:16Z</time>
      </trkpt>
      <trkpt lat="38.3434470" lon="-0.7247710">
        <ele>178.4</ele>
        <time>2018-10-04T08:17:17Z</time>
      </trkpt>
      <trkpt lat="38.3434080" lon="-0.7247500">
        <ele>178.5</ele>
        <time>2018-10-04T08:17:18Z</time>
      </trkpt>
      <trkpt lat="38.3433750" lon="-0.7247190">
        <ele>178.3</ele>
        <time>2018-10-04T08:17:19Z</time>
      </trkpt>
      <trkpt lat="38.3433470" lon="-0.7246770">
        <ele>178.4</ele>
        <time>2018-10-04T08:17:20Z</time>
      </trkpt>
      <trkpt lat="38.3433320" lon="-0.7246250">
        <ele>178.7</ele>
        <time>2018-10-04T08:17:21Z</time>
      </trkpt>
      <trkpt lat="38.3433320" lon="-0.7245670">
        <ele>178.9</ele>
        <time>2018-10-04T08:17:22Z</time>
      </trkpt>
      <trkpt lat="38.3433270" lon="-0.7245080">
        <ele>179.1</ele>
        <time>2018-10-04T08:17:23Z</time>
      </trkpt>
      <trkpt lat="38.3433120" lon="-0.7244510">
        <ele>179.6</ele>
        <time>2018-10-04T08:17:24Z</time>
      </trkpt>
      <trkpt lat="38.3432810" lon="-0.7243980">
        <ele>179.7</ele>
        <time>2018-10-04T08:17:25Z</time>
      </trkpt>
      <trkpt lat="38.3432510" lon="-0.7243440">
        <ele>179.8</ele>
        <time>2018-10-04T08:17:26Z</time>
      </trkpt>
      <trkpt lat="38.3432170" lon="-0.7242940">
        <ele>179.9</ele>
        <time>2018-10-04T08:17:27Z</time>
      </trkpt>
      <trkpt lat="38.3431780" lon="-0.7242510">
        <ele>180.0</ele>
        <time>2018-10-04T08:17:28Z</time>
      </trkpt>
      <trkpt lat="38.3431340" lon="-0.7242290">
        <ele>180.0</ele>
        <time>2018-10-04T08:17:29Z</time>
      </trkpt>
      <trkpt lat="38.3430940" lon="-0.7242260">
        <ele>179.9</ele>
        <time>2018-10-04T08:17:30Z</time>
      </trkpt>
      <trkpt lat="38.3430570" lon="-0.7242340">
        <ele>179.8</ele>
        <time>2018-10-04T08:17:31Z</time>
      </trkpt>
      <trkpt lat="38.3430220" lon="-0.7242490">
        <ele>179.5</ele>
        <time>2018-10-04T08:17:32Z</time>
      </trkpt>
      <trkpt lat="38.3429850" lon="-0.7242650">
        <ele>179.5</ele>
        <time>2018-10-04T08:17:33Z</time>
      </trkpt>
      <trkpt lat="38.3429400" lon="-0.7242800">
        <ele>179.5</ele>
        <time>2018-10-04T08:17:34Z</time>
      </trkpt>
      <trkpt lat="38.3428900" lon="-0.7242910">
        <ele>179.3</ele>
        <time>2018-10-04T08:17:35Z</time>
      </trkpt>
      <trkpt lat="38.3428350" lon="-0.7242980">
        <ele>179.4</ele>
        <time>2018-10-04T08:17:36Z</time>
      </trkpt>
      <trkpt lat="38.3427800" lon="-0.7243020">
        <ele>179.6</ele>
        <time>2018-10-04T08:17:37Z</time>
      </trkpt>
      <trkpt lat="38.3427260" lon="-0.7243050">
        <ele>179.9</ele>
        <time>2018-10-04T08:17:38Z</time>
      </trkpt>
      <trkpt lat="38.3426750" lon="-0.7243100">
        <ele>180.1</ele>
        <time>2018-10-04T08:17:39Z</time>
      </trkpt>
      <trkpt lat="38.3426290" lon="-0.7243150">
        <ele>180.6</ele>
        <time>2018-10-04T08:17:40Z</time>
      </trkpt>
      <trkpt lat="38.3425880" lon="-0.7243090">
        <ele>180.8</ele>
        <time>2018-10-04T08:17:41Z</time>
      </trkpt>
      <trkpt lat="38.3425540" lon="-0.7243020">
        <ele>181.0</ele>
        <time>2018-10-04T08:17:42Z</time>
      </trkpt>
      <trkpt lat="38.3425240" lon="-0.7242920">
        <ele>181.3</ele>
        <time>2018-10-04T08:17:43Z</time>
      </trkpt>
      <trkpt lat="38.3424950" lon="-0.7242760">
        <ele>181.9</ele>
        <time>2018-10-04T08:17:44Z</time>
      </trkpt>
      <trkpt lat="38.3424670" lon="-0.7242550">
        <ele>181.9</ele>
        <time>2018-10-04T08:17:45Z</time>
      </trkpt>
      <trkpt lat="38.3424400" lon="-0.7242300">
        <ele>182.4</ele>
        <time>2018-10-04T08:17:46Z</time>
      </trkpt>
      <trkpt lat="38.3424140" lon="-0.7242030">
        <ele>182.8</ele>
        <time>2018-10-04T08:17:47Z</time>
      </trkpt>
      <trkpt lat="38.3423880" lon="-0.7241750">
        <ele>183.3</ele>
        <time>2018-10-04T08:17:48Z</time>
      </trkpt>
      <trkpt lat="38.3423620" lon="-0.7241500">
        <ele>183.9</ele>
        <time>2018-10-04T08:17:49Z</time>
      </trkpt>
      <trkpt lat="38.3423370" lon="-0.7241260">
        <ele>183.9</ele>
        <time>2018-10-04T08:17:50Z</time>
      </trkpt>
      <trkpt lat="38.3423140" lon="-0.7241030">
        <ele>184.5</ele>
        <time>2018-10-04T08:17:51Z</time>
      </trkpt>
      <trkpt lat="38.3422920" lon="-0.7240800">
        <ele>184.9</ele>
        <time>2018-10-04T08:17:52Z</time>
      </trkpt>
      <trkpt lat="38.3422720" lon="-0.7240580">
        <ele>185.1</ele>
        <time>2018-10-04T08:17:53Z</time>
      </trkpt>
      <trkpt lat="38.3422520" lon="-0.7240340">
        <ele>185.6</ele>
        <time>2018-10-04T08:17:54Z</time>
      </trkpt>
      <trkpt lat="38.3422330" lon="-0.7240120">
        <ele>185.9</ele>
        <time>2018-10-04T08:17:55Z</time>
      </trkpt>
      <trkpt lat="38.3422120" lon="-0.7239860">
        <ele>186.4</ele>
        <time>2018-10-04T08:17:56Z</time>
      </trkpt>
      <trkpt lat="38.3421900" lon="-0.7239560">
        <ele>187.3</ele>
        <time>2018-10-04T08:17:57Z</time>
      </trkpt>
      <trkpt lat="38.3421710" lon="-0.7239250">
        <ele>187.6</ele>
        <time>2018-10-04T08:17:58Z</time>
      </trkpt>
      <trkpt lat="38.3421530" lon="-0.7238980">
        <ele>188.2</ele>
        <time>2018-10-04T08:17:59Z</time>
      </trkpt>
      <trkpt lat="38.3421390" lon="-0.7238720">
        <ele>188.5</ele>
        <time>2018-10-04T08:18:00Z</time>
      </trkpt>
      <trkpt lat="38.3421240" lon="-0.7238440">
        <ele>189.4</ele>
        <time>2018-10-04T08:18:01Z</time>
      </trkpt>
      <trkpt lat="38.3421070" lon="-0.7238170">
        <ele>189.4</ele>
        <time>2018-10-04T08:18:02Z</time>
      </trkpt>
      <trkpt lat="38.3420910" lon="-0.7237900">
        <ele>190.1</ele>
        <time>2018-10-04T08:18:03Z</time>
      </trkpt>
      <trkpt lat="38.3420750" lon="-0.7237630">
        <ele>190.3</ele>
        <time>2018-10-04T08:18:04Z</time>
      </trkpt>
      <trkpt lat="38.3420590" lon="-0.7237380">
        <ele>190.7</ele>
        <time>2018-10-04T08:18:05Z</time>
      </trkpt>
      <trkpt lat="38.3420440" lon="-0.7237160">
        <ele>191.0</ele>
        <time>2018-10-04T08:18:06Z</time>
      </trkpt>
      <trkpt lat="38.3420310" lon="-0.7236960">
        <ele>191.0</ele>
        <time>2018-10-04T08:18:07Z</time>
      </trkpt>
      <trkpt lat="38.3420170" lon="-0.7236750">
        <ele>191.6</ele>
        <time>2018-10-04T08:18:08Z</time>
      </trkpt>
      <trkpt lat="38.3420020" lon="-0.7236540">
        <ele>191.6</ele>
        <time>2018-10-04T08:18:09Z</time>
      </trkpt>
      <trkpt lat="38.3419870" lon="-0.7236320">
        <ele>192.3</ele>
        <time>2018-10-04T08:18:10Z</time>
      </trkpt>
      <trkpt lat="38.3419710" lon="-0.7236090">
        <ele>192.3</ele>
        <time>2018-10-04T08:18:11Z</time>
      </trkpt>
      <trkpt lat="38.3419540" lon="-0.7235910">
        <ele>193.0</ele>
        <time>2018-10-04T08:18:12Z</time>
      </trkpt>
      <trkpt lat="38.3419370" lon="-0.7235730">
        <ele>193.0</ele>
        <time>2018-10-04T08:18:13Z</time>
      </trkpt>
      <trkpt lat="38.3419220" lon="-0.7235560">
        <ele>193.4</ele>
        <time>2018-10-04T08:18:14Z</time>
      </trkpt>
      <trkpt lat="38.3419060" lon="-0.7235420">
        <ele>193.8</ele>
        <time>2018-10-04T08:18:15Z</time>
      </trkpt>
      <trkpt lat="38.3418880" lon="-0.7235250">
        <ele>194.2</ele>
        <time>2018-10-04T08:18:16Z</time>
      </trkpt>
      <trkpt lat="38.3418690" lon="-0.7235090">
        <ele>194.6</ele>
        <time>2018-10-04T08:18:17Z</time>
      </trkpt>
      <trkpt lat="38.3418500" lon="-0.7234940">
        <ele>195.0</ele>
        <time>2018-10-04T08:18:18Z</time>
      </trkpt>
      <trkpt lat="38.3418310" lon="-0.7234780">
        <ele>195.0</ele>
        <time>2018-10-04T08:18:19Z</time>
      </trkpt>
      <trkpt lat="38.3418120" lon="-0.7234630">
        <ele>195.7</ele>
        <time>2018-10-04T08:18:20Z</time>
      </trkpt>
      <trkpt lat="38.3417910" lon="-0.7234470">
        <ele>195.6</ele>
        <time>2018-10-04T08:18:21Z</time>
      </trkpt>
      <trkpt lat="38.3417670" lon="-0.7234290">
        <ele>195.9</ele>
        <time>2018-10-04T08:18:22Z</time>
      </trkpt>
      <trkpt lat="38.3417440" lon="-0.7234120">
        <ele>196.5</ele>
        <time>2018-10-04T08:18:23Z</time>
      </trkpt>
      <trkpt lat="38.3417210" lon="-0.7233940">
        <ele>196.7</ele>
        <time>2018-10-04T08:18:24Z</time>
      </trkpt>
      <trkpt lat="38.3416960" lon="-0.7233760">
        <ele>196.9</ele>
        <time>2018-10-04T08:18:25Z</time>
      </trkpt>
      <trkpt lat="38.3416700" lon="-0.7233570">
        <ele>197.1</ele>
        <time>2018-10-04T08:18:26Z</time>
      </trkpt>
      <trkpt lat="38.3416450" lon="-0.7233380">
        <ele>197.5</ele>
        <time>2018-10-04T08:18:27Z</time>
      </trkpt>
      <trkpt lat="38.3416190" lon="-0.7233210">
        <ele>197.6</ele>
        <time>2018-10-04T08:18:28Z</time>
      </trkpt>
      <trkpt lat="38.3415930" lon="-0.7233030">
        <ele>197.6</ele>
        <time>2018-10-04T08:18:29Z</time>
      </trkpt>
      <trkpt lat="38.3415640" lon="-0.7232910">
        <ele>197.9</ele>
        <time>2018-10-04T08:18:30Z</time>
      </trkpt>
      <trkpt lat="38.3415320" lon="-0.7232820">
        <ele>198.0</ele>
        <time>2018-10-04T08:18:31Z</time>
      </trkpt>
      <trkpt lat="38.3415010" lon="-0.7232700">
        <ele>198.0</ele>
        <time>2018-10-04T08:18:32Z</time>
      </trkpt>
      <trkpt lat="38.3414660" lon="-0.7232610">
        <ele>198.0</ele>
        <time>2018-10-04T08:18:33Z</time>
      </trkpt>
      <trkpt lat="38.3414270" lon="-0.7232570">
        <ele>198.0</ele>
        <time>2018-10-04T08:18:34Z</time>
      </trkpt>
      <trkpt lat="38.3413880" lon="-0.7232490">
        <ele>198.2</ele>
        <time>2018-10-04T08:18:35Z</time>
      </trkpt>
      <trkpt lat="38.3413460" lon="-0.7232370">
        <ele>198.1</ele>
        <time>2018-10-04T08:18:36Z</time>
      </trkpt>
      <trkpt lat="38.3413040" lon="-0.7232230">
        <ele>198.0</ele>
        <time>2018-10-04T08:18:37Z</time>
      </trkpt>
      <trkpt lat="38.3412610" lon="-0.7232110">
        <ele>197.9</ele>
        <time>2018-10-04T08:18:38Z</time>
      </trkpt>
      <trkpt lat="38.3412190" lon="-0.7231980">
        <ele>197.9</ele>
        <time>2018-10-04T08:18:39Z</time>
      </trkpt>
      <trkpt lat="38.3411750" lon="-0.7231870">
        <ele>197.4</ele>
        <time>2018-10-04T08:18:40Z</time>
      </trkpt>
      <trkpt lat="38.3411310" lon="-0.7231840">
        <ele>197.0</ele>
        <time>2018-10-04T08:18:41Z</time>
      </trkpt>
      <trkpt lat="38.3410890" lon="-0.7231910">
        <ele>196.6</ele>
        <time>2018-10-04T08:18:42Z</time>
      </trkpt>
      <trkpt lat="38.3410500" lon="-0.7232030">
        <ele>195.9</ele>
        <time>2018-10-04T08:18:43Z</time>
      </trkpt>
      <trkpt lat="38.3410110" lon="-0.7232170">
        <ele>195.4</ele>
        <time>2018-10-04T08:18:44Z</time>
      </trkpt>
      <trkpt lat="38.3409680" lon="-0.7232300">
        <ele>195.0</ele>
        <time>2018-10-04T08:18:45Z</time>
      </trkpt>
      <trkpt lat="38.3409160" lon="-0.7232430">
        <ele>194.6</ele>
        <time>2018-10-04T08:18:46Z</time>
      </trkpt>
      <trkpt lat="38.3408570" lon="-0.7232570">
        <ele>193.7</ele>
        <time>2018-10-04T08:18:47Z</time>
      </trkpt>
      <trkpt lat="38.3407920" lon="-0.7232730">
        <ele>192.8</ele>
        <time>2018-10-04T08:18:48Z</time>
      </trkpt>
      <trkpt lat="38.3407280" lon="-0.7232800">
        <ele>192.1</ele>
        <time>2018-10-04T08:18:49Z</time>
      </trkpt>
      <trkpt lat="38.3406740" lon="-0.7232720">
        <ele>191.3</ele>
        <time>2018-10-04T08:18:50Z</time>
      </trkpt>
      <trkpt lat="38.3406300" lon="-0.7232530">
        <ele>190.9</ele>
        <time>2018-10-04T08:18:51Z</time>
      </trkpt>
      <trkpt lat="38.3405990" lon="-0.7232140">
        <ele>190.7</ele>
        <time>2018-10-04T08:18:52Z</time>
      </trkpt>
      <trkpt lat="38.3405790" lon="-0.7231580">
        <ele>190.7</ele>
        <time>2018-10-04T08:18:53Z</time>
      </trkpt>
      <trkpt lat="38.3405710" lon="-0.7230910">
        <ele>190.9</ele>
        <time>2018-10-04T08:18:54Z</time>
      </trkpt>
      <trkpt lat="38.3405670" lon="-0.7230190">
        <ele>191.3</ele>
        <time>2018-10-04T08:18:55Z</time>
      </trkpt>
      <trkpt lat="38.3405670" lon="-0.7229440">
        <ele>191.7</ele>
        <time>2018-10-04T08:18:56Z</time>
      </trkpt>
      <trkpt lat="38.3405570" lon="-0.7228700">
        <ele>191.9</ele>
        <time>2018-10-04T08:18:57Z</time>
      </trkpt>
      <trkpt lat="38.3405370" lon="-0.7228000">
        <ele>191.8</ele>
        <time>2018-10-04T08:18:58Z</time>
      </trkpt>
      <trkpt lat="38.3405070" lon="-0.7227350">
        <ele>191.9</ele>
        <time>2018-10-04T08:18:59Z</time>
      </trkpt>
      <trkpt lat="38.3404610" lon="-0.7226880">
        <ele>191.9</ele>
        <time>2018-10-04T08:19:00Z</time>
      </trkpt>
      <trkpt lat="38.3404060" lon="-0.7226630">
        <ele>191.3</ele>
        <time>2018-10-04T08:19:01Z</time>
      </trkpt>
      <trkpt lat="38.3403510" lon="-0.7226510">
        <ele>191.3</ele>
        <time>2018-10-04T08:19:02Z</time>
      </trkpt>
      <trkpt lat="38.3403040" lon="-0.7226530">
        <ele>190.3</ele>
        <time>2018-10-04T08:19:03Z</time>
      </trkpt>
      <trkpt lat="38.3402520" lon="-0.7226590">
        <ele>190.0</ele>
        <time>2018-10-04T08:19:04Z</time>
      </trkpt>
      <trkpt lat="38.3401930" lon="-0.7226520">
        <ele>189.5</ele>
        <time>2018-10-04T08:19:05Z</time>
      </trkpt>
      <trkpt lat="38.3401270" lon="-0.7226440">
        <ele>189.6</ele>
        <time>2018-10-04T08:19:06Z</time>
      </trkpt>
      <trkpt lat="38.3400590" lon="-0.7226520">
        <ele>188.9</ele>
        <time>2018-10-04T08:19:07Z</time>
      </trkpt>
      <trkpt lat="38.3400010" lon="-0.7226850">
        <ele>188.6</ele>
        <time>2018-10-04T08:19:08Z</time>
      </trkpt>
      <trkpt lat="38.3399410" lon="-0.7227140">
        <ele>188.1</ele>
        <time>2018-10-04T08:19:09Z</time>
      </trkpt>
      <trkpt lat="38.3398770" lon="-0.7227320">
        <ele>187.9</ele>
        <time>2018-10-04T08:19:10Z</time>
      </trkpt>
      <trkpt lat="38.3398150" lon="-0.7227420">
        <ele>187.2</ele>
        <time>2018-10-04T08:19:11Z</time>
      </trkpt>
      <trkpt lat="38.3397540" lon="-0.7227480">
        <ele>186.8</ele>
        <time>2018-10-04T08:19:12Z</time>
      </trkpt>
      <trkpt lat="38.3396970" lon="-0.7227470">
        <ele>186.5</ele>
        <time>2018-10-04T08:19:13Z</time>
      </trkpt>
      <trkpt lat="38.3396430" lon="-0.7227440">
        <ele>186.4</ele>
        <time>2018-10-04T08:19:14Z</time>
      </trkpt>
      <trkpt lat="38.3395890" lon="-0.7227410">
        <ele>186.1</ele>
        <time>2018-10-04T08:19:15Z</time>
      </trkpt>
      <trkpt lat="38.3395360" lon="-0.7227250">
        <ele>186.5</ele>
        <time>2018-10-04T08:19:16Z</time>
      </trkpt>
      <trkpt lat="38.3394880" lon="-0.7226950">
        <ele>186.4</ele>
        <time>2018-10-04T08:19:17Z</time>
      </trkpt>
      <trkpt lat="38.3394470" lon="-0.7226460">
        <ele>187.4</ele>
        <time>2018-10-04T08:19:18Z</time>
      </trkpt>
      <trkpt lat="38.3394200" lon="-0.7225810">
        <ele>187.9</ele>
        <time>2018-10-04T08:19:19Z</time>
      </trkpt>
      <trkpt lat="38.3393950" lon="-0.7225110">
        <ele>189.0</ele>
        <time>2018-10-04T08:19:20Z</time>
      </trkpt>
      <trkpt lat="38.3393600" lon="-0.7224490">
        <ele>189.6</ele>
        <time>2018-10-04T08:19:21Z</time>
      </trkpt>
      <trkpt lat="38.3393140" lon="-0.7224050">
        <ele>190.0</ele>
        <time>2018-10-04T08:19:22Z</time>
      </trkpt>
      <trkpt lat="38.3392590" lon="-0.7223870">
        <ele>190.0</ele>
        <time>2018-10-04T08:19:23Z</time>
      </trkpt>
      <trkpt lat="38.3392040" lon="-0.7223960">
        <ele>189.3</ele>
        <time>2018-10-04T08:19:24Z</time>
      </trkpt>
      <trkpt lat="38.3391580" lon="-0.7224300">
        <ele>188.8</ele>
        <time>2018-10-04T08:19:25Z</time>
      </trkpt>
      <trkpt lat="38.3391160" lon="-0.7224720">
        <ele>188.0</ele>
        <time>2018-10-04T08:19:26Z</time>
      </trkpt>
      <trkpt lat="38.3390730" lon="-0.7225160">
        <ele>187.4</ele>
        <time>2018-10-04T08:19:27Z</time>
      </trkpt>
      <trkpt lat="38.3390280" lon="-0.7225570">
        <ele>186.5</ele>
        <time>2018-10-04T08:19:28Z</time>
      </trkpt>
      <trkpt lat="38.3389770" lon="-0.7225920">
        <ele>185.8</ele>
        <time>2018-10-04T08:19:29Z</time>
      </trkpt>
      <trkpt lat="38.3389200" lon="-0.7226240">
        <ele>184.9</ele>
        <time>2018-10-04T08:19:30Z</time>
      </trkpt>
      <trkpt lat="38.3388560" lon="-0.7226470">
        <ele>184.5</ele>
        <time>2018-10-04T08:19:31Z</time>
      </trkpt>
      <trkpt lat="38.3387890" lon="-0.7226690">
        <ele>183.6</ele>
        <time>2018-10-04T08:19:32Z</time>
      </trkpt>
      <trkpt lat="38.3387280" lon="-0.7226870">
        <ele>183.3</ele>
        <time>2018-10-04T08:19:33Z</time>
      </trkpt>
      <trkpt lat="38.3386780" lon="-0.7226900">
        <ele>182.9</ele>
        <time>2018-10-04T08:19:34Z</time>
      </trkpt>
      <trkpt lat="38.3386310" lon="-0.7226780">
        <ele>182.7</ele>
        <time>2018-10-04T08:19:35Z</time>
      </trkpt>
      <trkpt lat="38.3385920" lon="-0.7226470">
        <ele>182.7</ele>
        <time>2018-10-04T08:19:36Z</time>
      </trkpt>
      <trkpt lat="38.3385700" lon="-0.7226030">
        <ele>183.0</ele>
        <time>2018-10-04T08:19:37Z</time>
      </trkpt>
      <trkpt lat="38.3385540" lon="-0.7225530">
        <ele>183.1</ele>
        <time>2018-10-04T08:19:38Z</time>
      </trkpt>
      <trkpt lat="38.3385420" lon="-0.7225030">
        <ele>183.4</ele>
        <time>2018-10-04T08:19:39Z</time>
      </trkpt>
      <trkpt lat="38.3385330" lon="-0.7224510">
        <ele>183.7</ele>
        <time>2018-10-04T08:19:40Z</time>
      </trkpt>
      <trkpt lat="38.3385280" lon="-0.7223960">
        <ele>183.9</ele>
        <time>2018-10-04T08:19:41Z</time>
      </trkpt>
      <trkpt lat="38.3385290" lon="-0.7223370">
        <ele>184.4</ele>
        <time>2018-10-04T08:19:42Z</time>
      </trkpt>
      <trkpt lat="38.3385340" lon="-0.7222770">
        <ele>184.7</ele>
        <time>2018-10-04T08:19:43Z</time>
      </trkpt>
      <trkpt lat="38.3385390" lon="-0.7222180">
        <ele>185.4</ele>
        <time>2018-10-04T08:19:44Z</time>
      </trkpt>
      <trkpt lat="38.3385450" lon="-0.7221590">
        <ele>185.7</ele>
        <time>2018-10-04T08:19:45Z</time>
      </trkpt>
      <trkpt lat="38.3385530" lon="-0.7221020">
        <ele>186.0</ele>
        <time>2018-10-04T08:19:46Z</time>
      </trkpt>
      <trkpt lat="38.3385620" lon="-0.7220440">
        <ele>187.0</ele>
        <time>2018-10-04T08:19:47Z</time>
      </trkpt>
      <trkpt lat="38.3385670" lon="-0.7219870">
        <ele>187.2</ele>
        <time>2018-10-04T08:19:48Z</time>
      </trkpt>
      <trkpt lat="38.3385710" lon="-0.7219350">
        <ele>187.2</ele>
        <time>2018-10-04T08:19:49Z</time>
      </trkpt>
      <trkpt lat="38.3385820" lon="-0.7218880">
        <ele>187.4</ele>
        <time>2018-10-04T08:19:50Z</time>
      </trkpt>
      <trkpt lat="38.3385940" lon="-0.7218470">
        <ele>187.9</ele>
        <time>2018-10-04T08:19:51Z</time>
      </trkpt>
      <trkpt lat="38.3386110" lon="-0.7218130">
        <ele>188.0</ele>
        <time>2018-10-04T08:19:52Z</time>
      </trkpt>
      <trkpt lat="38.3386300" lon="-0.7217880">
        <ele>188.5</ele>
        <time>2018-10-04T08:19:53Z</time>
      </trkpt>
      <trkpt lat="38.3386480" lon="-0.7217670">
        <ele>188.5</ele>
        <time>2018-10-04T08:19:54Z</time>
      </trkpt>
      <trkpt lat="38.3386680" lon="-0.7217440">
        <ele>189.0</ele>
        <time>2018-10-04T08:19:55Z</time>
      </trkpt>
      <trkpt lat="38.3386870" lon="-0.7217200">
        <ele>189.0</ele>
        <time>2018-10-04T08:19:56Z</time>
      </trkpt>
      <trkpt lat="38.3387020" lon="-0.7216900">
        <ele>189.6</ele>
        <time>2018-10-04T08:19:57Z</time>
      </trkpt>
      <trkpt lat="38.3387160" lon="-0.7216490">
        <ele>189.8</ele>
        <time>2018-10-04T08:19:58Z</time>
      </trkpt>
      <trkpt lat="38.3387310" lon="-0.7216090">
        <ele>190.5</ele>
        <time>2018-10-04T08:19:59Z</time>
      </trkpt>
      <trkpt lat="38.3387490" lon="-0.7215690">
        <ele>190.6</ele>
        <time>2018-10-04T08:20:00Z</time>
      </trkpt>
      <trkpt lat="38.3387670" lon="-0.7215280">
        <ele>191.4</ele>
        <time>2018-10-04T08:20:01Z</time>
      </trkpt>
      <trkpt lat="38.3387830" lon="-0.7214910">
        <ele>191.5</ele>
        <time>2018-10-04T08:20:02Z</time>
      </trkpt>
      <trkpt lat="38.3387930" lon="-0.7214550">
        <ele>191.5</ele>
        <time>2018-10-04T08:20:03Z</time>
      </trkpt>
      <trkpt lat="38.3388050" lon="-0.7214210">
        <ele>192.3</ele>
        <time>2018-10-04T08:20:04Z</time>
      </trkpt>
      <trkpt lat="38.3388190" lon="-0.7213860">
        <ele>192.4</ele>
        <time>2018-10-04T08:20:05Z</time>
      </trkpt>
      <trkpt lat="38.3388320" lon="-0.7213470">
        <ele>193.1</ele>
        <time>2018-10-04T08:20:06Z</time>
      </trkpt>
      <trkpt lat="38.3388420" lon="-0.7213050">
        <ele>193.2</ele>
        <time>2018-10-04T08:20:07Z</time>
      </trkpt>
      <trkpt lat="38.3388540" lon="-0.7212590">
        <ele>193.3</ele>
        <time>2018-10-04T08:20:08Z</time>
      </trkpt>
      <trkpt lat="38.3388670" lon="-0.7212110">
        <ele>193.9</ele>
        <time>2018-10-04T08:20:09Z</time>
      </trkpt>
      <trkpt lat="38.3388790" lon="-0.7211640">
        <ele>193.9</ele>
        <time>2018-10-04T08:20:10Z</time>
      </trkpt>
      <trkpt lat="38.3388930" lon="-0.7211160">
        <ele>193.9</ele>
        <time>2018-10-04T08:20:11Z</time>
      </trkpt>
      <trkpt lat="38.3389120" lon="-0.7210660">
        <ele>194.5</ele>
        <time>2018-10-04T08:20:12Z</time>
      </trkpt>
      <trkpt lat="38.3389320" lon="-0.7210150">
        <ele>195.1</ele>
        <time>2018-10-04T08:20:13Z</time>
      </trkpt>
      <trkpt lat="38.3389550" lon="-0.7209630">
        <ele>194.9</ele>
        <time>2018-10-04T08:20:14Z</time>
      </trkpt>
      <trkpt lat="38.3389800" lon="-0.7209110">
        <ele>195.4</ele>
        <time>2018-10-04T08:20:15Z</time>
      </trkpt>
      <trkpt lat="38.3390070" lon="-0.7208590">
        <ele>195.7</ele>
        <time>2018-10-04T08:20:16Z</time>
      </trkpt>
      <trkpt lat="38.3390350" lon="-0.7208070">
        <ele>196.0</ele>
        <time>2018-10-04T08:20:17Z</time>
      </trkpt>
      <trkpt lat="38.3390640" lon="-0.7207570">
        <ele>195.3</ele>
        <time>2018-10-04T08:20:18Z</time>
      </trkpt>
      <trkpt lat="38.3390980" lon="-0.7207110">
        <ele>195.6</ele>
        <time>2018-10-04T08:20:19Z</time>
      </trkpt>
      <trkpt lat="38.3391360" lon="-0.7206720">
        <ele>196.7</ele>
        <time>2018-10-04T08:20:20Z</time>
      </trkpt>
      <trkpt lat="38.3391760" lon="-0.7206340">
        <ele>197.2</ele>
        <time>2018-10-04T08:20:21Z</time>
      </trkpt>
      <trkpt lat="38.3392190" lon="-0.7205980">
        <ele>197.9</ele>
        <time>2018-10-04T08:20:22Z</time>
      </trkpt>
      <trkpt lat="38.3392620" lon="-0.7205620">
        <ele>198.4</ele>
        <time>2018-10-04T08:20:23Z</time>
      </trkpt>
      <trkpt lat="38.3393030" lon="-0.7205260">
        <ele>199.6</ele>
        <time>2018-10-04T08:20:24Z</time>
      </trkpt>
      <trkpt lat="38.3393460" lon="-0.7204880">
        <ele>200.0</ele>
        <time>2018-10-04T08:20:25Z</time>
      </trkpt>
      <trkpt lat="38.3393860" lon="-0.7204490">
        <ele>200.4</ele>
        <time>2018-10-04T08:20:26Z</time>
      </trkpt>
      <trkpt lat="38.3394250" lon="-0.7204100">
        <ele>200.9</ele>
        <time>2018-10-04T08:20:27Z</time>
      </trkpt>
      <trkpt lat="38.3394610" lon="-0.7203700">
        <ele>201.4</ele>
        <time>2018-10-04T08:20:28Z</time>
      </trkpt>
      <trkpt lat="38.3394940" lon="-0.7203270">
        <ele>202.0</ele>
        <time>2018-10-04T08:20:29Z</time>
      </trkpt>
      <trkpt lat="38.3395230" lon="-0.7202790">
        <ele>202.7</ele>
        <time>2018-10-04T08:20:30Z</time>
      </trkpt>
      <trkpt lat="38.3395530" lon="-0.7202300">
        <ele>203.5</ele>
        <time>2018-10-04T08:20:31Z</time>
      </trkpt>
      <trkpt lat="38.3395810" lon="-0.7201790">
        <ele>204.5</ele>
        <time>2018-10-04T08:20:32Z</time>
      </trkpt>
      <trkpt lat="38.3396070" lon="-0.7201250">
        <ele>205.5</ele>
        <time>2018-10-04T08:20:33Z</time>
      </trkpt>
      <trkpt lat="38.3396230" lon="-0.7200660">
        <ele>205.7</ele>
        <time>2018-10-04T08:20:34Z</time>
      </trkpt>
      <trkpt lat="38.3396310" lon="-0.7200020">
        <ele>205.8</ele>
        <time>2018-10-04T08:20:35Z</time>
      </trkpt>
      <trkpt lat="38.3396310" lon="-0.7199370">
        <ele>206.0</ele>
        <time>2018-10-04T08:20:36Z</time>
      </trkpt>
      <trkpt lat="38.3396270" lon="-0.7198710">
        <ele>206.0</ele>
        <time>2018-10-04T08:20:37Z</time>
      </trkpt>
      <trkpt lat="38.3396170" lon="-0.7198050">
        <ele>205.9</ele>
        <time>2018-10-04T08:20:38Z</time>
      </trkpt>
      <trkpt lat="38.3396010" lon="-0.7197430">
        <ele>204.8</ele>
        <time>2018-10-04T08:20:39Z</time>
      </trkpt>
      <trkpt lat="38.3395790" lon="-0.7196860">
        <ele>204.5</ele>
        <time>2018-10-04T08:20:40Z</time>
      </trkpt>
      <trkpt lat="38.3395560" lon="-0.7196330">
        <ele>203.3</ele>
        <time>2018-10-04T08:20:41Z</time>
      </trkpt>
      <trkpt lat="38.3395320" lon="-0.7195870">
        <ele>202.1</ele>
        <time>2018-10-04T08:20:42Z</time>
      </trkpt>
      <trkpt lat="38.3395130" lon="-0.7195480">
        <ele>201.9</ele>
        <time>2018-10-04T08:20:43Z</time>
      </trkpt>
      <trkpt lat="38.3395000" lon="-0.7195120">
        <ele>200.7</ele>
        <time>2018-10-04T08:20:44Z</time>
      </trkpt>
      <trkpt lat="38.3394970" lon="-0.7194820">
        <ele>200.7</ele>
        <time>2018-10-04T08:20:45Z</time>
      </trkpt>
      <trkpt lat="38.3394940" lon="-0.7194480">
        <ele>200.5</ele>
        <time>2018-10-04T08:20:46Z</time>
      </trkpt>
      <trkpt lat="38.3394980" lon="-0.7194130">
        <ele>200.4</ele>
        <time>2018-10-04T08:20:47Z</time>
      </trkpt>
      <trkpt lat="38.3395110" lon="-0.7193800">
        <ele>201.2</ele>
        <time>2018-10-04T08:20:48Z</time>
      </trkpt>
      <trkpt lat="38.3395270" lon="-0.7193500">
        <ele>201.1</ele>
        <time>2018-10-04T08:20:49Z</time>
      </trkpt>
      <trkpt lat="38.3395500" lon="-0.7193270">
        <ele>201.9</ele>
        <time>2018-10-04T08:20:50Z</time>
      </trkpt>
      <trkpt lat="38.3395730" lon="-0.7193040">
        <ele>202.6</ele>
        <time>2018-10-04T08:20:51Z</time>
      </trkpt>
      <trkpt lat="38.3395960" lon="-0.7192820">
        <ele>202.6</ele>
        <time>2018-10-04T08:20:52Z</time>
      </trkpt>
      <trkpt lat="38.3396180" lon="-0.7192580">
        <ele>203.2</ele>
        <time>2018-10-04T08:20:53Z</time>
      </trkpt>
      <trkpt lat="38.3396400" lon="-0.7192340">
        <ele>204.0</ele>
        <time>2018-10-04T08:20:54Z</time>
      </trkpt>
      <trkpt lat="38.3396640" lon="-0.7192140">
        <ele>203.7</ele>
        <time>2018-10-04T08:20:55Z</time>
      </trkpt>
      <trkpt lat="38.3396850" lon="-0.7191940">
        <ele>204.5</ele>
        <time>2018-10-04T08:20:56Z</time>
      </trkpt>
      <trkpt lat="38.3397080" lon="-0.7191750">
        <ele>205.1</ele>
        <time>2018-10-04T08:20:57Z</time>
      </trkpt>
      <trkpt lat="38.3397300" lon="-0.7191550">
        <ele>205.1</ele>
        <time>2018-10-04T08:20:58Z</time>
      </trkpt>
      <trkpt lat="38.3397520" lon="-0.7191320">
        <ele>205.6</ele>
        <time>2018-10-04T08:20:59Z</time>
      </trkpt>
      <trkpt lat="38.3397760" lon="-0.7191100">
        <ele>206.5</ele>
        <time>2018-10-04T08:21:00Z</time>
      </trkpt>
      <trkpt lat="38.3398010" lon="-0.7190880">
        <ele>206.1</ele>
        <time>2018-10-04T08:21:01Z</time>
      </trkpt>
      <trkpt lat="38.3398260" lon="-0.7190650">
        <ele>206.9</ele>
        <time>2018-10-04T08:21:02Z</time>
      </trkpt>
      <trkpt lat="38.3398530" lon="-0.7190410">
        <ele>207.3</ele>
        <time>2018-10-04T08:21:03Z</time>
      </trkpt>
      <trkpt lat="38.3398800" lon="-0.7190140">
        <ele>208.0</ele>
        <time>2018-10-04T08:21:04Z</time>
      </trkpt>
      <trkpt lat="38.3399080" lon="-0.7189850">
        <ele>208.2</ele>
        <time>2018-10-04T08:21:05Z</time>
      </trkpt>
      <trkpt lat="38.3399360" lon="-0.7189540">
        <ele>207.7</ele>
        <time>2018-10-04T08:21:06Z</time>
      </trkpt>
      <trkpt lat="38.3399630" lon="-0.7189190">
        <ele>208.3</ele>
        <time>2018-10-04T08:21:07Z</time>
      </trkpt>
      <trkpt lat="38.3399910" lon="-0.7188850">
        <ele>208.4</ele>
        <time>2018-10-04T08:21:08Z</time>
      </trkpt>
      <trkpt lat="38.3400200" lon="-0.7188520">
        <ele>208.5</ele>
        <time>2018-10-04T08:21:09Z</time>
      </trkpt>
      <trkpt lat="38.3400550" lon="-0.7188220">
        <ele>208.6</ele>
        <time>2018-10-04T08:21:10Z</time>
      </trkpt>
      <trkpt lat="38.3400970" lon="-0.7187990">
        <ele>209.2</ele>
        <time>2018-10-04T08:21:11Z</time>
      </trkpt>
      <trkpt lat="38.3401460" lon="-0.7187810">
        <ele>209.9</ele>
        <time>2018-10-04T08:21:12Z</time>
      </trkpt>
      <trkpt lat="38.3402000" lon="-0.7187610">
        <ele>210.4</ele>
        <time>2018-10-04T08:21:13Z</time>
      </trkpt>
      <trkpt lat="38.3402550" lon="-0.7187410">
        <ele>211.0</ele>
        <time>2018-10-04T08:21:14Z</time>
      </trkpt>
      <trkpt lat="38.3403110" lon="-0.7187230">
        <ele>212.0</ele>
        <time>2018-10-04T08:21:15Z</time>
      </trkpt>
      <trkpt lat="38.3403680" lon="-0.7186960">
        <ele>212.1</ele>
        <time>2018-10-04T08:21:16Z</time>
      </trkpt>
      <trkpt lat="38.3404200" lon="-0.7186550">
        <ele>212.4</ele>
        <time>2018-10-04T08:21:17Z</time>
      </trkpt>
      <trkpt lat="38.3404680" lon="-0.7186070">
        <ele>212.3</ele>
        <time>2018-10-04T08:21:18Z</time>
      </trkpt>
      <trkpt lat="38.3405090" lon="-0.7185490">
        <ele>212.1</ele>
        <time>2018-10-04T08:21:19Z</time>
      </trkpt>
      <trkpt lat="38.3405470" lon="-0.7184890">
        <ele>212.1</ele>
        <time>2018-10-04T08:21:20Z</time>
      </trkpt>
      <trkpt lat="38.3405840" lon="-0.7184280">
        <ele>211.4</ele>
        <time>2018-10-04T08:21:21Z</time>
      </trkpt>
      <trkpt lat="38.3406210" lon="-0.7183680">
        <ele>211.1</ele>
        <time>2018-10-04T08:21:22Z</time>
      </trkpt>
      <trkpt lat="38.3406570" lon="-0.7183100">
        <ele>210.4</ele>
        <time>2018-10-04T08:21:23Z</time>
      </trkpt>
      <trkpt lat="38.3406950" lon="-0.7182560">
        <ele>210.1</ele>
        <time>2018-10-04T08:21:24Z</time>
      </trkpt>
      <trkpt lat="38.3407350" lon="-0.7182080">
        <ele>209.8</ele>
        <time>2018-10-04T08:21:25Z</time>
      </trkpt>
      <trkpt lat="38.3407740" lon="-0.7181670">
        <ele>209.5</ele>
        <time>2018-10-04T08:21:26Z</time>
      </trkpt>
      <trkpt lat="38.3408160" lon="-0.7181340">
        <ele>209.4</ele>
        <time>2018-10-04T08:21:27Z</time>
      </trkpt>
      <trkpt lat="38.3408560" lon="-0.7181090">
        <ele>209.6</ele>
        <time>2018-10-04T08:21:28Z</time>
      </trkpt>
      <trkpt lat="38.3408970" lon="-0.7180960">
        <ele>209.2</ele>
        <time>2018-10-04T08:21:29Z</time>
      </trkpt>
      <trkpt lat="38.3409370" lon="-0.7180840">
        <ele>209.2</ele>
        <time>2018-10-04T08:21:30Z</time>
      </trkpt>
      <trkpt lat="38.3409660" lon="-0.7180650">
        <ele>209.3</ele>
        <time>2018-10-04T08:21:31Z</time>
      </trkpt>
      <trkpt lat="38.3409870" lon="-0.7180570">
        <ele>208.7</ele>
        <time>2018-10-04T08:21:32Z</time>
      </trkpt>
      <trkpt lat="38.3410120" lon="-0.7180410">
        <ele>208.7</ele>
        <time>2018-10-04T08:21:33Z</time>
      </trkpt>
      <trkpt lat="38.3410410" lon="-0.7180200">
        <ele>208.6</ele>
        <time>2018-10-04T08:21:34Z</time>
      </trkpt>
      <trkpt lat="38.3410640" lon="-0.7180060">
        <ele>208.0</ele>
        <time>2018-10-04T08:21:35Z</time>
      </trkpt>
      <trkpt lat="38.3410860" lon="-0.7179900">
        <ele>207.9</ele>
        <time>2018-10-04T08:21:36Z</time>
      </trkpt>
      <trkpt lat="38.3411160" lon="-0.7179770">
        <ele>207.9</ele>
        <time>2018-10-04T08:21:37Z</time>
      </trkpt>
      <trkpt lat="38.3411550" lon="-0.7179710">
        <ele>207.2</ele>
        <time>2018-10-04T08:21:38Z</time>
      </trkpt>
      <trkpt lat="38.3411970" lon="-0.7179770">
        <ele>207.6</ele>
        <time>2018-10-04T08:21:39Z</time>
      </trkpt>
      <trkpt lat="38.3412410" lon="-0.7179930">
        <ele>207.4</ele>
        <time>2018-10-04T08:21:40Z</time>
      </trkpt>
      <trkpt lat="38.3412870" lon="-0.7180040">
        <ele>207.2</ele>
        <time>2018-10-04T08:21:41Z</time>
      </trkpt>
      <trkpt lat="38.3413320" lon="-0.7180110">
        <ele>207.0</ele>
        <time>2018-10-04T08:21:42Z</time>
      </trkpt>
      <trkpt lat="38.3413780" lon="-0.7180130">
        <ele>206.9</ele>
        <time>2018-10-04T08:21:43Z</time>
      </trkpt>
      <trkpt lat="38.3414250" lon="-0.7180140">
        <ele>206.7</ele>
        <time>2018-10-04T08:21:44Z</time>
      </trkpt>
      <trkpt lat="38.3414700" lon="-0.7180130">
        <ele>206.6</ele>
        <time>2018-10-04T08:21:45Z</time>
      </trkpt>
      <trkpt lat="38.3415130" lon="-0.7180060">
        <ele>206.5</ele>
        <time>2018-10-04T08:21:46Z</time>
      </trkpt>
      <trkpt lat="38.3415480" lon="-0.7179900">
        <ele>206.4</ele>
        <time>2018-10-04T08:21:47Z</time>
      </trkpt>
      <trkpt lat="38.3415670" lon="-0.7179700">
        <ele>206.1</ele>
        <time>2018-10-04T08:21:48Z</time>
      </trkpt>
      <trkpt lat="38.3416000" lon="-0.7179380">
        <ele>205.9</ele>
        <time>2018-10-04T08:21:49Z</time>
      </trkpt>
      <trkpt lat="38.3416190" lon="-0.7179020">
        <ele>205.8</ele>
        <time>2018-10-04T08:21:50Z</time>
      </trkpt>
      <trkpt lat="38.3416200" lon="-0.7178730">
        <ele>205.7</ele>
        <time>2018-10-04T08:21:51Z</time>
      </trkpt>
      <trkpt lat="38.3416110" lon="-0.7178490">
        <ele>205.7</ele>
        <time>2018-10-04T08:21:52Z</time>
      </trkpt>
      <trkpt lat="38.3415940" lon="-0.7178260">
        <ele>205.6</ele>
        <time>2018-10-04T08:21:53Z</time>
      </trkpt>
      <trkpt lat="38.3415710" lon="-0.7177960">
        <ele>205.6</ele>
        <time>2018-10-04T08:21:54Z</time>
      </trkpt>
      <trkpt lat="38.3415370" lon="-0.7177620">
        <ele>205.1</ele>
        <time>2018-10-04T08:21:55Z</time>
      </trkpt>
      <trkpt lat="38.3414940" lon="-0.7177320">
        <ele>204.4</ele>
        <time>2018-10-04T08:21:56Z</time>
      </trkpt>
      <trkpt lat="38.3414500" lon="-0.7176920">
        <ele>203.7</ele>
        <time>2018-10-04T08:21:57Z</time>
      </trkpt>
      <trkpt lat="38.3414120" lon="-0.7176300">
        <ele>202.9</ele>
        <time>2018-10-04T08:21:58Z</time>
      </trkpt>
      <trkpt lat="38.3413860" lon="-0.7175470">
        <ele>202.0</ele>
        <time>2018-10-04T08:21:59Z</time>
      </trkpt>
      <trkpt lat="38.3413750" lon="-0.7174510">
        <ele>200.8</ele>
        <time>2018-10-04T08:22:00Z</time>
      </trkpt>
      <trkpt lat="38.3413750" lon="-0.7173410">
        <ele>199.4</ele>
        <time>2018-10-04T08:22:01Z</time>
      </trkpt>
      <trkpt lat="38.3413710" lon="-0.7172230">
        <ele>198.1</ele>
        <time>2018-10-04T08:22:02Z</time>
      </trkpt>
      <trkpt lat="38.3413620" lon="-0.7170990">
        <ele>197.3</ele>
        <time>2018-10-04T08:22:03Z</time>
      </trkpt>
      <trkpt lat="38.3413510" lon="-0.7169680">
        <ele>196.6</ele>
        <time>2018-10-04T08:22:04Z</time>
      </trkpt>
      <trkpt lat="38.3413390" lon="-0.7168310">
        <ele>196.0</ele>
        <time>2018-10-04T08:22:05Z</time>
      </trkpt>
      <trkpt lat="38.3413200" lon="-0.7166900">
        <ele>195.7</ele>
        <time>2018-10-04T08:22:06Z</time>
      </trkpt>
      <trkpt lat="38.3412930" lon="-0.7165500">
        <ele>195.5</ele>
        <time>2018-10-04T08:22:07Z</time>
      </trkpt>
      <trkpt lat="38.3412630" lon="-0.7164140">
        <ele>195.3</ele>
        <time>2018-10-04T08:22:08Z</time>
      </trkpt>
      <trkpt lat="38.3412340" lon="-0.7162780">
        <ele>195.1</ele>
        <time>2018-10-04T08:22:09Z</time>
      </trkpt>
      <trkpt lat="38.3412070" lon="-0.7161440">
        <ele>195.2</ele>
        <time>2018-10-04T08:22:10Z</time>
      </trkpt>
      <trkpt lat="38.3411840" lon="-0.7160100">
        <ele>195.4</ele>
        <time>2018-10-04T08:22:11Z</time>
      </trkpt>
      <trkpt lat="38.3411600" lon="-0.7158780">
        <ele>195.6</ele>
        <time>2018-10-04T08:22:12Z</time>
      </trkpt>
      <trkpt lat="38.3411330" lon="-0.7157480">
        <ele>195.8</ele>
        <time>2018-10-04T08:22:13Z</time>
      </trkpt>
      <trkpt lat="38.3411070" lon="-0.7156210">
        <ele>196.0</ele>
        <time>2018-10-04T08:22:14Z</time>
      </trkpt>
      <trkpt lat="38.3410820" lon="-0.7154950">
        <ele>196.2</ele>
        <time>2018-10-04T08:22:15Z</time>
      </trkpt>
      <trkpt lat="38.3410570" lon="-0.7153720">
        <ele>196.5</ele>
        <time>2018-10-04T08:22:16Z</time>
      </trkpt>
      <trkpt lat="38.3410330" lon="-0.7152490">
        <ele>196.8</ele>
        <time>2018-10-04T08:22:17Z</time>
      </trkpt>
      <trkpt lat="38.3410130" lon="-0.7151290">
        <ele>197.1</ele>
        <time>2018-10-04T08:22:18Z</time>
      </trkpt>
      <trkpt lat="38.3409920" lon="-0.7150140">
        <ele>197.4</ele>
        <time>2018-10-04T08:22:19Z</time>
      </trkpt>
      <trkpt lat="38.3409710" lon="-0.7149060">
        <ele>197.8</ele>
        <time>2018-10-04T08:22:20Z</time>
      </trkpt>
      <trkpt lat="38.3409530" lon="-0.7148060">
        <ele>198.4</ele>
        <time>2018-10-04T08:22:21Z</time>
      </trkpt>
      <trkpt lat="38.3409370" lon="-0.7147140">
        <ele>199.0</ele>
        <time>2018-10-04T08:22:22Z</time>
      </trkpt>
      <trkpt lat="38.3409240" lon="-0.7146310">
        <ele>199.7</ele>
        <time>2018-10-04T08:22:23Z</time>
      </trkpt>
      <trkpt lat="38.3409140" lon="-0.7145580">
        <ele>200.0</ele>
        <time>2018-10-04T08:22:24Z</time>
      </trkpt>
      <trkpt lat="38.3409040" lon="-0.7144930">
        <ele>200.0</ele>
        <time>2018-10-04T08:22:25Z</time>
      </trkpt>
      <trkpt lat="38.3408950" lon="-0.7144340">
        <ele>200.0</ele>
        <time>2018-10-04T08:22:26Z</time>
      </trkpt>
      <trkpt lat="38.3408880" lon="-0.7143780">
        <ele>200.0</ele>
        <time>2018-10-04T08:22:27Z</time>
      </trkpt>
      <trkpt lat="38.3408820" lon="-0.7143230">
        <ele>200.0</ele>
        <time>2018-10-04T08:22:28Z</time>
      </trkpt>
      <trkpt lat="38.3408770" lon="-0.7142670">
        <ele>201.2</ele>
        <time>2018-10-04T08:22:29Z</time>
      </trkpt>
      <trkpt lat="38.3408730" lon="-0.7142130">
        <ele>201.7</ele>
        <time>2018-10-04T08:22:30Z</time>
      </trkpt>
      <trkpt lat="38.3408680" lon="-0.7141590">
        <ele>202.0</ele>
        <time>2018-10-04T08:22:31Z</time>
      </trkpt>
      <trkpt lat="38.3408640" lon="-0.7141060">
        <ele>202.3</ele>
        <time>2018-10-04T08:22:32Z</time>
      </trkpt>
      <trkpt lat="38.3408610" lon="-0.7140540">
        <ele>202.7</ele>
        <time>2018-10-04T08:22:33Z</time>
      </trkpt>
      <trkpt lat="38.3408570" lon="-0.7140010">
        <ele>203.2</ele>
        <time>2018-10-04T08:22:34Z</time>
      </trkpt>
      <trkpt lat="38.3408550" lon="-0.7139500">
        <ele>203.7</ele>
        <time>2018-10-04T08:22:35Z</time>
      </trkpt>
      <trkpt lat="38.3408530" lon="-0.7138990">
        <ele>204.2</ele>
        <time>2018-10-04T08:22:36Z</time>
      </trkpt>
      <trkpt lat="38.3408500" lon="-0.7138480">
        <ele>204.6</ele>
        <time>2018-10-04T08:22:37Z</time>
      </trkpt>
      <trkpt lat="38.3408470" lon="-0.7137980">
        <ele>205.0</ele>
        <time>2018-10-04T08:22:38Z</time>
      </trkpt>
      <trkpt lat="38.3408460" lon="-0.7137490">
        <ele>205.3</ele>
        <time>2018-10-04T08:22:39Z</time>
      </trkpt>
      <trkpt lat="38.3408440" lon="-0.7137000">
        <ele>205.7</ele>
        <time>2018-10-04T08:22:40Z</time>
      </trkpt>
      <trkpt lat="38.3408410" lon="-0.7136510">
        <ele>206.1</ele>
        <time>2018-10-04T08:22:41Z</time>
      </trkpt>
      <trkpt lat="38.3408390" lon="-0.7136030">
        <ele>206.6</ele>
        <time>2018-10-04T08:22:42Z</time>
      </trkpt>
      <trkpt lat="38.3408410" lon="-0.7135540">
        <ele>206.8</ele>
        <time>2018-10-04T08:22:43Z</time>
      </trkpt>
      <trkpt lat="38.3408430" lon="-0.7135050">
        <ele>207.1</ele>
        <time>2018-10-04T08:22:44Z</time>
      </trkpt>
      <trkpt lat="38.3408440" lon="-0.7134560">
        <ele>207.3</ele>
        <time>2018-10-04T08:22:45Z</time>
      </trkpt>
      <trkpt lat="38.3408470" lon="-0.7134060">
        <ele>207.8</ele>
        <time>2018-10-04T08:22:46Z</time>
      </trkpt>
      <trkpt lat="38.3408480" lon="-0.7133570">
        <ele>208.0</ele>
        <time>2018-10-04T08:22:47Z</time>
      </trkpt>
      <trkpt lat="38.3408500" lon="-0.7133080">
        <ele>208.2</ele>
        <time>2018-10-04T08:22:48Z</time>
      </trkpt>
      <trkpt lat="38.3408520" lon="-0.7132560">
        <ele>208.5</ele>
        <time>2018-10-04T08:22:49Z</time>
      </trkpt>
      <trkpt lat="38.3408540" lon="-0.7132060">
        <ele>208.7</ele>
        <time>2018-10-04T08:22:50Z</time>
      </trkpt>
      <trkpt lat="38.3408570" lon="-0.7131570">
        <ele>208.9</ele>
        <time>2018-10-04T08:22:51Z</time>
      </trkpt>
      <trkpt lat="38.3408610" lon="-0.7131060">
        <ele>209.2</ele>
        <time>2018-10-04T08:22:52Z</time>
      </trkpt>
      <trkpt lat="38.3408650" lon="-0.7130560">
        <ele>209.3</ele>
        <time>2018-10-04T08:22:53Z</time>
      </trkpt>
      <trkpt lat="38.3408690" lon="-0.7130050">
        <ele>209.4</ele>
        <time>2018-10-04T08:22:54Z</time>
      </trkpt>
      <trkpt lat="38.3408740" lon="-0.7129510">
        <ele>209.6</ele>
        <time>2018-10-04T08:22:55Z</time>
      </trkpt>
      <trkpt lat="38.3408790" lon="-0.7128970">
        <ele>209.7</ele>
        <time>2018-10-04T08:22:56Z</time>
      </trkpt>
      <trkpt lat="38.3408840" lon="-0.7128420">
        <ele>209.9</ele>
        <time>2018-10-04T08:22:57Z</time>
      </trkpt>
      <trkpt lat="38.3408910" lon="-0.7127850">
        <ele>210.0</ele>
        <time>2018-10-04T08:22:58Z</time>
      </trkpt>
      <trkpt lat="38.3409030" lon="-0.7127280">
        <ele>210.1</ele>
        <time>2018-10-04T08:22:59Z</time>
      </trkpt>
      <trkpt lat="38.3409150" lon="-0.7126700">
        <ele>210.2</ele>
        <time>2018-10-04T08:23:00Z</time>
      </trkpt>
      <trkpt lat="38.3409260" lon="-0.7126090">
        <ele>210.3</ele>
        <time>2018-10-04T08:23:01Z</time>
      </trkpt>
      <trkpt lat="38.3409350" lon="-0.7125460">
        <ele>210.3</ele>
        <time>2018-10-04T08:23:02Z</time>
      </trkpt>
      <trkpt lat="38.3409410" lon="-0.7124810">
        <ele>210.4</ele>
        <time>2018-10-04T08:23:03Z</time>
      </trkpt>
      <trkpt lat="38.3409500" lon="-0.7124150">
        <ele>210.5</ele>
        <time>2018-10-04T08:23:04Z</time>
      </trkpt>
      <trkpt lat="38.3409590" lon="-0.7123510">
        <ele>210.6</ele>
        <time>2018-10-04T08:23:05Z</time>
      </trkpt>
      <trkpt lat="38.3409710" lon="-0.7122860">
        <ele>210.6</ele>
        <time>2018-10-04T08:23:06Z</time>
      </trkpt>
      <trkpt lat="38.3409810" lon="-0.7122200">
        <ele>210.7</ele>
        <time>2018-10-04T08:23:07Z</time>
      </trkpt>
      <trkpt lat="38.3409910" lon="-0.7121540">
        <ele>210.8</ele>
        <time>2018-10-04T08:23:08Z</time>
      </trkpt>
      <trkpt lat="38.3410000" lon="-0.7120880">
        <ele>210.9</ele>
        <time>2018-10-04T08:23:09Z</time>
      </trkpt>
      <trkpt lat="38.3410080" lon="-0.7120220">
        <ele>211.0</ele>
        <time>2018-10-04T08:23:10Z</time>
      </trkpt>
      <trkpt lat="38.3410150" lon="-0.7119570">
        <ele>211.0</ele>
        <time>2018-10-04T08:23:11Z</time>
      </trkpt>
      <trkpt lat="38.3410240" lon="-0.7118900">
        <ele>211.1</ele>
        <time>2018-10-04T08:23:12Z</time>
      </trkpt>
      <trkpt lat="38.3410330" lon="-0.7118240">
        <ele>211.2</ele>
        <time>2018-10-04T08:23:13Z</time>
      </trkpt>
      <trkpt lat="38.3410410" lon="-0.7117570">
        <ele>211.3</ele>
        <time>2018-10-04T08:23:14Z</time>
      </trkpt>
      <trkpt lat="38.3410490" lon="-0.7116900">
        <ele>211.5</ele>
        <time>2018-10-04T08:23:15Z</time>
      </trkpt>
      <trkpt lat="38.3410570" lon="-0.7116240">
        <ele>211.6</ele>
        <time>2018-10-04T08:23:16Z</time>
      </trkpt>
      <trkpt lat="38.3410650" lon="-0.7115580">
        <ele>211.7</ele>
        <time>2018-10-04T08:23:17Z</time>
      </trkpt>
      <trkpt lat="38.3410650" lon="-0.7114920">
        <ele>211.9</ele>
        <time>2018-10-04T08:23:18Z</time>
      </trkpt>
      <trkpt lat="38.3410490" lon="-0.7114300">
        <ele>212.0</ele>
        <time>2018-10-04T08:23:19Z</time>
      </trkpt>
      <trkpt lat="38.3410150" lon="-0.7113800">
        <ele>212.0</ele>
        <time>2018-10-04T08:23:20Z</time>
      </trkpt>
      <trkpt lat="38.3409700" lon="-0.7113350">
        <ele>212.0</ele>
        <time>2018-10-04T08:23:21Z</time>
      </trkpt>
      <trkpt lat="38.3409170" lon="-0.7113000">
        <ele>211.8</ele>
        <time>2018-10-04T08:23:22Z</time>
      </trkpt>
      <trkpt lat="38.3408550" lon="-0.7112830">
        <ele>211.5</ele>
        <time>2018-10-04T08:23:23Z</time>
      </trkpt>
      <trkpt lat="38.3407890" lon="-0.7112890">
        <ele>211.3</ele>
        <time>2018-10-04T08:23:24Z</time>
      </trkpt>
      <trkpt lat="38.3407250" lon="-0.7113170">
        <ele>211.1</ele>
        <time>2018-10-04T08:23:25Z</time>
      </trkpt>
      <trkpt lat="38.3406600" lon="-0.7113580">
        <ele>210.9</ele>
        <time>2018-10-04T08:23:26Z</time>
      </trkpt>
      <trkpt lat="38.3405920" lon="-0.7114040">
        <ele>210.6</ele>
        <time>2018-10-04T08:23:27Z</time>
      </trkpt>
      <trkpt lat="38.3405220" lon="-0.7114550">
        <ele>210.4</ele>
        <time>2018-10-04T08:23:28Z</time>
      </trkpt>
      <trkpt lat="38.3404500" lon="-0.7115120">
        <ele>210.0</ele>
        <time>2018-10-04T08:23:29Z</time>
      </trkpt>
      <trkpt lat="38.3403760" lon="-0.7115730">
        <ele>209.6</ele>
        <time>2018-10-04T08:23:30Z</time>
      </trkpt>
      <trkpt lat="38.3403000" lon="-0.7116370">
        <ele>209.2</ele>
        <time>2018-10-04T08:23:31Z</time>
      </trkpt>
      <trkpt lat="38.3402230" lon="-0.7117000">
        <ele>208.8</ele>
        <time>2018-10-04T08:23:32Z</time>
      </trkpt>
      <trkpt lat="38.3401440" lon="-0.7117650">
        <ele>208.4</ele>
        <time>2018-10-04T08:23:33Z</time>
      </trkpt>
      <trkpt lat="38.3400650" lon="-0.7118310">
        <ele>208.0</ele>
        <time>2018-10-04T08:23:34Z</time>
      </trkpt>
      <trkpt lat="38.3399870" lon="-0.7118970">
        <ele>207.6</ele>
        <time>2018-10-04T08:23:35Z</time>
      </trkpt>
      <trkpt lat="38.3399090" lon="-0.7119620">
        <ele>207.3</ele>
        <time>2018-10-04T08:23:36Z</time>
      </trkpt>
      <trkpt lat="38.3398320" lon="-0.7120230">
        <ele>207.1</ele>
        <time>2018-10-04T08:23:37Z</time>
      </trkpt>
      <trkpt lat="38.3397550" lon="-0.7120800">
        <ele>207.0</ele>
        <time>2018-10-04T08:23:38Z</time>
      </trkpt>
      <trkpt lat="38.3396770" lon="-0.7121240">
        <ele>206.9</ele>
        <time>2018-10-04T08:23:39Z</time>
      </trkpt>
      <trkpt lat="38.3395980" lon="-0.7121500">
        <ele>206.9</ele>
        <time>2018-10-04T08:23:40Z</time>
      </trkpt>
      <trkpt lat="38.3395200" lon="-0.7121650">
        <ele>206.9</ele>
        <time>2018-10-04T08:23:41Z</time>
      </trkpt>
      <trkpt lat="38.3394450" lon="-0.7121700">
        <ele>206.9</ele>
        <time>2018-10-04T08:23:42Z</time>
      </trkpt>
      <trkpt lat="38.3393730" lon="-0.7121640">
        <ele>207.0</ele>
        <time>2018-10-04T08:23:43Z</time>
      </trkpt>
      <trkpt lat="38.3393040" lon="-0.7121490">
        <ele>207.0</ele>
        <time>2018-10-04T08:23:44Z</time>
      </trkpt>
      <trkpt lat="38.3392390" lon="-0.7121250">
        <ele>207.0</ele>
        <time>2018-10-04T08:23:45Z</time>
      </trkpt>
      <trkpt lat="38.3391790" lon="-0.7120960">
        <ele>207.1</ele>
        <time>2018-10-04T08:23:46Z</time>
      </trkpt>
      <trkpt lat="38.3391240" lon="-0.7120580">
        <ele>207.1</ele>
        <time>2018-10-04T08:23:47Z</time>
      </trkpt>
      <trkpt lat="38.3390730" lon="-0.7120140">
        <ele>207.2</ele>
        <time>2018-10-04T08:23:48Z</time>
      </trkpt>
      <trkpt lat="38.3390260" lon="-0.7119690">
        <ele>207.2</ele>
        <time>2018-10-04T08:23:49Z</time>
      </trkpt>
      <trkpt lat="38.3389820" lon="-0.7119220">
        <ele>207.2</ele>
        <time>2018-10-04T08:23:50Z</time>
      </trkpt>
      <trkpt lat="38.3389400" lon="-0.7118730">
        <ele>207.3</ele>
        <time>2018-10-04T08:23:51Z</time>
      </trkpt>
      <trkpt lat="38.3389010" lon="-0.7118200">
        <ele>207.3</ele>
        <time>2018-10-04T08:23:52Z</time>
      </trkpt>
      <trkpt lat="38.3388660" lon="-0.7117660">
        <ele>207.4</ele>
        <time>2018-10-04T08:23:53Z</time>
      </trkpt>
      <trkpt lat="38.3388310" lon="-0.7117120">
        <ele>207.6</ele>
        <time>2018-10-04T08:23:54Z</time>
      </trkpt>
      <trkpt lat="38.3387970" lon="-0.7116590">
        <ele>207.8</ele>
        <time>2018-10-04T08:23:55Z</time>
      </trkpt>
      <trkpt lat="38.3387640" lon="-0.7116070">
        <ele>208.1</ele>
        <time>2018-10-04T08:23:56Z</time>
      </trkpt>
      <trkpt lat="38.3387300" lon="-0.7115560">
        <ele>208.5</ele>
        <time>2018-10-04T08:23:57Z</time>
      </trkpt>
      <trkpt lat="38.3386950" lon="-0.7115070">
        <ele>208.8</ele>
        <time>2018-10-04T08:23:58Z</time>
      </trkpt>
      <trkpt lat="38.3386610" lon="-0.7114590">
        <ele>209.1</ele>
        <time>2018-10-04T08:23:59Z</time>
      </trkpt>
      <trkpt lat="38.3386290" lon="-0.7114100">
        <ele>209.4</ele>
        <time>2018-10-04T08:24:00Z</time>
      </trkpt>
      <trkpt lat="38.3385970" lon="-0.7113620">
        <ele>209.6</ele>
        <time>2018-10-04T08:24:01Z</time>
      </trkpt>
      <trkpt lat="38.3385660" lon="-0.7113130">
        <ele>209.7</ele>
        <time>2018-10-04T08:24:02Z</time>
      </trkpt>
      <trkpt lat="38.3385360" lon="-0.7112650">
        <ele>209.8</ele>
        <time>2018-10-04T08:24:03Z</time>
      </trkpt>
      <trkpt lat="38.3385080" lon="-0.7112180">
        <ele>209.8</ele>
        <time>2018-10-04T08:24:04Z</time>
      </trkpt>
      <trkpt lat="38.3384810" lon="-0.7111710">
        <ele>209.9</ele>
        <time>2018-10-04T08:24:05Z</time>
      </trkpt>
      <trkpt lat="38.3384550" lon="-0.7111230">
        <ele>209.9</ele>
        <time>2018-10-04T08:24:06Z</time>
      </trkpt>
      <trkpt lat="38.3384320" lon="-0.7110750">
        <ele>210.0</ele>
        <time>2018-10-04T08:24:07Z</time>
      </trkpt>
      <trkpt lat="38.3384100" lon="-0.7110270">
        <ele>210.0</ele>
        <time>2018-10-04T08:24:08Z</time>
      </trkpt>
      <trkpt lat="38.3383890" lon="-0.7109830">
        <ele>210.1</ele>
        <time>2018-10-04T08:24:09Z</time>
      </trkpt>
      <trkpt lat="38.3383680" lon="-0.7109480">
        <ele>210.3</ele>
        <time>2018-10-04T08:24:10Z</time>
      </trkpt>
      <trkpt lat="38.3383660" lon="-0.7109140">
        <ele>210.4</ele>
        <time>2018-10-04T08:24:11Z</time>
      </trkpt>
      <trkpt lat="38.3383650" lon="-0.7108820">
        <ele>210.6</ele>
        <time>2018-10-04T08:24:12Z</time>
      </trkpt>
      <trkpt lat="38.3383640" lon="-0.7108530">
        <ele>210.4</ele>
        <time>2018-10-04T08:24:13Z</time>
      </trkpt>
      <trkpt lat="38.3383560" lon="-0.7108210">
        <ele>210.2</ele>
        <time>2018-10-04T08:24:14Z</time>
      </trkpt>
      <trkpt lat="38.3383460" lon="-0.7107890">
        <ele>210.4</ele>
        <time>2018-10-04T08:24:15Z</time>
      </trkpt>
      <trkpt lat="38.3383360" lon="-0.7107530">
        <ele>210.4</ele>
        <time>2018-10-04T08:24:16Z</time>
      </trkpt>
      <trkpt lat="38.3383270" lon="-0.7107150">
        <ele>210.5</ele>
        <time>2018-10-04T08:24:17Z</time>
      </trkpt>
      <trkpt lat="38.3383200" lon="-0.7106800">
        <ele>210.1</ele>
        <time>2018-10-04T08:24:18Z</time>
      </trkpt>
      <trkpt lat="38.3383140" lon="-0.7106500">
        <ele>210.1</ele>
        <time>2018-10-04T08:24:19Z</time>
      </trkpt>
      <trkpt lat="38.3383100" lon="-0.7106240">
        <ele>210.2</ele>
        <time>2018-10-04T08:24:20Z</time>
      </trkpt>
      <trkpt lat="38.3383050" lon="-0.7105990">
        <ele>210.0</ele>
        <time>2018-10-04T08:24:21Z</time>
      </trkpt>
      <trkpt lat="38.3383000" lon="-0.7105730">
        <ele>210.2</ele>
        <time>2018-10-04T08:24:22Z</time>
      </trkpt>
      <trkpt lat="38.3382960" lon="-0.7105490">
        <ele>210.3</ele>
        <time>2018-10-04T08:24:23Z</time>
      </trkpt>
      <trkpt lat="38.3382880" lon="-0.7105260">
        <ele>209.9</ele>
        <time>2018-10-04T08:24:24Z</time>
      </trkpt>
      <trkpt lat="38.3382820" lon="-0.7105010">
        <ele>210.1</ele>
        <time>2018-10-04T08:24:25Z</time>
      </trkpt>
      <trkpt lat="38.3382790" lon="-0.7104760">
        <ele>209.9</ele>
        <time>2018-10-04T08:24:26Z</time>
      </trkpt>
      <trkpt lat="38.3382710" lon="-0.7104520">
        <ele>210.1</ele>
        <time>2018-10-04T08:24:27Z</time>
      </trkpt>
      <trkpt lat="38.3382620" lon="-0.7104280">
        <ele>209.9</ele>
        <time>2018-10-04T08:24:28Z</time>
      </trkpt>
      <trkpt lat="38.3382530" lon="-0.7104040">
        <ele>209.9</ele>
        <time>2018-10-04T08:24:29Z</time>
      </trkpt>
      <trkpt lat="38.3382460" lon="-0.7103800">
        <ele>209.7</ele>
        <time>2018-10-04T08:24:30Z</time>
      </trkpt>
      <trkpt lat="38.3382380" lon="-0.7103570">
        <ele>210.0</ele>
        <time>2018-10-04T08:24:31Z</time>
      </trkpt>
      <trkpt lat="38.3382330" lon="-0.7103320">
        <ele>210.2</ele>
        <time>2018-10-04T08:24:32Z</time>
      </trkpt>
      <trkpt lat="38.3382260" lon="-0.7103070">
        <ele>210.4</ele>
        <time>2018-10-04T08:24:33Z</time>
      </trkpt>
      <trkpt lat="38.3382240" lon="-0.7102780">
        <ele>210.6</ele>
        <time>2018-10-04T08:24:34Z</time>
      </trkpt>
      <trkpt lat="38.3382270" lon="-0.7102480">
        <ele>210.8</ele>
        <time>2018-10-04T08:24:35Z</time>
      </trkpt>
      <trkpt lat="38.3382340" lon="-0.7102170">
        <ele>211.0</ele>
        <time>2018-10-04T08:24:36Z</time>
      </trkpt>
      <trkpt lat="38.3382450" lon="-0.7101890">
        <ele>211.1</ele>
        <time>2018-10-04T08:24:37Z</time>
      </trkpt>
      <trkpt lat="38.3382580" lon="-0.7101630">
        <ele>211.3</ele>
        <time>2018-10-04T08:24:38Z</time>
      </trkpt>
      <trkpt lat="38.3382690" lon="-0.7101380">
        <ele>211.4</ele>
        <time>2018-10-04T08:24:39Z</time>
      </trkpt>
      <trkpt lat="38.3382810" lon="-0.7101090">
        <ele>211.6</ele>
        <time>2018-10-04T08:24:40Z</time>
      </trkpt>
      <trkpt lat="38.3382940" lon="-0.7100790">
        <ele>212.0</ele>
        <time>2018-10-04T08:24:41Z</time>
      </trkpt>
      <trkpt lat="38.3383080" lon="-0.7100460">
        <ele>212.3</ele>
        <time>2018-10-04T08:24:42Z</time>
      </trkpt>
      <trkpt lat="38.3383210" lon="-0.7100070">
        <ele>212.6</ele>
        <time>2018-10-04T08:24:43Z</time>
      </trkpt>
      <trkpt lat="38.3383340" lon="-0.7099680">
        <ele>212.8</ele>
        <time>2018-10-04T08:24:44Z</time>
      </trkpt>
      <trkpt lat="38.3383460" lon="-0.7099260">
        <ele>213.1</ele>
        <time>2018-10-04T08:24:45Z</time>
      </trkpt>
      <trkpt lat="38.3383570" lon="-0.7098850">
        <ele>213.4</ele>
        <time>2018-10-04T08:24:46Z</time>
      </trkpt>
      <trkpt lat="38.3383640" lon="-0.7098470">
        <ele>213.7</ele>
        <time>2018-10-04T08:24:47Z</time>
      </trkpt>
      <trkpt lat="38.3383740" lon="-0.7098110">
        <ele>214.0</ele>
        <time>2018-10-04T08:24:48Z</time>
      </trkpt>
      <trkpt lat="38.3383850" lon="-0.7097740">
        <ele>214.2</ele>
        <time>2018-10-04T08:24:49Z</time>
      </trkpt>
      <trkpt lat="38.3383970" lon="-0.7097370">
        <ele>214.6</ele>
        <time>2018-10-04T08:24:50Z</time>
      </trkpt>
      <trkpt lat="38.3384100" lon="-0.7097020">
        <ele>214.9</ele>
        <time>2018-10-04T08:24:51Z</time>
      </trkpt>
      <trkpt lat="38.3384240" lon="-0.7096660">
        <ele>215.3</ele>
        <time>2018-10-04T08:24:52Z</time>
      </trkpt>
      <trkpt lat="38.3384360" lon="-0.7096310">
        <ele>215.7</ele>
        <time>2018-10-04T08:24:53Z</time>
      </trkpt>
      <trkpt lat="38.3384480" lon="-0.7095970">
        <ele>216.1</ele>
        <time>2018-10-04T08:24:54Z</time>
      </trkpt>
      <trkpt lat="38.3384600" lon="-0.7095670">
        <ele>216.4</ele>
        <time>2018-10-04T08:24:55Z</time>
      </trkpt>
      <trkpt lat="38.3384750" lon="-0.7095440">
        <ele>216.7</ele>
        <time>2018-10-04T08:24:56Z</time>
      </trkpt>
      <trkpt lat="38.3384900" lon="-0.7095220">
        <ele>217.1</ele>
        <time>2018-10-04T08:24:57Z</time>
      </trkpt>
      <trkpt lat="38.3385060" lon="-0.7094990">
        <ele>217.4</ele>
        <time>2018-10-04T08:24:58Z</time>
      </trkpt>
      <trkpt lat="38.3385240" lon="-0.7094760">
        <ele>217.7</ele>
        <time>2018-10-04T08:24:59Z</time>
      </trkpt>
      <trkpt lat="38.3385390" lon="-0.7094550">
        <ele>218.0</ele>
        <time>2018-10-04T08:25:00Z</time>
      </trkpt>
      <trkpt lat="38.3385560" lon="-0.7094350">
        <ele>218.3</ele>
        <time>2018-10-04T08:25:01Z</time>
      </trkpt>
      <trkpt lat="38.3385730" lon="-0.7094140">
        <ele>218.6</ele>
        <time>2018-10-04T08:25:02Z</time>
      </trkpt>
      <trkpt lat="38.3385910" lon="-0.7093910">
        <ele>219.0</ele>
        <time>2018-10-04T08:25:03Z</time>
      </trkpt>
      <trkpt lat="38.3386060" lon="-0.7093650">
        <ele>219.3</ele>
        <time>2018-10-04T08:25:04Z</time>
      </trkpt>
      <trkpt lat="38.3386210" lon="-0.7093380">
        <ele>219.7</ele>
        <time>2018-10-04T08:25:05Z</time>
      </trkpt>
      <trkpt lat="38.3386340" lon="-0.7093100">
        <ele>220.4</ele>
        <time>2018-10-04T08:25:06Z</time>
      </trkpt>
      <trkpt lat="38.3386510" lon="-0.7092860">
        <ele>220.8</ele>
        <time>2018-10-04T08:25:07Z</time>
      </trkpt>
      <trkpt lat="38.3386660" lon="-0.7092620">
        <ele>221.3</ele>
        <time>2018-10-04T08:25:08Z</time>
      </trkpt>
      <trkpt lat="38.3386840" lon="-0.7092430">
        <ele>221.7</ele>
        <time>2018-10-04T08:25:09Z</time>
      </trkpt>
      <trkpt lat="38.3387000" lon="-0.7092210">
        <ele>222.0</ele>
        <time>2018-10-04T08:25:10Z</time>
      </trkpt>
      <trkpt lat="38.3387130" lon="-0.7091970">
        <ele>222.4</ele>
        <time>2018-10-04T08:25:11Z</time>
      </trkpt>
      <trkpt lat="38.3387260" lon="-0.7091780">
        <ele>222.7</ele>
        <time>2018-10-04T08:25:12Z</time>
      </trkpt>
      <trkpt lat="38.3387400" lon="-0.7091600">
        <ele>223.1</ele>
        <time>2018-10-04T08:25:13Z</time>
      </trkpt>
      <trkpt lat="38.3387540" lon="-0.7091400">
        <ele>223.7</ele>
        <time>2018-10-04T08:25:14Z</time>
      </trkpt>
      <trkpt lat="38.3387660" lon="-0.7091190">
        <ele>224.1</ele>
        <time>2018-10-04T08:25:15Z</time>
      </trkpt>
      <trkpt lat="38.3387780" lon="-0.7090970">
        <ele>224.4</ele>
        <time>2018-10-04T08:25:16Z</time>
      </trkpt>
      <trkpt lat="38.3387900" lon="-0.7090730">
        <ele>224.8</ele>
        <time>2018-10-04T08:25:17Z</time>
      </trkpt>
      <trkpt lat="38.3388030" lon="-0.7090510">
        <ele>225.1</ele>
        <time>2018-10-04T08:25:18Z</time>
      </trkpt>
      <trkpt lat="38.3388120" lon="-0.7090270">
        <ele>225.4</ele>
        <time>2018-10-04T08:25:19Z</time>
      </trkpt>
      <trkpt lat="38.3388230" lon="-0.7090050">
        <ele>225.7</ele>
        <time>2018-10-04T08:25:20Z</time>
      </trkpt>
      <trkpt lat="38.3388330" lon="-0.7089820">
        <ele>226.0</ele>
        <time>2018-10-04T08:25:21Z</time>
      </trkpt>
      <trkpt lat="38.3388400" lon="-0.7089590">
        <ele>226.3</ele>
        <time>2018-10-04T08:25:22Z</time>
      </trkpt>
      <trkpt lat="38.3388450" lon="-0.7089350">
        <ele>226.6</ele>
        <time>2018-10-04T08:25:23Z</time>
      </trkpt>
      <trkpt lat="38.3388530" lon="-0.7089110">
        <ele>226.8</ele>
        <time>2018-10-04T08:25:24Z</time>
      </trkpt>
      <trkpt lat="38.3388640" lon="-0.7088850">
        <ele>227.2</ele>
        <time>2018-10-04T08:25:25Z</time>
      </trkpt>
      <trkpt lat="38.3388700" lon="-0.7088560">
        <ele>227.5</ele>
        <time>2018-10-04T08:25:26Z</time>
      </trkpt>
      <trkpt lat="38.3388740" lon="-0.7088250">
        <ele>227.9</ele>
        <time>2018-10-04T08:25:27Z</time>
      </trkpt>
      <trkpt lat="38.3388780" lon="-0.7087930">
        <ele>228.5</ele>
        <time>2018-10-04T08:25:28Z</time>
      </trkpt>
      <trkpt lat="38.3388810" lon="-0.7087610">
        <ele>228.9</ele>
        <time>2018-10-04T08:25:29Z</time>
      </trkpt>
      <trkpt lat="38.3388840" lon="-0.7087290">
        <ele>229.2</ele>
        <time>2018-10-04T08:25:30Z</time>
      </trkpt>
      <trkpt lat="38.3388880" lon="-0.7086950">
        <ele>229.6</ele>
        <time>2018-10-04T08:25:31Z</time>
      </trkpt>
      <trkpt lat="38.3388950" lon="-0.7086630">
        <ele>229.9</ele>
        <time>2018-10-04T08:25:32Z</time>
      </trkpt>
      <trkpt lat="38.3389070" lon="-0.7086350">
        <ele>230.2</ele>
        <time>2018-10-04T08:25:33Z</time>
      </trkpt>
      <trkpt lat="38.3389170" lon="-0.7086080">
        <ele>230.6</ele>
        <time>2018-10-04T08:25:34Z</time>
      </trkpt>
      <trkpt lat="38.3389280" lon="-0.7085840">
        <ele>231.1</ele>
        <time>2018-10-04T08:25:35Z</time>
      </trkpt>
      <trkpt lat="38.3389380" lon="-0.7085650">
        <ele>231.5</ele>
        <time>2018-10-04T08:25:36Z</time>
      </trkpt>
      <trkpt lat="38.3389490" lon="-0.7085510">
        <ele>231.9</ele>
        <time>2018-10-04T08:25:37Z</time>
      </trkpt>
      <trkpt lat="38.3389610" lon="-0.7085340">
        <ele>232.4</ele>
        <time>2018-10-04T08:25:38Z</time>
      </trkpt>
      <trkpt lat="38.3389740" lon="-0.7085150">
        <ele>233.2</ele>
        <time>2018-10-04T08:25:39Z</time>
      </trkpt>
      <trkpt lat="38.3389880" lon="-0.7084970">
        <ele>233.6</ele>
        <time>2018-10-04T08:25:40Z</time>
      </trkpt>
      <trkpt lat="38.3390010" lon="-0.7084800">
        <ele>234.0</ele>
        <time>2018-10-04T08:25:41Z</time>
      </trkpt>
      <trkpt lat="38.3390140" lon="-0.7084630">
        <ele>234.4</ele>
        <time>2018-10-04T08:25:42Z</time>
      </trkpt>
      <trkpt lat="38.3390270" lon="-0.7084460">
        <ele>234.9</ele>
        <time>2018-10-04T08:25:43Z</time>
      </trkpt>
      <trkpt lat="38.3390390" lon="-0.7084290">
        <ele>235.5</ele>
        <time>2018-10-04T08:25:44Z</time>
      </trkpt>
      <trkpt lat="38.3390510" lon="-0.7084130">
        <ele>236.0</ele>
        <time>2018-10-04T08:25:45Z</time>
      </trkpt>
      <trkpt lat="38.3390600" lon="-0.7083930">
        <ele>236.4</ele>
        <time>2018-10-04T08:25:46Z</time>
      </trkpt>
      <trkpt lat="38.3390700" lon="-0.7083760">
        <ele>236.8</ele>
        <time>2018-10-04T08:25:47Z</time>
      </trkpt>
      <trkpt lat="38.3390780" lon="-0.7083580">
        <ele>237.2</ele>
        <time>2018-10-04T08:25:48Z</time>
      </trkpt>
      <trkpt lat="38.3390860" lon="-0.7083410">
        <ele>237.6</ele>
        <time>2018-10-04T08:25:49Z</time>
      </trkpt>
      <trkpt lat="38.3390940" lon="-0.7083240">
        <ele>238.1</ele>
        <time>2018-10-04T08:25:50Z</time>
      </trkpt>
      <trkpt lat="38.3391020" lon="-0.7083070">
        <ele>238.6</ele>
        <time>2018-10-04T08:25:51Z</time>
      </trkpt>
      <trkpt lat="38.3391110" lon="-0.7082900">
        <ele>239.2</ele>
        <time>2018-10-04T08:25:52Z</time>
      </trkpt>
      <trkpt lat="38.3391170" lon="-0.7082700">
        <ele>239.5</ele>
        <time>2018-10-04T08:25:53Z</time>
      </trkpt>
      <trkpt lat="38.3391200" lon="-0.7082490">
        <ele>239.8</ele>
        <time>2018-10-04T08:25:54Z</time>
      </trkpt>
      <trkpt lat="38.3391270" lon="-0.7082320">
        <ele>240.1</ele>
        <time>2018-10-04T08:25:55Z</time>
      </trkpt>
      <trkpt lat="38.3391360" lon="-0.7082150">
        <ele>240.4</ele>
        <time>2018-10-04T08:25:56Z</time>
      </trkpt>
      <trkpt lat="38.3391430" lon="-0.7081970">
        <ele>240.6</ele>
        <time>2018-10-04T08:25:57Z</time>
      </trkpt>
      <trkpt lat="38.3391500" lon="-0.7081770">
        <ele>240.9</ele>
        <time>2018-10-04T08:25:58Z</time>
      </trkpt>
      <trkpt lat="38.3391520" lon="-0.7081550">
        <ele>241.2</ele>
        <time>2018-10-04T08:25:59Z</time>
      </trkpt>
      <trkpt lat="38.3391530" lon="-0.7081320">
        <ele>241.4</ele>
        <time>2018-10-04T08:26:00Z</time>
      </trkpt>
      <trkpt lat="38.3391520" lon="-0.7081070">
        <ele>241.6</ele>
        <time>2018-10-04T08:26:01Z</time>
      </trkpt>
      <trkpt lat="38.3391480" lon="-0.7080820">
        <ele>241.7</ele>
        <time>2018-10-04T08:26:02Z</time>
      </trkpt>
      <trkpt lat="38.3391420" lon="-0.7080540">
        <ele>241.9</ele>
        <time>2018-10-04T08:26:03Z</time>
      </trkpt>
      <trkpt lat="38.3391350" lon="-0.7080260">
        <ele>242.1</ele>
        <time>2018-10-04T08:26:04Z</time>
      </trkpt>
      <trkpt lat="38.3391280" lon="-0.7079960">
        <ele>242.3</ele>
        <time>2018-10-04T08:26:05Z</time>
      </trkpt>
      <trkpt lat="38.3391170" lon="-0.7079630">
        <ele>242.5</ele>
        <time>2018-10-04T08:26:06Z</time>
      </trkpt>
      <trkpt lat="38.3391050" lon="-0.7079280">
        <ele>242.6</ele>
        <time>2018-10-04T08:26:07Z</time>
      </trkpt>
      <trkpt lat="38.3390930" lon="-0.7078880">
        <ele>242.8</ele>
        <time>2018-10-04T08:26:08Z</time>
      </trkpt>
      <trkpt lat="38.3390820" lon="-0.7078440">
        <ele>243.0</ele>
        <time>2018-10-04T08:26:09Z</time>
      </trkpt>
      <trkpt lat="38.3390700" lon="-0.7078010">
        <ele>243.1</ele>
        <time>2018-10-04T08:26:10Z</time>
      </trkpt>
      <trkpt lat="38.3390510" lon="-0.7077600">
        <ele>243.3</ele>
        <time>2018-10-04T08:26:11Z</time>
      </trkpt>
      <trkpt lat="38.3390270" lon="-0.7077190">
        <ele>243.4</ele>
        <time>2018-10-04T08:26:12Z</time>
      </trkpt>
      <trkpt lat="38.3390040" lon="-0.7076730">
        <ele>243.5</ele>
        <time>2018-10-04T08:26:13Z</time>
      </trkpt>
      <trkpt lat="38.3389810" lon="-0.7076260">
        <ele>243.6</ele>
        <time>2018-10-04T08:26:14Z</time>
      </trkpt>
      <trkpt lat="38.3389580" lon="-0.7075810">
        <ele>243.8</ele>
        <time>2018-10-04T08:26:15Z</time>
      </trkpt>
      <trkpt lat="38.3389330" lon="-0.7075370">
        <ele>243.9</ele>
        <time>2018-10-04T08:26:16Z</time>
      </trkpt>
      <trkpt lat="38.3389080" lon="-0.7074940">
        <ele>243.9</ele>
        <time>2018-10-04T08:26:17Z</time>
      </trkpt>
      <trkpt lat="38.3388820" lon="-0.7074520">
        <ele>244.0</ele>
        <time>2018-10-04T08:26:18Z</time>
      </trkpt>
      <trkpt lat="38.3388550" lon="-0.7074120">
        <ele>244.1</ele>
        <time>2018-10-04T08:26:19Z</time>
      </trkpt>
      <trkpt lat="38.3388300" lon="-0.7073660">
        <ele>244.1</ele>
        <time>2018-10-04T08:26:20Z</time>
      </trkpt>
      <trkpt lat="38.3388080" lon="-0.7073140">
        <ele>244.2</ele>
        <time>2018-10-04T08:26:21Z</time>
      </trkpt>
      <trkpt lat="38.3387890" lon="-0.7072570">
        <ele>244.3</ele>
        <time>2018-10-04T08:26:22Z</time>
      </trkpt>
      <trkpt lat="38.3387750" lon="-0.7071930">
        <ele>244.3</ele>
        <time>2018-10-04T08:26:23Z</time>
      </trkpt>
      <trkpt lat="38.3387690" lon="-0.7071250">
        <ele>244.4</ele>
        <time>2018-10-04T08:26:24Z</time>
      </trkpt>
      <trkpt lat="38.3387700" lon="-0.7070560">
        <ele>244.5</ele>
        <time>2018-10-04T08:26:25Z</time>
      </trkpt>
      <trkpt lat="38.3387780" lon="-0.7069890">
        <ele>244.5</ele>
        <time>2018-10-04T08:26:26Z</time>
      </trkpt>
      <trkpt lat="38.3387890" lon="-0.7069200">
        <ele>244.6</ele>
        <time>2018-10-04T08:26:27Z</time>
      </trkpt>
      <trkpt lat="38.3387990" lon="-0.7068530">
        <ele>244.7</ele>
        <time>2018-10-04T08:26:28Z</time>
      </trkpt>
      <trkpt lat="38.3388110" lon="-0.7067900">
        <ele>244.7</ele>
        <time>2018-10-04T08:26:29Z</time>
      </trkpt>
      <trkpt lat="38.3388210" lon="-0.7067310">
        <ele>244.8</ele>
        <time>2018-10-04T08:26:30Z</time>
      </trkpt>
      <trkpt lat="38.3388220" lon="-0.7066830">
        <ele>244.9</ele>
        <time>2018-10-04T08:26:31Z</time>
      </trkpt>
      <trkpt lat="38.3388090" lon="-0.7066510">
        <ele>245.0</ele>
        <time>2018-10-04T08:26:32Z</time>
      </trkpt>
      <trkpt lat="38.3387940" lon="-0.7066230">
        <ele>245.6</ele>
        <time>2018-10-04T08:26:33Z</time>
      </trkpt>
      <trkpt lat="38.3387760" lon="-0.7065970">
        <ele>246.2</ele>
        <time>2018-10-04T08:26:34Z</time>
      </trkpt>
      <trkpt lat="38.3387540" lon="-0.7065800">
        <ele>246.8</ele>
        <time>2018-10-04T08:26:35Z</time>
      </trkpt>
      <trkpt lat="38.3387260" lon="-0.7065690">
        <ele>247.4</ele>
        <time>2018-10-04T08:26:36Z</time>
      </trkpt>
      <trkpt lat="38.3387010" lon="-0.7065630">
        <ele>247.9</ele>
        <time>2018-10-04T08:26:37Z</time>
      </trkpt>
      <trkpt lat="38.3386790" lon="-0.7065590">
        <ele>248.2</ele>
        <time>2018-10-04T08:26:38Z</time>
      </trkpt>
      <trkpt lat="38.3386590" lon="-0.7065550">
        <ele>248.4</ele>
        <time>2018-10-04T08:26:39Z</time>
      </trkpt>
      <trkpt lat="38.3386400" lon="-0.7065540">
        <ele>248.7</ele>
        <time>2018-10-04T08:26:40Z</time>
      </trkpt>
      <trkpt lat="38.3386210" lon="-0.7065540">
        <ele>248.9</ele>
        <time>2018-10-04T08:26:41Z</time>
      </trkpt>
      <trkpt lat="38.3386020" lon="-0.7065540">
        <ele>249.2</ele>
        <time>2018-10-04T08:26:42Z</time>
      </trkpt>
      <trkpt lat="38.3385840" lon="-0.7065560">
        <ele>249.6</ele>
        <time>2018-10-04T08:26:43Z</time>
      </trkpt>
      <trkpt lat="38.3385660" lon="-0.7065570">
        <ele>249.8</ele>
        <time>2018-10-04T08:26:44Z</time>
      </trkpt>
      <trkpt lat="38.3385490" lon="-0.7065570">
        <ele>250.0</ele>
        <time>2018-10-04T08:26:45Z</time>
      </trkpt>
      <trkpt lat="38.3385340" lon="-0.7065580">
        <ele>250.2</ele>
        <time>2018-10-04T08:26:46Z</time>
      </trkpt>
      <trkpt lat="38.3385180" lon="-0.7065600">
        <ele>250.4</ele>
        <time>2018-10-04T08:26:47Z</time>
      </trkpt>
      <trkpt lat="38.3385040" lon="-0.7065640">
        <ele>250.5</ele>
        <time>2018-10-04T08:26:48Z</time>
      </trkpt>
      <trkpt lat="38.3384890" lon="-0.7065670">
        <ele>250.7</ele>
        <time>2018-10-04T08:26:49Z</time>
      </trkpt>
      <trkpt lat="38.3384750" lon="-0.7065680">
        <ele>250.8</ele>
        <time>2018-10-04T08:26:50Z</time>
      </trkpt>
      <trkpt lat="38.3384590" lon="-0.7065670">
        <ele>250.9</ele>
        <time>2018-10-04T08:26:51Z</time>
      </trkpt>
      <trkpt lat="38.3384420" lon="-0.7065660">
        <ele>251.0</ele>
        <time>2018-10-04T08:26:52Z</time>
      </trkpt>
      <trkpt lat="38.3384260" lon="-0.7065670">
        <ele>251.1</ele>
        <time>2018-10-04T08:26:53Z</time>
      </trkpt>
      <trkpt lat="38.3384080" lon="-0.7065690">
        <ele>251.3</ele>
        <time>2018-10-04T08:26:54Z</time>
      </trkpt>
      <trkpt lat="38.3383910" lon="-0.7065700">
        <ele>251.4</ele>
        <time>2018-10-04T08:26:55Z</time>
      </trkpt>
      <trkpt lat="38.3383740" lon="-0.7065680">
        <ele>251.5</ele>
        <time>2018-10-04T08:26:56Z</time>
      </trkpt>
      <trkpt lat="38.3383560" lon="-0.7065660">
        <ele>251.7</ele>
        <time>2018-10-04T08:26:57Z</time>
      </trkpt>
      <trkpt lat="38.3383370" lon="-0.7065660">
        <ele>251.9</ele>
        <time>2018-10-04T08:26:58Z</time>
      </trkpt>
      <trkpt lat="38.3383180" lon="-0.7065610">
        <ele>252.1</ele>
        <time>2018-10-04T08:26:59Z</time>
      </trkpt>
      <trkpt lat="38.3382990" lon="-0.7065560">
        <ele>252.3</ele>
        <time>2018-10-04T08:27:00Z</time>
      </trkpt>
      <trkpt lat="38.3382790" lon="-0.7065490">
        <ele>252.5</ele>
        <time>2018-10-04T08:27:01Z</time>
      </trkpt>
      <trkpt lat="38.3382580" lon="-0.7065390">
        <ele>252.7</ele>
        <time>2018-10-04T08:27:02Z</time>
      </trkpt>
      <trkpt lat="38.3382380" lon="-0.7065260">
        <ele>252.9</ele>
        <time>2018-10-04T08:27:03Z</time>
      </trkpt>
      <trkpt lat="38.3382180" lon="-0.7065130">
        <ele>253.1</ele>
        <time>2018-10-04T08:27:04Z</time>
      </trkpt>
      <trkpt lat="38.3381990" lon="-0.7064990">
        <ele>253.3</ele>
        <time>2018-10-04T08:27:05Z</time>
      </trkpt>
      <trkpt lat="38.3381790" lon="-0.7064870">
        <ele>253.5</ele>
        <time>2018-10-04T08:27:06Z</time>
      </trkpt>
      <trkpt lat="38.3381630" lon="-0.7064760">
        <ele>253.7</ele>
        <time>2018-10-04T08:27:07Z</time>
      </trkpt>
      <trkpt lat="38.3381460" lon="-0.7064660">
        <ele>253.8</ele>
        <time>2018-10-04T08:27:08Z</time>
      </trkpt>
      <trkpt lat="38.3381310" lon="-0.7064550">
        <ele>253.9</ele>
        <time>2018-10-04T08:27:09Z</time>
      </trkpt>
      <trkpt lat="38.3381140" lon="-0.7064440">
        <ele>254.0</ele>
        <time>2018-10-04T08:27:10Z</time>
      </trkpt>
      <trkpt lat="38.3380960" lon="-0.7064320">
        <ele>254.1</ele>
        <time>2018-10-04T08:27:11Z</time>
      </trkpt>
      <trkpt lat="38.3380800" lon="-0.7064190">
        <ele>254.2</ele>
        <time>2018-10-04T08:27:12Z</time>
      </trkpt>
      <trkpt lat="38.3380610" lon="-0.7064100">
        <ele>254.4</ele>
        <time>2018-10-04T08:27:13Z</time>
      </trkpt>
      <trkpt lat="38.3380420" lon="-0.7064020">
        <ele>254.5</ele>
        <time>2018-10-04T08:27:14Z</time>
      </trkpt>
      <trkpt lat="38.3380250" lon="-0.7063920">
        <ele>254.6</ele>
        <time>2018-10-04T08:27:15Z</time>
      </trkpt>
      <trkpt lat="38.3380070" lon="-0.7063810">
        <ele>254.7</ele>
        <time>2018-10-04T08:27:16Z</time>
      </trkpt>
      <trkpt lat="38.3379880" lon="-0.7063710">
        <ele>254.8</ele>
        <time>2018-10-04T08:27:17Z</time>
      </trkpt>
      <trkpt lat="38.3379690" lon="-0.7063590">
        <ele>254.9</ele>
        <time>2018-10-04T08:27:18Z</time>
      </trkpt>
      <trkpt lat="38.3379500" lon="-0.7063470">
        <ele>255.0</ele>
        <time>2018-10-04T08:27:19Z</time>
      </trkpt>
      <trkpt lat="38.3379290" lon="-0.7063340">
        <ele>255.2</ele>
        <time>2018-10-04T08:27:20Z</time>
      </trkpt>
      <trkpt lat="38.3379060" lon="-0.7063210">
        <ele>255.4</ele>
        <time>2018-10-04T08:27:21Z</time>
      </trkpt>
      <trkpt lat="38.3378810" lon="-0.7063060">
        <ele>255.6</ele>
        <time>2018-10-04T08:27:22Z</time>
      </trkpt>
      <trkpt lat="38.3378570" lon="-0.7062890">
        <ele>255.8</ele>
        <time>2018-10-04T08:27:23Z</time>
      </trkpt>
      <trkpt lat="38.3378330" lon="-0.7062690">
        <ele>256.0</ele>
        <time>2018-10-04T08:27:24Z</time>
      </trkpt>
      <trkpt lat="38.3378090" lon="-0.7062500">
        <ele>256.2</ele>
        <time>2018-10-04T08:27:25Z</time>
      </trkpt>
      <trkpt lat="38.3377860" lon="-0.7062290">
        <ele>256.3</ele>
        <time>2018-10-04T08:27:26Z</time>
      </trkpt>
      <trkpt lat="38.3377640" lon="-0.7062080">
        <ele>256.4</ele>
        <time>2018-10-04T08:27:27Z</time>
      </trkpt>
      <trkpt lat="38.3377390" lon="-0.7061870">
        <ele>256.5</ele>
        <time>2018-10-04T08:27:28Z</time>
      </trkpt>
      <trkpt lat="38.3377140" lon="-0.7061640">
        <ele>256.7</ele>
        <time>2018-10-04T08:27:29Z</time>
      </trkpt>
      <trkpt lat="38.3376890" lon="-0.7061430">
        <ele>256.8</ele>
        <time>2018-10-04T08:27:30Z</time>
      </trkpt>
      <trkpt lat="38.3376640" lon="-0.7061200">
        <ele>256.9</ele>
        <time>2018-10-04T08:27:31Z</time>
      </trkpt>
      <trkpt lat="38.3376400" lon="-0.7060950">
        <ele>257.1</ele>
        <time>2018-10-04T08:27:32Z</time>
      </trkpt>
      <trkpt lat="38.3376150" lon="-0.7060720">
        <ele>257.2</ele>
        <time>2018-10-04T08:27:33Z</time>
      </trkpt>
      <trkpt lat="38.3375920" lon="-0.7060450">
        <ele>257.4</ele>
        <time>2018-10-04T08:27:34Z</time>
      </trkpt>
      <trkpt lat="38.3375720" lon="-0.7060140">
        <ele>257.6</ele>
        <time>2018-10-04T08:27:35Z</time>
      </trkpt>
      <trkpt lat="38.3375540" lon="-0.7059810">
        <ele>257.8</ele>
        <time>2018-10-04T08:27:36Z</time>
      </trkpt>
      <trkpt lat="38.3375480" lon="-0.7059460">
        <ele>257.9</ele>
        <time>2018-10-04T08:27:37Z</time>
      </trkpt>
      <trkpt lat="38.3375420" lon="-0.7059090">
        <ele>258.2</ele>
        <time>2018-10-04T08:27:38Z</time>
      </trkpt>
      <trkpt lat="38.3375400" lon="-0.7058740">
        <ele>258.5</ele>
        <time>2018-10-04T08:27:39Z</time>
      </trkpt>
      <trkpt lat="38.3375380" lon="-0.7058420">
        <ele>258.7</ele>
        <time>2018-10-04T08:27:40Z</time>
      </trkpt>
      <trkpt lat="38.3375380" lon="-0.7058150">
        <ele>259.0</ele>
        <time>2018-10-04T08:27:41Z</time>
      </trkpt>
      <trkpt lat="38.3375390" lon="-0.7057900">
        <ele>259.2</ele>
        <time>2018-10-04T08:27:42Z</time>
      </trkpt>
      <trkpt lat="38.3375390" lon="-0.7057630">
        <ele>259.4</ele>
        <time>2018-10-04T08:27:43Z</time>
      </trkpt>
      <trkpt lat="38.3375400" lon="-0.7057380">
        <ele>259.6</ele>
        <time>2018-10-04T08:27:44Z</time>
      </trkpt>
      <trkpt lat="38.3375420" lon="-0.7057130">
        <ele>259.8</ele>
        <time>2018-10-04T08:27:45Z</time>
      </trkpt>
      <trkpt lat="38.3375420" lon="-0.7056890">
        <ele>260.1</ele>
        <time>2018-10-04T08:27:46Z</time>
      </trkpt>
      <trkpt lat="38.3375450" lon="-0.7056590">
        <ele>260.3</ele>
        <time>2018-10-04T08:27:47Z</time>
      </trkpt>
      <trkpt lat="38.3375460" lon="-0.7056300">
        <ele>260.6</ele>
        <time>2018-10-04T08:27:48Z</time>
      </trkpt>
      <trkpt lat="38.3375470" lon="-0.7056030">
        <ele>260.8</ele>
        <time>2018-10-04T08:27:49Z</time>
      </trkpt>
      <trkpt lat="38.3375460" lon="-0.7055780">
        <ele>261.1</ele>
        <time>2018-10-04T08:27:50Z</time>
      </trkpt>
      <trkpt lat="38.3375440" lon="-0.7055510">
        <ele>261.3</ele>
        <time>2018-10-04T08:27:51Z</time>
      </trkpt>
      <trkpt lat="38.3375440" lon="-0.7055510">
        <ele>261.3</ele>
        <time>2018-10-04T08:27:52Z</time>
      </trkpt>
      <trkpt lat="38.3375400" lon="-0.7055070">
        <ele>261.7</ele>
        <time>2018-10-04T08:27:53Z</time>
      </trkpt>
      <trkpt lat="38.3375370" lon="-0.7054800">
        <ele>261.8</ele>
        <time>2018-10-04T08:27:54Z</time>
      </trkpt>
      <trkpt lat="38.3375370" lon="-0.7054520">
        <ele>261.9</ele>
        <time>2018-10-04T08:27:55Z</time>
      </trkpt>
      <trkpt lat="38.3375360" lon="-0.7054220">
        <ele>262.0</ele>
        <time>2018-10-04T08:27:56Z</time>
      </trkpt>
      <trkpt lat="38.3375330" lon="-0.7053930">
        <ele>262.1</ele>
        <time>2018-10-04T08:27:57Z</time>
      </trkpt>
      <trkpt lat="38.3375290" lon="-0.7053600">
        <ele>262.2</ele>
        <time>2018-10-04T08:27:58Z</time>
      </trkpt>
      <trkpt lat="38.3375230" lon="-0.7053260">
        <ele>262.3</ele>
        <time>2018-10-04T08:27:59Z</time>
      </trkpt>
      <trkpt lat="38.3375160" lon="-0.7052910">
        <ele>262.3</ele>
        <time>2018-10-04T08:28:00Z</time>
      </trkpt>
      <trkpt lat="38.3375090" lon="-0.7052520">
        <ele>262.3</ele>
        <time>2018-10-04T08:28:01Z</time>
      </trkpt>
      <trkpt lat="38.3375020" lon="-0.7052090">
        <ele>262.3</ele>
        <time>2018-10-04T08:28:02Z</time>
      </trkpt>
      <trkpt lat="38.3374950" lon="-0.7051590">
        <ele>262.3</ele>
        <time>2018-10-04T08:28:03Z</time>
      </trkpt>
      <trkpt lat="38.3374890" lon="-0.7051010">
        <ele>262.4</ele>
        <time>2018-10-04T08:28:04Z</time>
      </trkpt>
      <trkpt lat="38.3374820" lon="-0.7050390">
        <ele>262.4</ele>
        <time>2018-10-04T08:28:05Z</time>
      </trkpt>
      <trkpt lat="38.3374730" lon="-0.7049750">
        <ele>262.3</ele>
        <time>2018-10-04T08:28:06Z</time>
      </trkpt>
      <trkpt lat="38.3374600" lon="-0.7049080">
        <ele>262.1</ele>
        <time>2018-10-04T08:28:07Z</time>
      </trkpt>
      <trkpt lat="38.3374460" lon="-0.7048370">
        <ele>261.9</ele>
        <time>2018-10-04T08:28:08Z</time>
      </trkpt>
      <trkpt lat="38.3374300" lon="-0.7047620">
        <ele>261.7</ele>
        <time>2018-10-04T08:28:09Z</time>
      </trkpt>
      <trkpt lat="38.3374110" lon="-0.7046820">
        <ele>261.3</ele>
        <time>2018-10-04T08:28:10Z</time>
      </trkpt>
      <trkpt lat="38.3373850" lon="-0.7046060">
        <ele>261.0</ele>
        <time>2018-10-04T08:28:11Z</time>
      </trkpt>
      <trkpt lat="38.3373510" lon="-0.7045370">
        <ele>260.7</ele>
        <time>2018-10-04T08:28:12Z</time>
      </trkpt>
      <trkpt lat="38.3373090" lon="-0.7044770">
        <ele>260.5</ele>
        <time>2018-10-04T08:28:13Z</time>
      </trkpt>
      <trkpt lat="38.3372710" lon="-0.7044240">
        <ele>260.5</ele>
        <time>2018-10-04T08:28:14Z</time>
      </trkpt>
      <trkpt lat="38.3372380" lon="-0.7043910">
        <ele>260.5</ele>
        <time>2018-10-04T08:28:15Z</time>
      </trkpt>
      <trkpt lat="38.3372120" lon="-0.7043660">
        <ele>260.5</ele>
        <time>2018-10-04T08:28:16Z</time>
      </trkpt>
      <trkpt lat="38.3371920" lon="-0.7043400">
        <ele>260.6</ele>
        <time>2018-10-04T08:28:17Z</time>
      </trkpt>
      <trkpt lat="38.3371730" lon="-0.7043180">
        <ele>260.7</ele>
        <time>2018-10-04T08:28:18Z</time>
      </trkpt>
      <trkpt lat="38.3371550" lon="-0.7042950">
        <ele>260.8</ele>
        <time>2018-10-04T08:28:19Z</time>
      </trkpt>
      <trkpt lat="38.3371370" lon="-0.7042720">
        <ele>260.9</ele>
        <time>2018-10-04T08:28:20Z</time>
      </trkpt>
      <trkpt lat="38.3371190" lon="-0.7042510">
        <ele>261.2</ele>
        <time>2018-10-04T08:28:21Z</time>
      </trkpt>
      <trkpt lat="38.3371000" lon="-0.7042300">
        <ele>261.7</ele>
        <time>2018-10-04T08:28:22Z</time>
      </trkpt>
      <trkpt lat="38.3370820" lon="-0.7042080">
        <ele>262.2</ele>
        <time>2018-10-04T08:28:23Z</time>
      </trkpt>
      <trkpt lat="38.3370600" lon="-0.7041820">
        <ele>262.7</ele>
        <time>2018-10-04T08:28:24Z</time>
      </trkpt>
      <trkpt lat="38.3370380" lon="-0.7041530">
        <ele>263.3</ele>
        <time>2018-10-04T08:28:25Z</time>
      </trkpt>
      <trkpt lat="38.3370170" lon="-0.7041200">
        <ele>264.0</ele>
        <time>2018-10-04T08:28:26Z</time>
      </trkpt>
      <trkpt lat="38.3369950" lon="-0.7040870">
        <ele>265.0</ele>
        <time>2018-10-04T08:28:27Z</time>
      </trkpt>
      <trkpt lat="38.3369740" lon="-0.7040540">
        <ele>265.4</ele>
        <time>2018-10-04T08:28:28Z</time>
      </trkpt>
      <trkpt lat="38.3369550" lon="-0.7040230">
        <ele>265.6</ele>
        <time>2018-10-04T08:28:29Z</time>
      </trkpt>
      <trkpt lat="38.3369390" lon="-0.7039900">
        <ele>265.8</ele>
        <time>2018-10-04T08:28:30Z</time>
      </trkpt>
      <trkpt lat="38.3369270" lon="-0.7039590">
        <ele>266.1</ele>
        <time>2018-10-04T08:28:31Z</time>
      </trkpt>
      <trkpt lat="38.3369130" lon="-0.7039300">
        <ele>266.4</ele>
        <time>2018-10-04T08:28:32Z</time>
      </trkpt>
      <trkpt lat="38.3368980" lon="-0.7039030">
        <ele>266.6</ele>
        <time>2018-10-04T08:28:33Z</time>
      </trkpt>
      <trkpt lat="38.3368880" lon="-0.7038760">
        <ele>266.9</ele>
        <time>2018-10-04T08:28:34Z</time>
      </trkpt>
      <trkpt lat="38.3368780" lon="-0.7038490">
        <ele>267.0</ele>
        <time>2018-10-04T08:28:35Z</time>
      </trkpt>
      <trkpt lat="38.3368650" lon="-0.7038240">
        <ele>267.0</ele>
        <time>2018-10-04T08:28:36Z</time>
      </trkpt>
      <trkpt lat="38.3368560" lon="-0.7037970">
        <ele>267.1</ele>
        <time>2018-10-04T08:28:37Z</time>
      </trkpt>
      <trkpt lat="38.3368480" lon="-0.7037680">
        <ele>267.2</ele>
        <time>2018-10-04T08:28:38Z</time>
      </trkpt>
      <trkpt lat="38.3368420" lon="-0.7037380">
        <ele>267.2</ele>
        <time>2018-10-04T08:28:39Z</time>
      </trkpt>
      <trkpt lat="38.3368330" lon="-0.7037010">
        <ele>267.3</ele>
        <time>2018-10-04T08:28:40Z</time>
      </trkpt>
      <trkpt lat="38.3368260" lon="-0.7036640">
        <ele>267.4</ele>
        <time>2018-10-04T08:28:41Z</time>
      </trkpt>
      <trkpt lat="38.3368210" lon="-0.7036250">
        <ele>267.4</ele>
        <time>2018-10-04T08:28:42Z</time>
      </trkpt>
      <trkpt lat="38.3368170" lon="-0.7035870">
        <ele>267.4</ele>
        <time>2018-10-04T08:28:43Z</time>
      </trkpt>
      <trkpt lat="38.3368150" lon="-0.7035510">
        <ele>267.3</ele>
        <time>2018-10-04T08:28:44Z</time>
      </trkpt>
      <trkpt lat="38.3368140" lon="-0.7035130">
        <ele>267.3</ele>
        <time>2018-10-04T08:28:45Z</time>
      </trkpt>
      <trkpt lat="38.3368160" lon="-0.7034750">
        <ele>267.2</ele>
        <time>2018-10-04T08:28:46Z</time>
      </trkpt>
      <trkpt lat="38.3368230" lon="-0.7034350">
        <ele>267.1</ele>
        <time>2018-10-04T08:28:47Z</time>
      </trkpt>
      <trkpt lat="38.3368340" lon="-0.7033910">
        <ele>266.9</ele>
        <time>2018-10-04T08:28:48Z</time>
      </trkpt>
      <trkpt lat="38.3368490" lon="-0.7033470">
        <ele>266.8</ele>
        <time>2018-10-04T08:28:49Z</time>
      </trkpt>
      <trkpt lat="38.3368670" lon="-0.7033030">
        <ele>266.6</ele>
        <time>2018-10-04T08:28:50Z</time>
      </trkpt>
      <trkpt lat="38.3368810" lon="-0.7032580">
        <ele>266.4</ele>
        <time>2018-10-04T08:28:51Z</time>
      </trkpt>
      <trkpt lat="38.3368910" lon="-0.7032100">
        <ele>266.3</ele>
        <time>2018-10-04T08:28:52Z</time>
      </trkpt>
      <trkpt lat="38.3368970" lon="-0.7031630">
        <ele>266.1</ele>
        <time>2018-10-04T08:28:53Z</time>
      </trkpt>
      <trkpt lat="38.3368960" lon="-0.7031150">
        <ele>265.9</ele>
        <time>2018-10-04T08:28:54Z</time>
      </trkpt>
      <trkpt lat="38.3368920" lon="-0.7030690">
        <ele>265.6</ele>
        <time>2018-10-04T08:28:55Z</time>
      </trkpt>
      <trkpt lat="38.3368880" lon="-0.7030280">
        <ele>265.5</ele>
        <time>2018-10-04T08:28:56Z</time>
      </trkpt>
      <trkpt lat="38.3368800" lon="-0.7029890">
        <ele>265.4</ele>
        <time>2018-10-04T08:28:57Z</time>
      </trkpt>
      <trkpt lat="38.3368710" lon="-0.7029510">
        <ele>265.3</ele>
        <time>2018-10-04T08:28:58Z</time>
      </trkpt>
      <trkpt lat="38.3368600" lon="-0.7029150">
        <ele>265.3</ele>
        <time>2018-10-04T08:28:59Z</time>
      </trkpt>
      <trkpt lat="38.3368470" lon="-0.7028810">
        <ele>265.3</ele>
        <time>2018-10-04T08:29:00Z</time>
      </trkpt>
      <trkpt lat="38.3368300" lon="-0.7028510">
        <ele>265.3</ele>
        <time>2018-10-04T08:29:01Z</time>
      </trkpt>
      <trkpt lat="38.3368110" lon="-0.7028230">
        <ele>265.3</ele>
        <time>2018-10-04T08:29:02Z</time>
      </trkpt>
      <trkpt lat="38.3367930" lon="-0.7027940">
        <ele>265.3</ele>
        <time>2018-10-04T08:29:03Z</time>
      </trkpt>
      <trkpt lat="38.3367740" lon="-0.7027640">
        <ele>265.4</ele>
        <time>2018-10-04T08:29:04Z</time>
      </trkpt>
      <trkpt lat="38.3367550" lon="-0.7027390">
        <ele>265.4</ele>
        <time>2018-10-04T08:29:05Z</time>
      </trkpt>
      <trkpt lat="38.3367370" lon="-0.7027150">
        <ele>265.5</ele>
        <time>2018-10-04T08:29:06Z</time>
      </trkpt>
      <trkpt lat="38.3367220" lon="-0.7026910">
        <ele>265.5</ele>
        <time>2018-10-04T08:29:07Z</time>
      </trkpt>
      <trkpt lat="38.3367120" lon="-0.7026670">
        <ele>265.5</ele>
        <time>2018-10-04T08:29:08Z</time>
      </trkpt>
      <trkpt lat="38.3367030" lon="-0.7026390">
        <ele>265.6</ele>
        <time>2018-10-04T08:29:09Z</time>
      </trkpt>
      <trkpt lat="38.3367000" lon="-0.7026090">
        <ele>265.6</ele>
        <time>2018-10-04T08:29:10Z</time>
      </trkpt>
      <trkpt lat="38.3367060" lon="-0.7025790">
        <ele>265.7</ele>
        <time>2018-10-04T08:29:11Z</time>
      </trkpt>
      <trkpt lat="38.3367090" lon="-0.7025480">
        <ele>265.9</ele>
        <time>2018-10-04T08:29:12Z</time>
      </trkpt>
      <trkpt lat="38.3367130" lon="-0.7025180">
        <ele>266.0</ele>
        <time>2018-10-04T08:29:13Z</time>
      </trkpt>
      <trkpt lat="38.3367180" lon="-0.7024870">
        <ele>266.1</ele>
        <time>2018-10-04T08:29:14Z</time>
      </trkpt>
      <trkpt lat="38.3367200" lon="-0.7024570">
        <ele>266.3</ele>
        <time>2018-10-04T08:29:15Z</time>
      </trkpt>
      <trkpt lat="38.3367230" lon="-0.7024260">
        <ele>266.4</ele>
        <time>2018-10-04T08:29:16Z</time>
      </trkpt>
      <trkpt lat="38.3367250" lon="-0.7023960">
        <ele>266.5</ele>
        <time>2018-10-04T08:29:17Z</time>
      </trkpt>
      <trkpt lat="38.3367250" lon="-0.7023690">
        <ele>266.7</ele>
        <time>2018-10-04T08:29:18Z</time>
      </trkpt>
      <trkpt lat="38.3367250" lon="-0.7023410">
        <ele>266.8</ele>
        <time>2018-10-04T08:29:19Z</time>
      </trkpt>
      <trkpt lat="38.3367230" lon="-0.7023080">
        <ele>267.0</ele>
        <time>2018-10-04T08:29:20Z</time>
      </trkpt>
      <trkpt lat="38.3367210" lon="-0.7022740">
        <ele>267.2</ele>
        <time>2018-10-04T08:29:21Z</time>
      </trkpt>
      <trkpt lat="38.3367160" lon="-0.7022430">
        <ele>267.3</ele>
        <time>2018-10-04T08:29:22Z</time>
      </trkpt>
      <trkpt lat="38.3367090" lon="-0.7022140">
        <ele>267.5</ele>
        <time>2018-10-04T08:29:23Z</time>
      </trkpt>
      <trkpt lat="38.3366970" lon="-0.7021870">
        <ele>267.8</ele>
        <time>2018-10-04T08:29:24Z</time>
      </trkpt>
      <trkpt lat="38.3366830" lon="-0.7021590">
        <ele>268.0</ele>
        <time>2018-10-04T08:29:25Z</time>
      </trkpt>
      <trkpt lat="38.3366660" lon="-0.7021340">
        <ele>268.4</ele>
        <time>2018-10-04T08:29:26Z</time>
      </trkpt>
      <trkpt lat="38.3366440" lon="-0.7021140">
        <ele>268.8</ele>
        <time>2018-10-04T08:29:27Z</time>
      </trkpt>
      <trkpt lat="38.3366210" lon="-0.7020990">
        <ele>269.0</ele>
        <time>2018-10-04T08:29:28Z</time>
      </trkpt>
      <trkpt lat="38.3365950" lon="-0.7020910">
        <ele>269.4</ele>
        <time>2018-10-04T08:29:29Z</time>
      </trkpt>
      <trkpt lat="38.3365630" lon="-0.7020910">
        <ele>269.6</ele>
        <time>2018-10-04T08:29:30Z</time>
      </trkpt>
      <trkpt lat="38.3365270" lon="-0.7020960">
        <ele>269.9</ele>
        <time>2018-10-04T08:29:31Z</time>
      </trkpt>
      <trkpt lat="38.3364870" lon="-0.7021030">
        <ele>270.2</ele>
        <time>2018-10-04T08:29:32Z</time>
      </trkpt>
      <trkpt lat="38.3364390" lon="-0.7021060">
        <ele>270.3</ele>
        <time>2018-10-04T08:29:33Z</time>
      </trkpt>
      <trkpt lat="38.3363880" lon="-0.7021060">
        <ele>270.4</ele>
        <time>2018-10-04T08:29:34Z</time>
      </trkpt>
      <trkpt lat="38.3363370" lon="-0.7021020">
        <ele>270.4</ele>
        <time>2018-10-04T08:29:35Z</time>
      </trkpt>
      <trkpt lat="38.3362920" lon="-0.7020840">
        <ele>270.3</ele>
        <time>2018-10-04T08:29:36Z</time>
      </trkpt>
      <trkpt lat="38.3362520" lon="-0.7020470">
        <ele>270.0</ele>
        <time>2018-10-04T08:29:37Z</time>
      </trkpt>
      <trkpt lat="38.3362220" lon="-0.7019810">
        <ele>269.6</ele>
        <time>2018-10-04T08:29:38Z</time>
      </trkpt>
      <trkpt lat="38.3362120" lon="-0.7019170">
        <ele>269.3</ele>
        <time>2018-10-04T08:29:39Z</time>
      </trkpt>
      <trkpt lat="38.3362070" lon="-0.7018490">
        <ele>268.9</ele>
        <time>2018-10-04T08:29:40Z</time>
      </trkpt>
      <trkpt lat="38.3362230" lon="-0.7017930">
        <ele>268.2</ele>
        <time>2018-10-04T08:29:41Z</time>
      </trkpt>
      <trkpt lat="38.3362410" lon="-0.7017410">
        <ele>267.6</ele>
        <time>2018-10-04T08:29:42Z</time>
      </trkpt>
      <trkpt lat="38.3362510" lon="-0.7016940">
        <ele>267.0</ele>
        <time>2018-10-04T08:29:43Z</time>
      </trkpt>
      <trkpt lat="38.3362590" lon="-0.7016560">
        <ele>266.4</ele>
        <time>2018-10-04T08:29:44Z</time>
      </trkpt>
      <trkpt lat="38.3362650" lon="-0.7016230">
        <ele>266.1</ele>
        <time>2018-10-04T08:29:45Z</time>
      </trkpt>
      <trkpt lat="38.3362710" lon="-0.7015880">
        <ele>265.8</ele>
        <time>2018-10-04T08:29:46Z</time>
      </trkpt>
      <trkpt lat="38.3362750" lon="-0.7015530">
        <ele>265.4</ele>
        <time>2018-10-04T08:29:47Z</time>
      </trkpt>
      <trkpt lat="38.3362770" lon="-0.7015140">
        <ele>265.1</ele>
        <time>2018-10-04T08:29:48Z</time>
      </trkpt>
      <trkpt lat="38.3362810" lon="-0.7014780">
        <ele>264.9</ele>
        <time>2018-10-04T08:29:49Z</time>
      </trkpt>
      <trkpt lat="38.3362840" lon="-0.7014420">
        <ele>264.8</ele>
        <time>2018-10-04T08:29:50Z</time>
      </trkpt>
      <trkpt lat="38.3362820" lon="-0.7014010">
        <ele>264.6</ele>
        <time>2018-10-04T08:29:51Z</time>
      </trkpt>
      <trkpt lat="38.3362750" lon="-0.7013610">
        <ele>264.7</ele>
        <time>2018-10-04T08:29:52Z</time>
      </trkpt>
      <trkpt lat="38.3362660" lon="-0.7013230">
        <ele>264.8</ele>
        <time>2018-10-04T08:29:53Z</time>
      </trkpt>
      <trkpt lat="38.3362510" lon="-0.7012840">
        <ele>264.8</ele>
        <time>2018-10-04T08:29:54Z</time>
      </trkpt>
      <trkpt lat="38.3362310" lon="-0.7012490">
        <ele>264.9</ele>
        <time>2018-10-04T08:29:55Z</time>
      </trkpt>
      <trkpt lat="38.3362010" lon="-0.7012210">
        <ele>265.0</ele>
        <time>2018-10-04T08:29:56Z</time>
      </trkpt>
      <trkpt lat="38.3361640" lon="-0.7011980">
        <ele>265.1</ele>
        <time>2018-10-04T08:29:57Z</time>
      </trkpt>
      <trkpt lat="38.3361190" lon="-0.7011780">
        <ele>265.0</ele>
        <time>2018-10-04T08:29:58Z</time>
      </trkpt>
      <trkpt lat="38.3360730" lon="-0.7011540">
        <ele>265.0</ele>
        <time>2018-10-04T08:29:59Z</time>
      </trkpt>
      <trkpt lat="38.3360250" lon="-0.7011170">
        <ele>264.9</ele>
        <time>2018-10-04T08:30:00Z</time>
      </trkpt>
      <trkpt lat="38.3359830" lon="-0.7010710">
        <ele>264.7</ele>
        <time>2018-10-04T08:30:01Z</time>
      </trkpt>
      <trkpt lat="38.3359500" lon="-0.7010150">
        <ele>264.4</ele>
        <time>2018-10-04T08:30:02Z</time>
      </trkpt>
      <trkpt lat="38.3359210" lon="-0.7009530">
        <ele>264.1</ele>
        <time>2018-10-04T08:30:03Z</time>
      </trkpt>
      <trkpt lat="38.3358940" lon="-0.7008860">
        <ele>263.8</ele>
        <time>2018-10-04T08:30:04Z</time>
      </trkpt>
      <trkpt lat="38.3358690" lon="-0.7008120">
        <ele>263.5</ele>
        <time>2018-10-04T08:30:05Z</time>
      </trkpt>
      <trkpt lat="38.3358510" lon="-0.7007390">
        <ele>263.2</ele>
        <time>2018-10-04T08:30:06Z</time>
      </trkpt>
      <trkpt lat="38.3358340" lon="-0.7006660">
        <ele>262.9</ele>
        <time>2018-10-04T08:30:07Z</time>
      </trkpt>
      <trkpt lat="38.3358090" lon="-0.7006050">
        <ele>262.6</ele>
        <time>2018-10-04T08:30:08Z</time>
      </trkpt>
      <trkpt lat="38.3357840" lon="-0.7005650">
        <ele>262.4</ele>
        <time>2018-10-04T08:30:09Z</time>
      </trkpt>
      <trkpt lat="38.3357700" lon="-0.7005190">
        <ele>262.2</ele>
        <time>2018-10-04T08:30:10Z</time>
      </trkpt>
      <trkpt lat="38.3357660" lon="-0.7004790">
        <ele>262.1</ele>
        <time>2018-10-04T08:30:11Z</time>
      </trkpt>
      <trkpt lat="38.3357640" lon="-0.7004400">
        <ele>262.0</ele>
        <time>2018-10-04T08:30:12Z</time>
      </trkpt>
      <trkpt lat="38.3357650" lon="-0.7004020">
        <ele>263.6</ele>
        <time>2018-10-04T08:30:13Z</time>
      </trkpt>
      <trkpt lat="38.3357730" lon="-0.7003740">
        <ele>264.0</ele>
        <time>2018-10-04T08:30:14Z</time>
      </trkpt>
      <trkpt lat="38.3357840" lon="-0.7003460">
        <ele>264.4</ele>
        <time>2018-10-04T08:30:15Z</time>
      </trkpt>
      <trkpt lat="38.3358020" lon="-0.7003180">
        <ele>264.9</ele>
        <time>2018-10-04T08:30:16Z</time>
      </trkpt>
      <trkpt lat="38.3358220" lon="-0.7002910">
        <ele>265.3</ele>
        <time>2018-10-04T08:30:17Z</time>
      </trkpt>
      <trkpt lat="38.3358470" lon="-0.7002760">
        <ele>265.7</ele>
        <time>2018-10-04T08:30:18Z</time>
      </trkpt>
      <trkpt lat="38.3358760" lon="-0.7002700">
        <ele>266.0</ele>
        <time>2018-10-04T08:30:19Z</time>
      </trkpt>
      <trkpt lat="38.3359060" lon="-0.7002720">
        <ele>266.3</ele>
        <time>2018-10-04T08:30:20Z</time>
      </trkpt>
      <trkpt lat="38.3359360" lon="-0.7002770">
        <ele>266.5</ele>
        <time>2018-10-04T08:30:21Z</time>
      </trkpt>
      <trkpt lat="38.3359670" lon="-0.7002830">
        <ele>266.7</ele>
        <time>2018-10-04T08:30:22Z</time>
      </trkpt>
      <trkpt lat="38.3359960" lon="-0.7002900">
        <ele>266.8</ele>
        <time>2018-10-04T08:30:23Z</time>
      </trkpt>
      <trkpt lat="38.3360240" lon="-0.7003030">
        <ele>266.8</ele>
        <time>2018-10-04T08:30:24Z</time>
      </trkpt>
      <trkpt lat="38.3360540" lon="-0.7003170">
        <ele>266.8</ele>
        <time>2018-10-04T08:30:25Z</time>
      </trkpt>
      <trkpt lat="38.3360880" lon="-0.7003360">
        <ele>266.8</ele>
        <time>2018-10-04T08:30:26Z</time>
      </trkpt>
      <trkpt lat="38.3361280" lon="-0.7003630">
        <ele>266.8</ele>
        <time>2018-10-04T08:30:27Z</time>
      </trkpt>
      <trkpt lat="38.3361780" lon="-0.7003910">
        <ele>266.5</ele>
        <time>2018-10-04T08:30:28Z</time>
      </trkpt>
      <trkpt lat="38.3362240" lon="-0.7004110">
        <ele>266.2</ele>
        <time>2018-10-04T08:30:29Z</time>
      </trkpt>
      <trkpt lat="38.3362640" lon="-0.7004180">
        <ele>266.0</ele>
        <time>2018-10-04T08:30:30Z</time>
      </trkpt>
      <trkpt lat="38.3363010" lon="-0.7004090">
        <ele>265.9</ele>
        <time>2018-10-04T08:30:31Z</time>
      </trkpt>
      <trkpt lat="38.3363300" lon="-0.7003940">
        <ele>265.8</ele>
        <time>2018-10-04T08:30:32Z</time>
      </trkpt>
      <trkpt lat="38.3363560" lon="-0.7003690">
        <ele>265.7</ele>
        <time>2018-10-04T08:30:33Z</time>
      </trkpt>
      <trkpt lat="38.3363850" lon="-0.7003390">
        <ele>265.6</ele>
        <time>2018-10-04T08:30:34Z</time>
      </trkpt>
      <trkpt lat="38.3364080" lon="-0.7003000">
        <ele>265.5</ele>
        <time>2018-10-04T08:30:35Z</time>
      </trkpt>
      <trkpt lat="38.3364280" lon="-0.7002500">
        <ele>265.2</ele>
        <time>2018-10-04T08:30:36Z</time>
      </trkpt>
      <trkpt lat="38.3364420" lon="-0.7001930">
        <ele>265.0</ele>
        <time>2018-10-04T08:30:37Z</time>
      </trkpt>
      <trkpt lat="38.3364430" lon="-0.7001370">
        <ele>264.9</ele>
        <time>2018-10-04T08:30:38Z</time>
      </trkpt>
      <trkpt lat="38.3364320" lon="-0.7000860">
        <ele>264.7</ele>
        <time>2018-10-04T08:30:39Z</time>
      </trkpt>
      <trkpt lat="38.3364060" lon="-0.7000420">
        <ele>264.5</ele>
        <time>2018-10-04T08:30:40Z</time>
      </trkpt>
      <trkpt lat="38.3363680" lon="-0.7000030">
        <ele>264.4</ele>
        <time>2018-10-04T08:30:41Z</time>
      </trkpt>
      <trkpt lat="38.3363210" lon="-0.6999590">
        <ele>264.3</ele>
        <time>2018-10-04T08:30:42Z</time>
      </trkpt>
      <trkpt lat="38.3362780" lon="-0.6999040">
        <ele>264.2</ele>
        <time>2018-10-04T08:30:43Z</time>
      </trkpt>
      <trkpt lat="38.3362470" lon="-0.6998390">
        <ele>264.2</ele>
        <time>2018-10-04T08:30:44Z</time>
      </trkpt>
      <trkpt lat="38.3362360" lon="-0.6997720">
        <ele>264.2</ele>
        <time>2018-10-04T08:30:45Z</time>
      </trkpt>
      <trkpt lat="38.3362250" lon="-0.6997090">
        <ele>264.2</ele>
        <time>2018-10-04T08:30:46Z</time>
      </trkpt>
      <trkpt lat="38.3362140" lon="-0.6996520">
        <ele>264.2</ele>
        <time>2018-10-04T08:30:47Z</time>
      </trkpt>
      <trkpt lat="38.3361970" lon="-0.6995950">
        <ele>264.1</ele>
        <time>2018-10-04T08:30:48Z</time>
      </trkpt>
      <trkpt lat="38.3361680" lon="-0.6995320">
        <ele>264.1</ele>
        <time>2018-10-04T08:30:49Z</time>
      </trkpt>
      <trkpt lat="38.3361380" lon="-0.6994640">
        <ele>264.0</ele>
        <time>2018-10-04T08:30:50Z</time>
      </trkpt>
      <trkpt lat="38.3361270" lon="-0.6994000">
        <ele>263.9</ele>
        <time>2018-10-04T08:30:51Z</time>
      </trkpt>
      <trkpt lat="38.3361270" lon="-0.6993440">
        <ele>263.8</ele>
        <time>2018-10-04T08:30:52Z</time>
      </trkpt>
      <trkpt lat="38.3361530" lon="-0.6992990">
        <ele>263.8</ele>
        <time>2018-10-04T08:30:53Z</time>
      </trkpt>
      <trkpt lat="38.3361910" lon="-0.6992730">
        <ele>263.7</ele>
        <time>2018-10-04T08:30:54Z</time>
      </trkpt>
      <trkpt lat="38.3362340" lon="-0.6992540">
        <ele>263.7</ele>
        <time>2018-10-04T08:30:55Z</time>
      </trkpt>
      <trkpt lat="38.3362800" lon="-0.6992520">
        <ele>263.7</ele>
        <time>2018-10-04T08:30:56Z</time>
      </trkpt>
      <trkpt lat="38.3363280" lon="-0.6992560">
        <ele>263.7</ele>
        <time>2018-10-04T08:30:57Z</time>
      </trkpt>
      <trkpt lat="38.3363750" lon="-0.6992550">
        <ele>263.9</ele>
        <time>2018-10-04T08:30:58Z</time>
      </trkpt>
      <trkpt lat="38.3364220" lon="-0.6992380">
        <ele>264.0</ele>
        <time>2018-10-04T08:30:59Z</time>
      </trkpt>
      <trkpt lat="38.3364650" lon="-0.6992060">
        <ele>264.1</ele>
        <time>2018-10-04T08:31:00Z</time>
      </trkpt>
      <trkpt lat="38.3365100" lon="-0.6991690">
        <ele>264.3</ele>
        <time>2018-10-04T08:31:01Z</time>
      </trkpt>
      <trkpt lat="38.3365560" lon="-0.6991180">
        <ele>264.4</ele>
        <time>2018-10-04T08:31:02Z</time>
      </trkpt>
      <trkpt lat="38.3365950" lon="-0.6990550">
        <ele>264.5</ele>
        <time>2018-10-04T08:31:03Z</time>
      </trkpt>
      <trkpt lat="38.3366210" lon="-0.6989860">
        <ele>264.6</ele>
        <time>2018-10-04T08:31:04Z</time>
      </trkpt>
      <trkpt lat="38.3366340" lon="-0.6989100">
        <ele>264.7</ele>
        <time>2018-10-04T08:31:05Z</time>
      </trkpt>
      <trkpt lat="38.3366420" lon="-0.6988300">
        <ele>264.9</ele>
        <time>2018-10-04T08:31:06Z</time>
      </trkpt>
      <trkpt lat="38.3366590" lon="-0.6987530">
        <ele>265.1</ele>
        <time>2018-10-04T08:31:07Z</time>
      </trkpt>
      <trkpt lat="38.3366880" lon="-0.6986870">
        <ele>265.4</ele>
        <time>2018-10-04T08:31:08Z</time>
      </trkpt>
      <trkpt lat="38.3367240" lon="-0.6986360">
        <ele>265.6</ele>
        <time>2018-10-04T08:31:09Z</time>
      </trkpt>
      <trkpt lat="38.3367600" lon="-0.6985920">
        <ele>265.9</ele>
        <time>2018-10-04T08:31:10Z</time>
      </trkpt>
      <trkpt lat="38.3367900" lon="-0.6985430">
        <ele>266.2</ele>
        <time>2018-10-04T08:31:11Z</time>
      </trkpt>
      <trkpt lat="38.3368180" lon="-0.6984910">
        <ele>266.6</ele>
        <time>2018-10-04T08:31:12Z</time>
      </trkpt>
      <trkpt lat="38.3368390" lon="-0.6984330">
        <ele>267.0</ele>
        <time>2018-10-04T08:31:13Z</time>
      </trkpt>
      <trkpt lat="38.3368550" lon="-0.6983690">
        <ele>267.6</ele>
        <time>2018-10-04T08:31:14Z</time>
      </trkpt>
      <trkpt lat="38.3368590" lon="-0.6983020">
        <ele>268.1</ele>
        <time>2018-10-04T08:31:15Z</time>
      </trkpt>
      <trkpt lat="38.3368610" lon="-0.6982350">
        <ele>268.7</ele>
        <time>2018-10-04T08:31:16Z</time>
      </trkpt>
      <trkpt lat="38.3368650" lon="-0.6981680">
        <ele>269.2</ele>
        <time>2018-10-04T08:31:17Z</time>
      </trkpt>
      <trkpt lat="38.3368680" lon="-0.6981030">
        <ele>269.7</ele>
        <time>2018-10-04T08:31:18Z</time>
      </trkpt>
      <trkpt lat="38.3368720" lon="-0.6980420">
        <ele>270.1</ele>
        <time>2018-10-04T08:31:19Z</time>
      </trkpt>
      <trkpt lat="38.3368750" lon="-0.6979840">
        <ele>270.6</ele>
        <time>2018-10-04T08:31:20Z</time>
      </trkpt>
      <trkpt lat="38.3368770" lon="-0.6979300">
        <ele>271.1</ele>
        <time>2018-10-04T08:31:21Z</time>
      </trkpt>
      <trkpt lat="38.3368780" lon="-0.6978830">
        <ele>271.5</ele>
        <time>2018-10-04T08:31:22Z</time>
      </trkpt>
      <trkpt lat="38.3368810" lon="-0.6978470">
        <ele>271.9</ele>
        <time>2018-10-04T08:31:23Z</time>
      </trkpt>
      <trkpt lat="38.3368820" lon="-0.6978200">
        <ele>272.3</ele>
        <time>2018-10-04T08:31:24Z</time>
      </trkpt>
      <trkpt lat="38.3368810" lon="-0.6977950">
        <ele>272.7</ele>
        <time>2018-10-04T08:31:25Z</time>
      </trkpt>
      <trkpt lat="38.3368790" lon="-0.6977670">
        <ele>273.3</ele>
        <time>2018-10-04T08:31:26Z</time>
      </trkpt>
      <trkpt lat="38.3368770" lon="-0.6977360">
        <ele>273.8</ele>
        <time>2018-10-04T08:31:27Z</time>
      </trkpt>
      <trkpt lat="38.3368740" lon="-0.6977050">
        <ele>274.2</ele>
        <time>2018-10-04T08:31:28Z</time>
      </trkpt>
      <trkpt lat="38.3368710" lon="-0.6976750">
        <ele>274.6</ele>
        <time>2018-10-04T08:31:29Z</time>
      </trkpt>
      <trkpt lat="38.3368630" lon="-0.6976470">
        <ele>275.0</ele>
        <time>2018-10-04T08:31:30Z</time>
      </trkpt>
      <trkpt lat="38.3368550" lon="-0.6976200">
        <ele>275.4</ele>
        <time>2018-10-04T08:31:31Z</time>
      </trkpt>
      <trkpt lat="38.3368490" lon="-0.6975930">
        <ele>275.8</ele>
        <time>2018-10-04T08:31:32Z</time>
      </trkpt>
      <trkpt lat="38.3368380" lon="-0.6975650">
        <ele>276.3</ele>
        <time>2018-10-04T08:31:33Z</time>
      </trkpt>
      <trkpt lat="38.3368260" lon="-0.6975380">
        <ele>276.8</ele>
        <time>2018-10-04T08:31:34Z</time>
      </trkpt>
      <trkpt lat="38.3368170" lon="-0.6975130">
        <ele>277.2</ele>
        <time>2018-10-04T08:31:35Z</time>
      </trkpt>
      <trkpt lat="38.3368080" lon="-0.6974900">
        <ele>277.5</ele>
        <time>2018-10-04T08:31:36Z</time>
      </trkpt>
      <trkpt lat="38.3368030" lon="-0.6974660">
        <ele>277.8</ele>
        <time>2018-10-04T08:31:37Z</time>
      </trkpt>
      <trkpt lat="38.3367970" lon="-0.6974450">
        <ele>278.1</ele>
        <time>2018-10-04T08:31:38Z</time>
      </trkpt>
      <trkpt lat="38.3367900" lon="-0.6974230">
        <ele>278.4</ele>
        <time>2018-10-04T08:31:39Z</time>
      </trkpt>
      <trkpt lat="38.3367830" lon="-0.6973990">
        <ele>278.7</ele>
        <time>2018-10-04T08:31:40Z</time>
      </trkpt>
      <trkpt lat="38.3367770" lon="-0.6973770">
        <ele>279.1</ele>
        <time>2018-10-04T08:31:41Z</time>
      </trkpt>
      <trkpt lat="38.3367680" lon="-0.6973520">
        <ele>279.7</ele>
        <time>2018-10-04T08:31:42Z</time>
      </trkpt>
      <trkpt lat="38.3367610" lon="-0.6973280">
        <ele>280.2</ele>
        <time>2018-10-04T08:31:43Z</time>
      </trkpt>
      <trkpt lat="38.3367560" lon="-0.6973040">
        <ele>280.6</ele>
        <time>2018-10-04T08:31:44Z</time>
      </trkpt>
      <trkpt lat="38.3367490" lon="-0.6972820">
        <ele>281.1</ele>
        <time>2018-10-04T08:31:45Z</time>
      </trkpt>
      <trkpt lat="38.3367410" lon="-0.6972610">
        <ele>281.4</ele>
        <time>2018-10-04T08:31:46Z</time>
      </trkpt>
      <trkpt lat="38.3367330" lon="-0.6972380">
        <ele>281.7</ele>
        <time>2018-10-04T08:31:47Z</time>
      </trkpt>
      <trkpt lat="38.3367230" lon="-0.6972160">
        <ele>282.1</ele>
        <time>2018-10-04T08:31:48Z</time>
      </trkpt>
      <trkpt lat="38.3367130" lon="-0.6971930">
        <ele>282.4</ele>
        <time>2018-10-04T08:31:49Z</time>
      </trkpt>
      <trkpt lat="38.3367040" lon="-0.6971700">
        <ele>282.7</ele>
        <time>2018-10-04T08:31:50Z</time>
      </trkpt>
      <trkpt lat="38.3366940" lon="-0.6971480">
        <ele>283.0</ele>
        <time>2018-10-04T08:31:51Z</time>
      </trkpt>
      <trkpt lat="38.3366820" lon="-0.6971260">
        <ele>283.7</ele>
        <time>2018-10-04T08:31:52Z</time>
      </trkpt>
      <trkpt lat="38.3366690" lon="-0.6971030">
        <ele>284.2</ele>
        <time>2018-10-04T08:31:53Z</time>
      </trkpt>
      <trkpt lat="38.3366560" lon="-0.6970810">
        <ele>284.7</ele>
        <time>2018-10-04T08:31:54Z</time>
      </trkpt>
      <trkpt lat="38.3366390" lon="-0.6970630">
        <ele>285.1</ele>
        <time>2018-10-04T08:31:55Z</time>
      </trkpt>
      <trkpt lat="38.3366200" lon="-0.6970490">
        <ele>285.4</ele>
        <time>2018-10-04T08:31:56Z</time>
      </trkpt>
      <trkpt lat="38.3366000" lon="-0.6970360">
        <ele>285.8</ele>
        <time>2018-10-04T08:31:57Z</time>
      </trkpt>
      <trkpt lat="38.3365780" lon="-0.6970290">
        <ele>286.1</ele>
        <time>2018-10-04T08:31:58Z</time>
      </trkpt>
      <trkpt lat="38.3365550" lon="-0.6970270">
        <ele>286.4</ele>
        <time>2018-10-04T08:31:59Z</time>
      </trkpt>
      <trkpt lat="38.3365320" lon="-0.6970330">
        <ele>286.7</ele>
        <time>2018-10-04T08:32:00Z</time>
      </trkpt>
      <trkpt lat="38.3365130" lon="-0.6970400">
        <ele>287.0</ele>
        <time>2018-10-04T08:32:01Z</time>
      </trkpt>
      <trkpt lat="38.3364940" lon="-0.6970450">
        <ele>287.4</ele>
        <time>2018-10-04T08:32:02Z</time>
      </trkpt>
      <trkpt lat="38.3364740" lon="-0.6970530">
        <ele>287.8</ele>
        <time>2018-10-04T08:32:03Z</time>
      </trkpt>
      <trkpt lat="38.3364510" lon="-0.6970640">
        <ele>288.3</ele>
        <time>2018-10-04T08:32:04Z</time>
      </trkpt>
      <trkpt lat="38.3364270" lon="-0.6970720">
        <ele>288.7</ele>
        <time>2018-10-04T08:32:05Z</time>
      </trkpt>
      <trkpt lat="38.3364030" lon="-0.6970810">
        <ele>289.1</ele>
        <time>2018-10-04T08:32:06Z</time>
      </trkpt>
      <trkpt lat="38.3363790" lon="-0.6970880">
        <ele>289.5</ele>
        <time>2018-10-04T08:32:07Z</time>
      </trkpt>
      <trkpt lat="38.3363540" lon="-0.6970960">
        <ele>289.7</ele>
        <time>2018-10-04T08:32:08Z</time>
      </trkpt>
      <trkpt lat="38.3363290" lon="-0.6971040">
        <ele>290.0</ele>
        <time>2018-10-04T08:32:09Z</time>
      </trkpt>
      <trkpt lat="38.3363040" lon="-0.6971160">
        <ele>290.3</ele>
        <time>2018-10-04T08:32:10Z</time>
      </trkpt>
      <trkpt lat="38.3362760" lon="-0.6971280">
        <ele>290.6</ele>
        <time>2018-10-04T08:32:11Z</time>
      </trkpt>
      <trkpt lat="38.3362460" lon="-0.6971320">
        <ele>290.9</ele>
        <time>2018-10-04T08:32:12Z</time>
      </trkpt>
      <trkpt lat="38.3362180" lon="-0.6971300">
        <ele>291.4</ele>
        <time>2018-10-04T08:32:13Z</time>
      </trkpt>
      <trkpt lat="38.3361970" lon="-0.6971140">
        <ele>291.9</ele>
        <time>2018-10-04T08:32:14Z</time>
      </trkpt>
      <trkpt lat="38.3361800" lon="-0.6970900">
        <ele>290.7</ele>
        <time>2018-10-04T08:32:15Z</time>
      </trkpt>
      <trkpt lat="38.3361660" lon="-0.6970640">
        <ele>290.1</ele>
        <time>2018-10-04T08:32:16Z</time>
      </trkpt>
      <trkpt lat="38.3361530" lon="-0.6970310">
        <ele>289.2</ele>
        <time>2018-10-04T08:32:17Z</time>
      </trkpt>
      <trkpt lat="38.3361440" lon="-0.6969950">
        <ele>288.1</ele>
        <time>2018-10-04T08:32:18Z</time>
      </trkpt>
      <trkpt lat="38.3361410" lon="-0.6969580">
        <ele>287.2</ele>
        <time>2018-10-04T08:32:19Z</time>
      </trkpt>
      <trkpt lat="38.3361390" lon="-0.6969250">
        <ele>287.2</ele>
        <time>2018-10-04T08:32:20Z</time>
      </trkpt>
      <trkpt lat="38.3361410" lon="-0.6968940">
        <ele>287.3</ele>
        <time>2018-10-04T08:32:21Z</time>
      </trkpt>
      <trkpt lat="38.3361400" lon="-0.6968630">
        <ele>287.4</ele>
        <time>2018-10-04T08:32:22Z</time>
      </trkpt>
      <trkpt lat="38.3361380" lon="-0.6968320">
        <ele>287.6</ele>
        <time>2018-10-04T08:32:23Z</time>
      </trkpt>
      <trkpt lat="38.3361370" lon="-0.6968000">
        <ele>287.8</ele>
        <time>2018-10-04T08:32:24Z</time>
      </trkpt>
      <trkpt lat="38.3361370" lon="-0.6967690">
        <ele>288.1</ele>
        <time>2018-10-04T08:32:25Z</time>
      </trkpt>
      <trkpt lat="38.3361370" lon="-0.6967370">
        <ele>288.3</ele>
        <time>2018-10-04T08:32:26Z</time>
      </trkpt>
      <trkpt lat="38.3361480" lon="-0.6967020">
        <ele>288.5</ele>
        <time>2018-10-04T08:32:27Z</time>
      </trkpt>
      <trkpt lat="38.3361630" lon="-0.6966620">
        <ele>288.9</ele>
        <time>2018-10-04T08:32:28Z</time>
      </trkpt>
      <trkpt lat="38.3361830" lon="-0.6966110">
        <ele>289.1</ele>
        <time>2018-10-04T08:32:29Z</time>
      </trkpt>
      <trkpt lat="38.3362110" lon="-0.6965550">
        <ele>289.1</ele>
        <time>2018-10-04T08:32:30Z</time>
      </trkpt>
      <trkpt lat="38.3362410" lon="-0.6964980">
        <ele>289.1</ele>
        <time>2018-10-04T08:32:31Z</time>
      </trkpt>
      <trkpt lat="38.3362730" lon="-0.6964410">
        <ele>289.1</ele>
        <time>2018-10-04T08:32:32Z</time>
      </trkpt>
      <trkpt lat="38.3363060" lon="-0.6963860">
        <ele>289.2</ele>
        <time>2018-10-04T08:32:33Z</time>
      </trkpt>
      <trkpt lat="38.3363400" lon="-0.6963410">
        <ele>289.3</ele>
        <time>2018-10-04T08:32:34Z</time>
      </trkpt>
      <trkpt lat="38.3363740" lon="-0.6962980">
        <ele>289.4</ele>
        <time>2018-10-04T08:32:35Z</time>
      </trkpt>
      <trkpt lat="38.3364030" lon="-0.6962570">
        <ele>289.7</ele>
        <time>2018-10-04T08:32:36Z</time>
      </trkpt>
      <trkpt lat="38.3364230" lon="-0.6962320">
        <ele>289.9</ele>
        <time>2018-10-04T08:32:37Z</time>
      </trkpt>
      <trkpt lat="38.3364470" lon="-0.6962130">
        <ele>290.1</ele>
        <time>2018-10-04T08:32:38Z</time>
      </trkpt>
      <trkpt lat="38.3364690" lon="-0.6961980">
        <ele>290.2</ele>
        <time>2018-10-04T08:32:39Z</time>
      </trkpt>
      <trkpt lat="38.3364910" lon="-0.6961860">
        <ele>290.3</ele>
        <time>2018-10-04T08:32:40Z</time>
      </trkpt>
      <trkpt lat="38.3365130" lon="-0.6961710">
        <ele>290.5</ele>
        <time>2018-10-04T08:32:41Z</time>
      </trkpt>
      <trkpt lat="38.3365360" lon="-0.6961600">
        <ele>290.7</ele>
        <time>2018-10-04T08:32:42Z</time>
      </trkpt>
      <trkpt lat="38.3365580" lon="-0.6961450">
        <ele>291.1</ele>
        <time>2018-10-04T08:32:43Z</time>
      </trkpt>
      <trkpt lat="38.3365760" lon="-0.6961250">
        <ele>291.5</ele>
        <time>2018-10-04T08:32:44Z</time>
      </trkpt>
      <trkpt lat="38.3365920" lon="-0.6961020">
        <ele>291.7</ele>
        <time>2018-10-04T08:32:45Z</time>
      </trkpt>
      <trkpt lat="38.3366090" lon="-0.6960760">
        <ele>292.0</ele>
        <time>2018-10-04T08:32:46Z</time>
      </trkpt>
      <trkpt lat="38.3366210" lon="-0.6960450">
        <ele>292.5</ele>
        <time>2018-10-04T08:32:47Z</time>
      </trkpt>
      <trkpt lat="38.3366300" lon="-0.6960060">
        <ele>293.0</ele>
        <time>2018-10-04T08:32:48Z</time>
      </trkpt>
      <trkpt lat="38.3366340" lon="-0.6959640">
        <ele>293.2</ele>
        <time>2018-10-04T08:32:49Z</time>
      </trkpt>
      <trkpt lat="38.3366320" lon="-0.6959190">
        <ele>293.5</ele>
        <time>2018-10-04T08:32:50Z</time>
      </trkpt>
      <trkpt lat="38.3366260" lon="-0.6958750">
        <ele>293.7</ele>
        <time>2018-10-04T08:32:51Z</time>
      </trkpt>
      <trkpt lat="38.3366190" lon="-0.6958290">
        <ele>294.0</ele>
        <time>2018-10-04T08:32:52Z</time>
      </trkpt>
      <trkpt lat="38.3366120" lon="-0.6957800">
        <ele>294.1</ele>
        <time>2018-10-04T08:32:53Z</time>
      </trkpt>
      <trkpt lat="38.3366050" lon="-0.6957300">
        <ele>294.2</ele>
        <time>2018-10-04T08:32:54Z</time>
      </trkpt>
      <trkpt lat="38.3366010" lon="-0.6956780">
        <ele>294.3</ele>
        <time>2018-10-04T08:32:55Z</time>
      </trkpt>
      <trkpt lat="38.3365980" lon="-0.6956240">
        <ele>294.4</ele>
        <time>2018-10-04T08:32:56Z</time>
      </trkpt>
      <trkpt lat="38.3365930" lon="-0.6955670">
        <ele>294.5</ele>
        <time>2018-10-04T08:32:57Z</time>
      </trkpt>
      <trkpt lat="38.3365890" lon="-0.6955030">
        <ele>294.5</ele>
        <time>2018-10-04T08:32:58Z</time>
      </trkpt>
      <trkpt lat="38.3365880" lon="-0.6954340">
        <ele>294.6</ele>
        <time>2018-10-04T08:32:59Z</time>
      </trkpt>
      <trkpt lat="38.3365900" lon="-0.6953640">
        <ele>294.6</ele>
        <time>2018-10-04T08:33:00Z</time>
      </trkpt>
      <trkpt lat="38.3365940" lon="-0.6952940">
        <ele>294.6</ele>
        <time>2018-10-04T08:33:01Z</time>
      </trkpt>
      <trkpt lat="38.3365950" lon="-0.6952220">
        <ele>294.6</ele>
        <time>2018-10-04T08:33:02Z</time>
      </trkpt>
      <trkpt lat="38.3365990" lon="-0.6951500">
        <ele>294.7</ele>
        <time>2018-10-04T08:33:03Z</time>
      </trkpt>
      <trkpt lat="38.3366070" lon="-0.6950790">
        <ele>294.7</ele>
        <time>2018-10-04T08:33:04Z</time>
      </trkpt>
      <trkpt lat="38.3366190" lon="-0.6950110">
        <ele>294.7</ele>
        <time>2018-10-04T08:33:05Z</time>
      </trkpt>
      <trkpt lat="38.3366390" lon="-0.6949490">
        <ele>294.7</ele>
        <time>2018-10-04T08:33:06Z</time>
      </trkpt>
      <trkpt lat="38.3366680" lon="-0.6948970">
        <ele>294.8</ele>
        <time>2018-10-04T08:33:07Z</time>
      </trkpt>
      <trkpt lat="38.3367000" lon="-0.6948530">
        <ele>294.8</ele>
        <time>2018-10-04T08:33:08Z</time>
      </trkpt>
      <trkpt lat="38.3367350" lon="-0.6948200">
        <ele>294.8</ele>
        <time>2018-10-04T08:33:09Z</time>
      </trkpt>
      <trkpt lat="38.3367720" lon="-0.6947940">
        <ele>294.8</ele>
        <time>2018-10-04T08:33:10Z</time>
      </trkpt>
      <trkpt lat="38.3368040" lon="-0.6947690">
        <ele>294.9</ele>
        <time>2018-10-04T08:33:11Z</time>
      </trkpt>
      <trkpt lat="38.3368330" lon="-0.6947440">
        <ele>294.9</ele>
        <time>2018-10-04T08:33:12Z</time>
      </trkpt>
      <trkpt lat="38.3368620" lon="-0.6947250">
        <ele>295.0</ele>
        <time>2018-10-04T08:33:13Z</time>
      </trkpt>
      <trkpt lat="38.3368890" lon="-0.6947070">
        <ele>295.0</ele>
        <time>2018-10-04T08:33:14Z</time>
      </trkpt>
      <trkpt lat="38.3369150" lon="-0.6946870">
        <ele>295.0</ele>
        <time>2018-10-04T08:33:15Z</time>
      </trkpt>
      <trkpt lat="38.3369290" lon="-0.6946570">
        <ele>295.0</ele>
        <time>2018-10-04T08:33:16Z</time>
      </trkpt>
      <trkpt lat="38.3369320" lon="-0.6946240">
        <ele>295.6</ele>
        <time>2018-10-04T08:33:17Z</time>
      </trkpt>
      <trkpt lat="38.3369320" lon="-0.6945860">
        <ele>295.9</ele>
        <time>2018-10-04T08:33:18Z</time>
      </trkpt>
      <trkpt lat="38.3369220" lon="-0.6945520">
        <ele>296.2</ele>
        <time>2018-10-04T08:33:19Z</time>
      </trkpt>
      <trkpt lat="38.3369040" lon="-0.6945230">
        <ele>296.5</ele>
        <time>2018-10-04T08:33:20Z</time>
      </trkpt>
      <trkpt lat="38.3368850" lon="-0.6944930">
        <ele>296.7</ele>
        <time>2018-10-04T08:33:21Z</time>
      </trkpt>
      <trkpt lat="38.3368700" lon="-0.6944620">
        <ele>296.8</ele>
        <time>2018-10-04T08:33:22Z</time>
      </trkpt>
      <trkpt lat="38.3368530" lon="-0.6944310">
        <ele>297.0</ele>
        <time>2018-10-04T08:33:23Z</time>
      </trkpt>
      <trkpt lat="38.3368360" lon="-0.6944000">
        <ele>297.2</ele>
        <time>2018-10-04T08:33:24Z</time>
      </trkpt>
      <trkpt lat="38.3368160" lon="-0.6943710">
        <ele>297.4</ele>
        <time>2018-10-04T08:33:25Z</time>
      </trkpt>
      <trkpt lat="38.3367950" lon="-0.6943430">
        <ele>297.6</ele>
        <time>2018-10-04T08:33:26Z</time>
      </trkpt>
      <trkpt lat="38.3367710" lon="-0.6943180">
        <ele>297.8</ele>
        <time>2018-10-04T08:33:27Z</time>
      </trkpt>
      <trkpt lat="38.3367470" lon="-0.6942950">
        <ele>298.0</ele>
        <time>2018-10-04T08:33:28Z</time>
      </trkpt>
      <trkpt lat="38.3367210" lon="-0.6942740">
        <ele>298.2</ele>
        <time>2018-10-04T08:33:29Z</time>
      </trkpt>
      <trkpt lat="38.3366940" lon="-0.6942540">
        <ele>298.3</ele>
        <time>2018-10-04T08:33:30Z</time>
      </trkpt>
      <trkpt lat="38.3366660" lon="-0.6942340">
        <ele>298.4</ele>
        <time>2018-10-04T08:33:31Z</time>
      </trkpt>
      <trkpt lat="38.3366380" lon="-0.6942110">
        <ele>298.6</ele>
        <time>2018-10-04T08:33:32Z</time>
      </trkpt>
      <trkpt lat="38.3366090" lon="-0.6941870">
        <ele>298.7</ele>
        <time>2018-10-04T08:33:33Z</time>
      </trkpt>
      <trkpt lat="38.3365800" lon="-0.6941650">
        <ele>298.9</ele>
        <time>2018-10-04T08:33:34Z</time>
      </trkpt>
      <trkpt lat="38.3365520" lon="-0.6941450">
        <ele>299.0</ele>
        <time>2018-10-04T08:33:35Z</time>
      </trkpt>
      <trkpt lat="38.3365240" lon="-0.6941250">
        <ele>299.0</ele>
        <time>2018-10-04T08:33:36Z</time>
      </trkpt>
      <trkpt lat="38.3364970" lon="-0.6941060">
        <ele>299.1</ele>
        <time>2018-10-04T08:33:37Z</time>
      </trkpt>
      <trkpt lat="38.3364700" lon="-0.6940880">
        <ele>299.1</ele>
        <time>2018-10-04T08:33:38Z</time>
      </trkpt>
      <trkpt lat="38.3364410" lon="-0.6940660">
        <ele>299.1</ele>
        <time>2018-10-04T08:33:39Z</time>
      </trkpt>
      <trkpt lat="38.3364090" lon="-0.6940440">
        <ele>299.2</ele>
        <time>2018-10-04T08:33:40Z</time>
      </trkpt>
      <trkpt lat="38.3363750" lon="-0.6940210">
        <ele>299.2</ele>
        <time>2018-10-04T08:33:41Z</time>
      </trkpt>
      <trkpt lat="38.3363400" lon="-0.6939980">
        <ele>299.2</ele>
        <time>2018-10-04T08:33:42Z</time>
      </trkpt>
      <trkpt lat="38.3363050" lon="-0.6939720">
        <ele>299.2</ele>
        <time>2018-10-04T08:33:43Z</time>
      </trkpt>
      <trkpt lat="38.3362680" lon="-0.6939450">
        <ele>299.2</ele>
        <time>2018-10-04T08:33:44Z</time>
      </trkpt>
      <trkpt lat="38.3362270" lon="-0.6939170">
        <ele>299.2</ele>
        <time>2018-10-04T08:33:45Z</time>
      </trkpt>
      <trkpt lat="38.3361830" lon="-0.6938880">
        <ele>299.2</ele>
        <time>2018-10-04T08:33:46Z</time>
      </trkpt>
      <trkpt lat="38.3361360" lon="-0.6938620">
        <ele>299.2</ele>
        <time>2018-10-04T08:33:47Z</time>
      </trkpt>
      <trkpt lat="38.3360880" lon="-0.6938320">
        <ele>299.1</ele>
        <time>2018-10-04T08:33:48Z</time>
      </trkpt>
      <trkpt lat="38.3360400" lon="-0.6938060">
        <ele>299.1</ele>
        <time>2018-10-04T08:33:49Z</time>
      </trkpt>
      <trkpt lat="38.3359910" lon="-0.6937800">
        <ele>299.0</ele>
        <time>2018-10-04T08:33:50Z</time>
      </trkpt>
      <trkpt lat="38.3359410" lon="-0.6937550">
        <ele>299.0</ele>
        <time>2018-10-04T08:33:51Z</time>
      </trkpt>
      <trkpt lat="38.3358880" lon="-0.6937320">
        <ele>298.9</ele>
        <time>2018-10-04T08:33:52Z</time>
      </trkpt>
      <trkpt lat="38.3358340" lon="-0.6937110">
        <ele>298.8</ele>
        <time>2018-10-04T08:33:53Z</time>
      </trkpt>
      <trkpt lat="38.3357790" lon="-0.6936910">
        <ele>298.7</ele>
        <time>2018-10-04T08:33:54Z</time>
      </trkpt>
      <trkpt lat="38.3357250" lon="-0.6936740">
        <ele>298.7</ele>
        <time>2018-10-04T08:33:55Z</time>
      </trkpt>
      <trkpt lat="38.3356700" lon="-0.6936620">
        <ele>298.7</ele>
        <time>2018-10-04T08:33:56Z</time>
      </trkpt>
      <trkpt lat="38.3356140" lon="-0.6936570">
        <ele>298.6</ele>
        <time>2018-10-04T08:33:57Z</time>
      </trkpt>
      <trkpt lat="38.3355580" lon="-0.6936570">
        <ele>298.6</ele>
        <time>2018-10-04T08:33:58Z</time>
      </trkpt>
      <trkpt lat="38.3355010" lon="-0.6936580">
        <ele>298.5</ele>
        <time>2018-10-04T08:33:59Z</time>
      </trkpt>
      <trkpt lat="38.3354440" lon="-0.6936610">
        <ele>298.5</ele>
        <time>2018-10-04T08:34:00Z</time>
      </trkpt>
      <trkpt lat="38.3353910" lon="-0.6936640">
        <ele>298.4</ele>
        <time>2018-10-04T08:34:01Z</time>
      </trkpt>
      <trkpt lat="38.3353370" lon="-0.6936700">
        <ele>298.4</ele>
        <time>2018-10-04T08:34:02Z</time>
      </trkpt>
      <trkpt lat="38.3352860" lon="-0.6936810">
        <ele>298.4</ele>
        <time>2018-10-04T08:34:03Z</time>
      </trkpt>
      <trkpt lat="38.3352320" lon="-0.6936900">
        <ele>298.3</ele>
        <time>2018-10-04T08:34:04Z</time>
      </trkpt>
      <trkpt lat="38.3351780" lon="-0.6937020">
        <ele>298.2</ele>
        <time>2018-10-04T08:34:05Z</time>
      </trkpt>
      <trkpt lat="38.3351220" lon="-0.6937080">
        <ele>298.1</ele>
        <time>2018-10-04T08:34:06Z</time>
      </trkpt>
      <trkpt lat="38.3350660" lon="-0.6937080">
        <ele>297.9</ele>
        <time>2018-10-04T08:34:07Z</time>
      </trkpt>
      <trkpt lat="38.3350090" lon="-0.6937020">
        <ele>297.8</ele>
        <time>2018-10-04T08:34:08Z</time>
      </trkpt>
      <trkpt lat="38.3349500" lon="-0.6936880">
        <ele>297.6</ele>
        <time>2018-10-04T08:34:09Z</time>
      </trkpt>
      <trkpt lat="38.3348910" lon="-0.6936740">
        <ele>297.4</ele>
        <time>2018-10-04T08:34:10Z</time>
      </trkpt>
      <trkpt lat="38.3348290" lon="-0.6936640">
        <ele>297.2</ele>
        <time>2018-10-04T08:34:11Z</time>
      </trkpt>
      <trkpt lat="38.3347670" lon="-0.6936590">
        <ele>296.9</ele>
        <time>2018-10-04T08:34:12Z</time>
      </trkpt>
      <trkpt lat="38.3347040" lon="-0.6936580">
        <ele>296.7</ele>
        <time>2018-10-04T08:34:13Z</time>
      </trkpt>
      <trkpt lat="38.3346370" lon="-0.6936590">
        <ele>296.5</ele>
        <time>2018-10-04T08:34:14Z</time>
      </trkpt>
      <trkpt lat="38.3345700" lon="-0.6936610">
        <ele>296.3</ele>
        <time>2018-10-04T08:34:15Z</time>
      </trkpt>
      <trkpt lat="38.3345020" lon="-0.6936680">
        <ele>296.2</ele>
        <time>2018-10-04T08:34:16Z</time>
      </trkpt>
      <trkpt lat="38.3344330" lon="-0.6936760">
        <ele>296.0</ele>
        <time>2018-10-04T08:34:17Z</time>
      </trkpt>
      <trkpt lat="38.3343610" lon="-0.6936860">
        <ele>295.7</ele>
        <time>2018-10-04T08:34:18Z</time>
      </trkpt>
      <trkpt lat="38.3342900" lon="-0.6936940">
        <ele>295.4</ele>
        <time>2018-10-04T08:34:19Z</time>
      </trkpt>
      <trkpt lat="38.3342150" lon="-0.6936980">
        <ele>295.1</ele>
        <time>2018-10-04T08:34:20Z</time>
      </trkpt>
      <trkpt lat="38.3341400" lon="-0.6937010">
        <ele>294.6</ele>
        <time>2018-10-04T08:34:21Z</time>
      </trkpt>
      <trkpt lat="38.3340620" lon="-0.6937000">
        <ele>294.3</ele>
        <time>2018-10-04T08:34:22Z</time>
      </trkpt>
      <trkpt lat="38.3339840" lon="-0.6937010">
        <ele>293.6</ele>
        <time>2018-10-04T08:34:23Z</time>
      </trkpt>
      <trkpt lat="38.3339020" lon="-0.6936970">
        <ele>292.9</ele>
        <time>2018-10-04T08:34:24Z</time>
      </trkpt>
      <trkpt lat="38.3338180" lon="-0.6936910">
        <ele>292.4</ele>
        <time>2018-10-04T08:34:25Z</time>
      </trkpt>
      <trkpt lat="38.3337310" lon="-0.6936710">
        <ele>291.4</ele>
        <time>2018-10-04T08:34:26Z</time>
      </trkpt>
      <trkpt lat="38.3336420" lon="-0.6936460">
        <ele>290.7</ele>
        <time>2018-10-04T08:34:27Z</time>
      </trkpt>
      <trkpt lat="38.3335490" lon="-0.6936200">
        <ele>290.1</ele>
        <time>2018-10-04T08:34:28Z</time>
      </trkpt>
      <trkpt lat="38.3334560" lon="-0.6935910">
        <ele>289.6</ele>
        <time>2018-10-04T08:34:29Z</time>
      </trkpt>
      <trkpt lat="38.3333690" lon="-0.6935750">
        <ele>289.2</ele>
        <time>2018-10-04T08:34:30Z</time>
      </trkpt>
      <trkpt lat="38.3332830" lon="-0.6935760">
        <ele>288.3</ele>
        <time>2018-10-04T08:34:31Z</time>
      </trkpt>
      <trkpt lat="38.3331980" lon="-0.6935780">
        <ele>287.7</ele>
        <time>2018-10-04T08:34:32Z</time>
      </trkpt>
      <trkpt lat="38.3331130" lon="-0.6935850">
        <ele>287.1</ele>
        <time>2018-10-04T08:34:33Z</time>
      </trkpt>
      <trkpt lat="38.3330270" lon="-0.6935930">
        <ele>286.6</ele>
        <time>2018-10-04T08:34:34Z</time>
      </trkpt>
      <trkpt lat="38.3329410" lon="-0.6935950">
        <ele>286.2</ele>
        <time>2018-10-04T08:34:35Z</time>
      </trkpt>
      <trkpt lat="38.3328540" lon="-0.6935970">
        <ele>285.6</ele>
        <time>2018-10-04T08:34:36Z</time>
      </trkpt>
      <trkpt lat="38.3327630" lon="-0.6935960">
        <ele>284.9</ele>
        <time>2018-10-04T08:34:37Z</time>
      </trkpt>
      <trkpt lat="38.3326700" lon="-0.6935890">
        <ele>284.1</ele>
        <time>2018-10-04T08:34:38Z</time>
      </trkpt>
      <trkpt lat="38.3325760" lon="-0.6935740">
        <ele>283.1</ele>
        <time>2018-10-04T08:34:39Z</time>
      </trkpt>
      <trkpt lat="38.3324780" lon="-0.6935510">
        <ele>282.0</ele>
        <time>2018-10-04T08:34:40Z</time>
      </trkpt>
      <trkpt lat="38.3323760" lon="-0.6935260">
        <ele>281.0</ele>
        <time>2018-10-04T08:34:41Z</time>
      </trkpt>
      <trkpt lat="38.3322690" lon="-0.6935010">
        <ele>279.7</ele>
        <time>2018-10-04T08:34:42Z</time>
      </trkpt>
      <trkpt lat="38.3321700" lon="-0.6934800">
        <ele>278.7</ele>
        <time>2018-10-04T08:34:43Z</time>
      </trkpt>
      <trkpt lat="38.3320860" lon="-0.6934650">
        <ele>277.8</ele>
        <time>2018-10-04T08:34:44Z</time>
      </trkpt>
      <trkpt lat="38.3320160" lon="-0.6934490">
        <ele>277.1</ele>
        <time>2018-10-04T08:34:45Z</time>
      </trkpt>
      <trkpt lat="38.3319570" lon="-0.6934280">
        <ele>276.5</ele>
        <time>2018-10-04T08:34:46Z</time>
      </trkpt>
      <trkpt lat="38.3319100" lon="-0.6934020">
        <ele>276.0</ele>
        <time>2018-10-04T08:34:47Z</time>
      </trkpt>
      <trkpt lat="38.3318720" lon="-0.6933850">
        <ele>275.6</ele>
        <time>2018-10-04T08:34:48Z</time>
      </trkpt>
      <trkpt lat="38.3318410" lon="-0.6933840">
        <ele>275.0</ele>
        <time>2018-10-04T08:34:49Z</time>
      </trkpt>
      <trkpt lat="38.3318120" lon="-0.6933930">
        <ele>275.0</ele>
        <time>2018-10-04T08:34:50Z</time>
      </trkpt>
      <trkpt lat="38.3317940" lon="-0.6934170">
        <ele>275.0</ele>
        <time>2018-10-04T08:34:51Z</time>
      </trkpt>
      <trkpt lat="38.3317990" lon="-0.6934540">
        <ele>275.0</ele>
        <time>2018-10-04T08:34:52Z</time>
      </trkpt>
      <trkpt lat="38.3318080" lon="-0.6934940">
        <ele>275.0</ele>
        <time>2018-10-04T08:34:53Z</time>
      </trkpt>
      <trkpt lat="38.3318160" lon="-0.6935390">
        <ele>275.0</ele>
        <time>2018-10-04T08:34:54Z</time>
      </trkpt>
      <trkpt lat="38.3318220" lon="-0.6935860">
        <ele>275.0</ele>
        <time>2018-10-04T08:34:55Z</time>
      </trkpt>
      <trkpt lat="38.3318240" lon="-0.6936350">
        <ele>274.5</ele>
        <time>2018-10-04T08:34:56Z</time>
      </trkpt>
      <trkpt lat="38.3318260" lon="-0.6936900">
        <ele>273.7</ele>
        <time>2018-10-04T08:34:57Z</time>
      </trkpt>
      <trkpt lat="38.3318300" lon="-0.6937550">
        <ele>272.9</ele>
        <time>2018-10-04T08:34:58Z</time>
      </trkpt>
      <trkpt lat="38.3318320" lon="-0.6938270">
        <ele>272.0</ele>
        <time>2018-10-04T08:34:59Z</time>
      </trkpt>
      <trkpt lat="38.3318370" lon="-0.6938970">
        <ele>271.3</ele>
        <time>2018-10-04T08:35:00Z</time>
      </trkpt>
      <trkpt lat="38.3318430" lon="-0.6939680">
        <ele>270.7</ele>
        <time>2018-10-04T08:35:01Z</time>
      </trkpt>
      <trkpt lat="38.3318480" lon="-0.6940410">
        <ele>270.1</ele>
        <time>2018-10-04T08:35:02Z</time>
      </trkpt>
      <trkpt lat="38.3318570" lon="-0.6941130">
        <ele>269.6</ele>
        <time>2018-10-04T08:35:03Z</time>
      </trkpt>
      <trkpt lat="38.3318670" lon="-0.6941860">
        <ele>269.2</ele>
        <time>2018-10-04T08:35:04Z</time>
      </trkpt>
      <trkpt lat="38.3318800" lon="-0.6942600">
        <ele>268.9</ele>
        <time>2018-10-04T08:35:05Z</time>
      </trkpt>
      <trkpt lat="38.3319080" lon="-0.6943350">
        <ele>268.7</ele>
        <time>2018-10-04T08:35:06Z</time>
      </trkpt>
      <trkpt lat="38.3319330" lon="-0.6944080">
        <ele>268.5</ele>
        <time>2018-10-04T08:35:07Z</time>
      </trkpt>
      <trkpt lat="38.3319610" lon="-0.6944800">
        <ele>268.4</ele>
        <time>2018-10-04T08:35:08Z</time>
      </trkpt>
      <trkpt lat="38.3319940" lon="-0.6945520">
        <ele>268.3</ele>
        <time>2018-10-04T08:35:09Z</time>
      </trkpt>
      <trkpt lat="38.3320320" lon="-0.6946240">
        <ele>268.3</ele>
        <time>2018-10-04T08:35:10Z</time>
      </trkpt>
      <trkpt lat="38.3320750" lon="-0.6946950">
        <ele>268.2</ele>
        <time>2018-10-04T08:35:11Z</time>
      </trkpt>
      <trkpt lat="38.3321200" lon="-0.6947610">
        <ele>268.1</ele>
        <time>2018-10-04T08:35:12Z</time>
      </trkpt>
      <trkpt lat="38.3321690" lon="-0.6948250">
        <ele>268.0</ele>
        <time>2018-10-04T08:35:13Z</time>
      </trkpt>
      <trkpt lat="38.3322210" lon="-0.6948850">
        <ele>268.0</ele>
        <time>2018-10-04T08:35:14Z</time>
      </trkpt>
      <trkpt lat="38.3322770" lon="-0.6949420">
        <ele>267.9</ele>
        <time>2018-10-04T08:35:15Z</time>
      </trkpt>
      <trkpt lat="38.3323360" lon="-0.6949940">
        <ele>267.8</ele>
        <time>2018-10-04T08:35:16Z</time>
      </trkpt>
      <trkpt lat="38.3323960" lon="-0.6950460">
        <ele>267.7</ele>
        <time>2018-10-04T08:35:17Z</time>
      </trkpt>
      <trkpt lat="38.3324560" lon="-0.6950990">
        <ele>267.7</ele>
        <time>2018-10-04T08:35:18Z</time>
      </trkpt>
      <trkpt lat="38.3325170" lon="-0.6951520">
        <ele>267.6</ele>
        <time>2018-10-04T08:35:19Z</time>
      </trkpt>
      <trkpt lat="38.3325780" lon="-0.6952060">
        <ele>267.5</ele>
        <time>2018-10-04T08:35:20Z</time>
      </trkpt>
      <trkpt lat="38.3326400" lon="-0.6952600">
        <ele>267.4</ele>
        <time>2018-10-04T08:35:21Z</time>
      </trkpt>
      <trkpt lat="38.3327010" lon="-0.6953140">
        <ele>267.4</ele>
        <time>2018-10-04T08:35:22Z</time>
      </trkpt>
      <trkpt lat="38.3327630" lon="-0.6953670">
        <ele>267.3</ele>
        <time>2018-10-04T08:35:23Z</time>
      </trkpt>
      <trkpt lat="38.3328250" lon="-0.6954210">
        <ele>267.2</ele>
        <time>2018-10-04T08:35:24Z</time>
      </trkpt>
      <trkpt lat="38.3328880" lon="-0.6954760">
        <ele>267.1</ele>
        <time>2018-10-04T08:35:25Z</time>
      </trkpt>
      <trkpt lat="38.3329500" lon="-0.6955310">
        <ele>266.9</ele>
        <time>2018-10-04T08:35:26Z</time>
      </trkpt>
      <trkpt lat="38.3330130" lon="-0.6955860">
        <ele>266.7</ele>
        <time>2018-10-04T08:35:27Z</time>
      </trkpt>
      <trkpt lat="38.3330740" lon="-0.6956420">
        <ele>266.5</ele>
        <time>2018-10-04T08:35:28Z</time>
      </trkpt>
      <trkpt lat="38.3331360" lon="-0.6956980">
        <ele>266.2</ele>
        <time>2018-10-04T08:35:29Z</time>
      </trkpt>
      <trkpt lat="38.3331970" lon="-0.6957540">
        <ele>265.8</ele>
        <time>2018-10-04T08:35:30Z</time>
      </trkpt>
      <trkpt lat="38.3332580" lon="-0.6958090">
        <ele>265.4</ele>
        <time>2018-10-04T08:35:31Z</time>
      </trkpt>
      <trkpt lat="38.3333180" lon="-0.6958660">
        <ele>265.1</ele>
        <time>2018-10-04T08:35:32Z</time>
      </trkpt>
      <trkpt lat="38.3333800" lon="-0.6959220">
        <ele>264.7</ele>
        <time>2018-10-04T08:35:33Z</time>
      </trkpt>
      <trkpt lat="38.3334420" lon="-0.6959770">
        <ele>264.5</ele>
        <time>2018-10-04T08:35:34Z</time>
      </trkpt>
      <trkpt lat="38.3335030" lon="-0.6960330">
        <ele>264.3</ele>
        <time>2018-10-04T08:35:35Z</time>
      </trkpt>
      <trkpt lat="38.3335640" lon="-0.6960870">
        <ele>264.1</ele>
        <time>2018-10-04T08:35:36Z</time>
      </trkpt>
      <trkpt lat="38.3336250" lon="-0.6961390">
        <ele>264.0</ele>
        <time>2018-10-04T08:35:37Z</time>
      </trkpt>
      <trkpt lat="38.3336870" lon="-0.6961920">
        <ele>263.9</ele>
        <time>2018-10-04T08:35:38Z</time>
      </trkpt>
      <trkpt lat="38.3337480" lon="-0.6962460">
        <ele>263.8</ele>
        <time>2018-10-04T08:35:39Z</time>
      </trkpt>
      <trkpt lat="38.3338090" lon="-0.6963010">
        <ele>263.7</ele>
        <time>2018-10-04T08:35:40Z</time>
      </trkpt>
      <trkpt lat="38.3338680" lon="-0.6963580">
        <ele>263.6</ele>
        <time>2018-10-04T08:35:41Z</time>
      </trkpt>
      <trkpt lat="38.3339220" lon="-0.6964200">
        <ele>263.5</ele>
        <time>2018-10-04T08:35:42Z</time>
      </trkpt>
      <trkpt lat="38.3339780" lon="-0.6964820">
        <ele>263.4</ele>
        <time>2018-10-04T08:35:43Z</time>
      </trkpt>
      <trkpt lat="38.3340300" lon="-0.6965480">
        <ele>263.3</ele>
        <time>2018-10-04T08:35:44Z</time>
      </trkpt>
      <trkpt lat="38.3340810" lon="-0.6966170">
        <ele>263.2</ele>
        <time>2018-10-04T08:35:45Z</time>
      </trkpt>
      <trkpt lat="38.3341290" lon="-0.6966900">
        <ele>263.0</ele>
        <time>2018-10-04T08:35:46Z</time>
      </trkpt>
      <trkpt lat="38.3341740" lon="-0.6967670">
        <ele>263.5</ele>
        <time>2018-10-04T08:35:47Z</time>
      </trkpt>
      <trkpt lat="38.3342150" lon="-0.6968480">
        <ele>263.9</ele>
        <time>2018-10-04T08:35:48Z</time>
      </trkpt>
      <trkpt lat="38.3342560" lon="-0.6969310">
        <ele>264.2</ele>
        <time>2018-10-04T08:35:49Z</time>
      </trkpt>
      <trkpt lat="38.3342940" lon="-0.6970170">
        <ele>264.5</ele>
        <time>2018-10-04T08:35:50Z</time>
      </trkpt>
      <trkpt lat="38.3343330" lon="-0.6971040">
        <ele>264.6</ele>
        <time>2018-10-04T08:35:51Z</time>
      </trkpt>
      <trkpt lat="38.3343720" lon="-0.6971930">
        <ele>264.8</ele>
        <time>2018-10-04T08:35:52Z</time>
      </trkpt>
      <trkpt lat="38.3344120" lon="-0.6972830">
        <ele>264.9</ele>
        <time>2018-10-04T08:35:53Z</time>
      </trkpt>
      <trkpt lat="38.3344520" lon="-0.6973740">
        <ele>265.0</ele>
        <time>2018-10-04T08:35:54Z</time>
      </trkpt>
      <trkpt lat="38.3344930" lon="-0.6974670">
        <ele>263.4</ele>
        <time>2018-10-04T08:35:55Z</time>
      </trkpt>
      <trkpt lat="38.3345350" lon="-0.6975610">
        <ele>262.5</ele>
        <time>2018-10-04T08:35:56Z</time>
      </trkpt>
      <trkpt lat="38.3345800" lon="-0.6976520">
        <ele>261.7</ele>
        <time>2018-10-04T08:35:57Z</time>
      </trkpt>
      <trkpt lat="38.3346250" lon="-0.6977460">
        <ele>260.9</ele>
        <time>2018-10-04T08:35:58Z</time>
      </trkpt>
      <trkpt lat="38.3346670" lon="-0.6978440">
        <ele>260.1</ele>
        <time>2018-10-04T08:35:59Z</time>
      </trkpt>
      <trkpt lat="38.3347020" lon="-0.6979450">
        <ele>259.3</ele>
        <time>2018-10-04T08:36:00Z</time>
      </trkpt>
      <trkpt lat="38.3347320" lon="-0.6980500">
        <ele>258.7</ele>
        <time>2018-10-04T08:36:01Z</time>
      </trkpt>
      <trkpt lat="38.3347570" lon="-0.6981590">
        <ele>258.0</ele>
        <time>2018-10-04T08:36:02Z</time>
      </trkpt>
      <trkpt lat="38.3347760" lon="-0.6982700">
        <ele>257.5</ele>
        <time>2018-10-04T08:36:03Z</time>
      </trkpt>
      <trkpt lat="38.3347910" lon="-0.6983830">
        <ele>257.0</ele>
        <time>2018-10-04T08:36:04Z</time>
      </trkpt>
      <trkpt lat="38.3348020" lon="-0.6984980">
        <ele>256.4</ele>
        <time>2018-10-04T08:36:05Z</time>
      </trkpt>
      <trkpt lat="38.3348080" lon="-0.6986140">
        <ele>255.9</ele>
        <time>2018-10-04T08:36:06Z</time>
      </trkpt>
      <trkpt lat="38.3348120" lon="-0.6987310">
        <ele>255.4</ele>
        <time>2018-10-04T08:36:07Z</time>
      </trkpt>
      <trkpt lat="38.3348150" lon="-0.6988480">
        <ele>254.8</ele>
        <time>2018-10-04T08:36:08Z</time>
      </trkpt>
      <trkpt lat="38.3348190" lon="-0.6989650">
        <ele>254.1</ele>
        <time>2018-10-04T08:36:09Z</time>
      </trkpt>
      <trkpt lat="38.3348220" lon="-0.6990830">
        <ele>253.3</ele>
        <time>2018-10-04T08:36:10Z</time>
      </trkpt>
      <trkpt lat="38.3348260" lon="-0.6992020">
        <ele>252.5</ele>
        <time>2018-10-04T08:36:11Z</time>
      </trkpt>
      <trkpt lat="38.3348300" lon="-0.6993200">
        <ele>251.7</ele>
        <time>2018-10-04T08:36:12Z</time>
      </trkpt>
      <trkpt lat="38.3348340" lon="-0.6994370">
        <ele>250.9</ele>
        <time>2018-10-04T08:36:13Z</time>
      </trkpt>
      <trkpt lat="38.3348390" lon="-0.6995540">
        <ele>250.5</ele>
        <time>2018-10-04T08:36:14Z</time>
      </trkpt>
      <trkpt lat="38.3348420" lon="-0.6996710">
        <ele>250.1</ele>
        <time>2018-10-04T08:36:15Z</time>
      </trkpt>
      <trkpt lat="38.3348470" lon="-0.6997880">
        <ele>249.6</ele>
        <time>2018-10-04T08:36:16Z</time>
      </trkpt>
      <trkpt lat="38.3348510" lon="-0.6999040">
        <ele>249.2</ele>
        <time>2018-10-04T08:36:17Z</time>
      </trkpt>
      <trkpt lat="38.3348560" lon="-0.7000200">
        <ele>248.8</ele>
        <time>2018-10-04T08:36:18Z</time>
      </trkpt>
      <trkpt lat="38.3348590" lon="-0.7001350">
        <ele>248.5</ele>
        <time>2018-10-04T08:36:19Z</time>
      </trkpt>
      <trkpt lat="38.3348620" lon="-0.7002500">
        <ele>248.1</ele>
        <time>2018-10-04T08:36:20Z</time>
      </trkpt>
      <trkpt lat="38.3348650" lon="-0.7003650">
        <ele>247.7</ele>
        <time>2018-10-04T08:36:21Z</time>
      </trkpt>
      <trkpt lat="38.3348690" lon="-0.7004780">
        <ele>247.3</ele>
        <time>2018-10-04T08:36:22Z</time>
      </trkpt>
      <trkpt lat="38.3348710" lon="-0.7005920">
        <ele>246.9</ele>
        <time>2018-10-04T08:36:23Z</time>
      </trkpt>
      <trkpt lat="38.3348740" lon="-0.7007050">
        <ele>246.5</ele>
        <time>2018-10-04T08:36:24Z</time>
      </trkpt>
      <trkpt lat="38.3348770" lon="-0.7008180">
        <ele>246.1</ele>
        <time>2018-10-04T08:36:25Z</time>
      </trkpt>
      <trkpt lat="38.3348820" lon="-0.7009300">
        <ele>245.8</ele>
        <time>2018-10-04T08:36:26Z</time>
      </trkpt>
      <trkpt lat="38.3348860" lon="-0.7010420">
        <ele>245.4</ele>
        <time>2018-10-04T08:36:27Z</time>
      </trkpt>
      <trkpt lat="38.3348900" lon="-0.7011540">
        <ele>245.0</ele>
        <time>2018-10-04T08:36:28Z</time>
      </trkpt>
      <trkpt lat="38.3348940" lon="-0.7012660">
        <ele>244.6</ele>
        <time>2018-10-04T08:36:29Z</time>
      </trkpt>
      <trkpt lat="38.3348990" lon="-0.7013770">
        <ele>244.2</ele>
        <time>2018-10-04T08:36:30Z</time>
      </trkpt>
      <trkpt lat="38.3349050" lon="-0.7014880">
        <ele>243.8</ele>
        <time>2018-10-04T08:36:31Z</time>
      </trkpt>
      <trkpt lat="38.3349130" lon="-0.7015980">
        <ele>243.5</ele>
        <time>2018-10-04T08:36:32Z</time>
      </trkpt>
      <trkpt lat="38.3349210" lon="-0.7017090">
        <ele>243.2</ele>
        <time>2018-10-04T08:36:33Z</time>
      </trkpt>
      <trkpt lat="38.3349310" lon="-0.7018180">
        <ele>242.9</ele>
        <time>2018-10-04T08:36:34Z</time>
      </trkpt>
      <trkpt lat="38.3349450" lon="-0.7019260">
        <ele>242.7</ele>
        <time>2018-10-04T08:36:35Z</time>
      </trkpt>
      <trkpt lat="38.3349650" lon="-0.7020320">
        <ele>242.5</ele>
        <time>2018-10-04T08:36:36Z</time>
      </trkpt>
      <trkpt lat="38.3349900" lon="-0.7021350">
        <ele>242.3</ele>
        <time>2018-10-04T08:36:37Z</time>
      </trkpt>
      <trkpt lat="38.3350210" lon="-0.7022360">
        <ele>242.1</ele>
        <time>2018-10-04T08:36:38Z</time>
      </trkpt>
      <trkpt lat="38.3350560" lon="-0.7023340">
        <ele>241.9</ele>
        <time>2018-10-04T08:36:39Z</time>
      </trkpt>
      <trkpt lat="38.3350980" lon="-0.7024300">
        <ele>241.7</ele>
        <time>2018-10-04T08:36:40Z</time>
      </trkpt>
      <trkpt lat="38.3351440" lon="-0.7025240">
        <ele>241.3</ele>
        <time>2018-10-04T08:36:41Z</time>
      </trkpt>
      <trkpt lat="38.3351910" lon="-0.7026170">
        <ele>241.0</ele>
        <time>2018-10-04T08:36:42Z</time>
      </trkpt>
      <trkpt lat="38.3352400" lon="-0.7027080">
        <ele>240.6</ele>
        <time>2018-10-04T08:36:43Z</time>
      </trkpt>
      <trkpt lat="38.3352930" lon="-0.7027950">
        <ele>240.1</ele>
        <time>2018-10-04T08:36:44Z</time>
      </trkpt>
      <trkpt lat="38.3353470" lon="-0.7028810">
        <ele>239.6</ele>
        <time>2018-10-04T08:36:45Z</time>
      </trkpt>
      <trkpt lat="38.3354010" lon="-0.7029660">
        <ele>239.2</ele>
        <time>2018-10-04T08:36:46Z</time>
      </trkpt>
      <trkpt lat="38.3354540" lon="-0.7030510">
        <ele>238.7</ele>
        <time>2018-10-04T08:36:47Z</time>
      </trkpt>
      <trkpt lat="38.3355060" lon="-0.7031380">
        <ele>238.3</ele>
        <time>2018-10-04T08:36:48Z</time>
      </trkpt>
      <trkpt lat="38.3355590" lon="-0.7032250">
        <ele>237.9</ele>
        <time>2018-10-04T08:36:49Z</time>
      </trkpt>
      <trkpt lat="38.3356110" lon="-0.7033120">
        <ele>237.5</ele>
        <time>2018-10-04T08:36:50Z</time>
      </trkpt>
      <trkpt lat="38.3356640" lon="-0.7033990">
        <ele>237.1</ele>
        <time>2018-10-04T08:36:51Z</time>
      </trkpt>
      <trkpt lat="38.3357160" lon="-0.7034870">
        <ele>236.8</ele>
        <time>2018-10-04T08:36:52Z</time>
      </trkpt>
      <trkpt lat="38.3357640" lon="-0.7035770">
        <ele>236.5</ele>
        <time>2018-10-04T08:36:53Z</time>
      </trkpt>
      <trkpt lat="38.3358040" lon="-0.7036810">
        <ele>236.1</ele>
        <time>2018-10-04T08:36:54Z</time>
      </trkpt>
      <trkpt lat="38.3358370" lon="-0.7037860">
        <ele>235.7</ele>
        <time>2018-10-04T08:36:55Z</time>
      </trkpt>
      <trkpt lat="38.3358660" lon="-0.7038950">
        <ele>235.3</ele>
        <time>2018-10-04T08:36:56Z</time>
      </trkpt>
      <trkpt lat="38.3358890" lon="-0.7040100">
        <ele>234.8</ele>
        <time>2018-10-04T08:36:57Z</time>
      </trkpt>
      <trkpt lat="38.3359040" lon="-0.7041290">
        <ele>234.3</ele>
        <time>2018-10-04T08:36:58Z</time>
      </trkpt>
      <trkpt lat="38.3359100" lon="-0.7042520">
        <ele>233.8</ele>
        <time>2018-10-04T08:36:59Z</time>
      </trkpt>
      <trkpt lat="38.3359070" lon="-0.7043780">
        <ele>233.3</ele>
        <time>2018-10-04T08:37:00Z</time>
      </trkpt>
      <trkpt lat="38.3358950" lon="-0.7045060">
        <ele>232.7</ele>
        <time>2018-10-04T08:37:01Z</time>
      </trkpt>
      <trkpt lat="38.3358760" lon="-0.7046390">
        <ele>232.1</ele>
        <time>2018-10-04T08:37:02Z</time>
      </trkpt>
      <trkpt lat="38.3358500" lon="-0.7047730">
        <ele>231.5</ele>
        <time>2018-10-04T08:37:03Z</time>
      </trkpt>
      <trkpt lat="38.3358180" lon="-0.7049100">
        <ele>231.0</ele>
        <time>2018-10-04T08:37:04Z</time>
      </trkpt>
      <trkpt lat="38.3357840" lon="-0.7050510">
        <ele>230.7</ele>
        <time>2018-10-04T08:37:05Z</time>
      </trkpt>
      <trkpt lat="38.3357500" lon="-0.7051950">
        <ele>230.3</ele>
        <time>2018-10-04T08:37:06Z</time>
      </trkpt>
      <trkpt lat="38.3357130" lon="-0.7053400">
        <ele>229.5</ele>
        <time>2018-10-04T08:37:07Z</time>
      </trkpt>
      <trkpt lat="38.3356780" lon="-0.7054850">
        <ele>228.4</ele>
        <time>2018-10-04T08:37:08Z</time>
      </trkpt>
      <trkpt lat="38.3356530" lon="-0.7056300">
        <ele>227.0</ele>
        <time>2018-10-04T08:37:09Z</time>
      </trkpt>
      <trkpt lat="38.3356340" lon="-0.7057660">
        <ele>227.0</ele>
        <time>2018-10-04T08:37:10Z</time>
      </trkpt>
      <trkpt lat="38.3356050" lon="-0.7058790">
        <ele>227.0</ele>
        <time>2018-10-04T08:37:11Z</time>
      </trkpt>
      <trkpt lat="38.3355560" lon="-0.7059610">
        <ele>227.0</ele>
        <time>2018-10-04T08:37:12Z</time>
      </trkpt>
      <trkpt lat="38.3354860" lon="-0.7060170">
        <ele>227.0</ele>
        <time>2018-10-04T08:37:13Z</time>
      </trkpt>
      <trkpt lat="38.3354070" lon="-0.7060450">
        <ele>227.0</ele>
        <time>2018-10-04T08:37:14Z</time>
      </trkpt>
      <trkpt lat="38.3353310" lon="-0.7060750">
        <ele>227.0</ele>
        <time>2018-10-04T08:37:15Z</time>
      </trkpt>
      <trkpt lat="38.3352570" lon="-0.7061050">
        <ele>227.0</ele>
        <time>2018-10-04T08:37:16Z</time>
      </trkpt>
      <trkpt lat="38.3351860" lon="-0.7061400">
        <ele>230.5</ele>
        <time>2018-10-04T08:37:17Z</time>
      </trkpt>
      <trkpt lat="38.3351160" lon="-0.7061760">
        <ele>232.0</ele>
        <time>2018-10-04T08:37:18Z</time>
      </trkpt>
      <trkpt lat="38.3350500" lon="-0.7062120">
        <ele>233.3</ele>
        <time>2018-10-04T08:37:19Z</time>
      </trkpt>
      <trkpt lat="38.3349870" lon="-0.7062430">
        <ele>234.5</ele>
        <time>2018-10-04T08:37:20Z</time>
      </trkpt>
      <trkpt lat="38.3349330" lon="-0.7062680">
        <ele>235.4</ele>
        <time>2018-10-04T08:37:21Z</time>
      </trkpt>
      <trkpt lat="38.3348900" lon="-0.7062840">
        <ele>236.2</ele>
        <time>2018-10-04T08:37:22Z</time>
      </trkpt>
      <trkpt lat="38.3348590" lon="-0.7062920">
        <ele>236.8</ele>
        <time>2018-10-04T08:37:23Z</time>
      </trkpt>
      <trkpt lat="38.3348300" lon="-0.7062980">
        <ele>237.3</ele>
        <time>2018-10-04T08:37:24Z</time>
      </trkpt>
      <trkpt lat="38.3348030" lon="-0.7063030">
        <ele>237.8</ele>
        <time>2018-10-04T08:37:25Z</time>
      </trkpt>
      <trkpt lat="38.3347760" lon="-0.7063110">
        <ele>238.2</ele>
        <time>2018-10-04T08:37:26Z</time>
      </trkpt>
      <trkpt lat="38.3347480" lon="-0.7063200">
        <ele>238.8</ele>
        <time>2018-10-04T08:37:27Z</time>
      </trkpt>
      <trkpt lat="38.3347170" lon="-0.7063310">
        <ele>239.5</ele>
        <time>2018-10-04T08:37:28Z</time>
      </trkpt>
      <trkpt lat="38.3346850" lon="-0.7063410">
        <ele>240.1</ele>
        <time>2018-10-04T08:37:29Z</time>
      </trkpt>
      <trkpt lat="38.3346500" lon="-0.7063550">
        <ele>240.9</ele>
        <time>2018-10-04T08:37:30Z</time>
      </trkpt>
      <trkpt lat="38.3346130" lon="-0.7063670">
        <ele>241.8</ele>
        <time>2018-10-04T08:37:31Z</time>
      </trkpt>
      <trkpt lat="38.3345740" lon="-0.7063790">
        <ele>242.7</ele>
        <time>2018-10-04T08:37:32Z</time>
      </trkpt>
      <trkpt lat="38.3345350" lon="-0.7063900">
        <ele>244.0</ele>
        <time>2018-10-04T08:37:33Z</time>
      </trkpt>
      <trkpt lat="38.3344950" lon="-0.7064000">
        <ele>244.0</ele>
        <time>2018-10-04T08:37:34Z</time>
      </trkpt>
      <trkpt lat="38.3344560" lon="-0.7064100">
        <ele>244.0</ele>
        <time>2018-10-04T08:37:35Z</time>
      </trkpt>
      <trkpt lat="38.3344170" lon="-0.7064200">
        <ele>244.0</ele>
        <time>2018-10-04T08:37:36Z</time>
      </trkpt>
      <trkpt lat="38.3343770" lon="-0.7064300">
        <ele>244.0</ele>
        <time>2018-10-04T08:37:37Z</time>
      </trkpt>
      <trkpt lat="38.3343380" lon="-0.7064400">
        <ele>244.0</ele>
        <time>2018-10-04T08:37:38Z</time>
      </trkpt>
      <trkpt lat="38.3342980" lon="-0.7064510">
        <ele>244.0</ele>
        <time>2018-10-04T08:37:39Z</time>
      </trkpt>
      <trkpt lat="38.3342600" lon="-0.7064620">
        <ele>244.0</ele>
        <time>2018-10-04T08:37:40Z</time>
      </trkpt>
      <trkpt lat="38.3342210" lon="-0.7064730">
        <ele>244.0</ele>
        <time>2018-10-04T08:37:41Z</time>
      </trkpt>
      <trkpt lat="38.3341820" lon="-0.7064830">
        <ele>244.0</ele>
        <time>2018-10-04T08:37:42Z</time>
      </trkpt>
      <trkpt lat="38.3341430" lon="-0.7064910">
        <ele>244.0</ele>
        <time>2018-10-04T08:37:43Z</time>
      </trkpt>
      <trkpt lat="38.3341060" lon="-0.7065010">
        <ele>244.0</ele>
        <time>2018-10-04T08:37:44Z</time>
      </trkpt>
      <trkpt lat="38.3340690" lon="-0.7065100">
        <ele>244.3</ele>
        <time>2018-10-04T08:37:45Z</time>
      </trkpt>
      <trkpt lat="38.3340320" lon="-0.7065180">
        <ele>244.7</ele>
        <time>2018-10-04T08:37:46Z</time>
      </trkpt>
      <trkpt lat="38.3339970" lon="-0.7065280">
        <ele>245.0</ele>
        <time>2018-10-04T08:37:47Z</time>
      </trkpt>
      <trkpt lat="38.3339620" lon="-0.7065390">
        <ele>245.4</ele>
        <time>2018-10-04T08:37:48Z</time>
      </trkpt>
      <trkpt lat="38.3339270" lon="-0.7065500">
        <ele>245.7</ele>
        <time>2018-10-04T08:37:49Z</time>
      </trkpt>
      <trkpt lat="38.3338920" lon="-0.7065600">
        <ele>246.1</ele>
        <time>2018-10-04T08:37:50Z</time>
      </trkpt>
      <trkpt lat="38.3338570" lon="-0.7065680">
        <ele>246.4</ele>
        <time>2018-10-04T08:37:51Z</time>
      </trkpt>
      <trkpt lat="38.3338230" lon="-0.7065780">
        <ele>246.8</ele>
        <time>2018-10-04T08:37:52Z</time>
      </trkpt>
      <trkpt lat="38.3337870" lon="-0.7065880">
        <ele>247.1</ele>
        <time>2018-10-04T08:37:53Z</time>
      </trkpt>
      <trkpt lat="38.3337520" lon="-0.7065960">
        <ele>247.5</ele>
        <time>2018-10-04T08:37:54Z</time>
      </trkpt>
      <trkpt lat="38.3337170" lon="-0.7066040">
        <ele>247.7</ele>
        <time>2018-10-04T08:37:55Z</time>
      </trkpt>
      <trkpt lat="38.3336820" lon="-0.7066090">
        <ele>248.0</ele>
        <time>2018-10-04T08:37:56Z</time>
      </trkpt>
      <trkpt lat="38.3336470" lon="-0.7066150">
        <ele>248.3</ele>
        <time>2018-10-04T08:37:57Z</time>
      </trkpt>
      <trkpt lat="38.3336120" lon="-0.7066250">
        <ele>248.6</ele>
        <time>2018-10-04T08:37:58Z</time>
      </trkpt>
      <trkpt lat="38.3335800" lon="-0.7066360">
        <ele>248.9</ele>
        <time>2018-10-04T08:37:59Z</time>
      </trkpt>
      <trkpt lat="38.3335480" lon="-0.7066450">
        <ele>249.2</ele>
        <time>2018-10-04T08:38:00Z</time>
      </trkpt>
      <trkpt lat="38.3335160" lon="-0.7066530">
        <ele>249.5</ele>
        <time>2018-10-04T08:38:01Z</time>
      </trkpt>
      <trkpt lat="38.3334840" lon="-0.7066590">
        <ele>249.8</ele>
        <time>2018-10-04T08:38:02Z</time>
      </trkpt>
      <trkpt lat="38.3334530" lon="-0.7066650">
        <ele>250.1</ele>
        <time>2018-10-04T08:38:03Z</time>
      </trkpt>
      <trkpt lat="38.3334230" lon="-0.7066700">
        <ele>250.3</ele>
        <time>2018-10-04T08:38:04Z</time>
      </trkpt>
      <trkpt lat="38.3333920" lon="-0.7066710">
        <ele>250.6</ele>
        <time>2018-10-04T08:38:05Z</time>
      </trkpt>
      <trkpt lat="38.3333610" lon="-0.7066730">
        <ele>250.9</ele>
        <time>2018-10-04T08:38:06Z</time>
      </trkpt>
      <trkpt lat="38.3333300" lon="-0.7066750">
        <ele>251.2</ele>
        <time>2018-10-04T08:38:07Z</time>
      </trkpt>
      <trkpt lat="38.3332990" lon="-0.7066740">
        <ele>251.5</ele>
        <time>2018-10-04T08:38:08Z</time>
      </trkpt>
      <trkpt lat="38.3332670" lon="-0.7066730">
        <ele>251.8</ele>
        <time>2018-10-04T08:38:09Z</time>
      </trkpt>
      <trkpt lat="38.3332370" lon="-0.7066700">
        <ele>252.0</ele>
        <time>2018-10-04T08:38:10Z</time>
      </trkpt>
      <trkpt lat="38.3332050" lon="-0.7066670">
        <ele>252.3</ele>
        <time>2018-10-04T08:38:11Z</time>
      </trkpt>
      <trkpt lat="38.3331740" lon="-0.7066650">
        <ele>252.5</ele>
        <time>2018-10-04T08:38:12Z</time>
      </trkpt>
      <trkpt lat="38.3331420" lon="-0.7066610">
        <ele>252.8</ele>
        <time>2018-10-04T08:38:13Z</time>
      </trkpt>
      <trkpt lat="38.3331100" lon="-0.7066580">
        <ele>253.0</ele>
        <time>2018-10-04T08:38:14Z</time>
      </trkpt>
      <trkpt lat="38.3330790" lon="-0.7066510">
        <ele>253.2</ele>
        <time>2018-10-04T08:38:15Z</time>
      </trkpt>
      <trkpt lat="38.3330480" lon="-0.7066440">
        <ele>253.4</ele>
        <time>2018-10-04T08:38:16Z</time>
      </trkpt>
      <trkpt lat="38.3330180" lon="-0.7066360">
        <ele>253.6</ele>
        <time>2018-10-04T08:38:17Z</time>
      </trkpt>
      <trkpt lat="38.3329870" lon="-0.7066280">
        <ele>253.9</ele>
        <time>2018-10-04T08:38:18Z</time>
      </trkpt>
      <trkpt lat="38.3329570" lon="-0.7066180">
        <ele>254.1</ele>
        <time>2018-10-04T08:38:19Z</time>
      </trkpt>
      <trkpt lat="38.3329260" lon="-0.7066060">
        <ele>254.4</ele>
        <time>2018-10-04T08:38:20Z</time>
      </trkpt>
      <trkpt lat="38.3328940" lon="-0.7065940">
        <ele>254.7</ele>
        <time>2018-10-04T08:38:21Z</time>
      </trkpt>
      <trkpt lat="38.3328630" lon="-0.7065800">
        <ele>255.0</ele>
        <time>2018-10-04T08:38:22Z</time>
      </trkpt>
      <trkpt lat="38.3328330" lon="-0.7065640">
        <ele>255.3</ele>
        <time>2018-10-04T08:38:23Z</time>
      </trkpt>
      <trkpt lat="38.3328030" lon="-0.7065490">
        <ele>255.6</ele>
        <time>2018-10-04T08:38:24Z</time>
      </trkpt>
      <trkpt lat="38.3327740" lon="-0.7065330">
        <ele>255.9</ele>
        <time>2018-10-04T08:38:25Z</time>
      </trkpt>
      <trkpt lat="38.3327450" lon="-0.7065180">
        <ele>256.1</ele>
        <time>2018-10-04T08:38:26Z</time>
      </trkpt>
      <trkpt lat="38.3327150" lon="-0.7065050">
        <ele>256.4</ele>
        <time>2018-10-04T08:38:27Z</time>
      </trkpt>
      <trkpt lat="38.3326860" lon="-0.7064910">
        <ele>256.7</ele>
        <time>2018-10-04T08:38:28Z</time>
      </trkpt>
      <trkpt lat="38.3326560" lon="-0.7064750">
        <ele>257.0</ele>
        <time>2018-10-04T08:38:29Z</time>
      </trkpt>
      <trkpt lat="38.3326260" lon="-0.7064570">
        <ele>257.3</ele>
        <time>2018-10-04T08:38:30Z</time>
      </trkpt>
      <trkpt lat="38.3325980" lon="-0.7064380">
        <ele>257.6</ele>
        <time>2018-10-04T08:38:31Z</time>
      </trkpt>
      <trkpt lat="38.3325710" lon="-0.7064160">
        <ele>257.8</ele>
        <time>2018-10-04T08:38:32Z</time>
      </trkpt>
      <trkpt lat="38.3325450" lon="-0.7063940">
        <ele>258.1</ele>
        <time>2018-10-04T08:38:33Z</time>
      </trkpt>
      <trkpt lat="38.3325190" lon="-0.7063720">
        <ele>258.3</ele>
        <time>2018-10-04T08:38:34Z</time>
      </trkpt>
      <trkpt lat="38.3324930" lon="-0.7063490">
        <ele>258.6</ele>
        <time>2018-10-04T08:38:35Z</time>
      </trkpt>
      <trkpt lat="38.3324670" lon="-0.7063260">
        <ele>258.8</ele>
        <time>2018-10-04T08:38:36Z</time>
      </trkpt>
      <trkpt lat="38.3324410" lon="-0.7063020">
        <ele>259.0</ele>
        <time>2018-10-04T08:38:37Z</time>
      </trkpt>
      <trkpt lat="38.3324160" lon="-0.7062770">
        <ele>259.3</ele>
        <time>2018-10-04T08:38:38Z</time>
      </trkpt>
      <trkpt lat="38.3323910" lon="-0.7062510">
        <ele>259.6</ele>
        <time>2018-10-04T08:38:39Z</time>
      </trkpt>
      <trkpt lat="38.3323680" lon="-0.7062240">
        <ele>259.9</ele>
        <time>2018-10-04T08:38:40Z</time>
      </trkpt>
      <trkpt lat="38.3323470" lon="-0.7061930">
        <ele>260.1</ele>
        <time>2018-10-04T08:38:41Z</time>
      </trkpt>
      <trkpt lat="38.3323250" lon="-0.7061630">
        <ele>260.4</ele>
        <time>2018-10-04T08:38:42Z</time>
      </trkpt>
      <trkpt lat="38.3323030" lon="-0.7061330">
        <ele>260.6</ele>
        <time>2018-10-04T08:38:43Z</time>
      </trkpt>
      <trkpt lat="38.3322810" lon="-0.7061050">
        <ele>260.9</ele>
        <time>2018-10-04T08:38:44Z</time>
      </trkpt>
      <trkpt lat="38.3322590" lon="-0.7060760">
        <ele>261.1</ele>
        <time>2018-10-04T08:38:45Z</time>
      </trkpt>
      <trkpt lat="38.3322380" lon="-0.7060470">
        <ele>261.3</ele>
        <time>2018-10-04T08:38:46Z</time>
      </trkpt>
      <trkpt lat="38.3322180" lon="-0.7060150">
        <ele>261.6</ele>
        <time>2018-10-04T08:38:47Z</time>
      </trkpt>
      <trkpt lat="38.3321990" lon="-0.7059820">
        <ele>261.8</ele>
        <time>2018-10-04T08:38:48Z</time>
      </trkpt>
      <trkpt lat="38.3321790" lon="-0.7059500">
        <ele>262.1</ele>
        <time>2018-10-04T08:38:49Z</time>
      </trkpt>
      <trkpt lat="38.3321590" lon="-0.7059160">
        <ele>262.4</ele>
        <time>2018-10-04T08:38:50Z</time>
      </trkpt>
      <trkpt lat="38.3321390" lon="-0.7058810">
        <ele>262.7</ele>
        <time>2018-10-04T08:38:51Z</time>
      </trkpt>
      <trkpt lat="38.3321190" lon="-0.7058450">
        <ele>263.0</ele>
        <time>2018-10-04T08:38:52Z</time>
      </trkpt>
      <trkpt lat="38.3320990" lon="-0.7058090">
        <ele>263.3</ele>
        <time>2018-10-04T08:38:53Z</time>
      </trkpt>
      <trkpt lat="38.3320780" lon="-0.7057740">
        <ele>263.6</ele>
        <time>2018-10-04T08:38:54Z</time>
      </trkpt>
      <trkpt lat="38.3320560" lon="-0.7057390">
        <ele>263.8</ele>
        <time>2018-10-04T08:38:55Z</time>
      </trkpt>
      <trkpt lat="38.3320360" lon="-0.7057030">
        <ele>263.9</ele>
        <time>2018-10-04T08:38:56Z</time>
      </trkpt>
      <trkpt lat="38.3320160" lon="-0.7056670">
        <ele>264.1</ele>
        <time>2018-10-04T08:38:57Z</time>
      </trkpt>
      <trkpt lat="38.3319940" lon="-0.7056310">
        <ele>264.3</ele>
        <time>2018-10-04T08:38:58Z</time>
      </trkpt>
      <trkpt lat="38.3319720" lon="-0.7055940">
        <ele>264.4</ele>
        <time>2018-10-04T08:38:59Z</time>
      </trkpt>
      <trkpt lat="38.3319500" lon="-0.7055560">
        <ele>264.6</ele>
        <time>2018-10-04T08:39:00Z</time>
      </trkpt>
      <trkpt lat="38.3319290" lon="-0.7055170">
        <ele>264.8</ele>
        <time>2018-10-04T08:39:01Z</time>
      </trkpt>
      <trkpt lat="38.3319070" lon="-0.7054770">
        <ele>265.0</ele>
        <time>2018-10-04T08:39:02Z</time>
      </trkpt>
      <trkpt lat="38.3318850" lon="-0.7054360">
        <ele>265.3</ele>
        <time>2018-10-04T08:39:03Z</time>
      </trkpt>
      <trkpt lat="38.3318620" lon="-0.7053950">
        <ele>265.6</ele>
        <time>2018-10-04T08:39:04Z</time>
      </trkpt>
      <trkpt lat="38.3318390" lon="-0.7053550">
        <ele>265.8</ele>
        <time>2018-10-04T08:39:05Z</time>
      </trkpt>
      <trkpt lat="38.3318160" lon="-0.7053130">
        <ele>266.1</ele>
        <time>2018-10-04T08:39:06Z</time>
      </trkpt>
      <trkpt lat="38.3317930" lon="-0.7052700">
        <ele>266.3</ele>
        <time>2018-10-04T08:39:07Z</time>
      </trkpt>
      <trkpt lat="38.3317700" lon="-0.7052270">
        <ele>266.5</ele>
        <time>2018-10-04T08:39:08Z</time>
      </trkpt>
      <trkpt lat="38.3317450" lon="-0.7051850">
        <ele>266.7</ele>
        <time>2018-10-04T08:39:09Z</time>
      </trkpt>
      <trkpt lat="38.3317200" lon="-0.7051410">
        <ele>266.8</ele>
        <time>2018-10-04T08:39:10Z</time>
      </trkpt>
      <trkpt lat="38.3316950" lon="-0.7050980">
        <ele>266.9</ele>
        <time>2018-10-04T08:39:11Z</time>
      </trkpt>
      <trkpt lat="38.3316690" lon="-0.7050550">
        <ele>267.0</ele>
        <time>2018-10-04T08:39:12Z</time>
      </trkpt>
      <trkpt lat="38.3316440" lon="-0.7050100">
        <ele>267.1</ele>
        <time>2018-10-04T08:39:13Z</time>
      </trkpt>
      <trkpt lat="38.3316180" lon="-0.7049650">
        <ele>267.1</ele>
        <time>2018-10-04T08:39:14Z</time>
      </trkpt>
      <trkpt lat="38.3315910" lon="-0.7049190">
        <ele>267.2</ele>
        <time>2018-10-04T08:39:15Z</time>
      </trkpt>
      <trkpt lat="38.3315650" lon="-0.7048720">
        <ele>267.3</ele>
        <time>2018-10-04T08:39:16Z</time>
      </trkpt>
      <trkpt lat="38.3315390" lon="-0.7048250">
        <ele>267.3</ele>
        <time>2018-10-04T08:39:17Z</time>
      </trkpt>
      <trkpt lat="38.3315130" lon="-0.7047760">
        <ele>267.4</ele>
        <time>2018-10-04T08:39:18Z</time>
      </trkpt>
      <trkpt lat="38.3314850" lon="-0.7047270">
        <ele>267.4</ele>
        <time>2018-10-04T08:39:19Z</time>
      </trkpt>
      <trkpt lat="38.3314580" lon="-0.7046790">
        <ele>267.5</ele>
        <time>2018-10-04T08:39:20Z</time>
      </trkpt>
      <trkpt lat="38.3314310" lon="-0.7046300">
        <ele>267.6</ele>
        <time>2018-10-04T08:39:21Z</time>
      </trkpt>
      <trkpt lat="38.3314030" lon="-0.7045820">
        <ele>267.6</ele>
        <time>2018-10-04T08:39:22Z</time>
      </trkpt>
      <trkpt lat="38.3313760" lon="-0.7045350">
        <ele>267.7</ele>
        <time>2018-10-04T08:39:23Z</time>
      </trkpt>
      <trkpt lat="38.3313500" lon="-0.7044880">
        <ele>267.7</ele>
        <time>2018-10-04T08:39:24Z</time>
      </trkpt>
      <trkpt lat="38.3313250" lon="-0.7044430">
        <ele>267.8</ele>
        <time>2018-10-04T08:39:25Z</time>
      </trkpt>
      <trkpt lat="38.3312990" lon="-0.7044000">
        <ele>267.9</ele>
        <time>2018-10-04T08:39:26Z</time>
      </trkpt>
      <trkpt lat="38.3312750" lon="-0.7043570">
        <ele>267.9</ele>
        <time>2018-10-04T08:39:27Z</time>
      </trkpt>
      <trkpt lat="38.3312520" lon="-0.7043160">
        <ele>268.0</ele>
        <time>2018-10-04T08:39:28Z</time>
      </trkpt>
      <trkpt lat="38.3312300" lon="-0.7042760">
        <ele>268.1</ele>
        <time>2018-10-04T08:39:29Z</time>
      </trkpt>
      <trkpt lat="38.3312070" lon="-0.7042370">
        <ele>269.1</ele>
        <time>2018-10-04T08:39:30Z</time>
      </trkpt>
      <trkpt lat="38.3311850" lon="-0.7042000">
        <ele>270.1</ele>
        <time>2018-10-04T08:39:31Z</time>
      </trkpt>
      <trkpt lat="38.3311650" lon="-0.7041620">
        <ele>271.1</ele>
        <time>2018-10-04T08:39:32Z</time>
      </trkpt>
      <trkpt lat="38.3311470" lon="-0.7041240">
        <ele>272.0</ele>
        <time>2018-10-04T08:39:33Z</time>
      </trkpt>
      <trkpt lat="38.3311280" lon="-0.7040870">
        <ele>272.8</ele>
        <time>2018-10-04T08:39:34Z</time>
      </trkpt>
      <trkpt lat="38.3311100" lon="-0.7040510">
        <ele>273.6</ele>
        <time>2018-10-04T08:39:35Z</time>
      </trkpt>
      <trkpt lat="38.3310910" lon="-0.7040170">
        <ele>274.4</ele>
        <time>2018-10-04T08:39:36Z</time>
      </trkpt>
      <trkpt lat="38.3310700" lon="-0.7039850">
        <ele>275.1</ele>
        <time>2018-10-04T08:39:37Z</time>
      </trkpt>
      <trkpt lat="38.3310480" lon="-0.7039510">
        <ele>275.9</ele>
        <time>2018-10-04T08:39:38Z</time>
      </trkpt>
      <trkpt lat="38.3310280" lon="-0.7039170">
        <ele>276.7</ele>
        <time>2018-10-04T08:39:39Z</time>
      </trkpt>
      <trkpt lat="38.3310080" lon="-0.7038820">
        <ele>277.5</ele>
        <time>2018-10-04T08:39:40Z</time>
      </trkpt>
      <trkpt lat="38.3309890" lon="-0.7038470">
        <ele>278.2</ele>
        <time>2018-10-04T08:39:41Z</time>
      </trkpt>
      <trkpt lat="38.3309690" lon="-0.7038120">
        <ele>279.0</ele>
        <time>2018-10-04T08:39:42Z</time>
      </trkpt>
      <trkpt lat="38.3309490" lon="-0.7037770">
        <ele>279.8</ele>
        <time>2018-10-04T08:39:43Z</time>
      </trkpt>
      <trkpt lat="38.3309300" lon="-0.7037420">
        <ele>280.6</ele>
        <time>2018-10-04T08:39:44Z</time>
      </trkpt>
      <trkpt lat="38.3309100" lon="-0.7037080">
        <ele>281.3</ele>
        <time>2018-10-04T08:39:45Z</time>
      </trkpt>
      <trkpt lat="38.3308900" lon="-0.7036740">
        <ele>282.1</ele>
        <time>2018-10-04T08:39:46Z</time>
      </trkpt>
      <trkpt lat="38.3308720" lon="-0.7036390">
        <ele>282.8</ele>
        <time>2018-10-04T08:39:47Z</time>
      </trkpt>
      <trkpt lat="38.3308530" lon="-0.7036040">
        <ele>283.6</ele>
        <time>2018-10-04T08:39:48Z</time>
      </trkpt>
      <trkpt lat="38.3308350" lon="-0.7035680">
        <ele>284.4</ele>
        <time>2018-10-04T08:39:49Z</time>
      </trkpt>
      <trkpt lat="38.3308150" lon="-0.7035350">
        <ele>285.1</ele>
        <time>2018-10-04T08:39:50Z</time>
      </trkpt>
      <trkpt lat="38.3307960" lon="-0.7035020">
        <ele>285.9</ele>
        <time>2018-10-04T08:39:51Z</time>
      </trkpt>
      <trkpt lat="38.3307770" lon="-0.7034690">
        <ele>286.6</ele>
        <time>2018-10-04T08:39:52Z</time>
      </trkpt>
      <trkpt lat="38.3307570" lon="-0.7034360">
        <ele>288.0</ele>
        <time>2018-10-04T08:39:53Z</time>
      </trkpt>
      <trkpt lat="38.3307380" lon="-0.7034030">
        <ele>287.8</ele>
        <time>2018-10-04T08:39:54Z</time>
      </trkpt>
      <trkpt lat="38.3307190" lon="-0.7033680">
        <ele>287.5</ele>
        <time>2018-10-04T08:39:55Z</time>
      </trkpt>
      <trkpt lat="38.3307020" lon="-0.7033330">
        <ele>287.3</ele>
        <time>2018-10-04T08:39:56Z</time>
      </trkpt>
      <trkpt lat="38.3306840" lon="-0.7032980">
        <ele>287.1</ele>
        <time>2018-10-04T08:39:57Z</time>
      </trkpt>
      <trkpt lat="38.3306650" lon="-0.7032650">
        <ele>286.9</ele>
        <time>2018-10-04T08:39:58Z</time>
      </trkpt>
      <trkpt lat="38.3306450" lon="-0.7032320">
        <ele>286.7</ele>
        <time>2018-10-04T08:39:59Z</time>
      </trkpt>
      <trkpt lat="38.3306240" lon="-0.7031980">
        <ele>286.5</ele>
        <time>2018-10-04T08:40:00Z</time>
      </trkpt>
      <trkpt lat="38.3306050" lon="-0.7031650">
        <ele>286.4</ele>
        <time>2018-10-04T08:40:01Z</time>
      </trkpt>
      <trkpt lat="38.3305860" lon="-0.7031310">
        <ele>286.4</ele>
        <time>2018-10-04T08:40:02Z</time>
      </trkpt>
      <trkpt lat="38.3305680" lon="-0.7030960">
        <ele>286.3</ele>
        <time>2018-10-04T08:40:03Z</time>
      </trkpt>
      <trkpt lat="38.3305500" lon="-0.7030600">
        <ele>286.3</ele>
        <time>2018-10-04T08:40:04Z</time>
      </trkpt>
      <trkpt lat="38.3305330" lon="-0.7030250">
        <ele>286.3</ele>
        <time>2018-10-04T08:40:05Z</time>
      </trkpt>
      <trkpt lat="38.3305160" lon="-0.7029920">
        <ele>286.2</ele>
        <time>2018-10-04T08:40:06Z</time>
      </trkpt>
      <trkpt lat="38.3304970" lon="-0.7029580">
        <ele>286.2</ele>
        <time>2018-10-04T08:40:07Z</time>
      </trkpt>
      <trkpt lat="38.3304790" lon="-0.7029250">
        <ele>286.2</ele>
        <time>2018-10-04T08:40:08Z</time>
      </trkpt>
      <trkpt lat="38.3304620" lon="-0.7028920">
        <ele>286.1</ele>
        <time>2018-10-04T08:40:09Z</time>
      </trkpt>
      <trkpt lat="38.3304440" lon="-0.7028590">
        <ele>286.1</ele>
        <time>2018-10-04T08:40:10Z</time>
      </trkpt>
      <trkpt lat="38.3304260" lon="-0.7028250">
        <ele>286.0</ele>
        <time>2018-10-04T08:40:11Z</time>
      </trkpt>
      <trkpt lat="38.3304080" lon="-0.7027920">
        <ele>286.0</ele>
        <time>2018-10-04T08:40:12Z</time>
      </trkpt>
      <trkpt lat="38.3303900" lon="-0.7027600">
        <ele>286.0</ele>
        <time>2018-10-04T08:40:13Z</time>
      </trkpt>
      <trkpt lat="38.3303730" lon="-0.7027260">
        <ele>285.9</ele>
        <time>2018-10-04T08:40:14Z</time>
      </trkpt>
      <trkpt lat="38.3303560" lon="-0.7026940">
        <ele>285.9</ele>
        <time>2018-10-04T08:40:15Z</time>
      </trkpt>
      <trkpt lat="38.3303400" lon="-0.7026610">
        <ele>285.9</ele>
        <time>2018-10-04T08:40:16Z</time>
      </trkpt>
      <trkpt lat="38.3303240" lon="-0.7026260">
        <ele>285.8</ele>
        <time>2018-10-04T08:40:17Z</time>
      </trkpt>
      <trkpt lat="38.3303100" lon="-0.7025890">
        <ele>285.8</ele>
        <time>2018-10-04T08:40:18Z</time>
      </trkpt>
      <trkpt lat="38.3302980" lon="-0.7025530">
        <ele>285.8</ele>
        <time>2018-10-04T08:40:19Z</time>
      </trkpt>
      <trkpt lat="38.3302850" lon="-0.7025180">
        <ele>285.7</ele>
        <time>2018-10-04T08:40:20Z</time>
      </trkpt>
      <trkpt lat="38.3302700" lon="-0.7024840">
        <ele>285.7</ele>
        <time>2018-10-04T08:40:21Z</time>
      </trkpt>
      <trkpt lat="38.3302590" lon="-0.7024470">
        <ele>285.7</ele>
        <time>2018-10-04T08:40:22Z</time>
      </trkpt>
      <trkpt lat="38.3302500" lon="-0.7024100">
        <ele>285.6</ele>
        <time>2018-10-04T08:40:23Z</time>
      </trkpt>
      <trkpt lat="38.3302410" lon="-0.7023720">
        <ele>285.6</ele>
        <time>2018-10-04T08:40:24Z</time>
      </trkpt>
      <trkpt lat="38.3302330" lon="-0.7023350">
        <ele>285.6</ele>
        <time>2018-10-04T08:40:25Z</time>
      </trkpt>
      <trkpt lat="38.3302250" lon="-0.7022970">
        <ele>285.5</ele>
        <time>2018-10-04T08:40:26Z</time>
      </trkpt>
      <trkpt lat="38.3302150" lon="-0.7022600">
        <ele>285.5</ele>
        <time>2018-10-04T08:40:27Z</time>
      </trkpt>
      <trkpt lat="38.3302070" lon="-0.7022230">
        <ele>285.5</ele>
        <time>2018-10-04T08:40:28Z</time>
      </trkpt>
      <trkpt lat="38.3301990" lon="-0.7021840">
        <ele>285.4</ele>
        <time>2018-10-04T08:40:29Z</time>
      </trkpt>
      <trkpt lat="38.3301920" lon="-0.7021450">
        <ele>285.4</ele>
        <time>2018-10-04T08:40:30Z</time>
      </trkpt>
      <trkpt lat="38.3301900" lon="-0.7021030">
        <ele>285.4</ele>
        <time>2018-10-04T08:40:31Z</time>
      </trkpt>
      <trkpt lat="38.3301870" lon="-0.7020610">
        <ele>285.3</ele>
        <time>2018-10-04T08:40:32Z</time>
      </trkpt>
      <trkpt lat="38.3301850" lon="-0.7020190">
        <ele>285.3</ele>
        <time>2018-10-04T08:40:33Z</time>
      </trkpt>
      <trkpt lat="38.3301850" lon="-0.7019750">
        <ele>285.3</ele>
        <time>2018-10-04T08:40:34Z</time>
      </trkpt>
      <trkpt lat="38.3301850" lon="-0.7019310">
        <ele>285.2</ele>
        <time>2018-10-04T08:40:35Z</time>
      </trkpt>
      <trkpt lat="38.3301820" lon="-0.7018850">
        <ele>285.2</ele>
        <time>2018-10-04T08:40:36Z</time>
      </trkpt>
      <trkpt lat="38.3301780" lon="-0.7018380">
        <ele>285.1</ele>
        <time>2018-10-04T08:40:37Z</time>
      </trkpt>
      <trkpt lat="38.3301770" lon="-0.7017910">
        <ele>285.1</ele>
        <time>2018-10-04T08:40:38Z</time>
      </trkpt>
      <trkpt lat="38.3301750" lon="-0.7017410">
        <ele>285.0</ele>
        <time>2018-10-04T08:40:39Z</time>
      </trkpt>
      <trkpt lat="38.3301730" lon="-0.7016910">
        <ele>285.0</ele>
        <time>2018-10-04T08:40:40Z</time>
      </trkpt>
      <trkpt lat="38.3301720" lon="-0.7016410">
        <ele>285.0</ele>
        <time>2018-10-04T08:40:41Z</time>
      </trkpt>
      <trkpt lat="38.3301710" lon="-0.7015870">
        <ele>284.9</ele>
        <time>2018-10-04T08:40:42Z</time>
      </trkpt>
      <trkpt lat="38.3301720" lon="-0.7015310">
        <ele>284.9</ele>
        <time>2018-10-04T08:40:43Z</time>
      </trkpt>
      <trkpt lat="38.3301730" lon="-0.7014720">
        <ele>284.8</ele>
        <time>2018-10-04T08:40:44Z</time>
      </trkpt>
      <trkpt lat="38.3301770" lon="-0.7014090">
        <ele>284.8</ele>
        <time>2018-10-04T08:40:45Z</time>
      </trkpt>
      <trkpt lat="38.3301830" lon="-0.7013410">
        <ele>284.7</ele>
        <time>2018-10-04T08:40:46Z</time>
      </trkpt>
      <trkpt lat="38.3301940" lon="-0.7012690">
        <ele>284.6</ele>
        <time>2018-10-04T08:40:47Z</time>
      </trkpt>
      <trkpt lat="38.3302230" lon="-0.7012020">
        <ele>284.6</ele>
        <time>2018-10-04T08:40:48Z</time>
      </trkpt>
      <trkpt lat="38.3302680" lon="-0.7011380">
        <ele>284.5</ele>
        <time>2018-10-04T08:40:49Z</time>
      </trkpt>
      <trkpt lat="38.3303290" lon="-0.7010890">
        <ele>284.4</ele>
        <time>2018-10-04T08:40:50Z</time>
      </trkpt>
      <trkpt lat="38.3304000" lon="-0.7010690">
        <ele>284.3</ele>
        <time>2018-10-04T08:40:51Z</time>
      </trkpt>
      <trkpt lat="38.3304770" lon="-0.7010590">
        <ele>284.2</ele>
        <time>2018-10-04T08:40:52Z</time>
      </trkpt>
      <trkpt lat="38.3305500" lon="-0.7010430">
        <ele>284.2</ele>
        <time>2018-10-04T08:40:53Z</time>
      </trkpt>
      <trkpt lat="38.3306100" lon="-0.7010210">
        <ele>284.1</ele>
        <time>2018-10-04T08:40:54Z</time>
      </trkpt>
      <trkpt lat="38.3306500" lon="-0.7009870">
        <ele>283.8</ele>
        <time>2018-10-04T08:40:55Z</time>
      </trkpt>
      <trkpt lat="38.3306920" lon="-0.7009420">
        <ele>283.7</ele>
        <time>2018-10-04T08:40:56Z</time>
      </trkpt>
      <trkpt lat="38.3307050" lon="-0.7008780">
        <ele>283.5</ele>
        <time>2018-10-04T08:40:57Z</time>
      </trkpt>
      <trkpt lat="38.3307020" lon="-0.7008120">
        <ele>283.4</ele>
        <time>2018-10-04T08:40:58Z</time>
      </trkpt>
      <trkpt lat="38.3306970" lon="-0.7007460">
        <ele>283.3</ele>
        <time>2018-10-04T08:40:59Z</time>
      </trkpt>
      <trkpt lat="38.3306930" lon="-0.7006750">
        <ele>283.2</ele>
        <time>2018-10-04T08:41:00Z</time>
      </trkpt>
      <trkpt lat="38.3306910" lon="-0.7006040">
        <ele>283.1</ele>
        <time>2018-10-04T08:41:01Z</time>
      </trkpt>
      <trkpt lat="38.3306900" lon="-0.7005340">
        <ele>283.0</ele>
        <time>2018-10-04T08:41:02Z</time>
      </trkpt>
      <trkpt lat="38.3306910" lon="-0.7004620">
        <ele>282.9</ele>
        <time>2018-10-04T08:41:03Z</time>
      </trkpt>
      <trkpt lat="38.3306900" lon="-0.7003900">
        <ele>282.8</ele>
        <time>2018-10-04T08:41:04Z</time>
      </trkpt>
      <trkpt lat="38.3306900" lon="-0.7003190">
        <ele>282.8</ele>
        <time>2018-10-04T08:41:05Z</time>
      </trkpt>
      <trkpt lat="38.3306890" lon="-0.7002470">
        <ele>282.9</ele>
        <time>2018-10-04T08:41:06Z</time>
      </trkpt>
      <trkpt lat="38.3306870" lon="-0.7001760">
        <ele>283.0</ele>
        <time>2018-10-04T08:41:07Z</time>
      </trkpt>
      <trkpt lat="38.3306860" lon="-0.7001050">
        <ele>283.1</ele>
        <time>2018-10-04T08:41:08Z</time>
      </trkpt>
      <trkpt lat="38.3306850" lon="-0.7000340">
        <ele>283.3</ele>
        <time>2018-10-04T08:41:09Z</time>
      </trkpt>
      <trkpt lat="38.3306840" lon="-0.6999630">
        <ele>283.5</ele>
        <time>2018-10-04T08:41:10Z</time>
      </trkpt>
      <trkpt lat="38.3306820" lon="-0.6998920">
        <ele>283.6</ele>
        <time>2018-10-04T08:41:11Z</time>
      </trkpt>
      <trkpt lat="38.3306810" lon="-0.6998210">
        <ele>283.7</ele>
        <time>2018-10-04T08:41:12Z</time>
      </trkpt>
      <trkpt lat="38.3306810" lon="-0.6997500">
        <ele>283.8</ele>
        <time>2018-10-04T08:41:13Z</time>
      </trkpt>
      <trkpt lat="38.3306800" lon="-0.6996790">
        <ele>283.7</ele>
        <time>2018-10-04T08:41:14Z</time>
      </trkpt>
      <trkpt lat="38.3306800" lon="-0.6996100">
        <ele>283.7</ele>
        <time>2018-10-04T08:41:15Z</time>
      </trkpt>
      <trkpt lat="38.3306790" lon="-0.6995400">
        <ele>283.5</ele>
        <time>2018-10-04T08:41:16Z</time>
      </trkpt>
      <trkpt lat="38.3306790" lon="-0.6994690">
        <ele>283.4</ele>
        <time>2018-10-04T08:41:17Z</time>
      </trkpt>
      <trkpt lat="38.3306770" lon="-0.6993990">
        <ele>283.3</ele>
        <time>2018-10-04T08:41:18Z</time>
      </trkpt>
      <trkpt lat="38.3306750" lon="-0.6993280">
        <ele>283.2</ele>
        <time>2018-10-04T08:41:19Z</time>
      </trkpt>
      <trkpt lat="38.3306760" lon="-0.6992580">
        <ele>283.1</ele>
        <time>2018-10-04T08:41:20Z</time>
      </trkpt>
      <trkpt lat="38.3306740" lon="-0.6991880">
        <ele>283.0</ele>
        <time>2018-10-04T08:41:21Z</time>
      </trkpt>
      <trkpt lat="38.3306720" lon="-0.6991190">
        <ele>282.9</ele>
        <time>2018-10-04T08:41:22Z</time>
      </trkpt>
      <trkpt lat="38.3306730" lon="-0.6990480">
        <ele>282.7</ele>
        <time>2018-10-04T08:41:23Z</time>
      </trkpt>
      <trkpt lat="38.3306720" lon="-0.6989790">
        <ele>282.6</ele>
        <time>2018-10-04T08:41:24Z</time>
      </trkpt>
      <trkpt lat="38.3306700" lon="-0.6989090">
        <ele>282.5</ele>
        <time>2018-10-04T08:41:25Z</time>
      </trkpt>
      <trkpt lat="38.3306680" lon="-0.6988400">
        <ele>282.4</ele>
        <time>2018-10-04T08:41:26Z</time>
      </trkpt>
      <trkpt lat="38.3306670" lon="-0.6987700">
        <ele>282.3</ele>
        <time>2018-10-04T08:41:27Z</time>
      </trkpt>
      <trkpt lat="38.3306660" lon="-0.6987000">
        <ele>282.2</ele>
        <time>2018-10-04T08:41:28Z</time>
      </trkpt>
      <trkpt lat="38.3306650" lon="-0.6986300">
        <ele>282.1</ele>
        <time>2018-10-04T08:41:29Z</time>
      </trkpt>
      <trkpt lat="38.3306640" lon="-0.6985600">
        <ele>281.9</ele>
        <time>2018-10-04T08:41:30Z</time>
      </trkpt>
      <trkpt lat="38.3306630" lon="-0.6984900">
        <ele>281.8</ele>
        <time>2018-10-04T08:41:31Z</time>
      </trkpt>
      <trkpt lat="38.3306620" lon="-0.6984200">
        <ele>281.7</ele>
        <time>2018-10-04T08:41:32Z</time>
      </trkpt>
      <trkpt lat="38.3306600" lon="-0.6983490">
        <ele>281.6</ele>
        <time>2018-10-04T08:41:33Z</time>
      </trkpt>
      <trkpt lat="38.3306590" lon="-0.6982800">
        <ele>281.5</ele>
        <time>2018-10-04T08:41:34Z</time>
      </trkpt>
      <trkpt lat="38.3306580" lon="-0.6982090">
        <ele>281.4</ele>
        <time>2018-10-04T08:41:35Z</time>
      </trkpt>
      <trkpt lat="38.3306550" lon="-0.6981390">
        <ele>281.3</ele>
        <time>2018-10-04T08:41:36Z</time>
      </trkpt>
      <trkpt lat="38.3306530" lon="-0.6980680">
        <ele>281.2</ele>
        <time>2018-10-04T08:41:37Z</time>
      </trkpt>
      <trkpt lat="38.3306510" lon="-0.6979980">
        <ele>281.1</ele>
        <time>2018-10-04T08:41:38Z</time>
      </trkpt>
      <trkpt lat="38.3306500" lon="-0.6979280">
        <ele>281.1</ele>
        <time>2018-10-04T08:41:39Z</time>
      </trkpt>
      <trkpt lat="38.3306490" lon="-0.6978580">
        <ele>281.1</ele>
        <time>2018-10-04T08:41:40Z</time>
      </trkpt>
      <trkpt lat="38.3306470" lon="-0.6977890">
        <ele>281.2</ele>
        <time>2018-10-04T08:41:41Z</time>
      </trkpt>
      <trkpt lat="38.3306460" lon="-0.6977200">
        <ele>281.3</ele>
        <time>2018-10-04T08:41:42Z</time>
      </trkpt>
      <trkpt lat="38.3306450" lon="-0.6976500">
        <ele>281.5</ele>
        <time>2018-10-04T08:41:43Z</time>
      </trkpt>
      <trkpt lat="38.3306440" lon="-0.6975810">
        <ele>281.7</ele>
        <time>2018-10-04T08:41:44Z</time>
      </trkpt>
      <trkpt lat="38.3306430" lon="-0.6975120">
        <ele>281.8</ele>
        <time>2018-10-04T08:41:45Z</time>
      </trkpt>
      <trkpt lat="38.3306430" lon="-0.6974440">
        <ele>281.9</ele>
        <time>2018-10-04T08:41:46Z</time>
      </trkpt>
      <trkpt lat="38.3306420" lon="-0.6973760">
        <ele>281.9</ele>
        <time>2018-10-04T08:41:47Z</time>
      </trkpt>
      <trkpt lat="38.3306410" lon="-0.6973090">
        <ele>281.8</ele>
        <time>2018-10-04T08:41:48Z</time>
      </trkpt>
      <trkpt lat="38.3306390" lon="-0.6972430">
        <ele>281.7</ele>
        <time>2018-10-04T08:41:49Z</time>
      </trkpt>
      <trkpt lat="38.3306400" lon="-0.6971770">
        <ele>281.6</ele>
        <time>2018-10-04T08:41:50Z</time>
      </trkpt>
      <trkpt lat="38.3306430" lon="-0.6971110">
        <ele>281.5</ele>
        <time>2018-10-04T08:41:51Z</time>
      </trkpt>
      <trkpt lat="38.3306470" lon="-0.6970460">
        <ele>281.4</ele>
        <time>2018-10-04T08:41:52Z</time>
      </trkpt>
      <trkpt lat="38.3306570" lon="-0.6969830">
        <ele>281.3</ele>
        <time>2018-10-04T08:41:53Z</time>
      </trkpt>
      <trkpt lat="38.3306700" lon="-0.6969220">
        <ele>281.2</ele>
        <time>2018-10-04T08:41:54Z</time>
      </trkpt>
      <trkpt lat="38.3306860" lon="-0.6968610">
        <ele>281.1</ele>
        <time>2018-10-04T08:41:55Z</time>
      </trkpt>
      <trkpt lat="38.3307040" lon="-0.6968010">
        <ele>281.0</ele>
        <time>2018-10-04T08:41:56Z</time>
      </trkpt>
      <trkpt lat="38.3307270" lon="-0.6967430">
        <ele>280.9</ele>
        <time>2018-10-04T08:41:57Z</time>
      </trkpt>
      <trkpt lat="38.3307540" lon="-0.6966880">
        <ele>280.9</ele>
        <time>2018-10-04T08:41:58Z</time>
      </trkpt>
      <trkpt lat="38.3307820" lon="-0.6966350">
        <ele>280.9</ele>
        <time>2018-10-04T08:41:59Z</time>
      </trkpt>
      <trkpt lat="38.3308120" lon="-0.6965830">
        <ele>281.0</ele>
        <time>2018-10-04T08:42:00Z</time>
      </trkpt>
      <trkpt lat="38.3308420" lon="-0.6965310">
        <ele>281.1</ele>
        <time>2018-10-04T08:42:01Z</time>
      </trkpt>
      <trkpt lat="38.3308700" lon="-0.6964790">
        <ele>281.3</ele>
        <time>2018-10-04T08:42:02Z</time>
      </trkpt>
      <trkpt lat="38.3308960" lon="-0.6964260">
        <ele>281.5</ele>
        <time>2018-10-04T08:42:03Z</time>
      </trkpt>
      <trkpt lat="38.3309190" lon="-0.6963720">
        <ele>281.6</ele>
        <time>2018-10-04T08:42:04Z</time>
      </trkpt>
      <trkpt lat="38.3309390" lon="-0.6963150">
        <ele>281.7</ele>
        <time>2018-10-04T08:42:05Z</time>
      </trkpt>
      <trkpt lat="38.3309550" lon="-0.6962570">
        <ele>281.8</ele>
        <time>2018-10-04T08:42:06Z</time>
      </trkpt>
      <trkpt lat="38.3309680" lon="-0.6961980">
        <ele>281.8</ele>
        <time>2018-10-04T08:42:07Z</time>
      </trkpt>
      <trkpt lat="38.3309780" lon="-0.6961380">
        <ele>281.7</ele>
        <time>2018-10-04T08:42:08Z</time>
      </trkpt>
      <trkpt lat="38.3309850" lon="-0.6960780">
        <ele>281.7</ele>
        <time>2018-10-04T08:42:09Z</time>
      </trkpt>
      <trkpt lat="38.3309870" lon="-0.6960170">
        <ele>281.7</ele>
        <time>2018-10-04T08:42:10Z</time>
      </trkpt>
      <trkpt lat="38.3309880" lon="-0.6959570">
        <ele>281.8</ele>
        <time>2018-10-04T08:42:11Z</time>
      </trkpt>
      <trkpt lat="38.3309880" lon="-0.6958950">
        <ele>281.9</ele>
        <time>2018-10-04T08:42:12Z</time>
      </trkpt>
      <trkpt lat="38.3309900" lon="-0.6958350">
        <ele>282.1</ele>
        <time>2018-10-04T08:42:13Z</time>
      </trkpt>
      <trkpt lat="38.3309900" lon="-0.6957740">
        <ele>282.2</ele>
        <time>2018-10-04T08:42:14Z</time>
      </trkpt>
      <trkpt lat="38.3309880" lon="-0.6957130">
        <ele>282.4</ele>
        <time>2018-10-04T08:42:15Z</time>
      </trkpt>
      <trkpt lat="38.3309860" lon="-0.6956520">
        <ele>282.5</ele>
        <time>2018-10-04T08:42:16Z</time>
      </trkpt>
      <trkpt lat="38.3309830" lon="-0.6955920">
        <ele>282.6</ele>
        <time>2018-10-04T08:42:17Z</time>
      </trkpt>
      <trkpt lat="38.3309810" lon="-0.6955320">
        <ele>282.7</ele>
        <time>2018-10-04T08:42:18Z</time>
      </trkpt>
      <trkpt lat="38.3309790" lon="-0.6954720">
        <ele>282.6</ele>
        <time>2018-10-04T08:42:19Z</time>
      </trkpt>
      <trkpt lat="38.3309780" lon="-0.6954120">
        <ele>282.6</ele>
        <time>2018-10-04T08:42:20Z</time>
      </trkpt>
      <trkpt lat="38.3309780" lon="-0.6953500">
        <ele>282.5</ele>
        <time>2018-10-04T08:42:21Z</time>
      </trkpt>
      <trkpt lat="38.3309770" lon="-0.6952900">
        <ele>282.4</ele>
        <time>2018-10-04T08:42:22Z</time>
      </trkpt>
      <trkpt lat="38.3309770" lon="-0.6952310">
        <ele>282.4</ele>
        <time>2018-10-04T08:42:23Z</time>
      </trkpt>
      <trkpt lat="38.3309760" lon="-0.6951720">
        <ele>282.3</ele>
        <time>2018-10-04T08:42:24Z</time>
      </trkpt>
      <trkpt lat="38.3309750" lon="-0.6951130">
        <ele>282.3</ele>
        <time>2018-10-04T08:42:25Z</time>
      </trkpt>
      <trkpt lat="38.3309740" lon="-0.6950550">
        <ele>282.3</ele>
        <time>2018-10-04T08:42:26Z</time>
      </trkpt>
      <trkpt lat="38.3309740" lon="-0.6949960">
        <ele>282.4</ele>
        <time>2018-10-04T08:42:27Z</time>
      </trkpt>
      <trkpt lat="38.3309720" lon="-0.6949370">
        <ele>282.5</ele>
        <time>2018-10-04T08:42:28Z</time>
      </trkpt>
      <trkpt lat="38.3309710" lon="-0.6948800">
        <ele>282.6</ele>
        <time>2018-10-04T08:42:29Z</time>
      </trkpt>
      <trkpt lat="38.3309680" lon="-0.6948230">
        <ele>282.8</ele>
        <time>2018-10-04T08:42:30Z</time>
      </trkpt>
      <trkpt lat="38.3309680" lon="-0.6947660">
        <ele>282.9</ele>
        <time>2018-10-04T08:42:31Z</time>
      </trkpt>
      <trkpt lat="38.3309670" lon="-0.6947100">
        <ele>283.0</ele>
        <time>2018-10-04T08:42:32Z</time>
      </trkpt>
      <trkpt lat="38.3309660" lon="-0.6946540">
        <ele>283.1</ele>
        <time>2018-10-04T08:42:33Z</time>
      </trkpt>
      <trkpt lat="38.3309650" lon="-0.6945970">
        <ele>283.1</ele>
        <time>2018-10-04T08:42:34Z</time>
      </trkpt>
      <trkpt lat="38.3309640" lon="-0.6945400">
        <ele>283.1</ele>
        <time>2018-10-04T08:42:35Z</time>
      </trkpt>
      <trkpt lat="38.3309630" lon="-0.6944830">
        <ele>283.0</ele>
        <time>2018-10-04T08:42:36Z</time>
      </trkpt>
      <trkpt lat="38.3309620" lon="-0.6944250">
        <ele>283.0</ele>
        <time>2018-10-04T08:42:37Z</time>
      </trkpt>
      <trkpt lat="38.3309590" lon="-0.6943660">
        <ele>283.0</ele>
        <time>2018-10-04T08:42:38Z</time>
      </trkpt>
      <trkpt lat="38.3309580" lon="-0.6943070">
        <ele>283.0</ele>
        <time>2018-10-04T08:42:39Z</time>
      </trkpt>
      <trkpt lat="38.3309570" lon="-0.6942470">
        <ele>283.0</ele>
        <time>2018-10-04T08:42:40Z</time>
      </trkpt>
      <trkpt lat="38.3309570" lon="-0.6941850">
        <ele>283.1</ele>
        <time>2018-10-04T08:42:41Z</time>
      </trkpt>
      <trkpt lat="38.3309580" lon="-0.6941230">
        <ele>283.2</ele>
        <time>2018-10-04T08:42:42Z</time>
      </trkpt>
      <trkpt lat="38.3309580" lon="-0.6940600">
        <ele>283.4</ele>
        <time>2018-10-04T08:42:43Z</time>
      </trkpt>
      <trkpt lat="38.3309590" lon="-0.6939960">
        <ele>283.5</ele>
        <time>2018-10-04T08:42:44Z</time>
      </trkpt>
      <trkpt lat="38.3309610" lon="-0.6939320">
        <ele>283.7</ele>
        <time>2018-10-04T08:42:45Z</time>
      </trkpt>
      <trkpt lat="38.3309640" lon="-0.6938660">
        <ele>283.8</ele>
        <time>2018-10-04T08:42:46Z</time>
      </trkpt>
      <trkpt lat="38.3309640" lon="-0.6938000">
        <ele>283.9</ele>
        <time>2018-10-04T08:42:47Z</time>
      </trkpt>
      <trkpt lat="38.3309670" lon="-0.6937340">
        <ele>283.9</ele>
        <time>2018-10-04T08:42:48Z</time>
      </trkpt>
      <trkpt lat="38.3309710" lon="-0.6936670">
        <ele>283.9</ele>
        <time>2018-10-04T08:42:49Z</time>
      </trkpt>
      <trkpt lat="38.3309770" lon="-0.6935990">
        <ele>283.8</ele>
        <time>2018-10-04T08:42:50Z</time>
      </trkpt>
      <trkpt lat="38.3309830" lon="-0.6935290">
        <ele>283.7</ele>
        <time>2018-10-04T08:42:51Z</time>
      </trkpt>
      <trkpt lat="38.3309890" lon="-0.6934560">
        <ele>283.6</ele>
        <time>2018-10-04T08:42:52Z</time>
      </trkpt>
      <trkpt lat="38.3309940" lon="-0.6933810">
        <ele>283.5</ele>
        <time>2018-10-04T08:42:53Z</time>
      </trkpt>
      <trkpt lat="38.3310010" lon="-0.6933040">
        <ele>283.4</ele>
        <time>2018-10-04T08:42:54Z</time>
      </trkpt>
      <trkpt lat="38.3310080" lon="-0.6932240">
        <ele>283.3</ele>
        <time>2018-10-04T08:42:55Z</time>
      </trkpt>
      <trkpt lat="38.3310140" lon="-0.6931430">
        <ele>283.1</ele>
        <time>2018-10-04T08:42:56Z</time>
      </trkpt>
      <trkpt lat="38.3310210" lon="-0.6930590">
        <ele>283.0</ele>
        <time>2018-10-04T08:42:57Z</time>
      </trkpt>
      <trkpt lat="38.3310290" lon="-0.6929720">
        <ele>282.8</ele>
        <time>2018-10-04T08:42:58Z</time>
      </trkpt>
      <trkpt lat="38.3310360" lon="-0.6928820">
        <ele>282.6</ele>
        <time>2018-10-04T08:42:59Z</time>
      </trkpt>
      <trkpt lat="38.3310410" lon="-0.6928030">
        <ele>282.4</ele>
        <time>2018-10-04T08:43:00Z</time>
      </trkpt>
      <trkpt lat="38.3310430" lon="-0.6927440">
        <ele>282.2</ele>
        <time>2018-10-04T08:43:01Z</time>
      </trkpt>
      <trkpt lat="38.3310350" lon="-0.6926930">
        <ele>282.0</ele>
        <time>2018-10-04T08:43:02Z</time>
      </trkpt>
      <trkpt lat="38.3310130" lon="-0.6926500">
        <ele>282.8</ele>
        <time>2018-10-04T08:43:03Z</time>
      </trkpt>
      <trkpt lat="38.3309860" lon="-0.6926110">
        <ele>283.3</ele>
        <time>2018-10-04T08:43:04Z</time>
      </trkpt>
      <trkpt lat="38.3309600" lon="-0.6925840">
        <ele>283.6</ele>
        <time>2018-10-04T08:43:05Z</time>
      </trkpt>
      <trkpt lat="38.3309420" lon="-0.6925640">
        <ele>283.8</ele>
        <time>2018-10-04T08:43:06Z</time>
      </trkpt>
      <trkpt lat="38.3309270" lon="-0.6925480">
        <ele>284.0</ele>
        <time>2018-10-04T08:43:07Z</time>
      </trkpt>
      <trkpt lat="38.3309140" lon="-0.6925330">
        <ele>284.1</ele>
        <time>2018-10-04T08:43:08Z</time>
      </trkpt>
      <trkpt lat="38.3309020" lon="-0.6925170">
        <ele>284.3</ele>
        <time>2018-10-04T08:43:09Z</time>
      </trkpt>
      <trkpt lat="38.3308870" lon="-0.6925030">
        <ele>284.5</ele>
        <time>2018-10-04T08:43:10Z</time>
      </trkpt>
      <trkpt lat="38.3308720" lon="-0.6924880">
        <ele>284.8</ele>
        <time>2018-10-04T08:43:11Z</time>
      </trkpt>
      <trkpt lat="38.3308560" lon="-0.6924710">
        <ele>285.0</ele>
        <time>2018-10-04T08:43:12Z</time>
      </trkpt>
      <trkpt lat="38.3308400" lon="-0.6924560">
        <ele>285.3</ele>
        <time>2018-10-04T08:43:13Z</time>
      </trkpt>
      <trkpt lat="38.3308200" lon="-0.6924430">
        <ele>285.6</ele>
        <time>2018-10-04T08:43:14Z</time>
      </trkpt>
      <trkpt lat="38.3308010" lon="-0.6924330">
        <ele>285.8</ele>
        <time>2018-10-04T08:43:15Z</time>
      </trkpt>
      <trkpt lat="38.3307850" lon="-0.6924150">
        <ele>286.0</ele>
        <time>2018-10-04T08:43:16Z</time>
      </trkpt>
      <trkpt lat="38.3307700" lon="-0.6923940">
        <ele>286.3</ele>
        <time>2018-10-04T08:43:17Z</time>
      </trkpt>
      <trkpt lat="38.3307550" lon="-0.6923750">
        <ele>286.5</ele>
        <time>2018-10-04T08:43:18Z</time>
      </trkpt>
      <trkpt lat="38.3307400" lon="-0.6923550">
        <ele>286.7</ele>
        <time>2018-10-04T08:43:19Z</time>
      </trkpt>
      <trkpt lat="38.3307260" lon="-0.6923370">
        <ele>286.9</ele>
        <time>2018-10-04T08:43:20Z</time>
      </trkpt>
      <trkpt lat="38.3307130" lon="-0.6923180">
        <ele>287.1</ele>
        <time>2018-10-04T08:43:21Z</time>
      </trkpt>
      <trkpt lat="38.3306990" lon="-0.6923010">
        <ele>287.3</ele>
        <time>2018-10-04T08:43:22Z</time>
      </trkpt>
      <trkpt lat="38.3306850" lon="-0.6922830">
        <ele>287.5</ele>
        <time>2018-10-04T08:43:23Z</time>
      </trkpt>
      <trkpt lat="38.3306720" lon="-0.6922640">
        <ele>287.7</ele>
        <time>2018-10-04T08:43:24Z</time>
      </trkpt>
      <trkpt lat="38.3306600" lon="-0.6922450">
        <ele>287.9</ele>
        <time>2018-10-04T08:43:25Z</time>
      </trkpt>
      <trkpt lat="38.3306460" lon="-0.6922290">
        <ele>288.1</ele>
        <time>2018-10-04T08:43:26Z</time>
      </trkpt>
      <trkpt lat="38.3306320" lon="-0.6922100">
        <ele>288.4</ele>
        <time>2018-10-04T08:43:27Z</time>
      </trkpt>
      <trkpt lat="38.3306180" lon="-0.6921920">
        <ele>288.8</ele>
        <time>2018-10-04T08:43:28Z</time>
      </trkpt>
      <trkpt lat="38.3306050" lon="-0.6921740">
        <ele>289.0</ele>
        <time>2018-10-04T08:43:29Z</time>
      </trkpt>
      <trkpt lat="38.3305920" lon="-0.6921550">
        <ele>289.2</ele>
        <time>2018-10-04T08:43:30Z</time>
      </trkpt>
      <trkpt lat="38.3305800" lon="-0.6921360">
        <ele>289.4</ele>
        <time>2018-10-04T08:43:31Z</time>
      </trkpt>
      <trkpt lat="38.3305670" lon="-0.6921170">
        <ele>289.6</ele>
        <time>2018-10-04T08:43:32Z</time>
      </trkpt>
      <trkpt lat="38.3305560" lon="-0.6920960">
        <ele>289.8</ele>
        <time>2018-10-04T08:43:33Z</time>
      </trkpt>
      <trkpt lat="38.3305440" lon="-0.6920760">
        <ele>290.0</ele>
        <time>2018-10-04T08:43:34Z</time>
      </trkpt>
      <trkpt lat="38.3305320" lon="-0.6920550">
        <ele>290.2</ele>
        <time>2018-10-04T08:43:35Z</time>
      </trkpt>
      <trkpt lat="38.3305210" lon="-0.6920350">
        <ele>290.4</ele>
        <time>2018-10-04T08:43:36Z</time>
      </trkpt>
      <trkpt lat="38.3305100" lon="-0.6920150">
        <ele>290.5</ele>
        <time>2018-10-04T08:43:37Z</time>
      </trkpt>
      <trkpt lat="38.3304990" lon="-0.6919950">
        <ele>290.7</ele>
        <time>2018-10-04T08:43:38Z</time>
      </trkpt>
      <trkpt lat="38.3304880" lon="-0.6919750">
        <ele>290.9</ele>
        <time>2018-10-04T08:43:39Z</time>
      </trkpt>
      <trkpt lat="38.3304760" lon="-0.6919560">
        <ele>291.1</ele>
        <time>2018-10-04T08:43:40Z</time>
      </trkpt>
      <trkpt lat="38.3304670" lon="-0.6919350">
        <ele>291.5</ele>
        <time>2018-10-04T08:43:41Z</time>
      </trkpt>
      <trkpt lat="38.3304560" lon="-0.6919140">
        <ele>291.9</ele>
        <time>2018-10-04T08:43:42Z</time>
      </trkpt>
      <trkpt lat="38.3304470" lon="-0.6918930">
        <ele>292.3</ele>
        <time>2018-10-04T08:43:43Z</time>
      </trkpt>
      <trkpt lat="38.3304370" lon="-0.6918730">
        <ele>292.5</ele>
        <time>2018-10-04T08:43:44Z</time>
      </trkpt>
      <trkpt lat="38.3304280" lon="-0.6918520">
        <ele>292.7</ele>
        <time>2018-10-04T08:43:45Z</time>
      </trkpt>
      <trkpt lat="38.3304200" lon="-0.6918310">
        <ele>293.0</ele>
        <time>2018-10-04T08:43:46Z</time>
      </trkpt>
      <trkpt lat="38.3304130" lon="-0.6918090">
        <ele>293.2</ele>
        <time>2018-10-04T08:43:47Z</time>
      </trkpt>
      <trkpt lat="38.3304040" lon="-0.6917890">
        <ele>293.4</ele>
        <time>2018-10-04T08:43:48Z</time>
      </trkpt>
      <trkpt lat="38.3303950" lon="-0.6917690">
        <ele>293.7</ele>
        <time>2018-10-04T08:43:49Z</time>
      </trkpt>
      <trkpt lat="38.3303830" lon="-0.6917510">
        <ele>293.9</ele>
        <time>2018-10-04T08:43:50Z</time>
      </trkpt>
      <trkpt lat="38.3303710" lon="-0.6917340">
        <ele>294.2</ele>
        <time>2018-10-04T08:43:51Z</time>
      </trkpt>
      <trkpt lat="38.3303590" lon="-0.6917180">
        <ele>294.4</ele>
        <time>2018-10-04T08:43:52Z</time>
      </trkpt>
      <trkpt lat="38.3303500" lon="-0.6917010">
        <ele>294.6</ele>
        <time>2018-10-04T08:43:53Z</time>
      </trkpt>
      <trkpt lat="38.3303410" lon="-0.6916820">
        <ele>294.8</ele>
        <time>2018-10-04T08:43:54Z</time>
      </trkpt>
      <trkpt lat="38.3303330" lon="-0.6916630">
        <ele>295.0</ele>
        <time>2018-10-04T08:43:55Z</time>
      </trkpt>
      <trkpt lat="38.3303230" lon="-0.6916450">
        <ele>295.3</ele>
        <time>2018-10-04T08:43:56Z</time>
      </trkpt>
      <trkpt lat="38.3303140" lon="-0.6916260">
        <ele>295.5</ele>
        <time>2018-10-04T08:43:57Z</time>
      </trkpt>
      <trkpt lat="38.3303040" lon="-0.6916080">
        <ele>295.8</ele>
        <time>2018-10-04T08:43:58Z</time>
      </trkpt>
      <trkpt lat="38.3302930" lon="-0.6915900">
        <ele>296.0</ele>
        <time>2018-10-04T08:43:59Z</time>
      </trkpt>
      <trkpt lat="38.3302820" lon="-0.6915730">
        <ele>296.3</ele>
        <time>2018-10-04T08:44:00Z</time>
      </trkpt>
      <trkpt lat="38.3302710" lon="-0.6915550">
        <ele>296.5</ele>
        <time>2018-10-04T08:44:01Z</time>
      </trkpt>
      <trkpt lat="38.3302600" lon="-0.6915380">
        <ele>296.7</ele>
        <time>2018-10-04T08:44:02Z</time>
      </trkpt>
      <trkpt lat="38.3302500" lon="-0.6915190">
        <ele>296.9</ele>
        <time>2018-10-04T08:44:03Z</time>
      </trkpt>
      <trkpt lat="38.3302400" lon="-0.6915000">
        <ele>297.1</ele>
        <time>2018-10-04T08:44:04Z</time>
      </trkpt>
      <trkpt lat="38.3302310" lon="-0.6914820">
        <ele>297.3</ele>
        <time>2018-10-04T08:44:05Z</time>
      </trkpt>
      <trkpt lat="38.3302210" lon="-0.6914620">
        <ele>297.5</ele>
        <time>2018-10-04T08:44:06Z</time>
      </trkpt>
      <trkpt lat="38.3302110" lon="-0.6914420">
        <ele>297.8</ele>
        <time>2018-10-04T08:44:07Z</time>
      </trkpt>
      <trkpt lat="38.3302000" lon="-0.6914230">
        <ele>298.0</ele>
        <time>2018-10-04T08:44:08Z</time>
      </trkpt>
      <trkpt lat="38.3301900" lon="-0.6914040">
        <ele>298.3</ele>
        <time>2018-10-04T08:44:09Z</time>
      </trkpt>
      <trkpt lat="38.3301800" lon="-0.6913850">
        <ele>298.5</ele>
        <time>2018-10-04T08:44:10Z</time>
      </trkpt>
      <trkpt lat="38.3301710" lon="-0.6913650">
        <ele>298.7</ele>
        <time>2018-10-04T08:44:11Z</time>
      </trkpt>
      <trkpt lat="38.3301590" lon="-0.6913480">
        <ele>299.0</ele>
        <time>2018-10-04T08:44:12Z</time>
      </trkpt>
      <trkpt lat="38.3301490" lon="-0.6913300">
        <ele>299.2</ele>
        <time>2018-10-04T08:44:13Z</time>
      </trkpt>
      <trkpt lat="38.3301400" lon="-0.6913110">
        <ele>299.4</ele>
        <time>2018-10-04T08:44:14Z</time>
      </trkpt>
      <trkpt lat="38.3301320" lon="-0.6912910">
        <ele>299.6</ele>
        <time>2018-10-04T08:44:15Z</time>
      </trkpt>
      <trkpt lat="38.3301230" lon="-0.6912710">
        <ele>299.9</ele>
        <time>2018-10-04T08:44:16Z</time>
      </trkpt>
      <trkpt lat="38.3301140" lon="-0.6912520">
        <ele>300.2</ele>
        <time>2018-10-04T08:44:17Z</time>
      </trkpt>
      <trkpt lat="38.3301050" lon="-0.6912330">
        <ele>300.4</ele>
        <time>2018-10-04T08:44:18Z</time>
      </trkpt>
      <trkpt lat="38.3300970" lon="-0.6912130">
        <ele>300.7</ele>
        <time>2018-10-04T08:44:19Z</time>
      </trkpt>
      <trkpt lat="38.3300870" lon="-0.6911940">
        <ele>300.9</ele>
        <time>2018-10-04T08:44:20Z</time>
      </trkpt>
      <trkpt lat="38.3300770" lon="-0.6911740">
        <ele>301.2</ele>
        <time>2018-10-04T08:44:21Z</time>
      </trkpt>
      <trkpt lat="38.3300690" lon="-0.6911540">
        <ele>301.4</ele>
        <time>2018-10-04T08:44:22Z</time>
      </trkpt>
      <trkpt lat="38.3300590" lon="-0.6911340">
        <ele>301.6</ele>
        <time>2018-10-04T08:44:23Z</time>
      </trkpt>
      <trkpt lat="38.3300510" lon="-0.6911150">
        <ele>301.8</ele>
        <time>2018-10-04T08:44:24Z</time>
      </trkpt>
      <trkpt lat="38.3300400" lon="-0.6910970">
        <ele>302.0</ele>
        <time>2018-10-04T08:44:25Z</time>
      </trkpt>
      <trkpt lat="38.3300280" lon="-0.6910800">
        <ele>302.2</ele>
        <time>2018-10-04T08:44:26Z</time>
      </trkpt>
      <trkpt lat="38.3300140" lon="-0.6910670">
        <ele>302.4</ele>
        <time>2018-10-04T08:44:27Z</time>
      </trkpt>
      <trkpt lat="38.3299980" lon="-0.6910550">
        <ele>302.6</ele>
        <time>2018-10-04T08:44:28Z</time>
      </trkpt>
      <trkpt lat="38.3299800" lon="-0.6910470">
        <ele>302.8</ele>
        <time>2018-10-04T08:44:29Z</time>
      </trkpt>
      <trkpt lat="38.3299630" lon="-0.6910400">
        <ele>303.0</ele>
        <time>2018-10-04T08:44:30Z</time>
      </trkpt>
      <trkpt lat="38.3299460" lon="-0.6910350">
        <ele>303.2</ele>
        <time>2018-10-04T08:44:31Z</time>
      </trkpt>
      <trkpt lat="38.3299300" lon="-0.6910400">
        <ele>303.4</ele>
        <time>2018-10-04T08:44:32Z</time>
      </trkpt>
      <trkpt lat="38.3299150" lon="-0.6910480">
        <ele>303.5</ele>
        <time>2018-10-04T08:44:33Z</time>
      </trkpt>
      <trkpt lat="38.3299050" lon="-0.6910630">
        <ele>303.7</ele>
        <time>2018-10-04T08:44:34Z</time>
      </trkpt>
      <trkpt lat="38.3298950" lon="-0.6910760">
        <ele>303.8</ele>
        <time>2018-10-04T08:44:35Z</time>
      </trkpt>
      <trkpt lat="38.3298860" lon="-0.6910900">
        <ele>304.0</ele>
        <time>2018-10-04T08:44:36Z</time>
      </trkpt>
      <trkpt lat="38.3298780" lon="-0.6911060">
        <ele>304.1</ele>
        <time>2018-10-04T08:44:37Z</time>
      </trkpt>
      <trkpt lat="38.3298730" lon="-0.6911260">
        <ele>304.2</ele>
        <time>2018-10-04T08:44:38Z</time>
      </trkpt>
      <trkpt lat="38.3298730" lon="-0.6911480">
        <ele>304.4</ele>
        <time>2018-10-04T08:44:39Z</time>
      </trkpt>
      <trkpt lat="38.3298730" lon="-0.6911700">
        <ele>304.6</ele>
        <time>2018-10-04T08:44:40Z</time>
      </trkpt>
      <trkpt lat="38.3298750" lon="-0.6911910">
        <ele>304.7</ele>
        <time>2018-10-04T08:44:41Z</time>
      </trkpt>
      <trkpt lat="38.3298780" lon="-0.6912120">
        <ele>304.9</ele>
        <time>2018-10-04T08:44:42Z</time>
      </trkpt>
      <trkpt lat="38.3298820" lon="-0.6912330">
        <ele>305.0</ele>
        <time>2018-10-04T08:44:43Z</time>
      </trkpt>
      <trkpt lat="38.3298860" lon="-0.6912540">
        <ele>305.3</ele>
        <time>2018-10-04T08:44:44Z</time>
      </trkpt>
      <trkpt lat="38.3298910" lon="-0.6912760">
        <ele>305.5</ele>
        <time>2018-10-04T08:44:45Z</time>
      </trkpt>
      <trkpt lat="38.3298960" lon="-0.6912980">
        <ele>305.8</ele>
        <time>2018-10-04T08:44:46Z</time>
      </trkpt>
      <trkpt lat="38.3299010" lon="-0.6913190">
        <ele>306.0</ele>
        <time>2018-10-04T08:44:47Z</time>
      </trkpt>
      <trkpt lat="38.3299040" lon="-0.6913410">
        <ele>306.2</ele>
        <time>2018-10-04T08:44:48Z</time>
      </trkpt>
      <trkpt lat="38.3299080" lon="-0.6913620">
        <ele>306.4</ele>
        <time>2018-10-04T08:44:49Z</time>
      </trkpt>
      <trkpt lat="38.3299120" lon="-0.6913830">
        <ele>306.6</ele>
        <time>2018-10-04T08:44:50Z</time>
      </trkpt>
      <trkpt lat="38.3299160" lon="-0.6914040">
        <ele>306.8</ele>
        <time>2018-10-04T08:44:51Z</time>
      </trkpt>
      <trkpt lat="38.3299190" lon="-0.6914250">
        <ele>306.9</ele>
        <time>2018-10-04T08:44:52Z</time>
      </trkpt>
      <trkpt lat="38.3299230" lon="-0.6914450">
        <ele>307.1</ele>
        <time>2018-10-04T08:44:53Z</time>
      </trkpt>
      <trkpt lat="38.3299260" lon="-0.6914660">
        <ele>307.3</ele>
        <time>2018-10-04T08:44:54Z</time>
      </trkpt>
      <trkpt lat="38.3299290" lon="-0.6914880">
        <ele>307.5</ele>
        <time>2018-10-04T08:44:55Z</time>
      </trkpt>
      <trkpt lat="38.3299320" lon="-0.6915110">
        <ele>307.7</ele>
        <time>2018-10-04T08:44:56Z</time>
      </trkpt>
      <trkpt lat="38.3299360" lon="-0.6915330">
        <ele>307.9</ele>
        <time>2018-10-04T08:44:57Z</time>
      </trkpt>
      <trkpt lat="38.3299410" lon="-0.6915560">
        <ele>308.2</ele>
        <time>2018-10-04T08:44:58Z</time>
      </trkpt>
      <trkpt lat="38.3299450" lon="-0.6915780">
        <ele>308.5</ele>
        <time>2018-10-04T08:44:59Z</time>
      </trkpt>
      <trkpt lat="38.3299480" lon="-0.6916010">
        <ele>308.7</ele>
        <time>2018-10-04T08:45:00Z</time>
      </trkpt>
      <trkpt lat="38.3299500" lon="-0.6916240">
        <ele>308.9</ele>
        <time>2018-10-04T08:45:01Z</time>
      </trkpt>
      <trkpt lat="38.3299530" lon="-0.6916480">
        <ele>309.1</ele>
        <time>2018-10-04T08:45:02Z</time>
      </trkpt>
      <trkpt lat="38.3299560" lon="-0.6916710">
        <ele>309.3</ele>
        <time>2018-10-04T08:45:03Z</time>
      </trkpt>
      <trkpt lat="38.3299590" lon="-0.6916940">
        <ele>309.4</ele>
        <time>2018-10-04T08:45:04Z</time>
      </trkpt>
      <trkpt lat="38.3299610" lon="-0.6917170">
        <ele>309.6</ele>
        <time>2018-10-04T08:45:05Z</time>
      </trkpt>
      <trkpt lat="38.3299630" lon="-0.6917400">
        <ele>309.8</ele>
        <time>2018-10-04T08:45:06Z</time>
      </trkpt>
      <trkpt lat="38.3299670" lon="-0.6917640">
        <ele>309.9</ele>
        <time>2018-10-04T08:45:07Z</time>
      </trkpt>
      <trkpt lat="38.3299670" lon="-0.6917870">
        <ele>310.1</ele>
        <time>2018-10-04T08:45:08Z</time>
      </trkpt>
      <trkpt lat="38.3299670" lon="-0.6918100">
        <ele>310.3</ele>
        <time>2018-10-04T08:45:09Z</time>
      </trkpt>
      <trkpt lat="38.3299660" lon="-0.6918330">
        <ele>310.5</ele>
        <time>2018-10-04T08:45:10Z</time>
      </trkpt>
      <trkpt lat="38.3299660" lon="-0.6918560">
        <ele>310.7</ele>
        <time>2018-10-04T08:45:11Z</time>
      </trkpt>
      <trkpt lat="38.3299680" lon="-0.6918790">
        <ele>310.9</ele>
        <time>2018-10-04T08:45:12Z</time>
      </trkpt>
      <trkpt lat="38.3299690" lon="-0.6919030">
        <ele>311.2</ele>
        <time>2018-10-04T08:45:13Z</time>
      </trkpt>
      <trkpt lat="38.3299700" lon="-0.6919270">
        <ele>311.4</ele>
        <time>2018-10-04T08:45:14Z</time>
      </trkpt>
      <trkpt lat="38.3299710" lon="-0.6919510">
        <ele>311.6</ele>
        <time>2018-10-04T08:45:15Z</time>
      </trkpt>
      <trkpt lat="38.3299710" lon="-0.6919750">
        <ele>311.8</ele>
        <time>2018-10-04T08:45:16Z</time>
      </trkpt>
      <trkpt lat="38.3299710" lon="-0.6919990">
        <ele>312.0</ele>
        <time>2018-10-04T08:45:17Z</time>
      </trkpt>
      <trkpt lat="38.3299710" lon="-0.6920230">
        <ele>312.1</ele>
        <time>2018-10-04T08:45:18Z</time>
      </trkpt>
      <trkpt lat="38.3299710" lon="-0.6920470">
        <ele>312.3</ele>
        <time>2018-10-04T08:45:19Z</time>
      </trkpt>
      <trkpt lat="38.3299710" lon="-0.6920710">
        <ele>312.4</ele>
        <time>2018-10-04T08:45:20Z</time>
      </trkpt>
      <trkpt lat="38.3299710" lon="-0.6920940">
        <ele>312.6</ele>
        <time>2018-10-04T08:45:21Z</time>
      </trkpt>
      <trkpt lat="38.3299710" lon="-0.6921180">
        <ele>312.8</ele>
        <time>2018-10-04T08:45:22Z</time>
      </trkpt>
      <trkpt lat="38.3299720" lon="-0.6921400">
        <ele>313.0</ele>
        <time>2018-10-04T08:45:23Z</time>
      </trkpt>
      <trkpt lat="38.3299720" lon="-0.6921630">
        <ele>313.1</ele>
        <time>2018-10-04T08:45:24Z</time>
      </trkpt>
      <trkpt lat="38.3299700" lon="-0.6921840">
        <ele>313.3</ele>
        <time>2018-10-04T08:45:25Z</time>
      </trkpt>
      <trkpt lat="38.3299690" lon="-0.6922050">
        <ele>313.5</ele>
        <time>2018-10-04T08:45:26Z</time>
      </trkpt>
      <trkpt lat="38.3299670" lon="-0.6922260">
        <ele>313.7</ele>
        <time>2018-10-04T08:45:27Z</time>
      </trkpt>
      <trkpt lat="38.3299640" lon="-0.6922470">
        <ele>314.0</ele>
        <time>2018-10-04T08:45:28Z</time>
      </trkpt>
      <trkpt lat="38.3299600" lon="-0.6922680">
        <ele>314.2</ele>
        <time>2018-10-04T08:45:29Z</time>
      </trkpt>
      <trkpt lat="38.3299550" lon="-0.6922900">
        <ele>314.3</ele>
        <time>2018-10-04T08:45:30Z</time>
      </trkpt>
      <trkpt lat="38.3299520" lon="-0.6923120">
        <ele>314.5</ele>
        <time>2018-10-04T08:45:31Z</time>
      </trkpt>
      <trkpt lat="38.3299470" lon="-0.6923330">
        <ele>314.7</ele>
        <time>2018-10-04T08:45:32Z</time>
      </trkpt>
      <trkpt lat="38.3299340" lon="-0.6923480">
        <ele>314.8</ele>
        <time>2018-10-04T08:45:33Z</time>
      </trkpt>
      <trkpt lat="38.3299190" lon="-0.6923590">
        <ele>315.0</ele>
        <time>2018-10-04T08:45:34Z</time>
      </trkpt>
      <trkpt lat="38.3299030" lon="-0.6923610">
        <ele>315.1</ele>
        <time>2018-10-04T08:45:35Z</time>
      </trkpt>
      <trkpt lat="38.3298870" lon="-0.6923540">
        <ele>315.3</ele>
        <time>2018-10-04T08:45:36Z</time>
      </trkpt>
      <trkpt lat="38.3298730" lon="-0.6923430">
        <ele>315.5</ele>
        <time>2018-10-04T08:45:37Z</time>
      </trkpt>
      <trkpt lat="38.3298610" lon="-0.6923290">
        <ele>315.8</ele>
        <time>2018-10-04T08:45:38Z</time>
      </trkpt>
      <trkpt lat="38.3298490" lon="-0.6923140">
        <ele>316.0</ele>
        <time>2018-10-04T08:45:39Z</time>
      </trkpt>
      <trkpt lat="38.3298370" lon="-0.6922990">
        <ele>316.4</ele>
        <time>2018-10-04T08:45:40Z</time>
      </trkpt>
      <trkpt lat="38.3298280" lon="-0.6922810">
        <ele>316.7</ele>
        <time>2018-10-04T08:45:41Z</time>
      </trkpt>
      <trkpt lat="38.3298230" lon="-0.6922650">
        <ele>316.8</ele>
        <time>2018-10-04T08:45:42Z</time>
      </trkpt>
      <trkpt lat="38.3298170" lon="-0.6922490">
        <ele>317.0</ele>
        <time>2018-10-04T08:45:43Z</time>
      </trkpt>
      <trkpt lat="38.3298120" lon="-0.6922320">
        <ele>317.2</ele>
        <time>2018-10-04T08:45:44Z</time>
      </trkpt>
      <trkpt lat="38.3298070" lon="-0.6922120">
        <ele>317.4</ele>
        <time>2018-10-04T08:45:45Z</time>
      </trkpt>
      <trkpt lat="38.3298020" lon="-0.6921920">
        <ele>317.6</ele>
        <time>2018-10-04T08:45:46Z</time>
      </trkpt>
      <trkpt lat="38.3297950" lon="-0.6921720">
        <ele>317.8</ele>
        <time>2018-10-04T08:45:47Z</time>
      </trkpt>
      <trkpt lat="38.3297880" lon="-0.6921530">
        <ele>318.0</ele>
        <time>2018-10-04T08:45:48Z</time>
      </trkpt>
      <trkpt lat="38.3297800" lon="-0.6921340">
        <ele>318.3</ele>
        <time>2018-10-04T08:45:49Z</time>
      </trkpt>
      <trkpt lat="38.3297740" lon="-0.6921130">
        <ele>318.5</ele>
        <time>2018-10-04T08:45:50Z</time>
      </trkpt>
      <trkpt lat="38.3297690" lon="-0.6920930">
        <ele>318.8</ele>
        <time>2018-10-04T08:45:51Z</time>
      </trkpt>
      <trkpt lat="38.3297630" lon="-0.6920730">
        <ele>319.1</ele>
        <time>2018-10-04T08:45:52Z</time>
      </trkpt>
      <trkpt lat="38.3297560" lon="-0.6920540">
        <ele>319.3</ele>
        <time>2018-10-04T08:45:53Z</time>
      </trkpt>
      <trkpt lat="38.3297500" lon="-0.6920330">
        <ele>319.5</ele>
        <time>2018-10-04T08:45:54Z</time>
      </trkpt>
      <trkpt lat="38.3297440" lon="-0.6920130">
        <ele>319.7</ele>
        <time>2018-10-04T08:45:55Z</time>
      </trkpt>
      <trkpt lat="38.3297390" lon="-0.6919920">
        <ele>319.8</ele>
        <time>2018-10-04T08:45:56Z</time>
      </trkpt>
      <trkpt lat="38.3297330" lon="-0.6919700">
        <ele>320.0</ele>
        <time>2018-10-04T08:45:57Z</time>
      </trkpt>
      <trkpt lat="38.3297260" lon="-0.6919490">
        <ele>320.1</ele>
        <time>2018-10-04T08:45:58Z</time>
      </trkpt>
      <trkpt lat="38.3297200" lon="-0.6919280">
        <ele>320.3</ele>
        <time>2018-10-04T08:45:59Z</time>
      </trkpt>
      <trkpt lat="38.3297130" lon="-0.6919070">
        <ele>320.5</ele>
        <time>2018-10-04T08:46:00Z</time>
      </trkpt>
      <trkpt lat="38.3297060" lon="-0.6918870">
        <ele>320.6</ele>
        <time>2018-10-04T08:46:01Z</time>
      </trkpt>
      <trkpt lat="38.3296980" lon="-0.6918670">
        <ele>320.7</ele>
        <time>2018-10-04T08:46:02Z</time>
      </trkpt>
      <trkpt lat="38.3296910" lon="-0.6918460">
        <ele>320.9</ele>
        <time>2018-10-04T08:46:03Z</time>
      </trkpt>
      <trkpt lat="38.3296840" lon="-0.6918240">
        <ele>321.0</ele>
        <time>2018-10-04T08:46:04Z</time>
      </trkpt>
      <trkpt lat="38.3296770" lon="-0.6918010">
        <ele>321.2</ele>
        <time>2018-10-04T08:46:05Z</time>
      </trkpt>
      <trkpt lat="38.3296690" lon="-0.6917780">
        <ele>321.4</ele>
        <time>2018-10-04T08:46:06Z</time>
      </trkpt>
      <trkpt lat="38.3296620" lon="-0.6917550">
        <ele>321.6</ele>
        <time>2018-10-04T08:46:07Z</time>
      </trkpt>
      <trkpt lat="38.3296560" lon="-0.6917320">
        <ele>321.8</ele>
        <time>2018-10-04T08:46:08Z</time>
      </trkpt>
      <trkpt lat="38.3296480" lon="-0.6917090">
        <ele>322.0</ele>
        <time>2018-10-04T08:46:09Z</time>
      </trkpt>
      <trkpt lat="38.3296400" lon="-0.6916870">
        <ele>322.2</ele>
        <time>2018-10-04T08:46:10Z</time>
      </trkpt>
      <trkpt lat="38.3296330" lon="-0.6916650">
        <ele>322.4</ele>
        <time>2018-10-04T08:46:11Z</time>
      </trkpt>
      <trkpt lat="38.3296240" lon="-0.6916430">
        <ele>322.6</ele>
        <time>2018-10-04T08:46:12Z</time>
      </trkpt>
      <trkpt lat="38.3296160" lon="-0.6916220">
        <ele>322.8</ele>
        <time>2018-10-04T08:46:13Z</time>
      </trkpt>
      <trkpt lat="38.3296100" lon="-0.6916000">
        <ele>322.9</ele>
        <time>2018-10-04T08:46:14Z</time>
      </trkpt>
      <trkpt lat="38.3296030" lon="-0.6915790">
        <ele>323.1</ele>
        <time>2018-10-04T08:46:15Z</time>
      </trkpt>
      <trkpt lat="38.3295940" lon="-0.6915580">
        <ele>323.3</ele>
        <time>2018-10-04T08:46:16Z</time>
      </trkpt>
      <trkpt lat="38.3295830" lon="-0.6915370">
        <ele>323.5</ele>
        <time>2018-10-04T08:46:17Z</time>
      </trkpt>
      <trkpt lat="38.3295720" lon="-0.6915180">
        <ele>323.7</ele>
        <time>2018-10-04T08:46:18Z</time>
      </trkpt>
      <trkpt lat="38.3295600" lon="-0.6914980">
        <ele>323.9</ele>
        <time>2018-10-04T08:46:19Z</time>
      </trkpt>
      <trkpt lat="38.3295480" lon="-0.6914800">
        <ele>324.0</ele>
        <time>2018-10-04T08:46:20Z</time>
      </trkpt>
      <trkpt lat="38.3295380" lon="-0.6914630">
        <ele>324.2</ele>
        <time>2018-10-04T08:46:21Z</time>
      </trkpt>
      <trkpt lat="38.3295290" lon="-0.6914450">
        <ele>324.5</ele>
        <time>2018-10-04T08:46:22Z</time>
      </trkpt>
      <trkpt lat="38.3295190" lon="-0.6914280">
        <ele>324.8</ele>
        <time>2018-10-04T08:46:23Z</time>
      </trkpt>
      <trkpt lat="38.3295090" lon="-0.6914110">
        <ele>325.0</ele>
        <time>2018-10-04T08:46:24Z</time>
      </trkpt>
      <trkpt lat="38.3294980" lon="-0.6913930">
        <ele>325.3</ele>
        <time>2018-10-04T08:46:25Z</time>
      </trkpt>
      <trkpt lat="38.3294870" lon="-0.6913770">
        <ele>325.5</ele>
        <time>2018-10-04T08:46:26Z</time>
      </trkpt>
      <trkpt lat="38.3294760" lon="-0.6913600">
        <ele>325.7</ele>
        <time>2018-10-04T08:46:27Z</time>
      </trkpt>
      <trkpt lat="38.3294640" lon="-0.6913430">
        <ele>325.9</ele>
        <time>2018-10-04T08:46:28Z</time>
      </trkpt>
      <trkpt lat="38.3294530" lon="-0.6913260">
        <ele>326.2</ele>
        <time>2018-10-04T08:46:29Z</time>
      </trkpt>
      <trkpt lat="38.3294420" lon="-0.6913110">
        <ele>326.3</ele>
        <time>2018-10-04T08:46:30Z</time>
      </trkpt>
      <trkpt lat="38.3294300" lon="-0.6912950">
        <ele>326.6</ele>
        <time>2018-10-04T08:46:31Z</time>
      </trkpt>
      <trkpt lat="38.3294170" lon="-0.6912810">
        <ele>326.8</ele>
        <time>2018-10-04T08:46:32Z</time>
      </trkpt>
      <trkpt lat="38.3294040" lon="-0.6912670">
        <ele>327.0</ele>
        <time>2018-10-04T08:46:33Z</time>
      </trkpt>
      <trkpt lat="38.3293910" lon="-0.6912520">
        <ele>327.2</ele>
        <time>2018-10-04T08:46:34Z</time>
      </trkpt>
      <trkpt lat="38.3293770" lon="-0.6912390">
        <ele>327.4</ele>
        <time>2018-10-04T08:46:35Z</time>
      </trkpt>
      <trkpt lat="38.3293630" lon="-0.6912280">
        <ele>327.6</ele>
        <time>2018-10-04T08:46:36Z</time>
      </trkpt>
      <trkpt lat="38.3293500" lon="-0.6912160">
        <ele>327.8</ele>
        <time>2018-10-04T08:46:37Z</time>
      </trkpt>
      <trkpt lat="38.3293360" lon="-0.6912050">
        <ele>328.0</ele>
        <time>2018-10-04T08:46:38Z</time>
      </trkpt>
      <trkpt lat="38.3293210" lon="-0.6911970">
        <ele>328.2</ele>
        <time>2018-10-04T08:46:39Z</time>
      </trkpt>
      <trkpt lat="38.3293040" lon="-0.6911910">
        <ele>328.4</ele>
        <time>2018-10-04T08:46:40Z</time>
      </trkpt>
      <trkpt lat="38.3292880" lon="-0.6911830">
        <ele>328.6</ele>
        <time>2018-10-04T08:46:41Z</time>
      </trkpt>
      <trkpt lat="38.3292730" lon="-0.6911730">
        <ele>328.9</ele>
        <time>2018-10-04T08:46:42Z</time>
      </trkpt>
      <trkpt lat="38.3292570" lon="-0.6911660">
        <ele>330.0</ele>
        <time>2018-10-04T08:46:43Z</time>
      </trkpt>
      <trkpt lat="38.3292390" lon="-0.6911650">
        <ele>330.1</ele>
        <time>2018-10-04T08:46:44Z</time>
      </trkpt>
      <trkpt lat="38.3292240" lon="-0.6911760">
        <ele>330.3</ele>
        <time>2018-10-04T08:46:45Z</time>
      </trkpt>
      <trkpt lat="38.3292150" lon="-0.6911970">
        <ele>330.4</ele>
        <time>2018-10-04T08:46:46Z</time>
      </trkpt>
      <trkpt lat="38.3292080" lon="-0.6912200">
        <ele>330.5</ele>
        <time>2018-10-04T08:46:47Z</time>
      </trkpt>
      <trkpt lat="38.3292070" lon="-0.6912420">
        <ele>330.7</ele>
        <time>2018-10-04T08:46:48Z</time>
      </trkpt>
      <trkpt lat="38.3292080" lon="-0.6912630">
        <ele>330.8</ele>
        <time>2018-10-04T08:46:49Z</time>
      </trkpt>
      <trkpt lat="38.3292130" lon="-0.6912800">
        <ele>330.9</ele>
        <time>2018-10-04T08:46:50Z</time>
      </trkpt>
      <trkpt lat="38.3292230" lon="-0.6912900">
        <ele>331.1</ele>
        <time>2018-10-04T08:46:51Z</time>
      </trkpt>
      <trkpt lat="38.3292350" lon="-0.6913030">
        <ele>331.4</ele>
        <time>2018-10-04T08:46:52Z</time>
      </trkpt>
      <trkpt lat="38.3292480" lon="-0.6913200">
        <ele>331.5</ele>
        <time>2018-10-04T08:46:53Z</time>
      </trkpt>
      <trkpt lat="38.3292620" lon="-0.6913390">
        <ele>331.7</ele>
        <time>2018-10-04T08:46:54Z</time>
      </trkpt>
      <trkpt lat="38.3292760" lon="-0.6913570">
        <ele>331.9</ele>
        <time>2018-10-04T08:46:55Z</time>
      </trkpt>
      <trkpt lat="38.3292910" lon="-0.6913730">
        <ele>332.0</ele>
        <time>2018-10-04T08:46:56Z</time>
      </trkpt>
      <trkpt lat="38.3293010" lon="-0.6913910">
        <ele>332.2</ele>
        <time>2018-10-04T08:46:57Z</time>
      </trkpt>
      <trkpt lat="38.3293090" lon="-0.6914120">
        <ele>332.3</ele>
        <time>2018-10-04T08:46:58Z</time>
      </trkpt>
      <trkpt lat="38.3293190" lon="-0.6914310">
        <ele>332.7</ele>
        <time>2018-10-04T08:46:59Z</time>
      </trkpt>
      <trkpt lat="38.3293290" lon="-0.6914500">
        <ele>333.0</ele>
        <time>2018-10-04T08:47:00Z</time>
      </trkpt>
      <trkpt lat="38.3293380" lon="-0.6914690">
        <ele>333.2</ele>
        <time>2018-10-04T08:47:01Z</time>
      </trkpt>
      <trkpt lat="38.3293450" lon="-0.6914900">
        <ele>333.4</ele>
        <time>2018-10-04T08:47:02Z</time>
      </trkpt>
      <trkpt lat="38.3293510" lon="-0.6915100">
        <ele>333.6</ele>
        <time>2018-10-04T08:47:03Z</time>
      </trkpt>
      <trkpt lat="38.3293570" lon="-0.6915290">
        <ele>333.9</ele>
        <time>2018-10-04T08:47:04Z</time>
      </trkpt>
      <trkpt lat="38.3293640" lon="-0.6915490">
        <ele>334.1</ele>
        <time>2018-10-04T08:47:05Z</time>
      </trkpt>
      <trkpt lat="38.3293700" lon="-0.6915690">
        <ele>334.4</ele>
        <time>2018-10-04T08:47:06Z</time>
      </trkpt>
      <trkpt lat="38.3293720" lon="-0.6915900">
        <ele>334.7</ele>
        <time>2018-10-04T08:47:07Z</time>
      </trkpt>
      <trkpt lat="38.3293740" lon="-0.6916140">
        <ele>334.8</ele>
        <time>2018-10-04T08:47:08Z</time>
      </trkpt>
      <trkpt lat="38.3293780" lon="-0.6916370">
        <ele>335.0</ele>
        <time>2018-10-04T08:47:09Z</time>
      </trkpt>
      <trkpt lat="38.3293810" lon="-0.6916580">
        <ele>335.1</ele>
        <time>2018-10-04T08:47:10Z</time>
      </trkpt>
      <trkpt lat="38.3293850" lon="-0.6916770">
        <ele>335.2</ele>
        <time>2018-10-04T08:47:11Z</time>
      </trkpt>
      <trkpt lat="38.3293870" lon="-0.6916980">
        <ele>335.4</ele>
        <time>2018-10-04T08:47:12Z</time>
      </trkpt>
      <trkpt lat="38.3293870" lon="-0.6917190">
        <ele>335.5</ele>
        <time>2018-10-04T08:47:13Z</time>
      </trkpt>
      <trkpt lat="38.3293870" lon="-0.6917390">
        <ele>335.6</ele>
        <time>2018-10-04T08:47:14Z</time>
      </trkpt>
      <trkpt lat="38.3293840" lon="-0.6917610">
        <ele>335.8</ele>
        <time>2018-10-04T08:47:15Z</time>
      </trkpt>
      <trkpt lat="38.3293820" lon="-0.6917840">
        <ele>335.9</ele>
        <time>2018-10-04T08:47:16Z</time>
      </trkpt>
      <trkpt lat="38.3293810" lon="-0.6918070">
        <ele>336.1</ele>
        <time>2018-10-04T08:47:17Z</time>
      </trkpt>
      <trkpt lat="38.3293820" lon="-0.6918310">
        <ele>336.2</ele>
        <time>2018-10-04T08:47:18Z</time>
      </trkpt>
      <trkpt lat="38.3293800" lon="-0.6918560">
        <ele>336.4</ele>
        <time>2018-10-04T08:47:19Z</time>
      </trkpt>
      <trkpt lat="38.3293830" lon="-0.6918830">
        <ele>336.6</ele>
        <time>2018-10-04T08:47:20Z</time>
      </trkpt>
      <trkpt lat="38.3293860" lon="-0.6919070">
        <ele>336.7</ele>
        <time>2018-10-04T08:47:21Z</time>
      </trkpt>
      <trkpt lat="38.3293890" lon="-0.6919320">
        <ele>336.9</ele>
        <time>2018-10-04T08:47:22Z</time>
      </trkpt>
      <trkpt lat="38.3293910" lon="-0.6919570">
        <ele>337.1</ele>
        <time>2018-10-04T08:47:23Z</time>
      </trkpt>
      <trkpt lat="38.3293950" lon="-0.6919820">
        <ele>337.4</ele>
        <time>2018-10-04T08:47:24Z</time>
      </trkpt>
      <trkpt lat="38.3293990" lon="-0.6920060">
        <ele>337.7</ele>
        <time>2018-10-04T08:47:25Z</time>
      </trkpt>
      <trkpt lat="38.3294030" lon="-0.6920310">
        <ele>338.0</ele>
        <time>2018-10-04T08:47:26Z</time>
      </trkpt>
      <trkpt lat="38.3294050" lon="-0.6920560">
        <ele>338.2</ele>
        <time>2018-10-04T08:47:27Z</time>
      </trkpt>
      <trkpt lat="38.3294060" lon="-0.6920820">
        <ele>338.5</ele>
        <time>2018-10-04T08:47:28Z</time>
      </trkpt>
      <trkpt lat="38.3294060" lon="-0.6921060">
        <ele>338.7</ele>
        <time>2018-10-04T08:47:29Z</time>
      </trkpt>
      <trkpt lat="38.3294070" lon="-0.6921260">
        <ele>339.1</ele>
        <time>2018-10-04T08:47:30Z</time>
      </trkpt>
      <trkpt lat="38.3294070" lon="-0.6921460">
        <ele>339.4</ele>
        <time>2018-10-04T08:47:31Z</time>
      </trkpt>
      <trkpt lat="38.3294080" lon="-0.6921660">
        <ele>339.7</ele>
        <time>2018-10-04T08:47:32Z</time>
      </trkpt>
      <trkpt lat="38.3294070" lon="-0.6921870">
        <ele>340.1</ele>
        <time>2018-10-04T08:47:33Z</time>
      </trkpt>
      <trkpt lat="38.3294070" lon="-0.6922090">
        <ele>340.4</ele>
        <time>2018-10-04T08:47:34Z</time>
      </trkpt>
      <trkpt lat="38.3294070" lon="-0.6922320">
        <ele>340.8</ele>
        <time>2018-10-04T08:47:35Z</time>
      </trkpt>
      <trkpt lat="38.3294090" lon="-0.6922550">
        <ele>341.3</ele>
        <time>2018-10-04T08:47:36Z</time>
      </trkpt>
      <trkpt lat="38.3294100" lon="-0.6922790">
        <ele>341.8</ele>
        <time>2018-10-04T08:47:37Z</time>
      </trkpt>
      <trkpt lat="38.3294130" lon="-0.6923070">
        <ele>342.3</ele>
        <time>2018-10-04T08:47:38Z</time>
      </trkpt>
      <trkpt lat="38.3294120" lon="-0.6923340">
        <ele>342.7</ele>
        <time>2018-10-04T08:47:39Z</time>
      </trkpt>
      <trkpt lat="38.3294110" lon="-0.6923580">
        <ele>343.1</ele>
        <time>2018-10-04T08:47:40Z</time>
      </trkpt>
      <trkpt lat="38.3294100" lon="-0.6923820">
        <ele>343.5</ele>
        <time>2018-10-04T08:47:41Z</time>
      </trkpt>
      <trkpt lat="38.3294060" lon="-0.6924020">
        <ele>343.8</ele>
        <time>2018-10-04T08:47:42Z</time>
      </trkpt>
      <trkpt lat="38.3294000" lon="-0.6924250">
        <ele>344.1</ele>
        <time>2018-10-04T08:47:43Z</time>
      </trkpt>
      <trkpt lat="38.3293970" lon="-0.6924480">
        <ele>344.5</ele>
        <time>2018-10-04T08:47:44Z</time>
      </trkpt>
      <trkpt lat="38.3293950" lon="-0.6924700">
        <ele>344.9</ele>
        <time>2018-10-04T08:47:45Z</time>
      </trkpt>
      <trkpt lat="38.3293900" lon="-0.6924910">
        <ele>345.3</ele>
        <time>2018-10-04T08:47:46Z</time>
      </trkpt>
      <trkpt lat="38.3293850" lon="-0.6925090">
        <ele>345.9</ele>
        <time>2018-10-04T08:47:47Z</time>
      </trkpt>
      <trkpt lat="38.3293810" lon="-0.6925310">
        <ele>346.2</ele>
        <time>2018-10-04T08:47:48Z</time>
      </trkpt>
      <trkpt lat="38.3293770" lon="-0.6925530">
        <ele>346.5</ele>
        <time>2018-10-04T08:47:49Z</time>
      </trkpt>
      <trkpt lat="38.3293690" lon="-0.6925770">
        <ele>346.8</ele>
        <time>2018-10-04T08:47:50Z</time>
      </trkpt>
      <trkpt lat="38.3293630" lon="-0.6926010">
        <ele>347.2</ele>
        <time>2018-10-04T08:47:51Z</time>
      </trkpt>
      <trkpt lat="38.3293590" lon="-0.6926230">
        <ele>347.6</ele>
        <time>2018-10-04T08:47:52Z</time>
      </trkpt>
      <trkpt lat="38.3293550" lon="-0.6926460">
        <ele>348.0</ele>
        <time>2018-10-04T08:47:53Z</time>
      </trkpt>
      <trkpt lat="38.3293530" lon="-0.6926690">
        <ele>348.4</ele>
        <time>2018-10-04T08:47:54Z</time>
      </trkpt>
      <trkpt lat="38.3293510" lon="-0.6926880">
        <ele>348.6</ele>
        <time>2018-10-04T08:47:55Z</time>
      </trkpt>
      <trkpt lat="38.3293480" lon="-0.6927030">
        <ele>348.8</ele>
        <time>2018-10-04T08:47:56Z</time>
      </trkpt>
      <trkpt lat="38.3293430" lon="-0.6927180">
        <ele>349.0</ele>
        <time>2018-10-04T08:47:57Z</time>
      </trkpt>
      <trkpt lat="38.3293390" lon="-0.6927350">
        <ele>349.2</ele>
        <time>2018-10-04T08:47:58Z</time>
      </trkpt>
      <trkpt lat="38.3293350" lon="-0.6927540">
        <ele>349.4</ele>
        <time>2018-10-04T08:47:59Z</time>
      </trkpt>
      <trkpt lat="38.3293310" lon="-0.6927700">
        <ele>349.5</ele>
        <time>2018-10-04T08:48:00Z</time>
      </trkpt>
      <trkpt lat="38.3293250" lon="-0.6927900">
        <ele>349.7</ele>
        <time>2018-10-04T08:48:01Z</time>
      </trkpt>
      <trkpt lat="38.3293190" lon="-0.6928110">
        <ele>349.9</ele>
        <time>2018-10-04T08:48:02Z</time>
      </trkpt>
      <trkpt lat="38.3293130" lon="-0.6928310">
        <ele>350.2</ele>
        <time>2018-10-04T08:48:03Z</time>
      </trkpt>
      <trkpt lat="38.3293050" lon="-0.6928510">
        <ele>350.5</ele>
        <time>2018-10-04T08:48:04Z</time>
      </trkpt>
      <trkpt lat="38.3292970" lon="-0.6928690">
        <ele>350.6</ele>
        <time>2018-10-04T08:48:05Z</time>
      </trkpt>
      <trkpt lat="38.3292870" lon="-0.6928840">
        <ele>350.7</ele>
        <time>2018-10-04T08:48:06Z</time>
      </trkpt>
      <trkpt lat="38.3292760" lon="-0.6928990">
        <ele>350.9</ele>
        <time>2018-10-04T08:48:07Z</time>
      </trkpt>
      <trkpt lat="38.3292680" lon="-0.6929110">
        <ele>351.0</ele>
        <time>2018-10-04T08:48:08Z</time>
      </trkpt>
      <trkpt lat="38.3292630" lon="-0.6929250">
        <ele>351.1</ele>
        <time>2018-10-04T08:48:09Z</time>
      </trkpt>
      <trkpt lat="38.3292590" lon="-0.6929440">
        <ele>351.2</ele>
        <time>2018-10-04T08:48:10Z</time>
      </trkpt>
      <trkpt lat="38.3292550" lon="-0.6929630">
        <ele>351.3</ele>
        <time>2018-10-04T08:48:11Z</time>
      </trkpt>
      <trkpt lat="38.3292490" lon="-0.6929830">
        <ele>351.4</ele>
        <time>2018-10-04T08:48:12Z</time>
      </trkpt>
      <trkpt lat="38.3292420" lon="-0.6930050">
        <ele>351.6</ele>
        <time>2018-10-04T08:48:13Z</time>
      </trkpt>
      <trkpt lat="38.3292350" lon="-0.6930280">
        <ele>351.7</ele>
        <time>2018-10-04T08:48:14Z</time>
      </trkpt>
      <trkpt lat="38.3292270" lon="-0.6930510">
        <ele>352.2</ele>
        <time>2018-10-04T08:48:15Z</time>
      </trkpt>
      <trkpt lat="38.3292210" lon="-0.6930740">
        <ele>352.5</ele>
        <time>2018-10-04T08:48:16Z</time>
      </trkpt>
      <trkpt lat="38.3292150" lon="-0.6930980">
        <ele>352.8</ele>
        <time>2018-10-04T08:48:17Z</time>
      </trkpt>
      <trkpt lat="38.3292110" lon="-0.6931210">
        <ele>353.1</ele>
        <time>2018-10-04T08:48:18Z</time>
      </trkpt>
      <trkpt lat="38.3292080" lon="-0.6931450">
        <ele>353.3</ele>
        <time>2018-10-04T08:48:19Z</time>
      </trkpt>
      <trkpt lat="38.3292070" lon="-0.6931670">
        <ele>353.6</ele>
        <time>2018-10-04T08:48:20Z</time>
      </trkpt>
      <trkpt lat="38.3292050" lon="-0.6931870">
        <ele>353.8</ele>
        <time>2018-10-04T08:48:21Z</time>
      </trkpt>
      <trkpt lat="38.3292010" lon="-0.6932050">
        <ele>354.0</ele>
        <time>2018-10-04T08:48:22Z</time>
      </trkpt>
      <trkpt lat="38.3292000" lon="-0.6932240">
        <ele>354.2</ele>
        <time>2018-10-04T08:48:23Z</time>
      </trkpt>
      <trkpt lat="38.3292040" lon="-0.6932440">
        <ele>354.5</ele>
        <time>2018-10-04T08:48:24Z</time>
      </trkpt>
      <trkpt lat="38.3292070" lon="-0.6932680">
        <ele>354.8</ele>
        <time>2018-10-04T08:48:25Z</time>
      </trkpt>
      <trkpt lat="38.3292110" lon="-0.6932930">
        <ele>355.1</ele>
        <time>2018-10-04T08:48:26Z</time>
      </trkpt>
      <trkpt lat="38.3292160" lon="-0.6933140">
        <ele>355.4</ele>
        <time>2018-10-04T08:48:27Z</time>
      </trkpt>
      <trkpt lat="38.3292200" lon="-0.6933320">
        <ele>355.6</ele>
        <time>2018-10-04T08:48:28Z</time>
      </trkpt>
      <trkpt lat="38.3292230" lon="-0.6933530">
        <ele>355.9</ele>
        <time>2018-10-04T08:48:29Z</time>
      </trkpt>
      <trkpt lat="38.3292230" lon="-0.6933770">
        <ele>356.1</ele>
        <time>2018-10-04T08:48:30Z</time>
      </trkpt>
      <trkpt lat="38.3292250" lon="-0.6933990">
        <ele>356.4</ele>
        <time>2018-10-04T08:48:31Z</time>
      </trkpt>
      <trkpt lat="38.3292270" lon="-0.6934190">
        <ele>356.6</ele>
        <time>2018-10-04T08:48:32Z</time>
      </trkpt>
      <trkpt lat="38.3292270" lon="-0.6934380">
        <ele>356.8</ele>
        <time>2018-10-04T08:48:33Z</time>
      </trkpt>
      <trkpt lat="38.3292280" lon="-0.6934590">
        <ele>357.0</ele>
        <time>2018-10-04T08:48:34Z</time>
      </trkpt>
      <trkpt lat="38.3292290" lon="-0.6934770">
        <ele>357.2</ele>
        <time>2018-10-04T08:48:35Z</time>
      </trkpt>
      <trkpt lat="38.3292270" lon="-0.6934940">
        <ele>357.4</ele>
        <time>2018-10-04T08:48:36Z</time>
      </trkpt>
      <trkpt lat="38.3292250" lon="-0.6935160">
        <ele>357.6</ele>
        <time>2018-10-04T08:48:37Z</time>
      </trkpt>
      <trkpt lat="38.3292250" lon="-0.6935330">
        <ele>357.8</ele>
        <time>2018-10-04T08:48:38Z</time>
      </trkpt>
      <trkpt lat="38.3292270" lon="-0.6935520">
        <ele>358.0</ele>
        <time>2018-10-04T08:48:39Z</time>
      </trkpt>
      <trkpt lat="38.3292270" lon="-0.6935710">
        <ele>358.2</ele>
        <time>2018-10-04T08:48:40Z</time>
      </trkpt>
      <trkpt lat="38.3292250" lon="-0.6935900">
        <ele>358.4</ele>
        <time>2018-10-04T08:48:41Z</time>
      </trkpt>
      <trkpt lat="38.3292250" lon="-0.6936080">
        <ele>358.5</ele>
        <time>2018-10-04T08:48:42Z</time>
      </trkpt>
      <trkpt lat="38.3292250" lon="-0.6936240">
        <ele>358.6</ele>
        <time>2018-10-04T08:48:43Z</time>
      </trkpt>
      <trkpt lat="38.3292260" lon="-0.6936390">
        <ele>358.7</ele>
        <time>2018-10-04T08:48:44Z</time>
      </trkpt>
      <trkpt lat="38.3292270" lon="-0.6936570">
        <ele>358.9</ele>
        <time>2018-10-04T08:48:45Z</time>
      </trkpt>
      <trkpt lat="38.3292270" lon="-0.6936740">
        <ele>359.1</ele>
        <time>2018-10-04T08:48:46Z</time>
      </trkpt>
      <trkpt lat="38.3292270" lon="-0.6936910">
        <ele>359.2</ele>
        <time>2018-10-04T08:48:47Z</time>
      </trkpt>
      <trkpt lat="38.3292250" lon="-0.6937080">
        <ele>359.3</ele>
        <time>2018-10-04T08:48:48Z</time>
      </trkpt>
      <trkpt lat="38.3292250" lon="-0.6937280">
        <ele>359.4</ele>
        <time>2018-10-04T08:48:49Z</time>
      </trkpt>
      <trkpt lat="38.3292250" lon="-0.6937480">
        <ele>359.5</ele>
        <time>2018-10-04T08:48:50Z</time>
      </trkpt>
      <trkpt lat="38.3292250" lon="-0.6937680">
        <ele>359.6</ele>
        <time>2018-10-04T08:48:51Z</time>
      </trkpt>
      <trkpt lat="38.3292230" lon="-0.6937860">
        <ele>359.7</ele>
        <time>2018-10-04T08:48:52Z</time>
      </trkpt>
      <trkpt lat="38.3292200" lon="-0.6938050">
        <ele>359.8</ele>
        <time>2018-10-04T08:48:53Z</time>
      </trkpt>
      <trkpt lat="38.3292160" lon="-0.6938260">
        <ele>359.9</ele>
        <time>2018-10-04T08:48:54Z</time>
      </trkpt>
      <trkpt lat="38.3292120" lon="-0.6938490">
        <ele>360.0</ele>
        <time>2018-10-04T08:48:55Z</time>
      </trkpt>
      <trkpt lat="38.3292080" lon="-0.6938730">
        <ele>360.1</ele>
        <time>2018-10-04T08:48:56Z</time>
      </trkpt>
      <trkpt lat="38.3292040" lon="-0.6938940">
        <ele>360.3</ele>
        <time>2018-10-04T08:48:57Z</time>
      </trkpt>
      <trkpt lat="38.3291940" lon="-0.6939150">
        <ele>360.4</ele>
        <time>2018-10-04T08:48:58Z</time>
      </trkpt>
      <trkpt lat="38.3291860" lon="-0.6939360">
        <ele>360.6</ele>
        <time>2018-10-04T08:48:59Z</time>
      </trkpt>
      <trkpt lat="38.3291800" lon="-0.6939590">
        <ele>360.7</ele>
        <time>2018-10-04T08:49:00Z</time>
      </trkpt>
      <trkpt lat="38.3291710" lon="-0.6939810">
        <ele>360.9</ele>
        <time>2018-10-04T08:49:01Z</time>
      </trkpt>
      <trkpt lat="38.3291630" lon="-0.6940050">
        <ele>361.0</ele>
        <time>2018-10-04T08:49:02Z</time>
      </trkpt>
      <trkpt lat="38.3291570" lon="-0.6940280">
        <ele>361.1</ele>
        <time>2018-10-04T08:49:03Z</time>
      </trkpt>
      <trkpt lat="38.3291530" lon="-0.6940500">
        <ele>361.2</ele>
        <time>2018-10-04T08:49:04Z</time>
      </trkpt>
      <trkpt lat="38.3291480" lon="-0.6940740">
        <ele>361.4</ele>
        <time>2018-10-04T08:49:05Z</time>
      </trkpt>
      <trkpt lat="38.3291420" lon="-0.6940970">
        <ele>361.5</ele>
        <time>2018-10-04T08:49:06Z</time>
      </trkpt>
      <trkpt lat="38.3291380" lon="-0.6941200">
        <ele>361.8</ele>
        <time>2018-10-04T08:49:07Z</time>
      </trkpt>
      <trkpt lat="38.3291320" lon="-0.6941430">
        <ele>361.9</ele>
        <time>2018-10-04T08:49:08Z</time>
      </trkpt>
      <trkpt lat="38.3291270" lon="-0.6941670">
        <ele>362.0</ele>
        <time>2018-10-04T08:49:09Z</time>
      </trkpt>
      <trkpt lat="38.3291210" lon="-0.6941910">
        <ele>362.2</ele>
        <time>2018-10-04T08:49:10Z</time>
      </trkpt>
      <trkpt lat="38.3291160" lon="-0.6942150">
        <ele>362.3</ele>
        <time>2018-10-04T08:49:11Z</time>
      </trkpt>
      <trkpt lat="38.3291100" lon="-0.6942390">
        <ele>362.4</ele>
        <time>2018-10-04T08:49:12Z</time>
      </trkpt>
      <trkpt lat="38.3291050" lon="-0.6942610">
        <ele>362.6</ele>
        <time>2018-10-04T08:49:13Z</time>
      </trkpt>
      <trkpt lat="38.3291030" lon="-0.6942800">
        <ele>362.7</ele>
        <time>2018-10-04T08:49:14Z</time>
      </trkpt>
      <trkpt lat="38.3290990" lon="-0.6943010">
        <ele>362.8</ele>
        <time>2018-10-04T08:49:15Z</time>
      </trkpt>
      <trkpt lat="38.3290910" lon="-0.6943220">
        <ele>362.8</ele>
        <time>2018-10-04T08:49:16Z</time>
      </trkpt>
      <trkpt lat="38.3290820" lon="-0.6943440">
        <ele>362.9</ele>
        <time>2018-10-04T08:49:17Z</time>
      </trkpt>
      <trkpt lat="38.3290720" lon="-0.6943710">
        <ele>362.9</ele>
        <time>2018-10-04T08:49:18Z</time>
      </trkpt>
      <trkpt lat="38.3290610" lon="-0.6944010">
        <ele>363.0</ele>
        <time>2018-10-04T08:49:19Z</time>
      </trkpt>
      <trkpt lat="38.3290520" lon="-0.6944350">
        <ele>363.0</ele>
        <time>2018-10-04T08:49:20Z</time>
      </trkpt>
      <trkpt lat="38.3290430" lon="-0.6944690">
        <ele>363.1</ele>
        <time>2018-10-04T08:49:21Z</time>
      </trkpt>
      <trkpt lat="38.3290340" lon="-0.6945000">
        <ele>363.2</ele>
        <time>2018-10-04T08:49:22Z</time>
      </trkpt>
      <trkpt lat="38.3290230" lon="-0.6945320">
        <ele>363.2</ele>
        <time>2018-10-04T08:49:23Z</time>
      </trkpt>
      <trkpt lat="38.3290110" lon="-0.6945620">
        <ele>363.3</ele>
        <time>2018-10-04T08:49:24Z</time>
      </trkpt>
      <trkpt lat="38.3289990" lon="-0.6945940">
        <ele>363.3</ele>
        <time>2018-10-04T08:49:25Z</time>
      </trkpt>
      <trkpt lat="38.3289900" lon="-0.6946280">
        <ele>363.3</ele>
        <time>2018-10-04T08:49:26Z</time>
      </trkpt>
      <trkpt lat="38.3289810" lon="-0.6946640">
        <ele>363.2</ele>
        <time>2018-10-04T08:49:27Z</time>
      </trkpt>
      <trkpt lat="38.3289700" lon="-0.6946990">
        <ele>363.2</ele>
        <time>2018-10-04T08:49:28Z</time>
      </trkpt>
      <trkpt lat="38.3289560" lon="-0.6947360">
        <ele>363.2</ele>
        <time>2018-10-04T08:49:29Z</time>
      </trkpt>
      <trkpt lat="38.3289460" lon="-0.6947780">
        <ele>363.1</ele>
        <time>2018-10-04T08:49:30Z</time>
      </trkpt>
      <trkpt lat="38.3289330" lon="-0.6948220">
        <ele>363.1</ele>
        <time>2018-10-04T08:49:31Z</time>
      </trkpt>
      <trkpt lat="38.3289200" lon="-0.6948700">
        <ele>363.0</ele>
        <time>2018-10-04T08:49:32Z</time>
      </trkpt>
      <trkpt lat="38.3289070" lon="-0.6949190">
        <ele>362.8</ele>
        <time>2018-10-04T08:49:33Z</time>
      </trkpt>
      <trkpt lat="38.3288950" lon="-0.6949680">
        <ele>362.6</ele>
        <time>2018-10-04T08:49:34Z</time>
      </trkpt>
      <trkpt lat="38.3288810" lon="-0.6950230">
        <ele>362.2</ele>
        <time>2018-10-04T08:49:35Z</time>
      </trkpt>
      <trkpt lat="38.3288610" lon="-0.6950850">
        <ele>361.7</ele>
        <time>2018-10-04T08:49:36Z</time>
      </trkpt>
      <trkpt lat="38.3288370" lon="-0.6951480">
        <ele>361.0</ele>
        <time>2018-10-04T08:49:37Z</time>
      </trkpt>
      <trkpt lat="38.3288020" lon="-0.6952090">
        <ele>360.5</ele>
        <time>2018-10-04T08:49:38Z</time>
      </trkpt>
      <trkpt lat="38.3287600" lon="-0.6952740">
        <ele>359.9</ele>
        <time>2018-10-04T08:49:39Z</time>
      </trkpt>
      <trkpt lat="38.3287130" lon="-0.6953420">
        <ele>359.5</ele>
        <time>2018-10-04T08:49:40Z</time>
      </trkpt>
      <trkpt lat="38.3286620" lon="-0.6954150">
        <ele>359.6</ele>
        <time>2018-10-04T08:49:41Z</time>
      </trkpt>
      <trkpt lat="38.3286110" lon="-0.6954800">
        <ele>359.6</ele>
        <time>2018-10-04T08:49:42Z</time>
      </trkpt>
      <trkpt lat="38.3285740" lon="-0.6955520">
        <ele>359.7</ele>
        <time>2018-10-04T08:49:43Z</time>
      </trkpt>
      <trkpt lat="38.3285400" lon="-0.6956260">
        <ele>359.8</ele>
        <time>2018-10-04T08:49:44Z</time>
      </trkpt>
      <trkpt lat="38.3285050" lon="-0.6956960">
        <ele>360.1</ele>
        <time>2018-10-04T08:49:45Z</time>
      </trkpt>
      <trkpt lat="38.3284790" lon="-0.6957630">
        <ele>360.5</ele>
        <time>2018-10-04T08:49:46Z</time>
      </trkpt>
      <trkpt lat="38.3284580" lon="-0.6958180">
        <ele>361.7</ele>
        <time>2018-10-04T08:49:47Z</time>
      </trkpt>
      <trkpt lat="38.3284530" lon="-0.6958580">
        <ele>362.3</ele>
        <time>2018-10-04T08:49:48Z</time>
      </trkpt>
      <trkpt lat="38.3284460" lon="-0.6958920">
        <ele>362.9</ele>
        <time>2018-10-04T08:49:49Z</time>
      </trkpt>
      <trkpt lat="38.3284380" lon="-0.6959190">
        <ele>363.4</ele>
        <time>2018-10-04T08:49:50Z</time>
      </trkpt>
      <trkpt lat="38.3284300" lon="-0.6959430">
        <ele>363.9</ele>
        <time>2018-10-04T08:49:51Z</time>
      </trkpt>
      <trkpt lat="38.3284230" lon="-0.6959660">
        <ele>364.3</ele>
        <time>2018-10-04T08:49:52Z</time>
      </trkpt>
      <trkpt lat="38.3284160" lon="-0.6959890">
        <ele>364.7</ele>
        <time>2018-10-04T08:49:53Z</time>
      </trkpt>
      <trkpt lat="38.3284090" lon="-0.6960130">
        <ele>365.2</ele>
        <time>2018-10-04T08:49:54Z</time>
      </trkpt>
      <trkpt lat="38.3284040" lon="-0.6960360">
        <ele>365.5</ele>
        <time>2018-10-04T08:49:55Z</time>
      </trkpt>
      <trkpt lat="38.3283990" lon="-0.6960580">
        <ele>365.9</ele>
        <time>2018-10-04T08:49:56Z</time>
      </trkpt>
      <trkpt lat="38.3283950" lon="-0.6960820">
        <ele>366.2</ele>
        <time>2018-10-04T08:49:57Z</time>
      </trkpt>
      <trkpt lat="38.3283900" lon="-0.6961020">
        <ele>366.5</ele>
        <time>2018-10-04T08:49:58Z</time>
      </trkpt>
      <trkpt lat="38.3283830" lon="-0.6961230">
        <ele>366.8</ele>
        <time>2018-10-04T08:49:59Z</time>
      </trkpt>
      <trkpt lat="38.3283770" lon="-0.6961430">
        <ele>367.1</ele>
        <time>2018-10-04T08:50:00Z</time>
      </trkpt>
      <trkpt lat="38.3283770" lon="-0.6961620">
        <ele>367.3</ele>
        <time>2018-10-04T08:50:01Z</time>
      </trkpt>
      <trkpt lat="38.3283740" lon="-0.6961780">
        <ele>367.5</ele>
        <time>2018-10-04T08:50:02Z</time>
      </trkpt>
      <trkpt lat="38.3283720" lon="-0.6961990">
        <ele>367.7</ele>
        <time>2018-10-04T08:50:03Z</time>
      </trkpt>
      <trkpt lat="38.3283690" lon="-0.6962190">
        <ele>367.9</ele>
        <time>2018-10-04T08:50:04Z</time>
      </trkpt>
      <trkpt lat="38.3283690" lon="-0.6962410">
        <ele>368.1</ele>
        <time>2018-10-04T08:50:05Z</time>
      </trkpt>
      <trkpt lat="38.3283730" lon="-0.6962630">
        <ele>368.1</ele>
        <time>2018-10-04T08:50:06Z</time>
      </trkpt>
      <trkpt lat="38.3283760" lon="-0.6962870">
        <ele>368.2</ele>
        <time>2018-10-04T08:50:07Z</time>
      </trkpt>
      <trkpt lat="38.3283820" lon="-0.6963130">
        <ele>368.3</ele>
        <time>2018-10-04T08:50:08Z</time>
      </trkpt>
      <trkpt lat="38.3283890" lon="-0.6963400">
        <ele>368.4</ele>
        <time>2018-10-04T08:50:09Z</time>
      </trkpt>
      <trkpt lat="38.3283950" lon="-0.6963680">
        <ele>368.5</ele>
        <time>2018-10-04T08:50:10Z</time>
      </trkpt>
      <trkpt lat="38.3284010" lon="-0.6963990">
        <ele>368.5</ele>
        <time>2018-10-04T08:50:11Z</time>
      </trkpt>
      <trkpt lat="38.3284070" lon="-0.6964330">
        <ele>368.4</ele>
        <time>2018-10-04T08:50:12Z</time>
      </trkpt>
      <trkpt lat="38.3284110" lon="-0.6964720">
        <ele>368.4</ele>
        <time>2018-10-04T08:50:13Z</time>
      </trkpt>
      <trkpt lat="38.3284160" lon="-0.6965170">
        <ele>368.3</ele>
        <time>2018-10-04T08:50:14Z</time>
      </trkpt>
      <trkpt lat="38.3284180" lon="-0.6965680">
        <ele>368.0</ele>
        <time>2018-10-04T08:50:15Z</time>
      </trkpt>
      <trkpt lat="38.3284160" lon="-0.6966220">
        <ele>367.8</ele>
        <time>2018-10-04T08:50:16Z</time>
      </trkpt>
      <trkpt lat="38.3284140" lon="-0.6966790">
        <ele>367.6</ele>
        <time>2018-10-04T08:50:17Z</time>
      </trkpt>
      <trkpt lat="38.3284120" lon="-0.6967400">
        <ele>367.4</ele>
        <time>2018-10-04T08:50:18Z</time>
      </trkpt>
      <trkpt lat="38.3284080" lon="-0.6968050">
        <ele>367.1</ele>
        <time>2018-10-04T08:50:19Z</time>
      </trkpt>
      <trkpt lat="38.3284100" lon="-0.6968740">
        <ele>366.9</ele>
        <time>2018-10-04T08:50:20Z</time>
      </trkpt>
      <trkpt lat="38.3284100" lon="-0.6969500">
        <ele>366.5</ele>
        <time>2018-10-04T08:50:21Z</time>
      </trkpt>
      <trkpt lat="38.3284100" lon="-0.6970310">
        <ele>365.9</ele>
        <time>2018-10-04T08:50:22Z</time>
      </trkpt>
      <trkpt lat="38.3284180" lon="-0.6971140">
        <ele>365.6</ele>
        <time>2018-10-04T08:50:23Z</time>
      </trkpt>
      <trkpt lat="38.3284270" lon="-0.6972000">
        <ele>365.4</ele>
        <time>2018-10-04T08:50:24Z</time>
      </trkpt>
      <trkpt lat="38.3284340" lon="-0.6972850">
        <ele>365.1</ele>
        <time>2018-10-04T08:50:25Z</time>
      </trkpt>
      <trkpt lat="38.3284400" lon="-0.6973680">
        <ele>365.1</ele>
        <time>2018-10-04T08:50:26Z</time>
      </trkpt>
      <trkpt lat="38.3284450" lon="-0.6974500">
        <ele>365.1</ele>
        <time>2018-10-04T08:50:27Z</time>
      </trkpt>
      <trkpt lat="38.3284550" lon="-0.6975280">
        <ele>365.2</ele>
        <time>2018-10-04T08:50:28Z</time>
      </trkpt>
      <trkpt lat="38.3284660" lon="-0.6976040">
        <ele>365.3</ele>
        <time>2018-10-04T08:50:29Z</time>
      </trkpt>
      <trkpt lat="38.3284730" lon="-0.6976780">
        <ele>365.4</ele>
        <time>2018-10-04T08:50:30Z</time>
      </trkpt>
      <trkpt lat="38.3284770" lon="-0.6977420">
        <ele>365.5</ele>
        <time>2018-10-04T08:50:31Z</time>
      </trkpt>
      <trkpt lat="38.3284820" lon="-0.6977870">
        <ele>365.8</ele>
        <time>2018-10-04T08:50:32Z</time>
      </trkpt>
      <trkpt lat="38.3284860" lon="-0.6978200">
        <ele>366.1</ele>
        <time>2018-10-04T08:50:33Z</time>
      </trkpt>
      <trkpt lat="38.3284890" lon="-0.6978460">
        <ele>366.3</ele>
        <time>2018-10-04T08:50:34Z</time>
      </trkpt>
      <trkpt lat="38.3284920" lon="-0.6978680">
        <ele>366.6</ele>
        <time>2018-10-04T08:50:35Z</time>
      </trkpt>
      <trkpt lat="38.3284960" lon="-0.6978930">
        <ele>366.9</ele>
        <time>2018-10-04T08:50:36Z</time>
      </trkpt>
      <trkpt lat="38.3285000" lon="-0.6979200">
        <ele>367.2</ele>
        <time>2018-10-04T08:50:37Z</time>
      </trkpt>
      <trkpt lat="38.3285040" lon="-0.6979500">
        <ele>367.6</ele>
        <time>2018-10-04T08:50:38Z</time>
      </trkpt>
      <trkpt lat="38.3285100" lon="-0.6979790">
        <ele>368.0</ele>
        <time>2018-10-04T08:50:39Z</time>
      </trkpt>
      <trkpt lat="38.3285190" lon="-0.6980050">
        <ele>368.4</ele>
        <time>2018-10-04T08:50:40Z</time>
      </trkpt>
      <trkpt lat="38.3285230" lon="-0.6980280">
        <ele>368.6</ele>
        <time>2018-10-04T08:50:41Z</time>
      </trkpt>
      <trkpt lat="38.3285250" lon="-0.6980500">
        <ele>368.9</ele>
        <time>2018-10-04T08:50:42Z</time>
      </trkpt>
      <trkpt lat="38.3285280" lon="-0.6980730">
        <ele>369.1</ele>
        <time>2018-10-04T08:50:43Z</time>
      </trkpt>
      <trkpt lat="38.3285290" lon="-0.6980960">
        <ele>369.4</ele>
        <time>2018-10-04T08:50:44Z</time>
      </trkpt>
      <trkpt lat="38.3285280" lon="-0.6981220">
        <ele>369.7</ele>
        <time>2018-10-04T08:50:45Z</time>
      </trkpt>
      <trkpt lat="38.3285230" lon="-0.6981460">
        <ele>370.0</ele>
        <time>2018-10-04T08:50:46Z</time>
      </trkpt>
      <trkpt lat="38.3285180" lon="-0.6981690">
        <ele>370.3</ele>
        <time>2018-10-04T08:50:47Z</time>
      </trkpt>
      <trkpt lat="38.3285150" lon="-0.6981920">
        <ele>370.6</ele>
        <time>2018-10-04T08:50:48Z</time>
      </trkpt>
      <trkpt lat="38.3285100" lon="-0.6982130">
        <ele>370.9</ele>
        <time>2018-10-04T08:50:49Z</time>
      </trkpt>
      <trkpt lat="38.3285060" lon="-0.6982390">
        <ele>371.3</ele>
        <time>2018-10-04T08:50:50Z</time>
      </trkpt>
      <trkpt lat="38.3285000" lon="-0.6982610">
        <ele>371.6</ele>
        <time>2018-10-04T08:50:51Z</time>
      </trkpt>
      <trkpt lat="38.3284960" lon="-0.6982800">
        <ele>371.9</ele>
        <time>2018-10-04T08:50:52Z</time>
      </trkpt>
      <trkpt lat="38.3284920" lon="-0.6982980">
        <ele>372.2</ele>
        <time>2018-10-04T08:50:53Z</time>
      </trkpt>
      <trkpt lat="38.3284910" lon="-0.6983170">
        <ele>372.5</ele>
        <time>2018-10-04T08:50:54Z</time>
      </trkpt>
      <trkpt lat="38.3284890" lon="-0.6983360">
        <ele>372.8</ele>
        <time>2018-10-04T08:50:55Z</time>
      </trkpt>
      <trkpt lat="38.3284890" lon="-0.6983570">
        <ele>373.1</ele>
        <time>2018-10-04T08:50:56Z</time>
      </trkpt>
      <trkpt lat="38.3284880" lon="-0.6983800">
        <ele>373.4</ele>
        <time>2018-10-04T08:50:57Z</time>
      </trkpt>
      <trkpt lat="38.3284870" lon="-0.6984070">
        <ele>374.0</ele>
        <time>2018-10-04T08:50:58Z</time>
      </trkpt>
      <trkpt lat="38.3284870" lon="-0.6984350">
        <ele>374.5</ele>
        <time>2018-10-04T08:50:59Z</time>
      </trkpt>
      <trkpt lat="38.3284850" lon="-0.6984650">
        <ele>374.9</ele>
        <time>2018-10-04T08:51:00Z</time>
      </trkpt>
      <trkpt lat="38.3284790" lon="-0.6984920">
        <ele>375.3</ele>
        <time>2018-10-04T08:51:01Z</time>
      </trkpt>
      <trkpt lat="38.3284710" lon="-0.6985160">
        <ele>375.7</ele>
        <time>2018-10-04T08:51:02Z</time>
      </trkpt>
      <trkpt lat="38.3284650" lon="-0.6985350">
        <ele>376.0</ele>
        <time>2018-10-04T08:51:03Z</time>
      </trkpt>
      <trkpt lat="38.3284580" lon="-0.6985520">
        <ele>376.2</ele>
        <time>2018-10-04T08:51:04Z</time>
      </trkpt>
      <trkpt lat="38.3284520" lon="-0.6985680">
        <ele>376.4</ele>
        <time>2018-10-04T08:51:05Z</time>
      </trkpt>
      <trkpt lat="38.3284430" lon="-0.6985850">
        <ele>376.6</ele>
        <time>2018-10-04T08:51:06Z</time>
      </trkpt>
      <trkpt lat="38.3284330" lon="-0.6986000">
        <ele>376.8</ele>
        <time>2018-10-04T08:51:07Z</time>
      </trkpt>
      <trkpt lat="38.3284220" lon="-0.6986130">
        <ele>377.0</ele>
        <time>2018-10-04T08:51:08Z</time>
      </trkpt>
      <trkpt lat="38.3284120" lon="-0.6986280">
        <ele>377.2</ele>
        <time>2018-10-04T08:51:09Z</time>
      </trkpt>
      <trkpt lat="38.3284030" lon="-0.6986450">
        <ele>377.4</ele>
        <time>2018-10-04T08:51:10Z</time>
      </trkpt>
      <trkpt lat="38.3283950" lon="-0.6986660">
        <ele>377.6</ele>
        <time>2018-10-04T08:51:11Z</time>
      </trkpt>
      <trkpt lat="38.3283830" lon="-0.6986870">
        <ele>377.6</ele>
        <time>2018-10-04T08:51:12Z</time>
      </trkpt>
      <trkpt lat="38.3283710" lon="-0.6987100">
        <ele>377.7</ele>
        <time>2018-10-04T08:51:13Z</time>
      </trkpt>
      <trkpt lat="38.3283600" lon="-0.6987330">
        <ele>377.7</ele>
        <time>2018-10-04T08:51:14Z</time>
      </trkpt>
      <trkpt lat="38.3283450" lon="-0.6987520">
        <ele>377.8</ele>
        <time>2018-10-04T08:51:15Z</time>
      </trkpt>
      <trkpt lat="38.3283280" lon="-0.6987700">
        <ele>377.0</ele>
        <time>2018-10-04T08:51:16Z</time>
      </trkpt>
      <trkpt lat="38.3283090" lon="-0.6987810">
        <ele>377.4</ele>
        <time>2018-10-04T08:51:17Z</time>
      </trkpt>
      <trkpt lat="38.3282870" lon="-0.6987810">
        <ele>377.8</ele>
        <time>2018-10-04T08:51:18Z</time>
      </trkpt>
      <trkpt lat="38.3282630" lon="-0.6987680">
        <ele>377.0</ele>
        <time>2018-10-04T08:51:19Z</time>
      </trkpt>
      <trkpt lat="38.3282350" lon="-0.6987630">
        <ele>377.3</ele>
        <time>2018-10-04T08:51:20Z</time>
      </trkpt>
      <trkpt lat="38.3282030" lon="-0.6987520">
        <ele>377.5</ele>
        <time>2018-10-04T08:51:21Z</time>
      </trkpt>
      <trkpt lat="38.3281620" lon="-0.6987400">
        <ele>377.4</ele>
        <time>2018-10-04T08:51:22Z</time>
      </trkpt>
      <trkpt lat="38.3281220" lon="-0.6987210">
        <ele>378.3</ele>
        <time>2018-10-04T08:51:23Z</time>
      </trkpt>
      <trkpt lat="38.3280860" lon="-0.6986980">
        <ele>378.2</ele>
        <time>2018-10-04T08:51:24Z</time>
      </trkpt>
      <trkpt lat="38.3280530" lon="-0.6986760">
        <ele>378.3</ele>
        <time>2018-10-04T08:51:25Z</time>
      </trkpt>
      <trkpt lat="38.3280230" lon="-0.6986660">
        <ele>377.4</ele>
        <time>2018-10-04T08:51:26Z</time>
      </trkpt>
      <trkpt lat="38.3279920" lon="-0.6986670">
        <ele>377.4</ele>
        <time>2018-10-04T08:51:27Z</time>
      </trkpt>
      <trkpt lat="38.3279630" lon="-0.6986790">
        <ele>377.4</ele>
        <time>2018-10-04T08:51:28Z</time>
      </trkpt>
      <trkpt lat="38.3279480" lon="-0.6987000">
        <ele>377.5</ele>
        <time>2018-10-04T08:51:29Z</time>
      </trkpt>
      <trkpt lat="38.3279390" lon="-0.6987220">
        <ele>377.5</ele>
        <time>2018-10-04T08:51:30Z</time>
      </trkpt>
      <trkpt lat="38.3279300" lon="-0.6987420">
        <ele>377.5</ele>
        <time>2018-10-04T08:51:31Z</time>
      </trkpt>
      <trkpt lat="38.3279200" lon="-0.6987600">
        <ele>377.5</ele>
        <time>2018-10-04T08:51:32Z</time>
      </trkpt>
      <trkpt lat="38.3279090" lon="-0.6987780">
        <ele>377.5</ele>
        <time>2018-10-04T08:51:33Z</time>
      </trkpt>
      <trkpt lat="38.3278990" lon="-0.6987950">
        <ele>377.5</ele>
        <time>2018-10-04T08:51:34Z</time>
      </trkpt>
      <trkpt lat="38.3278860" lon="-0.6988100">
        <ele>377.5</ele>
        <time>2018-10-04T08:51:35Z</time>
      </trkpt>
      <trkpt lat="38.3278720" lon="-0.6988260">
        <ele>377.5</ele>
        <time>2018-10-04T08:51:36Z</time>
      </trkpt>
      <trkpt lat="38.3278570" lon="-0.6988420">
        <ele>377.5</ele>
        <time>2018-10-04T08:51:37Z</time>
      </trkpt>
      <trkpt lat="38.3278420" lon="-0.6988580">
        <ele>377.5</ele>
        <time>2018-10-04T08:51:38Z</time>
      </trkpt>
      <trkpt lat="38.3278300" lon="-0.6988780">
        <ele>377.6</ele>
        <time>2018-10-04T08:51:39Z</time>
      </trkpt>
      <trkpt lat="38.3278170" lon="-0.6988970">
        <ele>377.6</ele>
        <time>2018-10-04T08:51:40Z</time>
      </trkpt>
      <trkpt lat="38.3278030" lon="-0.6989160">
        <ele>377.6</ele>
        <time>2018-10-04T08:51:41Z</time>
      </trkpt>
      <trkpt lat="38.3277900" lon="-0.6989350">
        <ele>377.6</ele>
        <time>2018-10-04T08:51:42Z</time>
      </trkpt>
      <trkpt lat="38.3277760" lon="-0.6989570">
        <ele>377.6</ele>
        <time>2018-10-04T08:51:43Z</time>
      </trkpt>
      <trkpt lat="38.3277610" lon="-0.6989750">
        <ele>377.6</ele>
        <time>2018-10-04T08:51:44Z</time>
      </trkpt>
      <trkpt lat="38.3277450" lon="-0.6989920">
        <ele>377.6</ele>
        <time>2018-10-04T08:51:45Z</time>
      </trkpt>
      <trkpt lat="38.3277270" lon="-0.6990110">
        <ele>377.6</ele>
        <time>2018-10-04T08:51:46Z</time>
      </trkpt>
      <trkpt lat="38.3277080" lon="-0.6990310">
        <ele>377.7</ele>
        <time>2018-10-04T08:51:47Z</time>
      </trkpt>
      <trkpt lat="38.3276870" lon="-0.6990510">
        <ele>377.7</ele>
        <time>2018-10-04T08:51:48Z</time>
      </trkpt>
      <trkpt lat="38.3276640" lon="-0.6990710">
        <ele>377.7</ele>
        <time>2018-10-04T08:51:49Z</time>
      </trkpt>
      <trkpt lat="38.3276390" lon="-0.6990880">
        <ele>377.7</ele>
        <time>2018-10-04T08:51:50Z</time>
      </trkpt>
      <trkpt lat="38.3276150" lon="-0.6991050">
        <ele>377.8</ele>
        <time>2018-10-04T08:51:51Z</time>
      </trkpt>
      <trkpt lat="38.3275900" lon="-0.6991210">
        <ele>377.8</ele>
        <time>2018-10-04T08:51:52Z</time>
      </trkpt>
      <trkpt lat="38.3275630" lon="-0.6991330">
        <ele>377.8</ele>
        <time>2018-10-04T08:51:53Z</time>
      </trkpt>
      <trkpt lat="38.3275340" lon="-0.6991430">
        <ele>377.8</ele>
        <time>2018-10-04T08:51:54Z</time>
      </trkpt>
      <trkpt lat="38.3275070" lon="-0.6991490">
        <ele>377.9</ele>
        <time>2018-10-04T08:51:55Z</time>
      </trkpt>
      <trkpt lat="38.3274800" lon="-0.6991550">
        <ele>377.9</ele>
        <time>2018-10-04T08:51:56Z</time>
      </trkpt>
      <trkpt lat="38.3274540" lon="-0.6991600">
        <ele>377.9</ele>
        <time>2018-10-04T08:51:57Z</time>
      </trkpt>
      <trkpt lat="38.3274280" lon="-0.6991630">
        <ele>377.9</ele>
        <time>2018-10-04T08:51:58Z</time>
      </trkpt>
      <trkpt lat="38.3274030" lon="-0.6991660">
        <ele>377.9</ele>
        <time>2018-10-04T08:51:59Z</time>
      </trkpt>
      <trkpt lat="38.3273790" lon="-0.6991690">
        <ele>378.0</ele>
        <time>2018-10-04T08:52:00Z</time>
      </trkpt>
      <trkpt lat="38.3273570" lon="-0.6991710">
        <ele>378.0</ele>
        <time>2018-10-04T08:52:01Z</time>
      </trkpt>
      <trkpt lat="38.3273330" lon="-0.6991730">
        <ele>378.0</ele>
        <time>2018-10-04T08:52:02Z</time>
      </trkpt>
      <trkpt lat="38.3273090" lon="-0.6991750">
        <ele>378.0</ele>
        <time>2018-10-04T08:52:03Z</time>
      </trkpt>
      <trkpt lat="38.3272860" lon="-0.6991750">
        <ele>378.0</ele>
        <time>2018-10-04T08:52:04Z</time>
      </trkpt>
      <trkpt lat="38.3272640" lon="-0.6991760">
        <ele>378.0</ele>
        <time>2018-10-04T08:52:05Z</time>
      </trkpt>
      <trkpt lat="38.3272410" lon="-0.6991800">
        <ele>378.1</ele>
        <time>2018-10-04T08:52:06Z</time>
      </trkpt>
      <trkpt lat="38.3272200" lon="-0.6991820">
        <ele>378.1</ele>
        <time>2018-10-04T08:52:07Z</time>
      </trkpt>
      <trkpt lat="38.3271990" lon="-0.6991840">
        <ele>378.1</ele>
        <time>2018-10-04T08:52:08Z</time>
      </trkpt>
      <trkpt lat="38.3271780" lon="-0.6991860">
        <ele>378.1</ele>
        <time>2018-10-04T08:52:09Z</time>
      </trkpt>
      <trkpt lat="38.3271570" lon="-0.6991880">
        <ele>378.1</ele>
        <time>2018-10-04T08:52:10Z</time>
      </trkpt>
      <trkpt lat="38.3271370" lon="-0.6991880">
        <ele>378.1</ele>
        <time>2018-10-04T08:52:11Z</time>
      </trkpt>
      <trkpt lat="38.3271180" lon="-0.6991910">
        <ele>378.1</ele>
        <time>2018-10-04T08:52:12Z</time>
      </trkpt>
      <trkpt lat="38.3270980" lon="-0.6991920">
        <ele>378.2</ele>
        <time>2018-10-04T08:52:13Z</time>
      </trkpt>
      <trkpt lat="38.3270780" lon="-0.6991940">
        <ele>378.2</ele>
        <time>2018-10-04T08:52:14Z</time>
      </trkpt>
      <trkpt lat="38.3270590" lon="-0.6991960">
        <ele>378.2</ele>
        <time>2018-10-04T08:52:15Z</time>
      </trkpt>
      <trkpt lat="38.3270400" lon="-0.6991980">
        <ele>378.2</ele>
        <time>2018-10-04T08:52:16Z</time>
      </trkpt>
      <trkpt lat="38.3270200" lon="-0.6992000">
        <ele>378.2</ele>
        <time>2018-10-04T08:52:17Z</time>
      </trkpt>
      <trkpt lat="38.3269990" lon="-0.6992020">
        <ele>378.2</ele>
        <time>2018-10-04T08:52:18Z</time>
      </trkpt>
      <trkpt lat="38.3269780" lon="-0.6992030">
        <ele>378.2</ele>
        <time>2018-10-04T08:52:19Z</time>
      </trkpt>
      <trkpt lat="38.3269570" lon="-0.6992040">
        <ele>378.2</ele>
        <time>2018-10-04T08:52:20Z</time>
      </trkpt>
      <trkpt lat="38.3269380" lon="-0.6992060">
        <ele>378.2</ele>
        <time>2018-10-04T08:52:21Z</time>
      </trkpt>
      <trkpt lat="38.3269190" lon="-0.6992110">
        <ele>378.2</ele>
        <time>2018-10-04T08:52:22Z</time>
      </trkpt>
      <trkpt lat="38.3269000" lon="-0.6992180">
        <ele>378.2</ele>
        <time>2018-10-04T08:52:23Z</time>
      </trkpt>
      <trkpt lat="38.3268800" lon="-0.6992250">
        <ele>378.3</ele>
        <time>2018-10-04T08:52:24Z</time>
      </trkpt>
      <trkpt lat="38.3268610" lon="-0.6992300">
        <ele>378.3</ele>
        <time>2018-10-04T08:52:25Z</time>
      </trkpt>
      <trkpt lat="38.3268440" lon="-0.6992380">
        <ele>378.3</ele>
        <time>2018-10-04T08:52:26Z</time>
      </trkpt>
      <trkpt lat="38.3268290" lon="-0.6992500">
        <ele>378.3</ele>
        <time>2018-10-04T08:52:27Z</time>
      </trkpt>
      <trkpt lat="38.3268150" lon="-0.6992610">
        <ele>378.3</ele>
        <time>2018-10-04T08:52:28Z</time>
      </trkpt>
      <trkpt lat="38.3268000" lon="-0.6992730">
        <ele>378.3</ele>
        <time>2018-10-04T08:52:29Z</time>
      </trkpt>
      <trkpt lat="38.3267870" lon="-0.6992860">
        <ele>378.3</ele>
        <time>2018-10-04T08:52:30Z</time>
      </trkpt>
      <trkpt lat="38.3267780" lon="-0.6993020">
        <ele>378.3</ele>
        <time>2018-10-04T08:52:31Z</time>
      </trkpt>
      <trkpt lat="38.3267690" lon="-0.6993190">
        <ele>378.3</ele>
        <time>2018-10-04T08:52:32Z</time>
      </trkpt>
      <trkpt lat="38.3267630" lon="-0.6993380">
        <ele>378.3</ele>
        <time>2018-10-04T08:52:33Z</time>
      </trkpt>
      <trkpt lat="38.3267670" lon="-0.6993560">
        <ele>378.3</ele>
        <time>2018-10-04T08:52:34Z</time>
      </trkpt>
      <trkpt lat="38.3267730" lon="-0.6993760">
        <ele>378.3</ele>
        <time>2018-10-04T08:52:35Z</time>
      </trkpt>
      <trkpt lat="38.3267830" lon="-0.6993950">
        <ele>378.3</ele>
        <time>2018-10-04T08:52:36Z</time>
      </trkpt>
      <trkpt lat="38.3267940" lon="-0.6994120">
        <ele>378.4</ele>
        <time>2018-10-04T08:52:37Z</time>
      </trkpt>
      <trkpt lat="38.3268070" lon="-0.6994290">
        <ele>378.4</ele>
        <time>2018-10-04T08:52:38Z</time>
      </trkpt>
      <trkpt lat="38.3268200" lon="-0.6994440">
        <ele>378.4</ele>
        <time>2018-10-04T08:52:39Z</time>
      </trkpt>
      <trkpt lat="38.3268350" lon="-0.6994590">
        <ele>378.4</ele>
        <time>2018-10-04T08:52:40Z</time>
      </trkpt>
      <trkpt lat="38.3268500" lon="-0.6994730">
        <ele>378.4</ele>
        <time>2018-10-04T08:52:41Z</time>
      </trkpt>
      <trkpt lat="38.3268630" lon="-0.6994860">
        <ele>378.4</ele>
        <time>2018-10-04T08:52:42Z</time>
      </trkpt>
      <trkpt lat="38.3268780" lon="-0.6994970">
        <ele>378.4</ele>
        <time>2018-10-04T08:52:43Z</time>
      </trkpt>
      <trkpt lat="38.3268920" lon="-0.6995080">
        <ele>378.4</ele>
        <time>2018-10-04T08:52:44Z</time>
      </trkpt>
      <trkpt lat="38.3269060" lon="-0.6995180">
        <ele>378.4</ele>
        <time>2018-10-04T08:52:45Z</time>
      </trkpt>
      <trkpt lat="38.3269160" lon="-0.6995260">
        <ele>378.4</ele>
        <time>2018-10-04T08:52:46Z</time>
      </trkpt>
      <trkpt lat="38.3269160" lon="-0.6995390">
        <ele>378.4</ele>
        <time>2018-10-04T08:52:47Z</time>
      </trkpt>
      <trkpt lat="38.3269090" lon="-0.6995470">
        <ele>378.4</ele>
        <time>2018-10-04T08:52:48Z</time>
      </trkpt>
      <trkpt lat="38.3268970" lon="-0.6995420">
        <ele>378.4</ele>
        <time>2018-10-04T08:52:49Z</time>
      </trkpt>
      <trkpt lat="38.3268880" lon="-0.6995260">
        <ele>378.3</ele>
        <time>2018-10-04T08:52:50Z</time>
      </trkpt>
      <trkpt lat="38.3268750" lon="-0.6995120">
        <ele>378.3</ele>
        <time>2018-10-04T08:52:51Z</time>
      </trkpt>
      <trkpt lat="38.3268540" lon="-0.6994900">
        <ele>378.3</ele>
        <time>2018-10-04T08:52:52Z</time>
      </trkpt>
      <trkpt lat="38.3268270" lon="-0.6994590">
        <ele>378.3</ele>
        <time>2018-10-04T08:52:53Z</time>
      </trkpt>
      <trkpt lat="38.3267980" lon="-0.6994170">
        <ele>378.3</ele>
        <time>2018-10-04T08:52:54Z</time>
      </trkpt>
      <trkpt lat="38.3267740" lon="-0.6993740">
        <ele>378.2</ele>
        <time>2018-10-04T08:52:55Z</time>
      </trkpt>
      <trkpt lat="38.3267650" lon="-0.6993390">
        <ele>378.2</ele>
        <time>2018-10-04T08:52:56Z</time>
      </trkpt>
      <trkpt lat="38.3267750" lon="-0.6993050">
        <ele>378.2</ele>
        <time>2018-10-04T08:52:57Z</time>
      </trkpt>
      <trkpt lat="38.3268030" lon="-0.6992700">
        <ele>378.1</ele>
        <time>2018-10-04T08:52:58Z</time>
      </trkpt>
      <trkpt lat="38.3268450" lon="-0.6992350">
        <ele>378.0</ele>
        <time>2018-10-04T08:52:59Z</time>
      </trkpt>
      <trkpt lat="38.3268980" lon="-0.6992080">
        <ele>377.8</ele>
        <time>2018-10-04T08:53:00Z</time>
      </trkpt>
      <trkpt lat="38.3269540" lon="-0.6991990">
        <ele>377.7</ele>
        <time>2018-10-04T08:53:01Z</time>
      </trkpt>
      <trkpt lat="38.3270150" lon="-0.6991950">
        <ele>377.6</ele>
        <time>2018-10-04T08:53:02Z</time>
      </trkpt>
      <trkpt lat="38.3270820" lon="-0.6991890">
        <ele>377.4</ele>
        <time>2018-10-04T08:53:03Z</time>
      </trkpt>
      <trkpt lat="38.3271560" lon="-0.6991830">
        <ele>377.3</ele>
        <time>2018-10-04T08:53:04Z</time>
      </trkpt>
      <trkpt lat="38.3272370" lon="-0.6991750">
        <ele>377.1</ele>
        <time>2018-10-04T08:53:05Z</time>
      </trkpt>
      <trkpt lat="38.3273230" lon="-0.6991700">
        <ele>376.6</ele>
        <time>2018-10-04T08:53:06Z</time>
      </trkpt>
      <trkpt lat="38.3274160" lon="-0.6991600">
        <ele>375.7</ele>
        <time>2018-10-04T08:53:07Z</time>
      </trkpt>
      <trkpt lat="38.3275100" lon="-0.6991330">
        <ele>375.6</ele>
        <time>2018-10-04T08:53:08Z</time>
      </trkpt>
      <trkpt lat="38.3276010" lon="-0.6990910">
        <ele>375.5</ele>
        <time>2018-10-04T08:53:09Z</time>
      </trkpt>
      <trkpt lat="38.3276820" lon="-0.6990330">
        <ele>375.5</ele>
        <time>2018-10-04T08:53:10Z</time>
      </trkpt>
      <trkpt lat="38.3277520" lon="-0.6989610">
        <ele>375.4</ele>
        <time>2018-10-04T08:53:11Z</time>
      </trkpt>
      <trkpt lat="38.3278180" lon="-0.6988780">
        <ele>375.3</ele>
        <time>2018-10-04T08:53:12Z</time>
      </trkpt>
      <trkpt lat="38.3278750" lon="-0.6987990">
        <ele>375.2</ele>
        <time>2018-10-04T08:53:13Z</time>
      </trkpt>
      <trkpt lat="38.3279170" lon="-0.6987280">
        <ele>375.2</ele>
        <time>2018-10-04T08:53:14Z</time>
      </trkpt>
      <trkpt lat="38.3279350" lon="-0.6986630">
        <ele>375.1</ele>
        <time>2018-10-04T08:53:15Z</time>
      </trkpt>
      <trkpt lat="38.3279340" lon="-0.6986080">
        <ele>375.1</ele>
        <time>2018-10-04T08:53:16Z</time>
      </trkpt>
      <trkpt lat="38.3279190" lon="-0.6985560">
        <ele>375.0</ele>
        <time>2018-10-04T08:53:17Z</time>
      </trkpt>
      <trkpt lat="38.3278850" lon="-0.6985030">
        <ele>375.0</ele>
        <time>2018-10-04T08:53:18Z</time>
      </trkpt>
      <trkpt lat="38.3278420" lon="-0.6984420">
        <ele>374.9</ele>
        <time>2018-10-04T08:53:19Z</time>
      </trkpt>
      <trkpt lat="38.3277910" lon="-0.6983730">
        <ele>374.9</ele>
        <time>2018-10-04T08:53:20Z</time>
      </trkpt>
      <trkpt lat="38.3277350" lon="-0.6982960">
        <ele>374.8</ele>
        <time>2018-10-04T08:53:21Z</time>
      </trkpt>
      <trkpt lat="38.3276800" lon="-0.6982190">
        <ele>374.7</ele>
        <time>2018-10-04T08:53:22Z</time>
      </trkpt>
      <trkpt lat="38.3276340" lon="-0.6981560">
        <ele>374.6</ele>
        <time>2018-10-04T08:53:23Z</time>
      </trkpt>
      <trkpt lat="38.3276010" lon="-0.6981030">
        <ele>374.6</ele>
        <time>2018-10-04T08:53:24Z</time>
      </trkpt>
      <trkpt lat="38.3275760" lon="-0.6980650">
        <ele>374.6</ele>
        <time>2018-10-04T08:53:25Z</time>
      </trkpt>
      <trkpt lat="38.3275560" lon="-0.6980490">
        <ele>374.5</ele>
        <time>2018-10-04T08:53:26Z</time>
      </trkpt>
      <trkpt lat="38.3275310" lon="-0.6980460">
        <ele>374.3</ele>
        <time>2018-10-04T08:53:27Z</time>
      </trkpt>
      <trkpt lat="38.3274950" lon="-0.6980470">
        <ele>374.1</ele>
        <time>2018-10-04T08:53:28Z</time>
      </trkpt>
      <trkpt lat="38.3274540" lon="-0.6980570">
        <ele>373.9</ele>
        <time>2018-10-04T08:53:29Z</time>
      </trkpt>
      <trkpt lat="38.3274100" lon="-0.6980730">
        <ele>374.0</ele>
        <time>2018-10-04T08:53:30Z</time>
      </trkpt>
      <trkpt lat="38.3273680" lon="-0.6981020">
        <ele>373.8</ele>
        <time>2018-10-04T08:53:31Z</time>
      </trkpt>
      <trkpt lat="38.3273280" lon="-0.6981430">
        <ele>374.1</ele>
        <time>2018-10-04T08:53:32Z</time>
      </trkpt>
      <trkpt lat="38.3272900" lon="-0.6981820">
        <ele>374.5</ele>
        <time>2018-10-04T08:53:33Z</time>
      </trkpt>
      <trkpt lat="38.3272570" lon="-0.6982230">
        <ele>374.8</ele>
        <time>2018-10-04T08:53:34Z</time>
      </trkpt>
      <trkpt lat="38.3272350" lon="-0.6982710">
        <ele>375.2</ele>
        <time>2018-10-04T08:53:35Z</time>
      </trkpt>
      <trkpt lat="38.3272150" lon="-0.6983140">
        <ele>375.8</ele>
        <time>2018-10-04T08:53:36Z</time>
      </trkpt>
      <trkpt lat="38.3271930" lon="-0.6983520">
        <ele>376.2</ele>
        <time>2018-10-04T08:53:37Z</time>
      </trkpt>
      <trkpt lat="38.3271680" lon="-0.6983870">
        <ele>376.7</ele>
        <time>2018-10-04T08:53:38Z</time>
      </trkpt>
      <trkpt lat="38.3271410" lon="-0.6984150">
        <ele>377.2</ele>
        <time>2018-10-04T08:53:39Z</time>
      </trkpt>
      <trkpt lat="38.3271090" lon="-0.6984330">
        <ele>377.0</ele>
        <time>2018-10-04T08:53:40Z</time>
      </trkpt>
      <trkpt lat="38.3270800" lon="-0.6984490">
        <ele>377.4</ele>
        <time>2018-10-04T08:53:41Z</time>
      </trkpt>
      <trkpt lat="38.3270530" lon="-0.6984630">
        <ele>377.4</ele>
        <time>2018-10-04T08:53:42Z</time>
      </trkpt>
      <trkpt lat="38.3270220" lon="-0.6984720">
        <ele>377.3</ele>
        <time>2018-10-04T08:53:43Z</time>
      </trkpt>
      <trkpt lat="38.3269900" lon="-0.6984790">
        <ele>377.1</ele>
        <time>2018-10-04T08:53:44Z</time>
      </trkpt>
      <trkpt lat="38.3269570" lon="-0.6984900">
        <ele>376.9</ele>
        <time>2018-10-04T08:53:45Z</time>
      </trkpt>
      <trkpt lat="38.3269230" lon="-0.6984990">
        <ele>377.2</ele>
        <time>2018-10-04T08:53:46Z</time>
      </trkpt>
      <trkpt lat="38.3268870" lon="-0.6985040">
        <ele>377.0</ele>
        <time>2018-10-04T08:53:47Z</time>
      </trkpt>
      <trkpt lat="38.3268510" lon="-0.6985150">
        <ele>376.7</ele>
        <time>2018-10-04T08:53:48Z</time>
      </trkpt>
      <trkpt lat="38.3268160" lon="-0.6985280">
        <ele>376.5</ele>
        <time>2018-10-04T08:53:49Z</time>
      </trkpt>
      <trkpt lat="38.3267820" lon="-0.6985450">
        <ele>376.7</ele>
        <time>2018-10-04T08:53:50Z</time>
      </trkpt>
      <trkpt lat="38.3267470" lon="-0.6985620">
        <ele>376.5</ele>
        <time>2018-10-04T08:53:51Z</time>
      </trkpt>
      <trkpt lat="38.3267130" lon="-0.6985810">
        <ele>376.7</ele>
        <time>2018-10-04T08:53:52Z</time>
      </trkpt>
      <trkpt lat="38.3266770" lon="-0.6986010">
        <ele>376.4</ele>
        <time>2018-10-04T08:53:53Z</time>
      </trkpt>
      <trkpt lat="38.3266400" lon="-0.6986190">
        <ele>376.2</ele>
        <time>2018-10-04T08:53:54Z</time>
      </trkpt>
      <trkpt lat="38.3266050" lon="-0.6986420">
        <ele>375.9</ele>
        <time>2018-10-04T08:53:55Z</time>
      </trkpt>
      <trkpt lat="38.3265690" lon="-0.6986680">
        <ele>376.0</ele>
        <time>2018-10-04T08:53:56Z</time>
      </trkpt>
      <trkpt lat="38.3265330" lon="-0.6986940">
        <ele>375.7</ele>
        <time>2018-10-04T08:53:57Z</time>
      </trkpt>
      <trkpt lat="38.3264980" lon="-0.6987170">
        <ele>375.8</ele>
        <time>2018-10-04T08:53:58Z</time>
      </trkpt>
      <trkpt lat="38.3264610" lon="-0.6987300">
        <ele>375.5</ele>
        <time>2018-10-04T08:53:59Z</time>
      </trkpt>
      <trkpt lat="38.3264210" lon="-0.6987360">
        <ele>375.2</ele>
        <time>2018-10-04T08:54:00Z</time>
      </trkpt>
      <trkpt lat="38.3263750" lon="-0.6987320">
        <ele>374.9</ele>
        <time>2018-10-04T08:54:01Z</time>
      </trkpt>
      <trkpt lat="38.3263230" lon="-0.6987190">
        <ele>374.5</ele>
        <time>2018-10-04T08:54:02Z</time>
      </trkpt>
      <trkpt lat="38.3262680" lon="-0.6986980">
        <ele>373.9</ele>
        <time>2018-10-04T08:54:03Z</time>
      </trkpt>
      <trkpt lat="38.3262130" lon="-0.6986710">
        <ele>373.8</ele>
        <time>2018-10-04T08:54:04Z</time>
      </trkpt>
      <trkpt lat="38.3261590" lon="-0.6986420">
        <ele>373.4</ele>
        <time>2018-10-04T08:54:05Z</time>
      </trkpt>
      <trkpt lat="38.3261070" lon="-0.6986030">
        <ele>373.0</ele>
        <time>2018-10-04T08:54:06Z</time>
      </trkpt>
      <trkpt lat="38.3260600" lon="-0.6985550">
        <ele>372.6</ele>
        <time>2018-10-04T08:54:07Z</time>
      </trkpt>
      <trkpt lat="38.3260160" lon="-0.6985100">
        <ele>372.3</ele>
        <time>2018-10-04T08:54:08Z</time>
      </trkpt>
      <trkpt lat="38.3259710" lon="-0.6984620">
        <ele>371.9</ele>
        <time>2018-10-04T08:54:09Z</time>
      </trkpt>
      <trkpt lat="38.3259260" lon="-0.6984070">
        <ele>371.4</ele>
        <time>2018-10-04T08:54:10Z</time>
      </trkpt>
      <trkpt lat="38.3258850" lon="-0.6983420">
        <ele>370.9</ele>
        <time>2018-10-04T08:54:11Z</time>
      </trkpt>
      <trkpt lat="38.3258510" lon="-0.6982690">
        <ele>370.3</ele>
        <time>2018-10-04T08:54:12Z</time>
      </trkpt>
      <trkpt lat="38.3258190" lon="-0.6981920">
        <ele>370.0</ele>
        <time>2018-10-04T08:54:13Z</time>
      </trkpt>
      <trkpt lat="38.3257920" lon="-0.6981120">
        <ele>369.5</ele>
        <time>2018-10-04T08:54:14Z</time>
      </trkpt>
      <trkpt lat="38.3257660" lon="-0.6980330">
        <ele>369.1</ele>
        <time>2018-10-04T08:54:15Z</time>
      </trkpt>
      <trkpt lat="38.3257470" lon="-0.6979570">
        <ele>368.9</ele>
        <time>2018-10-04T08:54:16Z</time>
      </trkpt>
      <trkpt lat="38.3257230" lon="-0.6978890">
        <ele>368.6</ele>
        <time>2018-10-04T08:54:17Z</time>
      </trkpt>
      <trkpt lat="38.3257020" lon="-0.6978250">
        <ele>368.6</ele>
        <time>2018-10-04T08:54:18Z</time>
      </trkpt>
      <trkpt lat="38.3256820" lon="-0.6977640">
        <ele>368.4</ele>
        <time>2018-10-04T08:54:19Z</time>
      </trkpt>
      <trkpt lat="38.3256610" lon="-0.6977080">
        <ele>368.2</ele>
        <time>2018-10-04T08:54:20Z</time>
      </trkpt>
      <trkpt lat="38.3256410" lon="-0.6976540">
        <ele>368.2</ele>
        <time>2018-10-04T08:54:21Z</time>
      </trkpt>
      <trkpt lat="38.3256230" lon="-0.6976000">
        <ele>368.1</ele>
        <time>2018-10-04T08:54:22Z</time>
      </trkpt>
      <trkpt lat="38.3256050" lon="-0.6975470">
        <ele>368.1</ele>
        <time>2018-10-04T08:54:23Z</time>
      </trkpt>
      <trkpt lat="38.3255870" lon="-0.6974950">
        <ele>368.0</ele>
        <time>2018-10-04T08:54:24Z</time>
      </trkpt>
      <trkpt lat="38.3255710" lon="-0.6974460">
        <ele>368.0</ele>
        <time>2018-10-04T08:54:25Z</time>
      </trkpt>
      <trkpt lat="38.3255560" lon="-0.6973960">
        <ele>368.0</ele>
        <time>2018-10-04T08:54:26Z</time>
      </trkpt>
      <trkpt lat="38.3255420" lon="-0.6973490">
        <ele>368.0</ele>
        <time>2018-10-04T08:54:27Z</time>
      </trkpt>
      <trkpt lat="38.3255300" lon="-0.6973080">
        <ele>368.0</ele>
        <time>2018-10-04T08:54:28Z</time>
      </trkpt>
      <trkpt lat="38.3255200" lon="-0.6972710">
        <ele>368.0</ele>
        <time>2018-10-04T08:54:29Z</time>
      </trkpt>
      <trkpt lat="38.3255120" lon="-0.6972320">
        <ele>368.0</ele>
        <time>2018-10-04T08:54:30Z</time>
      </trkpt>
      <trkpt lat="38.3255040" lon="-0.6971960">
        <ele>368.1</ele>
        <time>2018-10-04T08:54:31Z</time>
      </trkpt>
      <trkpt lat="38.3254930" lon="-0.6971610">
        <ele>368.1</ele>
        <time>2018-10-04T08:54:32Z</time>
      </trkpt>
      <trkpt lat="38.3254820" lon="-0.6971260">
        <ele>368.2</ele>
        <time>2018-10-04T08:54:33Z</time>
      </trkpt>
      <trkpt lat="38.3254710" lon="-0.6970870">
        <ele>368.4</ele>
        <time>2018-10-04T08:54:34Z</time>
      </trkpt>
      <trkpt lat="38.3254610" lon="-0.6970470">
        <ele>368.5</ele>
        <time>2018-10-04T08:54:35Z</time>
      </trkpt>
      <trkpt lat="38.3254490" lon="-0.6970050">
        <ele>368.7</ele>
        <time>2018-10-04T08:54:36Z</time>
      </trkpt>
      <trkpt lat="38.3254380" lon="-0.6969620">
        <ele>368.9</ele>
        <time>2018-10-04T08:54:37Z</time>
      </trkpt>
      <trkpt lat="38.3254240" lon="-0.6969190">
        <ele>369.1</ele>
        <time>2018-10-04T08:54:38Z</time>
      </trkpt>
      <trkpt lat="38.3254080" lon="-0.6968770">
        <ele>369.3</ele>
        <time>2018-10-04T08:54:39Z</time>
      </trkpt>
      <trkpt lat="38.3253880" lon="-0.6968340">
        <ele>369.5</ele>
        <time>2018-10-04T08:54:40Z</time>
      </trkpt>
      <trkpt lat="38.3253610" lon="-0.6968000">
        <ele>369.7</ele>
        <time>2018-10-04T08:54:41Z</time>
      </trkpt>
      <trkpt lat="38.3253270" lon="-0.6967680">
        <ele>369.8</ele>
        <time>2018-10-04T08:54:42Z</time>
      </trkpt>
      <trkpt lat="38.3252920" lon="-0.6967340">
        <ele>369.8</ele>
        <time>2018-10-04T08:54:43Z</time>
      </trkpt>
      <trkpt lat="38.3252550" lon="-0.6966980">
        <ele>370.0</ele>
        <time>2018-10-04T08:54:44Z</time>
      </trkpt>
      <trkpt lat="38.3252160" lon="-0.6966610">
        <ele>370.1</ele>
        <time>2018-10-04T08:54:45Z</time>
      </trkpt>
      <trkpt lat="38.3251720" lon="-0.6966360">
        <ele>370.3</ele>
        <time>2018-10-04T08:54:46Z</time>
      </trkpt>
      <trkpt lat="38.3251190" lon="-0.6966250">
        <ele>370.3</ele>
        <time>2018-10-04T08:54:47Z</time>
      </trkpt>
      <trkpt lat="38.3250520" lon="-0.6966200">
        <ele>370.4</ele>
        <time>2018-10-04T08:54:48Z</time>
      </trkpt>
      <trkpt lat="38.3249750" lon="-0.6966120">
        <ele>370.6</ele>
        <time>2018-10-04T08:54:49Z</time>
      </trkpt>
      <trkpt lat="38.3248960" lon="-0.6966070">
        <ele>370.8</ele>
        <time>2018-10-04T08:54:50Z</time>
      </trkpt>
      <trkpt lat="38.3248260" lon="-0.6966010">
        <ele>371.2</ele>
        <time>2018-10-04T08:54:51Z</time>
      </trkpt>
      <trkpt lat="38.3247650" lon="-0.6965950">
        <ele>371.4</ele>
        <time>2018-10-04T08:54:52Z</time>
      </trkpt>
      <trkpt lat="38.3247230" lon="-0.6965900">
        <ele>371.6</ele>
        <time>2018-10-04T08:54:53Z</time>
      </trkpt>
      <trkpt lat="38.3246930" lon="-0.6965820">
        <ele>371.6</ele>
        <time>2018-10-04T08:54:54Z</time>
      </trkpt>
      <trkpt lat="38.3246700" lon="-0.6965730">
        <ele>371.7</ele>
        <time>2018-10-04T08:54:55Z</time>
      </trkpt>
      <trkpt lat="38.3246480" lon="-0.6965670">
        <ele>371.8</ele>
        <time>2018-10-04T08:54:56Z</time>
      </trkpt>
      <trkpt lat="38.3246310" lon="-0.6965610">
        <ele>371.8</ele>
        <time>2018-10-04T08:54:57Z</time>
      </trkpt>
      <trkpt lat="38.3246120" lon="-0.6965560">
        <ele>372.1</ele>
        <time>2018-10-04T08:54:58Z</time>
      </trkpt>
      <trkpt lat="38.3245930" lon="-0.6965530">
        <ele>372.1</ele>
        <time>2018-10-04T08:54:59Z</time>
      </trkpt>
      <trkpt lat="38.3245730" lon="-0.6965480">
        <ele>372.1</ele>
        <time>2018-10-04T08:55:00Z</time>
      </trkpt>
      <trkpt lat="38.3245550" lon="-0.6965420">
        <ele>372.1</ele>
        <time>2018-10-04T08:55:01Z</time>
      </trkpt>
      <trkpt lat="38.3245360" lon="-0.6965350">
        <ele>372.1</ele>
        <time>2018-10-04T08:55:02Z</time>
      </trkpt>
      <trkpt lat="38.3245180" lon="-0.6965260">
        <ele>372.2</ele>
        <time>2018-10-04T08:55:03Z</time>
      </trkpt>
      <trkpt lat="38.3245010" lon="-0.6965170">
        <ele>372.2</ele>
        <time>2018-10-04T08:55:04Z</time>
      </trkpt>
      <trkpt lat="38.3244840" lon="-0.6965140">
        <ele>372.3</ele>
        <time>2018-10-04T08:55:05Z</time>
      </trkpt>
      <trkpt lat="38.3244680" lon="-0.6965140">
        <ele>372.3</ele>
        <time>2018-10-04T08:55:06Z</time>
      </trkpt>
      <trkpt lat="38.3244520" lon="-0.6965110">
        <ele>372.3</ele>
        <time>2018-10-04T08:55:07Z</time>
      </trkpt>
      <trkpt lat="38.3244350" lon="-0.6965040">
        <ele>372.3</ele>
        <time>2018-10-04T08:55:08Z</time>
      </trkpt>
      <trkpt lat="38.3244180" lon="-0.6964970">
        <ele>372.2</ele>
        <time>2018-10-04T08:55:09Z</time>
      </trkpt>
      <trkpt lat="38.3244010" lon="-0.6964900">
        <ele>372.2</ele>
        <time>2018-10-04T08:55:10Z</time>
      </trkpt>
      <trkpt lat="38.3243830" lon="-0.6964780">
        <ele>372.2</ele>
        <time>2018-10-04T08:55:11Z</time>
      </trkpt>
      <trkpt lat="38.3243660" lon="-0.6964690">
        <ele>372.4</ele>
        <time>2018-10-04T08:55:12Z</time>
      </trkpt>
      <trkpt lat="38.3243500" lon="-0.6964640">
        <ele>372.3</ele>
        <time>2018-10-04T08:55:13Z</time>
      </trkpt>
      <trkpt lat="38.3243330" lon="-0.6964600">
        <ele>372.3</ele>
        <time>2018-10-04T08:55:14Z</time>
      </trkpt>
      <trkpt lat="38.3243170" lon="-0.6964500">
        <ele>372.3</ele>
        <time>2018-10-04T08:55:15Z</time>
      </trkpt>
      <trkpt lat="38.3242990" lon="-0.6964400">
        <ele>372.3</ele>
        <time>2018-10-04T08:55:16Z</time>
      </trkpt>
      <trkpt lat="38.3242810" lon="-0.6964350">
        <ele>372.2</ele>
        <time>2018-10-04T08:55:17Z</time>
      </trkpt>
      <trkpt lat="38.3242650" lon="-0.6964320">
        <ele>372.2</ele>
        <time>2018-10-04T08:55:18Z</time>
      </trkpt>
      <trkpt lat="38.3242490" lon="-0.6964270">
        <ele>372.4</ele>
        <time>2018-10-04T08:55:19Z</time>
      </trkpt>
      <trkpt lat="38.3242340" lon="-0.6964260">
        <ele>372.4</ele>
        <time>2018-10-04T08:55:20Z</time>
      </trkpt>
      <trkpt lat="38.3242180" lon="-0.6964250">
        <ele>372.3</ele>
        <time>2018-10-04T08:55:21Z</time>
      </trkpt>
      <trkpt lat="38.3242020" lon="-0.6964230">
        <ele>372.3</ele>
        <time>2018-10-04T08:55:22Z</time>
      </trkpt>
      <trkpt lat="38.3241850" lon="-0.6964200">
        <ele>372.3</ele>
        <time>2018-10-04T08:55:23Z</time>
      </trkpt>
      <trkpt lat="38.3241690" lon="-0.6964160">
        <ele>372.1</ele>
        <time>2018-10-04T08:55:24Z</time>
      </trkpt>
      <trkpt lat="38.3241550" lon="-0.6964160">
        <ele>372.1</ele>
        <time>2018-10-04T08:55:25Z</time>
      </trkpt>
      <trkpt lat="38.3241400" lon="-0.6964210">
        <ele>371.9</ele>
        <time>2018-10-04T08:55:26Z</time>
      </trkpt>
      <trkpt lat="38.3241240" lon="-0.6964290">
        <ele>371.9</ele>
        <time>2018-10-04T08:55:27Z</time>
      </trkpt>
      <trkpt lat="38.3241080" lon="-0.6964260">
        <ele>371.7</ele>
        <time>2018-10-04T08:55:28Z</time>
      </trkpt>
      <trkpt lat="38.3240980" lon="-0.6964090">
        <ele>371.7</ele>
        <time>2018-10-04T08:55:29Z</time>
      </trkpt>
      <trkpt lat="38.3240940" lon="-0.6963890">
        <ele>371.7</ele>
        <time>2018-10-04T08:55:30Z</time>
      </trkpt>
      <trkpt lat="38.3240950" lon="-0.6963720">
        <ele>372.1</ele>
        <time>2018-10-04T08:55:31Z</time>
      </trkpt>
      <trkpt lat="38.3241010" lon="-0.6963650">
        <ele>372.1</ele>
        <time>2018-10-04T08:55:32Z</time>
      </trkpt>
      <trkpt lat="38.3241140" lon="-0.6963680">
        <ele>372.1</ele>
        <time>2018-10-04T08:55:33Z</time>
      </trkpt>
      <trkpt lat="38.3241300" lon="-0.6963820">
        <ele>372.3</ele>
        <time>2018-10-04T08:55:34Z</time>
      </trkpt>
      <trkpt lat="38.3241500" lon="-0.6964030">
        <ele>371.9</ele>
        <time>2018-10-04T08:55:35Z</time>
      </trkpt>
      <trkpt lat="38.3241810" lon="-0.6964180">
        <ele>372.1</ele>
        <time>2018-10-04T08:55:36Z</time>
      </trkpt>
      <trkpt lat="38.3242290" lon="-0.6964270">
        <ele>372.4</ele>
        <time>2018-10-04T08:55:37Z</time>
      </trkpt>
      <trkpt lat="38.3242800" lon="-0.6964430">
        <ele>372.2</ele>
        <time>2018-10-04T08:55:38Z</time>
      </trkpt>
      <trkpt lat="38.3243340" lon="-0.6964640">
        <ele>372.4</ele>
        <time>2018-10-04T08:55:39Z</time>
      </trkpt>
      <trkpt lat="38.3243890" lon="-0.6964880">
        <ele>372.3</ele>
        <time>2018-10-04T08:55:40Z</time>
      </trkpt>
      <trkpt lat="38.3244490" lon="-0.6965090">
        <ele>372.3</ele>
        <time>2018-10-04T08:55:41Z</time>
      </trkpt>
      <trkpt lat="38.3245050" lon="-0.6965240">
        <ele>372.2</ele>
        <time>2018-10-04T08:55:42Z</time>
      </trkpt>
      <trkpt lat="38.3245680" lon="-0.6965460">
        <ele>372.2</ele>
        <time>2018-10-04T08:55:43Z</time>
      </trkpt>
      <trkpt lat="38.3246330" lon="-0.6965630">
        <ele>371.8</ele>
        <time>2018-10-04T08:55:44Z</time>
      </trkpt>
      <trkpt lat="38.3247010" lon="-0.6965830">
        <ele>371.7</ele>
        <time>2018-10-04T08:55:45Z</time>
      </trkpt>
      <trkpt lat="38.3247780" lon="-0.6965930">
        <ele>371.5</ele>
        <time>2018-10-04T08:55:46Z</time>
      </trkpt>
      <trkpt lat="38.3248630" lon="-0.6966010">
        <ele>371.2</ele>
        <time>2018-10-04T08:55:47Z</time>
      </trkpt>
      <trkpt lat="38.3249530" lon="-0.6966080">
        <ele>370.7</ele>
        <time>2018-10-04T08:55:48Z</time>
      </trkpt>
      <trkpt lat="38.3250380" lon="-0.6966200">
        <ele>370.5</ele>
        <time>2018-10-04T08:55:49Z</time>
      </trkpt>
      <trkpt lat="38.3251050" lon="-0.6966270">
        <ele>370.4</ele>
        <time>2018-10-04T08:55:50Z</time>
      </trkpt>
      <trkpt lat="38.3251590" lon="-0.6966310">
        <ele>370.4</ele>
        <time>2018-10-04T08:55:51Z</time>
      </trkpt>
      <trkpt lat="38.3251860" lon="-0.6966410">
        <ele>370.4</ele>
        <time>2018-10-04T08:55:52Z</time>
      </trkpt>
      <trkpt lat="38.3252020" lon="-0.6966570">
        <ele>370.2</ele>
        <time>2018-10-04T08:55:53Z</time>
      </trkpt>
      <trkpt lat="38.3252230" lon="-0.6966790">
        <ele>370.2</ele>
        <time>2018-10-04T08:55:54Z</time>
      </trkpt>
      <trkpt lat="38.3252460" lon="-0.6966980">
        <ele>370.1</ele>
        <time>2018-10-04T08:55:55Z</time>
      </trkpt>
      <trkpt lat="38.3252700" lon="-0.6967180">
        <ele>370.1</ele>
        <time>2018-10-04T08:55:56Z</time>
      </trkpt>
      <trkpt lat="38.3252960" lon="-0.6967380">
        <ele>369.9</ele>
        <time>2018-10-04T08:55:57Z</time>
      </trkpt>
      <trkpt lat="38.3253210" lon="-0.6967640">
        <ele>369.9</ele>
        <time>2018-10-04T08:55:58Z</time>
      </trkpt>
      <trkpt lat="38.3253440" lon="-0.6967920">
        <ele>369.8</ele>
        <time>2018-10-04T08:55:59Z</time>
      </trkpt>
      <trkpt lat="38.3253660" lon="-0.6968230">
        <ele>369.6</ele>
        <time>2018-10-04T08:56:00Z</time>
      </trkpt>
      <trkpt lat="38.3253840" lon="-0.6968590">
        <ele>369.6</ele>
        <time>2018-10-04T08:56:01Z</time>
      </trkpt>
      <trkpt lat="38.3254010" lon="-0.6968980">
        <ele>369.4</ele>
        <time>2018-10-04T08:56:02Z</time>
      </trkpt>
      <trkpt lat="38.3254170" lon="-0.6969410">
        <ele>369.2</ele>
        <time>2018-10-04T08:56:03Z</time>
      </trkpt>
      <trkpt lat="38.3254320" lon="-0.6969890">
        <ele>368.8</ele>
        <time>2018-10-04T08:56:04Z</time>
      </trkpt>
      <trkpt lat="38.3254470" lon="-0.6970420">
        <ele>368.6</ele>
        <time>2018-10-04T08:56:05Z</time>
      </trkpt>
      <trkpt lat="38.3254620" lon="-0.6970980">
        <ele>368.5</ele>
        <time>2018-10-04T08:56:06Z</time>
      </trkpt>
      <trkpt lat="38.3254760" lon="-0.6971580">
        <ele>368.3</ele>
        <time>2018-10-04T08:56:07Z</time>
      </trkpt>
      <trkpt lat="38.3254920" lon="-0.6972200">
        <ele>368.1</ele>
        <time>2018-10-04T08:56:08Z</time>
      </trkpt>
      <trkpt lat="38.3255090" lon="-0.6972870">
        <ele>368.1</ele>
        <time>2018-10-04T08:56:09Z</time>
      </trkpt>
      <trkpt lat="38.3255290" lon="-0.6973600">
        <ele>368.1</ele>
        <time>2018-10-04T08:56:10Z</time>
      </trkpt>
      <trkpt lat="38.3255530" lon="-0.6974360">
        <ele>368.1</ele>
        <time>2018-10-04T08:56:11Z</time>
      </trkpt>
      <trkpt lat="38.3255790" lon="-0.6975150">
        <ele>368.1</ele>
        <time>2018-10-04T08:56:12Z</time>
      </trkpt>
      <trkpt lat="38.3256060" lon="-0.6975960">
        <ele>368.2</ele>
        <time>2018-10-04T08:56:13Z</time>
      </trkpt>
      <trkpt lat="38.3256340" lon="-0.6976770">
        <ele>368.4</ele>
        <time>2018-10-04T08:56:14Z</time>
      </trkpt>
      <trkpt lat="38.3256640" lon="-0.6977600">
        <ele>368.4</ele>
        <time>2018-10-04T08:56:15Z</time>
      </trkpt>
      <trkpt lat="38.3256960" lon="-0.6978430">
        <ele>368.6</ele>
        <time>2018-10-04T08:56:16Z</time>
      </trkpt>
      <trkpt lat="38.3257280" lon="-0.6979270">
        <ele>368.9</ele>
        <time>2018-10-04T08:56:17Z</time>
      </trkpt>
      <trkpt lat="38.3257590" lon="-0.6980140">
        <ele>369.1</ele>
        <time>2018-10-04T08:56:18Z</time>
      </trkpt>
      <trkpt lat="38.3257870" lon="-0.6981010">
        <ele>369.5</ele>
        <time>2018-10-04T08:56:19Z</time>
      </trkpt>
      <trkpt lat="38.3258160" lon="-0.6981880">
        <ele>369.9</ele>
        <time>2018-10-04T08:56:20Z</time>
      </trkpt>
      <trkpt lat="38.3258480" lon="-0.6982690">
        <ele>370.5</ele>
        <time>2018-10-04T08:56:21Z</time>
      </trkpt>
      <trkpt lat="38.3258820" lon="-0.6983440">
        <ele>371.0</ele>
        <time>2018-10-04T08:56:22Z</time>
      </trkpt>
      <trkpt lat="38.3259200" lon="-0.6984080">
        <ele>371.6</ele>
        <time>2018-10-04T08:56:23Z</time>
      </trkpt>
      <trkpt lat="38.3259630" lon="-0.6984580">
        <ele>371.9</ele>
        <time>2018-10-04T08:56:24Z</time>
      </trkpt>
      <trkpt lat="38.3260020" lon="-0.6985020">
        <ele>372.3</ele>
        <time>2018-10-04T08:56:25Z</time>
      </trkpt>
      <trkpt lat="38.3260400" lon="-0.6985420">
        <ele>372.8</ele>
        <time>2018-10-04T08:56:26Z</time>
      </trkpt>
      <trkpt lat="38.3260810" lon="-0.6985830">
        <ele>373.1</ele>
        <time>2018-10-04T08:56:27Z</time>
      </trkpt>
      <trkpt lat="38.3261240" lon="-0.6986260">
        <ele>373.4</ele>
        <time>2018-10-04T08:56:28Z</time>
      </trkpt>
      <trkpt lat="38.3261730" lon="-0.6986570">
        <ele>373.7</ele>
        <time>2018-10-04T08:56:29Z</time>
      </trkpt>
      <trkpt lat="38.3262230" lon="-0.6986820">
        <ele>374.0</ele>
        <time>2018-10-04T08:56:30Z</time>
      </trkpt>
      <trkpt lat="38.3262730" lon="-0.6987060">
        <ele>374.5</ele>
        <time>2018-10-04T08:56:31Z</time>
      </trkpt>
      <trkpt lat="38.3263220" lon="-0.6987250">
        <ele>374.7</ele>
        <time>2018-10-04T08:56:32Z</time>
      </trkpt>
      <trkpt lat="38.3263670" lon="-0.6987370">
        <ele>374.9</ele>
        <time>2018-10-04T08:56:33Z</time>
      </trkpt>
      <trkpt lat="38.3264080" lon="-0.6987420">
        <ele>375.4</ele>
        <time>2018-10-04T08:56:34Z</time>
      </trkpt>
      <trkpt lat="38.3264450" lon="-0.6987400">
        <ele>375.7</ele>
        <time>2018-10-04T08:56:35Z</time>
      </trkpt>
      <trkpt lat="38.3264770" lon="-0.6987300">
        <ele>375.9</ele>
        <time>2018-10-04T08:56:36Z</time>
      </trkpt>
      <trkpt lat="38.3265090" lon="-0.6987130">
        <ele>376.3</ele>
        <time>2018-10-04T08:56:37Z</time>
      </trkpt>
      <trkpt lat="38.3265430" lon="-0.6986920">
        <ele>376.2</ele>
        <time>2018-10-04T08:56:38Z</time>
      </trkpt>
      <trkpt lat="38.3265800" lon="-0.6986630">
        <ele>376.5</ele>
        <time>2018-10-04T08:56:39Z</time>
      </trkpt>
      <trkpt lat="38.3266200" lon="-0.6986330">
        <ele>376.4</ele>
        <time>2018-10-04T08:56:40Z</time>
      </trkpt>
      <trkpt lat="38.3266640" lon="-0.6986070">
        <ele>376.3</ele>
        <time>2018-10-04T08:56:41Z</time>
      </trkpt>
      <trkpt lat="38.3267100" lon="-0.6985840">
        <ele>376.9</ele>
        <time>2018-10-04T08:56:42Z</time>
      </trkpt>
      <trkpt lat="38.3267570" lon="-0.6985570">
        <ele>376.7</ele>
        <time>2018-10-04T08:56:43Z</time>
      </trkpt>
      <trkpt lat="38.3268060" lon="-0.6985330">
        <ele>376.5</ele>
        <time>2018-10-04T08:56:44Z</time>
      </trkpt>
      <trkpt lat="38.3268580" lon="-0.6985140">
        <ele>377.0</ele>
        <time>2018-10-04T08:56:45Z</time>
      </trkpt>
      <trkpt lat="38.3269120" lon="-0.6985000">
        <ele>377.4</ele>
        <time>2018-10-04T08:56:46Z</time>
      </trkpt>
      <trkpt lat="38.3269680" lon="-0.6984840">
        <ele>377.1</ele>
        <time>2018-10-04T08:56:47Z</time>
      </trkpt>
      <trkpt lat="38.3270250" lon="-0.6984740">
        <ele>377.5</ele>
        <time>2018-10-04T08:56:48Z</time>
      </trkpt>
      <trkpt lat="38.3270790" lon="-0.6984510">
        <ele>377.7</ele>
        <time>2018-10-04T08:56:49Z</time>
      </trkpt>
      <trkpt lat="38.3271330" lon="-0.6984170">
        <ele>377.4</ele>
        <time>2018-10-04T08:56:50Z</time>
      </trkpt>
      <trkpt lat="38.3271840" lon="-0.6983630">
        <ele>377.1</ele>
        <time>2018-10-04T08:56:51Z</time>
      </trkpt>
      <trkpt lat="38.3272210" lon="-0.6982900">
        <ele>376.1</ele>
        <time>2018-10-04T08:56:52Z</time>
      </trkpt>
      <trkpt lat="38.3272550" lon="-0.6982230">
        <ele>375.1</ele>
        <time>2018-10-04T08:56:53Z</time>
      </trkpt>
      <trkpt lat="38.3272950" lon="-0.6981770">
        <ele>374.7</ele>
        <time>2018-10-04T08:56:54Z</time>
      </trkpt>
      <trkpt lat="38.3273350" lon="-0.6981400">
        <ele>374.4</ele>
        <time>2018-10-04T08:56:55Z</time>
      </trkpt>
      <trkpt lat="38.3273710" lon="-0.6981070">
        <ele>374.6</ele>
        <time>2018-10-04T08:56:56Z</time>
      </trkpt>
      <trkpt lat="38.3274000" lon="-0.6980800">
        <ele>374.3</ele>
        <time>2018-10-04T08:56:57Z</time>
      </trkpt>
      <trkpt lat="38.3274280" lon="-0.6980650">
        <ele>374.5</ele>
        <time>2018-10-04T08:56:58Z</time>
      </trkpt>
      <trkpt lat="38.3274520" lon="-0.6980570">
        <ele>374.2</ele>
        <time>2018-10-04T08:56:59Z</time>
      </trkpt>
      <trkpt lat="38.3274700" lon="-0.6980530">
        <ele>374.2</ele>
        <time>2018-10-04T08:57:00Z</time>
      </trkpt>
      <trkpt lat="38.3274910" lon="-0.6980490">
        <ele>374.4</ele>
        <time>2018-10-04T08:57:01Z</time>
      </trkpt>
      <trkpt lat="38.3275140" lon="-0.6980470">
        <ele>374.4</ele>
        <time>2018-10-04T08:57:02Z</time>
      </trkpt>
      <trkpt lat="38.3275330" lon="-0.6980460">
        <ele>374.3</ele>
        <time>2018-10-04T08:57:03Z</time>
      </trkpt>
      <trkpt lat="38.3275520" lon="-0.6980470">
        <ele>374.3</ele>
        <time>2018-10-04T08:57:04Z</time>
      </trkpt>
      <trkpt lat="38.3275680" lon="-0.6980520">
        <ele>374.2</ele>
        <time>2018-10-04T08:57:05Z</time>
      </trkpt>
      <trkpt lat="38.3275800" lon="-0.6980640">
        <ele>374.2</ele>
        <time>2018-10-04T08:57:06Z</time>
      </trkpt>
      <trkpt lat="38.3275900" lon="-0.6980820">
        <ele>374.1</ele>
        <time>2018-10-04T08:57:07Z</time>
      </trkpt>
      <trkpt lat="38.3276010" lon="-0.6981000">
        <ele>374.0</ele>
        <time>2018-10-04T08:57:08Z</time>
      </trkpt>
      <trkpt lat="38.3276120" lon="-0.6981160">
        <ele>374.0</ele>
        <time>2018-10-04T08:57:09Z</time>
      </trkpt>
      <trkpt lat="38.3276240" lon="-0.6981320">
        <ele>373.9</ele>
        <time>2018-10-04T08:57:10Z</time>
      </trkpt>
      <trkpt lat="38.3276380" lon="-0.6981470">
        <ele>373.9</ele>
        <time>2018-10-04T08:57:11Z</time>
      </trkpt>
      <trkpt lat="38.3276500" lon="-0.6981640">
        <ele>373.8</ele>
        <time>2018-10-04T08:57:12Z</time>
      </trkpt>
      <trkpt lat="38.3276610" lon="-0.6981820">
        <ele>373.7</ele>
        <time>2018-10-04T08:57:13Z</time>
      </trkpt>
      <trkpt lat="38.3276720" lon="-0.6981990">
        <ele>373.7</ele>
        <time>2018-10-04T08:57:14Z</time>
      </trkpt>
      <trkpt lat="38.3276820" lon="-0.6982170">
        <ele>373.6</ele>
        <time>2018-10-04T08:57:15Z</time>
      </trkpt>
      <trkpt lat="38.3276930" lon="-0.6982340">
        <ele>373.6</ele>
        <time>2018-10-04T08:57:16Z</time>
      </trkpt>
      <trkpt lat="38.3277030" lon="-0.6982510">
        <ele>373.5</ele>
        <time>2018-10-04T08:57:17Z</time>
      </trkpt>
      <trkpt lat="38.3277130" lon="-0.6982680">
        <ele>373.5</ele>
        <time>2018-10-04T08:57:18Z</time>
      </trkpt>
      <trkpt lat="38.3277240" lon="-0.6982850">
        <ele>373.4</ele>
        <time>2018-10-04T08:57:19Z</time>
      </trkpt>
      <trkpt lat="38.3277370" lon="-0.6982970">
        <ele>373.3</ele>
        <time>2018-10-04T08:57:20Z</time>
      </trkpt>
      <trkpt lat="38.3277500" lon="-0.6983090">
        <ele>373.3</ele>
        <time>2018-10-04T08:57:21Z</time>
      </trkpt>
      <trkpt lat="38.3277610" lon="-0.6983240">
        <ele>373.2</ele>
        <time>2018-10-04T08:57:22Z</time>
      </trkpt>
      <trkpt lat="38.3277710" lon="-0.6983410">
        <ele>373.2</ele>
        <time>2018-10-04T08:57:23Z</time>
      </trkpt>
      <trkpt lat="38.3277800" lon="-0.6983570">
        <ele>373.1</ele>
        <time>2018-10-04T08:57:24Z</time>
      </trkpt>
      <trkpt lat="38.3277910" lon="-0.6983730">
        <ele>373.1</ele>
        <time>2018-10-04T08:57:25Z</time>
      </trkpt>
      <trkpt lat="38.3278020" lon="-0.6983860">
        <ele>373.0</ele>
        <time>2018-10-04T08:57:26Z</time>
      </trkpt>
      <trkpt lat="38.3278120" lon="-0.6984000">
        <ele>373.0</ele>
        <time>2018-10-04T08:57:27Z</time>
      </trkpt>
      <trkpt lat="38.3278230" lon="-0.6984160">
        <ele>372.9</ele>
        <time>2018-10-04T08:57:28Z</time>
      </trkpt>
      <trkpt lat="38.3278340" lon="-0.6984320">
        <ele>372.9</ele>
        <time>2018-10-04T08:57:29Z</time>
      </trkpt>
      <trkpt lat="38.3278460" lon="-0.6984500">
        <ele>372.8</ele>
        <time>2018-10-04T08:57:30Z</time>
      </trkpt>
      <trkpt lat="38.3278560" lon="-0.6984670">
        <ele>372.7</ele>
        <time>2018-10-04T08:57:31Z</time>
      </trkpt>
      <trkpt lat="38.3278680" lon="-0.6984830">
        <ele>372.7</ele>
        <time>2018-10-04T08:57:32Z</time>
      </trkpt>
      <trkpt lat="38.3278800" lon="-0.6984990">
        <ele>372.6</ele>
        <time>2018-10-04T08:57:33Z</time>
      </trkpt>
      <trkpt lat="38.3278920" lon="-0.6985140">
        <ele>372.6</ele>
        <time>2018-10-04T08:57:34Z</time>
      </trkpt>
      <trkpt lat="38.3279040" lon="-0.6985280">
        <ele>372.5</ele>
        <time>2018-10-04T08:57:35Z</time>
      </trkpt>
      <trkpt lat="38.3279140" lon="-0.6985440">
        <ele>372.4</ele>
        <time>2018-10-04T08:57:36Z</time>
      </trkpt>
      <trkpt lat="38.3279230" lon="-0.6985600">
        <ele>372.4</ele>
        <time>2018-10-04T08:57:37Z</time>
      </trkpt>
      <trkpt lat="38.3279320" lon="-0.6985760">
        <ele>372.3</ele>
        <time>2018-10-04T08:57:38Z</time>
      </trkpt>
      <trkpt lat="38.3279390" lon="-0.6985930">
        <ele>372.3</ele>
        <time>2018-10-04T08:57:39Z</time>
      </trkpt>
      <trkpt lat="38.3279430" lon="-0.6986120">
        <ele>372.2</ele>
        <time>2018-10-04T08:57:40Z</time>
      </trkpt>
      <trkpt lat="38.3279450" lon="-0.6986320">
        <ele>372.2</ele>
        <time>2018-10-04T08:57:41Z</time>
      </trkpt>
      <trkpt lat="38.3279420" lon="-0.6986510">
        <ele>372.1</ele>
        <time>2018-10-04T08:57:42Z</time>
      </trkpt>
      <trkpt lat="38.3279380" lon="-0.6986720">
        <ele>372.1</ele>
        <time>2018-10-04T08:57:43Z</time>
      </trkpt>
      <trkpt lat="38.3279320" lon="-0.6986910">
        <ele>372.0</ele>
        <time>2018-10-04T08:57:44Z</time>
      </trkpt>
      <trkpt lat="38.3279270" lon="-0.6987110">
        <ele>372.0</ele>
        <time>2018-10-04T08:57:45Z</time>
      </trkpt>
      <trkpt lat="38.3279210" lon="-0.6987320">
        <ele>371.9</ele>
        <time>2018-10-04T08:57:46Z</time>
      </trkpt>
      <trkpt lat="38.3279150" lon="-0.6987520">
        <ele>371.8</ele>
        <time>2018-10-04T08:57:47Z</time>
      </trkpt>
      <trkpt lat="38.3279090" lon="-0.6987700">
        <ele>371.8</ele>
        <time>2018-10-04T08:57:48Z</time>
      </trkpt>
      <trkpt lat="38.3278990" lon="-0.6987890">
        <ele>371.7</ele>
        <time>2018-10-04T08:57:49Z</time>
      </trkpt>
      <trkpt lat="38.3278880" lon="-0.6988050">
        <ele>371.7</ele>
        <time>2018-10-04T08:57:50Z</time>
      </trkpt>
      <trkpt lat="38.3278740" lon="-0.6988200">
        <ele>371.6</ele>
        <time>2018-10-04T08:57:51Z</time>
      </trkpt>
      <trkpt lat="38.3278600" lon="-0.6988360">
        <ele>371.6</ele>
        <time>2018-10-04T08:57:52Z</time>
      </trkpt>
      <trkpt lat="38.3278470" lon="-0.6988540">
        <ele>371.5</ele>
        <time>2018-10-04T08:57:53Z</time>
      </trkpt>
      <trkpt lat="38.3278340" lon="-0.6988720">
        <ele>371.4</ele>
        <time>2018-10-04T08:57:54Z</time>
      </trkpt>
      <trkpt lat="38.3278200" lon="-0.6988900">
        <ele>371.4</ele>
        <time>2018-10-04T08:57:55Z</time>
      </trkpt>
      <trkpt lat="38.3278070" lon="-0.6989080">
        <ele>371.3</ele>
        <time>2018-10-04T08:57:56Z</time>
      </trkpt>
      <trkpt lat="38.3277940" lon="-0.6989270">
        <ele>371.2</ele>
        <time>2018-10-04T08:57:57Z</time>
      </trkpt>
      <trkpt lat="38.3277800" lon="-0.6989460">
        <ele>371.2</ele>
        <time>2018-10-04T08:57:58Z</time>
      </trkpt>
      <trkpt lat="38.3277650" lon="-0.6989650">
        <ele>371.1</ele>
        <time>2018-10-04T08:57:59Z</time>
      </trkpt>
      <trkpt lat="38.3277490" lon="-0.6989840">
        <ele>371.0</ele>
        <time>2018-10-04T08:58:00Z</time>
      </trkpt>
      <trkpt lat="38.3277330" lon="-0.6990030">
        <ele>370.9</ele>
        <time>2018-10-04T08:58:01Z</time>
      </trkpt>
      <trkpt lat="38.3277150" lon="-0.6990220">
        <ele>370.9</ele>
        <time>2018-10-04T08:58:02Z</time>
      </trkpt>
      <trkpt lat="38.3276980" lon="-0.6990400">
        <ele>370.8</ele>
        <time>2018-10-04T08:58:03Z</time>
      </trkpt>
      <trkpt lat="38.3276780" lon="-0.6990610">
        <ele>370.7</ele>
        <time>2018-10-04T08:58:04Z</time>
      </trkpt>
      <trkpt lat="38.3276570" lon="-0.6990820">
        <ele>370.6</ele>
        <time>2018-10-04T08:58:05Z</time>
      </trkpt>
      <trkpt lat="38.3276330" lon="-0.6991000">
        <ele>370.5</ele>
        <time>2018-10-04T08:58:06Z</time>
      </trkpt>
      <trkpt lat="38.3276070" lon="-0.6991150">
        <ele>370.4</ele>
        <time>2018-10-04T08:58:07Z</time>
      </trkpt>
      <trkpt lat="38.3275810" lon="-0.6991270">
        <ele>370.3</ele>
        <time>2018-10-04T08:58:08Z</time>
      </trkpt>
      <trkpt lat="38.3275530" lon="-0.6991370">
        <ele>370.2</ele>
        <time>2018-10-04T08:58:09Z</time>
      </trkpt>
      <trkpt lat="38.3275260" lon="-0.6991450">
        <ele>370.1</ele>
        <time>2018-10-04T08:58:10Z</time>
      </trkpt>
      <trkpt lat="38.3274980" lon="-0.6991520">
        <ele>370.0</ele>
        <time>2018-10-04T08:58:11Z</time>
      </trkpt>
      <trkpt lat="38.3274710" lon="-0.6991600">
        <ele>369.9</ele>
        <time>2018-10-04T08:58:12Z</time>
      </trkpt>
      <trkpt lat="38.3274440" lon="-0.6991640">
        <ele>369.8</ele>
        <time>2018-10-04T08:58:13Z</time>
      </trkpt>
      <trkpt lat="38.3274180" lon="-0.6991670">
        <ele>369.8</ele>
        <time>2018-10-04T08:58:14Z</time>
      </trkpt>
      <trkpt lat="38.3273930" lon="-0.6991700">
        <ele>369.7</ele>
        <time>2018-10-04T08:58:15Z</time>
      </trkpt>
      <trkpt lat="38.3273700" lon="-0.6991700">
        <ele>369.6</ele>
        <time>2018-10-04T08:58:16Z</time>
      </trkpt>
      <trkpt lat="38.3273470" lon="-0.6991720">
        <ele>369.5</ele>
        <time>2018-10-04T08:58:17Z</time>
      </trkpt>
      <trkpt lat="38.3273250" lon="-0.6991740">
        <ele>369.4</ele>
        <time>2018-10-04T08:58:18Z</time>
      </trkpt>
      <trkpt lat="38.3273010" lon="-0.6991770">
        <ele>369.4</ele>
        <time>2018-10-04T08:58:19Z</time>
      </trkpt>
      <trkpt lat="38.3272780" lon="-0.6991770">
        <ele>369.3</ele>
        <time>2018-10-04T08:58:20Z</time>
      </trkpt>
      <trkpt lat="38.3272550" lon="-0.6991780">
        <ele>369.2</ele>
        <time>2018-10-04T08:58:21Z</time>
      </trkpt>
      <trkpt lat="38.3272320" lon="-0.6991810">
        <ele>369.1</ele>
        <time>2018-10-04T08:58:22Z</time>
      </trkpt>
      <trkpt lat="38.3272090" lon="-0.6991830">
        <ele>369.0</ele>
        <time>2018-10-04T08:58:23Z</time>
      </trkpt>
      <trkpt lat="38.3271880" lon="-0.6991850">
        <ele>369.0</ele>
        <time>2018-10-04T08:58:24Z</time>
      </trkpt>
      <trkpt lat="38.3271650" lon="-0.6991870">
        <ele>368.9</ele>
        <time>2018-10-04T08:58:25Z</time>
      </trkpt>
      <trkpt lat="38.3271420" lon="-0.6991890">
        <ele>368.8</ele>
        <time>2018-10-04T08:58:26Z</time>
      </trkpt>
      <trkpt lat="38.3271190" lon="-0.6991900">
        <ele>368.7</ele>
        <time>2018-10-04T08:58:27Z</time>
      </trkpt>
      <trkpt lat="38.3270970" lon="-0.6991920">
        <ele>368.7</ele>
        <time>2018-10-04T08:58:28Z</time>
      </trkpt>
      <trkpt lat="38.3270750" lon="-0.6991950">
        <ele>368.6</ele>
        <time>2018-10-04T08:58:29Z</time>
      </trkpt>
      <trkpt lat="38.3270510" lon="-0.6991970">
        <ele>368.5</ele>
        <time>2018-10-04T08:58:30Z</time>
      </trkpt>
      <trkpt lat="38.3270310" lon="-0.6992000">
        <ele>368.4</ele>
        <time>2018-10-04T08:58:31Z</time>
      </trkpt>
      <trkpt lat="38.3270110" lon="-0.6992020">
        <ele>368.4</ele>
        <time>2018-10-04T08:58:32Z</time>
      </trkpt>
      <trkpt lat="38.3269890" lon="-0.6992030">
        <ele>368.3</ele>
        <time>2018-10-04T08:58:33Z</time>
      </trkpt>
      <trkpt lat="38.3269670" lon="-0.6992050">
        <ele>368.2</ele>
        <time>2018-10-04T08:58:34Z</time>
      </trkpt>
      <trkpt lat="38.3269450" lon="-0.6992100">
        <ele>368.1</ele>
        <time>2018-10-04T08:58:35Z</time>
      </trkpt>
      <trkpt lat="38.3269230" lon="-0.6992140">
        <ele>368.1</ele>
        <time>2018-10-04T08:58:36Z</time>
      </trkpt>
      <trkpt lat="38.3269020" lon="-0.6992210">
        <ele>368.0</ele>
        <time>2018-10-04T08:58:37Z</time>
      </trkpt>
      <trkpt lat="38.3268800" lon="-0.6992290">
        <ele>367.9</ele>
        <time>2018-10-04T08:58:38Z</time>
      </trkpt>
      <trkpt lat="38.3268610" lon="-0.6992380">
        <ele>367.8</ele>
        <time>2018-10-04T08:58:39Z</time>
      </trkpt>
      <trkpt lat="38.3268450" lon="-0.6992460">
        <ele>367.8</ele>
        <time>2018-10-04T08:58:40Z</time>
      </trkpt>
      <trkpt lat="38.3268290" lon="-0.6992560">
        <ele>367.7</ele>
        <time>2018-10-04T08:58:41Z</time>
      </trkpt>
      <trkpt lat="38.3268150" lon="-0.6992680">
        <ele>367.7</ele>
        <time>2018-10-04T08:58:42Z</time>
      </trkpt>
      <trkpt lat="38.3268010" lon="-0.6992820">
        <ele>367.6</ele>
        <time>2018-10-04T08:58:43Z</time>
      </trkpt>
      <trkpt lat="38.3267890" lon="-0.6992970">
        <ele>367.6</ele>
        <time>2018-10-04T08:58:44Z</time>
      </trkpt>
      <trkpt lat="38.3267780" lon="-0.6993140">
        <ele>367.5</ele>
        <time>2018-10-04T08:58:45Z</time>
      </trkpt>
      <trkpt lat="38.3267720" lon="-0.6993330">
        <ele>367.4</ele>
        <time>2018-10-04T08:58:46Z</time>
      </trkpt>
      <trkpt lat="38.3267710" lon="-0.6993540">
        <ele>367.4</ele>
        <time>2018-10-04T08:58:47Z</time>
      </trkpt>
      <trkpt lat="38.3267730" lon="-0.6993740">
        <ele>367.3</ele>
        <time>2018-10-04T08:58:48Z</time>
      </trkpt>
      <trkpt lat="38.3267830" lon="-0.6993920">
        <ele>367.3</ele>
        <time>2018-10-04T08:58:49Z</time>
      </trkpt>
      <trkpt lat="38.3267940" lon="-0.6994110">
        <ele>367.2</ele>
        <time>2018-10-04T08:58:50Z</time>
      </trkpt>
      <trkpt lat="38.3268070" lon="-0.6994270">
        <ele>367.1</ele>
        <time>2018-10-04T08:58:51Z</time>
      </trkpt>
      <trkpt lat="38.3268190" lon="-0.6994450">
        <ele>367.0</ele>
        <time>2018-10-04T08:58:52Z</time>
      </trkpt>
      <trkpt lat="38.3268340" lon="-0.6994600">
        <ele>366.9</ele>
        <time>2018-10-04T08:58:53Z</time>
      </trkpt>
      <trkpt lat="38.3268490" lon="-0.6994740">
        <ele>366.9</ele>
        <time>2018-10-04T08:58:54Z</time>
      </trkpt>
      <trkpt lat="38.3268640" lon="-0.6994860">
        <ele>366.8</ele>
        <time>2018-10-04T08:58:55Z</time>
      </trkpt>
      <trkpt lat="38.3268780" lon="-0.6994970">
        <ele>366.8</ele>
        <time>2018-10-04T08:58:56Z</time>
      </trkpt>
      <trkpt lat="38.3268920" lon="-0.6995090">
        <ele>366.7</ele>
        <time>2018-10-04T08:58:57Z</time>
      </trkpt>
      <trkpt lat="38.3269050" lon="-0.6995180">
        <ele>366.6</ele>
        <time>2018-10-04T08:58:58Z</time>
      </trkpt>
      <trkpt lat="38.3269170" lon="-0.6995270">
        <ele>366.6</ele>
        <time>2018-10-04T08:58:59Z</time>
      </trkpt>
      <trkpt lat="38.3269170" lon="-0.6995410">
        <ele>366.6</ele>
        <time>2018-10-04T08:59:00Z</time>
      </trkpt>
      <trkpt lat="38.3269150" lon="-0.6995510">
        <ele>366.5</ele>
        <time>2018-10-04T08:59:01Z</time>
      </trkpt>
      <trkpt lat="38.3269060" lon="-0.6995520">
        <ele>366.5</ele>
        <time>2018-10-04T08:59:02Z</time>
      </trkpt>
      <trkpt lat="38.3268970" lon="-0.6995470">
        <ele>366.5</ele>
        <time>2018-10-04T08:59:03Z</time>
      </trkpt>
      <trkpt lat="38.3268860" lon="-0.6995330">
        <ele>366.4</ele>
        <time>2018-10-04T08:59:04Z</time>
      </trkpt>
      <trkpt lat="38.3268660" lon="-0.6995110">
        <ele>366.3</ele>
        <time>2018-10-04T08:59:05Z</time>
      </trkpt>
      <trkpt lat="38.3268400" lon="-0.6994790">
        <ele>366.2</ele>
        <time>2018-10-04T08:59:06Z</time>
      </trkpt>
      <trkpt lat="38.3268070" lon="-0.6994350">
        <ele>366.0</ele>
        <time>2018-10-04T08:59:07Z</time>
      </trkpt>
      <trkpt lat="38.3267800" lon="-0.6993900">
        <ele>365.9</ele>
        <time>2018-10-04T08:59:08Z</time>
      </trkpt>
      <trkpt lat="38.3267690" lon="-0.6993490">
        <ele>365.8</ele>
        <time>2018-10-04T08:59:09Z</time>
      </trkpt>
      <trkpt lat="38.3267760" lon="-0.6993090">
        <ele>365.7</ele>
        <time>2018-10-04T08:59:10Z</time>
      </trkpt>
      <trkpt lat="38.3268020" lon="-0.6992720">
        <ele>365.5</ele>
        <time>2018-10-04T08:59:11Z</time>
      </trkpt>
      <trkpt lat="38.3268450" lon="-0.6992420">
        <ele>365.4</ele>
        <time>2018-10-04T08:59:12Z</time>
      </trkpt>
      <trkpt lat="38.3269020" lon="-0.6992180">
        <ele>365.2</ele>
        <time>2018-10-04T08:59:13Z</time>
      </trkpt>
      <trkpt lat="38.3269670" lon="-0.6992060">
        <ele>364.9</ele>
        <time>2018-10-04T08:59:14Z</time>
      </trkpt>
      <trkpt lat="38.3270450" lon="-0.6991960">
        <ele>364.7</ele>
        <time>2018-10-04T08:59:15Z</time>
      </trkpt>
      <trkpt lat="38.3271250" lon="-0.6991890">
        <ele>364.4</ele>
        <time>2018-10-04T08:59:16Z</time>
      </trkpt>
      <trkpt lat="38.3272120" lon="-0.6991820">
        <ele>364.1</ele>
        <time>2018-10-04T08:59:17Z</time>
      </trkpt>
      <trkpt lat="38.3273060" lon="-0.6991740">
        <ele>363.8</ele>
        <time>2018-10-04T08:59:18Z</time>
      </trkpt>
      <trkpt lat="38.3274050" lon="-0.6991630">
        <ele>363.4</ele>
        <time>2018-10-04T08:59:19Z</time>
      </trkpt>
      <trkpt lat="38.3275060" lon="-0.6991330">
        <ele>363.1</ele>
        <time>2018-10-04T08:59:20Z</time>
      </trkpt>
      <trkpt lat="38.3276030" lon="-0.6990880">
        <ele>362.7</ele>
        <time>2018-10-04T08:59:21Z</time>
      </trkpt>
      <trkpt lat="38.3276870" lon="-0.6990250">
        <ele>362.4</ele>
        <time>2018-10-04T08:59:22Z</time>
      </trkpt>
      <trkpt lat="38.3277600" lon="-0.6989470">
        <ele>362.1</ele>
        <time>2018-10-04T08:59:23Z</time>
      </trkpt>
      <trkpt lat="38.3278270" lon="-0.6988640">
        <ele>361.8</ele>
        <time>2018-10-04T08:59:24Z</time>
      </trkpt>
      <trkpt lat="38.3278800" lon="-0.6987920">
        <ele>361.5</ele>
        <time>2018-10-04T08:59:25Z</time>
      </trkpt>
      <trkpt lat="38.3279170" lon="-0.6987310">
        <ele>361.3</ele>
        <time>2018-10-04T08:59:26Z</time>
      </trkpt>
      <trkpt lat="38.3279360" lon="-0.6986700">
        <ele>361.1</ele>
        <time>2018-10-04T08:59:27Z</time>
      </trkpt>
      <trkpt lat="38.3279260" lon="-0.6986070">
        <ele>360.9</ele>
        <time>2018-10-04T08:59:28Z</time>
      </trkpt>
      <trkpt lat="38.3279020" lon="-0.6985430">
        <ele>360.8</ele>
        <time>2018-10-04T08:59:29Z</time>
      </trkpt>
      <trkpt lat="38.3278570" lon="-0.6984820">
        <ele>360.5</ele>
        <time>2018-10-04T08:59:30Z</time>
      </trkpt>
      <trkpt lat="38.3278060" lon="-0.6984100">
        <ele>360.3</ele>
        <time>2018-10-04T08:59:31Z</time>
      </trkpt>
      <trkpt lat="38.3277500" lon="-0.6983300">
        <ele>360.0</ele>
        <time>2018-10-04T08:59:32Z</time>
      </trkpt>
      <trkpt lat="38.3276880" lon="-0.6982430">
        <ele>359.7</ele>
        <time>2018-10-04T08:59:33Z</time>
      </trkpt>
      <trkpt lat="38.3276230" lon="-0.6981490">
        <ele>359.3</ele>
        <time>2018-10-04T08:59:34Z</time>
      </trkpt>
      <trkpt lat="38.3275670" lon="-0.6980510">
        <ele>359.0</ele>
        <time>2018-10-04T08:59:35Z</time>
      </trkpt>
      <trkpt lat="38.3275220" lon="-0.6979620">
        <ele>358.7</ele>
        <time>2018-10-04T08:59:36Z</time>
      </trkpt>
      <trkpt lat="38.3274920" lon="-0.6978700">
        <ele>358.5</ele>
        <time>2018-10-04T08:59:37Z</time>
      </trkpt>
      <trkpt lat="38.3274680" lon="-0.6977720">
        <ele>358.2</ele>
        <time>2018-10-04T08:59:38Z</time>
      </trkpt>
      <trkpt lat="38.3274450" lon="-0.6976690">
        <ele>357.9</ele>
        <time>2018-10-04T08:59:39Z</time>
      </trkpt>
      <trkpt lat="38.3274330" lon="-0.6975540">
        <ele>357.6</ele>
        <time>2018-10-04T08:59:40Z</time>
      </trkpt>
      <trkpt lat="38.3274340" lon="-0.6974260">
        <ele>357.2</ele>
        <time>2018-10-04T08:59:41Z</time>
      </trkpt>
      <trkpt lat="38.3274450" lon="-0.6972880">
        <ele>356.9</ele>
        <time>2018-10-04T08:59:42Z</time>
      </trkpt>
      <trkpt lat="38.3274620" lon="-0.6971490">
        <ele>356.5</ele>
        <time>2018-10-04T08:59:43Z</time>
      </trkpt>
      <trkpt lat="38.3274770" lon="-0.6970170">
        <ele>356.1</ele>
        <time>2018-10-04T08:59:44Z</time>
      </trkpt>
      <trkpt lat="38.3274950" lon="-0.6968970">
        <ele>355.8</ele>
        <time>2018-10-04T08:59:45Z</time>
      </trkpt>
      <trkpt lat="38.3275000" lon="-0.6967920">
        <ele>355.5</ele>
        <time>2018-10-04T08:59:46Z</time>
      </trkpt>
      <trkpt lat="38.3274880" lon="-0.6966890">
        <ele>355.3</ele>
        <time>2018-10-04T08:59:47Z</time>
      </trkpt>
      <trkpt lat="38.3274610" lon="-0.6965920">
        <ele>355.0</ele>
        <time>2018-10-04T08:59:48Z</time>
      </trkpt>
      <trkpt lat="38.3274200" lon="-0.6965030">
        <ele>354.7</ele>
        <time>2018-10-04T08:59:49Z</time>
      </trkpt>
      <trkpt lat="38.3273750" lon="-0.6964120">
        <ele>354.4</ele>
        <time>2018-10-04T08:59:50Z</time>
      </trkpt>
      <trkpt lat="38.3273400" lon="-0.6963140">
        <ele>354.1</ele>
        <time>2018-10-04T08:59:51Z</time>
      </trkpt>
      <trkpt lat="38.3273170" lon="-0.6962120">
        <ele>353.9</ele>
        <time>2018-10-04T08:59:52Z</time>
      </trkpt>
      <trkpt lat="38.3272960" lon="-0.6961090">
        <ele>353.6</ele>
        <time>2018-10-04T08:59:53Z</time>
      </trkpt>
      <trkpt lat="38.3272810" lon="-0.6960020">
        <ele>353.3</ele>
        <time>2018-10-04T08:59:54Z</time>
      </trkpt>
      <trkpt lat="38.3272680" lon="-0.6958930">
        <ele>353.0</ele>
        <time>2018-10-04T08:59:55Z</time>
      </trkpt>
      <trkpt lat="38.3272540" lon="-0.6957790">
        <ele>352.7</ele>
        <time>2018-10-04T08:59:56Z</time>
      </trkpt>
      <trkpt lat="38.3272380" lon="-0.6956650">
        <ele>352.4</ele>
        <time>2018-10-04T08:59:57Z</time>
      </trkpt>
      <trkpt lat="38.3272200" lon="-0.6955500">
        <ele>352.0</ele>
        <time>2018-10-04T08:59:58Z</time>
      </trkpt>
      <trkpt lat="38.3272020" lon="-0.6954350">
        <ele>351.7</ele>
        <time>2018-10-04T08:59:59Z</time>
      </trkpt>
      <trkpt lat="38.3271840" lon="-0.6953200">
        <ele>351.4</ele>
        <time>2018-10-04T09:00:00Z</time>
      </trkpt>
      <trkpt lat="38.3271660" lon="-0.6952020">
        <ele>351.1</ele>
        <time>2018-10-04T09:00:01Z</time>
      </trkpt>
      <trkpt lat="38.3271480" lon="-0.6950860">
        <ele>350.8</ele>
        <time>2018-10-04T09:00:02Z</time>
      </trkpt>
      <trkpt lat="38.3271280" lon="-0.6949720">
        <ele>350.5</ele>
        <time>2018-10-04T09:00:03Z</time>
      </trkpt>
      <trkpt lat="38.3271140" lon="-0.6948620">
        <ele>350.2</ele>
        <time>2018-10-04T09:00:04Z</time>
      </trkpt>
      <trkpt lat="38.3271100" lon="-0.6947520">
        <ele>349.9</ele>
        <time>2018-10-04T09:00:05Z</time>
      </trkpt>
      <trkpt lat="38.3271200" lon="-0.6946410">
        <ele>349.6</ele>
        <time>2018-10-04T09:00:06Z</time>
      </trkpt>
      <trkpt lat="38.3271420" lon="-0.6945320">
        <ele>349.3</ele>
        <time>2018-10-04T09:00:07Z</time>
      </trkpt>
      <trkpt lat="38.3271740" lon="-0.6944260">
        <ele>349.0</ele>
        <time>2018-10-04T09:00:08Z</time>
      </trkpt>
      <trkpt lat="38.3272180" lon="-0.6943260">
        <ele>348.7</ele>
        <time>2018-10-04T09:00:09Z</time>
      </trkpt>
      <trkpt lat="38.3272730" lon="-0.6942310">
        <ele>348.4</ele>
        <time>2018-10-04T09:00:10Z</time>
      </trkpt>
      <trkpt lat="38.3273370" lon="-0.6941400">
        <ele>348.0</ele>
        <time>2018-10-04T09:00:11Z</time>
      </trkpt>
      <trkpt lat="38.3274110" lon="-0.6940600">
        <ele>347.7</ele>
        <time>2018-10-04T09:00:12Z</time>
      </trkpt>
      <trkpt lat="38.3274820" lon="-0.6939950">
        <ele>347.4</ele>
        <time>2018-10-04T09:00:13Z</time>
      </trkpt>
      <trkpt lat="38.3275340" lon="-0.6939350">
        <ele>347.2</ele>
        <time>2018-10-04T09:00:14Z</time>
      </trkpt>
      <trkpt lat="38.3275580" lon="-0.6938760">
        <ele>347.0</ele>
        <time>2018-10-04T09:00:15Z</time>
      </trkpt>
      <trkpt lat="38.3275580" lon="-0.6938150">
        <ele>346.8</ele>
        <time>2018-10-04T09:00:16Z</time>
      </trkpt>
      <trkpt lat="38.3275440" lon="-0.6937650">
        <ele>346.7</ele>
        <time>2018-10-04T09:00:17Z</time>
      </trkpt>
      <trkpt lat="38.3275120" lon="-0.6937190">
        <ele>346.5</ele>
        <time>2018-10-04T09:00:18Z</time>
      </trkpt>
      <trkpt lat="38.3274910" lon="-0.6936660">
        <ele>346.4</ele>
        <time>2018-10-04T09:00:19Z</time>
      </trkpt>
      <trkpt lat="38.3274790" lon="-0.6936050">
        <ele>346.2</ele>
        <time>2018-10-04T09:00:20Z</time>
      </trkpt>
      <trkpt lat="38.3274760" lon="-0.6935400">
        <ele>346.0</ele>
        <time>2018-10-04T09:00:21Z</time>
      </trkpt>
      <trkpt lat="38.3274850" lon="-0.6934740">
        <ele>345.8</ele>
        <time>2018-10-04T09:00:22Z</time>
      </trkpt>
      <trkpt lat="38.3275010" lon="-0.6934080">
        <ele>345.7</ele>
        <time>2018-10-04T09:00:23Z</time>
      </trkpt>
      <trkpt lat="38.3275200" lon="-0.6933420">
        <ele>345.5</ele>
        <time>2018-10-04T09:00:24Z</time>
      </trkpt>
      <trkpt lat="38.3275380" lon="-0.6932770">
        <ele>345.3</ele>
        <time>2018-10-04T09:00:25Z</time>
      </trkpt>
      <trkpt lat="38.3275530" lon="-0.6932130">
        <ele>345.1</ele>
        <time>2018-10-04T09:00:26Z</time>
      </trkpt>
      <trkpt lat="38.3275690" lon="-0.6931510">
        <ele>344.9</ele>
        <time>2018-10-04T09:00:27Z</time>
      </trkpt>
      <trkpt lat="38.3275840" lon="-0.6930940">
        <ele>344.8</ele>
        <time>2018-10-04T09:00:28Z</time>
      </trkpt>
      <trkpt lat="38.3275970" lon="-0.6930390">
        <ele>344.6</ele>
        <time>2018-10-04T09:00:29Z</time>
      </trkpt>
      <trkpt lat="38.3276090" lon="-0.6929860">
        <ele>344.5</ele>
        <time>2018-10-04T09:00:30Z</time>
      </trkpt>
      <trkpt lat="38.3276200" lon="-0.6929320">
        <ele>344.3</ele>
        <time>2018-10-04T09:00:31Z</time>
      </trkpt>
      <trkpt lat="38.3276380" lon="-0.6928800">
        <ele>344.2</ele>
        <time>2018-10-04T09:00:32Z</time>
      </trkpt>
      <trkpt lat="38.3276530" lon="-0.6928220">
        <ele>344.0</ele>
        <time>2018-10-04T09:00:33Z</time>
      </trkpt>
      <trkpt lat="38.3276680" lon="-0.6927530">
        <ele>343.8</ele>
        <time>2018-10-04T09:00:34Z</time>
      </trkpt>
      <trkpt lat="38.3276770" lon="-0.6926670">
        <ele>343.6</ele>
        <time>2018-10-04T09:00:35Z</time>
      </trkpt>
      <trkpt lat="38.3276800" lon="-0.6925690">
        <ele>343.3</ele>
        <time>2018-10-04T09:00:36Z</time>
      </trkpt>
      <trkpt lat="38.3276780" lon="-0.6924650">
        <ele>343.0</ele>
        <time>2018-10-04T09:00:37Z</time>
      </trkpt>
      <trkpt lat="38.3276720" lon="-0.6923530">
        <ele>342.7</ele>
        <time>2018-10-04T09:00:38Z</time>
      </trkpt>
      <trkpt lat="38.3276580" lon="-0.6922360">
        <ele>342.4</ele>
        <time>2018-10-04T09:00:39Z</time>
      </trkpt>
      <trkpt lat="38.3276290" lon="-0.6921170">
        <ele>342.1</ele>
        <time>2018-10-04T09:00:40Z</time>
      </trkpt>
      <trkpt lat="38.3275990" lon="-0.6919920">
        <ele>341.7</ele>
        <time>2018-10-04T09:00:41Z</time>
      </trkpt>
      <trkpt lat="38.3275680" lon="-0.6918670">
        <ele>341.4</ele>
        <time>2018-10-04T09:00:42Z</time>
      </trkpt>
      <trkpt lat="38.3275440" lon="-0.6917580">
        <ele>341.1</ele>
        <time>2018-10-04T09:00:43Z</time>
      </trkpt>
      <trkpt lat="38.3275240" lon="-0.6916560">
        <ele>340.8</ele>
        <time>2018-10-04T09:00:44Z</time>
      </trkpt>
      <trkpt lat="38.3275080" lon="-0.6915610">
        <ele>340.5</ele>
        <time>2018-10-04T09:00:45Z</time>
      </trkpt>
      <trkpt lat="38.3274940" lon="-0.6914740">
        <ele>340.3</ele>
        <time>2018-10-04T09:00:46Z</time>
      </trkpt>
      <trkpt lat="38.3274850" lon="-0.6914020">
        <ele>340.1</ele>
        <time>2018-10-04T09:00:47Z</time>
      </trkpt>
      <trkpt lat="38.3274850" lon="-0.6913350">
        <ele>339.9</ele>
        <time>2018-10-04T09:00:48Z</time>
      </trkpt>
      <trkpt lat="38.3275040" lon="-0.6912700">
        <ele>339.7</ele>
        <time>2018-10-04T09:00:49Z</time>
      </trkpt>
      <trkpt lat="38.3275440" lon="-0.6912130">
        <ele>339.5</ele>
        <time>2018-10-04T09:00:50Z</time>
      </trkpt>
      <trkpt lat="38.3275930" lon="-0.6911580">
        <ele>339.3</ele>
        <time>2018-10-04T09:00:51Z</time>
      </trkpt>
      <trkpt lat="38.3276480" lon="-0.6911040">
        <ele>339.1</ele>
        <time>2018-10-04T09:00:52Z</time>
      </trkpt>
      <trkpt lat="38.3277110" lon="-0.6910550">
        <ele>338.8</ele>
        <time>2018-10-04T09:00:53Z</time>
      </trkpt>
      <trkpt lat="38.3277820" lon="-0.6910180">
        <ele>338.6</ele>
        <time>2018-10-04T09:00:54Z</time>
      </trkpt>
      <trkpt lat="38.3278560" lon="-0.6909930">
        <ele>338.3</ele>
        <time>2018-10-04T09:00:55Z</time>
      </trkpt>
      <trkpt lat="38.3279320" lon="-0.6909820">
        <ele>338.1</ele>
        <time>2018-10-04T09:00:56Z</time>
      </trkpt>
      <trkpt lat="38.3280020" lon="-0.6909900">
        <ele>337.8</ele>
        <time>2018-10-04T09:00:57Z</time>
      </trkpt>
      <trkpt lat="38.3280680" lon="-0.6910050">
        <ele>337.6</ele>
        <time>2018-10-04T09:00:58Z</time>
      </trkpt>
      <trkpt lat="38.3281340" lon="-0.6910180">
        <ele>337.4</ele>
        <time>2018-10-04T09:00:59Z</time>
      </trkpt>
      <trkpt lat="38.3281980" lon="-0.6910310">
        <ele>337.1</ele>
        <time>2018-10-04T09:01:00Z</time>
      </trkpt>
      <trkpt lat="38.3282590" lon="-0.6910420">
        <ele>336.9</ele>
        <time>2018-10-04T09:01:01Z</time>
      </trkpt>
      <trkpt lat="38.3283170" lon="-0.6910510">
        <ele>336.7</ele>
        <time>2018-10-04T09:01:02Z</time>
      </trkpt>
      <trkpt lat="38.3283730" lon="-0.6910570">
        <ele>336.4</ele>
        <time>2018-10-04T09:01:03Z</time>
      </trkpt>
      <trkpt lat="38.3284270" lon="-0.6910610">
        <ele>335.3</ele>
        <time>2018-10-04T09:01:04Z</time>
      </trkpt>
      <trkpt lat="38.3284780" lon="-0.6910630">
        <ele>334.3</ele>
        <time>2018-10-04T09:01:05Z</time>
      </trkpt>
      <trkpt lat="38.3285270" lon="-0.6910660">
        <ele>333.6</ele>
        <time>2018-10-04T09:01:06Z</time>
      </trkpt>
      <trkpt lat="38.3285730" lon="-0.6910710">
        <ele>333.2</ele>
        <time>2018-10-04T09:01:07Z</time>
      </trkpt>
      <trkpt lat="38.3286190" lon="-0.6910750">
        <ele>332.8</ele>
        <time>2018-10-04T09:01:08Z</time>
      </trkpt>
      <trkpt lat="38.3286630" lon="-0.6910790">
        <ele>332.5</ele>
        <time>2018-10-04T09:01:09Z</time>
      </trkpt>
      <trkpt lat="38.3287070" lon="-0.6910840">
        <ele>332.2</ele>
        <time>2018-10-04T09:01:10Z</time>
      </trkpt>
      <trkpt lat="38.3287510" lon="-0.6910890">
        <ele>331.8</ele>
        <time>2018-10-04T09:01:11Z</time>
      </trkpt>
      <trkpt lat="38.3287950" lon="-0.6910950">
        <ele>331.6</ele>
        <time>2018-10-04T09:01:12Z</time>
      </trkpt>
      <trkpt lat="38.3288390" lon="-0.6910980">
        <ele>331.3</ele>
        <time>2018-10-04T09:01:13Z</time>
      </trkpt>
      <trkpt lat="38.3288830" lon="-0.6911020">
        <ele>331.0</ele>
        <time>2018-10-04T09:01:14Z</time>
      </trkpt>
      <trkpt lat="38.3289260" lon="-0.6911020">
        <ele>330.9</ele>
        <time>2018-10-04T09:01:15Z</time>
      </trkpt>
      <trkpt lat="38.3289700" lon="-0.6911020">
        <ele>330.7</ele>
        <time>2018-10-04T09:01:16Z</time>
      </trkpt>
      <trkpt lat="38.3290130" lon="-0.6911060">
        <ele>330.6</ele>
        <time>2018-10-04T09:01:17Z</time>
      </trkpt>
      <trkpt lat="38.3290550" lon="-0.6911130">
        <ele>330.5</ele>
        <time>2018-10-04T09:01:18Z</time>
      </trkpt>
      <trkpt lat="38.3290960" lon="-0.6911230">
        <ele>330.4</ele>
        <time>2018-10-04T09:01:19Z</time>
      </trkpt>
      <trkpt lat="38.3291360" lon="-0.6911320">
        <ele>330.3</ele>
        <time>2018-10-04T09:01:20Z</time>
      </trkpt>
      <trkpt lat="38.3291740" lon="-0.6911420">
        <ele>330.2</ele>
        <time>2018-10-04T09:01:21Z</time>
      </trkpt>
      <trkpt lat="38.3292110" lon="-0.6911510">
        <ele>330.0</ele>
        <time>2018-10-04T09:01:22Z</time>
      </trkpt>
      <trkpt lat="38.3292470" lon="-0.6911630">
        <ele>329.3</ele>
        <time>2018-10-04T09:01:23Z</time>
      </trkpt>
      <trkpt lat="38.3292840" lon="-0.6911730">
        <ele>328.7</ele>
        <time>2018-10-04T09:01:24Z</time>
      </trkpt>
      <trkpt lat="38.3293230" lon="-0.6911900">
        <ele>328.2</ele>
        <time>2018-10-04T09:01:25Z</time>
      </trkpt>
      <trkpt lat="38.3293660" lon="-0.6912180">
        <ele>327.5</ele>
        <time>2018-10-04T09:01:26Z</time>
      </trkpt>
      <trkpt lat="38.3294160" lon="-0.6912630">
        <ele>326.8</ele>
        <time>2018-10-04T09:01:27Z</time>
      </trkpt>
      <trkpt lat="38.3294690" lon="-0.6913260">
        <ele>325.9</ele>
        <time>2018-10-04T09:01:28Z</time>
      </trkpt>
      <trkpt lat="38.3295230" lon="-0.6914070">
        <ele>324.8</ele>
        <time>2018-10-04T09:01:29Z</time>
      </trkpt>
      <trkpt lat="38.3295740" lon="-0.6915070">
        <ele>323.6</ele>
        <time>2018-10-04T09:01:30Z</time>
      </trkpt>
      <trkpt lat="38.3296210" lon="-0.6916190">
        <ele>322.6</ele>
        <time>2018-10-04T09:01:31Z</time>
      </trkpt>
      <trkpt lat="38.3296610" lon="-0.6917410">
        <ele>321.5</ele>
        <time>2018-10-04T09:01:32Z</time>
      </trkpt>
      <trkpt lat="38.3296980" lon="-0.6918700">
        <ele>320.5</ele>
        <time>2018-10-04T09:01:33Z</time>
      </trkpt>
      <trkpt lat="38.3297370" lon="-0.6920010">
        <ele>319.5</ele>
        <time>2018-10-04T09:01:34Z</time>
      </trkpt>
      <trkpt lat="38.3297710" lon="-0.6921170">
        <ele>318.1</ele>
        <time>2018-10-04T09:01:35Z</time>
      </trkpt>
      <trkpt lat="38.3297990" lon="-0.6922120">
        <ele>317.1</ele>
        <time>2018-10-04T09:01:36Z</time>
      </trkpt>
      <trkpt lat="38.3298210" lon="-0.6922790">
        <ele>316.2</ele>
        <time>2018-10-04T09:01:37Z</time>
      </trkpt>
      <trkpt lat="38.3298480" lon="-0.6923170">
        <ele>315.5</ele>
        <time>2018-10-04T09:01:38Z</time>
      </trkpt>
      <trkpt lat="38.3298940" lon="-0.6923050">
        <ele>315.0</ele>
        <time>2018-10-04T09:01:39Z</time>
      </trkpt>
      <trkpt lat="38.3299080" lon="-0.6922710">
        <ele>314.7</ele>
        <time>2018-10-04T09:01:40Z</time>
      </trkpt>
      <trkpt lat="38.3299220" lon="-0.6922370">
        <ele>314.4</ele>
        <time>2018-10-04T09:01:41Z</time>
      </trkpt>
      <trkpt lat="38.3299360" lon="-0.6922030">
        <ele>314.2</ele>
        <time>2018-10-04T09:01:42Z</time>
      </trkpt>
      <trkpt lat="38.3299500" lon="-0.6921690">
        <ele>313.7</ele>
        <time>2018-10-04T09:01:43Z</time>
      </trkpt>
      <trkpt lat="38.3299640" lon="-0.6921350">
        <ele>313.3</ele>
        <time>2018-10-04T09:01:44Z</time>
      </trkpt>
      <trkpt lat="38.3299650" lon="-0.6920460">
        <ele>312.6</ele>
        <time>2018-10-04T09:01:45Z</time>
      </trkpt>
      <trkpt lat="38.3299660" lon="-0.6919480">
        <ele>311.9</ele>
        <time>2018-10-04T09:01:46Z</time>
      </trkpt>
      <trkpt lat="38.3299630" lon="-0.6918460">
        <ele>311.1</ele>
        <time>2018-10-04T09:01:47Z</time>
      </trkpt>
      <trkpt lat="38.3299550" lon="-0.6917370">
        <ele>310.0</ele>
        <time>2018-10-04T09:01:48Z</time>
      </trkpt>
      <trkpt lat="38.3299420" lon="-0.6916230">
        <ele>309.2</ele>
        <time>2018-10-04T09:01:49Z</time>
      </trkpt>
      <trkpt lat="38.3299260" lon="-0.6915010">
        <ele>308.0</ele>
        <time>2018-10-04T09:01:50Z</time>
      </trkpt>
      <trkpt lat="38.3299090" lon="-0.6913900">
        <ele>307.0</ele>
        <time>2018-10-04T09:01:51Z</time>
      </trkpt>
      <trkpt lat="38.3298960" lon="-0.6912980">
        <ele>306.2</ele>
        <time>2018-10-04T09:01:52Z</time>
      </trkpt>
      <trkpt lat="38.3298870" lon="-0.6912150">
        <ele>305.3</ele>
        <time>2018-10-04T09:01:53Z</time>
      </trkpt>
      <trkpt lat="38.3298840" lon="-0.6911480">
        <ele>304.7</ele>
        <time>2018-10-04T09:01:54Z</time>
      </trkpt>
      <trkpt lat="38.3298890" lon="-0.6910930">
        <ele>304.3</ele>
        <time>2018-10-04T09:01:55Z</time>
      </trkpt>
      <trkpt lat="38.3299130" lon="-0.6910500">
        <ele>303.9</ele>
        <time>2018-10-04T09:01:56Z</time>
      </trkpt>
      <trkpt lat="38.3299530" lon="-0.6910400">
        <ele>303.5</ele>
        <time>2018-10-04T09:01:57Z</time>
      </trkpt>
      <trkpt lat="38.3299920" lon="-0.6910520">
        <ele>303.1</ele>
        <time>2018-10-04T09:01:58Z</time>
      </trkpt>
      <trkpt lat="38.3300310" lon="-0.6910940">
        <ele>302.5</ele>
        <time>2018-10-04T09:01:59Z</time>
      </trkpt>
      <trkpt lat="38.3300600" lon="-0.6911560">
        <ele>301.9</ele>
        <time>2018-10-04T09:02:00Z</time>
      </trkpt>
      <trkpt lat="38.3300940" lon="-0.6912280">
        <ele>301.0</ele>
        <time>2018-10-04T09:02:01Z</time>
      </trkpt>
      <trkpt lat="38.3301320" lon="-0.6913120">
        <ele>299.9</ele>
        <time>2018-10-04T09:02:02Z</time>
      </trkpt>
      <trkpt lat="38.3301760" lon="-0.6914010">
        <ele>298.8</ele>
        <time>2018-10-04T09:02:03Z</time>
      </trkpt>
      <trkpt lat="38.3302270" lon="-0.6914950">
        <ele>297.6</ele>
        <time>2018-10-04T09:02:04Z</time>
      </trkpt>
      <trkpt lat="38.3302840" lon="-0.6915960">
        <ele>296.5</ele>
        <time>2018-10-04T09:02:05Z</time>
      </trkpt>
      <trkpt lat="38.3303430" lon="-0.6917040">
        <ele>294.9</ele>
        <time>2018-10-04T09:02:06Z</time>
      </trkpt>
      <trkpt lat="38.3304010" lon="-0.6918160">
        <ele>293.5</ele>
        <time>2018-10-04T09:02:07Z</time>
      </trkpt>
      <trkpt lat="38.3304570" lon="-0.6919290">
        <ele>292.1</ele>
        <time>2018-10-04T09:02:08Z</time>
      </trkpt>
      <trkpt lat="38.3305120" lon="-0.6920320">
        <ele>290.6</ele>
        <time>2018-10-04T09:02:09Z</time>
      </trkpt>
      <trkpt lat="38.3305660" lon="-0.6921250">
        <ele>289.7</ele>
        <time>2018-10-04T09:02:10Z</time>
      </trkpt>
      <trkpt lat="38.3306240" lon="-0.6922120">
        <ele>288.8</ele>
        <time>2018-10-04T09:02:11Z</time>
      </trkpt>
      <trkpt lat="38.3306790" lon="-0.6922840">
        <ele>287.6</ele>
        <time>2018-10-04T09:02:12Z</time>
      </trkpt>
      <trkpt lat="38.3307230" lon="-0.6923450">
        <ele>287.0</ele>
        <time>2018-10-04T09:02:13Z</time>
      </trkpt>
      <trkpt lat="38.3307620" lon="-0.6923970">
        <ele>286.4</ele>
        <time>2018-10-04T09:02:14Z</time>
      </trkpt>
      <trkpt lat="38.3307960" lon="-0.6924270">
        <ele>286.0</ele>
        <time>2018-10-04T09:02:15Z</time>
      </trkpt>
      <trkpt lat="38.3308250" lon="-0.6924380">
        <ele>285.7</ele>
        <time>2018-10-04T09:02:16Z</time>
      </trkpt>
      <trkpt lat="38.3308530" lon="-0.6924290">
        <ele>279.5</ele>
        <time>2018-10-04T09:02:17Z</time>
      </trkpt>
      <trkpt lat="38.3308770" lon="-0.6924050">
        <ele>279.2</ele>
        <time>2018-10-04T09:02:18Z</time>
      </trkpt>
      <trkpt lat="38.3308910" lon="-0.6923700">
        <ele>278.9</ele>
        <time>2018-10-04T09:02:19Z</time>
      </trkpt>
      <trkpt lat="38.3308920" lon="-0.6923200">
        <ele>278.6</ele>
        <time>2018-10-04T09:02:20Z</time>
      </trkpt>
      <trkpt lat="38.3308890" lon="-0.6922610">
        <ele>278.1</ele>
        <time>2018-10-04T09:02:21Z</time>
      </trkpt>
      <trkpt lat="38.3308850" lon="-0.6921930">
        <ele>277.6</ele>
        <time>2018-10-04T09:02:22Z</time>
      </trkpt>
      <trkpt lat="38.3308790" lon="-0.6921140">
        <ele>277.0</ele>
        <time>2018-10-04T09:02:23Z</time>
      </trkpt>
      <trkpt lat="38.3308720" lon="-0.6920290">
        <ele>276.4</ele>
        <time>2018-10-04T09:02:24Z</time>
      </trkpt>
      <trkpt lat="38.3308660" lon="-0.6919370">
        <ele>275.8</ele>
        <time>2018-10-04T09:02:25Z</time>
      </trkpt>
      <trkpt lat="38.3308600" lon="-0.6918370">
        <ele>275.1</ele>
        <time>2018-10-04T09:02:26Z</time>
      </trkpt>
      <trkpt lat="38.3308530" lon="-0.6917320">
        <ele>274.4</ele>
        <time>2018-10-04T09:02:27Z</time>
      </trkpt>
      <trkpt lat="38.3308440" lon="-0.6916250">
        <ele>273.7</ele>
        <time>2018-10-04T09:02:28Z</time>
      </trkpt>
      <trkpt lat="38.3308390" lon="-0.6915150">
        <ele>273.0</ele>
        <time>2018-10-04T09:02:29Z</time>
      </trkpt>
      <trkpt lat="38.3308360" lon="-0.6914030">
        <ele>272.2</ele>
        <time>2018-10-04T09:02:30Z</time>
      </trkpt>
      <trkpt lat="38.3308290" lon="-0.6912890">
        <ele>271.4</ele>
        <time>2018-10-04T09:02:31Z</time>
      </trkpt>
      <trkpt lat="38.3308210" lon="-0.6911730">
        <ele>270.6</ele>
        <time>2018-10-04T09:02:32Z</time>
      </trkpt>
      <trkpt lat="38.3308130" lon="-0.6910540">
        <ele>269.8</ele>
        <time>2018-10-04T09:02:33Z</time>
      </trkpt>
      <trkpt lat="38.3308060" lon="-0.6909340">
        <ele>269.0</ele>
        <time>2018-10-04T09:02:34Z</time>
      </trkpt>
      <trkpt lat="38.3307980" lon="-0.6908160">
        <ele>268.1</ele>
        <time>2018-10-04T09:02:35Z</time>
      </trkpt>
      <trkpt lat="38.3307890" lon="-0.6906970">
        <ele>267.3</ele>
        <time>2018-10-04T09:02:36Z</time>
      </trkpt>
      <trkpt lat="38.3307800" lon="-0.6905790">
        <ele>266.4</ele>
        <time>2018-10-04T09:02:37Z</time>
      </trkpt>
      <trkpt lat="38.3307700" lon="-0.6904590">
        <ele>265.4</ele>
        <time>2018-10-04T09:02:38Z</time>
      </trkpt>
      <trkpt lat="38.3307540" lon="-0.6903400">
        <ele>264.5</ele>
        <time>2018-10-04T09:02:39Z</time>
      </trkpt>
      <trkpt lat="38.3307390" lon="-0.6902230">
        <ele>263.6</ele>
        <time>2018-10-04T09:02:40Z</time>
      </trkpt>
      <trkpt lat="38.3307210" lon="-0.6901110">
        <ele>262.7</ele>
        <time>2018-10-04T09:02:41Z</time>
      </trkpt>
      <trkpt lat="38.3307050" lon="-0.6900070">
        <ele>262.3</ele>
        <time>2018-10-04T09:02:42Z</time>
      </trkpt>
      <trkpt lat="38.3306840" lon="-0.6899020">
        <ele>263.0</ele>
        <time>2018-10-04T09:02:43Z</time>
      </trkpt>
      <trkpt lat="38.3306570" lon="-0.6897970">
        <ele>263.7</ele>
        <time>2018-10-04T09:02:44Z</time>
      </trkpt>
      <trkpt lat="38.3306330" lon="-0.6896910">
        <ele>264.3</ele>
        <time>2018-10-04T09:02:45Z</time>
      </trkpt>
      <trkpt lat="38.3306050" lon="-0.6895820">
        <ele>264.9</ele>
        <time>2018-10-04T09:02:46Z</time>
      </trkpt>
      <trkpt lat="38.3305770" lon="-0.6894760">
        <ele>265.5</ele>
        <time>2018-10-04T09:02:47Z</time>
      </trkpt>
      <trkpt lat="38.3305560" lon="-0.6893720">
        <ele>265.9</ele>
        <time>2018-10-04T09:02:48Z</time>
      </trkpt>
      <trkpt lat="38.3305340" lon="-0.6892710">
        <ele>266.3</ele>
        <time>2018-10-04T09:02:49Z</time>
      </trkpt>
      <trkpt lat="38.3305090" lon="-0.6891850">
        <ele>266.7</ele>
        <time>2018-10-04T09:02:50Z</time>
      </trkpt>
      <trkpt lat="38.3304860" lon="-0.6891200">
        <ele>267.0</ele>
        <time>2018-10-04T09:02:51Z</time>
      </trkpt>
      <trkpt lat="38.3304700" lon="-0.6890690">
        <ele>267.0</ele>
        <time>2018-10-04T09:02:52Z</time>
      </trkpt>
      <trkpt lat="38.3304710" lon="-0.6890270">
        <ele>267.0</ele>
        <time>2018-10-04T09:02:53Z</time>
      </trkpt>
      <trkpt lat="38.3304870" lon="-0.6890090">
        <ele>267.0</ele>
        <time>2018-10-04T09:02:54Z</time>
      </trkpt>
      <trkpt lat="38.3305080" lon="-0.6889990">
        <ele>266.1</ele>
        <time>2018-10-04T09:02:55Z</time>
      </trkpt>
      <trkpt lat="38.3305350" lon="-0.6890040">
        <ele>265.7</ele>
        <time>2018-10-04T09:02:56Z</time>
      </trkpt>
      <trkpt lat="38.3305690" lon="-0.6890100">
        <ele>265.2</ele>
        <time>2018-10-04T09:02:57Z</time>
      </trkpt>
      <trkpt lat="38.3306050" lon="-0.6890050">
        <ele>264.7</ele>
        <time>2018-10-04T09:02:58Z</time>
      </trkpt>
      <trkpt lat="38.3306470" lon="-0.6889920">
        <ele>264.1</ele>
        <time>2018-10-04T09:02:59Z</time>
      </trkpt>
      <trkpt lat="38.3306940" lon="-0.6889760">
        <ele>263.5</ele>
        <time>2018-10-04T09:03:00Z</time>
      </trkpt>
      <trkpt lat="38.3307440" lon="-0.6889590">
        <ele>262.7</ele>
        <time>2018-10-04T09:03:01Z</time>
      </trkpt>
      <trkpt lat="38.3307980" lon="-0.6889410">
        <ele>261.9</ele>
        <time>2018-10-04T09:03:02Z</time>
      </trkpt>
      <trkpt lat="38.3308540" lon="-0.6889300">
        <ele>260.9</ele>
        <time>2018-10-04T09:03:03Z</time>
      </trkpt>
      <trkpt lat="38.3308980" lon="-0.6889210">
        <ele>260.2</ele>
        <time>2018-10-04T09:03:04Z</time>
      </trkpt>
      <trkpt lat="38.3309350" lon="-0.6889110">
        <ele>259.6</ele>
        <time>2018-10-04T09:03:05Z</time>
      </trkpt>
      <trkpt lat="38.3309690" lon="-0.6889020">
        <ele>259.0</ele>
        <time>2018-10-04T09:03:06Z</time>
      </trkpt>
      <trkpt lat="38.3310010" lon="-0.6888940">
        <ele>258.5</ele>
        <time>2018-10-04T09:03:07Z</time>
      </trkpt>
      <trkpt lat="38.3310310" lon="-0.6888890">
        <ele>258.0</ele>
        <time>2018-10-04T09:03:08Z</time>
      </trkpt>
      <trkpt lat="38.3310540" lon="-0.6888850">
        <ele>258.9</ele>
        <time>2018-10-04T09:03:09Z</time>
      </trkpt>
      <trkpt lat="38.3310720" lon="-0.6888850">
        <ele>259.1</ele>
        <time>2018-10-04T09:03:10Z</time>
      </trkpt>
      <trkpt lat="38.3310900" lon="-0.6888820">
        <ele>259.4</ele>
        <time>2018-10-04T09:03:11Z</time>
      </trkpt>
      <trkpt lat="38.3311060" lon="-0.6888770">
        <ele>259.7</ele>
        <time>2018-10-04T09:03:12Z</time>
      </trkpt>
      <trkpt lat="38.3311240" lon="-0.6888750">
        <ele>260.0</ele>
        <time>2018-10-04T09:03:13Z</time>
      </trkpt>
      <trkpt lat="38.3311400" lon="-0.6888700">
        <ele>260.4</ele>
        <time>2018-10-04T09:03:14Z</time>
      </trkpt>
      <trkpt lat="38.3311570" lon="-0.6888680">
        <ele>260.7</ele>
        <time>2018-10-04T09:03:15Z</time>
      </trkpt>
      <trkpt lat="38.3311740" lon="-0.6888640">
        <ele>261.0</ele>
        <time>2018-10-04T09:03:16Z</time>
      </trkpt>
      <trkpt lat="38.3311920" lon="-0.6888620">
        <ele>261.4</ele>
        <time>2018-10-04T09:03:17Z</time>
      </trkpt>
      <trkpt lat="38.3312100" lon="-0.6888630">
        <ele>261.6</ele>
        <time>2018-10-04T09:03:18Z</time>
      </trkpt>
      <trkpt lat="38.3312270" lon="-0.6888620">
        <ele>261.9</ele>
        <time>2018-10-04T09:03:19Z</time>
      </trkpt>
      <trkpt lat="38.3312430" lon="-0.6888620">
        <ele>262.1</ele>
        <time>2018-10-04T09:03:20Z</time>
      </trkpt>
      <trkpt lat="38.3312590" lon="-0.6888630">
        <ele>262.4</ele>
        <time>2018-10-04T09:03:21Z</time>
      </trkpt>
      <trkpt lat="38.3312750" lon="-0.6888620">
        <ele>262.6</ele>
        <time>2018-10-04T09:03:22Z</time>
      </trkpt>
      <trkpt lat="38.3312920" lon="-0.6888670">
        <ele>262.9</ele>
        <time>2018-10-04T09:03:23Z</time>
      </trkpt>
      <trkpt lat="38.3313090" lon="-0.6888730">
        <ele>263.3</ele>
        <time>2018-10-04T09:03:24Z</time>
      </trkpt>
      <trkpt lat="38.3313240" lon="-0.6888750">
        <ele>263.6</ele>
        <time>2018-10-04T09:03:25Z</time>
      </trkpt>
      <trkpt lat="38.3313420" lon="-0.6888730">
        <ele>263.8</ele>
        <time>2018-10-04T09:03:26Z</time>
      </trkpt>
      <trkpt lat="38.3313590" lon="-0.6888730">
        <ele>264.0</ele>
        <time>2018-10-04T09:03:27Z</time>
      </trkpt>
      <trkpt lat="38.3313750" lon="-0.6888720">
        <ele>264.2</ele>
        <time>2018-10-04T09:03:28Z</time>
      </trkpt>
      <trkpt lat="38.3313910" lon="-0.6888700">
        <ele>264.4</ele>
        <time>2018-10-04T09:03:29Z</time>
      </trkpt>
      <trkpt lat="38.3314070" lon="-0.6888670">
        <ele>264.6</ele>
        <time>2018-10-04T09:03:30Z</time>
      </trkpt>
      <trkpt lat="38.3314250" lon="-0.6888650">
        <ele>264.9</ele>
        <time>2018-10-04T09:03:31Z</time>
      </trkpt>
      <trkpt lat="38.3314410" lon="-0.6888630">
        <ele>265.1</ele>
        <time>2018-10-04T09:03:32Z</time>
      </trkpt>
      <trkpt lat="38.3314580" lon="-0.6888630">
        <ele>265.3</ele>
        <time>2018-10-04T09:03:33Z</time>
      </trkpt>
      <trkpt lat="38.3314740" lon="-0.6888650">
        <ele>265.5</ele>
        <time>2018-10-04T09:03:34Z</time>
      </trkpt>
      <trkpt lat="38.3314870" lon="-0.6888640">
        <ele>265.8</ele>
        <time>2018-10-04T09:03:35Z</time>
      </trkpt>
      <trkpt lat="38.3315010" lon="-0.6888610">
        <ele>266.0</ele>
        <time>2018-10-04T09:03:36Z</time>
      </trkpt>
      <trkpt lat="38.3315170" lon="-0.6888560">
        <ele>266.2</ele>
        <time>2018-10-04T09:03:37Z</time>
      </trkpt>
      <trkpt lat="38.3315320" lon="-0.6888550">
        <ele>266.3</ele>
        <time>2018-10-04T09:03:38Z</time>
      </trkpt>
      <trkpt lat="38.3315470" lon="-0.6888540">
        <ele>266.5</ele>
        <time>2018-10-04T09:03:39Z</time>
      </trkpt>
      <trkpt lat="38.3315650" lon="-0.6888530">
        <ele>266.7</ele>
        <time>2018-10-04T09:03:40Z</time>
      </trkpt>
      <trkpt lat="38.3315810" lon="-0.6888500">
        <ele>266.9</ele>
        <time>2018-10-04T09:03:41Z</time>
      </trkpt>
      <trkpt lat="38.3315980" lon="-0.6888430">
        <ele>267.1</ele>
        <time>2018-10-04T09:03:42Z</time>
      </trkpt>
      <trkpt lat="38.3316130" lon="-0.6888320">
        <ele>267.3</ele>
        <time>2018-10-04T09:03:43Z</time>
      </trkpt>
      <trkpt lat="38.3316260" lon="-0.6888220">
        <ele>267.6</ele>
        <time>2018-10-04T09:03:44Z</time>
      </trkpt>
      <trkpt lat="38.3316400" lon="-0.6888170">
        <ele>267.8</ele>
        <time>2018-10-04T09:03:45Z</time>
      </trkpt>
      <trkpt lat="38.3316560" lon="-0.6888170">
        <ele>268.0</ele>
        <time>2018-10-04T09:03:46Z</time>
      </trkpt>
      <trkpt lat="38.3316710" lon="-0.6888160">
        <ele>268.3</ele>
        <time>2018-10-04T09:03:47Z</time>
      </trkpt>
      <trkpt lat="38.3316860" lon="-0.6888170">
        <ele>268.5</ele>
        <time>2018-10-04T09:03:48Z</time>
      </trkpt>
      <trkpt lat="38.3317010" lon="-0.6888170">
        <ele>268.8</ele>
        <time>2018-10-04T09:03:49Z</time>
      </trkpt>
      <trkpt lat="38.3317160" lon="-0.6888170">
        <ele>269.0</ele>
        <time>2018-10-04T09:03:50Z</time>
      </trkpt>
      <trkpt lat="38.3317310" lon="-0.6888150">
        <ele>269.2</ele>
        <time>2018-10-04T09:03:51Z</time>
      </trkpt>
      <trkpt lat="38.3317440" lon="-0.6888120">
        <ele>269.5</ele>
        <time>2018-10-04T09:03:52Z</time>
      </trkpt>
      <trkpt lat="38.3317570" lon="-0.6888090">
        <ele>269.7</ele>
        <time>2018-10-04T09:03:53Z</time>
      </trkpt>
      <trkpt lat="38.3317710" lon="-0.6888120">
        <ele>270.1</ele>
        <time>2018-10-04T09:03:54Z</time>
      </trkpt>
      <trkpt lat="38.3317860" lon="-0.6888130">
        <ele>270.5</ele>
        <time>2018-10-04T09:03:55Z</time>
      </trkpt>
      <trkpt lat="38.3318000" lon="-0.6888140">
        <ele>270.8</ele>
        <time>2018-10-04T09:03:56Z</time>
      </trkpt>
      <trkpt lat="38.3318150" lon="-0.6888130">
        <ele>271.0</ele>
        <time>2018-10-04T09:03:57Z</time>
      </trkpt>
      <trkpt lat="38.3318300" lon="-0.6888100">
        <ele>271.2</ele>
        <time>2018-10-04T09:03:58Z</time>
      </trkpt>
      <trkpt lat="38.3318460" lon="-0.6888080">
        <ele>271.4</ele>
        <time>2018-10-04T09:03:59Z</time>
      </trkpt>
      <trkpt lat="38.3318620" lon="-0.6888060">
        <ele>271.6</ele>
        <time>2018-10-04T09:04:00Z</time>
      </trkpt>
      <trkpt lat="38.3318780" lon="-0.6888060">
        <ele>271.9</ele>
        <time>2018-10-04T09:04:01Z</time>
      </trkpt>
      <trkpt lat="38.3318940" lon="-0.6888050">
        <ele>272.2</ele>
        <time>2018-10-04T09:04:02Z</time>
      </trkpt>
      <trkpt lat="38.3319080" lon="-0.6888050">
        <ele>272.4</ele>
        <time>2018-10-04T09:04:03Z</time>
      </trkpt>
      <trkpt lat="38.3319220" lon="-0.6888040">
        <ele>272.6</ele>
        <time>2018-10-04T09:04:04Z</time>
      </trkpt>
      <trkpt lat="38.3319340" lon="-0.6888030">
        <ele>272.8</ele>
        <time>2018-10-04T09:04:05Z</time>
      </trkpt>
      <trkpt lat="38.3319490" lon="-0.6888020">
        <ele>273.0</ele>
        <time>2018-10-04T09:04:06Z</time>
      </trkpt>
      <trkpt lat="38.3319650" lon="-0.6888000">
        <ele>273.2</ele>
        <time>2018-10-04T09:04:07Z</time>
      </trkpt>
      <trkpt lat="38.3319790" lon="-0.6887990">
        <ele>273.5</ele>
        <time>2018-10-04T09:04:08Z</time>
      </trkpt>
      <trkpt lat="38.3319950" lon="-0.6887980">
        <ele>273.8</ele>
        <time>2018-10-04T09:04:09Z</time>
      </trkpt>
      <trkpt lat="38.3320120" lon="-0.6887990">
        <ele>274.2</ele>
        <time>2018-10-04T09:04:10Z</time>
      </trkpt>
      <trkpt lat="38.3320270" lon="-0.6888010">
        <ele>274.5</ele>
        <time>2018-10-04T09:04:11Z</time>
      </trkpt>
      <trkpt lat="38.3320420" lon="-0.6888030">
        <ele>274.9</ele>
        <time>2018-10-04T09:04:12Z</time>
      </trkpt>
      <trkpt lat="38.3320560" lon="-0.6888040">
        <ele>275.3</ele>
        <time>2018-10-04T09:04:13Z</time>
      </trkpt>
      <trkpt lat="38.3320710" lon="-0.6888020">
        <ele>275.6</ele>
        <time>2018-10-04T09:04:14Z</time>
      </trkpt>
      <trkpt lat="38.3320870" lon="-0.6888030">
        <ele>276.0</ele>
        <time>2018-10-04T09:04:15Z</time>
      </trkpt>
      <trkpt lat="38.3321030" lon="-0.6888030">
        <ele>276.2</ele>
        <time>2018-10-04T09:04:16Z</time>
      </trkpt>
      <trkpt lat="38.3321170" lon="-0.6888030">
        <ele>276.5</ele>
        <time>2018-10-04T09:04:17Z</time>
      </trkpt>
      <trkpt lat="38.3321320" lon="-0.6888000">
        <ele>276.7</ele>
        <time>2018-10-04T09:04:18Z</time>
      </trkpt>
      <trkpt lat="38.3321460" lon="-0.6887980">
        <ele>276.9</ele>
        <time>2018-10-04T09:04:19Z</time>
      </trkpt>
      <trkpt lat="38.3321600" lon="-0.6887910">
        <ele>277.2</ele>
        <time>2018-10-04T09:04:20Z</time>
      </trkpt>
      <trkpt lat="38.3321750" lon="-0.6887850">
        <ele>277.6</ele>
        <time>2018-10-04T09:04:21Z</time>
      </trkpt>
      <trkpt lat="38.3321910" lon="-0.6887800">
        <ele>278.0</ele>
        <time>2018-10-04T09:04:22Z</time>
      </trkpt>
      <trkpt lat="38.3322050" lon="-0.6887760">
        <ele>278.3</ele>
        <time>2018-10-04T09:04:23Z</time>
      </trkpt>
      <trkpt lat="38.3322180" lon="-0.6887690">
        <ele>278.5</ele>
        <time>2018-10-04T09:04:24Z</time>
      </trkpt>
      <trkpt lat="38.3322310" lon="-0.6887640">
        <ele>278.7</ele>
        <time>2018-10-04T09:04:25Z</time>
      </trkpt>
      <trkpt lat="38.3322460" lon="-0.6887630">
        <ele>278.9</ele>
        <time>2018-10-04T09:04:26Z</time>
      </trkpt>
      <trkpt lat="38.3322620" lon="-0.6887640">
        <ele>279.0</ele>
        <time>2018-10-04T09:04:27Z</time>
      </trkpt>
      <trkpt lat="38.3322770" lon="-0.6887630">
        <ele>279.2</ele>
        <time>2018-10-04T09:04:28Z</time>
      </trkpt>
      <trkpt lat="38.3322920" lon="-0.6887630">
        <ele>279.4</ele>
        <time>2018-10-04T09:04:29Z</time>
      </trkpt>
      <trkpt lat="38.3323060" lon="-0.6887620">
        <ele>279.6</ele>
        <time>2018-10-04T09:04:30Z</time>
      </trkpt>
      <trkpt lat="38.3323220" lon="-0.6887620">
        <ele>279.7</ele>
        <time>2018-10-04T09:04:31Z</time>
      </trkpt>
      <trkpt lat="38.3323380" lon="-0.6887630">
        <ele>279.9</ele>
        <time>2018-10-04T09:04:32Z</time>
      </trkpt>
      <trkpt lat="38.3323540" lon="-0.6887640">
        <ele>280.1</ele>
        <time>2018-10-04T09:04:33Z</time>
      </trkpt>
      <trkpt lat="38.3323690" lon="-0.6887660">
        <ele>280.3</ele>
        <time>2018-10-04T09:04:34Z</time>
      </trkpt>
      <trkpt lat="38.3323830" lon="-0.6887700">
        <ele>280.5</ele>
        <time>2018-10-04T09:04:35Z</time>
      </trkpt>
      <trkpt lat="38.3323980" lon="-0.6887730">
        <ele>280.6</ele>
        <time>2018-10-04T09:04:36Z</time>
      </trkpt>
      <trkpt lat="38.3324120" lon="-0.6887730">
        <ele>280.8</ele>
        <time>2018-10-04T09:04:37Z</time>
      </trkpt>
      <trkpt lat="38.3324270" lon="-0.6887730">
        <ele>281.0</ele>
        <time>2018-10-04T09:04:38Z</time>
      </trkpt>
      <trkpt lat="38.3324430" lon="-0.6887750">
        <ele>281.3</ele>
        <time>2018-10-04T09:04:39Z</time>
      </trkpt>
      <trkpt lat="38.3324590" lon="-0.6887800">
        <ele>281.7</ele>
        <time>2018-10-04T09:04:40Z</time>
      </trkpt>
      <trkpt lat="38.3324750" lon="-0.6887840">
        <ele>281.9</ele>
        <time>2018-10-04T09:04:41Z</time>
      </trkpt>
      <trkpt lat="38.3324910" lon="-0.6887870">
        <ele>282.2</ele>
        <time>2018-10-04T09:04:42Z</time>
      </trkpt>
      <trkpt lat="38.3325070" lon="-0.6887890">
        <ele>282.4</ele>
        <time>2018-10-04T09:04:43Z</time>
      </trkpt>
      <trkpt lat="38.3325220" lon="-0.6887910">
        <ele>282.6</ele>
        <time>2018-10-04T09:04:44Z</time>
      </trkpt>
      <trkpt lat="38.3325370" lon="-0.6887930">
        <ele>282.8</ele>
        <time>2018-10-04T09:04:45Z</time>
      </trkpt>
      <trkpt lat="38.3325530" lon="-0.6887970">
        <ele>283.0</ele>
        <time>2018-10-04T09:04:46Z</time>
      </trkpt>
      <trkpt lat="38.3325670" lon="-0.6888030">
        <ele>283.2</ele>
        <time>2018-10-04T09:04:47Z</time>
      </trkpt>
      <trkpt lat="38.3325810" lon="-0.6888090">
        <ele>283.4</ele>
        <time>2018-10-04T09:04:48Z</time>
      </trkpt>
      <trkpt lat="38.3325970" lon="-0.6888140">
        <ele>283.5</ele>
        <time>2018-10-04T09:04:49Z</time>
      </trkpt>
      <trkpt lat="38.3326100" lon="-0.6888200">
        <ele>283.7</ele>
        <time>2018-10-04T09:04:50Z</time>
      </trkpt>
      <trkpt lat="38.3326240" lon="-0.6888270">
        <ele>283.8</ele>
        <time>2018-10-04T09:04:51Z</time>
      </trkpt>
      <trkpt lat="38.3326400" lon="-0.6888380">
        <ele>284.0</ele>
        <time>2018-10-04T09:04:52Z</time>
      </trkpt>
      <trkpt lat="38.3326540" lon="-0.6888500">
        <ele>284.1</ele>
        <time>2018-10-04T09:04:53Z</time>
      </trkpt>
      <trkpt lat="38.3326660" lon="-0.6888550">
        <ele>284.3</ele>
        <time>2018-10-04T09:04:54Z</time>
      </trkpt>
      <trkpt lat="38.3326800" lon="-0.6888590">
        <ele>284.4</ele>
        <time>2018-10-04T09:04:55Z</time>
      </trkpt>
      <trkpt lat="38.3326940" lon="-0.6888600">
        <ele>284.5</ele>
        <time>2018-10-04T09:04:56Z</time>
      </trkpt>
      <trkpt lat="38.3327070" lon="-0.6888600">
        <ele>284.6</ele>
        <time>2018-10-04T09:04:57Z</time>
      </trkpt>
      <trkpt lat="38.3327230" lon="-0.6888600">
        <ele>284.8</ele>
        <time>2018-10-04T09:04:58Z</time>
      </trkpt>
      <trkpt lat="38.3327380" lon="-0.6888610">
        <ele>284.9</ele>
        <time>2018-10-04T09:04:59Z</time>
      </trkpt>
      <trkpt lat="38.3327530" lon="-0.6888620">
        <ele>285.0</ele>
        <time>2018-10-04T09:05:00Z</time>
      </trkpt>
      <trkpt lat="38.3327680" lon="-0.6888640">
        <ele>285.2</ele>
        <time>2018-10-04T09:05:01Z</time>
      </trkpt>
      <trkpt lat="38.3327840" lon="-0.6888650">
        <ele>285.3</ele>
        <time>2018-10-04T09:05:02Z</time>
      </trkpt>
      <trkpt lat="38.3328010" lon="-0.6888670">
        <ele>285.4</ele>
        <time>2018-10-04T09:05:03Z</time>
      </trkpt>
      <trkpt lat="38.3328180" lon="-0.6888700">
        <ele>285.6</ele>
        <time>2018-10-04T09:05:04Z</time>
      </trkpt>
      <trkpt lat="38.3328330" lon="-0.6888740">
        <ele>285.7</ele>
        <time>2018-10-04T09:05:05Z</time>
      </trkpt>
      <trkpt lat="38.3328500" lon="-0.6888800">
        <ele>285.9</ele>
        <time>2018-10-04T09:05:06Z</time>
      </trkpt>
      <trkpt lat="38.3328670" lon="-0.6888880">
        <ele>286.0</ele>
        <time>2018-10-04T09:05:07Z</time>
      </trkpt>
      <trkpt lat="38.3328840" lon="-0.6888910">
        <ele>286.2</ele>
        <time>2018-10-04T09:05:08Z</time>
      </trkpt>
      <trkpt lat="38.3329010" lon="-0.6888930">
        <ele>286.3</ele>
        <time>2018-10-04T09:05:09Z</time>
      </trkpt>
      <trkpt lat="38.3329170" lon="-0.6888990">
        <ele>286.4</ele>
        <time>2018-10-04T09:05:10Z</time>
      </trkpt>
      <trkpt lat="38.3329330" lon="-0.6889080">
        <ele>286.6</ele>
        <time>2018-10-04T09:05:11Z</time>
      </trkpt>
      <trkpt lat="38.3329500" lon="-0.6889170">
        <ele>286.8</ele>
        <time>2018-10-04T09:05:12Z</time>
      </trkpt>
      <trkpt lat="38.3329670" lon="-0.6889250">
        <ele>287.0</ele>
        <time>2018-10-04T09:05:13Z</time>
      </trkpt>
      <trkpt lat="38.3329840" lon="-0.6889310">
        <ele>287.2</ele>
        <time>2018-10-04T09:05:14Z</time>
      </trkpt>
      <trkpt lat="38.3330030" lon="-0.6889360">
        <ele>287.4</ele>
        <time>2018-10-04T09:05:15Z</time>
      </trkpt>
      <trkpt lat="38.3330210" lon="-0.6889430">
        <ele>287.6</ele>
        <time>2018-10-04T09:05:16Z</time>
      </trkpt>
      <trkpt lat="38.3330380" lon="-0.6889490">
        <ele>287.8</ele>
        <time>2018-10-04T09:05:17Z</time>
      </trkpt>
      <trkpt lat="38.3330550" lon="-0.6889540">
        <ele>288.0</ele>
        <time>2018-10-04T09:05:18Z</time>
      </trkpt>
      <trkpt lat="38.3330720" lon="-0.6889620">
        <ele>288.2</ele>
        <time>2018-10-04T09:05:19Z</time>
      </trkpt>
      <trkpt lat="38.3330880" lon="-0.6889720">
        <ele>288.4</ele>
        <time>2018-10-04T09:05:20Z</time>
      </trkpt>
      <trkpt lat="38.3331030" lon="-0.6889840">
        <ele>288.7</ele>
        <time>2018-10-04T09:05:21Z</time>
      </trkpt>
      <trkpt lat="38.3331170" lon="-0.6890000">
        <ele>288.9</ele>
        <time>2018-10-04T09:05:22Z</time>
      </trkpt>
      <trkpt lat="38.3331310" lon="-0.6890150">
        <ele>289.1</ele>
        <time>2018-10-04T09:05:23Z</time>
      </trkpt>
      <trkpt lat="38.3331470" lon="-0.6890260">
        <ele>289.3</ele>
        <time>2018-10-04T09:05:24Z</time>
      </trkpt>
      <trkpt lat="38.3331630" lon="-0.6890360">
        <ele>289.4</ele>
        <time>2018-10-04T09:05:25Z</time>
      </trkpt>
      <trkpt lat="38.3331810" lon="-0.6890450">
        <ele>289.5</ele>
        <time>2018-10-04T09:05:26Z</time>
      </trkpt>
      <trkpt lat="38.3331960" lon="-0.6890560">
        <ele>289.6</ele>
        <time>2018-10-04T09:05:27Z</time>
      </trkpt>
      <trkpt lat="38.3332130" lon="-0.6890680">
        <ele>289.7</ele>
        <time>2018-10-04T09:05:28Z</time>
      </trkpt>
      <trkpt lat="38.3332310" lon="-0.6890790">
        <ele>289.9</ele>
        <time>2018-10-04T09:05:29Z</time>
      </trkpt>
      <trkpt lat="38.3332480" lon="-0.6890900">
        <ele>290.0</ele>
        <time>2018-10-04T09:05:30Z</time>
      </trkpt>
      <trkpt lat="38.3332670" lon="-0.6891020">
        <ele>290.2</ele>
        <time>2018-10-04T09:05:31Z</time>
      </trkpt>
      <trkpt lat="38.3332830" lon="-0.6891130">
        <ele>290.3</ele>
        <time>2018-10-04T09:05:32Z</time>
      </trkpt>
      <trkpt lat="38.3333000" lon="-0.6891260">
        <ele>290.5</ele>
        <time>2018-10-04T09:05:33Z</time>
      </trkpt>
      <trkpt lat="38.3333190" lon="-0.6891330">
        <ele>290.7</ele>
        <time>2018-10-04T09:05:34Z</time>
      </trkpt>
      <trkpt lat="38.3333360" lon="-0.6891340">
        <ele>290.9</ele>
        <time>2018-10-04T09:05:35Z</time>
      </trkpt>
      <trkpt lat="38.3333560" lon="-0.6891340">
        <ele>291.0</ele>
        <time>2018-10-04T09:05:36Z</time>
      </trkpt>
      <trkpt lat="38.3333760" lon="-0.6891340">
        <ele>291.1</ele>
        <time>2018-10-04T09:05:37Z</time>
      </trkpt>
      <trkpt lat="38.3333970" lon="-0.6891370">
        <ele>291.3</ele>
        <time>2018-10-04T09:05:38Z</time>
      </trkpt>
      <trkpt lat="38.3334170" lon="-0.6891410">
        <ele>291.4</ele>
        <time>2018-10-04T09:05:39Z</time>
      </trkpt>
      <trkpt lat="38.3334360" lon="-0.6891430">
        <ele>291.6</ele>
        <time>2018-10-04T09:05:40Z</time>
      </trkpt>
      <trkpt lat="38.3334560" lon="-0.6891470">
        <ele>291.8</ele>
        <time>2018-10-04T09:05:41Z</time>
      </trkpt>
      <trkpt lat="38.3334750" lon="-0.6891540">
        <ele>292.0</ele>
        <time>2018-10-04T09:05:42Z</time>
      </trkpt>
      <trkpt lat="38.3334940" lon="-0.6891580">
        <ele>292.3</ele>
        <time>2018-10-04T09:05:43Z</time>
      </trkpt>
      <trkpt lat="38.3335130" lon="-0.6891590">
        <ele>292.5</ele>
        <time>2018-10-04T09:05:44Z</time>
      </trkpt>
      <trkpt lat="38.3335310" lon="-0.6891600">
        <ele>292.7</ele>
        <time>2018-10-04T09:05:45Z</time>
      </trkpt>
      <trkpt lat="38.3335500" lon="-0.6891600">
        <ele>292.9</ele>
        <time>2018-10-04T09:05:46Z</time>
      </trkpt>
      <trkpt lat="38.3335700" lon="-0.6891600">
        <ele>293.1</ele>
        <time>2018-10-04T09:05:47Z</time>
      </trkpt>
      <trkpt lat="38.3335900" lon="-0.6891580">
        <ele>293.2</ele>
        <time>2018-10-04T09:05:48Z</time>
      </trkpt>
      <trkpt lat="38.3336090" lon="-0.6891560">
        <ele>293.4</ele>
        <time>2018-10-04T09:05:49Z</time>
      </trkpt>
      <trkpt lat="38.3336280" lon="-0.6891560">
        <ele>293.6</ele>
        <time>2018-10-04T09:05:50Z</time>
      </trkpt>
      <trkpt lat="38.3336470" lon="-0.6891540">
        <ele>293.7</ele>
        <time>2018-10-04T09:05:51Z</time>
      </trkpt>
      <trkpt lat="38.3336650" lon="-0.6891520">
        <ele>293.9</ele>
        <time>2018-10-04T09:05:52Z</time>
      </trkpt>
      <trkpt lat="38.3336830" lon="-0.6891480">
        <ele>294.1</ele>
        <time>2018-10-04T09:05:53Z</time>
      </trkpt>
      <trkpt lat="38.3336990" lon="-0.6891400">
        <ele>294.3</ele>
        <time>2018-10-04T09:05:54Z</time>
      </trkpt>
      <trkpt lat="38.3337140" lon="-0.6891290">
        <ele>294.5</ele>
        <time>2018-10-04T09:05:55Z</time>
      </trkpt>
      <trkpt lat="38.3337300" lon="-0.6891210">
        <ele>294.7</ele>
        <time>2018-10-04T09:05:56Z</time>
      </trkpt>
      <trkpt lat="38.3337460" lon="-0.6891140">
        <ele>294.9</ele>
        <time>2018-10-04T09:05:57Z</time>
      </trkpt>
      <trkpt lat="38.3337640" lon="-0.6891080">
        <ele>295.1</ele>
        <time>2018-10-04T09:05:58Z</time>
      </trkpt>
      <trkpt lat="38.3337810" lon="-0.6891070">
        <ele>295.3</ele>
        <time>2018-10-04T09:05:59Z</time>
      </trkpt>
      <trkpt lat="38.3337990" lon="-0.6891020">
        <ele>295.5</ele>
        <time>2018-10-04T09:06:00Z</time>
      </trkpt>
      <trkpt lat="38.3338160" lon="-0.6890960">
        <ele>295.8</ele>
        <time>2018-10-04T09:06:01Z</time>
      </trkpt>
      <trkpt lat="38.3338340" lon="-0.6890900">
        <ele>296.2</ele>
        <time>2018-10-04T09:06:02Z</time>
      </trkpt>
      <trkpt lat="38.3338540" lon="-0.6890880">
        <ele>296.3</ele>
        <time>2018-10-04T09:06:03Z</time>
      </trkpt>
      <trkpt lat="38.3338740" lon="-0.6890850">
        <ele>296.5</ele>
        <time>2018-10-04T09:06:04Z</time>
      </trkpt>
      <trkpt lat="38.3338930" lon="-0.6890830">
        <ele>296.7</ele>
        <time>2018-10-04T09:06:05Z</time>
      </trkpt>
      <trkpt lat="38.3339130" lon="-0.6890810">
        <ele>296.8</ele>
        <time>2018-10-04T09:06:06Z</time>
      </trkpt>
      <trkpt lat="38.3339320" lon="-0.6890810">
        <ele>297.0</ele>
        <time>2018-10-04T09:06:07Z</time>
      </trkpt>
      <trkpt lat="38.3339510" lon="-0.6890840">
        <ele>297.2</ele>
        <time>2018-10-04T09:06:08Z</time>
      </trkpt>
      <trkpt lat="38.3339690" lon="-0.6890920">
        <ele>297.3</ele>
        <time>2018-10-04T09:06:09Z</time>
      </trkpt>
      <trkpt lat="38.3339870" lon="-0.6891000">
        <ele>297.8</ele>
        <time>2018-10-04T09:06:10Z</time>
      </trkpt>
      <trkpt lat="38.3340030" lon="-0.6891080">
        <ele>298.0</ele>
        <time>2018-10-04T09:06:11Z</time>
      </trkpt>
      <trkpt lat="38.3340200" lon="-0.6891150">
        <ele>298.3</ele>
        <time>2018-10-04T09:06:12Z</time>
      </trkpt>
      <trkpt lat="38.3340360" lon="-0.6891220">
        <ele>298.5</ele>
        <time>2018-10-04T09:06:13Z</time>
      </trkpt>
      <trkpt lat="38.3340520" lon="-0.6891320">
        <ele>298.7</ele>
        <time>2018-10-04T09:06:14Z</time>
      </trkpt>
      <trkpt lat="38.3340690" lon="-0.6891400">
        <ele>299.0</ele>
        <time>2018-10-04T09:06:15Z</time>
      </trkpt>
      <trkpt lat="38.3340860" lon="-0.6891460">
        <ele>299.2</ele>
        <time>2018-10-04T09:06:16Z</time>
      </trkpt>
      <trkpt lat="38.3341030" lon="-0.6891550">
        <ele>299.4</ele>
        <time>2018-10-04T09:06:17Z</time>
      </trkpt>
      <trkpt lat="38.3341200" lon="-0.6891640">
        <ele>299.6</ele>
        <time>2018-10-04T09:06:18Z</time>
      </trkpt>
      <trkpt lat="38.3341380" lon="-0.6891720">
        <ele>299.8</ele>
        <time>2018-10-04T09:06:19Z</time>
      </trkpt>
      <trkpt lat="38.3341540" lon="-0.6891790">
        <ele>300.0</ele>
        <time>2018-10-04T09:06:20Z</time>
      </trkpt>
      <trkpt lat="38.3341730" lon="-0.6891830">
        <ele>300.1</ele>
        <time>2018-10-04T09:06:21Z</time>
      </trkpt>
      <trkpt lat="38.3341910" lon="-0.6891830">
        <ele>300.3</ele>
        <time>2018-10-04T09:06:22Z</time>
      </trkpt>
      <trkpt lat="38.3342090" lon="-0.6891830">
        <ele>300.4</ele>
        <time>2018-10-04T09:06:23Z</time>
      </trkpt>
      <trkpt lat="38.3342280" lon="-0.6891830">
        <ele>300.5</ele>
        <time>2018-10-04T09:06:24Z</time>
      </trkpt>
      <trkpt lat="38.3342480" lon="-0.6891840">
        <ele>300.7</ele>
        <time>2018-10-04T09:06:25Z</time>
      </trkpt>
      <trkpt lat="38.3342670" lon="-0.6891800">
        <ele>300.9</ele>
        <time>2018-10-04T09:06:26Z</time>
      </trkpt>
      <trkpt lat="38.3342860" lon="-0.6891750">
        <ele>301.1</ele>
        <time>2018-10-04T09:06:27Z</time>
      </trkpt>
      <trkpt lat="38.3343040" lon="-0.6891680">
        <ele>301.4</ele>
        <time>2018-10-04T09:06:28Z</time>
      </trkpt>
      <trkpt lat="38.3343210" lon="-0.6891590">
        <ele>301.6</ele>
        <time>2018-10-04T09:06:29Z</time>
      </trkpt>
      <trkpt lat="38.3343390" lon="-0.6891550">
        <ele>301.8</ele>
        <time>2018-10-04T09:06:30Z</time>
      </trkpt>
      <trkpt lat="38.3343580" lon="-0.6891500">
        <ele>302.0</ele>
        <time>2018-10-04T09:06:31Z</time>
      </trkpt>
      <trkpt lat="38.3343770" lon="-0.6891480">
        <ele>302.1</ele>
        <time>2018-10-04T09:06:32Z</time>
      </trkpt>
      <trkpt lat="38.3343950" lon="-0.6891460">
        <ele>302.3</ele>
        <time>2018-10-04T09:06:33Z</time>
      </trkpt>
      <trkpt lat="38.3344130" lon="-0.6891450">
        <ele>302.5</ele>
        <time>2018-10-04T09:06:34Z</time>
      </trkpt>
      <trkpt lat="38.3344320" lon="-0.6891450">
        <ele>302.7</ele>
        <time>2018-10-04T09:06:35Z</time>
      </trkpt>
      <trkpt lat="38.3344510" lon="-0.6891450">
        <ele>302.9</ele>
        <time>2018-10-04T09:06:36Z</time>
      </trkpt>
      <trkpt lat="38.3344690" lon="-0.6891480">
        <ele>303.1</ele>
        <time>2018-10-04T09:06:37Z</time>
      </trkpt>
      <trkpt lat="38.3344850" lon="-0.6891550">
        <ele>303.3</ele>
        <time>2018-10-04T09:06:38Z</time>
      </trkpt>
      <trkpt lat="38.3345020" lon="-0.6891640">
        <ele>303.4</ele>
        <time>2018-10-04T09:06:39Z</time>
      </trkpt>
      <trkpt lat="38.3345190" lon="-0.6891740">
        <ele>303.6</ele>
        <time>2018-10-04T09:06:40Z</time>
      </trkpt>
      <trkpt lat="38.3345330" lon="-0.6891870">
        <ele>303.7</ele>
        <time>2018-10-04T09:06:41Z</time>
      </trkpt>
      <trkpt lat="38.3345460" lon="-0.6892040">
        <ele>303.9</ele>
        <time>2018-10-04T09:06:42Z</time>
      </trkpt>
      <trkpt lat="38.3345600" lon="-0.6892180">
        <ele>304.0</ele>
        <time>2018-10-04T09:06:43Z</time>
      </trkpt>
      <trkpt lat="38.3345720" lon="-0.6892340">
        <ele>304.3</ele>
        <time>2018-10-04T09:06:44Z</time>
      </trkpt>
      <trkpt lat="38.3345850" lon="-0.6892500">
        <ele>304.5</ele>
        <time>2018-10-04T09:06:45Z</time>
      </trkpt>
      <trkpt lat="38.3345970" lon="-0.6892690">
        <ele>304.7</ele>
        <time>2018-10-04T09:06:46Z</time>
      </trkpt>
      <trkpt lat="38.3346090" lon="-0.6892890">
        <ele>304.9</ele>
        <time>2018-10-04T09:06:47Z</time>
      </trkpt>
      <trkpt lat="38.3346210" lon="-0.6893080">
        <ele>305.1</ele>
        <time>2018-10-04T09:06:48Z</time>
      </trkpt>
      <trkpt lat="38.3346320" lon="-0.6893290">
        <ele>305.3</ele>
        <time>2018-10-04T09:06:49Z</time>
      </trkpt>
      <trkpt lat="38.3346430" lon="-0.6893510">
        <ele>305.5</ele>
        <time>2018-10-04T09:06:50Z</time>
      </trkpt>
      <trkpt lat="38.3346540" lon="-0.6893710">
        <ele>305.7</ele>
        <time>2018-10-04T09:06:51Z</time>
      </trkpt>
      <trkpt lat="38.3346640" lon="-0.6893900">
        <ele>305.9</ele>
        <time>2018-10-04T09:06:52Z</time>
      </trkpt>
      <trkpt lat="38.3346750" lon="-0.6894120">
        <ele>306.2</ele>
        <time>2018-10-04T09:06:53Z</time>
      </trkpt>
      <trkpt lat="38.3346850" lon="-0.6894330">
        <ele>306.4</ele>
        <time>2018-10-04T09:06:54Z</time>
      </trkpt>
      <trkpt lat="38.3346950" lon="-0.6894550">
        <ele>306.6</ele>
        <time>2018-10-04T09:06:55Z</time>
      </trkpt>
      <trkpt lat="38.3347050" lon="-0.6894770">
        <ele>306.9</ele>
        <time>2018-10-04T09:06:56Z</time>
      </trkpt>
      <trkpt lat="38.3347160" lon="-0.6894990">
        <ele>307.1</ele>
        <time>2018-10-04T09:06:57Z</time>
      </trkpt>
      <trkpt lat="38.3347270" lon="-0.6895230">
        <ele>307.4</ele>
        <time>2018-10-04T09:06:58Z</time>
      </trkpt>
      <trkpt lat="38.3347380" lon="-0.6895410">
        <ele>307.6</ele>
        <time>2018-10-04T09:06:59Z</time>
      </trkpt>
      <trkpt lat="38.3347490" lon="-0.6895580">
        <ele>307.8</ele>
        <time>2018-10-04T09:07:00Z</time>
      </trkpt>
      <trkpt lat="38.3347590" lon="-0.6895760">
        <ele>307.9</ele>
        <time>2018-10-04T09:07:01Z</time>
      </trkpt>
      <trkpt lat="38.3347670" lon="-0.6895910">
        <ele>308.0</ele>
        <time>2018-10-04T09:07:02Z</time>
      </trkpt>
      <trkpt lat="38.3347790" lon="-0.6896080">
        <ele>308.2</ele>
        <time>2018-10-04T09:07:03Z</time>
      </trkpt>
      <trkpt lat="38.3347910" lon="-0.6896250">
        <ele>308.4</ele>
        <time>2018-10-04T09:07:04Z</time>
      </trkpt>
      <trkpt lat="38.3348040" lon="-0.6896410">
        <ele>308.7</ele>
        <time>2018-10-04T09:07:05Z</time>
      </trkpt>
      <trkpt lat="38.3348160" lon="-0.6896570">
        <ele>308.9</ele>
        <time>2018-10-04T09:07:06Z</time>
      </trkpt>
      <trkpt lat="38.3348290" lon="-0.6896720">
        <ele>309.2</ele>
        <time>2018-10-04T09:07:07Z</time>
      </trkpt>
      <trkpt lat="38.3348400" lon="-0.6896850">
        <ele>309.4</ele>
        <time>2018-10-04T09:07:08Z</time>
      </trkpt>
      <trkpt lat="38.3348520" lon="-0.6896950">
        <ele>309.6</ele>
        <time>2018-10-04T09:07:09Z</time>
      </trkpt>
      <trkpt lat="38.3348640" lon="-0.6897080">
        <ele>309.8</ele>
        <time>2018-10-04T09:07:10Z</time>
      </trkpt>
      <trkpt lat="38.3348760" lon="-0.6897210">
        <ele>309.9</ele>
        <time>2018-10-04T09:07:11Z</time>
      </trkpt>
      <trkpt lat="38.3348900" lon="-0.6897340">
        <ele>310.1</ele>
        <time>2018-10-04T09:07:12Z</time>
      </trkpt>
      <trkpt lat="38.3349040" lon="-0.6897450">
        <ele>310.3</ele>
        <time>2018-10-04T09:07:13Z</time>
      </trkpt>
      <trkpt lat="38.3349190" lon="-0.6897570">
        <ele>310.6</ele>
        <time>2018-10-04T09:07:14Z</time>
      </trkpt>
      <trkpt lat="38.3349340" lon="-0.6897700">
        <ele>310.9</ele>
        <time>2018-10-04T09:07:15Z</time>
      </trkpt>
      <trkpt lat="38.3349490" lon="-0.6897780">
        <ele>311.2</ele>
        <time>2018-10-04T09:07:16Z</time>
      </trkpt>
      <trkpt lat="38.3349620" lon="-0.6897860">
        <ele>311.5</ele>
        <time>2018-10-04T09:07:17Z</time>
      </trkpt>
      <trkpt lat="38.3349730" lon="-0.6897940">
        <ele>311.8</ele>
        <time>2018-10-04T09:07:18Z</time>
      </trkpt>
      <trkpt lat="38.3349880" lon="-0.6898050">
        <ele>312.0</ele>
        <time>2018-10-04T09:07:19Z</time>
      </trkpt>
      <trkpt lat="38.3350060" lon="-0.6898150">
        <ele>312.3</ele>
        <time>2018-10-04T09:07:20Z</time>
      </trkpt>
      <trkpt lat="38.3350220" lon="-0.6898220">
        <ele>312.5</ele>
        <time>2018-10-04T09:07:21Z</time>
      </trkpt>
      <trkpt lat="38.3350360" lon="-0.6898280">
        <ele>312.7</ele>
        <time>2018-10-04T09:07:22Z</time>
      </trkpt>
      <trkpt lat="38.3350520" lon="-0.6898310">
        <ele>312.9</ele>
        <time>2018-10-04T09:07:23Z</time>
      </trkpt>
      <trkpt lat="38.3350680" lon="-0.6898360">
        <ele>313.2</ele>
        <time>2018-10-04T09:07:24Z</time>
      </trkpt>
      <trkpt lat="38.3350840" lon="-0.6898390">
        <ele>313.6</ele>
        <time>2018-10-04T09:07:25Z</time>
      </trkpt>
      <trkpt lat="38.3351010" lon="-0.6898410">
        <ele>313.9</ele>
        <time>2018-10-04T09:07:26Z</time>
      </trkpt>
      <trkpt lat="38.3351170" lon="-0.6898430">
        <ele>314.3</ele>
        <time>2018-10-04T09:07:27Z</time>
      </trkpt>
      <trkpt lat="38.3351330" lon="-0.6898440">
        <ele>314.5</ele>
        <time>2018-10-04T09:07:28Z</time>
      </trkpt>
      <trkpt lat="38.3351500" lon="-0.6898460">
        <ele>314.7</ele>
        <time>2018-10-04T09:07:29Z</time>
      </trkpt>
      <trkpt lat="38.3351670" lon="-0.6898480">
        <ele>314.9</ele>
        <time>2018-10-04T09:07:30Z</time>
      </trkpt>
      <trkpt lat="38.3351840" lon="-0.6898490">
        <ele>315.2</ele>
        <time>2018-10-04T09:07:31Z</time>
      </trkpt>
      <trkpt lat="38.3352000" lon="-0.6898470">
        <ele>315.6</ele>
        <time>2018-10-04T09:07:32Z</time>
      </trkpt>
      <trkpt lat="38.3352180" lon="-0.6898400">
        <ele>316.0</ele>
        <time>2018-10-04T09:07:33Z</time>
      </trkpt>
      <trkpt lat="38.3352330" lon="-0.6898310">
        <ele>316.4</ele>
        <time>2018-10-04T09:07:34Z</time>
      </trkpt>
      <trkpt lat="38.3352440" lon="-0.6898250">
        <ele>316.5</ele>
        <time>2018-10-04T09:07:35Z</time>
      </trkpt>
      <trkpt lat="38.3352570" lon="-0.6898180">
        <ele>316.7</ele>
        <time>2018-10-04T09:07:36Z</time>
      </trkpt>
      <trkpt lat="38.3352700" lon="-0.6898150">
        <ele>316.8</ele>
        <time>2018-10-04T09:07:37Z</time>
      </trkpt>
      <trkpt lat="38.3352850" lon="-0.6898140">
        <ele>317.0</ele>
        <time>2018-10-04T09:07:38Z</time>
      </trkpt>
      <trkpt lat="38.3353000" lon="-0.6898170">
        <ele>317.0</ele>
        <time>2018-10-04T09:07:39Z</time>
      </trkpt>
      <trkpt lat="38.3353170" lon="-0.6898190">
        <ele>317.0</ele>
        <time>2018-10-04T09:07:40Z</time>
      </trkpt>
      <trkpt lat="38.3353340" lon="-0.6898260">
        <ele>317.0</ele>
        <time>2018-10-04T09:07:41Z</time>
      </trkpt>
      <trkpt lat="38.3353510" lon="-0.6898340">
        <ele>317.0</ele>
        <time>2018-10-04T09:07:42Z</time>
      </trkpt>
      <trkpt lat="38.3353640" lon="-0.6898440">
        <ele>317.0</ele>
        <time>2018-10-04T09:07:43Z</time>
      </trkpt>
      <trkpt lat="38.3353770" lon="-0.6898580">
        <ele>317.0</ele>
        <time>2018-10-04T09:07:44Z</time>
      </trkpt>
      <trkpt lat="38.3353900" lon="-0.6898710">
        <ele>317.0</ele>
        <time>2018-10-04T09:07:45Z</time>
      </trkpt>
      <trkpt lat="38.3354050" lon="-0.6898800">
        <ele>317.0</ele>
        <time>2018-10-04T09:07:46Z</time>
      </trkpt>
      <trkpt lat="38.3354190" lon="-0.6898880">
        <ele>317.0</ele>
        <time>2018-10-04T09:07:47Z</time>
      </trkpt>
      <trkpt lat="38.3354340" lon="-0.6898920">
        <ele>317.0</ele>
        <time>2018-10-04T09:07:48Z</time>
      </trkpt>
      <trkpt lat="38.3354500" lon="-0.6898920">
        <ele>317.0</ele>
        <time>2018-10-04T09:07:49Z</time>
      </trkpt>
      <trkpt lat="38.3354630" lon="-0.6898940">
        <ele>317.0</ele>
        <time>2018-10-04T09:07:50Z</time>
      </trkpt>
      <trkpt lat="38.3354760" lon="-0.6898970">
        <ele>317.0</ele>
        <time>2018-10-04T09:07:51Z</time>
      </trkpt>
      <trkpt lat="38.3354890" lon="-0.6898980">
        <ele>317.0</ele>
        <time>2018-10-04T09:07:52Z</time>
      </trkpt>
      <trkpt lat="38.3355010" lon="-0.6898970">
        <ele>317.0</ele>
        <time>2018-10-04T09:07:53Z</time>
      </trkpt>
      <trkpt lat="38.3355140" lon="-0.6898990">
        <ele>317.0</ele>
        <time>2018-10-04T09:07:54Z</time>
      </trkpt>
      <trkpt lat="38.3355280" lon="-0.6899010">
        <ele>317.0</ele>
        <time>2018-10-04T09:07:55Z</time>
      </trkpt>
      <trkpt lat="38.3355420" lon="-0.6899000">
        <ele>317.0</ele>
        <time>2018-10-04T09:07:56Z</time>
      </trkpt>
      <trkpt lat="38.3355560" lon="-0.6898990">
        <ele>317.0</ele>
        <time>2018-10-04T09:07:57Z</time>
      </trkpt>
      <trkpt lat="38.3355700" lon="-0.6899010">
        <ele>317.8</ele>
        <time>2018-10-04T09:07:58Z</time>
      </trkpt>
      <trkpt lat="38.3355850" lon="-0.6899060">
        <ele>318.0</ele>
        <time>2018-10-04T09:07:59Z</time>
      </trkpt>
      <trkpt lat="38.3355990" lon="-0.6899120">
        <ele>318.2</ele>
        <time>2018-10-04T09:08:00Z</time>
      </trkpt>
      <trkpt lat="38.3356150" lon="-0.6899170">
        <ele>318.4</ele>
        <time>2018-10-04T09:08:01Z</time>
      </trkpt>
      <trkpt lat="38.3356320" lon="-0.6899230">
        <ele>318.6</ele>
        <time>2018-10-04T09:08:02Z</time>
      </trkpt>
      <trkpt lat="38.3356480" lon="-0.6899300">
        <ele>318.8</ele>
        <time>2018-10-04T09:08:03Z</time>
      </trkpt>
      <trkpt lat="38.3356660" lon="-0.6899350">
        <ele>319.1</ele>
        <time>2018-10-04T09:08:04Z</time>
      </trkpt>
      <trkpt lat="38.3356840" lon="-0.6899430">
        <ele>319.3</ele>
        <time>2018-10-04T09:08:05Z</time>
      </trkpt>
      <trkpt lat="38.3357030" lon="-0.6899490">
        <ele>319.6</ele>
        <time>2018-10-04T09:08:06Z</time>
      </trkpt>
      <trkpt lat="38.3357230" lon="-0.6899520">
        <ele>319.8</ele>
        <time>2018-10-04T09:08:07Z</time>
      </trkpt>
      <trkpt lat="38.3357430" lon="-0.6899590">
        <ele>320.1</ele>
        <time>2018-10-04T09:08:08Z</time>
      </trkpt>
      <trkpt lat="38.3357630" lon="-0.6899710">
        <ele>320.4</ele>
        <time>2018-10-04T09:08:09Z</time>
      </trkpt>
      <trkpt lat="38.3357830" lon="-0.6899850">
        <ele>320.7</ele>
        <time>2018-10-04T09:08:10Z</time>
      </trkpt>
      <trkpt lat="38.3358050" lon="-0.6900060">
        <ele>321.0</ele>
        <time>2018-10-04T09:08:11Z</time>
      </trkpt>
      <trkpt lat="38.3358290" lon="-0.6900360">
        <ele>321.4</ele>
        <time>2018-10-04T09:08:12Z</time>
      </trkpt>
      <trkpt lat="38.3358530" lon="-0.6900710">
        <ele>321.8</ele>
        <time>2018-10-04T09:08:13Z</time>
      </trkpt>
      <trkpt lat="38.3358790" lon="-0.6901110">
        <ele>322.3</ele>
        <time>2018-10-04T09:08:14Z</time>
      </trkpt>
      <trkpt lat="38.3359070" lon="-0.6901540">
        <ele>322.9</ele>
        <time>2018-10-04T09:08:15Z</time>
      </trkpt>
      <trkpt lat="38.3359370" lon="-0.6901990">
        <ele>323.4</ele>
        <time>2018-10-04T09:08:16Z</time>
      </trkpt>
      <trkpt lat="38.3359670" lon="-0.6902480">
        <ele>324.0</ele>
        <time>2018-10-04T09:08:17Z</time>
      </trkpt>
      <trkpt lat="38.3359950" lon="-0.6903000">
        <ele>324.7</ele>
        <time>2018-10-04T09:08:18Z</time>
      </trkpt>
      <trkpt lat="38.3360290" lon="-0.6903430">
        <ele>325.5</ele>
        <time>2018-10-04T09:08:19Z</time>
      </trkpt>
      <trkpt lat="38.3360640" lon="-0.6903780">
        <ele>326.2</ele>
        <time>2018-10-04T09:08:20Z</time>
      </trkpt>
      <trkpt lat="38.3360970" lon="-0.6904070">
        <ele>326.8</ele>
        <time>2018-10-04T09:08:21Z</time>
      </trkpt>
      <trkpt lat="38.3361250" lon="-0.6904310">
        <ele>327.3</ele>
        <time>2018-10-04T09:08:22Z</time>
      </trkpt>
      <trkpt lat="38.3361500" lon="-0.6904490">
        <ele>327.8</ele>
        <time>2018-10-04T09:08:23Z</time>
      </trkpt>
      <trkpt lat="38.3361720" lon="-0.6904590">
        <ele>328.3</ele>
        <time>2018-10-04T09:08:24Z</time>
      </trkpt>
      <trkpt lat="38.3361940" lon="-0.6904650">
        <ele>328.8</ele>
        <time>2018-10-04T09:08:25Z</time>
      </trkpt>
      <trkpt lat="38.3362190" lon="-0.6904690">
        <ele>329.3</ele>
        <time>2018-10-04T09:08:26Z</time>
      </trkpt>
      <trkpt lat="38.3362460" lon="-0.6904680">
        <ele>329.8</ele>
        <time>2018-10-04T09:08:27Z</time>
      </trkpt>
      <trkpt lat="38.3362740" lon="-0.6904550">
        <ele>330.5</ele>
        <time>2018-10-04T09:08:28Z</time>
      </trkpt>
      <trkpt lat="38.3363040" lon="-0.6904440">
        <ele>330.9</ele>
        <time>2018-10-04T09:08:29Z</time>
      </trkpt>
      <trkpt lat="38.3363350" lon="-0.6904320">
        <ele>330.8</ele>
        <time>2018-10-04T09:08:30Z</time>
      </trkpt>
      <trkpt lat="38.3363660" lon="-0.6904140">
        <ele>330.7</ele>
        <time>2018-10-04T09:08:31Z</time>
      </trkpt>
      <trkpt lat="38.3363990" lon="-0.6903930">
        <ele>330.5</ele>
        <time>2018-10-04T09:08:32Z</time>
      </trkpt>
      <trkpt lat="38.3364340" lon="-0.6903640">
        <ele>330.3</ele>
        <time>2018-10-04T09:08:33Z</time>
      </trkpt>
      <trkpt lat="38.3364670" lon="-0.6903300">
        <ele>330.2</ele>
        <time>2018-10-04T09:08:34Z</time>
      </trkpt>
      <trkpt lat="38.3365000" lon="-0.6902920">
        <ele>330.1</ele>
        <time>2018-10-04T09:08:35Z</time>
      </trkpt>
      <trkpt lat="38.3365320" lon="-0.6902490">
        <ele>330.1</ele>
        <time>2018-10-04T09:08:36Z</time>
      </trkpt>
      <trkpt lat="38.3365630" lon="-0.6902060">
        <ele>330.1</ele>
        <time>2018-10-04T09:08:37Z</time>
      </trkpt>
      <trkpt lat="38.3365910" lon="-0.6901620">
        <ele>330.1</ele>
        <time>2018-10-04T09:08:38Z</time>
      </trkpt>
      <trkpt lat="38.3366170" lon="-0.6901190">
        <ele>330.1</ele>
        <time>2018-10-04T09:08:39Z</time>
      </trkpt>
      <trkpt lat="38.3366400" lon="-0.6900760">
        <ele>330.1</ele>
        <time>2018-10-04T09:08:40Z</time>
      </trkpt>
      <trkpt lat="38.3366610" lon="-0.6900320">
        <ele>330.1</ele>
        <time>2018-10-04T09:08:41Z</time>
      </trkpt>
      <trkpt lat="38.3366830" lon="-0.6899860">
        <ele>330.1</ele>
        <time>2018-10-04T09:08:42Z</time>
      </trkpt>
      <trkpt lat="38.3367060" lon="-0.6899380">
        <ele>330.1</ele>
        <time>2018-10-04T09:08:43Z</time>
      </trkpt>
      <trkpt lat="38.3367290" lon="-0.6898890">
        <ele>330.1</ele>
        <time>2018-10-04T09:08:44Z</time>
      </trkpt>
      <trkpt lat="38.3367520" lon="-0.6898370">
        <ele>330.1</ele>
        <time>2018-10-04T09:08:45Z</time>
      </trkpt>
      <trkpt lat="38.3367770" lon="-0.6897840">
        <ele>330.2</ele>
        <time>2018-10-04T09:08:46Z</time>
      </trkpt>
      <trkpt lat="38.3368050" lon="-0.6897320">
        <ele>330.2</ele>
        <time>2018-10-04T09:08:47Z</time>
      </trkpt>
      <trkpt lat="38.3368340" lon="-0.6896830">
        <ele>330.3</ele>
        <time>2018-10-04T09:08:48Z</time>
      </trkpt>
      <trkpt lat="38.3368670" lon="-0.6896370">
        <ele>330.3</ele>
        <time>2018-10-04T09:08:49Z</time>
      </trkpt>
      <trkpt lat="38.3369040" lon="-0.6895990">
        <ele>330.4</ele>
        <time>2018-10-04T09:08:50Z</time>
      </trkpt>
      <trkpt lat="38.3369430" lon="-0.6895670">
        <ele>330.5</ele>
        <time>2018-10-04T09:08:51Z</time>
      </trkpt>
      <trkpt lat="38.3369830" lon="-0.6895380">
        <ele>330.6</ele>
        <time>2018-10-04T09:08:52Z</time>
      </trkpt>
      <trkpt lat="38.3370230" lon="-0.6895100">
        <ele>330.7</ele>
        <time>2018-10-04T09:08:53Z</time>
      </trkpt>
      <trkpt lat="38.3370630" lon="-0.6894840">
        <ele>330.8</ele>
        <time>2018-10-04T09:08:54Z</time>
      </trkpt>
      <trkpt lat="38.3371030" lon="-0.6894570">
        <ele>330.9</ele>
        <time>2018-10-04T09:08:55Z</time>
      </trkpt>
      <trkpt lat="38.3371450" lon="-0.6894340">
        <ele>331.1</ele>
        <time>2018-10-04T09:08:56Z</time>
      </trkpt>
      <trkpt lat="38.3371840" lon="-0.6894150">
        <ele>331.2</ele>
        <time>2018-10-04T09:08:57Z</time>
      </trkpt>
      <trkpt lat="38.3372230" lon="-0.6893960">
        <ele>331.4</ele>
        <time>2018-10-04T09:08:58Z</time>
      </trkpt>
      <trkpt lat="38.3372600" lon="-0.6893780">
        <ele>331.6</ele>
        <time>2018-10-04T09:08:59Z</time>
      </trkpt>
      <trkpt lat="38.3372980" lon="-0.6893610">
        <ele>331.7</ele>
        <time>2018-10-04T09:09:00Z</time>
      </trkpt>
      <trkpt lat="38.3373360" lon="-0.6893430">
        <ele>331.9</ele>
        <time>2018-10-04T09:09:01Z</time>
      </trkpt>
      <trkpt lat="38.3373740" lon="-0.6893280">
        <ele>332.0</ele>
        <time>2018-10-04T09:09:02Z</time>
      </trkpt>
      <trkpt lat="38.3374130" lon="-0.6893150">
        <ele>332.1</ele>
        <time>2018-10-04T09:09:03Z</time>
      </trkpt>
      <trkpt lat="38.3374510" lon="-0.6893010">
        <ele>332.2</ele>
        <time>2018-10-04T09:09:04Z</time>
      </trkpt>
      <trkpt lat="38.3374890" lon="-0.6892840">
        <ele>332.3</ele>
        <time>2018-10-04T09:09:05Z</time>
      </trkpt>
      <trkpt lat="38.3375260" lon="-0.6892690">
        <ele>332.4</ele>
        <time>2018-10-04T09:09:06Z</time>
      </trkpt>
      <trkpt lat="38.3375650" lon="-0.6892520">
        <ele>332.5</ele>
        <time>2018-10-04T09:09:07Z</time>
      </trkpt>
      <trkpt lat="38.3376060" lon="-0.6892360">
        <ele>332.5</ele>
        <time>2018-10-04T09:09:08Z</time>
      </trkpt>
      <trkpt lat="38.3376460" lon="-0.6892190">
        <ele>332.6</ele>
        <time>2018-10-04T09:09:09Z</time>
      </trkpt>
      <trkpt lat="38.3376900" lon="-0.6892000">
        <ele>332.6</ele>
        <time>2018-10-04T09:09:10Z</time>
      </trkpt>
      <trkpt lat="38.3377350" lon="-0.6891840">
        <ele>332.7</ele>
        <time>2018-10-04T09:09:11Z</time>
      </trkpt>
      <trkpt lat="38.3377770" lon="-0.6891650">
        <ele>332.7</ele>
        <time>2018-10-04T09:09:12Z</time>
      </trkpt>
      <trkpt lat="38.3378180" lon="-0.6891470">
        <ele>332.7</ele>
        <time>2018-10-04T09:09:13Z</time>
      </trkpt>
      <trkpt lat="38.3378590" lon="-0.6891270">
        <ele>332.8</ele>
        <time>2018-10-04T09:09:14Z</time>
      </trkpt>
      <trkpt lat="38.3378980" lon="-0.6891060">
        <ele>332.8</ele>
        <time>2018-10-04T09:09:15Z</time>
      </trkpt>
      <trkpt lat="38.3379380" lon="-0.6890840">
        <ele>332.8</ele>
        <time>2018-10-04T09:09:16Z</time>
      </trkpt>
      <trkpt lat="38.3379800" lon="-0.6890580">
        <ele>332.8</ele>
        <time>2018-10-04T09:09:17Z</time>
      </trkpt>
      <trkpt lat="38.3380220" lon="-0.6890330">
        <ele>332.8</ele>
        <time>2018-10-04T09:09:18Z</time>
      </trkpt>
      <trkpt lat="38.3380640" lon="-0.6890050">
        <ele>332.8</ele>
        <time>2018-10-04T09:09:19Z</time>
      </trkpt>
      <trkpt lat="38.3381070" lon="-0.6889790">
        <ele>332.8</ele>
        <time>2018-10-04T09:09:20Z</time>
      </trkpt>
      <trkpt lat="38.3381510" lon="-0.6889520">
        <ele>332.8</ele>
        <time>2018-10-04T09:09:21Z</time>
      </trkpt>
      <trkpt lat="38.3381960" lon="-0.6889230">
        <ele>332.7</ele>
        <time>2018-10-04T09:09:22Z</time>
      </trkpt>
      <trkpt lat="38.3382430" lon="-0.6888950">
        <ele>332.7</ele>
        <time>2018-10-04T09:09:23Z</time>
      </trkpt>
      <trkpt lat="38.3382900" lon="-0.6888640">
        <ele>332.6</ele>
        <time>2018-10-04T09:09:24Z</time>
      </trkpt>
      <trkpt lat="38.3383400" lon="-0.6888410">
        <ele>332.5</ele>
        <time>2018-10-04T09:09:25Z</time>
      </trkpt>
      <trkpt lat="38.3383940" lon="-0.6888240">
        <ele>332.5</ele>
        <time>2018-10-04T09:09:26Z</time>
      </trkpt>
      <trkpt lat="38.3384480" lon="-0.6888070">
        <ele>332.4</ele>
        <time>2018-10-04T09:09:27Z</time>
      </trkpt>
      <trkpt lat="38.3385030" lon="-0.6887890">
        <ele>332.3</ele>
        <time>2018-10-04T09:09:28Z</time>
      </trkpt>
      <trkpt lat="38.3385570" lon="-0.6887700">
        <ele>332.3</ele>
        <time>2018-10-04T09:09:29Z</time>
      </trkpt>
      <trkpt lat="38.3386090" lon="-0.6887490">
        <ele>332.2</ele>
        <time>2018-10-04T09:09:30Z</time>
      </trkpt>
      <trkpt lat="38.3386590" lon="-0.6887280">
        <ele>332.1</ele>
        <time>2018-10-04T09:09:31Z</time>
      </trkpt>
      <trkpt lat="38.3387080" lon="-0.6887040">
        <ele>332.1</ele>
        <time>2018-10-04T09:09:32Z</time>
      </trkpt>
      <trkpt lat="38.3387540" lon="-0.6886780">
        <ele>332.0</ele>
        <time>2018-10-04T09:09:33Z</time>
      </trkpt>
      <trkpt lat="38.3388010" lon="-0.6886500">
        <ele>331.9</ele>
        <time>2018-10-04T09:09:34Z</time>
      </trkpt>
      <trkpt lat="38.3388500" lon="-0.6886180">
        <ele>331.8</ele>
        <time>2018-10-04T09:09:35Z</time>
      </trkpt>
      <trkpt lat="38.3388990" lon="-0.6885830">
        <ele>331.7</ele>
        <time>2018-10-04T09:09:36Z</time>
      </trkpt>
      <trkpt lat="38.3389480" lon="-0.6885450">
        <ele>331.5</ele>
        <time>2018-10-04T09:09:37Z</time>
      </trkpt>
      <trkpt lat="38.3389990" lon="-0.6885030">
        <ele>331.4</ele>
        <time>2018-10-04T09:09:38Z</time>
      </trkpt>
      <trkpt lat="38.3390510" lon="-0.6884580">
        <ele>331.2</ele>
        <time>2018-10-04T09:09:39Z</time>
      </trkpt>
      <trkpt lat="38.3391070" lon="-0.6884090">
        <ele>331.0</ele>
        <time>2018-10-04T09:09:40Z</time>
      </trkpt>
      <trkpt lat="38.3391630" lon="-0.6883550">
        <ele>330.9</ele>
        <time>2018-10-04T09:09:41Z</time>
      </trkpt>
      <trkpt lat="38.3392200" lon="-0.6882990">
        <ele>330.8</ele>
        <time>2018-10-04T09:09:42Z</time>
      </trkpt>
      <trkpt lat="38.3392790" lon="-0.6882410">
        <ele>330.8</ele>
        <time>2018-10-04T09:09:43Z</time>
      </trkpt>
      <trkpt lat="38.3393370" lon="-0.6881820">
        <ele>330.7</ele>
        <time>2018-10-04T09:09:44Z</time>
      </trkpt>
      <trkpt lat="38.3393930" lon="-0.6881190">
        <ele>330.7</ele>
        <time>2018-10-04T09:09:45Z</time>
      </trkpt>
      <trkpt lat="38.3394410" lon="-0.6880480">
        <ele>330.7</ele>
        <time>2018-10-04T09:09:46Z</time>
      </trkpt>
      <trkpt lat="38.3394810" lon="-0.6879710">
        <ele>330.9</ele>
        <time>2018-10-04T09:09:47Z</time>
      </trkpt>
      <trkpt lat="38.3395110" lon="-0.6878940">
        <ele>331.1</ele>
        <time>2018-10-04T09:09:48Z</time>
      </trkpt>
      <trkpt lat="38.3395320" lon="-0.6878220">
        <ele>331.5</ele>
        <time>2018-10-04T09:09:49Z</time>
      </trkpt>
      <trkpt lat="38.3395490" lon="-0.6877530">
        <ele>331.9</ele>
        <time>2018-10-04T09:09:50Z</time>
      </trkpt>
      <trkpt lat="38.3395620" lon="-0.6876880">
        <ele>332.3</ele>
        <time>2018-10-04T09:09:51Z</time>
      </trkpt>
      <trkpt lat="38.3395770" lon="-0.6876270">
        <ele>332.6</ele>
        <time>2018-10-04T09:09:52Z</time>
      </trkpt>
      <trkpt lat="38.3395850" lon="-0.6875700">
        <ele>332.9</ele>
        <time>2018-10-04T09:09:53Z</time>
      </trkpt>
      <trkpt lat="38.3395910" lon="-0.6875150">
        <ele>333.1</ele>
        <time>2018-10-04T09:09:54Z</time>
      </trkpt>
      <trkpt lat="38.3395980" lon="-0.6874620">
        <ele>333.3</ele>
        <time>2018-10-04T09:09:55Z</time>
      </trkpt>
      <trkpt lat="38.3396030" lon="-0.6874100">
        <ele>333.5</ele>
        <time>2018-10-04T09:09:56Z</time>
      </trkpt>
      <trkpt lat="38.3396080" lon="-0.6873610">
        <ele>333.6</ele>
        <time>2018-10-04T09:09:57Z</time>
      </trkpt>
      <trkpt lat="38.3396160" lon="-0.6873090">
        <ele>333.6</ele>
        <time>2018-10-04T09:09:58Z</time>
      </trkpt>
      <trkpt lat="38.3396240" lon="-0.6872510">
        <ele>333.7</ele>
        <time>2018-10-04T09:09:59Z</time>
      </trkpt>
      <trkpt lat="38.3396310" lon="-0.6871880">
        <ele>333.7</ele>
        <time>2018-10-04T09:10:00Z</time>
      </trkpt>
      <trkpt lat="38.3396380" lon="-0.6871210">
        <ele>333.8</ele>
        <time>2018-10-04T09:10:01Z</time>
      </trkpt>
      <trkpt lat="38.3396450" lon="-0.6870530">
        <ele>333.8</ele>
        <time>2018-10-04T09:10:02Z</time>
      </trkpt>
      <trkpt lat="38.3396550" lon="-0.6869800">
        <ele>333.9</ele>
        <time>2018-10-04T09:10:03Z</time>
      </trkpt>
      <trkpt lat="38.3396760" lon="-0.6869050">
        <ele>333.9</ele>
        <time>2018-10-04T09:10:04Z</time>
      </trkpt>
      <trkpt lat="38.3397060" lon="-0.6868340">
        <ele>334.0</ele>
        <time>2018-10-04T09:10:05Z</time>
      </trkpt>
      <trkpt lat="38.3397370" lon="-0.6867640">
        <ele>334.2</ele>
        <time>2018-10-04T09:10:06Z</time>
      </trkpt>
      <trkpt lat="38.3397710" lon="-0.6866990">
        <ele>334.4</ele>
        <time>2018-10-04T09:10:07Z</time>
      </trkpt>
      <trkpt lat="38.3398040" lon="-0.6866400">
        <ele>334.6</ele>
        <time>2018-10-04T09:10:08Z</time>
      </trkpt>
      <trkpt lat="38.3398360" lon="-0.6865860">
        <ele>334.8</ele>
        <time>2018-10-04T09:10:09Z</time>
      </trkpt>
      <trkpt lat="38.3398660" lon="-0.6865390">
        <ele>335.0</ele>
        <time>2018-10-04T09:10:10Z</time>
      </trkpt>
      <trkpt lat="38.3398930" lon="-0.6864990">
        <ele>335.1</ele>
        <time>2018-10-04T09:10:11Z</time>
      </trkpt>
      <trkpt lat="38.3399170" lon="-0.6864660">
        <ele>335.4</ele>
        <time>2018-10-04T09:10:12Z</time>
      </trkpt>
      <trkpt lat="38.3399390" lon="-0.6864320">
        <ele>335.6</ele>
        <time>2018-10-04T09:10:13Z</time>
      </trkpt>
      <trkpt lat="38.3399610" lon="-0.6863990">
        <ele>335.9</ele>
        <time>2018-10-04T09:10:14Z</time>
      </trkpt>
      <trkpt lat="38.3399850" lon="-0.6863710">
        <ele>336.1</ele>
        <time>2018-10-04T09:10:15Z</time>
      </trkpt>
      <trkpt lat="38.3400110" lon="-0.6863460">
        <ele>336.3</ele>
        <time>2018-10-04T09:10:16Z</time>
      </trkpt>
      <trkpt lat="38.3400340" lon="-0.6863200">
        <ele>336.5</ele>
        <time>2018-10-04T09:10:17Z</time>
      </trkpt>
      <trkpt lat="38.3400590" lon="-0.6862960">
        <ele>336.7</ele>
        <time>2018-10-04T09:10:18Z</time>
      </trkpt>
      <trkpt lat="38.3400820" lon="-0.6862720">
        <ele>336.8</ele>
        <time>2018-10-04T09:10:19Z</time>
      </trkpt>
      <trkpt lat="38.3401050" lon="-0.6862490">
        <ele>336.9</ele>
        <time>2018-10-04T09:10:20Z</time>
      </trkpt>
      <trkpt lat="38.3401310" lon="-0.6862230">
        <ele>337.1</ele>
        <time>2018-10-04T09:10:21Z</time>
      </trkpt>
      <trkpt lat="38.3401600" lon="-0.6861950">
        <ele>337.2</ele>
        <time>2018-10-04T09:10:22Z</time>
      </trkpt>
      <trkpt lat="38.3401900" lon="-0.6861640">
        <ele>337.3</ele>
        <time>2018-10-04T09:10:23Z</time>
      </trkpt>
      <trkpt lat="38.3402230" lon="-0.6861300">
        <ele>337.5</ele>
        <time>2018-10-04T09:10:24Z</time>
      </trkpt>
      <trkpt lat="38.3402560" lon="-0.6860950">
        <ele>337.6</ele>
        <time>2018-10-04T09:10:25Z</time>
      </trkpt>
      <trkpt lat="38.3402900" lon="-0.6860590">
        <ele>337.6</ele>
        <time>2018-10-04T09:10:26Z</time>
      </trkpt>
      <trkpt lat="38.3403270" lon="-0.6860230">
        <ele>337.7</ele>
        <time>2018-10-04T09:10:27Z</time>
      </trkpt>
      <trkpt lat="38.3403700" lon="-0.6859890">
        <ele>337.5</ele>
        <time>2018-10-04T09:10:28Z</time>
      </trkpt>
      <trkpt lat="38.3404180" lon="-0.6859550">
        <ele>337.4</ele>
        <time>2018-10-04T09:10:29Z</time>
      </trkpt>
      <trkpt lat="38.3405010" lon="-0.6859170">
        <ele>337.0</ele>
        <time>2018-10-04T09:10:30Z</time>
      </trkpt>
      <trkpt lat="38.3405310" lon="-0.6859050">
        <ele>336.8</ele>
        <time>2018-10-04T09:10:31Z</time>
      </trkpt>
      <trkpt lat="38.3405960" lon="-0.6858840">
        <ele>336.4</ele>
        <time>2018-10-04T09:10:32Z</time>
      </trkpt>
      <trkpt lat="38.3405960" lon="-0.6858840">
        <ele>336.4</ele>
        <time>2018-10-04T09:10:33Z</time>
      </trkpt>
      <trkpt lat="38.3407470" lon="-0.6858180">
        <ele>335.5</ele>
        <time>2018-10-04T09:10:34Z</time>
      </trkpt>
      <trkpt lat="38.3407710" lon="-0.6858020">
        <ele>335.3</ele>
        <time>2018-10-04T09:10:35Z</time>
      </trkpt>
      <trkpt lat="38.3408150" lon="-0.6857650">
        <ele>334.9</ele>
        <time>2018-10-04T09:10:36Z</time>
      </trkpt>
      <trkpt lat="38.3408150" lon="-0.6857650">
        <ele>334.9</ele>
        <time>2018-10-04T09:10:37Z</time>
      </trkpt>
      <trkpt lat="38.3408960" lon="-0.6857030">
        <ele>334.1</ele>
        <time>2018-10-04T09:10:38Z</time>
      </trkpt>
      <trkpt lat="38.3409390" lon="-0.6856680">
        <ele>333.7</ele>
        <time>2018-10-04T09:10:39Z</time>
      </trkpt>
      <trkpt lat="38.3409900" lon="-0.6856320">
        <ele>333.2</ele>
        <time>2018-10-04T09:10:40Z</time>
      </trkpt>
      <trkpt lat="38.3410440" lon="-0.6855920">
        <ele>332.7</ele>
        <time>2018-10-04T09:10:41Z</time>
      </trkpt>
      <trkpt lat="38.3411000" lon="-0.6855460">
        <ele>332.2</ele>
        <time>2018-10-04T09:10:42Z</time>
      </trkpt>
      <trkpt lat="38.3411630" lon="-0.6854950">
        <ele>331.8</ele>
        <time>2018-10-04T09:10:43Z</time>
      </trkpt>
      <trkpt lat="38.3412310" lon="-0.6854450">
        <ele>331.4</ele>
        <time>2018-10-04T09:10:44Z</time>
      </trkpt>
      <trkpt lat="38.3413000" lon="-0.6853880">
        <ele>331.0</ele>
        <time>2018-10-04T09:10:45Z</time>
      </trkpt>
      <trkpt lat="38.3413730" lon="-0.6853320">
        <ele>330.5</ele>
        <time>2018-10-04T09:10:46Z</time>
      </trkpt>
      <trkpt lat="38.3414430" lon="-0.6852760">
        <ele>330.1</ele>
        <time>2018-10-04T09:10:47Z</time>
      </trkpt>
      <trkpt lat="38.3415010" lon="-0.6852340">
        <ele>329.6</ele>
        <time>2018-10-04T09:10:48Z</time>
      </trkpt>
      <trkpt lat="38.3415480" lon="-0.6852050">
        <ele>329.0</ele>
        <time>2018-10-04T09:10:49Z</time>
      </trkpt>
      <trkpt lat="38.3415900" lon="-0.6851960">
        <ele>328.5</ele>
        <time>2018-10-04T09:10:50Z</time>
      </trkpt>
      <trkpt lat="38.3416270" lon="-0.6852010">
        <ele>328.0</ele>
        <time>2018-10-04T09:10:51Z</time>
      </trkpt>
      <trkpt lat="38.3416590" lon="-0.6852280">
        <ele>327.5</ele>
        <time>2018-10-04T09:10:52Z</time>
      </trkpt>
      <trkpt lat="38.3416590" lon="-0.6852280">
        <ele>327.5</ele>
        <time>2018-10-04T09:10:53Z</time>
      </trkpt>
      <trkpt lat="38.3417550" lon="-0.6852920">
        <ele>326.1</ele>
        <time>2018-10-04T09:10:54Z</time>
      </trkpt>
      <trkpt lat="38.3418180" lon="-0.6853300">
        <ele>325.2</ele>
        <time>2018-10-04T09:10:55Z</time>
      </trkpt>
      <trkpt lat="38.3418900" lon="-0.6853610">
        <ele>324.3</ele>
        <time>2018-10-04T09:10:56Z</time>
      </trkpt>
      <trkpt lat="38.3419660" lon="-0.6853880">
        <ele>323.4</ele>
        <time>2018-10-04T09:10:57Z</time>
      </trkpt>
      <trkpt lat="38.3420260" lon="-0.6854230">
        <ele>322.8</ele>
        <time>2018-10-04T09:10:58Z</time>
      </trkpt>
      <trkpt lat="38.3420690" lon="-0.6854730">
        <ele>322.3</ele>
        <time>2018-10-04T09:10:59Z</time>
      </trkpt>
      <trkpt lat="38.3420810" lon="-0.6855350">
        <ele>321.8</ele>
        <time>2018-10-04T09:11:00Z</time>
      </trkpt>
      <trkpt lat="38.3420730" lon="-0.6856010">
        <ele>321.2</ele>
        <time>2018-10-04T09:11:01Z</time>
      </trkpt>
      <trkpt lat="38.3420500" lon="-0.6856650">
        <ele>320.7</ele>
        <time>2018-10-04T09:11:02Z</time>
      </trkpt>
      <trkpt lat="38.3420200" lon="-0.6857340">
        <ele>319.7</ele>
        <time>2018-10-04T09:11:03Z</time>
      </trkpt>
      <trkpt lat="38.3419910" lon="-0.6858050">
        <ele>318.8</ele>
        <time>2018-10-04T09:11:04Z</time>
      </trkpt>
      <trkpt lat="38.3419630" lon="-0.6858710">
        <ele>317.9</ele>
        <time>2018-10-04T09:11:05Z</time>
      </trkpt>
      <trkpt lat="38.3419630" lon="-0.6858710">
        <ele>317.9</ele>
        <time>2018-10-04T09:11:06Z</time>
      </trkpt>
      <trkpt lat="38.3419090" lon="-0.6860270">
        <ele>315.9</ele>
        <time>2018-10-04T09:11:07Z</time>
      </trkpt>
      <trkpt lat="38.3418920" lon="-0.6861170">
        <ele>315.0</ele>
        <time>2018-10-04T09:11:08Z</time>
      </trkpt>
      <trkpt lat="38.3418830" lon="-0.6862390">
        <ele>314.2</ele>
        <time>2018-10-04T09:11:09Z</time>
      </trkpt>
      <trkpt lat="38.3418810" lon="-0.6862810">
        <ele>313.9</ele>
        <time>2018-10-04T09:11:10Z</time>
      </trkpt>
      <trkpt lat="38.3418750" lon="-0.6863660">
        <ele>313.5</ele>
        <time>2018-10-04T09:11:11Z</time>
      </trkpt>
      <trkpt lat="38.3418750" lon="-0.6863660">
        <ele>313.5</ele>
        <time>2018-10-04T09:11:12Z</time>
      </trkpt>
      <trkpt lat="38.3418710" lon="-0.6865460">
        <ele>312.7</ele>
        <time>2018-10-04T09:11:13Z</time>
      </trkpt>
      <trkpt lat="38.3418670" lon="-0.6866400">
        <ele>312.2</ele>
        <time>2018-10-04T09:11:14Z</time>
      </trkpt>
      <trkpt lat="38.3418660" lon="-0.6867380">
        <ele>311.8</ele>
        <time>2018-10-04T09:11:15Z</time>
      </trkpt>
      <trkpt lat="38.3418670" lon="-0.6868380">
        <ele>311.3</ele>
        <time>2018-10-04T09:11:16Z</time>
      </trkpt>
      <trkpt lat="38.3418700" lon="-0.6869370">
        <ele>310.7</ele>
        <time>2018-10-04T09:11:17Z</time>
      </trkpt>
      <trkpt lat="38.3418700" lon="-0.6870340">
        <ele>310.2</ele>
        <time>2018-10-04T09:11:18Z</time>
      </trkpt>
      <trkpt lat="38.3418680" lon="-0.6871340">
        <ele>309.8</ele>
        <time>2018-10-04T09:11:19Z</time>
      </trkpt>
      <trkpt lat="38.3418700" lon="-0.6872370">
        <ele>309.5</ele>
        <time>2018-10-04T09:11:20Z</time>
      </trkpt>
      <trkpt lat="38.3418800" lon="-0.6873410">
        <ele>309.2</ele>
        <time>2018-10-04T09:11:21Z</time>
      </trkpt>
      <trkpt lat="38.3419000" lon="-0.6874450">
        <ele>308.8</ele>
        <time>2018-10-04T09:11:22Z</time>
      </trkpt>
      <trkpt lat="38.3419290" lon="-0.6875500">
        <ele>308.1</ele>
        <time>2018-10-04T09:11:23Z</time>
      </trkpt>
      <trkpt lat="38.3419510" lon="-0.6876420">
        <ele>307.5</ele>
        <time>2018-10-04T09:11:24Z</time>
      </trkpt>
      <trkpt lat="38.3419510" lon="-0.6877180">
        <ele>307.0</ele>
        <time>2018-10-04T09:11:25Z</time>
      </trkpt>
      <trkpt lat="38.3419330" lon="-0.6877880">
        <ele>306.6</ele>
        <time>2018-10-04T09:11:26Z</time>
      </trkpt>
      <trkpt lat="38.3418990" lon="-0.6878480">
        <ele>306.2</ele>
        <time>2018-10-04T09:11:27Z</time>
      </trkpt>
      <trkpt lat="38.3418610" lon="-0.6878950">
        <ele>305.9</ele>
        <time>2018-10-04T09:11:28Z</time>
      </trkpt>
      <trkpt lat="38.3418230" lon="-0.6879430">
        <ele>305.6</ele>
        <time>2018-10-04T09:11:29Z</time>
      </trkpt>
      <trkpt lat="38.3417930" lon="-0.6879990">
        <ele>305.4</ele>
        <time>2018-10-04T09:11:30Z</time>
      </trkpt>
      <trkpt lat="38.3417660" lon="-0.6880630">
        <ele>305.1</ele>
        <time>2018-10-04T09:11:31Z</time>
      </trkpt>
      <trkpt lat="38.3417500" lon="-0.6881350">
        <ele>304.6</ele>
        <time>2018-10-04T09:11:32Z</time>
      </trkpt>
      <trkpt lat="38.3417410" lon="-0.6882160">
        <ele>304.2</ele>
        <time>2018-10-04T09:11:33Z</time>
      </trkpt>
      <trkpt lat="38.3417380" lon="-0.6883010">
        <ele>303.8</ele>
        <time>2018-10-04T09:11:34Z</time>
      </trkpt>
      <trkpt lat="38.3417340" lon="-0.6883910">
        <ele>303.3</ele>
        <time>2018-10-04T09:11:35Z</time>
      </trkpt>
      <trkpt lat="38.3417300" lon="-0.6884850">
        <ele>302.7</ele>
        <time>2018-10-04T09:11:36Z</time>
      </trkpt>
      <trkpt lat="38.3417280" lon="-0.6885800">
        <ele>302.1</ele>
        <time>2018-10-04T09:11:37Z</time>
      </trkpt>
      <trkpt lat="38.3417280" lon="-0.6886780">
        <ele>301.2</ele>
        <time>2018-10-04T09:11:38Z</time>
      </trkpt>
      <trkpt lat="38.3417340" lon="-0.6887770">
        <ele>300.6</ele>
        <time>2018-10-04T09:11:39Z</time>
      </trkpt>
      <trkpt lat="38.3417490" lon="-0.6888650">
        <ele>300.1</ele>
        <time>2018-10-04T09:11:40Z</time>
      </trkpt>
      <trkpt lat="38.3417630" lon="-0.6889360">
        <ele>299.6</ele>
        <time>2018-10-04T09:11:41Z</time>
      </trkpt>
      <trkpt lat="38.3417770" lon="-0.6889890">
        <ele>299.3</ele>
        <time>2018-10-04T09:11:42Z</time>
      </trkpt>
      <trkpt lat="38.3417920" lon="-0.6890400">
        <ele>299.2</ele>
        <time>2018-10-04T09:11:43Z</time>
      </trkpt>
      <trkpt lat="38.3418070" lon="-0.6890930">
        <ele>299.0</ele>
        <time>2018-10-04T09:11:44Z</time>
      </trkpt>
      <trkpt lat="38.3418270" lon="-0.6891460">
        <ele>298.8</ele>
        <time>2018-10-04T09:11:45Z</time>
      </trkpt>
      <trkpt lat="38.3418550" lon="-0.6891970">
        <ele>298.6</ele>
        <time>2018-10-04T09:11:46Z</time>
      </trkpt>
      <trkpt lat="38.3418820" lon="-0.6892530">
        <ele>298.5</ele>
        <time>2018-10-04T09:11:47Z</time>
      </trkpt>
      <trkpt lat="38.3419100" lon="-0.6893100">
        <ele>298.3</ele>
        <time>2018-10-04T09:11:48Z</time>
      </trkpt>
      <trkpt lat="38.3419370" lon="-0.6893700">
        <ele>298.2</ele>
        <time>2018-10-04T09:11:49Z</time>
      </trkpt>
      <trkpt lat="38.3419680" lon="-0.6894320">
        <ele>297.8</ele>
        <time>2018-10-04T09:11:50Z</time>
      </trkpt>
      <trkpt lat="38.3419990" lon="-0.6894950">
        <ele>297.4</ele>
        <time>2018-10-04T09:11:51Z</time>
      </trkpt>
      <trkpt lat="38.3420350" lon="-0.6895540">
        <ele>296.9</ele>
        <time>2018-10-04T09:11:52Z</time>
      </trkpt>
      <trkpt lat="38.3420760" lon="-0.6896080">
        <ele>296.5</ele>
        <time>2018-10-04T09:11:53Z</time>
      </trkpt>
      <trkpt lat="38.3421380" lon="-0.6896940">
        <ele>296.0</ele>
        <time>2018-10-04T09:11:54Z</time>
      </trkpt>
      <trkpt lat="38.3421560" lon="-0.6897240">
        <ele>295.9</ele>
        <time>2018-10-04T09:11:55Z</time>
      </trkpt>
      <trkpt lat="38.3421910" lon="-0.6897900">
        <ele>295.6</ele>
        <time>2018-10-04T09:11:56Z</time>
      </trkpt>
      <trkpt lat="38.3421910" lon="-0.6897900">
        <ele>295.6</ele>
        <time>2018-10-04T09:11:57Z</time>
      </trkpt>
      <trkpt lat="38.3422550" lon="-0.6899330">
        <ele>295.1</ele>
        <time>2018-10-04T09:11:58Z</time>
      </trkpt>
      <trkpt lat="38.3422780" lon="-0.6900030">
        <ele>294.9</ele>
        <time>2018-10-04T09:11:59Z</time>
      </trkpt>
      <trkpt lat="38.3422940" lon="-0.6900760">
        <ele>294.7</ele>
        <time>2018-10-04T09:12:00Z</time>
      </trkpt>
      <trkpt lat="38.3423030" lon="-0.6901520">
        <ele>294.5</ele>
        <time>2018-10-04T09:12:01Z</time>
      </trkpt>
      <trkpt lat="38.3423060" lon="-0.6902340">
        <ele>294.3</ele>
        <time>2018-10-04T09:12:02Z</time>
      </trkpt>
      <trkpt lat="38.3422970" lon="-0.6903140">
        <ele>294.0</ele>
        <time>2018-10-04T09:12:03Z</time>
      </trkpt>
      <trkpt lat="38.3422960" lon="-0.6903910">
        <ele>293.6</ele>
        <time>2018-10-04T09:12:04Z</time>
      </trkpt>
      <trkpt lat="38.3423060" lon="-0.6904560">
        <ele>293.3</ele>
        <time>2018-10-04T09:12:05Z</time>
      </trkpt>
      <trkpt lat="38.3423470" lon="-0.6905150">
        <ele>293.0</ele>
        <time>2018-10-04T09:12:06Z</time>
      </trkpt>
      <trkpt lat="38.3423640" lon="-0.6905800">
        <ele>292.7</ele>
        <time>2018-10-04T09:12:07Z</time>
      </trkpt>
      <trkpt lat="38.3423640" lon="-0.6905800">
        <ele>292.7</ele>
        <time>2018-10-04T09:12:08Z</time>
      </trkpt>
      <trkpt lat="38.3423950" lon="-0.6906580">
        <ele>292.4</ele>
        <time>2018-10-04T09:12:09Z</time>
      </trkpt>
      <trkpt lat="38.3423990" lon="-0.6907110">
        <ele>292.1</ele>
        <time>2018-10-04T09:12:10Z</time>
      </trkpt>
      <trkpt lat="38.3423980" lon="-0.6907720">
        <ele>291.7</ele>
        <time>2018-10-04T09:12:11Z</time>
      </trkpt>
      <trkpt lat="38.3423960" lon="-0.6908400">
        <ele>291.3</ele>
        <time>2018-10-04T09:12:12Z</time>
      </trkpt>
      <trkpt lat="38.3423820" lon="-0.6909170">
        <ele>291.0</ele>
        <time>2018-10-04T09:12:13Z</time>
      </trkpt>
      <trkpt lat="38.3423620" lon="-0.6910290">
        <ele>290.5</ele>
        <time>2018-10-04T09:12:14Z</time>
      </trkpt>
      <trkpt lat="38.3423550" lon="-0.6910660">
        <ele>290.3</ele>
        <time>2018-10-04T09:12:15Z</time>
      </trkpt>
      <trkpt lat="38.3423450" lon="-0.6911480">
        <ele>289.8</ele>
        <time>2018-10-04T09:12:16Z</time>
      </trkpt>
      <trkpt lat="38.3423450" lon="-0.6911480">
        <ele>289.8</ele>
        <time>2018-10-04T09:12:17Z</time>
      </trkpt>
      <trkpt lat="38.3423450" lon="-0.6912660">
        <ele>289.2</ele>
        <time>2018-10-04T09:12:18Z</time>
      </trkpt>
      <trkpt lat="38.3423700" lon="-0.6912910">
        <ele>289.0</ele>
        <time>2018-10-04T09:12:19Z</time>
      </trkpt>
      <trkpt lat="38.3423930" lon="-0.6913130">
        <ele>288.8</ele>
        <time>2018-10-04T09:12:20Z</time>
      </trkpt>
      <trkpt lat="38.3424150" lon="-0.6913240">
        <ele>288.7</ele>
        <time>2018-10-04T09:12:21Z</time>
      </trkpt>
      <trkpt lat="38.3424290" lon="-0.6913350">
        <ele>288.5</ele>
        <time>2018-10-04T09:12:22Z</time>
      </trkpt>
      <trkpt lat="38.3424340" lon="-0.6913500">
        <ele>288.5</ele>
        <time>2018-10-04T09:12:23Z</time>
      </trkpt>
      <trkpt lat="38.3424250" lon="-0.6913720">
        <ele>288.3</ele>
        <time>2018-10-04T09:12:24Z</time>
      </trkpt>
      <trkpt lat="38.3424120" lon="-0.6913890">
        <ele>288.2</ele>
        <time>2018-10-04T09:12:25Z</time>
      </trkpt>
      <trkpt lat="38.3423970" lon="-0.6913970">
        <ele>288.1</ele>
        <time>2018-10-04T09:12:26Z</time>
      </trkpt>
      <trkpt lat="38.3423800" lon="-0.6914070">
        <ele>288.2</ele>
        <time>2018-10-04T09:12:27Z</time>
      </trkpt>
      <trkpt lat="38.3423630" lon="-0.6914180">
        <ele>288.4</ele>
        <time>2018-10-04T09:12:28Z</time>
      </trkpt>
      <trkpt lat="38.3423460" lon="-0.6914330">
        <ele>288.7</ele>
        <time>2018-10-04T09:12:29Z</time>
      </trkpt>
      <trkpt lat="38.3423460" lon="-0.6914330">
        <ele>288.7</ele>
        <time>2018-10-04T09:12:30Z</time>
      </trkpt>
      <trkpt lat="38.3423460" lon="-0.6914330">
        <ele>288.7</ele>
        <time>2018-10-04T09:12:31Z</time>
      </trkpt>
      <trkpt lat="38.3423020" lon="-0.6914850">
        <ele>289.3</ele>
        <time>2018-10-04T09:12:32Z</time>
      </trkpt>
      <trkpt lat="38.3422910" lon="-0.6915010">
        <ele>289.4</ele>
        <time>2018-10-04T09:12:33Z</time>
      </trkpt>
      <trkpt lat="38.3422810" lon="-0.6915190">
        <ele>289.6</ele>
        <time>2018-10-04T09:12:34Z</time>
      </trkpt>
      <trkpt lat="38.3422700" lon="-0.6915380">
        <ele>289.7</ele>
        <time>2018-10-04T09:12:35Z</time>
      </trkpt>
      <trkpt lat="38.3422580" lon="-0.6915560">
        <ele>289.9</ele>
        <time>2018-10-04T09:12:36Z</time>
      </trkpt>
      <trkpt lat="38.3422480" lon="-0.6915750">
        <ele>290.1</ele>
        <time>2018-10-04T09:12:37Z</time>
      </trkpt>
      <trkpt lat="38.3422480" lon="-0.6915750">
        <ele>290.1</ele>
        <time>2018-10-04T09:12:38Z</time>
      </trkpt>
      <trkpt lat="38.3422210" lon="-0.6916090">
        <ele>290.3</ele>
        <time>2018-10-04T09:12:39Z</time>
      </trkpt>
      <trkpt lat="38.3422120" lon="-0.6916230">
        <ele>290.4</ele>
        <time>2018-10-04T09:12:40Z</time>
      </trkpt>
      <trkpt lat="38.3421980" lon="-0.6916360">
        <ele>290.5</ele>
        <time>2018-10-04T09:12:41Z</time>
      </trkpt>
      <trkpt lat="38.3421850" lon="-0.6916440">
        <ele>290.6</ele>
        <time>2018-10-04T09:12:42Z</time>
      </trkpt>
      <trkpt lat="38.3421690" lon="-0.6916520">
        <ele>290.7</ele>
        <time>2018-10-04T09:12:43Z</time>
      </trkpt>
      <trkpt lat="38.3421520" lon="-0.6916620">
        <ele>290.8</ele>
        <time>2018-10-04T09:12:44Z</time>
      </trkpt>
      <trkpt lat="38.3421340" lon="-0.6916730">
        <ele>290.8</ele>
        <time>2018-10-04T09:12:45Z</time>
      </trkpt>
      <trkpt lat="38.3421120" lon="-0.6916840">
        <ele>290.8</ele>
        <time>2018-10-04T09:12:46Z</time>
      </trkpt>
      <trkpt lat="38.3421120" lon="-0.6916840">
        <ele>290.8</ele>
        <time>2018-10-04T09:12:47Z</time>
      </trkpt>
      <trkpt lat="38.3420670" lon="-0.6917010">
        <ele>290.9</ele>
        <time>2018-10-04T09:12:48Z</time>
      </trkpt>
      <trkpt lat="38.3420410" lon="-0.6917100">
        <ele>290.9</ele>
        <time>2018-10-04T09:12:49Z</time>
      </trkpt>
      <trkpt lat="38.3420110" lon="-0.6917180">
        <ele>290.9</ele>
        <time>2018-10-04T09:12:50Z</time>
      </trkpt>
      <trkpt lat="38.3419800" lon="-0.6917280">
        <ele>290.9</ele>
        <time>2018-10-04T09:12:51Z</time>
      </trkpt>
      <trkpt lat="38.3419470" lon="-0.6917360">
        <ele>290.9</ele>
        <time>2018-10-04T09:12:52Z</time>
      </trkpt>
      <trkpt lat="38.3419100" lon="-0.6917420">
        <ele>290.9</ele>
        <time>2018-10-04T09:12:53Z</time>
      </trkpt>
      <trkpt lat="38.3418710" lon="-0.6917480">
        <ele>290.9</ele>
        <time>2018-10-04T09:12:54Z</time>
      </trkpt>
      <trkpt lat="38.3418300" lon="-0.6917530">
        <ele>290.9</ele>
        <time>2018-10-04T09:12:55Z</time>
      </trkpt>
      <trkpt lat="38.3417880" lon="-0.6917610">
        <ele>290.9</ele>
        <time>2018-10-04T09:12:56Z</time>
      </trkpt>
      <trkpt lat="38.3417440" lon="-0.6917710">
        <ele>290.9</ele>
        <time>2018-10-04T09:12:57Z</time>
      </trkpt>
      <trkpt lat="38.3416990" lon="-0.6917810">
        <ele>290.8</ele>
        <time>2018-10-04T09:12:58Z</time>
      </trkpt>
      <trkpt lat="38.3416540" lon="-0.6917920">
        <ele>290.8</ele>
        <time>2018-10-04T09:12:59Z</time>
      </trkpt>
      <trkpt lat="38.3416110" lon="-0.6918060">
        <ele>290.8</ele>
        <time>2018-10-04T09:13:00Z</time>
      </trkpt>
      <trkpt lat="38.3415660" lon="-0.6918170">
        <ele>290.7</ele>
        <time>2018-10-04T09:13:01Z</time>
      </trkpt>
      <trkpt lat="38.3415210" lon="-0.6918310">
        <ele>290.7</ele>
        <time>2018-10-04T09:13:02Z</time>
      </trkpt>
      <trkpt lat="38.3414760" lon="-0.6918460">
        <ele>290.7</ele>
        <time>2018-10-04T09:13:03Z</time>
      </trkpt>
      <trkpt lat="38.3414320" lon="-0.6918630">
        <ele>290.6</ele>
        <time>2018-10-04T09:13:04Z</time>
      </trkpt>
      <trkpt lat="38.3413890" lon="-0.6918780">
        <ele>290.6</ele>
        <time>2018-10-04T09:13:05Z</time>
      </trkpt>
      <trkpt lat="38.3413420" lon="-0.6918930">
        <ele>290.6</ele>
        <time>2018-10-04T09:13:06Z</time>
      </trkpt>
      <trkpt lat="38.3412900" lon="-0.6919080">
        <ele>290.4</ele>
        <time>2018-10-04T09:13:07Z</time>
      </trkpt>
      <trkpt lat="38.3412350" lon="-0.6919200">
        <ele>290.3</ele>
        <time>2018-10-04T09:13:08Z</time>
      </trkpt>
      <trkpt lat="38.3411790" lon="-0.6919280">
        <ele>290.2</ele>
        <time>2018-10-04T09:13:09Z</time>
      </trkpt>
      <trkpt lat="38.3411220" lon="-0.6919320">
        <ele>290.1</ele>
        <time>2018-10-04T09:13:10Z</time>
      </trkpt>
      <trkpt lat="38.3410660" lon="-0.6919310">
        <ele>289.8</ele>
        <time>2018-10-04T09:13:11Z</time>
      </trkpt>
      <trkpt lat="38.3410160" lon="-0.6919260">
        <ele>289.6</ele>
        <time>2018-10-04T09:13:12Z</time>
      </trkpt>
      <trkpt lat="38.3409690" lon="-0.6919220">
        <ele>289.4</ele>
        <time>2018-10-04T09:13:13Z</time>
      </trkpt>
      <trkpt lat="38.3409220" lon="-0.6919150">
        <ele>289.2</ele>
        <time>2018-10-04T09:13:14Z</time>
      </trkpt>
      <trkpt lat="38.3408730" lon="-0.6919090">
        <ele>289.0</ele>
        <time>2018-10-04T09:13:15Z</time>
      </trkpt>
      <trkpt lat="38.3408210" lon="-0.6919050">
        <ele>288.8</ele>
        <time>2018-10-04T09:13:16Z</time>
      </trkpt>
      <trkpt lat="38.3407660" lon="-0.6919010">
        <ele>288.5</ele>
        <time>2018-10-04T09:13:17Z</time>
      </trkpt>
      <trkpt lat="38.3407090" lon="-0.6919000">
        <ele>288.3</ele>
        <time>2018-10-04T09:13:18Z</time>
      </trkpt>
      <trkpt lat="38.3406520" lon="-0.6919000">
        <ele>288.0</ele>
        <time>2018-10-04T09:13:19Z</time>
      </trkpt>
      <trkpt lat="38.3405980" lon="-0.6919000">
        <ele>287.9</ele>
        <time>2018-10-04T09:13:20Z</time>
      </trkpt>
      <trkpt lat="38.3405460" lon="-0.6919030">
        <ele>287.7</ele>
        <time>2018-10-04T09:13:21Z</time>
      </trkpt>
      <trkpt lat="38.3404990" lon="-0.6919140">
        <ele>287.6</ele>
        <time>2018-10-04T09:13:22Z</time>
      </trkpt>
      <trkpt lat="38.3404540" lon="-0.6919350">
        <ele>287.5</ele>
        <time>2018-10-04T09:13:23Z</time>
      </trkpt>
      <trkpt lat="38.3404090" lon="-0.6919620">
        <ele>287.5</ele>
        <time>2018-10-04T09:13:24Z</time>
      </trkpt>
      <trkpt lat="38.3403630" lon="-0.6919810">
        <ele>287.5</ele>
        <time>2018-10-04T09:13:25Z</time>
      </trkpt>
      <trkpt lat="38.3403160" lon="-0.6919970">
        <ele>287.5</ele>
        <time>2018-10-04T09:13:26Z</time>
      </trkpt>
      <trkpt lat="38.3402700" lon="-0.6920140">
        <ele>287.5</ele>
        <time>2018-10-04T09:13:27Z</time>
      </trkpt>
      <trkpt lat="38.3402230" lon="-0.6920320">
        <ele>287.5</ele>
        <time>2018-10-04T09:13:28Z</time>
      </trkpt>
      <trkpt lat="38.3401760" lon="-0.6920500">
        <ele>287.6</ele>
        <time>2018-10-04T09:13:29Z</time>
      </trkpt>
      <trkpt lat="38.3401290" lon="-0.6920680">
        <ele>287.6</ele>
        <time>2018-10-04T09:13:30Z</time>
      </trkpt>
      <trkpt lat="38.3400840" lon="-0.6920880">
        <ele>287.7</ele>
        <time>2018-10-04T09:13:31Z</time>
      </trkpt>
      <trkpt lat="38.3400420" lon="-0.6921090">
        <ele>287.7</ele>
        <time>2018-10-04T09:13:32Z</time>
      </trkpt>
      <trkpt lat="38.3400030" lon="-0.6921320">
        <ele>287.8</ele>
        <time>2018-10-04T09:13:33Z</time>
      </trkpt>
      <trkpt lat="38.3399660" lon="-0.6921580">
        <ele>287.9</ele>
        <time>2018-10-04T09:13:34Z</time>
      </trkpt>
      <trkpt lat="38.3399270" lon="-0.6921900">
        <ele>288.0</ele>
        <time>2018-10-04T09:13:35Z</time>
      </trkpt>
      <trkpt lat="38.3398860" lon="-0.6922280">
        <ele>288.1</ele>
        <time>2018-10-04T09:13:36Z</time>
      </trkpt>
      <trkpt lat="38.3398460" lon="-0.6922680">
        <ele>288.2</ele>
        <time>2018-10-04T09:13:37Z</time>
      </trkpt>
      <trkpt lat="38.3398060" lon="-0.6923100">
        <ele>288.3</ele>
        <time>2018-10-04T09:13:38Z</time>
      </trkpt>
      <trkpt lat="38.3397660" lon="-0.6923520">
        <ele>288.6</ele>
        <time>2018-10-04T09:13:39Z</time>
      </trkpt>
      <trkpt lat="38.3397250" lon="-0.6923950">
        <ele>288.7</ele>
        <time>2018-10-04T09:13:40Z</time>
      </trkpt>
      <trkpt lat="38.3396850" lon="-0.6924390">
        <ele>288.9</ele>
        <time>2018-10-04T09:13:41Z</time>
      </trkpt>
      <trkpt lat="38.3396450" lon="-0.6924850">
        <ele>289.0</ele>
        <time>2018-10-04T09:13:42Z</time>
      </trkpt>
      <trkpt lat="38.3396030" lon="-0.6925300">
        <ele>289.1</ele>
        <time>2018-10-04T09:13:43Z</time>
      </trkpt>
      <trkpt lat="38.3395610" lon="-0.6925740">
        <ele>289.5</ele>
        <time>2018-10-04T09:13:44Z</time>
      </trkpt>
      <trkpt lat="38.3395180" lon="-0.6926170">
        <ele>289.6</ele>
        <time>2018-10-04T09:13:45Z</time>
      </trkpt>
      <trkpt lat="38.3394730" lon="-0.6926560">
        <ele>289.7</ele>
        <time>2018-10-04T09:13:46Z</time>
      </trkpt>
      <trkpt lat="38.3394260" lon="-0.6926910">
        <ele>290.2</ele>
        <time>2018-10-04T09:13:47Z</time>
      </trkpt>
      <trkpt lat="38.3393780" lon="-0.6927140">
        <ele>290.3</ele>
        <time>2018-10-04T09:13:48Z</time>
      </trkpt>
      <trkpt lat="38.3393340" lon="-0.6927340">
        <ele>290.5</ele>
        <time>2018-10-04T09:13:49Z</time>
      </trkpt>
      <trkpt lat="38.3392960" lon="-0.6927610">
        <ele>290.8</ele>
        <time>2018-10-04T09:13:50Z</time>
      </trkpt>
      <trkpt lat="38.3392590" lon="-0.6927910">
        <ele>290.9</ele>
        <time>2018-10-04T09:13:51Z</time>
      </trkpt>
      <trkpt lat="38.3392240" lon="-0.6928240">
        <ele>291.2</ele>
        <time>2018-10-04T09:13:52Z</time>
      </trkpt>
      <trkpt lat="38.3391880" lon="-0.6928630">
        <ele>291.2</ele>
        <time>2018-10-04T09:13:53Z</time>
      </trkpt>
      <trkpt lat="38.3391530" lon="-0.6929050">
        <ele>291.3</ele>
        <time>2018-10-04T09:13:54Z</time>
      </trkpt>
      <trkpt lat="38.3391150" lon="-0.6929460">
        <ele>291.3</ele>
        <time>2018-10-04T09:13:55Z</time>
      </trkpt>
      <trkpt lat="38.3390750" lon="-0.6929940">
        <ele>291.3</ele>
        <time>2018-10-04T09:13:56Z</time>
      </trkpt>
      <trkpt lat="38.3390450" lon="-0.6930400">
        <ele>291.0</ele>
        <time>2018-10-04T09:13:57Z</time>
      </trkpt>
      <trkpt lat="38.3390200" lon="-0.6930830">
        <ele>290.9</ele>
        <time>2018-10-04T09:13:58Z</time>
      </trkpt>
      <trkpt lat="38.3389960" lon="-0.6931220">
        <ele>291.0</ele>
        <time>2018-10-04T09:13:59Z</time>
      </trkpt>
      <trkpt lat="38.3389650" lon="-0.6931570">
        <ele>290.8</ele>
        <time>2018-10-04T09:14:00Z</time>
      </trkpt>
      <trkpt lat="38.3389320" lon="-0.6931890">
        <ele>290.6</ele>
        <time>2018-10-04T09:14:01Z</time>
      </trkpt>
      <trkpt lat="38.3388990" lon="-0.6932290">
        <ele>290.3</ele>
        <time>2018-10-04T09:14:02Z</time>
      </trkpt>
      <trkpt lat="38.3388700" lon="-0.6932850">
        <ele>290.1</ele>
        <time>2018-10-04T09:14:03Z</time>
      </trkpt>
      <trkpt lat="38.3388460" lon="-0.6933540">
        <ele>289.4</ele>
        <time>2018-10-04T09:14:04Z</time>
      </trkpt>
      <trkpt lat="38.3388240" lon="-0.6934240">
        <ele>289.2</ele>
        <time>2018-10-04T09:14:05Z</time>
      </trkpt>
      <trkpt lat="38.3388020" lon="-0.6934980">
        <ele>288.5</ele>
        <time>2018-10-04T09:14:06Z</time>
      </trkpt>
      <trkpt lat="38.3387810" lon="-0.6935660">
        <ele>287.9</ele>
        <time>2018-10-04T09:14:07Z</time>
      </trkpt>
      <trkpt lat="38.3387600" lon="-0.6936330">
        <ele>287.8</ele>
        <time>2018-10-04T09:14:08Z</time>
      </trkpt>
      <trkpt lat="38.3387330" lon="-0.6936950">
        <ele>286.9</ele>
        <time>2018-10-04T09:14:09Z</time>
      </trkpt>
      <trkpt lat="38.3386960" lon="-0.6937480">
        <ele>286.6</ele>
        <time>2018-10-04T09:14:10Z</time>
      </trkpt>
      <trkpt lat="38.3386490" lon="-0.6937910">
        <ele>286.5</ele>
        <time>2018-10-04T09:14:11Z</time>
      </trkpt>
      <trkpt lat="38.3385970" lon="-0.6938250">
        <ele>286.3</ele>
        <time>2018-10-04T09:14:12Z</time>
      </trkpt>
      <trkpt lat="38.3385440" lon="-0.6938570">
        <ele>286.3</ele>
        <time>2018-10-04T09:14:13Z</time>
      </trkpt>
      <trkpt lat="38.3384900" lon="-0.6938860">
        <ele>286.8</ele>
        <time>2018-10-04T09:14:14Z</time>
      </trkpt>
      <trkpt lat="38.3384380" lon="-0.6939150">
        <ele>286.7</ele>
        <time>2018-10-04T09:14:15Z</time>
      </trkpt>
      <trkpt lat="38.3383880" lon="-0.6939440">
        <ele>287.0</ele>
        <time>2018-10-04T09:14:16Z</time>
      </trkpt>
      <trkpt lat="38.3383420" lon="-0.6939700">
        <ele>287.3</ele>
        <time>2018-10-04T09:14:17Z</time>
      </trkpt>
      <trkpt lat="38.3382960" lon="-0.6939980">
        <ele>287.4</ele>
        <time>2018-10-04T09:14:18Z</time>
      </trkpt>
      <trkpt lat="38.3382520" lon="-0.6940250">
        <ele>288.0</ele>
        <time>2018-10-04T09:14:19Z</time>
      </trkpt>
      <trkpt lat="38.3382070" lon="-0.6940510">
        <ele>288.1</ele>
        <time>2018-10-04T09:14:20Z</time>
      </trkpt>
      <trkpt lat="38.3381610" lon="-0.6940770">
        <ele>288.2</ele>
        <time>2018-10-04T09:14:21Z</time>
      </trkpt>
      <trkpt lat="38.3381130" lon="-0.6941020">
        <ele>288.9</ele>
        <time>2018-10-04T09:14:22Z</time>
      </trkpt>
      <trkpt lat="38.3380640" lon="-0.6941250">
        <ele>289.2</ele>
        <time>2018-10-04T09:14:23Z</time>
      </trkpt>
      <trkpt lat="38.3380140" lon="-0.6941500">
        <ele>290.1</ele>
        <time>2018-10-04T09:14:24Z</time>
      </trkpt>
      <trkpt lat="38.3379650" lon="-0.6941770">
        <ele>290.4</ele>
        <time>2018-10-04T09:14:25Z</time>
      </trkpt>
      <trkpt lat="38.3379170" lon="-0.6942070">
        <ele>291.0</ele>
        <time>2018-10-04T09:14:26Z</time>
      </trkpt>
      <trkpt lat="38.3378690" lon="-0.6942340">
        <ele>291.4</ele>
        <time>2018-10-04T09:14:27Z</time>
      </trkpt>
      <trkpt lat="38.3378210" lon="-0.6942540">
        <ele>291.6</ele>
        <time>2018-10-04T09:14:28Z</time>
      </trkpt>
      <trkpt lat="38.3377760" lon="-0.6942710">
        <ele>292.2</ele>
        <time>2018-10-04T09:14:29Z</time>
      </trkpt>
      <trkpt lat="38.3377350" lon="-0.6942830">
        <ele>292.5</ele>
        <time>2018-10-04T09:14:30Z</time>
      </trkpt>
      <trkpt lat="38.3376990" lon="-0.6942880">
        <ele>292.7</ele>
        <time>2018-10-04T09:14:31Z</time>
      </trkpt>
      <trkpt lat="38.3376670" lon="-0.6942900">
        <ele>293.1</ele>
        <time>2018-10-04T09:14:32Z</time>
      </trkpt>
      <trkpt lat="38.3376390" lon="-0.6942890">
        <ele>293.4</ele>
        <time>2018-10-04T09:14:33Z</time>
      </trkpt>
      <trkpt lat="38.3376140" lon="-0.6942830">
        <ele>293.8</ele>
        <time>2018-10-04T09:14:34Z</time>
      </trkpt>
      <trkpt lat="38.3375890" lon="-0.6942730">
        <ele>293.9</ele>
        <time>2018-10-04T09:14:35Z</time>
      </trkpt>
      <trkpt lat="38.3375680" lon="-0.6942600">
        <ele>294.3</ele>
        <time>2018-10-04T09:14:36Z</time>
      </trkpt>
      <trkpt lat="38.3375480" lon="-0.6942460">
        <ele>294.7</ele>
        <time>2018-10-04T09:14:37Z</time>
      </trkpt>
      <trkpt lat="38.3375300" lon="-0.6942350">
        <ele>294.9</ele>
        <time>2018-10-04T09:14:38Z</time>
      </trkpt>
      <trkpt lat="38.3375160" lon="-0.6942230">
        <ele>295.0</ele>
        <time>2018-10-04T09:14:39Z</time>
      </trkpt>
      <trkpt lat="38.3375050" lon="-0.6942080">
        <ele>295.4</ele>
        <time>2018-10-04T09:14:40Z</time>
      </trkpt>
      <trkpt lat="38.3374920" lon="-0.6941900">
        <ele>295.7</ele>
        <time>2018-10-04T09:14:41Z</time>
      </trkpt>
      <trkpt lat="38.3374810" lon="-0.6941730">
        <ele>296.1</ele>
        <time>2018-10-04T09:14:42Z</time>
      </trkpt>
      <trkpt lat="38.3374690" lon="-0.6941610">
        <ele>296.2</ele>
        <time>2018-10-04T09:14:43Z</time>
      </trkpt>
      <trkpt lat="38.3374570" lon="-0.6941480">
        <ele>296.5</ele>
        <time>2018-10-04T09:14:44Z</time>
      </trkpt>
      <trkpt lat="38.3374430" lon="-0.6941330">
        <ele>296.8</ele>
        <time>2018-10-04T09:14:45Z</time>
      </trkpt>
      <trkpt lat="38.3374320" lon="-0.6941160">
        <ele>296.9</ele>
        <time>2018-10-04T09:14:46Z</time>
      </trkpt>
      <trkpt lat="38.3374240" lon="-0.6941000">
        <ele>297.2</ele>
        <time>2018-10-04T09:14:47Z</time>
      </trkpt>
      <trkpt lat="38.3374190" lon="-0.6940830">
        <ele>297.3</ele>
        <time>2018-10-04T09:14:48Z</time>
      </trkpt>
      <trkpt lat="38.3374160" lon="-0.6940660">
        <ele>297.5</ele>
        <time>2018-10-04T09:14:49Z</time>
      </trkpt>
      <trkpt lat="38.3374140" lon="-0.6940480">
        <ele>297.8</ele>
        <time>2018-10-04T09:14:50Z</time>
      </trkpt>
      <trkpt lat="38.3374150" lon="-0.6940290">
        <ele>297.7</ele>
        <time>2018-10-04T09:14:51Z</time>
      </trkpt>
      <trkpt lat="38.3374130" lon="-0.6940110">
        <ele>297.8</ele>
        <time>2018-10-04T09:14:52Z</time>
      </trkpt>
      <trkpt lat="38.3374160" lon="-0.6939930">
        <ele>297.9</ele>
        <time>2018-10-04T09:14:53Z</time>
      </trkpt>
      <trkpt lat="38.3374170" lon="-0.6939740">
        <ele>298.1</ele>
        <time>2018-10-04T09:14:54Z</time>
      </trkpt>
      <trkpt lat="38.3374210" lon="-0.6939580">
        <ele>298.2</ele>
        <time>2018-10-04T09:14:55Z</time>
      </trkpt>
      <trkpt lat="38.3374250" lon="-0.6939400">
        <ele>298.4</ele>
        <time>2018-10-04T09:14:56Z</time>
      </trkpt>
      <trkpt lat="38.3374290" lon="-0.6939210">
        <ele>298.6</ele>
        <time>2018-10-04T09:14:57Z</time>
      </trkpt>
      <trkpt lat="38.3374310" lon="-0.6939010">
        <ele>298.8</ele>
        <time>2018-10-04T09:14:58Z</time>
      </trkpt>
      <trkpt lat="38.3374330" lon="-0.6938820">
        <ele>299.0</ele>
        <time>2018-10-04T09:14:59Z</time>
      </trkpt>
      <trkpt lat="38.3374360" lon="-0.6938620">
        <ele>299.2</ele>
        <time>2018-10-04T09:15:00Z</time>
      </trkpt>
      <trkpt lat="38.3374370" lon="-0.6938420">
        <ele>299.4</ele>
        <time>2018-10-04T09:15:01Z</time>
      </trkpt>
      <trkpt lat="38.3374390" lon="-0.6938230">
        <ele>299.5</ele>
        <time>2018-10-04T09:15:02Z</time>
      </trkpt>
      <trkpt lat="38.3374440" lon="-0.6938020">
        <ele>299.7</ele>
        <time>2018-10-04T09:15:03Z</time>
      </trkpt>
      <trkpt lat="38.3374500" lon="-0.6937830">
        <ele>299.9</ele>
        <time>2018-10-04T09:15:04Z</time>
      </trkpt>
      <trkpt lat="38.3374530" lon="-0.6937630">
        <ele>300.1</ele>
        <time>2018-10-04T09:15:05Z</time>
      </trkpt>
      <trkpt lat="38.3374550" lon="-0.6937430">
        <ele>300.3</ele>
        <time>2018-10-04T09:15:06Z</time>
      </trkpt>
      <trkpt lat="38.3374560" lon="-0.6937220">
        <ele>300.4</ele>
        <time>2018-10-04T09:15:07Z</time>
      </trkpt>
      <trkpt lat="38.3374590" lon="-0.6937010">
        <ele>300.5</ele>
        <time>2018-10-04T09:15:08Z</time>
      </trkpt>
      <trkpt lat="38.3374620" lon="-0.6936800">
        <ele>300.7</ele>
        <time>2018-10-04T09:15:09Z</time>
      </trkpt>
      <trkpt lat="38.3374650" lon="-0.6936610">
        <ele>300.8</ele>
        <time>2018-10-04T09:15:10Z</time>
      </trkpt>
      <trkpt lat="38.3374670" lon="-0.6936410">
        <ele>301.0</ele>
        <time>2018-10-04T09:15:11Z</time>
      </trkpt>
      <trkpt lat="38.3374700" lon="-0.6936210">
        <ele>301.1</ele>
        <time>2018-10-04T09:15:12Z</time>
      </trkpt>
      <trkpt lat="38.3374720" lon="-0.6936010">
        <ele>301.2</ele>
        <time>2018-10-04T09:15:13Z</time>
      </trkpt>
      <trkpt lat="38.3374720" lon="-0.6935810">
        <ele>301.4</ele>
        <time>2018-10-04T09:15:14Z</time>
      </trkpt>
      <trkpt lat="38.3374720" lon="-0.6935600">
        <ele>301.7</ele>
        <time>2018-10-04T09:15:15Z</time>
      </trkpt>
      <trkpt lat="38.3374730" lon="-0.6935400">
        <ele>301.9</ele>
        <time>2018-10-04T09:15:16Z</time>
      </trkpt>
      <trkpt lat="38.3374740" lon="-0.6935180">
        <ele>302.1</ele>
        <time>2018-10-04T09:15:17Z</time>
      </trkpt>
      <trkpt lat="38.3374750" lon="-0.6934970">
        <ele>302.3</ele>
        <time>2018-10-04T09:15:18Z</time>
      </trkpt>
      <trkpt lat="38.3374750" lon="-0.6934750">
        <ele>302.5</ele>
        <time>2018-10-04T09:15:19Z</time>
      </trkpt>
      <trkpt lat="38.3374740" lon="-0.6934530">
        <ele>302.7</ele>
        <time>2018-10-04T09:15:20Z</time>
      </trkpt>
      <trkpt lat="38.3374720" lon="-0.6934320">
        <ele>303.0</ele>
        <time>2018-10-04T09:15:21Z</time>
      </trkpt>
      <trkpt lat="38.3374650" lon="-0.6934140">
        <ele>303.3</ele>
        <time>2018-10-04T09:15:22Z</time>
      </trkpt>
      <trkpt lat="38.3374560" lon="-0.6933950">
        <ele>303.5</ele>
        <time>2018-10-04T09:15:23Z</time>
      </trkpt>
      <trkpt lat="38.3374490" lon="-0.6933760">
        <ele>303.8</ele>
        <time>2018-10-04T09:15:24Z</time>
      </trkpt>
      <trkpt lat="38.3374440" lon="-0.6933570">
        <ele>304.0</ele>
        <time>2018-10-04T09:15:25Z</time>
      </trkpt>
      <trkpt lat="38.3374380" lon="-0.6933380">
        <ele>304.3</ele>
        <time>2018-10-04T09:15:26Z</time>
      </trkpt>
      <trkpt lat="38.3374320" lon="-0.6933170">
        <ele>304.7</ele>
        <time>2018-10-04T09:15:27Z</time>
      </trkpt>
      <trkpt lat="38.3374270" lon="-0.6932960">
        <ele>305.0</ele>
        <time>2018-10-04T09:15:28Z</time>
      </trkpt>
      <trkpt lat="38.3374190" lon="-0.6932760">
        <ele>305.3</ele>
        <time>2018-10-04T09:15:29Z</time>
      </trkpt>
      <trkpt lat="38.3374120" lon="-0.6932550">
        <ele>305.6</ele>
        <time>2018-10-04T09:15:30Z</time>
      </trkpt>
      <trkpt lat="38.3374040" lon="-0.6932350">
        <ele>305.9</ele>
        <time>2018-10-04T09:15:31Z</time>
      </trkpt>
      <trkpt lat="38.3373950" lon="-0.6932160">
        <ele>306.1</ele>
        <time>2018-10-04T09:15:32Z</time>
      </trkpt>
      <trkpt lat="38.3373890" lon="-0.6931950">
        <ele>306.4</ele>
        <time>2018-10-04T09:15:33Z</time>
      </trkpt>
      <trkpt lat="38.3373840" lon="-0.6931750">
        <ele>306.6</ele>
        <time>2018-10-04T09:15:34Z</time>
      </trkpt>
      <trkpt lat="38.3373790" lon="-0.6931540">
        <ele>307.0</ele>
        <time>2018-10-04T09:15:35Z</time>
      </trkpt>
      <trkpt lat="38.3373770" lon="-0.6931350">
        <ele>307.4</ele>
        <time>2018-10-04T09:15:36Z</time>
      </trkpt>
      <trkpt lat="38.3373740" lon="-0.6931170">
        <ele>307.8</ele>
        <time>2018-10-04T09:15:37Z</time>
      </trkpt>
      <trkpt lat="38.3373700" lon="-0.6931040">
        <ele>308.0</ele>
        <time>2018-10-04T09:15:38Z</time>
      </trkpt>
      <trkpt lat="38.3373650" lon="-0.6930880">
        <ele>308.2</ele>
        <time>2018-10-04T09:15:39Z</time>
      </trkpt>
      <trkpt lat="38.3373630" lon="-0.6930720">
        <ele>308.4</ele>
        <time>2018-10-04T09:15:40Z</time>
      </trkpt>
      <trkpt lat="38.3373590" lon="-0.6930590">
        <ele>308.6</ele>
        <time>2018-10-04T09:15:41Z</time>
      </trkpt>
      <trkpt lat="38.3373560" lon="-0.6930470">
        <ele>308.8</ele>
        <time>2018-10-04T09:15:42Z</time>
      </trkpt>
      <trkpt lat="38.3373500" lon="-0.6930350">
        <ele>309.0</ele>
        <time>2018-10-04T09:15:43Z</time>
      </trkpt>
      <trkpt lat="38.3373450" lon="-0.6930220">
        <ele>309.2</ele>
        <time>2018-10-04T09:15:44Z</time>
      </trkpt>
      <trkpt lat="38.3373400" lon="-0.6930100">
        <ele>309.4</ele>
        <time>2018-10-04T09:15:45Z</time>
      </trkpt>
      <trkpt lat="38.3373330" lon="-0.6929980">
        <ele>309.6</ele>
        <time>2018-10-04T09:15:46Z</time>
      </trkpt>
      <trkpt lat="38.3373250" lon="-0.6929870">
        <ele>309.8</ele>
        <time>2018-10-04T09:15:47Z</time>
      </trkpt>
      <trkpt lat="38.3373200" lon="-0.6929750">
        <ele>309.9</ele>
        <time>2018-10-04T09:15:48Z</time>
      </trkpt>
      <trkpt lat="38.3373160" lon="-0.6929600">
        <ele>310.1</ele>
        <time>2018-10-04T09:15:49Z</time>
      </trkpt>
      <trkpt lat="38.3373130" lon="-0.6929450">
        <ele>310.2</ele>
        <time>2018-10-04T09:15:50Z</time>
      </trkpt>
      <trkpt lat="38.3373050" lon="-0.6929320">
        <ele>310.4</ele>
        <time>2018-10-04T09:15:51Z</time>
      </trkpt>
      <trkpt lat="38.3372970" lon="-0.6929200">
        <ele>310.5</ele>
        <time>2018-10-04T09:15:52Z</time>
      </trkpt>
      <trkpt lat="38.3372850" lon="-0.6929130">
        <ele>310.7</ele>
        <time>2018-10-04T09:15:53Z</time>
      </trkpt>
      <trkpt lat="38.3372730" lon="-0.6929030">
        <ele>310.9</ele>
        <time>2018-10-04T09:15:54Z</time>
      </trkpt>
      <trkpt lat="38.3372600" lon="-0.6928950">
        <ele>311.1</ele>
        <time>2018-10-04T09:15:55Z</time>
      </trkpt>
      <trkpt lat="38.3372490" lon="-0.6928870">
        <ele>311.2</ele>
        <time>2018-10-04T09:15:56Z</time>
      </trkpt>
      <trkpt lat="38.3372360" lon="-0.6928790">
        <ele>311.4</ele>
        <time>2018-10-04T09:15:57Z</time>
      </trkpt>
      <trkpt lat="38.3372220" lon="-0.6928730">
        <ele>311.6</ele>
        <time>2018-10-04T09:15:58Z</time>
      </trkpt>
      <trkpt lat="38.3372090" lon="-0.6928680">
        <ele>311.9</ele>
        <time>2018-10-04T09:15:59Z</time>
      </trkpt>
      <trkpt lat="38.3371950" lon="-0.6928640">
        <ele>312.1</ele>
        <time>2018-10-04T09:16:00Z</time>
      </trkpt>
      <trkpt lat="38.3371820" lon="-0.6928600">
        <ele>312.4</ele>
        <time>2018-10-04T09:16:01Z</time>
      </trkpt>
      <trkpt lat="38.3371680" lon="-0.6928510">
        <ele>312.6</ele>
        <time>2018-10-04T09:16:02Z</time>
      </trkpt>
      <trkpt lat="38.3371560" lon="-0.6928430">
        <ele>312.6</ele>
        <time>2018-10-04T09:16:03Z</time>
      </trkpt>
      <trkpt lat="38.3371440" lon="-0.6928340">
        <ele>312.7</ele>
        <time>2018-10-04T09:16:04Z</time>
      </trkpt>
      <trkpt lat="38.3371320" lon="-0.6928260">
        <ele>312.8</ele>
        <time>2018-10-04T09:16:05Z</time>
      </trkpt>
      <trkpt lat="38.3371200" lon="-0.6928190">
        <ele>312.9</ele>
        <time>2018-10-04T09:16:06Z</time>
      </trkpt>
      <trkpt lat="38.3371080" lon="-0.6928120">
        <ele>312.9</ele>
        <time>2018-10-04T09:16:07Z</time>
      </trkpt>
      <trkpt lat="38.3370970" lon="-0.6928030">
        <ele>313.0</ele>
        <time>2018-10-04T09:16:08Z</time>
      </trkpt>
      <trkpt lat="38.3370850" lon="-0.6927960">
        <ele>313.1</ele>
        <time>2018-10-04T09:16:09Z</time>
      </trkpt>
      <trkpt lat="38.3370730" lon="-0.6927880">
        <ele>313.1</ele>
        <time>2018-10-04T09:16:10Z</time>
      </trkpt>
      <trkpt lat="38.3370610" lon="-0.6927810">
        <ele>313.2</ele>
        <time>2018-10-04T09:16:11Z</time>
      </trkpt>
      <trkpt lat="38.3370480" lon="-0.6927750">
        <ele>313.3</ele>
        <time>2018-10-04T09:16:12Z</time>
      </trkpt>
      <trkpt lat="38.3370340" lon="-0.6927690">
        <ele>313.4</ele>
        <time>2018-10-04T09:16:13Z</time>
      </trkpt>
      <trkpt lat="38.3370220" lon="-0.6927610">
        <ele>313.5</ele>
        <time>2018-10-04T09:16:14Z</time>
      </trkpt>
      <trkpt lat="38.3370090" lon="-0.6927530">
        <ele>313.6</ele>
        <time>2018-10-04T09:16:15Z</time>
      </trkpt>
      <trkpt lat="38.3369960" lon="-0.6927460">
        <ele>313.7</ele>
        <time>2018-10-04T09:16:16Z</time>
      </trkpt>
      <trkpt lat="38.3369830" lon="-0.6927380">
        <ele>313.8</ele>
        <time>2018-10-04T09:16:17Z</time>
      </trkpt>
      <trkpt lat="38.3369700" lon="-0.6927300">
        <ele>313.9</ele>
        <time>2018-10-04T09:16:18Z</time>
      </trkpt>
      <trkpt lat="38.3369560" lon="-0.6927220">
        <ele>314.0</ele>
        <time>2018-10-04T09:16:19Z</time>
      </trkpt>
      <trkpt lat="38.3369410" lon="-0.6927160">
        <ele>314.1</ele>
        <time>2018-10-04T09:16:20Z</time>
      </trkpt>
      <trkpt lat="38.3369260" lon="-0.6927090">
        <ele>314.2</ele>
        <time>2018-10-04T09:16:21Z</time>
      </trkpt>
      <trkpt lat="38.3369100" lon="-0.6927020">
        <ele>314.2</ele>
        <time>2018-10-04T09:16:22Z</time>
      </trkpt>
      <trkpt lat="38.3368940" lon="-0.6926960">
        <ele>314.3</ele>
        <time>2018-10-04T09:16:23Z</time>
      </trkpt>
      <trkpt lat="38.3368790" lon="-0.6926880">
        <ele>314.4</ele>
        <time>2018-10-04T09:16:24Z</time>
      </trkpt>
      <trkpt lat="38.3368620" lon="-0.6926810">
        <ele>314.5</ele>
        <time>2018-10-04T09:16:25Z</time>
      </trkpt>
      <trkpt lat="38.3368450" lon="-0.6926740">
        <ele>314.6</ele>
        <time>2018-10-04T09:16:26Z</time>
      </trkpt>
      <trkpt lat="38.3368280" lon="-0.6926670">
        <ele>314.7</ele>
        <time>2018-10-04T09:16:27Z</time>
      </trkpt>
      <trkpt lat="38.3368100" lon="-0.6926600">
        <ele>314.8</ele>
        <time>2018-10-04T09:16:28Z</time>
      </trkpt>
      <trkpt lat="38.3367940" lon="-0.6926530">
        <ele>314.9</ele>
        <time>2018-10-04T09:16:29Z</time>
      </trkpt>
      <trkpt lat="38.3367770" lon="-0.6926460">
        <ele>315.0</ele>
        <time>2018-10-04T09:16:30Z</time>
      </trkpt>
      <trkpt lat="38.3367600" lon="-0.6926370">
        <ele>315.1</ele>
        <time>2018-10-04T09:16:31Z</time>
      </trkpt>
      <trkpt lat="38.3367410" lon="-0.6926280">
        <ele>315.3</ele>
        <time>2018-10-04T09:16:32Z</time>
      </trkpt>
      <trkpt lat="38.3367200" lon="-0.6926240">
        <ele>315.5</ele>
        <time>2018-10-04T09:16:33Z</time>
      </trkpt>
      <trkpt lat="38.3366980" lon="-0.6926200">
        <ele>315.7</ele>
        <time>2018-10-04T09:16:34Z</time>
      </trkpt>
      <trkpt lat="38.3366760" lon="-0.6926180">
        <ele>315.8</ele>
        <time>2018-10-04T09:16:35Z</time>
      </trkpt>
      <trkpt lat="38.3366550" lon="-0.6926140">
        <ele>315.9</ele>
        <time>2018-10-04T09:16:36Z</time>
      </trkpt>
      <trkpt lat="38.3366320" lon="-0.6926070">
        <ele>316.1</ele>
        <time>2018-10-04T09:16:37Z</time>
      </trkpt>
      <trkpt lat="38.3366070" lon="-0.6926020">
        <ele>316.2</ele>
        <time>2018-10-04T09:16:38Z</time>
      </trkpt>
      <trkpt lat="38.3365810" lon="-0.6926000">
        <ele>316.4</ele>
        <time>2018-10-04T09:16:39Z</time>
      </trkpt>
      <trkpt lat="38.3365570" lon="-0.6925990">
        <ele>316.5</ele>
        <time>2018-10-04T09:16:40Z</time>
      </trkpt>
      <trkpt lat="38.3365340" lon="-0.6926000">
        <ele>316.6</ele>
        <time>2018-10-04T09:16:41Z</time>
      </trkpt>
      <trkpt lat="38.3365110" lon="-0.6925990">
        <ele>316.8</ele>
        <time>2018-10-04T09:16:42Z</time>
      </trkpt>
      <trkpt lat="38.3364910" lon="-0.6925930">
        <ele>316.9</ele>
        <time>2018-10-04T09:16:43Z</time>
      </trkpt>
      <trkpt lat="38.3364700" lon="-0.6925880">
        <ele>317.0</ele>
        <time>2018-10-04T09:16:44Z</time>
      </trkpt>
      <trkpt lat="38.3364510" lon="-0.6925860">
        <ele>317.2</ele>
        <time>2018-10-04T09:16:45Z</time>
      </trkpt>
      <trkpt lat="38.3364290" lon="-0.6925840">
        <ele>317.3</ele>
        <time>2018-10-04T09:16:46Z</time>
      </trkpt>
      <trkpt lat="38.3364080" lon="-0.6925850">
        <ele>317.5</ele>
        <time>2018-10-04T09:16:47Z</time>
      </trkpt>
      <trkpt lat="38.3363860" lon="-0.6925840">
        <ele>317.6</ele>
        <time>2018-10-04T09:16:48Z</time>
      </trkpt>
      <trkpt lat="38.3363650" lon="-0.6925810">
        <ele>317.8</ele>
        <time>2018-10-04T09:16:49Z</time>
      </trkpt>
      <trkpt lat="38.3363450" lon="-0.6925790">
        <ele>317.9</ele>
        <time>2018-10-04T09:16:50Z</time>
      </trkpt>
      <trkpt lat="38.3363250" lon="-0.6925760">
        <ele>318.1</ele>
        <time>2018-10-04T09:16:51Z</time>
      </trkpt>
      <trkpt lat="38.3363060" lon="-0.6925710">
        <ele>318.4</ele>
        <time>2018-10-04T09:16:52Z</time>
      </trkpt>
      <trkpt lat="38.3362850" lon="-0.6925640">
        <ele>318.6</ele>
        <time>2018-10-04T09:16:53Z</time>
      </trkpt>
      <trkpt lat="38.3362650" lon="-0.6925570">
        <ele>318.8</ele>
        <time>2018-10-04T09:16:54Z</time>
      </trkpt>
      <trkpt lat="38.3362440" lon="-0.6925500">
        <ele>319.0</ele>
        <time>2018-10-04T09:16:55Z</time>
      </trkpt>
      <trkpt lat="38.3362230" lon="-0.6925430">
        <ele>319.1</ele>
        <time>2018-10-04T09:16:56Z</time>
      </trkpt>
      <trkpt lat="38.3362020" lon="-0.6925400">
        <ele>319.3</ele>
        <time>2018-10-04T09:16:57Z</time>
      </trkpt>
      <trkpt lat="38.3361810" lon="-0.6925370">
        <ele>319.5</ele>
        <time>2018-10-04T09:16:58Z</time>
      </trkpt>
      <trkpt lat="38.3361580" lon="-0.6925360">
        <ele>319.7</ele>
        <time>2018-10-04T09:16:59Z</time>
      </trkpt>
      <trkpt lat="38.3361390" lon="-0.6925330">
        <ele>319.8</ele>
        <time>2018-10-04T09:17:00Z</time>
      </trkpt>
      <trkpt lat="38.3361190" lon="-0.6925270">
        <ele>320.0</ele>
        <time>2018-10-04T09:17:01Z</time>
      </trkpt>
      <trkpt lat="38.3360990" lon="-0.6925220">
        <ele>320.2</ele>
        <time>2018-10-04T09:17:02Z</time>
      </trkpt>
      <trkpt lat="38.3360790" lon="-0.6925150">
        <ele>320.3</ele>
        <time>2018-10-04T09:17:03Z</time>
      </trkpt>
      <trkpt lat="38.3360610" lon="-0.6925090">
        <ele>320.5</ele>
        <time>2018-10-04T09:17:04Z</time>
      </trkpt>
      <trkpt lat="38.3360440" lon="-0.6925000">
        <ele>320.6</ele>
        <time>2018-10-04T09:17:05Z</time>
      </trkpt>
      <trkpt lat="38.3360250" lon="-0.6924920">
        <ele>320.8</ele>
        <time>2018-10-04T09:17:06Z</time>
      </trkpt>
      <trkpt lat="38.3360070" lon="-0.6924830">
        <ele>321.0</ele>
        <time>2018-10-04T09:17:07Z</time>
      </trkpt>
      <trkpt lat="38.3359880" lon="-0.6924770">
        <ele>321.2</ele>
        <time>2018-10-04T09:17:08Z</time>
      </trkpt>
      <trkpt lat="38.3359700" lon="-0.6924690">
        <ele>321.3</ele>
        <time>2018-10-04T09:17:09Z</time>
      </trkpt>
      <trkpt lat="38.3359520" lon="-0.6924630">
        <ele>321.6</ele>
        <time>2018-10-04T09:17:10Z</time>
      </trkpt>
      <trkpt lat="38.3359350" lon="-0.6924550">
        <ele>321.8</ele>
        <time>2018-10-04T09:17:11Z</time>
      </trkpt>
      <trkpt lat="38.3359180" lon="-0.6924480">
        <ele>321.9</ele>
        <time>2018-10-04T09:17:12Z</time>
      </trkpt>
      <trkpt lat="38.3358990" lon="-0.6924410">
        <ele>322.0</ele>
        <time>2018-10-04T09:17:13Z</time>
      </trkpt>
      <trkpt lat="38.3358810" lon="-0.6924300">
        <ele>322.1</ele>
        <time>2018-10-04T09:17:14Z</time>
      </trkpt>
      <trkpt lat="38.3358640" lon="-0.6924190">
        <ele>322.2</ele>
        <time>2018-10-04T09:17:15Z</time>
      </trkpt>
      <trkpt lat="38.3358470" lon="-0.6924080">
        <ele>322.3</ele>
        <time>2018-10-04T09:17:16Z</time>
      </trkpt>
      <trkpt lat="38.3358310" lon="-0.6923960">
        <ele>322.4</ele>
        <time>2018-10-04T09:17:17Z</time>
      </trkpt>
      <trkpt lat="38.3358160" lon="-0.6923810">
        <ele>322.5</ele>
        <time>2018-10-04T09:17:18Z</time>
      </trkpt>
      <trkpt lat="38.3358000" lon="-0.6923650">
        <ele>322.7</ele>
        <time>2018-10-04T09:17:19Z</time>
      </trkpt>
      <trkpt lat="38.3357860" lon="-0.6923460">
        <ele>322.8</ele>
        <time>2018-10-04T09:17:20Z</time>
      </trkpt>
      <trkpt lat="38.3357710" lon="-0.6923280">
        <ele>322.9</ele>
        <time>2018-10-04T09:17:21Z</time>
      </trkpt>
      <trkpt lat="38.3357530" lon="-0.6923130">
        <ele>323.1</ele>
        <time>2018-10-04T09:17:22Z</time>
      </trkpt>
      <trkpt lat="38.3357340" lon="-0.6922960">
        <ele>323.2</ele>
        <time>2018-10-04T09:17:23Z</time>
      </trkpt>
      <trkpt lat="38.3357160" lon="-0.6922780">
        <ele>323.4</ele>
        <time>2018-10-04T09:17:24Z</time>
      </trkpt>
      <trkpt lat="38.3356980" lon="-0.6922590">
        <ele>323.6</ele>
        <time>2018-10-04T09:17:25Z</time>
      </trkpt>
      <trkpt lat="38.3356800" lon="-0.6922420">
        <ele>323.7</ele>
        <time>2018-10-04T09:17:26Z</time>
      </trkpt>
      <trkpt lat="38.3356630" lon="-0.6922250">
        <ele>323.8</ele>
        <time>2018-10-04T09:17:27Z</time>
      </trkpt>
      <trkpt lat="38.3356460" lon="-0.6922070">
        <ele>324.0</ele>
        <time>2018-10-04T09:17:28Z</time>
      </trkpt>
      <trkpt lat="38.3356300" lon="-0.6921860">
        <ele>324.1</ele>
        <time>2018-10-04T09:17:29Z</time>
      </trkpt>
      <trkpt lat="38.3356150" lon="-0.6921660">
        <ele>324.2</ele>
        <time>2018-10-04T09:17:30Z</time>
      </trkpt>
      <trkpt lat="38.3356000" lon="-0.6921450">
        <ele>324.3</ele>
        <time>2018-10-04T09:17:31Z</time>
      </trkpt>
      <trkpt lat="38.3355850" lon="-0.6921220">
        <ele>324.5</ele>
        <time>2018-10-04T09:17:32Z</time>
      </trkpt>
      <trkpt lat="38.3355700" lon="-0.6920990">
        <ele>324.6</ele>
        <time>2018-10-04T09:17:33Z</time>
      </trkpt>
      <trkpt lat="38.3355550" lon="-0.6920740">
        <ele>324.8</ele>
        <time>2018-10-04T09:17:34Z</time>
      </trkpt>
      <trkpt lat="38.3355390" lon="-0.6920510">
        <ele>324.9</ele>
        <time>2018-10-04T09:17:35Z</time>
      </trkpt>
      <trkpt lat="38.3355220" lon="-0.6920290">
        <ele>325.0</ele>
        <time>2018-10-04T09:17:36Z</time>
      </trkpt>
      <trkpt lat="38.3355050" lon="-0.6920050">
        <ele>325.1</ele>
        <time>2018-10-04T09:17:37Z</time>
      </trkpt>
      <trkpt lat="38.3354900" lon="-0.6919790">
        <ele>325.2</ele>
        <time>2018-10-04T09:17:38Z</time>
      </trkpt>
      <trkpt lat="38.3354760" lon="-0.6919540">
        <ele>325.3</ele>
        <time>2018-10-04T09:17:39Z</time>
      </trkpt>
      <trkpt lat="38.3354620" lon="-0.6919290">
        <ele>325.5</ele>
        <time>2018-10-04T09:17:40Z</time>
      </trkpt>
      <trkpt lat="38.3354510" lon="-0.6919020">
        <ele>325.6</ele>
        <time>2018-10-04T09:17:41Z</time>
      </trkpt>
      <trkpt lat="38.3354370" lon="-0.6918760">
        <ele>325.7</ele>
        <time>2018-10-04T09:17:42Z</time>
      </trkpt>
      <trkpt lat="38.3354230" lon="-0.6918490">
        <ele>325.9</ele>
        <time>2018-10-04T09:17:43Z</time>
      </trkpt>
      <trkpt lat="38.3354100" lon="-0.6918210">
        <ele>326.0</ele>
        <time>2018-10-04T09:17:44Z</time>
      </trkpt>
      <trkpt lat="38.3353980" lon="-0.6917940">
        <ele>326.1</ele>
        <time>2018-10-04T09:17:45Z</time>
      </trkpt>
      <trkpt lat="38.3353870" lon="-0.6917650">
        <ele>326.2</ele>
        <time>2018-10-04T09:17:46Z</time>
      </trkpt>
      <trkpt lat="38.3353780" lon="-0.6917310">
        <ele>326.3</ele>
        <time>2018-10-04T09:17:47Z</time>
      </trkpt>
      <trkpt lat="38.3353680" lon="-0.6916950">
        <ele>326.4</ele>
        <time>2018-10-04T09:17:48Z</time>
      </trkpt>
      <trkpt lat="38.3353570" lon="-0.6916580">
        <ele>326.4</ele>
        <time>2018-10-04T09:17:49Z</time>
      </trkpt>
      <trkpt lat="38.3353470" lon="-0.6916180">
        <ele>326.4</ele>
        <time>2018-10-04T09:17:50Z</time>
      </trkpt>
      <trkpt lat="38.3353370" lon="-0.6915760">
        <ele>326.4</ele>
        <time>2018-10-04T09:17:51Z</time>
      </trkpt>
      <trkpt lat="38.3353250" lon="-0.6915320">
        <ele>326.4</ele>
        <time>2018-10-04T09:17:52Z</time>
      </trkpt>
      <trkpt lat="38.3353170" lon="-0.6914860">
        <ele>326.4</ele>
        <time>2018-10-04T09:17:53Z</time>
      </trkpt>
      <trkpt lat="38.3353150" lon="-0.6914350">
        <ele>326.4</ele>
        <time>2018-10-04T09:17:54Z</time>
      </trkpt>
      <trkpt lat="38.3353160" lon="-0.6913800">
        <ele>326.4</ele>
        <time>2018-10-04T09:17:55Z</time>
      </trkpt>
      <trkpt lat="38.3353210" lon="-0.6913240">
        <ele>326.4</ele>
        <time>2018-10-04T09:17:56Z</time>
      </trkpt>
      <trkpt lat="38.3353290" lon="-0.6912700">
        <ele>326.4</ele>
        <time>2018-10-04T09:17:57Z</time>
      </trkpt>
      <trkpt lat="38.3353410" lon="-0.6912190">
        <ele>326.3</ele>
        <time>2018-10-04T09:17:58Z</time>
      </trkpt>
      <trkpt lat="38.3353520" lon="-0.6911700">
        <ele>326.3</ele>
        <time>2018-10-04T09:17:59Z</time>
      </trkpt>
      <trkpt lat="38.3353670" lon="-0.6911240">
        <ele>326.3</ele>
        <time>2018-10-04T09:18:00Z</time>
      </trkpt>
      <trkpt lat="38.3353840" lon="-0.6910800">
        <ele>326.3</ele>
        <time>2018-10-04T09:18:01Z</time>
      </trkpt>
      <trkpt lat="38.3354010" lon="-0.6910340">
        <ele>326.2</ele>
        <time>2018-10-04T09:18:02Z</time>
      </trkpt>
      <trkpt lat="38.3354190" lon="-0.6909870">
        <ele>326.2</ele>
        <time>2018-10-04T09:18:03Z</time>
      </trkpt>
      <trkpt lat="38.3354360" lon="-0.6909350">
        <ele>326.1</ele>
        <time>2018-10-04T09:18:04Z</time>
      </trkpt>
      <trkpt lat="38.3354540" lon="-0.6908810">
        <ele>326.1</ele>
        <time>2018-10-04T09:18:05Z</time>
      </trkpt>
      <trkpt lat="38.3354690" lon="-0.6908230">
        <ele>326.0</ele>
        <time>2018-10-04T09:18:06Z</time>
      </trkpt>
      <trkpt lat="38.3354790" lon="-0.6907600">
        <ele>324.9</ele>
        <time>2018-10-04T09:18:07Z</time>
      </trkpt>
      <trkpt lat="38.3354910" lon="-0.6906910">
        <ele>324.3</ele>
        <time>2018-10-04T09:18:08Z</time>
      </trkpt>
      <trkpt lat="38.3354970" lon="-0.6906180">
        <ele>323.6</ele>
        <time>2018-10-04T09:18:09Z</time>
      </trkpt>
      <trkpt lat="38.3355040" lon="-0.6905440">
        <ele>322.9</ele>
        <time>2018-10-04T09:18:10Z</time>
      </trkpt>
      <trkpt lat="38.3355100" lon="-0.6904690">
        <ele>321.9</ele>
        <time>2018-10-04T09:18:11Z</time>
      </trkpt>
      <trkpt lat="38.3355150" lon="-0.6903960">
        <ele>320.9</ele>
        <time>2018-10-04T09:18:12Z</time>
      </trkpt>
      <trkpt lat="38.3355200" lon="-0.6903230">
        <ele>320.1</ele>
        <time>2018-10-04T09:18:13Z</time>
      </trkpt>
      <trkpt lat="38.3355240" lon="-0.6902510">
        <ele>319.4</ele>
        <time>2018-10-04T09:18:14Z</time>
      </trkpt>
      <trkpt lat="38.3355260" lon="-0.6901800">
        <ele>318.7</ele>
        <time>2018-10-04T09:18:15Z</time>
      </trkpt>
      <trkpt lat="38.3355300" lon="-0.6901110">
        <ele>318.2</ele>
        <time>2018-10-04T09:18:16Z</time>
      </trkpt>
      <trkpt lat="38.3355230" lon="-0.6900420">
        <ele>317.6</ele>
        <time>2018-10-04T09:18:17Z</time>
      </trkpt>
      <trkpt lat="38.3355040" lon="-0.6899850">
        <ele>317.2</ele>
        <time>2018-10-04T09:18:18Z</time>
      </trkpt>
      <trkpt lat="38.3354790" lon="-0.6899440">
        <ele>317.0</ele>
        <time>2018-10-04T09:18:19Z</time>
      </trkpt>
      <trkpt lat="38.3354450" lon="-0.6899090">
        <ele>317.0</ele>
        <time>2018-10-04T09:18:20Z</time>
      </trkpt>
      <trkpt lat="38.3354070" lon="-0.6898790">
        <ele>317.0</ele>
        <time>2018-10-04T09:18:21Z</time>
      </trkpt>
      <trkpt lat="38.3353730" lon="-0.6898580">
        <ele>317.0</ele>
        <time>2018-10-04T09:18:22Z</time>
      </trkpt>
      <trkpt lat="38.3353390" lon="-0.6898390">
        <ele>317.0</ele>
        <time>2018-10-04T09:18:23Z</time>
      </trkpt>
      <trkpt lat="38.3353020" lon="-0.6898150">
        <ele>317.0</ele>
        <time>2018-10-04T09:18:24Z</time>
      </trkpt>
      <trkpt lat="38.3352640" lon="-0.6897910">
        <ele>316.1</ele>
        <time>2018-10-04T09:18:25Z</time>
      </trkpt>
      <trkpt lat="38.3352330" lon="-0.6897520">
        <ele>315.6</ele>
        <time>2018-10-04T09:18:26Z</time>
      </trkpt>
      <trkpt lat="38.3352100" lon="-0.6897060">
        <ele>315.1</ele>
        <time>2018-10-04T09:18:27Z</time>
      </trkpt>
      <trkpt lat="38.3351890" lon="-0.6896580">
        <ele>314.6</ele>
        <time>2018-10-04T09:18:28Z</time>
      </trkpt>
      <trkpt lat="38.3351750" lon="-0.6896060">
        <ele>313.8</ele>
        <time>2018-10-04T09:18:29Z</time>
      </trkpt>
      <trkpt lat="38.3351670" lon="-0.6895550">
        <ele>313.1</ele>
        <time>2018-10-04T09:18:30Z</time>
      </trkpt>
      <trkpt lat="38.3351640" lon="-0.6895060">
        <ele>312.4</ele>
        <time>2018-10-04T09:18:31Z</time>
      </trkpt>
      <trkpt lat="38.3351710" lon="-0.6894540">
        <ele>311.7</ele>
        <time>2018-10-04T09:18:32Z</time>
      </trkpt>
      <trkpt lat="38.3351790" lon="-0.6893910">
        <ele>311.0</ele>
        <time>2018-10-04T09:18:33Z</time>
      </trkpt>
      <trkpt lat="38.3351860" lon="-0.6893100">
        <ele>310.2</ele>
        <time>2018-10-04T09:18:34Z</time>
      </trkpt>
      <trkpt lat="38.3351880" lon="-0.6892250">
        <ele>309.1</ele>
        <time>2018-10-04T09:18:35Z</time>
      </trkpt>
      <trkpt lat="38.3351810" lon="-0.6891280">
        <ele>307.9</ele>
        <time>2018-10-04T09:18:36Z</time>
      </trkpt>
      <trkpt lat="38.3351690" lon="-0.6890420">
        <ele>307.0</ele>
        <time>2018-10-04T09:18:37Z</time>
      </trkpt>
      <trkpt lat="38.3351600" lon="-0.6889740">
        <ele>306.3</ele>
        <time>2018-10-04T09:18:38Z</time>
      </trkpt>
      <trkpt lat="38.3351610" lon="-0.6889190">
        <ele>305.8</ele>
        <time>2018-10-04T09:18:39Z</time>
      </trkpt>
      <trkpt lat="38.3351630" lon="-0.6888900">
        <ele>305.6</ele>
        <time>2018-10-04T09:18:40Z</time>
      </trkpt>
      <trkpt lat="38.3351740" lon="-0.6888650">
        <ele>305.4</ele>
        <time>2018-10-04T09:18:41Z</time>
      </trkpt>
      <trkpt lat="38.3351880" lon="-0.6888270">
        <ele>305.1</ele>
        <time>2018-10-04T09:18:42Z</time>
      </trkpt>
      <trkpt lat="38.3352050" lon="-0.6887740">
        <ele>304.8</ele>
        <time>2018-10-04T09:18:43Z</time>
      </trkpt>
      <trkpt lat="38.3352180" lon="-0.6887100">
        <ele>304.4</ele>
        <time>2018-10-04T09:18:44Z</time>
      </trkpt>
      <trkpt lat="38.3352260" lon="-0.6886470">
        <ele>303.8</ele>
        <time>2018-10-04T09:18:45Z</time>
      </trkpt>
      <trkpt lat="38.3352190" lon="-0.6885870">
        <ele>303.1</ele>
        <time>2018-10-04T09:18:46Z</time>
      </trkpt>
      <trkpt lat="38.3352070" lon="-0.6885310">
        <ele>302.3</ele>
        <time>2018-10-04T09:18:47Z</time>
      </trkpt>
      <trkpt lat="38.3351800" lon="-0.6884800">
        <ele>301.6</ele>
        <time>2018-10-04T09:18:48Z</time>
      </trkpt>
      <trkpt lat="38.3351460" lon="-0.6884210">
        <ele>300.8</ele>
        <time>2018-10-04T09:18:49Z</time>
      </trkpt>
      <trkpt lat="38.3351040" lon="-0.6883580">
        <ele>299.7</ele>
        <time>2018-10-04T09:18:50Z</time>
      </trkpt>
      <trkpt lat="38.3350590" lon="-0.6882960">
        <ele>298.8</ele>
        <time>2018-10-04T09:18:51Z</time>
      </trkpt>
      <trkpt lat="38.3350130" lon="-0.6882400">
        <ele>297.8</ele>
        <time>2018-10-04T09:18:52Z</time>
      </trkpt>
      <trkpt lat="38.3349780" lon="-0.6881890">
        <ele>297.1</ele>
        <time>2018-10-04T09:18:53Z</time>
      </trkpt>
      <trkpt lat="38.3349400" lon="-0.6881450">
        <ele>296.4</ele>
        <time>2018-10-04T09:18:54Z</time>
      </trkpt>
      <trkpt lat="38.3349020" lon="-0.6881100">
        <ele>295.9</ele>
        <time>2018-10-04T09:18:55Z</time>
      </trkpt>
      <trkpt lat="38.3348740" lon="-0.6880660">
        <ele>295.4</ele>
        <time>2018-10-04T09:18:56Z</time>
      </trkpt>
      <trkpt lat="38.3348500" lon="-0.6880130">
        <ele>295.0</ele>
        <time>2018-10-04T09:18:57Z</time>
      </trkpt>
      <trkpt lat="38.3348160" lon="-0.6879430">
        <ele>294.5</ele>
        <time>2018-10-04T09:18:58Z</time>
      </trkpt>
      <trkpt lat="38.3347900" lon="-0.6878750">
        <ele>293.9</ele>
        <time>2018-10-04T09:18:59Z</time>
      </trkpt>
      <trkpt lat="38.3347850" lon="-0.6878150">
        <ele>293.6</ele>
        <time>2018-10-04T09:19:00Z</time>
      </trkpt>
      <trkpt lat="38.3347950" lon="-0.6877660">
        <ele>293.3</ele>
        <time>2018-10-04T09:19:01Z</time>
      </trkpt>
      <trkpt lat="38.3348060" lon="-0.6877290">
        <ele>293.1</ele>
        <time>2018-10-04T09:19:02Z</time>
      </trkpt>
      <trkpt lat="38.3348180" lon="-0.6876940">
        <ele>292.9</ele>
        <time>2018-10-04T09:19:03Z</time>
      </trkpt>
      <trkpt lat="38.3348310" lon="-0.6876590">
        <ele>292.7</ele>
        <time>2018-10-04T09:19:04Z</time>
      </trkpt>
      <trkpt lat="38.3348490" lon="-0.6876210">
        <ele>292.5</ele>
        <time>2018-10-04T09:19:05Z</time>
      </trkpt>
      <trkpt lat="38.3348710" lon="-0.6875710">
        <ele>292.0</ele>
        <time>2018-10-04T09:19:06Z</time>
      </trkpt>
      <trkpt lat="38.3348850" lon="-0.6875170">
        <ele>291.6</ele>
        <time>2018-10-04T09:19:07Z</time>
      </trkpt>
      <trkpt lat="38.3348890" lon="-0.6874610">
        <ele>291.2</ele>
        <time>2018-10-04T09:19:08Z</time>
      </trkpt>
      <trkpt lat="38.3348780" lon="-0.6874130">
        <ele>290.9</ele>
        <time>2018-10-04T09:19:09Z</time>
      </trkpt>
      <trkpt lat="38.3348660" lon="-0.6873640">
        <ele>290.5</ele>
        <time>2018-10-04T09:19:10Z</time>
      </trkpt>
      <trkpt lat="38.3348540" lon="-0.6873140">
        <ele>289.9</ele>
        <time>2018-10-04T09:19:11Z</time>
      </trkpt>
      <trkpt lat="38.3348390" lon="-0.6872610">
        <ele>289.3</ele>
        <time>2018-10-04T09:19:12Z</time>
      </trkpt>
      <trkpt lat="38.3348220" lon="-0.6871980">
        <ele>288.7</ele>
        <time>2018-10-04T09:19:13Z</time>
      </trkpt>
      <trkpt lat="38.3348060" lon="-0.6871420">
        <ele>288.1</ele>
        <time>2018-10-04T09:19:14Z</time>
      </trkpt>
      <trkpt lat="38.3347910" lon="-0.6870950">
        <ele>287.8</ele>
        <time>2018-10-04T09:19:15Z</time>
      </trkpt>
      <trkpt lat="38.3347790" lon="-0.6870520">
        <ele>287.6</ele>
        <time>2018-10-04T09:19:16Z</time>
      </trkpt>
      <trkpt lat="38.3347700" lon="-0.6870080">
        <ele>287.4</ele>
        <time>2018-10-04T09:19:17Z</time>
      </trkpt>
      <trkpt lat="38.3347570" lon="-0.6869550">
        <ele>287.2</ele>
        <time>2018-10-04T09:19:18Z</time>
      </trkpt>
      <trkpt lat="38.3347460" lon="-0.6869030">
        <ele>286.9</ele>
        <time>2018-10-04T09:19:19Z</time>
      </trkpt>
      <trkpt lat="38.3347400" lon="-0.6868570">
        <ele>286.6</ele>
        <time>2018-10-04T09:19:20Z</time>
      </trkpt>
      <trkpt lat="38.3347460" lon="-0.6868180">
        <ele>286.3</ele>
        <time>2018-10-04T09:19:21Z</time>
      </trkpt>
      <trkpt lat="38.3347530" lon="-0.6867870">
        <ele>286.1</ele>
        <time>2018-10-04T09:19:22Z</time>
      </trkpt>
      <trkpt lat="38.3347510" lon="-0.6867500">
        <ele>285.8</ele>
        <time>2018-10-04T09:19:23Z</time>
      </trkpt>
      <trkpt lat="38.3347430" lon="-0.6867080">
        <ele>285.4</ele>
        <time>2018-10-04T09:19:24Z</time>
      </trkpt>
      <trkpt lat="38.3347290" lon="-0.6866610">
        <ele>284.8</ele>
        <time>2018-10-04T09:19:25Z</time>
      </trkpt>
      <trkpt lat="38.3347170" lon="-0.6866020">
        <ele>284.2</ele>
        <time>2018-10-04T09:19:26Z</time>
      </trkpt>
      <trkpt lat="38.3347120" lon="-0.6865390">
        <ele>283.5</ele>
        <time>2018-10-04T09:19:27Z</time>
      </trkpt>
      <trkpt lat="38.3347040" lon="-0.6864690">
        <ele>282.5</ele>
        <time>2018-10-04T09:19:28Z</time>
      </trkpt>
      <trkpt lat="38.3346980" lon="-0.6864010">
        <ele>282.1</ele>
        <time>2018-10-04T09:19:29Z</time>
      </trkpt>
      <trkpt lat="38.3346830" lon="-0.6863310">
        <ele>281.5</ele>
        <time>2018-10-04T09:19:30Z</time>
      </trkpt>
      <trkpt lat="38.3346650" lon="-0.6862610">
        <ele>280.9</ele>
        <time>2018-10-04T09:19:31Z</time>
      </trkpt>
      <trkpt lat="38.3346450" lon="-0.6861930">
        <ele>280.4</ele>
        <time>2018-10-04T09:19:32Z</time>
      </trkpt>
      <trkpt lat="38.3346180" lon="-0.6861240">
        <ele>279.8</ele>
        <time>2018-10-04T09:19:33Z</time>
      </trkpt>
      <trkpt lat="38.3345900" lon="-0.6860590">
        <ele>279.4</ele>
        <time>2018-10-04T09:19:34Z</time>
      </trkpt>
      <trkpt lat="38.3345620" lon="-0.6859850">
        <ele>279.0</ele>
        <time>2018-10-04T09:19:35Z</time>
      </trkpt>
      <trkpt lat="38.3345340" lon="-0.6859130">
        <ele>278.8</ele>
        <time>2018-10-04T09:19:36Z</time>
      </trkpt>
      <trkpt lat="38.3345080" lon="-0.6858400">
        <ele>278.6</ele>
        <time>2018-10-04T09:19:37Z</time>
      </trkpt>
      <trkpt lat="38.3344940" lon="-0.6857810">
        <ele>278.5</ele>
        <time>2018-10-04T09:19:38Z</time>
      </trkpt>
      <trkpt lat="38.3344870" lon="-0.6857180">
        <ele>278.4</ele>
        <time>2018-10-04T09:19:39Z</time>
      </trkpt>
      <trkpt lat="38.3344980" lon="-0.6856460">
        <ele>278.2</ele>
        <time>2018-10-04T09:19:40Z</time>
      </trkpt>
      <trkpt lat="38.3344920" lon="-0.6855790">
        <ele>278.0</ele>
        <time>2018-10-04T09:19:41Z</time>
      </trkpt>
      <trkpt lat="38.3344770" lon="-0.6855150">
        <ele>277.8</ele>
        <time>2018-10-04T09:19:42Z</time>
      </trkpt>
      <trkpt lat="38.3344630" lon="-0.6854480">
        <ele>277.6</ele>
        <time>2018-10-04T09:19:43Z</time>
      </trkpt>
      <trkpt lat="38.3344530" lon="-0.6853780">
        <ele>277.2</ele>
        <time>2018-10-04T09:19:44Z</time>
      </trkpt>
      <trkpt lat="38.3344180" lon="-0.6852760">
        <ele>276.5</ele>
        <time>2018-10-04T09:19:45Z</time>
      </trkpt>
      <trkpt lat="38.3343890" lon="-0.6851940">
        <ele>276.1</ele>
        <time>2018-10-04T09:19:46Z</time>
      </trkpt>
      <trkpt lat="38.3343530" lon="-0.6851310">
        <ele>275.8</ele>
        <time>2018-10-04T09:19:47Z</time>
      </trkpt>
      <trkpt lat="38.3343200" lon="-0.6850820">
        <ele>275.5</ele>
        <time>2018-10-04T09:19:48Z</time>
      </trkpt>
      <trkpt lat="38.3342950" lon="-0.6850360">
        <ele>275.3</ele>
        <time>2018-10-04T09:19:49Z</time>
      </trkpt>
      <trkpt lat="38.3342720" lon="-0.6849950">
        <ele>275.1</ele>
        <time>2018-10-04T09:19:50Z</time>
      </trkpt>
      <trkpt lat="38.3342430" lon="-0.6849580">
        <ele>274.9</ele>
        <time>2018-10-04T09:19:51Z</time>
      </trkpt>
      <trkpt lat="38.3342180" lon="-0.6849170">
        <ele>274.7</ele>
        <time>2018-10-04T09:19:52Z</time>
      </trkpt>
      <trkpt lat="38.3341960" lon="-0.6848800">
        <ele>274.6</ele>
        <time>2018-10-04T09:19:53Z</time>
      </trkpt>
      <trkpt lat="38.3341830" lon="-0.6848350">
        <ele>274.4</ele>
        <time>2018-10-04T09:19:54Z</time>
      </trkpt>
      <trkpt lat="38.3341740" lon="-0.6847920">
        <ele>274.2</ele>
        <time>2018-10-04T09:19:55Z</time>
      </trkpt>
      <trkpt lat="38.3341610" lon="-0.6847490">
        <ele>274.0</ele>
        <time>2018-10-04T09:19:56Z</time>
      </trkpt>
      <trkpt lat="38.3341360" lon="-0.6847110">
        <ele>273.7</ele>
        <time>2018-10-04T09:19:57Z</time>
      </trkpt>
      <trkpt lat="38.3340970" lon="-0.6846800">
        <ele>273.4</ele>
        <time>2018-10-04T09:19:58Z</time>
      </trkpt>
      <trkpt lat="38.3340550" lon="-0.6846420">
        <ele>272.9</ele>
        <time>2018-10-04T09:19:59Z</time>
      </trkpt>
      <trkpt lat="38.3340220" lon="-0.6846190">
        <ele>272.0</ele>
        <time>2018-10-04T09:20:00Z</time>
      </trkpt>
      <trkpt lat="38.3339880" lon="-0.6845950">
        <ele>271.7</ele>
        <time>2018-10-04T09:20:01Z</time>
      </trkpt>
      <trkpt lat="38.3339470" lon="-0.6845790">
        <ele>271.3</ele>
        <time>2018-10-04T09:20:02Z</time>
      </trkpt>
      <trkpt lat="38.3338990" lon="-0.6845600">
        <ele>271.0</ele>
        <time>2018-10-04T09:20:03Z</time>
      </trkpt>
      <trkpt lat="38.3338440" lon="-0.6845390">
        <ele>270.7</ele>
        <time>2018-10-04T09:20:04Z</time>
      </trkpt>
      <trkpt lat="38.3337930" lon="-0.6845160">
        <ele>270.3</ele>
        <time>2018-10-04T09:20:05Z</time>
      </trkpt>
      <trkpt lat="38.3337430" lon="-0.6844950">
        <ele>269.9</ele>
        <time>2018-10-04T09:20:06Z</time>
      </trkpt>
      <trkpt lat="38.3336940" lon="-0.6844780">
        <ele>269.6</ele>
        <time>2018-10-04T09:20:07Z</time>
      </trkpt>
      <trkpt lat="38.3336410" lon="-0.6844700">
        <ele>269.3</ele>
        <time>2018-10-04T09:20:08Z</time>
      </trkpt>
      <trkpt lat="38.3335860" lon="-0.6844580">
        <ele>268.9</ele>
        <time>2018-10-04T09:20:09Z</time>
      </trkpt>
      <trkpt lat="38.3335290" lon="-0.6844430">
        <ele>268.7</ele>
        <time>2018-10-04T09:20:10Z</time>
      </trkpt>
      <trkpt lat="38.3334710" lon="-0.6844280">
        <ele>268.4</ele>
        <time>2018-10-04T09:20:11Z</time>
      </trkpt>
      <trkpt lat="38.3334110" lon="-0.6844110">
        <ele>268.1</ele>
        <time>2018-10-04T09:20:12Z</time>
      </trkpt>
      <trkpt lat="38.3333510" lon="-0.6843970">
        <ele>267.8</ele>
        <time>2018-10-04T09:20:13Z</time>
      </trkpt>
      <trkpt lat="38.3332880" lon="-0.6843860">
        <ele>267.6</ele>
        <time>2018-10-04T09:20:14Z</time>
      </trkpt>
      <trkpt lat="38.3332230" lon="-0.6843760">
        <ele>267.3</ele>
        <time>2018-10-04T09:20:15Z</time>
      </trkpt>
      <trkpt lat="38.3331550" lon="-0.6843720">
        <ele>267.0</ele>
        <time>2018-10-04T09:20:16Z</time>
      </trkpt>
      <trkpt lat="38.3330840" lon="-0.6843720">
        <ele>266.6</ele>
        <time>2018-10-04T09:20:17Z</time>
      </trkpt>
      <trkpt lat="38.3330110" lon="-0.6843760">
        <ele>266.3</ele>
        <time>2018-10-04T09:20:18Z</time>
      </trkpt>
      <trkpt lat="38.3329390" lon="-0.6843800">
        <ele>266.0</ele>
        <time>2018-10-04T09:20:19Z</time>
      </trkpt>
      <trkpt lat="38.3328690" lon="-0.6843800">
        <ele>265.8</ele>
        <time>2018-10-04T09:20:20Z</time>
      </trkpt>
      <trkpt lat="38.3327980" lon="-0.6843770">
        <ele>265.7</ele>
        <time>2018-10-04T09:20:21Z</time>
      </trkpt>
      <trkpt lat="38.3327280" lon="-0.6843720">
        <ele>265.5</ele>
        <time>2018-10-04T09:20:22Z</time>
      </trkpt>
      <trkpt lat="38.3326570" lon="-0.6843670">
        <ele>265.4</ele>
        <time>2018-10-04T09:20:23Z</time>
      </trkpt>
      <trkpt lat="38.3325880" lon="-0.6843630">
        <ele>265.4</ele>
        <time>2018-10-04T09:20:24Z</time>
      </trkpt>
      <trkpt lat="38.3325210" lon="-0.6843570">
        <ele>265.3</ele>
        <time>2018-10-04T09:20:25Z</time>
      </trkpt>
      <trkpt lat="38.3324570" lon="-0.6843500">
        <ele>265.2</ele>
        <time>2018-10-04T09:20:26Z</time>
      </trkpt>
      <trkpt lat="38.3323960" lon="-0.6843420">
        <ele>265.2</ele>
        <time>2018-10-04T09:20:27Z</time>
      </trkpt>
      <trkpt lat="38.3323370" lon="-0.6843310">
        <ele>265.1</ele>
        <time>2018-10-04T09:20:28Z</time>
      </trkpt>
      <trkpt lat="38.3322790" lon="-0.6843280">
        <ele>265.1</ele>
        <time>2018-10-04T09:20:29Z</time>
      </trkpt>
      <trkpt lat="38.3322190" lon="-0.6843200">
        <ele>265.0</ele>
        <time>2018-10-04T09:20:30Z</time>
      </trkpt>
      <trkpt lat="38.3321630" lon="-0.6843110">
        <ele>265.0</ele>
        <time>2018-10-04T09:20:31Z</time>
      </trkpt>
      <trkpt lat="38.3321080" lon="-0.6843050">
        <ele>264.7</ele>
        <time>2018-10-04T09:20:32Z</time>
      </trkpt>
      <trkpt lat="38.3320550" lon="-0.6843040">
        <ele>264.4</ele>
        <time>2018-10-04T09:20:33Z</time>
      </trkpt>
      <trkpt lat="38.3320070" lon="-0.6843070">
        <ele>264.2</ele>
        <time>2018-10-04T09:20:34Z</time>
      </trkpt>
      <trkpt lat="38.3319620" lon="-0.6843110">
        <ele>264.0</ele>
        <time>2018-10-04T09:20:35Z</time>
      </trkpt>
      <trkpt lat="38.3319170" lon="-0.6843120">
        <ele>263.8</ele>
        <time>2018-10-04T09:20:36Z</time>
      </trkpt>
      <trkpt lat="38.3318720" lon="-0.6843120">
        <ele>263.6</ele>
        <time>2018-10-04T09:20:37Z</time>
      </trkpt>
      <trkpt lat="38.3318270" lon="-0.6843150">
        <ele>263.3</ele>
        <time>2018-10-04T09:20:38Z</time>
      </trkpt>
      <trkpt lat="38.3317810" lon="-0.6843190">
        <ele>263.0</ele>
        <time>2018-10-04T09:20:39Z</time>
      </trkpt>
      <trkpt lat="38.3317360" lon="-0.6843250">
        <ele>262.8</ele>
        <time>2018-10-04T09:20:40Z</time>
      </trkpt>
      <trkpt lat="38.3316900" lon="-0.6843330">
        <ele>262.5</ele>
        <time>2018-10-04T09:20:41Z</time>
      </trkpt>
      <trkpt lat="38.3316440" lon="-0.6843390">
        <ele>262.1</ele>
        <time>2018-10-04T09:20:42Z</time>
      </trkpt>
      <trkpt lat="38.3315980" lon="-0.6843370">
        <ele>261.6</ele>
        <time>2018-10-04T09:20:43Z</time>
      </trkpt>
      <trkpt lat="38.3315520" lon="-0.6843350">
        <ele>261.3</ele>
        <time>2018-10-04T09:20:44Z</time>
      </trkpt>
      <trkpt lat="38.3315070" lon="-0.6843330">
        <ele>261.0</ele>
        <time>2018-10-04T09:20:45Z</time>
      </trkpt>
      <trkpt lat="38.3314630" lon="-0.6843250">
        <ele>260.7</ele>
        <time>2018-10-04T09:20:46Z</time>
      </trkpt>
      <trkpt lat="38.3314190" lon="-0.6843130">
        <ele>260.4</ele>
        <time>2018-10-04T09:20:47Z</time>
      </trkpt>
      <trkpt lat="38.3313730" lon="-0.6842960">
        <ele>260.1</ele>
        <time>2018-10-04T09:20:48Z</time>
      </trkpt>
      <trkpt lat="38.3313290" lon="-0.6842760">
        <ele>259.8</ele>
        <time>2018-10-04T09:20:49Z</time>
      </trkpt>
      <trkpt lat="38.3312880" lon="-0.6842490">
        <ele>259.3</ele>
        <time>2018-10-04T09:20:50Z</time>
      </trkpt>
      <trkpt lat="38.3312470" lon="-0.6842190">
        <ele>258.8</ele>
        <time>2018-10-04T09:20:51Z</time>
      </trkpt>
      <trkpt lat="38.3312090" lon="-0.6841860">
        <ele>258.2</ele>
        <time>2018-10-04T09:20:52Z</time>
      </trkpt>
      <trkpt lat="38.3311700" lon="-0.6841510">
        <ele>257.2</ele>
        <time>2018-10-04T09:20:53Z</time>
      </trkpt>
      <trkpt lat="38.3311330" lon="-0.6841160">
        <ele>256.4</ele>
        <time>2018-10-04T09:20:54Z</time>
      </trkpt>
      <trkpt lat="38.3310950" lon="-0.6840790">
        <ele>255.7</ele>
        <time>2018-10-04T09:20:55Z</time>
      </trkpt>
      <trkpt lat="38.3310530" lon="-0.6840360">
        <ele>255.0</ele>
        <time>2018-10-04T09:20:56Z</time>
      </trkpt>
      <trkpt lat="38.3310040" lon="-0.6839910">
        <ele>254.2</ele>
        <time>2018-10-04T09:20:57Z</time>
      </trkpt>
      <trkpt lat="38.3309470" lon="-0.6839510">
        <ele>253.2</ele>
        <time>2018-10-04T09:20:58Z</time>
      </trkpt>
      <trkpt lat="38.3308860" lon="-0.6839040">
        <ele>252.0</ele>
        <time>2018-10-04T09:20:59Z</time>
      </trkpt>
      <trkpt lat="38.3308120" lon="-0.6838640">
        <ele>250.5</ele>
        <time>2018-10-04T09:21:00Z</time>
      </trkpt>
      <trkpt lat="38.3307390" lon="-0.6838100">
        <ele>249.7</ele>
        <time>2018-10-04T09:21:01Z</time>
      </trkpt>
      <trkpt lat="38.3306760" lon="-0.6837370">
        <ele>248.9</ele>
        <time>2018-10-04T09:21:02Z</time>
      </trkpt>
      <trkpt lat="38.3306040" lon="-0.6836650">
        <ele>248.2</ele>
        <time>2018-10-04T09:21:03Z</time>
      </trkpt>
      <trkpt lat="38.3305340" lon="-0.6835890">
        <ele>247.6</ele>
        <time>2018-10-04T09:21:04Z</time>
      </trkpt>
      <trkpt lat="38.3304660" lon="-0.6835080">
        <ele>247.2</ele>
        <time>2018-10-04T09:21:05Z</time>
      </trkpt>
      <trkpt lat="38.3303950" lon="-0.6834290">
        <ele>247.1</ele>
        <time>2018-10-04T09:21:06Z</time>
      </trkpt>
      <trkpt lat="38.3303240" lon="-0.6833490">
        <ele>247.0</ele>
        <time>2018-10-04T09:21:07Z</time>
      </trkpt>
      <trkpt lat="38.3302470" lon="-0.6832720">
        <ele>246.9</ele>
        <time>2018-10-04T09:21:08Z</time>
      </trkpt>
      <trkpt lat="38.3301700" lon="-0.6831950">
        <ele>246.8</ele>
        <time>2018-10-04T09:21:09Z</time>
      </trkpt>
      <trkpt lat="38.3300960" lon="-0.6831110">
        <ele>246.8</ele>
        <time>2018-10-04T09:21:10Z</time>
      </trkpt>
      <trkpt lat="38.3300220" lon="-0.6830250">
        <ele>246.7</ele>
        <time>2018-10-04T09:21:11Z</time>
      </trkpt>
      <trkpt lat="38.3299490" lon="-0.6829360">
        <ele>246.6</ele>
        <time>2018-10-04T09:21:12Z</time>
      </trkpt>
      <trkpt lat="38.3298750" lon="-0.6828510">
        <ele>246.6</ele>
        <time>2018-10-04T09:21:13Z</time>
      </trkpt>
      <trkpt lat="38.3298010" lon="-0.6827680">
        <ele>246.6</ele>
        <time>2018-10-04T09:21:14Z</time>
      </trkpt>
      <trkpt lat="38.3297300" lon="-0.6826900">
        <ele>246.5</ele>
        <time>2018-10-04T09:21:15Z</time>
      </trkpt>
      <trkpt lat="38.3296610" lon="-0.6826180">
        <ele>246.5</ele>
        <time>2018-10-04T09:21:16Z</time>
      </trkpt>
      <trkpt lat="38.3295970" lon="-0.6825480">
        <ele>246.5</ele>
        <time>2018-10-04T09:21:17Z</time>
      </trkpt>
      <trkpt lat="38.3295380" lon="-0.6824820">
        <ele>246.4</ele>
        <time>2018-10-04T09:21:18Z</time>
      </trkpt>
      <trkpt lat="38.3294830" lon="-0.6824190">
        <ele>246.4</ele>
        <time>2018-10-04T09:21:19Z</time>
      </trkpt>
      <trkpt lat="38.3294310" lon="-0.6823600">
        <ele>246.3</ele>
        <time>2018-10-04T09:21:20Z</time>
      </trkpt>
      <trkpt lat="38.3293820" lon="-0.6823020">
        <ele>246.3</ele>
        <time>2018-10-04T09:21:21Z</time>
      </trkpt>
      <trkpt lat="38.3293370" lon="-0.6822470">
        <ele>246.1</ele>
        <time>2018-10-04T09:21:22Z</time>
      </trkpt>
      <trkpt lat="38.3292930" lon="-0.6821950">
        <ele>245.9</ele>
        <time>2018-10-04T09:21:23Z</time>
      </trkpt>
      <trkpt lat="38.3292520" lon="-0.6821460">
        <ele>245.6</ele>
        <time>2018-10-04T09:21:24Z</time>
      </trkpt>
      <trkpt lat="38.3292110" lon="-0.6820970">
        <ele>245.1</ele>
        <time>2018-10-04T09:21:25Z</time>
      </trkpt>
      <trkpt lat="38.3291710" lon="-0.6820520">
        <ele>244.5</ele>
        <time>2018-10-04T09:21:26Z</time>
      </trkpt>
      <trkpt lat="38.3291290" lon="-0.6820070">
        <ele>243.9</ele>
        <time>2018-10-04T09:21:27Z</time>
      </trkpt>
      <trkpt lat="38.3290880" lon="-0.6819600">
        <ele>243.4</ele>
        <time>2018-10-04T09:21:28Z</time>
      </trkpt>
      <trkpt lat="38.3290410" lon="-0.6819150">
        <ele>242.8</ele>
        <time>2018-10-04T09:21:29Z</time>
      </trkpt>
      <trkpt lat="38.3289870" lon="-0.6818730">
        <ele>242.1</ele>
        <time>2018-10-04T09:21:30Z</time>
      </trkpt>
      <trkpt lat="38.3289220" lon="-0.6818390">
        <ele>241.4</ele>
        <time>2018-10-04T09:21:31Z</time>
      </trkpt>
      <trkpt lat="38.3288510" lon="-0.6818070">
        <ele>240.9</ele>
        <time>2018-10-04T09:21:32Z</time>
      </trkpt>
      <trkpt lat="38.3287710" lon="-0.6817820">
        <ele>240.5</ele>
        <time>2018-10-04T09:21:33Z</time>
      </trkpt>
      <trkpt lat="38.3286880" lon="-0.6817600">
        <ele>239.8</ele>
        <time>2018-10-04T09:21:34Z</time>
      </trkpt>
      <trkpt lat="38.3286020" lon="-0.6817240">
        <ele>239.0</ele>
        <time>2018-10-04T09:21:35Z</time>
      </trkpt>
      <trkpt lat="38.3285150" lon="-0.6816830">
        <ele>238.3</ele>
        <time>2018-10-04T09:21:36Z</time>
      </trkpt>
      <trkpt lat="38.3284280" lon="-0.6816390">
        <ele>237.8</ele>
        <time>2018-10-04T09:21:37Z</time>
      </trkpt>
      <trkpt lat="38.3283400" lon="-0.6815960">
        <ele>237.3</ele>
        <time>2018-10-04T09:21:38Z</time>
      </trkpt>
      <trkpt lat="38.3282500" lon="-0.6815570">
        <ele>236.5</ele>
        <time>2018-10-04T09:21:39Z</time>
      </trkpt>
      <trkpt lat="38.3281620" lon="-0.6815120">
        <ele>235.6</ele>
        <time>2018-10-04T09:21:40Z</time>
      </trkpt>
      <trkpt lat="38.3280750" lon="-0.6814630">
        <ele>235.0</ele>
        <time>2018-10-04T09:21:41Z</time>
      </trkpt>
      <trkpt lat="38.3279860" lon="-0.6814170">
        <ele>234.3</ele>
        <time>2018-10-04T09:21:42Z</time>
      </trkpt>
      <trkpt lat="38.3278960" lon="-0.6813710">
        <ele>233.6</ele>
        <time>2018-10-04T09:21:43Z</time>
      </trkpt>
      <trkpt lat="38.3278060" lon="-0.6813260">
        <ele>233.2</ele>
        <time>2018-10-04T09:21:44Z</time>
      </trkpt>
      <trkpt lat="38.3277170" lon="-0.6812800">
        <ele>233.0</ele>
        <time>2018-10-04T09:21:45Z</time>
      </trkpt>
      <trkpt lat="38.3276270" lon="-0.6812360">
        <ele>232.8</ele>
        <time>2018-10-04T09:21:46Z</time>
      </trkpt>
      <trkpt lat="38.3275360" lon="-0.6811930">
        <ele>232.7</ele>
        <time>2018-10-04T09:21:47Z</time>
      </trkpt>
      <trkpt lat="38.3274450" lon="-0.6811570">
        <ele>232.6</ele>
        <time>2018-10-04T09:21:48Z</time>
      </trkpt>
      <trkpt lat="38.3273520" lon="-0.6811180">
        <ele>232.6</ele>
        <time>2018-10-04T09:21:49Z</time>
      </trkpt>
      <trkpt lat="38.3272580" lon="-0.6810790">
        <ele>232.5</ele>
        <time>2018-10-04T09:21:50Z</time>
      </trkpt>
      <trkpt lat="38.3271640" lon="-0.6810370">
        <ele>232.5</ele>
        <time>2018-10-04T09:21:51Z</time>
      </trkpt>
      <trkpt lat="38.3270740" lon="-0.6809900">
        <ele>232.4</ele>
        <time>2018-10-04T09:21:52Z</time>
      </trkpt>
      <trkpt lat="38.3269860" lon="-0.6809410">
        <ele>232.4</ele>
        <time>2018-10-04T09:21:53Z</time>
      </trkpt>
      <trkpt lat="38.3269040" lon="-0.6808930">
        <ele>232.3</ele>
        <time>2018-10-04T09:21:54Z</time>
      </trkpt>
      <trkpt lat="38.3268290" lon="-0.6808520">
        <ele>232.2</ele>
        <time>2018-10-04T09:21:55Z</time>
      </trkpt>
      <trkpt lat="38.3267600" lon="-0.6808110">
        <ele>232.2</ele>
        <time>2018-10-04T09:21:56Z</time>
      </trkpt>
      <trkpt lat="38.3266970" lon="-0.6807690">
        <ele>232.1</ele>
        <time>2018-10-04T09:21:57Z</time>
      </trkpt>
      <trkpt lat="38.3266390" lon="-0.6807220">
        <ele>232.1</ele>
        <time>2018-10-04T09:21:58Z</time>
      </trkpt>
      <trkpt lat="38.3265930" lon="-0.6806620">
        <ele>232.0</ele>
        <time>2018-10-04T09:21:59Z</time>
      </trkpt>
      <trkpt lat="38.3265620" lon="-0.6805900">
        <ele>231.9</ele>
        <time>2018-10-04T09:22:00Z</time>
      </trkpt>
      <trkpt lat="38.3265430" lon="-0.6805120">
        <ele>231.8</ele>
        <time>2018-10-04T09:22:01Z</time>
      </trkpt>
      <trkpt lat="38.3265270" lon="-0.6804280">
        <ele>231.7</ele>
        <time>2018-10-04T09:22:02Z</time>
      </trkpt>
      <trkpt lat="38.3265100" lon="-0.6803420">
        <ele>231.6</ele>
        <time>2018-10-04T09:22:03Z</time>
      </trkpt>
      <trkpt lat="38.3264920" lon="-0.6802550">
        <ele>231.4</ele>
        <time>2018-10-04T09:22:04Z</time>
      </trkpt>
      <trkpt lat="38.3264730" lon="-0.6801650">
        <ele>230.9</ele>
        <time>2018-10-04T09:22:05Z</time>
      </trkpt>
      <trkpt lat="38.3264540" lon="-0.6800720">
        <ele>230.5</ele>
        <time>2018-10-04T09:22:06Z</time>
      </trkpt>
      <trkpt lat="38.3264330" lon="-0.6799780">
        <ele>230.0</ele>
        <time>2018-10-04T09:22:07Z</time>
      </trkpt>
      <trkpt lat="38.3264110" lon="-0.6798810">
        <ele>229.8</ele>
        <time>2018-10-04T09:22:08Z</time>
      </trkpt>
      <trkpt lat="38.3263870" lon="-0.6797840">
        <ele>229.6</ele>
        <time>2018-10-04T09:22:09Z</time>
      </trkpt>
      <trkpt lat="38.3263620" lon="-0.6796860">
        <ele>229.4</ele>
        <time>2018-10-04T09:22:10Z</time>
      </trkpt>
      <trkpt lat="38.3263350" lon="-0.6795870">
        <ele>229.1</ele>
        <time>2018-10-04T09:22:11Z</time>
      </trkpt>
      <trkpt lat="38.3263060" lon="-0.6794910">
        <ele>228.7</ele>
        <time>2018-10-04T09:22:12Z</time>
      </trkpt>
      <trkpt lat="38.3262780" lon="-0.6793930">
        <ele>228.1</ele>
        <time>2018-10-04T09:22:13Z</time>
      </trkpt>
      <trkpt lat="38.3262510" lon="-0.6792960">
        <ele>227.7</ele>
        <time>2018-10-04T09:22:14Z</time>
      </trkpt>
      <trkpt lat="38.3262270" lon="-0.6791950">
        <ele>227.4</ele>
        <time>2018-10-04T09:22:15Z</time>
      </trkpt>
      <trkpt lat="38.3262080" lon="-0.6790910">
        <ele>227.1</ele>
        <time>2018-10-04T09:22:16Z</time>
      </trkpt>
      <trkpt lat="38.3261920" lon="-0.6789810">
        <ele>226.6</ele>
        <time>2018-10-04T09:22:17Z</time>
      </trkpt>
      <trkpt lat="38.3261810" lon="-0.6788660">
        <ele>226.0</ele>
        <time>2018-10-04T09:22:18Z</time>
      </trkpt>
      <trkpt lat="38.3261740" lon="-0.6787470">
        <ele>225.4</ele>
        <time>2018-10-04T09:22:19Z</time>
      </trkpt>
      <trkpt lat="38.3261650" lon="-0.6786260">
        <ele>224.6</ele>
        <time>2018-10-04T09:22:20Z</time>
      </trkpt>
      <trkpt lat="38.3261500" lon="-0.6785020">
        <ele>223.8</ele>
        <time>2018-10-04T09:22:21Z</time>
      </trkpt>
      <trkpt lat="38.3261300" lon="-0.6783750">
        <ele>223.2</ele>
        <time>2018-10-04T09:22:22Z</time>
      </trkpt>
      <trkpt lat="38.3261070" lon="-0.6782460">
        <ele>222.8</ele>
        <time>2018-10-04T09:22:23Z</time>
      </trkpt>
      <trkpt lat="38.3260820" lon="-0.6781160">
        <ele>222.3</ele>
        <time>2018-10-04T09:22:24Z</time>
      </trkpt>
      <trkpt lat="38.3260530" lon="-0.6779870">
        <ele>221.5</ele>
        <time>2018-10-04T09:22:25Z</time>
      </trkpt>
      <trkpt lat="38.3260240" lon="-0.6778590">
        <ele>221.1</ele>
        <time>2018-10-04T09:22:26Z</time>
      </trkpt>
      <trkpt lat="38.3259940" lon="-0.6777310">
        <ele>220.3</ele>
        <time>2018-10-04T09:22:27Z</time>
      </trkpt>
      <trkpt lat="38.3259610" lon="-0.6776050">
        <ele>219.5</ele>
        <time>2018-10-04T09:22:28Z</time>
      </trkpt>
      <trkpt lat="38.3259220" lon="-0.6774820">
        <ele>219.0</ele>
        <time>2018-10-04T09:22:29Z</time>
      </trkpt>
      <trkpt lat="38.3258790" lon="-0.6773610">
        <ele>218.3</ele>
        <time>2018-10-04T09:22:30Z</time>
      </trkpt>
      <trkpt lat="38.3258330" lon="-0.6772410">
        <ele>217.4</ele>
        <time>2018-10-04T09:22:31Z</time>
      </trkpt>
      <trkpt lat="38.3257870" lon="-0.6771210">
        <ele>216.6</ele>
        <time>2018-10-04T09:22:32Z</time>
      </trkpt>
      <trkpt lat="38.3257340" lon="-0.6770020">
        <ele>215.6</ele>
        <time>2018-10-04T09:22:33Z</time>
      </trkpt>
      <trkpt lat="38.3256760" lon="-0.6768850">
        <ele>214.9</ele>
        <time>2018-10-04T09:22:34Z</time>
      </trkpt>
      <trkpt lat="38.3256190" lon="-0.6767660">
        <ele>214.1</ele>
        <time>2018-10-04T09:22:35Z</time>
      </trkpt>
      <trkpt lat="38.3255660" lon="-0.6766410">
        <ele>213.5</ele>
        <time>2018-10-04T09:22:36Z</time>
      </trkpt>
      <trkpt lat="38.3255280" lon="-0.6765120">
        <ele>213.3</ele>
        <time>2018-10-04T09:22:37Z</time>
      </trkpt>
      <trkpt lat="38.3255100" lon="-0.6763750">
        <ele>213.1</ele>
        <time>2018-10-04T09:22:38Z</time>
      </trkpt>
      <trkpt lat="38.3255110" lon="-0.6762390">
        <ele>212.9</ele>
        <time>2018-10-04T09:22:39Z</time>
      </trkpt>
      <trkpt lat="38.3255190" lon="-0.6761040">
        <ele>212.8</ele>
        <time>2018-10-04T09:22:40Z</time>
      </trkpt>
      <trkpt lat="38.3255210" lon="-0.6759700">
        <ele>212.7</ele>
        <time>2018-10-04T09:22:41Z</time>
      </trkpt>
      <trkpt lat="38.3255100" lon="-0.6758390">
        <ele>212.6</ele>
        <time>2018-10-04T09:22:42Z</time>
      </trkpt>
      <trkpt lat="38.3254870" lon="-0.6757140">
        <ele>212.5</ele>
        <time>2018-10-04T09:22:43Z</time>
      </trkpt>
      <trkpt lat="38.3254560" lon="-0.6755970">
        <ele>212.3</ele>
        <time>2018-10-04T09:22:44Z</time>
      </trkpt>
      <trkpt lat="38.3254220" lon="-0.6754860">
        <ele>212.1</ele>
        <time>2018-10-04T09:22:45Z</time>
      </trkpt>
      <trkpt lat="38.3253900" lon="-0.6753790">
        <ele>211.6</ele>
        <time>2018-10-04T09:22:46Z</time>
      </trkpt>
      <trkpt lat="38.3253630" lon="-0.6752730">
        <ele>211.2</ele>
        <time>2018-10-04T09:22:47Z</time>
      </trkpt>
      <trkpt lat="38.3253410" lon="-0.6751660">
        <ele>211.1</ele>
        <time>2018-10-04T09:22:48Z</time>
      </trkpt>
      <trkpt lat="38.3253230" lon="-0.6750590">
        <ele>210.9</ele>
        <time>2018-10-04T09:22:49Z</time>
      </trkpt>
      <trkpt lat="38.3253060" lon="-0.6749520">
        <ele>210.7</ele>
        <time>2018-10-04T09:22:50Z</time>
      </trkpt>
      <trkpt lat="38.3252900" lon="-0.6748440">
        <ele>210.6</ele>
        <time>2018-10-04T09:22:51Z</time>
      </trkpt>
      <trkpt lat="38.3252710" lon="-0.6747370">
        <ele>210.3</ele>
        <time>2018-10-04T09:22:52Z</time>
      </trkpt>
      <trkpt lat="38.3252460" lon="-0.6746320">
        <ele>209.8</ele>
        <time>2018-10-04T09:22:53Z</time>
      </trkpt>
      <trkpt lat="38.3252150" lon="-0.6745300">
        <ele>209.3</ele>
        <time>2018-10-04T09:22:54Z</time>
      </trkpt>
      <trkpt lat="38.3251780" lon="-0.6744340">
        <ele>209.1</ele>
        <time>2018-10-04T09:22:55Z</time>
      </trkpt>
      <trkpt lat="38.3251340" lon="-0.6743430">
        <ele>208.9</ele>
        <time>2018-10-04T09:22:56Z</time>
      </trkpt>
      <trkpt lat="38.3250900" lon="-0.6742510">
        <ele>208.8</ele>
        <time>2018-10-04T09:22:57Z</time>
      </trkpt>
      <trkpt lat="38.3250460" lon="-0.6741600">
        <ele>208.7</ele>
        <time>2018-10-04T09:22:58Z</time>
      </trkpt>
      <trkpt lat="38.3250020" lon="-0.6740650">
        <ele>208.6</ele>
        <time>2018-10-04T09:22:59Z</time>
      </trkpt>
      <trkpt lat="38.3249650" lon="-0.6739630">
        <ele>208.4</ele>
        <time>2018-10-04T09:23:00Z</time>
      </trkpt>
      <trkpt lat="38.3249360" lon="-0.6738560">
        <ele>208.0</ele>
        <time>2018-10-04T09:23:01Z</time>
      </trkpt>
      <trkpt lat="38.3249150" lon="-0.6737440">
        <ele>207.5</ele>
        <time>2018-10-04T09:23:02Z</time>
      </trkpt>
      <trkpt lat="38.3249010" lon="-0.6736320">
        <ele>207.0</ele>
        <time>2018-10-04T09:23:03Z</time>
      </trkpt>
      <trkpt lat="38.3248930" lon="-0.6735200">
        <ele>206.7</ele>
        <time>2018-10-04T09:23:04Z</time>
      </trkpt>
      <trkpt lat="38.3248890" lon="-0.6734080">
        <ele>206.6</ele>
        <time>2018-10-04T09:23:05Z</time>
      </trkpt>
      <trkpt lat="38.3248890" lon="-0.6732950">
        <ele>206.4</ele>
        <time>2018-10-04T09:23:06Z</time>
      </trkpt>
      <trkpt lat="38.3248850" lon="-0.6731830">
        <ele>206.2</ele>
        <time>2018-10-04T09:23:07Z</time>
      </trkpt>
      <trkpt lat="38.3248760" lon="-0.6730720">
        <ele>205.9</ele>
        <time>2018-10-04T09:23:08Z</time>
      </trkpt>
      <trkpt lat="38.3248700" lon="-0.6729630">
        <ele>205.4</ele>
        <time>2018-10-04T09:23:09Z</time>
      </trkpt>
      <trkpt lat="38.3248650" lon="-0.6728550">
        <ele>204.8</ele>
        <time>2018-10-04T09:23:10Z</time>
      </trkpt>
      <trkpt lat="38.3248640" lon="-0.6727470">
        <ele>204.2</ele>
        <time>2018-10-04T09:23:11Z</time>
      </trkpt>
      <trkpt lat="38.3248660" lon="-0.6726380">
        <ele>203.4</ele>
        <time>2018-10-04T09:23:12Z</time>
      </trkpt>
      <trkpt lat="38.3248710" lon="-0.6725290">
        <ele>202.6</ele>
        <time>2018-10-04T09:23:13Z</time>
      </trkpt>
      <trkpt lat="38.3248820" lon="-0.6724190">
        <ele>201.8</ele>
        <time>2018-10-04T09:23:14Z</time>
      </trkpt>
      <trkpt lat="38.3248920" lon="-0.6723050">
        <ele>201.2</ele>
        <time>2018-10-04T09:23:15Z</time>
      </trkpt>
      <trkpt lat="38.3249000" lon="-0.6721840">
        <ele>201.0</ele>
        <time>2018-10-04T09:23:16Z</time>
      </trkpt>
      <trkpt lat="38.3248940" lon="-0.6720620">
        <ele>200.8</ele>
        <time>2018-10-04T09:23:17Z</time>
      </trkpt>
      <trkpt lat="38.3248740" lon="-0.6719390">
        <ele>200.7</ele>
        <time>2018-10-04T09:23:18Z</time>
      </trkpt>
      <trkpt lat="38.3248350" lon="-0.6718250">
        <ele>200.6</ele>
        <time>2018-10-04T09:23:19Z</time>
      </trkpt>
      <trkpt lat="38.3247790" lon="-0.6717280">
        <ele>200.6</ele>
        <time>2018-10-04T09:23:20Z</time>
      </trkpt>
      <trkpt lat="38.3247140" lon="-0.6716440">
        <ele>200.5</ele>
        <time>2018-10-04T09:23:21Z</time>
      </trkpt>
      <trkpt lat="38.3246390" lon="-0.6715780">
        <ele>200.5</ele>
        <time>2018-10-04T09:23:22Z</time>
      </trkpt>
      <trkpt lat="38.3245730" lon="-0.6715110">
        <ele>200.5</ele>
        <time>2018-10-04T09:23:23Z</time>
      </trkpt>
      <trkpt lat="38.3245180" lon="-0.6714350">
        <ele>200.5</ele>
        <time>2018-10-04T09:23:24Z</time>
      </trkpt>
      <trkpt lat="38.3244820" lon="-0.6713480">
        <ele>200.4</ele>
        <time>2018-10-04T09:23:25Z</time>
      </trkpt>
      <trkpt lat="38.3244740" lon="-0.6712530">
        <ele>200.4</ele>
        <time>2018-10-04T09:23:26Z</time>
      </trkpt>
      <trkpt lat="38.3244820" lon="-0.6711570">
        <ele>200.4</ele>
        <time>2018-10-04T09:23:27Z</time>
      </trkpt>
      <trkpt lat="38.3244990" lon="-0.6710660">
        <ele>200.3</ele>
        <time>2018-10-04T09:23:28Z</time>
      </trkpt>
      <trkpt lat="38.3245220" lon="-0.6709780">
        <ele>200.3</ele>
        <time>2018-10-04T09:23:29Z</time>
      </trkpt>
      <trkpt lat="38.3245490" lon="-0.6708900">
        <ele>200.3</ele>
        <time>2018-10-04T09:23:30Z</time>
      </trkpt>
      <trkpt lat="38.3245750" lon="-0.6708030">
        <ele>200.2</ele>
        <time>2018-10-04T09:23:31Z</time>
      </trkpt>
      <trkpt lat="38.3246010" lon="-0.6707140">
        <ele>200.1</ele>
        <time>2018-10-04T09:23:32Z</time>
      </trkpt>
      <trkpt lat="38.3246210" lon="-0.6706240">
        <ele>200.0</ele>
        <time>2018-10-04T09:23:33Z</time>
      </trkpt>
      <trkpt lat="38.3246410" lon="-0.6705330">
        <ele>199.8</ele>
        <time>2018-10-04T09:23:34Z</time>
      </trkpt>
      <trkpt lat="38.3246610" lon="-0.6704410">
        <ele>199.4</ele>
        <time>2018-10-04T09:23:35Z</time>
      </trkpt>
      <trkpt lat="38.3246800" lon="-0.6703490">
        <ele>199.0</ele>
        <time>2018-10-04T09:23:36Z</time>
      </trkpt>
      <trkpt lat="38.3246970" lon="-0.6702550">
        <ele>198.8</ele>
        <time>2018-10-04T09:23:37Z</time>
      </trkpt>
      <trkpt lat="38.3247120" lon="-0.6701590">
        <ele>198.7</ele>
        <time>2018-10-04T09:23:38Z</time>
      </trkpt>
      <trkpt lat="38.3247290" lon="-0.6700630">
        <ele>198.6</ele>
        <time>2018-10-04T09:23:39Z</time>
      </trkpt>
      <trkpt lat="38.3247440" lon="-0.6699650">
        <ele>198.4</ele>
        <time>2018-10-04T09:23:40Z</time>
      </trkpt>
      <trkpt lat="38.3247560" lon="-0.6698660">
        <ele>198.3</ele>
        <time>2018-10-04T09:23:41Z</time>
      </trkpt>
      <trkpt lat="38.3247620" lon="-0.6697680">
        <ele>198.2</ele>
        <time>2018-10-04T09:23:42Z</time>
      </trkpt>
      <trkpt lat="38.3247620" lon="-0.6696690">
        <ele>198.1</ele>
        <time>2018-10-04T09:23:43Z</time>
      </trkpt>
      <trkpt lat="38.3247570" lon="-0.6695710">
        <ele>198.1</ele>
        <time>2018-10-04T09:23:44Z</time>
      </trkpt>
      <trkpt lat="38.3247520" lon="-0.6694740">
        <ele>198.0</ele>
        <time>2018-10-04T09:23:45Z</time>
      </trkpt>
      <trkpt lat="38.3247460" lon="-0.6693780">
        <ele>197.9</ele>
        <time>2018-10-04T09:23:46Z</time>
      </trkpt>
      <trkpt lat="38.3247380" lon="-0.6692820">
        <ele>197.8</ele>
        <time>2018-10-04T09:23:47Z</time>
      </trkpt>
      <trkpt lat="38.3247310" lon="-0.6691880">
        <ele>197.7</ele>
        <time>2018-10-04T09:23:48Z</time>
      </trkpt>
      <trkpt lat="38.3247270" lon="-0.6690930">
        <ele>197.3</ele>
        <time>2018-10-04T09:23:49Z</time>
      </trkpt>
      <trkpt lat="38.3247220" lon="-0.6689990">
        <ele>196.9</ele>
        <time>2018-10-04T09:23:50Z</time>
      </trkpt>
      <trkpt lat="38.3247190" lon="-0.6689050">
        <ele>196.6</ele>
        <time>2018-10-04T09:23:51Z</time>
      </trkpt>
      <trkpt lat="38.3247150" lon="-0.6688110">
        <ele>196.4</ele>
        <time>2018-10-04T09:23:52Z</time>
      </trkpt>
      <trkpt lat="38.3247040" lon="-0.6687150">
        <ele>196.3</ele>
        <time>2018-10-04T09:23:53Z</time>
      </trkpt>
      <trkpt lat="38.3246900" lon="-0.6686220">
        <ele>196.2</ele>
        <time>2018-10-04T09:23:54Z</time>
      </trkpt>
      <trkpt lat="38.3246770" lon="-0.6685270">
        <ele>196.1</ele>
        <time>2018-10-04T09:23:55Z</time>
      </trkpt>
      <trkpt lat="38.3246640" lon="-0.6684320">
        <ele>196.0</ele>
        <time>2018-10-04T09:23:56Z</time>
      </trkpt>
      <trkpt lat="38.3246510" lon="-0.6683380">
        <ele>196.0</ele>
        <time>2018-10-04T09:23:57Z</time>
      </trkpt>
      <trkpt lat="38.3246380" lon="-0.6682450">
        <ele>195.9</ele>
        <time>2018-10-04T09:23:58Z</time>
      </trkpt>
      <trkpt lat="38.3246260" lon="-0.6681510">
        <ele>195.9</ele>
        <time>2018-10-04T09:23:59Z</time>
      </trkpt>
      <trkpt lat="38.3246180" lon="-0.6680590">
        <ele>195.8</ele>
        <time>2018-10-04T09:24:00Z</time>
      </trkpt>
      <trkpt lat="38.3246120" lon="-0.6679670">
        <ele>195.8</ele>
        <time>2018-10-04T09:24:01Z</time>
      </trkpt>
      <trkpt lat="38.3246040" lon="-0.6678750">
        <ele>195.7</ele>
        <time>2018-10-04T09:24:02Z</time>
      </trkpt>
      <trkpt lat="38.3245990" lon="-0.6677840">
        <ele>195.7</ele>
        <time>2018-10-04T09:24:03Z</time>
      </trkpt>
      <trkpt lat="38.3245940" lon="-0.6676930">
        <ele>195.7</ele>
        <time>2018-10-04T09:24:04Z</time>
      </trkpt>
      <trkpt lat="38.3245910" lon="-0.6676040">
        <ele>195.6</ele>
        <time>2018-10-04T09:24:05Z</time>
      </trkpt>
      <trkpt lat="38.3245880" lon="-0.6675140">
        <ele>195.6</ele>
        <time>2018-10-04T09:24:06Z</time>
      </trkpt>
      <trkpt lat="38.3245850" lon="-0.6674260">
        <ele>195.5</ele>
        <time>2018-10-04T09:24:07Z</time>
      </trkpt>
      <trkpt lat="38.3245810" lon="-0.6673370">
        <ele>195.4</ele>
        <time>2018-10-04T09:24:08Z</time>
      </trkpt>
      <trkpt lat="38.3245750" lon="-0.6672490">
        <ele>195.3</ele>
        <time>2018-10-04T09:24:09Z</time>
      </trkpt>
      <trkpt lat="38.3245690" lon="-0.6671620">
        <ele>195.1</ele>
        <time>2018-10-04T09:24:10Z</time>
      </trkpt>
      <trkpt lat="38.3245620" lon="-0.6670750">
        <ele>194.7</ele>
        <time>2018-10-04T09:24:11Z</time>
      </trkpt>
      <trkpt lat="38.3245550" lon="-0.6669900">
        <ele>194.4</ele>
        <time>2018-10-04T09:24:12Z</time>
      </trkpt>
      <trkpt lat="38.3245500" lon="-0.6669070">
        <ele>194.1</ele>
        <time>2018-10-04T09:24:13Z</time>
      </trkpt>
      <trkpt lat="38.3245460" lon="-0.6668230">
        <ele>194.0</ele>
        <time>2018-10-04T09:24:14Z</time>
      </trkpt>
      <trkpt lat="38.3245390" lon="-0.6667400">
        <ele>193.9</ele>
        <time>2018-10-04T09:24:15Z</time>
      </trkpt>
      <trkpt lat="38.3245310" lon="-0.6666590">
        <ele>193.8</ele>
        <time>2018-10-04T09:24:16Z</time>
      </trkpt>
      <trkpt lat="38.3245220" lon="-0.6665790">
        <ele>193.7</ele>
        <time>2018-10-04T09:24:17Z</time>
      </trkpt>
      <trkpt lat="38.3245150" lon="-0.6664990">
        <ele>193.6</ele>
        <time>2018-10-04T09:24:18Z</time>
      </trkpt>
      <trkpt lat="38.3245080" lon="-0.6664200">
        <ele>193.6</ele>
        <time>2018-10-04T09:24:19Z</time>
      </trkpt>
      <trkpt lat="38.3245000" lon="-0.6663410">
        <ele>193.5</ele>
        <time>2018-10-04T09:24:20Z</time>
      </trkpt>
      <trkpt lat="38.3244910" lon="-0.6662620">
        <ele>193.4</ele>
        <time>2018-10-04T09:24:21Z</time>
      </trkpt>
      <trkpt lat="38.3244820" lon="-0.6661840">
        <ele>193.3</ele>
        <time>2018-10-04T09:24:22Z</time>
      </trkpt>
      <trkpt lat="38.3244720" lon="-0.6661050">
        <ele>193.3</ele>
        <time>2018-10-04T09:24:23Z</time>
      </trkpt>
      <trkpt lat="38.3244640" lon="-0.6660230">
        <ele>193.2</ele>
        <time>2018-10-04T09:24:24Z</time>
      </trkpt>
      <trkpt lat="38.3244580" lon="-0.6659390">
        <ele>193.0</ele>
        <time>2018-10-04T09:24:25Z</time>
      </trkpt>
      <trkpt lat="38.3244500" lon="-0.6658520">
        <ele>192.7</ele>
        <time>2018-10-04T09:24:26Z</time>
      </trkpt>
      <trkpt lat="38.3244420" lon="-0.6657650">
        <ele>192.3</ele>
        <time>2018-10-04T09:24:27Z</time>
      </trkpt>
      <trkpt lat="38.3244330" lon="-0.6656770">
        <ele>191.9</ele>
        <time>2018-10-04T09:24:28Z</time>
      </trkpt>
      <trkpt lat="38.3244200" lon="-0.6655900">
        <ele>191.7</ele>
        <time>2018-10-04T09:24:29Z</time>
      </trkpt>
      <trkpt lat="38.3244080" lon="-0.6655010">
        <ele>191.5</ele>
        <time>2018-10-04T09:24:30Z</time>
      </trkpt>
      <trkpt lat="38.3243960" lon="-0.6654130">
        <ele>191.4</ele>
        <time>2018-10-04T09:24:31Z</time>
      </trkpt>
      <trkpt lat="38.3243820" lon="-0.6653280">
        <ele>191.3</ele>
        <time>2018-10-04T09:24:32Z</time>
      </trkpt>
      <trkpt lat="38.3243660" lon="-0.6652460">
        <ele>191.2</ele>
        <time>2018-10-04T09:24:33Z</time>
      </trkpt>
      <trkpt lat="38.3243520" lon="-0.6651670">
        <ele>191.2</ele>
        <time>2018-10-04T09:24:34Z</time>
      </trkpt>
      <trkpt lat="38.3243340" lon="-0.6650920">
        <ele>191.1</ele>
        <time>2018-10-04T09:24:35Z</time>
      </trkpt>
      <trkpt lat="38.3243120" lon="-0.6650180">
        <ele>191.0</ele>
        <time>2018-10-04T09:24:36Z</time>
      </trkpt>
      <trkpt lat="38.3242870" lon="-0.6649450">
        <ele>191.0</ele>
        <time>2018-10-04T09:24:37Z</time>
      </trkpt>
      <trkpt lat="38.3242620" lon="-0.6648720">
        <ele>191.0</ele>
        <time>2018-10-04T09:24:38Z</time>
      </trkpt>
      <trkpt lat="38.3242390" lon="-0.6647990">
        <ele>190.9</ele>
        <time>2018-10-04T09:24:39Z</time>
      </trkpt>
      <trkpt lat="38.3242160" lon="-0.6647250">
        <ele>190.6</ele>
        <time>2018-10-04T09:24:40Z</time>
      </trkpt>
      <trkpt lat="38.3241840" lon="-0.6646560">
        <ele>190.4</ele>
        <time>2018-10-04T09:24:41Z</time>
      </trkpt>
      <trkpt lat="38.3241440" lon="-0.6645860">
        <ele>190.2</ele>
        <time>2018-10-04T09:24:42Z</time>
      </trkpt>
      <trkpt lat="38.3241000" lon="-0.6645160">
        <ele>190.0</ele>
        <time>2018-10-04T09:24:43Z</time>
      </trkpt>
      <trkpt lat="38.3240550" lon="-0.6644440">
        <ele>189.9</ele>
        <time>2018-10-04T09:24:44Z</time>
      </trkpt>
      <trkpt lat="38.3240130" lon="-0.6643660">
        <ele>189.7</ele>
        <time>2018-10-04T09:24:45Z</time>
      </trkpt>
      <trkpt lat="38.3239690" lon="-0.6642900">
        <ele>189.5</ele>
        <time>2018-10-04T09:24:46Z</time>
      </trkpt>
      <trkpt lat="38.3239240" lon="-0.6642160">
        <ele>189.4</ele>
        <time>2018-10-04T09:24:47Z</time>
      </trkpt>
      <trkpt lat="38.3238790" lon="-0.6641630">
        <ele>189.3</ele>
        <time>2018-10-04T09:24:48Z</time>
      </trkpt>
      <trkpt lat="38.3238250" lon="-0.6641400">
        <ele>189.2</ele>
        <time>2018-10-04T09:24:49Z</time>
      </trkpt>
      <trkpt lat="38.3237740" lon="-0.6641580">
        <ele>189.1</ele>
        <time>2018-10-04T09:24:50Z</time>
      </trkpt>
      <trkpt lat="38.3237340" lon="-0.6641880">
        <ele>189.0</ele>
        <time>2018-10-04T09:24:51Z</time>
      </trkpt>
      <trkpt lat="38.3237000" lon="-0.6642180">
        <ele>189.0</ele>
        <time>2018-10-04T09:24:52Z</time>
      </trkpt>
      <trkpt lat="38.3236680" lon="-0.6642420">
        <ele>189.0</ele>
        <time>2018-10-04T09:24:53Z</time>
      </trkpt>
      <trkpt lat="38.3236400" lon="-0.6642600">
        <ele>189.0</ele>
        <time>2018-10-04T09:24:54Z</time>
      </trkpt>
      <trkpt lat="38.3236110" lon="-0.6642770">
        <ele>189.1</ele>
        <time>2018-10-04T09:24:55Z</time>
      </trkpt>
      <trkpt lat="38.3235830" lon="-0.6642930">
        <ele>189.1</ele>
        <time>2018-10-04T09:24:56Z</time>
      </trkpt>
      <trkpt lat="38.3235540" lon="-0.6643060">
        <ele>189.2</ele>
        <time>2018-10-04T09:24:57Z</time>
      </trkpt>
      <trkpt lat="38.3235230" lon="-0.6643180">
        <ele>189.2</ele>
        <time>2018-10-04T09:24:58Z</time>
      </trkpt>
      <trkpt lat="38.3234930" lon="-0.6643300">
        <ele>189.3</ele>
        <time>2018-10-04T09:24:59Z</time>
      </trkpt>
      <trkpt lat="38.3234620" lon="-0.6643430">
        <ele>189.4</ele>
        <time>2018-10-04T09:25:00Z</time>
      </trkpt>
      <trkpt lat="38.3234300" lon="-0.6643570">
        <ele>189.5</ele>
        <time>2018-10-04T09:25:01Z</time>
      </trkpt>
      <trkpt lat="38.3233990" lon="-0.6643670">
        <ele>189.5</ele>
        <time>2018-10-04T09:25:02Z</time>
      </trkpt>
      <trkpt lat="38.3233680" lon="-0.6643740">
        <ele>189.6</ele>
        <time>2018-10-04T09:25:03Z</time>
      </trkpt>
      <trkpt lat="38.3233360" lon="-0.6643770">
        <ele>189.7</ele>
        <time>2018-10-04T09:25:04Z</time>
      </trkpt>
      <trkpt lat="38.3233050" lon="-0.6643800">
        <ele>189.7</ele>
        <time>2018-10-04T09:25:05Z</time>
      </trkpt>
      <trkpt lat="38.3232720" lon="-0.6643790">
        <ele>189.8</ele>
        <time>2018-10-04T09:25:06Z</time>
      </trkpt>
      <trkpt lat="38.3232390" lon="-0.6643790">
        <ele>189.8</ele>
        <time>2018-10-04T09:25:07Z</time>
      </trkpt>
      <trkpt lat="38.3232070" lon="-0.6643800">
        <ele>189.9</ele>
        <time>2018-10-04T09:25:08Z</time>
      </trkpt>
      <trkpt lat="38.3231760" lon="-0.6643930">
        <ele>189.9</ele>
        <time>2018-10-04T09:25:09Z</time>
      </trkpt>
      <trkpt lat="38.3231510" lon="-0.6644170">
        <ele>190.1</ele>
        <time>2018-10-04T09:25:10Z</time>
      </trkpt>
      <trkpt lat="38.3231330" lon="-0.6644470">
        <ele>190.4</ele>
        <time>2018-10-04T09:25:11Z</time>
      </trkpt>
      <trkpt lat="38.3231230" lon="-0.6644740">
        <ele>190.6</ele>
        <time>2018-10-04T09:25:12Z</time>
      </trkpt>
      <trkpt lat="38.3231210" lon="-0.6644980">
        <ele>190.7</ele>
        <time>2018-10-04T09:25:13Z</time>
      </trkpt>
      <trkpt lat="38.3231200" lon="-0.6645210">
        <ele>190.9</ele>
        <time>2018-10-04T09:25:14Z</time>
      </trkpt>
      <trkpt lat="38.3231240" lon="-0.6645440">
        <ele>191.1</ele>
        <time>2018-10-04T09:25:15Z</time>
      </trkpt>
      <trkpt lat="38.3231280" lon="-0.6645690">
        <ele>191.2</ele>
        <time>2018-10-04T09:25:16Z</time>
      </trkpt>
      <trkpt lat="38.3231290" lon="-0.6645950">
        <ele>191.4</ele>
        <time>2018-10-04T09:25:17Z</time>
      </trkpt>
      <trkpt lat="38.3231280" lon="-0.6646190">
        <ele>191.6</ele>
        <time>2018-10-04T09:25:18Z</time>
      </trkpt>
      <trkpt lat="38.3231250" lon="-0.6646420">
        <ele>191.7</ele>
        <time>2018-10-04T09:25:19Z</time>
      </trkpt>
      <trkpt lat="38.3231210" lon="-0.6646670">
        <ele>191.9</ele>
        <time>2018-10-04T09:25:20Z</time>
      </trkpt>
      <trkpt lat="38.3231170" lon="-0.6646940">
        <ele>192.1</ele>
        <time>2018-10-04T09:25:21Z</time>
      </trkpt>
      <trkpt lat="38.3231120" lon="-0.6647200">
        <ele>192.4</ele>
        <time>2018-10-04T09:25:22Z</time>
      </trkpt>
      <trkpt lat="38.3231070" lon="-0.6647470">
        <ele>192.7</ele>
        <time>2018-10-04T09:25:23Z</time>
      </trkpt>
      <trkpt lat="38.3231070" lon="-0.6647710">
        <ele>193.0</ele>
        <time>2018-10-04T09:25:24Z</time>
      </trkpt>
      <trkpt lat="38.3231050" lon="-0.6647950">
        <ele>193.1</ele>
        <time>2018-10-04T09:25:25Z</time>
      </trkpt>
      <trkpt lat="38.3231020" lon="-0.6648240">
        <ele>193.2</ele>
        <time>2018-10-04T09:25:26Z</time>
      </trkpt>
      <trkpt lat="38.3230990" lon="-0.6648540">
        <ele>193.4</ele>
        <time>2018-10-04T09:25:27Z</time>
      </trkpt>
      <trkpt lat="38.3230990" lon="-0.6648830">
        <ele>193.6</ele>
        <time>2018-10-04T09:25:28Z</time>
      </trkpt>
      <trkpt lat="38.3230970" lon="-0.6649130">
        <ele>193.7</ele>
        <time>2018-10-04T09:25:29Z</time>
      </trkpt>
      <trkpt lat="38.3230950" lon="-0.6649460">
        <ele>193.9</ele>
        <time>2018-10-04T09:25:30Z</time>
      </trkpt>
      <trkpt lat="38.3230910" lon="-0.6649800">
        <ele>194.1</ele>
        <time>2018-10-04T09:25:31Z</time>
      </trkpt>
      <trkpt lat="38.3230860" lon="-0.6650160">
        <ele>194.2</ele>
        <time>2018-10-04T09:25:32Z</time>
      </trkpt>
      <trkpt lat="38.3230810" lon="-0.6650520">
        <ele>194.4</ele>
        <time>2018-10-04T09:25:33Z</time>
      </trkpt>
      <trkpt lat="38.3230750" lon="-0.6650890">
        <ele>194.6</ele>
        <time>2018-10-04T09:25:34Z</time>
      </trkpt>
      <trkpt lat="38.3230690" lon="-0.6651280">
        <ele>194.7</ele>
        <time>2018-10-04T09:25:35Z</time>
      </trkpt>
      <trkpt lat="38.3230640" lon="-0.6651660">
        <ele>194.9</ele>
        <time>2018-10-04T09:25:36Z</time>
      </trkpt>
      <trkpt lat="38.3230580" lon="-0.6652060">
        <ele>195.1</ele>
        <time>2018-10-04T09:25:37Z</time>
      </trkpt>
      <trkpt lat="38.3230520" lon="-0.6652470">
        <ele>195.2</ele>
        <time>2018-10-04T09:25:38Z</time>
      </trkpt>
      <trkpt lat="38.3230470" lon="-0.6652890">
        <ele>195.4</ele>
        <time>2018-10-04T09:25:39Z</time>
      </trkpt>
      <trkpt lat="38.3230410" lon="-0.6653320">
        <ele>195.5</ele>
        <time>2018-10-04T09:25:40Z</time>
      </trkpt>
      <trkpt lat="38.3230340" lon="-0.6653750">
        <ele>195.7</ele>
        <time>2018-10-04T09:25:41Z</time>
      </trkpt>
      <trkpt lat="38.3230280" lon="-0.6654200">
        <ele>195.8</ele>
        <time>2018-10-04T09:25:42Z</time>
      </trkpt>
      <trkpt lat="38.3230210" lon="-0.6654660">
        <ele>196.0</ele>
        <time>2018-10-04T09:25:43Z</time>
      </trkpt>
      <trkpt lat="38.3230110" lon="-0.6655120">
        <ele>196.2</ele>
        <time>2018-10-04T09:25:44Z</time>
      </trkpt>
      <trkpt lat="38.3230020" lon="-0.6655590">
        <ele>196.5</ele>
        <time>2018-10-04T09:25:45Z</time>
      </trkpt>
      <trkpt lat="38.3229930" lon="-0.6656060">
        <ele>196.7</ele>
        <time>2018-10-04T09:25:46Z</time>
      </trkpt>
      <trkpt lat="38.3229840" lon="-0.6656540">
        <ele>196.8</ele>
        <time>2018-10-04T09:25:47Z</time>
      </trkpt>
      <trkpt lat="38.3229760" lon="-0.6657020">
        <ele>197.0</ele>
        <time>2018-10-04T09:25:48Z</time>
      </trkpt>
      <trkpt lat="38.3229680" lon="-0.6657510">
        <ele>197.2</ele>
        <time>2018-10-04T09:25:49Z</time>
      </trkpt>
      <trkpt lat="38.3229610" lon="-0.6658000">
        <ele>197.4</ele>
        <time>2018-10-04T09:25:50Z</time>
      </trkpt>
      <trkpt lat="38.3229540" lon="-0.6658490">
        <ele>197.6</ele>
        <time>2018-10-04T09:25:51Z</time>
      </trkpt>
      <trkpt lat="38.3229460" lon="-0.6658980">
        <ele>198.0</ele>
        <time>2018-10-04T09:25:52Z</time>
      </trkpt>
      <trkpt lat="38.3229390" lon="-0.6659450">
        <ele>198.2</ele>
        <time>2018-10-04T09:25:53Z</time>
      </trkpt>
      <trkpt lat="38.3229320" lon="-0.6659930">
        <ele>198.5</ele>
        <time>2018-10-04T09:25:54Z</time>
      </trkpt>
      <trkpt lat="38.3229260" lon="-0.6660400">
        <ele>198.8</ele>
        <time>2018-10-04T09:25:55Z</time>
      </trkpt>
      <trkpt lat="38.3229200" lon="-0.6660880">
        <ele>199.0</ele>
        <time>2018-10-04T09:25:56Z</time>
      </trkpt>
      <trkpt lat="38.3229130" lon="-0.6661360">
        <ele>199.3</ele>
        <time>2018-10-04T09:25:57Z</time>
      </trkpt>
      <trkpt lat="38.3229040" lon="-0.6661850">
        <ele>199.6</ele>
        <time>2018-10-04T09:25:58Z</time>
      </trkpt>
      <trkpt lat="38.3228950" lon="-0.6662330">
        <ele>199.9</ele>
        <time>2018-10-04T09:25:59Z</time>
      </trkpt>
      <trkpt lat="38.3228860" lon="-0.6662830">
        <ele>200.2</ele>
        <time>2018-10-04T09:26:00Z</time>
      </trkpt>
      <trkpt lat="38.3228780" lon="-0.6663350">
        <ele>200.7</ele>
        <time>2018-10-04T09:26:01Z</time>
      </trkpt>
      <trkpt lat="38.3228700" lon="-0.6663840">
        <ele>201.1</ele>
        <time>2018-10-04T09:26:02Z</time>
      </trkpt>
      <trkpt lat="38.3228620" lon="-0.6664310">
        <ele>201.4</ele>
        <time>2018-10-04T09:26:03Z</time>
      </trkpt>
      <trkpt lat="38.3228570" lon="-0.6664780">
        <ele>201.7</ele>
        <time>2018-10-04T09:26:04Z</time>
      </trkpt>
      <trkpt lat="38.3228560" lon="-0.6665260">
        <ele>202.0</ele>
        <time>2018-10-04T09:26:05Z</time>
      </trkpt>
      <trkpt lat="38.3228600" lon="-0.6665700">
        <ele>202.3</ele>
        <time>2018-10-04T09:26:06Z</time>
      </trkpt>
      <trkpt lat="38.3228640" lon="-0.6666100">
        <ele>202.7</ele>
        <time>2018-10-04T09:26:07Z</time>
      </trkpt>
      <trkpt lat="38.3228680" lon="-0.6666500">
        <ele>203.1</ele>
        <time>2018-10-04T09:26:08Z</time>
      </trkpt>
      <trkpt lat="38.3228740" lon="-0.6666870">
        <ele>203.4</ele>
        <time>2018-10-04T09:26:09Z</time>
      </trkpt>
      <trkpt lat="38.3228810" lon="-0.6667270">
        <ele>203.6</ele>
        <time>2018-10-04T09:26:10Z</time>
      </trkpt>
      <trkpt lat="38.3228870" lon="-0.6667680">
        <ele>203.9</ele>
        <time>2018-10-04T09:26:11Z</time>
      </trkpt>
      <trkpt lat="38.3228910" lon="-0.6668120">
        <ele>204.2</ele>
        <time>2018-10-04T09:26:12Z</time>
      </trkpt>
      <trkpt lat="38.3228940" lon="-0.6668550">
        <ele>204.5</ele>
        <time>2018-10-04T09:26:13Z</time>
      </trkpt>
      <trkpt lat="38.3228990" lon="-0.6668990">
        <ele>204.8</ele>
        <time>2018-10-04T09:26:14Z</time>
      </trkpt>
      <trkpt lat="38.3229040" lon="-0.6669440">
        <ele>205.1</ele>
        <time>2018-10-04T09:26:15Z</time>
      </trkpt>
      <trkpt lat="38.3229090" lon="-0.6669910">
        <ele>205.5</ele>
        <time>2018-10-04T09:26:16Z</time>
      </trkpt>
      <trkpt lat="38.3229140" lon="-0.6670380">
        <ele>205.8</ele>
        <time>2018-10-04T09:26:17Z</time>
      </trkpt>
      <trkpt lat="38.3229180" lon="-0.6670850">
        <ele>206.2</ele>
        <time>2018-10-04T09:26:18Z</time>
      </trkpt>
      <trkpt lat="38.3229240" lon="-0.6671330">
        <ele>206.8</ele>
        <time>2018-10-04T09:26:19Z</time>
      </trkpt>
      <trkpt lat="38.3229300" lon="-0.6671820">
        <ele>207.2</ele>
        <time>2018-10-04T09:26:20Z</time>
      </trkpt>
      <trkpt lat="38.3229350" lon="-0.6672310">
        <ele>207.7</ele>
        <time>2018-10-04T09:26:21Z</time>
      </trkpt>
      <trkpt lat="38.3229390" lon="-0.6672810">
        <ele>208.1</ele>
        <time>2018-10-04T09:26:22Z</time>
      </trkpt>
      <trkpt lat="38.3229450" lon="-0.6673290">
        <ele>208.5</ele>
        <time>2018-10-04T09:26:23Z</time>
      </trkpt>
      <trkpt lat="38.3229510" lon="-0.6673790">
        <ele>208.9</ele>
        <time>2018-10-04T09:26:24Z</time>
      </trkpt>
      <trkpt lat="38.3229580" lon="-0.6674300">
        <ele>209.4</ele>
        <time>2018-10-04T09:26:25Z</time>
      </trkpt>
      <trkpt lat="38.3229630" lon="-0.6674810">
        <ele>209.8</ele>
        <time>2018-10-04T09:26:26Z</time>
      </trkpt>
      <trkpt lat="38.3229680" lon="-0.6675290">
        <ele>210.2</ele>
        <time>2018-10-04T09:26:27Z</time>
      </trkpt>
      <trkpt lat="38.3229730" lon="-0.6675750">
        <ele>210.6</ele>
        <time>2018-10-04T09:26:28Z</time>
      </trkpt>
      <trkpt lat="38.3229780" lon="-0.6676200">
        <ele>211.1</ele>
        <time>2018-10-04T09:26:29Z</time>
      </trkpt>
      <trkpt lat="38.3229830" lon="-0.6676640">
        <ele>211.5</ele>
        <time>2018-10-04T09:26:30Z</time>
      </trkpt>
      <trkpt lat="38.3229880" lon="-0.6677040">
        <ele>211.8</ele>
        <time>2018-10-04T09:26:31Z</time>
      </trkpt>
      <trkpt lat="38.3229930" lon="-0.6677410">
        <ele>212.2</ele>
        <time>2018-10-04T09:26:32Z</time>
      </trkpt>
      <trkpt lat="38.3229990" lon="-0.6677770">
        <ele>212.5</ele>
        <time>2018-10-04T09:26:33Z</time>
      </trkpt>
      <trkpt lat="38.3230070" lon="-0.6678110">
        <ele>212.9</ele>
        <time>2018-10-04T09:26:34Z</time>
      </trkpt>
      <trkpt lat="38.3230150" lon="-0.6678430">
        <ele>213.2</ele>
        <time>2018-10-04T09:26:35Z</time>
      </trkpt>
      <trkpt lat="38.3230220" lon="-0.6678760">
        <ele>213.5</ele>
        <time>2018-10-04T09:26:36Z</time>
      </trkpt>
      <trkpt lat="38.3230290" lon="-0.6679100">
        <ele>213.8</ele>
        <time>2018-10-04T09:26:37Z</time>
      </trkpt>
      <trkpt lat="38.3230340" lon="-0.6679480">
        <ele>214.2</ele>
        <time>2018-10-04T09:26:38Z</time>
      </trkpt>
      <trkpt lat="38.3230390" lon="-0.6679890">
        <ele>214.8</ele>
        <time>2018-10-04T09:26:39Z</time>
      </trkpt>
      <trkpt lat="38.3230470" lon="-0.6680230">
        <ele>215.2</ele>
        <time>2018-10-04T09:26:40Z</time>
      </trkpt>
      <trkpt lat="38.3230530" lon="-0.6680530">
        <ele>215.6</ele>
        <time>2018-10-04T09:26:41Z</time>
      </trkpt>
      <trkpt lat="38.3230590" lon="-0.6680840">
        <ele>216.1</ele>
        <time>2018-10-04T09:26:42Z</time>
      </trkpt>
      <trkpt lat="38.3230680" lon="-0.6681140">
        <ele>216.4</ele>
        <time>2018-10-04T09:26:43Z</time>
      </trkpt>
      <trkpt lat="38.3230760" lon="-0.6681410">
        <ele>216.7</ele>
        <time>2018-10-04T09:26:44Z</time>
      </trkpt>
      <trkpt lat="38.3230820" lon="-0.6681680">
        <ele>216.9</ele>
        <time>2018-10-04T09:26:45Z</time>
      </trkpt>
      <trkpt lat="38.3230830" lon="-0.6681990">
        <ele>217.2</ele>
        <time>2018-10-04T09:26:46Z</time>
      </trkpt>
      <trkpt lat="38.3230830" lon="-0.6682280">
        <ele>217.5</ele>
        <time>2018-10-04T09:26:47Z</time>
      </trkpt>
      <trkpt lat="38.3230850" lon="-0.6682590">
        <ele>217.9</ele>
        <time>2018-10-04T09:26:48Z</time>
      </trkpt>
      <trkpt lat="38.3230850" lon="-0.6682910">
        <ele>218.3</ele>
        <time>2018-10-04T09:26:49Z</time>
      </trkpt>
      <trkpt lat="38.3230820" lon="-0.6683220">
        <ele>218.4</ele>
        <time>2018-10-04T09:26:50Z</time>
      </trkpt>
      <trkpt lat="38.3230760" lon="-0.6683490">
        <ele>218.6</ele>
        <time>2018-10-04T09:26:51Z</time>
      </trkpt>
      <trkpt lat="38.3230700" lon="-0.6683830">
        <ele>218.7</ele>
        <time>2018-10-04T09:26:52Z</time>
      </trkpt>
      <trkpt lat="38.3230640" lon="-0.6684270">
        <ele>219.0</ele>
        <time>2018-10-04T09:26:53Z</time>
      </trkpt>
      <trkpt lat="38.3230590" lon="-0.6684780">
        <ele>219.2</ele>
        <time>2018-10-04T09:26:54Z</time>
      </trkpt>
      <trkpt lat="38.3230520" lon="-0.6685280">
        <ele>219.5</ele>
        <time>2018-10-04T09:26:55Z</time>
      </trkpt>
      <trkpt lat="38.3230410" lon="-0.6685750">
        <ele>219.8</ele>
        <time>2018-10-04T09:26:56Z</time>
      </trkpt>
      <trkpt lat="38.3230340" lon="-0.6686220">
        <ele>220.1</ele>
        <time>2018-10-04T09:26:57Z</time>
      </trkpt>
      <trkpt lat="38.3230290" lon="-0.6686640">
        <ele>220.3</ele>
        <time>2018-10-04T09:26:58Z</time>
      </trkpt>
      <trkpt lat="38.3230240" lon="-0.6686990">
        <ele>220.6</ele>
        <time>2018-10-04T09:26:59Z</time>
      </trkpt>
      <trkpt lat="38.3230210" lon="-0.6687320">
        <ele>220.8</ele>
        <time>2018-10-04T09:27:00Z</time>
      </trkpt>
      <trkpt lat="38.3230170" lon="-0.6687630">
        <ele>220.9</ele>
        <time>2018-10-04T09:27:01Z</time>
      </trkpt>
      <trkpt lat="38.3230130" lon="-0.6687920">
        <ele>221.1</ele>
        <time>2018-10-04T09:27:02Z</time>
      </trkpt>
      <trkpt lat="38.3230100" lon="-0.6688230">
        <ele>221.2</ele>
        <time>2018-10-04T09:27:03Z</time>
      </trkpt>
      <trkpt lat="38.3230080" lon="-0.6688530">
        <ele>221.4</ele>
        <time>2018-10-04T09:27:04Z</time>
      </trkpt>
      <trkpt lat="38.3230050" lon="-0.6688850">
        <ele>221.5</ele>
        <time>2018-10-04T09:27:05Z</time>
      </trkpt>
      <trkpt lat="38.3230020" lon="-0.6689180">
        <ele>221.7</ele>
        <time>2018-10-04T09:27:06Z</time>
      </trkpt>
      <trkpt lat="38.3229990" lon="-0.6689540">
        <ele>221.9</ele>
        <time>2018-10-04T09:27:07Z</time>
      </trkpt>
      <trkpt lat="38.3229950" lon="-0.6689910">
        <ele>222.0</ele>
        <time>2018-10-04T09:27:08Z</time>
      </trkpt>
      <trkpt lat="38.3229950" lon="-0.6690290">
        <ele>222.2</ele>
        <time>2018-10-04T09:27:09Z</time>
      </trkpt>
      <trkpt lat="38.3229940" lon="-0.6690690">
        <ele>222.4</ele>
        <time>2018-10-04T09:27:10Z</time>
      </trkpt>
      <trkpt lat="38.3229930" lon="-0.6691120">
        <ele>222.6</ele>
        <time>2018-10-04T09:27:11Z</time>
      </trkpt>
      <trkpt lat="38.3229930" lon="-0.6691560">
        <ele>222.8</ele>
        <time>2018-10-04T09:27:12Z</time>
      </trkpt>
      <trkpt lat="38.3229960" lon="-0.6692000">
        <ele>223.0</ele>
        <time>2018-10-04T09:27:13Z</time>
      </trkpt>
      <trkpt lat="38.3230010" lon="-0.6692430">
        <ele>223.2</ele>
        <time>2018-10-04T09:27:14Z</time>
      </trkpt>
      <trkpt lat="38.3230070" lon="-0.6692840">
        <ele>223.7</ele>
        <time>2018-10-04T09:27:15Z</time>
      </trkpt>
      <trkpt lat="38.3230110" lon="-0.6693230">
        <ele>223.8</ele>
        <time>2018-10-04T09:27:16Z</time>
      </trkpt>
      <trkpt lat="38.3230140" lon="-0.6693560">
        <ele>223.9</ele>
        <time>2018-10-04T09:27:17Z</time>
      </trkpt>
      <trkpt lat="38.3230130" lon="-0.6693880">
        <ele>223.7</ele>
        <time>2018-10-04T09:27:18Z</time>
      </trkpt>
      <trkpt lat="38.3230070" lon="-0.6694180">
        <ele>223.8</ele>
        <time>2018-10-04T09:27:19Z</time>
      </trkpt>
      <trkpt lat="38.3229960" lon="-0.6694430">
        <ele>223.6</ele>
        <time>2018-10-04T09:27:20Z</time>
      </trkpt>
      <trkpt lat="38.3229790" lon="-0.6694700">
        <ele>223.4</ele>
        <time>2018-10-04T09:27:21Z</time>
      </trkpt>
      <trkpt lat="38.3229590" lon="-0.6694910">
        <ele>223.2</ele>
        <time>2018-10-04T09:27:22Z</time>
      </trkpt>
      <trkpt lat="38.3229390" lon="-0.6695090">
        <ele>222.7</ele>
        <time>2018-10-04T09:27:23Z</time>
      </trkpt>
      <trkpt lat="38.3229180" lon="-0.6695380">
        <ele>222.9</ele>
        <time>2018-10-04T09:27:24Z</time>
      </trkpt>
      <trkpt lat="38.3228860" lon="-0.6695450">
        <ele>222.4</ele>
        <time>2018-10-04T09:27:25Z</time>
      </trkpt>
      <trkpt lat="38.3228460" lon="-0.6695550">
        <ele>222.0</ele>
        <time>2018-10-04T09:27:26Z</time>
      </trkpt>
      <trkpt lat="38.3228030" lon="-0.6695640">
        <ele>221.1</ele>
        <time>2018-10-04T09:27:27Z</time>
      </trkpt>
      <trkpt lat="38.3227630" lon="-0.6695680">
        <ele>220.9</ele>
        <time>2018-10-04T09:27:28Z</time>
      </trkpt>
      <trkpt lat="38.3227240" lon="-0.6695750">
        <ele>220.4</ele>
        <time>2018-10-04T09:27:29Z</time>
      </trkpt>
      <trkpt lat="38.3226810" lon="-0.6695810">
        <ele>220.0</ele>
        <time>2018-10-04T09:27:30Z</time>
      </trkpt>
      <trkpt lat="38.3226360" lon="-0.6695870">
        <ele>219.2</ele>
        <time>2018-10-04T09:27:31Z</time>
      </trkpt>
      <trkpt lat="38.3225910" lon="-0.6695920">
        <ele>218.8</ele>
        <time>2018-10-04T09:27:32Z</time>
      </trkpt>
      <trkpt lat="38.3225520" lon="-0.6696160">
        <ele>218.7</ele>
        <time>2018-10-04T09:27:33Z</time>
      </trkpt>
      <trkpt lat="38.3225120" lon="-0.6696450">
        <ele>218.4</ele>
        <time>2018-10-04T09:27:34Z</time>
      </trkpt>
      <trkpt lat="38.3224690" lon="-0.6696690">
        <ele>218.4</ele>
        <time>2018-10-04T09:27:35Z</time>
      </trkpt>
      <trkpt lat="38.3224250" lon="-0.6696880">
        <ele>218.1</ele>
        <time>2018-10-04T09:27:36Z</time>
      </trkpt>
      <trkpt lat="38.3223860" lon="-0.6696990">
        <ele>218.3</ele>
        <time>2018-10-04T09:27:37Z</time>
      </trkpt>
      <trkpt lat="38.3223500" lon="-0.6697070">
        <ele>218.1</ele>
        <time>2018-10-04T09:27:38Z</time>
      </trkpt>
      <trkpt lat="38.3223070" lon="-0.6697140">
        <ele>218.0</ele>
        <time>2018-10-04T09:27:39Z</time>
      </trkpt>
      <trkpt lat="38.3222600" lon="-0.6697250">
        <ele>218.1</ele>
        <time>2018-10-04T09:27:40Z</time>
      </trkpt>
      <trkpt lat="38.3222140" lon="-0.6697410">
        <ele>218.5</ele>
        <time>2018-10-04T09:27:41Z</time>
      </trkpt>
      <trkpt lat="38.3221670" lon="-0.6697530">
        <ele>218.5</ele>
        <time>2018-10-04T09:27:42Z</time>
      </trkpt>
      <trkpt lat="38.3221190" lon="-0.6697640">
        <ele>218.7</ele>
        <time>2018-10-04T09:27:43Z</time>
      </trkpt>
      <trkpt lat="38.3220680" lon="-0.6697750">
        <ele>218.7</ele>
        <time>2018-10-04T09:27:44Z</time>
      </trkpt>
      <trkpt lat="38.3220150" lon="-0.6697850">
        <ele>219.2</ele>
        <time>2018-10-04T09:27:45Z</time>
      </trkpt>
      <trkpt lat="38.3219630" lon="-0.6698010">
        <ele>219.3</ele>
        <time>2018-10-04T09:27:46Z</time>
      </trkpt>
      <trkpt lat="38.3219140" lon="-0.6698190">
        <ele>219.7</ele>
        <time>2018-10-04T09:27:47Z</time>
      </trkpt>
      <trkpt lat="38.3218620" lon="-0.6698210">
        <ele>219.9</ele>
        <time>2018-10-04T09:27:48Z</time>
      </trkpt>
      <trkpt lat="38.3218070" lon="-0.6698260">
        <ele>220.6</ele>
        <time>2018-10-04T09:27:49Z</time>
      </trkpt>
      <trkpt lat="38.3217570" lon="-0.6698390">
        <ele>221.7</ele>
        <time>2018-10-04T09:27:50Z</time>
      </trkpt>
      <trkpt lat="38.3217120" lon="-0.6698520">
        <ele>222.3</ele>
        <time>2018-10-04T09:27:51Z</time>
      </trkpt>
      <trkpt lat="38.3216810" lon="-0.6698660">
        <ele>222.8</ele>
        <time>2018-10-04T09:27:52Z</time>
      </trkpt>
      <trkpt lat="38.3216620" lon="-0.6698900">
        <ele>223.0</ele>
        <time>2018-10-04T09:27:53Z</time>
      </trkpt>
      <trkpt lat="38.3216470" lon="-0.6699160">
        <ele>223.2</ele>
        <time>2018-10-04T09:27:54Z</time>
      </trkpt>
      <trkpt lat="38.3216390" lon="-0.6699410">
        <ele>223.3</ele>
        <time>2018-10-04T09:27:55Z</time>
      </trkpt>
      <trkpt lat="38.3216330" lon="-0.6699740">
        <ele>223.4</ele>
        <time>2018-10-04T09:27:56Z</time>
      </trkpt>
      <trkpt lat="38.3216360" lon="-0.6700090">
        <ele>223.5</ele>
        <time>2018-10-04T09:27:57Z</time>
      </trkpt>
      <trkpt lat="38.3216390" lon="-0.6700440">
        <ele>223.7</ele>
        <time>2018-10-04T09:27:58Z</time>
      </trkpt>
      <trkpt lat="38.3216380" lon="-0.6700780">
        <ele>223.9</ele>
        <time>2018-10-04T09:27:59Z</time>
      </trkpt>
      <trkpt lat="38.3216370" lon="-0.6701110">
        <ele>224.2</ele>
        <time>2018-10-04T09:28:00Z</time>
      </trkpt>
      <trkpt lat="38.3216380" lon="-0.6701420">
        <ele>224.4</ele>
        <time>2018-10-04T09:28:01Z</time>
      </trkpt>
      <trkpt lat="38.3216400" lon="-0.6701730">
        <ele>224.5</ele>
        <time>2018-10-04T09:28:02Z</time>
      </trkpt>
      <trkpt lat="38.3216430" lon="-0.6702030">
        <ele>224.6</ele>
        <time>2018-10-04T09:28:03Z</time>
      </trkpt>
      <trkpt lat="38.3216430" lon="-0.6702340">
        <ele>224.8</ele>
        <time>2018-10-04T09:28:04Z</time>
      </trkpt>
      <trkpt lat="38.3216430" lon="-0.6702670">
        <ele>224.9</ele>
        <time>2018-10-04T09:28:05Z</time>
      </trkpt>
      <trkpt lat="38.3216400" lon="-0.6702990">
        <ele>225.1</ele>
        <time>2018-10-04T09:28:06Z</time>
      </trkpt>
      <trkpt lat="38.3216340" lon="-0.6703280">
        <ele>225.3</ele>
        <time>2018-10-04T09:28:07Z</time>
      </trkpt>
      <trkpt lat="38.3216330" lon="-0.6703620">
        <ele>225.5</ele>
        <time>2018-10-04T09:28:08Z</time>
      </trkpt>
      <trkpt lat="38.3216330" lon="-0.6703940">
        <ele>225.8</ele>
        <time>2018-10-04T09:28:09Z</time>
      </trkpt>
      <trkpt lat="38.3216340" lon="-0.6704280">
        <ele>226.0</ele>
        <time>2018-10-04T09:28:10Z</time>
      </trkpt>
      <trkpt lat="38.3216370" lon="-0.6704620">
        <ele>226.2</ele>
        <time>2018-10-04T09:28:11Z</time>
      </trkpt>
      <trkpt lat="38.3216390" lon="-0.6704970">
        <ele>226.4</ele>
        <time>2018-10-04T09:28:12Z</time>
      </trkpt>
      <trkpt lat="38.3216450" lon="-0.6705320">
        <ele>226.6</ele>
        <time>2018-10-04T09:28:13Z</time>
      </trkpt>
      <trkpt lat="38.3216540" lon="-0.6705680">
        <ele>226.8</ele>
        <time>2018-10-04T09:28:14Z</time>
      </trkpt>
      <trkpt lat="38.3216640" lon="-0.6706050">
        <ele>226.9</ele>
        <time>2018-10-04T09:28:15Z</time>
      </trkpt>
      <trkpt lat="38.3216760" lon="-0.6706390">
        <ele>226.7</ele>
        <time>2018-10-04T09:28:16Z</time>
      </trkpt>
      <trkpt lat="38.3216890" lon="-0.6706730">
        <ele>226.6</ele>
        <time>2018-10-04T09:28:17Z</time>
      </trkpt>
      <trkpt lat="38.3217030" lon="-0.6707080">
        <ele>226.5</ele>
        <time>2018-10-04T09:28:18Z</time>
      </trkpt>
      <trkpt lat="38.3217170" lon="-0.6707420">
        <ele>226.4</ele>
        <time>2018-10-04T09:28:19Z</time>
      </trkpt>
      <trkpt lat="38.3217290" lon="-0.6707740">
        <ele>226.3</ele>
        <time>2018-10-04T09:28:20Z</time>
      </trkpt>
      <trkpt lat="38.3217410" lon="-0.6708090">
        <ele>226.2</ele>
        <time>2018-10-04T09:28:21Z</time>
      </trkpt>
      <trkpt lat="38.3217550" lon="-0.6708510">
        <ele>226.0</ele>
        <time>2018-10-04T09:28:22Z</time>
      </trkpt>
      <trkpt lat="38.3217690" lon="-0.6708980">
        <ele>225.9</ele>
        <time>2018-10-04T09:28:23Z</time>
      </trkpt>
      <trkpt lat="38.3217840" lon="-0.6709470">
        <ele>225.8</ele>
        <time>2018-10-04T09:28:24Z</time>
      </trkpt>
      <trkpt lat="38.3218000" lon="-0.6710010">
        <ele>225.6</ele>
        <time>2018-10-04T09:28:25Z</time>
      </trkpt>
      <trkpt lat="38.3218170" lon="-0.6710580">
        <ele>225.4</ele>
        <time>2018-10-04T09:28:26Z</time>
      </trkpt>
      <trkpt lat="38.3218350" lon="-0.6711190">
        <ele>225.2</ele>
        <time>2018-10-04T09:28:27Z</time>
      </trkpt>
      <trkpt lat="38.3218520" lon="-0.6711820">
        <ele>224.9</ele>
        <time>2018-10-04T09:28:28Z</time>
      </trkpt>
      <trkpt lat="38.3218660" lon="-0.6712480">
        <ele>224.7</ele>
        <time>2018-10-04T09:28:29Z</time>
      </trkpt>
      <trkpt lat="38.3218780" lon="-0.6713150">
        <ele>224.6</ele>
        <time>2018-10-04T09:28:30Z</time>
      </trkpt>
      <trkpt lat="38.3218880" lon="-0.6713830">
        <ele>224.5</ele>
        <time>2018-10-04T09:28:31Z</time>
      </trkpt>
      <trkpt lat="38.3218940" lon="-0.6714530">
        <ele>224.3</ele>
        <time>2018-10-04T09:28:32Z</time>
      </trkpt>
      <trkpt lat="38.3219000" lon="-0.6715260">
        <ele>224.2</ele>
        <time>2018-10-04T09:28:33Z</time>
      </trkpt>
      <trkpt lat="38.3219000" lon="-0.6716000">
        <ele>224.1</ele>
        <time>2018-10-04T09:28:34Z</time>
      </trkpt>
      <trkpt lat="38.3218970" lon="-0.6716740">
        <ele>224.1</ele>
        <time>2018-10-04T09:28:35Z</time>
      </trkpt>
      <trkpt lat="38.3218950" lon="-0.6717460">
        <ele>224.0</ele>
        <time>2018-10-04T09:28:36Z</time>
      </trkpt>
      <trkpt lat="38.3218910" lon="-0.6718170">
        <ele>223.9</ele>
        <time>2018-10-04T09:28:37Z</time>
      </trkpt>
      <trkpt lat="38.3218890" lon="-0.6718880">
        <ele>223.9</ele>
        <time>2018-10-04T09:28:38Z</time>
      </trkpt>
      <trkpt lat="38.3218920" lon="-0.6719580">
        <ele>223.8</ele>
        <time>2018-10-04T09:28:39Z</time>
      </trkpt>
      <trkpt lat="38.3218970" lon="-0.6720270">
        <ele>223.7</ele>
        <time>2018-10-04T09:28:40Z</time>
      </trkpt>
      <trkpt lat="38.3219050" lon="-0.6720960">
        <ele>223.7</ele>
        <time>2018-10-04T09:28:41Z</time>
      </trkpt>
      <trkpt lat="38.3219120" lon="-0.6721630">
        <ele>223.6</ele>
        <time>2018-10-04T09:28:42Z</time>
      </trkpt>
      <trkpt lat="38.3219180" lon="-0.6722290">
        <ele>223.4</ele>
        <time>2018-10-04T09:28:43Z</time>
      </trkpt>
      <trkpt lat="38.3219220" lon="-0.6722960">
        <ele>223.2</ele>
        <time>2018-10-04T09:28:44Z</time>
      </trkpt>
      <trkpt lat="38.3219270" lon="-0.6723620">
        <ele>223.0</ele>
        <time>2018-10-04T09:28:45Z</time>
      </trkpt>
      <trkpt lat="38.3219330" lon="-0.6724270">
        <ele>223.4</ele>
        <time>2018-10-04T09:28:46Z</time>
      </trkpt>
      <trkpt lat="38.3219420" lon="-0.6724900">
        <ele>223.8</ele>
        <time>2018-10-04T09:28:47Z</time>
      </trkpt>
      <trkpt lat="38.3219480" lon="-0.6725510">
        <ele>224.2</ele>
        <time>2018-10-04T09:28:48Z</time>
      </trkpt>
      <trkpt lat="38.3219550" lon="-0.6726110">
        <ele>224.5</ele>
        <time>2018-10-04T09:28:49Z</time>
      </trkpt>
      <trkpt lat="38.3219660" lon="-0.6726700">
        <ele>224.9</ele>
        <time>2018-10-04T09:28:50Z</time>
      </trkpt>
      <trkpt lat="38.3219780" lon="-0.6727270">
        <ele>225.3</ele>
        <time>2018-10-04T09:28:51Z</time>
      </trkpt>
      <trkpt lat="38.3219910" lon="-0.6727850">
        <ele>225.6</ele>
        <time>2018-10-04T09:28:52Z</time>
      </trkpt>
      <trkpt lat="38.3220020" lon="-0.6728410">
        <ele>226.2</ele>
        <time>2018-10-04T09:28:53Z</time>
      </trkpt>
      <trkpt lat="38.3220130" lon="-0.6728980">
        <ele>226.7</ele>
        <time>2018-10-04T09:28:54Z</time>
      </trkpt>
      <trkpt lat="38.3220230" lon="-0.6729500">
        <ele>227.0</ele>
        <time>2018-10-04T09:28:55Z</time>
      </trkpt>
      <trkpt lat="38.3220330" lon="-0.6730000">
        <ele>227.4</ele>
        <time>2018-10-04T09:28:56Z</time>
      </trkpt>
      <trkpt lat="38.3220420" lon="-0.6730490">
        <ele>227.7</ele>
        <time>2018-10-04T09:28:57Z</time>
      </trkpt>
      <trkpt lat="38.3220510" lon="-0.6730980">
        <ele>228.0</ele>
        <time>2018-10-04T09:28:58Z</time>
      </trkpt>
      <trkpt lat="38.3220630" lon="-0.6731460">
        <ele>228.2</ele>
        <time>2018-10-04T09:28:59Z</time>
      </trkpt>
      <trkpt lat="38.3220740" lon="-0.6731960">
        <ele>228.2</ele>
        <time>2018-10-04T09:29:00Z</time>
      </trkpt>
      <trkpt lat="38.3220880" lon="-0.6732450">
        <ele>228.4</ele>
        <time>2018-10-04T09:29:01Z</time>
      </trkpt>
      <trkpt lat="38.3221030" lon="-0.6732950">
        <ele>228.3</ele>
        <time>2018-10-04T09:29:02Z</time>
      </trkpt>
      <trkpt lat="38.3221200" lon="-0.6733430">
        <ele>228.7</ele>
        <time>2018-10-04T09:29:03Z</time>
      </trkpt>
      <trkpt lat="38.3221350" lon="-0.6733920">
        <ele>228.6</ele>
        <time>2018-10-04T09:29:04Z</time>
      </trkpt>
      <trkpt lat="38.3221520" lon="-0.6734410">
        <ele>228.7</ele>
        <time>2018-10-04T09:29:05Z</time>
      </trkpt>
      <trkpt lat="38.3221670" lon="-0.6734890">
        <ele>228.6</ele>
        <time>2018-10-04T09:29:06Z</time>
      </trkpt>
      <trkpt lat="38.3221750" lon="-0.6735400">
        <ele>228.7</ele>
        <time>2018-10-04T09:29:07Z</time>
      </trkpt>
      <trkpt lat="38.3221810" lon="-0.6735910">
        <ele>228.9</ele>
        <time>2018-10-04T09:29:08Z</time>
      </trkpt>
      <trkpt lat="38.3221890" lon="-0.6736440">
        <ele>229.2</ele>
        <time>2018-10-04T09:29:09Z</time>
      </trkpt>
      <trkpt lat="38.3221960" lon="-0.6736950">
        <ele>229.3</ele>
        <time>2018-10-04T09:29:10Z</time>
      </trkpt>
      <trkpt lat="38.3222050" lon="-0.6737450">
        <ele>229.1</ele>
        <time>2018-10-04T09:29:11Z</time>
      </trkpt>
      <trkpt lat="38.3222090" lon="-0.6737970">
        <ele>229.1</ele>
        <time>2018-10-04T09:29:12Z</time>
      </trkpt>
      <trkpt lat="38.3222140" lon="-0.6738460">
        <ele>229.2</ele>
        <time>2018-10-04T09:29:13Z</time>
      </trkpt>
      <trkpt lat="38.3222160" lon="-0.6738970">
        <ele>229.2</ele>
        <time>2018-10-04T09:29:14Z</time>
      </trkpt>
      <trkpt lat="38.3222170" lon="-0.6739470">
        <ele>229.3</ele>
        <time>2018-10-04T09:29:15Z</time>
      </trkpt>
      <trkpt lat="38.3222180" lon="-0.6739960">
        <ele>229.4</ele>
        <time>2018-10-04T09:29:16Z</time>
      </trkpt>
      <trkpt lat="38.3222190" lon="-0.6740440">
        <ele>229.4</ele>
        <time>2018-10-04T09:29:17Z</time>
      </trkpt>
      <trkpt lat="38.3222190" lon="-0.6740910">
        <ele>229.4</ele>
        <time>2018-10-04T09:29:18Z</time>
      </trkpt>
      <trkpt lat="38.3222190" lon="-0.6741380">
        <ele>229.5</ele>
        <time>2018-10-04T09:29:19Z</time>
      </trkpt>
      <trkpt lat="38.3222180" lon="-0.6741850">
        <ele>229.5</ele>
        <time>2018-10-04T09:29:20Z</time>
      </trkpt>
      <trkpt lat="38.3222150" lon="-0.6742300">
        <ele>229.6</ele>
        <time>2018-10-04T09:29:21Z</time>
      </trkpt>
      <trkpt lat="38.3222150" lon="-0.6742750">
        <ele>229.7</ele>
        <time>2018-10-04T09:29:22Z</time>
      </trkpt>
      <trkpt lat="38.3222150" lon="-0.6743240">
        <ele>229.9</ele>
        <time>2018-10-04T09:29:23Z</time>
      </trkpt>
      <trkpt lat="38.3222160" lon="-0.6743720">
        <ele>230.3</ele>
        <time>2018-10-04T09:29:24Z</time>
      </trkpt>
      <trkpt lat="38.3222190" lon="-0.6744220">
        <ele>230.6</ele>
        <time>2018-10-04T09:29:25Z</time>
      </trkpt>
      <trkpt lat="38.3222230" lon="-0.6744720">
        <ele>230.8</ele>
        <time>2018-10-04T09:29:26Z</time>
      </trkpt>
      <trkpt lat="38.3222310" lon="-0.6745220">
        <ele>231.1</ele>
        <time>2018-10-04T09:29:27Z</time>
      </trkpt>
      <trkpt lat="38.3222380" lon="-0.6745720">
        <ele>230.9</ele>
        <time>2018-10-04T09:29:28Z</time>
      </trkpt>
      <trkpt lat="38.3222500" lon="-0.6746220">
        <ele>231.2</ele>
        <time>2018-10-04T09:29:29Z</time>
      </trkpt>
      <trkpt lat="38.3222660" lon="-0.6746700">
        <ele>230.9</ele>
        <time>2018-10-04T09:29:30Z</time>
      </trkpt>
      <trkpt lat="38.3222830" lon="-0.6747180">
        <ele>231.4</ele>
        <time>2018-10-04T09:29:31Z</time>
      </trkpt>
      <trkpt lat="38.3223000" lon="-0.6747680">
        <ele>231.0</ele>
        <time>2018-10-04T09:29:32Z</time>
      </trkpt>
      <trkpt lat="38.3223140" lon="-0.6748230">
        <ele>231.2</ele>
        <time>2018-10-04T09:29:33Z</time>
      </trkpt>
      <trkpt lat="38.3223230" lon="-0.6748800">
        <ele>231.3</ele>
        <time>2018-10-04T09:29:34Z</time>
      </trkpt>
      <trkpt lat="38.3223270" lon="-0.6749390">
        <ele>231.6</ele>
        <time>2018-10-04T09:29:35Z</time>
      </trkpt>
      <trkpt lat="38.3223240" lon="-0.6749990">
        <ele>231.7</ele>
        <time>2018-10-04T09:29:36Z</time>
      </trkpt>
      <trkpt lat="38.3223170" lon="-0.6750580">
        <ele>231.8</ele>
        <time>2018-10-04T09:29:37Z</time>
      </trkpt>
      <trkpt lat="38.3223140" lon="-0.6751180">
        <ele>232.1</ele>
        <time>2018-10-04T09:29:38Z</time>
      </trkpt>
      <trkpt lat="38.3223150" lon="-0.6751770">
        <ele>232.2</ele>
        <time>2018-10-04T09:29:39Z</time>
      </trkpt>
      <trkpt lat="38.3223190" lon="-0.6752320">
        <ele>232.5</ele>
        <time>2018-10-04T09:29:40Z</time>
      </trkpt>
      <trkpt lat="38.3223230" lon="-0.6752840">
        <ele>232.6</ele>
        <time>2018-10-04T09:29:41Z</time>
      </trkpt>
      <trkpt lat="38.3223270" lon="-0.6753330">
        <ele>232.7</ele>
        <time>2018-10-04T09:29:42Z</time>
      </trkpt>
      <trkpt lat="38.3223270" lon="-0.6753800">
        <ele>232.8</ele>
        <time>2018-10-04T09:29:43Z</time>
      </trkpt>
      <trkpt lat="38.3223310" lon="-0.6754270">
        <ele>233.0</ele>
        <time>2018-10-04T09:29:44Z</time>
      </trkpt>
      <trkpt lat="38.3223370" lon="-0.6754730">
        <ele>232.5</ele>
        <time>2018-10-04T09:29:45Z</time>
      </trkpt>
      <trkpt lat="38.3223430" lon="-0.6755220">
        <ele>232.7</ele>
        <time>2018-10-04T09:29:46Z</time>
      </trkpt>
      <trkpt lat="38.3223460" lon="-0.6755740">
        <ele>232.9</ele>
        <time>2018-10-04T09:29:47Z</time>
      </trkpt>
      <trkpt lat="38.3223500" lon="-0.6756270">
        <ele>233.0</ele>
        <time>2018-10-04T09:29:48Z</time>
      </trkpt>
      <trkpt lat="38.3223540" lon="-0.6756800">
        <ele>233.1</ele>
        <time>2018-10-04T09:29:49Z</time>
      </trkpt>
      <trkpt lat="38.3223610" lon="-0.6757330">
        <ele>233.2</ele>
        <time>2018-10-04T09:29:50Z</time>
      </trkpt>
      <trkpt lat="38.3223670" lon="-0.6757860">
        <ele>232.8</ele>
        <time>2018-10-04T09:29:51Z</time>
      </trkpt>
      <trkpt lat="38.3223680" lon="-0.6758410">
        <ele>232.9</ele>
        <time>2018-10-04T09:29:52Z</time>
      </trkpt>
      <trkpt lat="38.3223650" lon="-0.6758950">
        <ele>233.4</ele>
        <time>2018-10-04T09:29:53Z</time>
      </trkpt>
      <trkpt lat="38.3223610" lon="-0.6759460">
        <ele>233.3</ele>
        <time>2018-10-04T09:29:54Z</time>
      </trkpt>
      <trkpt lat="38.3223560" lon="-0.6759970">
        <ele>233.2</ele>
        <time>2018-10-04T09:29:55Z</time>
      </trkpt>
      <trkpt lat="38.3223540" lon="-0.6760500">
        <ele>233.0</ele>
        <time>2018-10-04T09:29:56Z</time>
      </trkpt>
      <trkpt lat="38.3223540" lon="-0.6761040">
        <ele>232.8</ele>
        <time>2018-10-04T09:29:57Z</time>
      </trkpt>
      <trkpt lat="38.3223550" lon="-0.6761580">
        <ele>232.6</ele>
        <time>2018-10-04T09:29:58Z</time>
      </trkpt>
      <trkpt lat="38.3223600" lon="-0.6762120">
        <ele>232.5</ele>
        <time>2018-10-04T09:29:59Z</time>
      </trkpt>
      <trkpt lat="38.3223600" lon="-0.6762640">
        <ele>232.2</ele>
        <time>2018-10-04T09:30:00Z</time>
      </trkpt>
      <trkpt lat="38.3223580" lon="-0.6763160">
        <ele>232.2</ele>
        <time>2018-10-04T09:30:01Z</time>
      </trkpt>
      <trkpt lat="38.3223550" lon="-0.6763670">
        <ele>232.1</ele>
        <time>2018-10-04T09:30:02Z</time>
      </trkpt>
      <trkpt lat="38.3223530" lon="-0.6764170">
        <ele>232.0</ele>
        <time>2018-10-04T09:30:03Z</time>
      </trkpt>
      <trkpt lat="38.3223470" lon="-0.6764620">
        <ele>232.0</ele>
        <time>2018-10-04T09:30:04Z</time>
      </trkpt>
      <trkpt lat="38.3223460" lon="-0.6765050">
        <ele>231.9</ele>
        <time>2018-10-04T09:30:05Z</time>
      </trkpt>
      <trkpt lat="38.3223510" lon="-0.6765510">
        <ele>231.8</ele>
        <time>2018-10-04T09:30:06Z</time>
      </trkpt>
      <trkpt lat="38.3223660" lon="-0.6765970">
        <ele>231.7</ele>
        <time>2018-10-04T09:30:07Z</time>
      </trkpt>
      <trkpt lat="38.3223860" lon="-0.6766470">
        <ele>231.2</ele>
        <time>2018-10-04T09:30:08Z</time>
      </trkpt>
      <trkpt lat="38.3224080" lon="-0.6767050">
        <ele>230.8</ele>
        <time>2018-10-04T09:30:09Z</time>
      </trkpt>
      <trkpt lat="38.3224260" lon="-0.6767690">
        <ele>230.7</ele>
        <time>2018-10-04T09:30:10Z</time>
      </trkpt>
      <trkpt lat="38.3224420" lon="-0.6768380">
        <ele>230.5</ele>
        <time>2018-10-04T09:30:11Z</time>
      </trkpt>
      <trkpt lat="38.3224490" lon="-0.6769140">
        <ele>230.5</ele>
        <time>2018-10-04T09:30:12Z</time>
      </trkpt>
      <trkpt lat="38.3224540" lon="-0.6769950">
        <ele>230.5</ele>
        <time>2018-10-04T09:30:13Z</time>
      </trkpt>
      <trkpt lat="38.3224670" lon="-0.6770730">
        <ele>230.4</ele>
        <time>2018-10-04T09:30:14Z</time>
      </trkpt>
      <trkpt lat="38.3224950" lon="-0.6771450">
        <ele>230.2</ele>
        <time>2018-10-04T09:30:15Z</time>
      </trkpt>
      <trkpt lat="38.3225320" lon="-0.6772110">
        <ele>229.9</ele>
        <time>2018-10-04T09:30:16Z</time>
      </trkpt>
      <trkpt lat="38.3225760" lon="-0.6772740">
        <ele>229.5</ele>
        <time>2018-10-04T09:30:17Z</time>
      </trkpt>
      <trkpt lat="38.3226210" lon="-0.6773370">
        <ele>229.2</ele>
        <time>2018-10-04T09:30:18Z</time>
      </trkpt>
      <trkpt lat="38.3226670" lon="-0.6774010">
        <ele>229.0</ele>
        <time>2018-10-04T09:30:19Z</time>
      </trkpt>
      <trkpt lat="38.3227170" lon="-0.6774590">
        <ele>228.6</ele>
        <time>2018-10-04T09:30:20Z</time>
      </trkpt>
      <trkpt lat="38.3227740" lon="-0.6775140">
        <ele>228.0</ele>
        <time>2018-10-04T09:30:21Z</time>
      </trkpt>
      <trkpt lat="38.3228350" lon="-0.6775630">
        <ele>227.7</ele>
        <time>2018-10-04T09:30:22Z</time>
      </trkpt>
      <trkpt lat="38.3228980" lon="-0.6776070">
        <ele>227.2</ele>
        <time>2018-10-04T09:30:23Z</time>
      </trkpt>
      <trkpt lat="38.3229620" lon="-0.6776490">
        <ele>226.8</ele>
        <time>2018-10-04T09:30:24Z</time>
      </trkpt>
      <trkpt lat="38.3230250" lon="-0.6776880">
        <ele>226.3</ele>
        <time>2018-10-04T09:30:25Z</time>
      </trkpt>
      <trkpt lat="38.3230890" lon="-0.6777240">
        <ele>225.8</ele>
        <time>2018-10-04T09:30:26Z</time>
      </trkpt>
      <trkpt lat="38.3231520" lon="-0.6777580">
        <ele>225.5</ele>
        <time>2018-10-04T09:30:27Z</time>
      </trkpt>
      <trkpt lat="38.3232150" lon="-0.6777900">
        <ele>225.1</ele>
        <time>2018-10-04T09:30:28Z</time>
      </trkpt>
      <trkpt lat="38.3232800" lon="-0.6778200">
        <ele>224.7</ele>
        <time>2018-10-04T09:30:29Z</time>
      </trkpt>
      <trkpt lat="38.3233500" lon="-0.6778500">
        <ele>224.4</ele>
        <time>2018-10-04T09:30:30Z</time>
      </trkpt>
      <trkpt lat="38.3234210" lon="-0.6778910">
        <ele>224.1</ele>
        <time>2018-10-04T09:30:31Z</time>
      </trkpt>
      <trkpt lat="38.3234920" lon="-0.6779430">
        <ele>223.8</ele>
        <time>2018-10-04T09:30:32Z</time>
      </trkpt>
      <trkpt lat="38.3235570" lon="-0.6780110">
        <ele>223.6</ele>
        <time>2018-10-04T09:30:33Z</time>
      </trkpt>
      <trkpt lat="38.3236200" lon="-0.6780870">
        <ele>223.2</ele>
        <time>2018-10-04T09:30:34Z</time>
      </trkpt>
      <trkpt lat="38.3236840" lon="-0.6781650">
        <ele>222.9</ele>
        <time>2018-10-04T09:30:35Z</time>
      </trkpt>
      <trkpt lat="38.3237470" lon="-0.6782440">
        <ele>222.7</ele>
        <time>2018-10-04T09:30:36Z</time>
      </trkpt>
      <trkpt lat="38.3238100" lon="-0.6783260">
        <ele>222.5</ele>
        <time>2018-10-04T09:30:37Z</time>
      </trkpt>
      <trkpt lat="38.3238730" lon="-0.6784110">
        <ele>222.4</ele>
        <time>2018-10-04T09:30:38Z</time>
      </trkpt>
      <trkpt lat="38.3239390" lon="-0.6784890">
        <ele>222.3</ele>
        <time>2018-10-04T09:30:39Z</time>
      </trkpt>
      <trkpt lat="38.3240150" lon="-0.6785560">
        <ele>222.2</ele>
        <time>2018-10-04T09:30:40Z</time>
      </trkpt>
      <trkpt lat="38.3240920" lon="-0.6786170">
        <ele>222.3</ele>
        <time>2018-10-04T09:30:41Z</time>
      </trkpt>
      <trkpt lat="38.3241680" lon="-0.6786810">
        <ele>222.4</ele>
        <time>2018-10-04T09:30:42Z</time>
      </trkpt>
      <trkpt lat="38.3242400" lon="-0.6787480">
        <ele>222.4</ele>
        <time>2018-10-04T09:30:43Z</time>
      </trkpt>
      <trkpt lat="38.3243010" lon="-0.6788240">
        <ele>222.5</ele>
        <time>2018-10-04T09:30:44Z</time>
      </trkpt>
      <trkpt lat="38.3243550" lon="-0.6789010">
        <ele>222.7</ele>
        <time>2018-10-04T09:30:45Z</time>
      </trkpt>
      <trkpt lat="38.3244020" lon="-0.6789800">
        <ele>222.8</ele>
        <time>2018-10-04T09:30:46Z</time>
      </trkpt>
      <trkpt lat="38.3244340" lon="-0.6790660">
        <ele>223.0</ele>
        <time>2018-10-04T09:30:47Z</time>
      </trkpt>
      <trkpt lat="38.3244590" lon="-0.6791520">
        <ele>223.1</ele>
        <time>2018-10-04T09:30:48Z</time>
      </trkpt>
      <trkpt lat="38.3244810" lon="-0.6792370">
        <ele>223.2</ele>
        <time>2018-10-04T09:30:49Z</time>
      </trkpt>
      <trkpt lat="38.3244980" lon="-0.6793210">
        <ele>223.3</ele>
        <time>2018-10-04T09:30:50Z</time>
      </trkpt>
      <trkpt lat="38.3245130" lon="-0.6794020">
        <ele>223.3</ele>
        <time>2018-10-04T09:30:51Z</time>
      </trkpt>
      <trkpt lat="38.3245280" lon="-0.6794800">
        <ele>223.4</ele>
        <time>2018-10-04T09:30:52Z</time>
      </trkpt>
      <trkpt lat="38.3245440" lon="-0.6795530">
        <ele>223.4</ele>
        <time>2018-10-04T09:30:53Z</time>
      </trkpt>
      <trkpt lat="38.3245600" lon="-0.6796240">
        <ele>223.5</ele>
        <time>2018-10-04T09:30:54Z</time>
      </trkpt>
      <trkpt lat="38.3245790" lon="-0.6796900">
        <ele>223.4</ele>
        <time>2018-10-04T09:30:55Z</time>
      </trkpt>
      <trkpt lat="38.3245980" lon="-0.6797540">
        <ele>223.5</ele>
        <time>2018-10-04T09:30:56Z</time>
      </trkpt>
      <trkpt lat="38.3246170" lon="-0.6798160">
        <ele>223.5</ele>
        <time>2018-10-04T09:30:57Z</time>
      </trkpt>
      <trkpt lat="38.3246380" lon="-0.6798750">
        <ele>223.5</ele>
        <time>2018-10-04T09:30:58Z</time>
      </trkpt>
      <trkpt lat="38.3246620" lon="-0.6799270">
        <ele>223.5</ele>
        <time>2018-10-04T09:30:59Z</time>
      </trkpt>
      <trkpt lat="38.3246950" lon="-0.6799660">
        <ele>223.6</ele>
        <time>2018-10-04T09:31:00Z</time>
      </trkpt>
      <trkpt lat="38.3247290" lon="-0.6799870">
        <ele>223.7</ele>
        <time>2018-10-04T09:31:01Z</time>
      </trkpt>
      <trkpt lat="38.3247680" lon="-0.6799980">
        <ele>223.9</ele>
        <time>2018-10-04T09:31:02Z</time>
      </trkpt>
      <trkpt lat="38.3248090" lon="-0.6799940">
        <ele>224.1</ele>
        <time>2018-10-04T09:31:03Z</time>
      </trkpt>
      <trkpt lat="38.3248500" lon="-0.6799840">
        <ele>224.3</ele>
        <time>2018-10-04T09:31:04Z</time>
      </trkpt>
      <trkpt lat="38.3248930" lon="-0.6799730">
        <ele>224.4</ele>
        <time>2018-10-04T09:31:05Z</time>
      </trkpt>
      <trkpt lat="38.3249390" lon="-0.6799630">
        <ele>224.6</ele>
        <time>2018-10-04T09:31:06Z</time>
      </trkpt>
      <trkpt lat="38.3249860" lon="-0.6799580">
        <ele>224.8</ele>
        <time>2018-10-04T09:31:07Z</time>
      </trkpt>
      <trkpt lat="38.3250330" lon="-0.6799500">
        <ele>225.0</ele>
        <time>2018-10-04T09:31:08Z</time>
      </trkpt>
      <trkpt lat="38.3250810" lon="-0.6799380">
        <ele>225.2</ele>
        <time>2018-10-04T09:31:09Z</time>
      </trkpt>
      <trkpt lat="38.3251300" lon="-0.6799270">
        <ele>225.4</ele>
        <time>2018-10-04T09:31:10Z</time>
      </trkpt>
      <trkpt lat="38.3251800" lon="-0.6799200">
        <ele>225.6</ele>
        <time>2018-10-04T09:31:11Z</time>
      </trkpt>
      <trkpt lat="38.3252300" lon="-0.6799160">
        <ele>225.8</ele>
        <time>2018-10-04T09:31:12Z</time>
      </trkpt>
      <trkpt lat="38.3252800" lon="-0.6799140">
        <ele>226.0</ele>
        <time>2018-10-04T09:31:13Z</time>
      </trkpt>
      <trkpt lat="38.3253290" lon="-0.6799060">
        <ele>226.1</ele>
        <time>2018-10-04T09:31:14Z</time>
      </trkpt>
      <trkpt lat="38.3253760" lon="-0.6798960">
        <ele>226.3</ele>
        <time>2018-10-04T09:31:15Z</time>
      </trkpt>
      <trkpt lat="38.3254210" lon="-0.6798910">
        <ele>226.5</ele>
        <time>2018-10-04T09:31:16Z</time>
      </trkpt>
      <trkpt lat="38.3254660" lon="-0.6798870">
        <ele>226.7</ele>
        <time>2018-10-04T09:31:17Z</time>
      </trkpt>
      <trkpt lat="38.3255090" lon="-0.6798890">
        <ele>226.9</ele>
        <time>2018-10-04T09:31:18Z</time>
      </trkpt>
      <trkpt lat="38.3255510" lon="-0.6798950">
        <ele>227.1</ele>
        <time>2018-10-04T09:31:19Z</time>
      </trkpt>
      <trkpt lat="38.3255900" lon="-0.6799030">
        <ele>227.5</ele>
        <time>2018-10-04T09:31:20Z</time>
      </trkpt>
      <trkpt lat="38.3256260" lon="-0.6799140">
        <ele>227.8</ele>
        <time>2018-10-04T09:31:21Z</time>
      </trkpt>
      <trkpt lat="38.3256590" lon="-0.6799270">
        <ele>228.1</ele>
        <time>2018-10-04T09:31:22Z</time>
      </trkpt>
      <trkpt lat="38.3256920" lon="-0.6799400">
        <ele>228.3</ele>
        <time>2018-10-04T09:31:23Z</time>
      </trkpt>
      <trkpt lat="38.3257230" lon="-0.6799570">
        <ele>228.6</ele>
        <time>2018-10-04T09:31:24Z</time>
      </trkpt>
      <trkpt lat="38.3257520" lon="-0.6799780">
        <ele>228.8</ele>
        <time>2018-10-04T09:31:25Z</time>
      </trkpt>
      <trkpt lat="38.3257810" lon="-0.6799980">
        <ele>229.2</ele>
        <time>2018-10-04T09:31:26Z</time>
      </trkpt>
      <trkpt lat="38.3258070" lon="-0.6800210">
        <ele>229.5</ele>
        <time>2018-10-04T09:31:27Z</time>
      </trkpt>
      <trkpt lat="38.3258340" lon="-0.6800420">
        <ele>229.9</ele>
        <time>2018-10-04T09:31:28Z</time>
      </trkpt>
      <trkpt lat="38.3258610" lon="-0.6800640">
        <ele>230.2</ele>
        <time>2018-10-04T09:31:29Z</time>
      </trkpt>
      <trkpt lat="38.3258880" lon="-0.6800910">
        <ele>230.5</ele>
        <time>2018-10-04T09:31:30Z</time>
      </trkpt>
      <trkpt lat="38.3259100" lon="-0.6801200">
        <ele>230.8</ele>
        <time>2018-10-04T09:31:31Z</time>
      </trkpt>
      <trkpt lat="38.3259320" lon="-0.6801480">
        <ele>231.0</ele>
        <time>2018-10-04T09:31:32Z</time>
      </trkpt>
      <trkpt lat="38.3259510" lon="-0.6801790">
        <ele>231.3</ele>
        <time>2018-10-04T09:31:33Z</time>
      </trkpt>
      <trkpt lat="38.3259700" lon="-0.6802110">
        <ele>231.6</ele>
        <time>2018-10-04T09:31:34Z</time>
      </trkpt>
      <trkpt lat="38.3259900" lon="-0.6802430">
        <ele>231.7</ele>
        <time>2018-10-04T09:31:35Z</time>
      </trkpt>
      <trkpt lat="38.3260110" lon="-0.6802740">
        <ele>231.8</ele>
        <time>2018-10-04T09:31:36Z</time>
      </trkpt>
      <trkpt lat="38.3260320" lon="-0.6803050">
        <ele>232.0</ele>
        <time>2018-10-04T09:31:37Z</time>
      </trkpt>
      <trkpt lat="38.3260550" lon="-0.6803350">
        <ele>232.1</ele>
        <time>2018-10-04T09:31:38Z</time>
      </trkpt>
      <trkpt lat="38.3260770" lon="-0.6803680">
        <ele>232.2</ele>
        <time>2018-10-04T09:31:39Z</time>
      </trkpt>
      <trkpt lat="38.3260960" lon="-0.6804030">
        <ele>232.2</ele>
        <time>2018-10-04T09:31:40Z</time>
      </trkpt>
      <trkpt lat="38.3261180" lon="-0.6804370">
        <ele>232.3</ele>
        <time>2018-10-04T09:31:41Z</time>
      </trkpt>
      <trkpt lat="38.3261460" lon="-0.6804650">
        <ele>232.3</ele>
        <time>2018-10-04T09:31:42Z</time>
      </trkpt>
      <trkpt lat="38.3261780" lon="-0.6804960">
        <ele>232.4</ele>
        <time>2018-10-04T09:31:43Z</time>
      </trkpt>
      <trkpt lat="38.3262110" lon="-0.6805300">
        <ele>232.4</ele>
        <time>2018-10-04T09:31:44Z</time>
      </trkpt>
      <trkpt lat="38.3262500" lon="-0.6805630">
        <ele>232.4</ele>
        <time>2018-10-04T09:31:45Z</time>
      </trkpt>
      <trkpt lat="38.3262920" lon="-0.6805950">
        <ele>232.4</ele>
        <time>2018-10-04T09:31:46Z</time>
      </trkpt>
      <trkpt lat="38.3263370" lon="-0.6806280">
        <ele>232.3</ele>
        <time>2018-10-04T09:31:47Z</time>
      </trkpt>
      <trkpt lat="38.3263860" lon="-0.6806560">
        <ele>232.2</ele>
        <time>2018-10-04T09:31:48Z</time>
      </trkpt>
      <trkpt lat="38.3264390" lon="-0.6806790">
        <ele>232.1</ele>
        <time>2018-10-04T09:31:49Z</time>
      </trkpt>
      <trkpt lat="38.3264960" lon="-0.6807000">
        <ele>232.0</ele>
        <time>2018-10-04T09:31:50Z</time>
      </trkpt>
      <trkpt lat="38.3265530" lon="-0.6807220">
        <ele>232.0</ele>
        <time>2018-10-04T09:31:51Z</time>
      </trkpt>
      <trkpt lat="38.3266120" lon="-0.6807410">
        <ele>232.1</ele>
        <time>2018-10-04T09:31:52Z</time>
      </trkpt>
      <trkpt lat="38.3266690" lon="-0.6807680">
        <ele>232.1</ele>
        <time>2018-10-04T09:31:53Z</time>
      </trkpt>
      <trkpt lat="38.3267220" lon="-0.6808060">
        <ele>232.1</ele>
        <time>2018-10-04T09:31:54Z</time>
      </trkpt>
      <trkpt lat="38.3267690" lon="-0.6808530">
        <ele>232.2</ele>
        <time>2018-10-04T09:31:55Z</time>
      </trkpt>
      <trkpt lat="38.3268070" lon="-0.6809060">
        <ele>232.2</ele>
        <time>2018-10-04T09:31:56Z</time>
      </trkpt>
      <trkpt lat="38.3268400" lon="-0.6809570">
        <ele>232.3</ele>
        <time>2018-10-04T09:31:57Z</time>
      </trkpt>
      <trkpt lat="38.3268660" lon="-0.6810090">
        <ele>232.4</ele>
        <time>2018-10-04T09:31:58Z</time>
      </trkpt>
      <trkpt lat="38.3268930" lon="-0.6810690">
        <ele>232.7</ele>
        <time>2018-10-04T09:31:59Z</time>
      </trkpt>
      <trkpt lat="38.3269130" lon="-0.6811410">
        <ele>232.8</ele>
        <time>2018-10-04T09:32:00Z</time>
      </trkpt>
      <trkpt lat="38.3269320" lon="-0.6812190">
        <ele>233.1</ele>
        <time>2018-10-04T09:32:01Z</time>
      </trkpt>
      <trkpt lat="38.3269530" lon="-0.6812980">
        <ele>233.3</ele>
        <time>2018-10-04T09:32:02Z</time>
      </trkpt>
      <trkpt lat="38.3269720" lon="-0.6813760">
        <ele>233.4</ele>
        <time>2018-10-04T09:32:03Z</time>
      </trkpt>
      <trkpt lat="38.3269860" lon="-0.6814550">
        <ele>233.4</ele>
        <time>2018-10-04T09:32:04Z</time>
      </trkpt>
      <trkpt lat="38.3269950" lon="-0.6815350">
        <ele>233.3</ele>
        <time>2018-10-04T09:32:05Z</time>
      </trkpt>
      <trkpt lat="38.3270040" lon="-0.6816100">
        <ele>232.9</ele>
        <time>2018-10-04T09:32:06Z</time>
      </trkpt>
      <trkpt lat="38.3270190" lon="-0.6816880">
        <ele>232.6</ele>
        <time>2018-10-04T09:32:07Z</time>
      </trkpt>
      <trkpt lat="38.3270340" lon="-0.6817620">
        <ele>232.1</ele>
        <time>2018-10-04T09:32:08Z</time>
      </trkpt>
      <trkpt lat="38.3270420" lon="-0.6818370">
        <ele>231.8</ele>
        <time>2018-10-04T09:32:09Z</time>
      </trkpt>
      <trkpt lat="38.3270480" lon="-0.6819190">
        <ele>231.5</ele>
        <time>2018-10-04T09:32:10Z</time>
      </trkpt>
      <trkpt lat="38.3270630" lon="-0.6819960">
        <ele>231.1</ele>
        <time>2018-10-04T09:32:11Z</time>
      </trkpt>
      <trkpt lat="38.3270770" lon="-0.6820690">
        <ele>230.9</ele>
        <time>2018-10-04T09:32:12Z</time>
      </trkpt>
      <trkpt lat="38.3270930" lon="-0.6821420">
        <ele>230.9</ele>
        <time>2018-10-04T09:32:13Z</time>
      </trkpt>
      <trkpt lat="38.3271210" lon="-0.6822090">
        <ele>231.1</ele>
        <time>2018-10-04T09:32:14Z</time>
      </trkpt>
      <trkpt lat="38.3271470" lon="-0.6822540">
        <ele>231.1</ele>
        <time>2018-10-04T09:32:15Z</time>
      </trkpt>
      <trkpt lat="38.3271730" lon="-0.6822970">
        <ele>231.3</ele>
        <time>2018-10-04T09:32:16Z</time>
      </trkpt>
      <trkpt lat="38.3272000" lon="-0.6823440">
        <ele>231.5</ele>
        <time>2018-10-04T09:32:17Z</time>
      </trkpt>
      <trkpt lat="38.3272290" lon="-0.6823920">
        <ele>231.8</ele>
        <time>2018-10-04T09:32:18Z</time>
      </trkpt>
      <trkpt lat="38.3272540" lon="-0.6824430">
        <ele>232.0</ele>
        <time>2018-10-04T09:32:19Z</time>
      </trkpt>
      <trkpt lat="38.3272750" lon="-0.6824960">
        <ele>231.9</ele>
        <time>2018-10-04T09:32:20Z</time>
      </trkpt>
      <trkpt lat="38.3272900" lon="-0.6825520">
        <ele>232.1</ele>
        <time>2018-10-04T09:32:21Z</time>
      </trkpt>
      <trkpt lat="38.3273040" lon="-0.6826100">
        <ele>232.0</ele>
        <time>2018-10-04T09:32:22Z</time>
      </trkpt>
      <trkpt lat="38.3273160" lon="-0.6826700">
        <ele>232.1</ele>
        <time>2018-10-04T09:32:23Z</time>
      </trkpt>
      <trkpt lat="38.3273290" lon="-0.6827320">
        <ele>232.0</ele>
        <time>2018-10-04T09:32:24Z</time>
      </trkpt>
      <trkpt lat="38.3273440" lon="-0.6827930">
        <ele>231.9</ele>
        <time>2018-10-04T09:32:25Z</time>
      </trkpt>
      <trkpt lat="38.3273650" lon="-0.6828510">
        <ele>231.9</ele>
        <time>2018-10-04T09:32:26Z</time>
      </trkpt>
      <trkpt lat="38.3273910" lon="-0.6829050">
        <ele>232.0</ele>
        <time>2018-10-04T09:32:27Z</time>
      </trkpt>
      <trkpt lat="38.3274150" lon="-0.6829600">
        <ele>231.8</ele>
        <time>2018-10-04T09:32:28Z</time>
      </trkpt>
      <trkpt lat="38.3274360" lon="-0.6830120">
        <ele>231.9</ele>
        <time>2018-10-04T09:32:29Z</time>
      </trkpt>
      <trkpt lat="38.3274520" lon="-0.6830550">
        <ele>231.9</ele>
        <time>2018-10-04T09:32:30Z</time>
      </trkpt>
      <trkpt lat="38.3274590" lon="-0.6831040">
        <ele>231.9</ele>
        <time>2018-10-04T09:32:31Z</time>
      </trkpt>
      <trkpt lat="38.3274630" lon="-0.6831570">
        <ele>231.8</ele>
        <time>2018-10-04T09:32:32Z</time>
      </trkpt>
      <trkpt lat="38.3274640" lon="-0.6832130">
        <ele>231.9</ele>
        <time>2018-10-04T09:32:33Z</time>
      </trkpt>
      <trkpt lat="38.3274640" lon="-0.6832690">
        <ele>231.9</ele>
        <time>2018-10-04T09:32:34Z</time>
      </trkpt>
      <trkpt lat="38.3274640" lon="-0.6833260">
        <ele>231.9</ele>
        <time>2018-10-04T09:32:35Z</time>
      </trkpt>
      <trkpt lat="38.3274630" lon="-0.6833840">
        <ele>232.0</ele>
        <time>2018-10-04T09:32:36Z</time>
      </trkpt>
      <trkpt lat="38.3274480" lon="-0.6834350">
        <ele>232.0</ele>
        <time>2018-10-04T09:32:37Z</time>
      </trkpt>
      <trkpt lat="38.3274170" lon="-0.6834720">
        <ele>232.0</ele>
        <time>2018-10-04T09:32:38Z</time>
      </trkpt>
      <trkpt lat="38.3273730" lon="-0.6834890">
        <ele>231.8</ele>
        <time>2018-10-04T09:32:39Z</time>
      </trkpt>
      <trkpt lat="38.3273240" lon="-0.6834900">
        <ele>231.6</ele>
        <time>2018-10-04T09:32:40Z</time>
      </trkpt>
      <trkpt lat="38.3272730" lon="-0.6834870">
        <ele>231.4</ele>
        <time>2018-10-04T09:32:41Z</time>
      </trkpt>
      <trkpt lat="38.3272230" lon="-0.6834850">
        <ele>231.3</ele>
        <time>2018-10-04T09:32:42Z</time>
      </trkpt>
      <trkpt lat="38.3271730" lon="-0.6834870">
        <ele>231.0</ele>
        <time>2018-10-04T09:32:43Z</time>
      </trkpt>
      <trkpt lat="38.3271220" lon="-0.6834890">
        <ele>230.9</ele>
        <time>2018-10-04T09:32:44Z</time>
      </trkpt>
      <trkpt lat="38.3270710" lon="-0.6834800">
        <ele>230.8</ele>
        <time>2018-10-04T09:32:45Z</time>
      </trkpt>
      <trkpt lat="38.3270230" lon="-0.6834560">
        <ele>230.6</ele>
        <time>2018-10-04T09:32:46Z</time>
      </trkpt>
      <trkpt lat="38.3269790" lon="-0.6834200">
        <ele>230.4</ele>
        <time>2018-10-04T09:32:47Z</time>
      </trkpt>
      <trkpt lat="38.3269340" lon="-0.6833900">
        <ele>230.3</ele>
        <time>2018-10-04T09:32:48Z</time>
      </trkpt>
      <trkpt lat="38.3268920" lon="-0.6833660">
        <ele>230.2</ele>
        <time>2018-10-04T09:32:49Z</time>
      </trkpt>
      <trkpt lat="38.3268470" lon="-0.6833450">
        <ele>230.1</ele>
        <time>2018-10-04T09:32:50Z</time>
      </trkpt>
      <trkpt lat="38.3267970" lon="-0.6833240">
        <ele>229.9</ele>
        <time>2018-10-04T09:32:51Z</time>
      </trkpt>
      <trkpt lat="38.3267470" lon="-0.6832960">
        <ele>229.7</ele>
        <time>2018-10-04T09:32:52Z</time>
      </trkpt>
      <trkpt lat="38.3266970" lon="-0.6832600">
        <ele>229.5</ele>
        <time>2018-10-04T09:32:53Z</time>
      </trkpt>
      <trkpt lat="38.3266420" lon="-0.6832240">
        <ele>229.2</ele>
        <time>2018-10-04T09:32:54Z</time>
      </trkpt>
      <trkpt lat="38.3265790" lon="-0.6832000">
        <ele>229.0</ele>
        <time>2018-10-04T09:32:55Z</time>
      </trkpt>
      <trkpt lat="38.3265110" lon="-0.6831880">
        <ele>228.7</ele>
        <time>2018-10-04T09:32:56Z</time>
      </trkpt>
      <trkpt lat="38.3264460" lon="-0.6831880">
        <ele>228.4</ele>
        <time>2018-10-04T09:32:57Z</time>
      </trkpt>
      <trkpt lat="38.3263940" lon="-0.6832130">
        <ele>228.1</ele>
        <time>2018-10-04T09:32:58Z</time>
      </trkpt>
      <trkpt lat="38.3263560" lon="-0.6832570">
        <ele>228.0</ele>
        <time>2018-10-04T09:32:59Z</time>
      </trkpt>
      <trkpt lat="38.3263290" lon="-0.6833090">
        <ele>227.9</ele>
        <time>2018-10-04T09:33:00Z</time>
      </trkpt>
      <trkpt lat="38.3263100" lon="-0.6833690">
        <ele>228.0</ele>
        <time>2018-10-04T09:33:01Z</time>
      </trkpt>
      <trkpt lat="38.3262880" lon="-0.6834410">
        <ele>228.0</ele>
        <time>2018-10-04T09:33:02Z</time>
      </trkpt>
      <trkpt lat="38.3262660" lon="-0.6835190">
        <ele>228.1</ele>
        <time>2018-10-04T09:33:03Z</time>
      </trkpt>
      <trkpt lat="38.3262400" lon="-0.6835970">
        <ele>228.2</ele>
        <time>2018-10-04T09:33:04Z</time>
      </trkpt>
      <trkpt lat="38.3262090" lon="-0.6836710">
        <ele>228.2</ele>
        <time>2018-10-04T09:33:05Z</time>
      </trkpt>
      <trkpt lat="38.3261830" lon="-0.6837470">
        <ele>228.3</ele>
        <time>2018-10-04T09:33:06Z</time>
      </trkpt>
      <trkpt lat="38.3261790" lon="-0.6838210">
        <ele>228.6</ele>
        <time>2018-10-04T09:33:07Z</time>
      </trkpt>
      <trkpt lat="38.3261790" lon="-0.6838650">
        <ele>228.8</ele>
        <time>2018-10-04T09:33:08Z</time>
      </trkpt>
      <trkpt lat="38.3261700" lon="-0.6838990">
        <ele>228.8</ele>
        <time>2018-10-04T09:33:09Z</time>
      </trkpt>
      <trkpt lat="38.3261620" lon="-0.6839240">
        <ele>228.7</ele>
        <time>2018-10-04T09:33:10Z</time>
      </trkpt>
      <trkpt lat="38.3261600" lon="-0.6839470">
        <ele>228.9</ele>
        <time>2018-10-04T09:33:11Z</time>
      </trkpt>
      <trkpt lat="38.3261510" lon="-0.6839700">
        <ele>228.9</ele>
        <time>2018-10-04T09:33:12Z</time>
      </trkpt>
      <trkpt lat="38.3261410" lon="-0.6839940">
        <ele>229.1</ele>
        <time>2018-10-04T09:33:13Z</time>
      </trkpt>
      <trkpt lat="38.3261270" lon="-0.6840210">
        <ele>228.8</ele>
        <time>2018-10-04T09:33:14Z</time>
      </trkpt>
      <trkpt lat="38.3261150" lon="-0.6840510">
        <ele>229.0</ele>
        <time>2018-10-04T09:33:15Z</time>
      </trkpt>
      <trkpt lat="38.3261030" lon="-0.6840790">
        <ele>229.0</ele>
        <time>2018-10-04T09:33:16Z</time>
      </trkpt>
      <trkpt lat="38.3260910" lon="-0.6841090">
        <ele>229.0</ele>
        <time>2018-10-04T09:33:17Z</time>
      </trkpt>
      <trkpt lat="38.3260770" lon="-0.6841370">
        <ele>229.1</ele>
        <time>2018-10-04T09:33:18Z</time>
      </trkpt>
      <trkpt lat="38.3260620" lon="-0.6841660">
        <ele>229.1</ele>
        <time>2018-10-04T09:33:19Z</time>
      </trkpt>
      <trkpt lat="38.3260480" lon="-0.6841960">
        <ele>229.1</ele>
        <time>2018-10-04T09:33:20Z</time>
      </trkpt>
      <trkpt lat="38.3260360" lon="-0.6842260">
        <ele>229.1</ele>
        <time>2018-10-04T09:33:21Z</time>
      </trkpt>
      <trkpt lat="38.3260260" lon="-0.6842560">
        <ele>229.3</ele>
        <time>2018-10-04T09:33:22Z</time>
      </trkpt>
      <trkpt lat="38.3260140" lon="-0.6842850">
        <ele>229.3</ele>
        <time>2018-10-04T09:33:23Z</time>
      </trkpt>
      <trkpt lat="38.3260080" lon="-0.6843150">
        <ele>229.4</ele>
        <time>2018-10-04T09:33:24Z</time>
      </trkpt>
      <trkpt lat="38.3260000" lon="-0.6843460">
        <ele>229.5</ele>
        <time>2018-10-04T09:33:25Z</time>
      </trkpt>
      <trkpt lat="38.3259940" lon="-0.6843760">
        <ele>229.6</ele>
        <time>2018-10-04T09:33:26Z</time>
      </trkpt>
      <trkpt lat="38.3259830" lon="-0.6844080">
        <ele>229.6</ele>
        <time>2018-10-04T09:33:27Z</time>
      </trkpt>
      <trkpt lat="38.3259630" lon="-0.6844350">
        <ele>229.6</ele>
        <time>2018-10-04T09:33:28Z</time>
      </trkpt>
      <trkpt lat="38.3259380" lon="-0.6844640">
        <ele>229.8</ele>
        <time>2018-10-04T09:33:29Z</time>
      </trkpt>
      <trkpt lat="38.3259130" lon="-0.6844980">
        <ele>229.6</ele>
        <time>2018-10-04T09:33:30Z</time>
      </trkpt>
      <trkpt lat="38.3258930" lon="-0.6845420">
        <ele>229.6</ele>
        <time>2018-10-04T09:33:31Z</time>
      </trkpt>
      <trkpt lat="38.3258710" lon="-0.6845930">
        <ele>229.9</ele>
        <time>2018-10-04T09:33:32Z</time>
      </trkpt>
      <trkpt lat="38.3258490" lon="-0.6846490">
        <ele>229.9</ele>
        <time>2018-10-04T09:33:33Z</time>
      </trkpt>
      <trkpt lat="38.3258170" lon="-0.6847000">
        <ele>229.9</ele>
        <time>2018-10-04T09:33:34Z</time>
      </trkpt>
      <trkpt lat="38.3257800" lon="-0.6847360">
        <ele>229.9</ele>
        <time>2018-10-04T09:33:35Z</time>
      </trkpt>
      <trkpt lat="38.3257420" lon="-0.6847680">
        <ele>229.9</ele>
        <time>2018-10-04T09:33:36Z</time>
      </trkpt>
      <trkpt lat="38.3257150" lon="-0.6848120">
        <ele>229.8</ele>
        <time>2018-10-04T09:33:37Z</time>
      </trkpt>
      <trkpt lat="38.3257070" lon="-0.6848500">
        <ele>230.0</ele>
        <time>2018-10-04T09:33:38Z</time>
      </trkpt>
      <trkpt lat="38.3256940" lon="-0.6848790">
        <ele>229.8</ele>
        <time>2018-10-04T09:33:39Z</time>
      </trkpt>
      <trkpt lat="38.3256790" lon="-0.6848930">
        <ele>230.0</ele>
        <time>2018-10-04T09:33:40Z</time>
      </trkpt>
      <trkpt lat="38.3256570" lon="-0.6848980">
        <ele>229.8</ele>
        <time>2018-10-04T09:33:41Z</time>
      </trkpt>
      <trkpt lat="38.3256300" lon="-0.6848900">
        <ele>229.6</ele>
        <time>2018-10-04T09:33:42Z</time>
      </trkpt>
      <trkpt lat="38.3256010" lon="-0.6848760">
        <ele>229.4</ele>
        <time>2018-10-04T09:33:43Z</time>
      </trkpt>
      <trkpt lat="38.3255690" lon="-0.6848550">
        <ele>229.2</ele>
        <time>2018-10-04T09:33:44Z</time>
      </trkpt>
      <trkpt lat="38.3255320" lon="-0.6848320">
        <ele>228.8</ele>
        <time>2018-10-04T09:33:45Z</time>
      </trkpt>
      <trkpt lat="38.3254920" lon="-0.6848060">
        <ele>228.5</ele>
        <time>2018-10-04T09:33:46Z</time>
      </trkpt>
      <trkpt lat="38.3254510" lon="-0.6847750">
        <ele>228.1</ele>
        <time>2018-10-04T09:33:47Z</time>
      </trkpt>
      <trkpt lat="38.3254090" lon="-0.6847410">
        <ele>227.8</ele>
        <time>2018-10-04T09:33:48Z</time>
      </trkpt>
      <trkpt lat="38.3253640" lon="-0.6847060">
        <ele>227.4</ele>
        <time>2018-10-04T09:33:49Z</time>
      </trkpt>
      <trkpt lat="38.3253190" lon="-0.6846720">
        <ele>227.1</ele>
        <time>2018-10-04T09:33:50Z</time>
      </trkpt>
      <trkpt lat="38.3252730" lon="-0.6846370">
        <ele>226.8</ele>
        <time>2018-10-04T09:33:51Z</time>
      </trkpt>
      <trkpt lat="38.3252250" lon="-0.6846010">
        <ele>226.4</ele>
        <time>2018-10-04T09:33:52Z</time>
      </trkpt>
      <trkpt lat="38.3251780" lon="-0.6845690">
        <ele>226.1</ele>
        <time>2018-10-04T09:33:53Z</time>
      </trkpt>
      <trkpt lat="38.3251360" lon="-0.6845550">
        <ele>225.9</ele>
        <time>2018-10-04T09:33:54Z</time>
      </trkpt>
      <trkpt lat="38.3250990" lon="-0.6845550">
        <ele>225.7</ele>
        <time>2018-10-04T09:33:55Z</time>
      </trkpt>
      <trkpt lat="38.3250700" lon="-0.6845730">
        <ele>225.5</ele>
        <time>2018-10-04T09:33:56Z</time>
      </trkpt>
      <trkpt lat="38.3250490" lon="-0.6846100">
        <ele>225.4</ele>
        <time>2018-10-04T09:33:57Z</time>
      </trkpt>
      <trkpt lat="38.3250430" lon="-0.6846600">
        <ele>225.5</ele>
        <time>2018-10-04T09:33:58Z</time>
      </trkpt>
      <trkpt lat="38.3250320" lon="-0.6847200">
        <ele>225.6</ele>
        <time>2018-10-04T09:33:59Z</time>
      </trkpt>
      <trkpt lat="38.3250160" lon="-0.6847880">
        <ele>225.3</ele>
        <time>2018-10-04T09:34:00Z</time>
      </trkpt>
      <trkpt lat="38.3250000" lon="-0.6848590">
        <ele>225.5</ele>
        <time>2018-10-04T09:34:01Z</time>
      </trkpt>
      <trkpt lat="38.3249830" lon="-0.6849340">
        <ele>225.2</ele>
        <time>2018-10-04T09:34:02Z</time>
      </trkpt>
      <trkpt lat="38.3249670" lon="-0.6850070">
        <ele>225.3</ele>
        <time>2018-10-04T09:34:03Z</time>
      </trkpt>
      <trkpt lat="38.3249510" lon="-0.6850790">
        <ele>225.0</ele>
        <time>2018-10-04T09:34:04Z</time>
      </trkpt>
      <trkpt lat="38.3249360" lon="-0.6851510">
        <ele>225.2</ele>
        <time>2018-10-04T09:34:05Z</time>
      </trkpt>
      <trkpt lat="38.3249210" lon="-0.6852250">
        <ele>225.0</ele>
        <time>2018-10-04T09:34:06Z</time>
      </trkpt>
      <trkpt lat="38.3249080" lon="-0.6852990">
        <ele>225.4</ele>
        <time>2018-10-04T09:34:07Z</time>
      </trkpt>
      <trkpt lat="38.3248930" lon="-0.6853710">
        <ele>225.8</ele>
        <time>2018-10-04T09:34:08Z</time>
      </trkpt>
      <trkpt lat="38.3248750" lon="-0.6854410">
        <ele>225.6</ele>
        <time>2018-10-04T09:34:09Z</time>
      </trkpt>
      <trkpt lat="38.3248530" lon="-0.6855080">
        <ele>225.7</ele>
        <time>2018-10-04T09:34:10Z</time>
      </trkpt>
      <trkpt lat="38.3248250" lon="-0.6855710">
        <ele>225.9</ele>
        <time>2018-10-04T09:34:11Z</time>
      </trkpt>
      <trkpt lat="38.3247910" lon="-0.6856280">
        <ele>226.1</ele>
        <time>2018-10-04T09:34:12Z</time>
      </trkpt>
      <trkpt lat="38.3247540" lon="-0.6856790">
        <ele>225.6</ele>
        <time>2018-10-04T09:34:13Z</time>
      </trkpt>
      <trkpt lat="38.3247120" lon="-0.6857220">
        <ele>225.5</ele>
        <time>2018-10-04T09:34:14Z</time>
      </trkpt>
      <trkpt lat="38.3246660" lon="-0.6857560">
        <ele>225.5</ele>
        <time>2018-10-04T09:34:15Z</time>
      </trkpt>
      <trkpt lat="38.3246160" lon="-0.6857800">
        <ele>224.8</ele>
        <time>2018-10-04T09:34:16Z</time>
      </trkpt>
      <trkpt lat="38.3245670" lon="-0.6858010">
        <ele>224.9</ele>
        <time>2018-10-04T09:34:17Z</time>
      </trkpt>
      <trkpt lat="38.3245190" lon="-0.6858260">
        <ele>224.5</ele>
        <time>2018-10-04T09:34:18Z</time>
      </trkpt>
      <trkpt lat="38.3244750" lon="-0.6858560">
        <ele>224.7</ele>
        <time>2018-10-04T09:34:19Z</time>
      </trkpt>
      <trkpt lat="38.3244380" lon="-0.6858930">
        <ele>224.8</ele>
        <time>2018-10-04T09:34:20Z</time>
      </trkpt>
      <trkpt lat="38.3244050" lon="-0.6859400">
        <ele>224.8</ele>
        <time>2018-10-04T09:34:21Z</time>
      </trkpt>
      <trkpt lat="38.3243810" lon="-0.6859890">
        <ele>224.9</ele>
        <time>2018-10-04T09:34:22Z</time>
      </trkpt>
      <trkpt lat="38.3243540" lon="-0.6860370">
        <ele>225.1</ele>
        <time>2018-10-04T09:34:23Z</time>
      </trkpt>
      <trkpt lat="38.3243260" lon="-0.6860850">
        <ele>225.2</ele>
        <time>2018-10-04T09:34:24Z</time>
      </trkpt>
      <trkpt lat="38.3243000" lon="-0.6861340">
        <ele>225.5</ele>
        <time>2018-10-04T09:34:25Z</time>
      </trkpt>
      <trkpt lat="38.3242710" lon="-0.6861820">
        <ele>225.6</ele>
        <time>2018-10-04T09:34:26Z</time>
      </trkpt>
      <trkpt lat="38.3242430" lon="-0.6862250">
        <ele>225.6</ele>
        <time>2018-10-04T09:34:27Z</time>
      </trkpt>
      <trkpt lat="38.3242170" lon="-0.6862650">
        <ele>225.7</ele>
        <time>2018-10-04T09:34:28Z</time>
      </trkpt>
      <trkpt lat="38.3241920" lon="-0.6863080">
        <ele>225.9</ele>
        <time>2018-10-04T09:34:29Z</time>
      </trkpt>
      <trkpt lat="38.3241690" lon="-0.6863530">
        <ele>225.9</ele>
        <time>2018-10-04T09:34:30Z</time>
      </trkpt>
      <trkpt lat="38.3241480" lon="-0.6864040">
        <ele>225.8</ele>
        <time>2018-10-04T09:34:31Z</time>
      </trkpt>
      <trkpt lat="38.3241340" lon="-0.6864610">
        <ele>226.1</ele>
        <time>2018-10-04T09:34:32Z</time>
      </trkpt>
      <trkpt lat="38.3241390" lon="-0.6865170">
        <ele>226.6</ele>
        <time>2018-10-04T09:34:33Z</time>
      </trkpt>
      <trkpt lat="38.3241560" lon="-0.6865740">
        <ele>227.3</ele>
        <time>2018-10-04T09:34:34Z</time>
      </trkpt>
      <trkpt lat="38.3241720" lon="-0.6866360">
        <ele>227.6</ele>
        <time>2018-10-04T09:34:35Z</time>
      </trkpt>
      <trkpt lat="38.3241970" lon="-0.6867010">
        <ele>228.7</ele>
        <time>2018-10-04T09:34:36Z</time>
      </trkpt>
      <trkpt lat="38.3242230" lon="-0.6867640">
        <ele>229.4</ele>
        <time>2018-10-04T09:34:37Z</time>
      </trkpt>
      <trkpt lat="38.3242420" lon="-0.6868320">
        <ele>229.9</ele>
        <time>2018-10-04T09:34:38Z</time>
      </trkpt>
      <trkpt lat="38.3242510" lon="-0.6869060">
        <ele>230.4</ele>
        <time>2018-10-04T09:34:39Z</time>
      </trkpt>
      <trkpt lat="38.3242530" lon="-0.6869770">
        <ele>231.1</ele>
        <time>2018-10-04T09:34:40Z</time>
      </trkpt>
      <trkpt lat="38.3242540" lon="-0.6870430">
        <ele>231.7</ele>
        <time>2018-10-04T09:34:41Z</time>
      </trkpt>
      <trkpt lat="38.3242540" lon="-0.6871060">
        <ele>231.9</ele>
        <time>2018-10-04T09:34:42Z</time>
      </trkpt>
      <trkpt lat="38.3242520" lon="-0.6871730">
        <ele>232.0</ele>
        <time>2018-10-04T09:34:43Z</time>
      </trkpt>
      <trkpt lat="38.3242450" lon="-0.6872460">
        <ele>232.2</ele>
        <time>2018-10-04T09:34:44Z</time>
      </trkpt>
      <trkpt lat="38.3242260" lon="-0.6873140">
        <ele>232.8</ele>
        <time>2018-10-04T09:34:45Z</time>
      </trkpt>
      <trkpt lat="38.3241910" lon="-0.6873700">
        <ele>232.5</ele>
        <time>2018-10-04T09:34:46Z</time>
      </trkpt>
      <trkpt lat="38.3241400" lon="-0.6874040">
        <ele>231.7</ele>
        <time>2018-10-04T09:34:47Z</time>
      </trkpt>
      <trkpt lat="38.3240820" lon="-0.6874220">
        <ele>231.1</ele>
        <time>2018-10-04T09:34:48Z</time>
      </trkpt>
      <trkpt lat="38.3240230" lon="-0.6874390">
        <ele>230.7</ele>
        <time>2018-10-04T09:34:49Z</time>
      </trkpt>
      <trkpt lat="38.3239730" lon="-0.6874750">
        <ele>230.4</ele>
        <time>2018-10-04T09:34:50Z</time>
      </trkpt>
      <trkpt lat="38.3239300" lon="-0.6875170">
        <ele>230.3</ele>
        <time>2018-10-04T09:34:51Z</time>
      </trkpt>
      <trkpt lat="38.3238920" lon="-0.6875600">
        <ele>230.1</ele>
        <time>2018-10-04T09:34:52Z</time>
      </trkpt>
      <trkpt lat="38.3238570" lon="-0.6876010">
        <ele>230.0</ele>
        <time>2018-10-04T09:34:53Z</time>
      </trkpt>
      <trkpt lat="38.3238220" lon="-0.6876410">
        <ele>229.9</ele>
        <time>2018-10-04T09:34:54Z</time>
      </trkpt>
      <trkpt lat="38.3238010" lon="-0.6876730">
        <ele>229.7</ele>
        <time>2018-10-04T09:34:55Z</time>
      </trkpt>
      <trkpt lat="38.3237930" lon="-0.6876980">
        <ele>229.7</ele>
        <time>2018-10-04T09:34:56Z</time>
      </trkpt>
      <trkpt lat="38.3237760" lon="-0.6877250">
        <ele>229.7</ele>
        <time>2018-10-04T09:34:57Z</time>
      </trkpt>
      <trkpt lat="38.3237530" lon="-0.6877530">
        <ele>229.7</ele>
        <time>2018-10-04T09:34:58Z</time>
      </trkpt>
      <trkpt lat="38.3237290" lon="-0.6877790">
        <ele>229.7</ele>
        <time>2018-10-04T09:34:59Z</time>
      </trkpt>
      <trkpt lat="38.3237030" lon="-0.6878040">
        <ele>229.7</ele>
        <time>2018-10-04T09:35:00Z</time>
      </trkpt>
      <trkpt lat="38.3236800" lon="-0.6878380">
        <ele>229.7</ele>
        <time>2018-10-04T09:35:01Z</time>
      </trkpt>
      <trkpt lat="38.3236560" lon="-0.6878720">
        <ele>229.7</ele>
        <time>2018-10-04T09:35:02Z</time>
      </trkpt>
      <trkpt lat="38.3236280" lon="-0.6879030">
        <ele>229.7</ele>
        <time>2018-10-04T09:35:03Z</time>
      </trkpt>
      <trkpt lat="38.3235980" lon="-0.6879320">
        <ele>229.7</ele>
        <time>2018-10-04T09:35:04Z</time>
      </trkpt>
      <trkpt lat="38.3235690" lon="-0.6879630">
        <ele>229.8</ele>
        <time>2018-10-04T09:35:05Z</time>
      </trkpt>
      <trkpt lat="38.3235410" lon="-0.6879980">
        <ele>229.9</ele>
        <time>2018-10-04T09:35:06Z</time>
      </trkpt>
      <trkpt lat="38.3235150" lon="-0.6880380">
        <ele>229.9</ele>
        <time>2018-10-04T09:35:07Z</time>
      </trkpt>
      <trkpt lat="38.3234930" lon="-0.6880820">
        <ele>230.1</ele>
        <time>2018-10-04T09:35:08Z</time>
      </trkpt>
      <trkpt lat="38.3234710" lon="-0.6881290">
        <ele>230.2</ele>
        <time>2018-10-04T09:35:09Z</time>
      </trkpt>
      <trkpt lat="38.3234490" lon="-0.6881760">
        <ele>230.4</ele>
        <time>2018-10-04T09:35:10Z</time>
      </trkpt>
      <trkpt lat="38.3234250" lon="-0.6882240">
        <ele>230.6</ele>
        <time>2018-10-04T09:35:11Z</time>
      </trkpt>
      <trkpt lat="38.3234020" lon="-0.6882730">
        <ele>230.8</ele>
        <time>2018-10-04T09:35:12Z</time>
      </trkpt>
      <trkpt lat="38.3233810" lon="-0.6883230">
        <ele>231.4</ele>
        <time>2018-10-04T09:35:13Z</time>
      </trkpt>
      <trkpt lat="38.3233620" lon="-0.6883720">
        <ele>231.7</ele>
        <time>2018-10-04T09:35:14Z</time>
      </trkpt>
      <trkpt lat="38.3233390" lon="-0.6884190">
        <ele>232.0</ele>
        <time>2018-10-04T09:35:15Z</time>
      </trkpt>
      <trkpt lat="38.3233160" lon="-0.6884650">
        <ele>232.4</ele>
        <time>2018-10-04T09:35:16Z</time>
      </trkpt>
      <trkpt lat="38.3232920" lon="-0.6885090">
        <ele>232.6</ele>
        <time>2018-10-04T09:35:17Z</time>
      </trkpt>
      <trkpt lat="38.3232640" lon="-0.6885500">
        <ele>232.8</ele>
        <time>2018-10-04T09:35:18Z</time>
      </trkpt>
      <trkpt lat="38.3232310" lon="-0.6885810">
        <ele>233.1</ele>
        <time>2018-10-04T09:35:19Z</time>
      </trkpt>
      <trkpt lat="38.3231930" lon="-0.6886030">
        <ele>233.0</ele>
        <time>2018-10-04T09:35:20Z</time>
      </trkpt>
      <trkpt lat="38.3231490" lon="-0.6886180">
        <ele>233.1</ele>
        <time>2018-10-04T09:35:21Z</time>
      </trkpt>
      <trkpt lat="38.3231000" lon="-0.6886220">
        <ele>233.5</ele>
        <time>2018-10-04T09:35:22Z</time>
      </trkpt>
      <trkpt lat="38.3230490" lon="-0.6886130">
        <ele>233.4</ele>
        <time>2018-10-04T09:35:23Z</time>
      </trkpt>
      <trkpt lat="38.3230000" lon="-0.6885920">
        <ele>233.7</ele>
        <time>2018-10-04T09:35:24Z</time>
      </trkpt>
      <trkpt lat="38.3229550" lon="-0.6885590">
        <ele>233.6</ele>
        <time>2018-10-04T09:35:25Z</time>
      </trkpt>
      <trkpt lat="38.3229240" lon="-0.6885130">
        <ele>233.6</ele>
        <time>2018-10-04T09:35:26Z</time>
      </trkpt>
      <trkpt lat="38.3229070" lon="-0.6884560">
        <ele>233.4</ele>
        <time>2018-10-04T09:35:27Z</time>
      </trkpt>
      <trkpt lat="38.3228980" lon="-0.6883990">
        <ele>233.2</ele>
        <time>2018-10-04T09:35:28Z</time>
      </trkpt>
      <trkpt lat="38.3229020" lon="-0.6883390">
        <ele>233.0</ele>
        <time>2018-10-04T09:35:29Z</time>
      </trkpt>
      <trkpt lat="38.3229140" lon="-0.6882850">
        <ele>232.5</ele>
        <time>2018-10-04T09:35:30Z</time>
      </trkpt>
      <trkpt lat="38.3229240" lon="-0.6882320">
        <ele>232.0</ele>
        <time>2018-10-04T09:35:31Z</time>
      </trkpt>
      <trkpt lat="38.3229300" lon="-0.6881790">
        <ele>231.8</ele>
        <time>2018-10-04T09:35:32Z</time>
      </trkpt>
      <trkpt lat="38.3229350" lon="-0.6881280">
        <ele>231.6</ele>
        <time>2018-10-04T09:35:33Z</time>
      </trkpt>
      <trkpt lat="38.3229380" lon="-0.6880790">
        <ele>231.4</ele>
        <time>2018-10-04T09:35:34Z</time>
      </trkpt>
      <trkpt lat="38.3229400" lon="-0.6880310">
        <ele>230.9</ele>
        <time>2018-10-04T09:35:35Z</time>
      </trkpt>
      <trkpt lat="38.3229410" lon="-0.6879850">
        <ele>230.7</ele>
        <time>2018-10-04T09:35:36Z</time>
      </trkpt>
      <trkpt lat="38.3229400" lon="-0.6879390">
        <ele>230.5</ele>
        <time>2018-10-04T09:35:37Z</time>
      </trkpt>
      <trkpt lat="38.3229380" lon="-0.6878940">
        <ele>230.6</ele>
        <time>2018-10-04T09:35:38Z</time>
      </trkpt>
      <trkpt lat="38.3229390" lon="-0.6878480">
        <ele>230.4</ele>
        <time>2018-10-04T09:35:39Z</time>
      </trkpt>
      <trkpt lat="38.3229430" lon="-0.6877980">
        <ele>229.7</ele>
        <time>2018-10-04T09:35:40Z</time>
      </trkpt>
      <trkpt lat="38.3229480" lon="-0.6877450">
        <ele>229.6</ele>
        <time>2018-10-04T09:35:41Z</time>
      </trkpt>
      <trkpt lat="38.3229530" lon="-0.6876900">
        <ele>229.4</ele>
        <time>2018-10-04T09:35:42Z</time>
      </trkpt>
      <trkpt lat="38.3229590" lon="-0.6876330">
        <ele>229.3</ele>
        <time>2018-10-04T09:35:43Z</time>
      </trkpt>
      <trkpt lat="38.3229650" lon="-0.6875770">
        <ele>229.2</ele>
        <time>2018-10-04T09:35:44Z</time>
      </trkpt>
      <trkpt lat="38.3229700" lon="-0.6875210">
        <ele>229.1</ele>
        <time>2018-10-04T09:35:45Z</time>
      </trkpt>
      <trkpt lat="38.3229740" lon="-0.6874650">
        <ele>228.6</ele>
        <time>2018-10-04T09:35:46Z</time>
      </trkpt>
      <trkpt lat="38.3229760" lon="-0.6874090">
        <ele>228.6</ele>
        <time>2018-10-04T09:35:47Z</time>
      </trkpt>
      <trkpt lat="38.3229760" lon="-0.6873520">
        <ele>228.6</ele>
        <time>2018-10-04T09:35:48Z</time>
      </trkpt>
      <trkpt lat="38.3229730" lon="-0.6872950">
        <ele>228.6</ele>
        <time>2018-10-04T09:35:49Z</time>
      </trkpt>
      <trkpt lat="38.3229690" lon="-0.6872400">
        <ele>229.0</ele>
        <time>2018-10-04T09:35:50Z</time>
      </trkpt>
      <trkpt lat="38.3229630" lon="-0.6871860">
        <ele>229.0</ele>
        <time>2018-10-04T09:35:51Z</time>
      </trkpt>
      <trkpt lat="38.3229580" lon="-0.6871330">
        <ele>228.9</ele>
        <time>2018-10-04T09:35:52Z</time>
      </trkpt>
      <trkpt lat="38.3229520" lon="-0.6870820">
        <ele>228.9</ele>
        <time>2018-10-04T09:35:53Z</time>
      </trkpt>
      <trkpt lat="38.3229450" lon="-0.6870320">
        <ele>228.9</ele>
        <time>2018-10-04T09:35:54Z</time>
      </trkpt>
      <trkpt lat="38.3229380" lon="-0.6869810">
        <ele>229.4</ele>
        <time>2018-10-04T09:35:55Z</time>
      </trkpt>
      <trkpt lat="38.3229280" lon="-0.6869320">
        <ele>229.4</ele>
        <time>2018-10-04T09:35:56Z</time>
      </trkpt>
      <trkpt lat="38.3229160" lon="-0.6868810">
        <ele>229.4</ele>
        <time>2018-10-04T09:35:57Z</time>
      </trkpt>
      <trkpt lat="38.3229030" lon="-0.6868310">
        <ele>229.9</ele>
        <time>2018-10-04T09:35:58Z</time>
      </trkpt>
      <trkpt lat="38.3228910" lon="-0.6867810">
        <ele>229.9</ele>
        <time>2018-10-04T09:35:59Z</time>
      </trkpt>
      <trkpt lat="38.3228800" lon="-0.6867300">
        <ele>230.1</ele>
        <time>2018-10-04T09:36:00Z</time>
      </trkpt>
      <trkpt lat="38.3228700" lon="-0.6866800">
        <ele>230.6</ele>
        <time>2018-10-04T09:36:01Z</time>
      </trkpt>
      <trkpt lat="38.3228590" lon="-0.6866310">
        <ele>230.7</ele>
        <time>2018-10-04T09:36:02Z</time>
      </trkpt>
      <trkpt lat="38.3228430" lon="-0.6865880">
        <ele>230.8</ele>
        <time>2018-10-04T09:36:03Z</time>
      </trkpt>
      <trkpt lat="38.3228240" lon="-0.6865550">
        <ele>231.2</ele>
        <time>2018-10-04T09:36:04Z</time>
      </trkpt>
      <trkpt lat="38.3228040" lon="-0.6865290">
        <ele>231.5</ele>
        <time>2018-10-04T09:36:05Z</time>
      </trkpt>
      <trkpt lat="38.3227850" lon="-0.6865060">
        <ele>231.5</ele>
        <time>2018-10-04T09:36:06Z</time>
      </trkpt>
      <trkpt lat="38.3227690" lon="-0.6864820">
        <ele>231.8</ele>
        <time>2018-10-04T09:36:07Z</time>
      </trkpt>
      <trkpt lat="38.3227540" lon="-0.6864610">
        <ele>231.7</ele>
        <time>2018-10-04T09:36:08Z</time>
      </trkpt>
      <trkpt lat="38.3227380" lon="-0.6864460">
        <ele>231.7</ele>
        <time>2018-10-04T09:36:09Z</time>
      </trkpt>
      <trkpt lat="38.3227200" lon="-0.6864340">
        <ele>232.0</ele>
        <time>2018-10-04T09:36:10Z</time>
      </trkpt>
      <trkpt lat="38.3227020" lon="-0.6864210">
        <ele>232.1</ele>
        <time>2018-10-04T09:36:11Z</time>
      </trkpt>
      <trkpt lat="38.3226860" lon="-0.6864080">
        <ele>232.1</ele>
        <time>2018-10-04T09:36:12Z</time>
      </trkpt>
      <trkpt lat="38.3226690" lon="-0.6863960">
        <ele>232.3</ele>
        <time>2018-10-04T09:36:13Z</time>
      </trkpt>
      <trkpt lat="38.3226500" lon="-0.6863920">
        <ele>232.3</ele>
        <time>2018-10-04T09:36:14Z</time>
      </trkpt>
      <trkpt lat="38.3226340" lon="-0.6863870">
        <ele>232.4</ele>
        <time>2018-10-04T09:36:15Z</time>
      </trkpt>
      <trkpt lat="38.3226160" lon="-0.6863780">
        <ele>232.4</ele>
        <time>2018-10-04T09:36:16Z</time>
      </trkpt>
      <trkpt lat="38.3225950" lon="-0.6863660">
        <ele>232.7</ele>
        <time>2018-10-04T09:36:17Z</time>
      </trkpt>
      <trkpt lat="38.3225730" lon="-0.6863560">
        <ele>232.7</ele>
        <time>2018-10-04T09:36:18Z</time>
      </trkpt>
      <trkpt lat="38.3225530" lon="-0.6863540">
        <ele>233.0</ele>
        <time>2018-10-04T09:36:19Z</time>
      </trkpt>
      <trkpt lat="38.3225330" lon="-0.6863520">
        <ele>233.4</ele>
        <time>2018-10-04T09:36:20Z</time>
      </trkpt>
      <trkpt lat="38.3225090" lon="-0.6863470">
        <ele>233.4</ele>
        <time>2018-10-04T09:36:21Z</time>
      </trkpt>
      <trkpt lat="38.3224880" lon="-0.6863390">
        <ele>233.6</ele>
        <time>2018-10-04T09:36:22Z</time>
      </trkpt>
      <trkpt lat="38.3224680" lon="-0.6863270">
        <ele>233.5</ele>
        <time>2018-10-04T09:36:23Z</time>
      </trkpt>
      <trkpt lat="38.3224480" lon="-0.6863150">
        <ele>233.9</ele>
        <time>2018-10-04T09:36:24Z</time>
      </trkpt>
      <trkpt lat="38.3224280" lon="-0.6863030">
        <ele>234.3</ele>
        <time>2018-10-04T09:36:25Z</time>
      </trkpt>
      <trkpt lat="38.3224070" lon="-0.6862920">
        <ele>234.0</ele>
        <time>2018-10-04T09:36:26Z</time>
      </trkpt>
      <trkpt lat="38.3223850" lon="-0.6862820">
        <ele>234.4</ele>
        <time>2018-10-04T09:36:27Z</time>
      </trkpt>
      <trkpt lat="38.3223580" lon="-0.6862710">
        <ele>234.8</ele>
        <time>2018-10-04T09:36:28Z</time>
      </trkpt>
      <trkpt lat="38.3223240" lon="-0.6862600">
        <ele>235.2</ele>
        <time>2018-10-04T09:36:29Z</time>
      </trkpt>
      <trkpt lat="38.3222830" lon="-0.6862510">
        <ele>235.3</ele>
        <time>2018-10-04T09:36:30Z</time>
      </trkpt>
      <trkpt lat="38.3222360" lon="-0.6862370">
        <ele>235.7</ele>
        <time>2018-10-04T09:36:31Z</time>
      </trkpt>
      <trkpt lat="38.3221830" lon="-0.6862180">
        <ele>236.6</ele>
        <time>2018-10-04T09:36:32Z</time>
      </trkpt>
      <trkpt lat="38.3221160" lon="-0.6861940">
        <ele>237.1</ele>
        <time>2018-10-04T09:36:33Z</time>
      </trkpt>
      <trkpt lat="38.3220350" lon="-0.6861560">
        <ele>237.5</ele>
        <time>2018-10-04T09:36:34Z</time>
      </trkpt>
      <trkpt lat="38.3219490" lon="-0.6861060">
        <ele>238.3</ele>
        <time>2018-10-04T09:36:35Z</time>
      </trkpt>
      <trkpt lat="38.3218640" lon="-0.6860590">
        <ele>238.4</ele>
        <time>2018-10-04T09:36:36Z</time>
      </trkpt>
      <trkpt lat="38.3217830" lon="-0.6860150">
        <ele>238.9</ele>
        <time>2018-10-04T09:36:37Z</time>
      </trkpt>
      <trkpt lat="38.3217060" lon="-0.6859700">
        <ele>239.0</ele>
        <time>2018-10-04T09:36:38Z</time>
      </trkpt>
      <trkpt lat="38.3216310" lon="-0.6859290">
        <ele>239.1</ele>
        <time>2018-10-04T09:36:39Z</time>
      </trkpt>
      <trkpt lat="38.3215620" lon="-0.6858910">
        <ele>239.0</ele>
        <time>2018-10-04T09:36:40Z</time>
      </trkpt>
      <trkpt lat="38.3215030" lon="-0.6858660">
        <ele>238.8</ele>
        <time>2018-10-04T09:36:41Z</time>
      </trkpt>
      <trkpt lat="38.3214560" lon="-0.6858430">
        <ele>239.1</ele>
        <time>2018-10-04T09:36:42Z</time>
      </trkpt>
      <trkpt lat="38.3214190" lon="-0.6858280">
        <ele>238.3</ele>
        <time>2018-10-04T09:36:43Z</time>
      </trkpt>
      <trkpt lat="38.3213870" lon="-0.6858140">
        <ele>238.3</ele>
        <time>2018-10-04T09:36:44Z</time>
      </trkpt>
      <trkpt lat="38.3213600" lon="-0.6858050">
        <ele>238.3</ele>
        <time>2018-10-04T09:36:45Z</time>
      </trkpt>
      <trkpt lat="38.3213350" lon="-0.6857980">
        <ele>238.2</ele>
        <time>2018-10-04T09:36:46Z</time>
      </trkpt>
      <trkpt lat="38.3213020" lon="-0.6857940">
        <ele>238.1</ele>
        <time>2018-10-04T09:36:47Z</time>
      </trkpt>
      <trkpt lat="38.3212670" lon="-0.6857980">
        <ele>237.9</ele>
        <time>2018-10-04T09:36:48Z</time>
      </trkpt>
      <trkpt lat="38.3212300" lon="-0.6858040">
        <ele>237.7</ele>
        <time>2018-10-04T09:36:49Z</time>
      </trkpt>
      <trkpt lat="38.3211950" lon="-0.6858050">
        <ele>237.5</ele>
        <time>2018-10-04T09:36:50Z</time>
      </trkpt>
      <trkpt lat="38.3211590" lon="-0.6857980">
        <ele>237.3</ele>
        <time>2018-10-04T09:36:51Z</time>
      </trkpt>
      <trkpt lat="38.3211150" lon="-0.6857950">
        <ele>236.6</ele>
        <time>2018-10-04T09:36:52Z</time>
      </trkpt>
      <trkpt lat="38.3210700" lon="-0.6858070">
        <ele>236.3</ele>
        <time>2018-10-04T09:36:53Z</time>
      </trkpt>
      <trkpt lat="38.3210240" lon="-0.6858260">
        <ele>235.8</ele>
        <time>2018-10-04T09:36:54Z</time>
      </trkpt>
      <trkpt lat="38.3209770" lon="-0.6858520">
        <ele>235.7</ele>
        <time>2018-10-04T09:36:55Z</time>
      </trkpt>
      <trkpt lat="38.3209270" lon="-0.6858770">
        <ele>235.9</ele>
        <time>2018-10-04T09:36:56Z</time>
      </trkpt>
      <trkpt lat="38.3208750" lon="-0.6859060">
        <ele>234.8</ele>
        <time>2018-10-04T09:36:57Z</time>
      </trkpt>
      <trkpt lat="38.3208290" lon="-0.6859490">
        <ele>234.7</ele>
        <time>2018-10-04T09:36:58Z</time>
      </trkpt>
      <trkpt lat="38.3207920" lon="-0.6859930">
        <ele>234.6</ele>
        <time>2018-10-04T09:36:59Z</time>
      </trkpt>
      <trkpt lat="38.3207600" lon="-0.6860450">
        <ele>234.9</ele>
        <time>2018-10-04T09:37:00Z</time>
      </trkpt>
      <trkpt lat="38.3207320" lon="-0.6861090">
        <ele>234.6</ele>
        <time>2018-10-04T09:37:01Z</time>
      </trkpt>
      <trkpt lat="38.3207000" lon="-0.6861870">
        <ele>234.7</ele>
        <time>2018-10-04T09:37:02Z</time>
      </trkpt>
      <trkpt lat="38.3206560" lon="-0.6862720">
        <ele>234.7</ele>
        <time>2018-10-04T09:37:03Z</time>
      </trkpt>
      <trkpt lat="38.3206120" lon="-0.6863600">
        <ele>233.3</ele>
        <time>2018-10-04T09:37:04Z</time>
      </trkpt>
      <trkpt lat="38.3205710" lon="-0.6864550">
        <ele>232.8</ele>
        <time>2018-10-04T09:37:05Z</time>
      </trkpt>
      <trkpt lat="38.3205200" lon="-0.6865520">
        <ele>232.4</ele>
        <time>2018-10-04T09:37:06Z</time>
      </trkpt>
      <trkpt lat="38.3204680" lon="-0.6866530">
        <ele>231.3</ele>
        <time>2018-10-04T09:37:07Z</time>
      </trkpt>
      <trkpt lat="38.3204110" lon="-0.6867530">
        <ele>229.9</ele>
        <time>2018-10-04T09:37:08Z</time>
      </trkpt>
      <trkpt lat="38.3203520" lon="-0.6868430">
        <ele>229.5</ele>
        <time>2018-10-04T09:37:09Z</time>
      </trkpt>
      <trkpt lat="38.3202960" lon="-0.6869320">
        <ele>228.1</ele>
        <time>2018-10-04T09:37:10Z</time>
      </trkpt>
      <trkpt lat="38.3202450" lon="-0.6870200">
        <ele>226.5</ele>
        <time>2018-10-04T09:37:11Z</time>
      </trkpt>
      <trkpt lat="38.3201960" lon="-0.6871070">
        <ele>226.0</ele>
        <time>2018-10-04T09:37:12Z</time>
      </trkpt>
      <trkpt lat="38.3201510" lon="-0.6872000">
        <ele>225.4</ele>
        <time>2018-10-04T09:37:13Z</time>
      </trkpt>
      <trkpt lat="38.3201100" lon="-0.6873010">
        <ele>223.8</ele>
        <time>2018-10-04T09:37:14Z</time>
      </trkpt>
      <trkpt lat="38.3200790" lon="-0.6874070">
        <ele>224.1</ele>
        <time>2018-10-04T09:37:15Z</time>
      </trkpt>
      <trkpt lat="38.3200380" lon="-0.6875120">
        <ele>224.2</ele>
        <time>2018-10-04T09:37:16Z</time>
      </trkpt>
      <trkpt lat="38.3199980" lon="-0.6876150">
        <ele>224.3</ele>
        <time>2018-10-04T09:37:17Z</time>
      </trkpt>
      <trkpt lat="38.3199750" lon="-0.6877220">
        <ele>224.3</ele>
        <time>2018-10-04T09:37:18Z</time>
      </trkpt>
      <trkpt lat="38.3199650" lon="-0.6878280">
        <ele>224.4</ele>
        <time>2018-10-04T09:37:19Z</time>
      </trkpt>
      <trkpt lat="38.3199640" lon="-0.6879290">
        <ele>224.5</ele>
        <time>2018-10-04T09:37:20Z</time>
      </trkpt>
      <trkpt lat="38.3199700" lon="-0.6880280">
        <ele>224.6</ele>
        <time>2018-10-04T09:37:21Z</time>
      </trkpt>
      <trkpt lat="38.3199810" lon="-0.6881250">
        <ele>224.7</ele>
        <time>2018-10-04T09:37:22Z</time>
      </trkpt>
      <trkpt lat="38.3199930" lon="-0.6882180">
        <ele>224.9</ele>
        <time>2018-10-04T09:37:23Z</time>
      </trkpt>
      <trkpt lat="38.3199980" lon="-0.6883120">
        <ele>225.2</ele>
        <time>2018-10-04T09:37:24Z</time>
      </trkpt>
      <trkpt lat="38.3200010" lon="-0.6884060">
        <ele>225.4</ele>
        <time>2018-10-04T09:37:25Z</time>
      </trkpt>
      <trkpt lat="38.3200030" lon="-0.6884990">
        <ele>225.7</ele>
        <time>2018-10-04T09:37:26Z</time>
      </trkpt>
      <trkpt lat="38.3199980" lon="-0.6885900">
        <ele>226.1</ele>
        <time>2018-10-04T09:37:27Z</time>
      </trkpt>
      <trkpt lat="38.3199910" lon="-0.6886770">
        <ele>226.4</ele>
        <time>2018-10-04T09:37:28Z</time>
      </trkpt>
      <trkpt lat="38.3199850" lon="-0.6887650">
        <ele>226.7</ele>
        <time>2018-10-04T09:37:29Z</time>
      </trkpt>
      <trkpt lat="38.3199780" lon="-0.6888520">
        <ele>226.9</ele>
        <time>2018-10-04T09:37:30Z</time>
      </trkpt>
      <trkpt lat="38.3199720" lon="-0.6889380">
        <ele>227.2</ele>
        <time>2018-10-04T09:37:31Z</time>
      </trkpt>
      <trkpt lat="38.3199660" lon="-0.6890220">
        <ele>227.4</ele>
        <time>2018-10-04T09:37:32Z</time>
      </trkpt>
      <trkpt lat="38.3199620" lon="-0.6891050">
        <ele>227.6</ele>
        <time>2018-10-04T09:37:33Z</time>
      </trkpt>
      <trkpt lat="38.3199570" lon="-0.6891890">
        <ele>227.7</ele>
        <time>2018-10-04T09:37:34Z</time>
      </trkpt>
      <trkpt lat="38.3199510" lon="-0.6892740">
        <ele>227.9</ele>
        <time>2018-10-04T09:37:35Z</time>
      </trkpt>
      <trkpt lat="38.3199450" lon="-0.6893590">
        <ele>228.1</ele>
        <time>2018-10-04T09:37:36Z</time>
      </trkpt>
      <trkpt lat="38.3199410" lon="-0.6894430">
        <ele>228.3</ele>
        <time>2018-10-04T09:37:37Z</time>
      </trkpt>
      <trkpt lat="38.3199380" lon="-0.6895270">
        <ele>228.6</ele>
        <time>2018-10-04T09:37:38Z</time>
      </trkpt>
      <trkpt lat="38.3199360" lon="-0.6896110">
        <ele>228.9</ele>
        <time>2018-10-04T09:37:39Z</time>
      </trkpt>
      <trkpt lat="38.3199330" lon="-0.6896940">
        <ele>229.2</ele>
        <time>2018-10-04T09:37:40Z</time>
      </trkpt>
      <trkpt lat="38.3199290" lon="-0.6897770">
        <ele>229.5</ele>
        <time>2018-10-04T09:37:41Z</time>
      </trkpt>
      <trkpt lat="38.3199240" lon="-0.6898580">
        <ele>229.8</ele>
        <time>2018-10-04T09:37:42Z</time>
      </trkpt>
      <trkpt lat="38.3199190" lon="-0.6899380">
        <ele>230.1</ele>
        <time>2018-10-04T09:37:43Z</time>
      </trkpt>
      <trkpt lat="38.3199130" lon="-0.6900160">
        <ele>230.4</ele>
        <time>2018-10-04T09:37:44Z</time>
      </trkpt>
      <trkpt lat="38.3199050" lon="-0.6900920">
        <ele>230.6</ele>
        <time>2018-10-04T09:37:45Z</time>
      </trkpt>
      <trkpt lat="38.3198960" lon="-0.6901670">
        <ele>230.9</ele>
        <time>2018-10-04T09:37:46Z</time>
      </trkpt>
      <trkpt lat="38.3198870" lon="-0.6902410">
        <ele>231.2</ele>
        <time>2018-10-04T09:37:47Z</time>
      </trkpt>
      <trkpt lat="38.3198780" lon="-0.6903140">
        <ele>231.5</ele>
        <time>2018-10-04T09:37:48Z</time>
      </trkpt>
      <trkpt lat="38.3198670" lon="-0.6903840">
        <ele>231.7</ele>
        <time>2018-10-04T09:37:49Z</time>
      </trkpt>
      <trkpt lat="38.3198580" lon="-0.6904550">
        <ele>232.0</ele>
        <time>2018-10-04T09:37:50Z</time>
      </trkpt>
      <trkpt lat="38.3198490" lon="-0.6905250">
        <ele>232.3</ele>
        <time>2018-10-04T09:37:51Z</time>
      </trkpt>
      <trkpt lat="38.3198390" lon="-0.6905950">
        <ele>232.5</ele>
        <time>2018-10-04T09:37:52Z</time>
      </trkpt>
      <trkpt lat="38.3198300" lon="-0.6906650">
        <ele>232.8</ele>
        <time>2018-10-04T09:37:53Z</time>
      </trkpt>
      <trkpt lat="38.3198200" lon="-0.6907340">
        <ele>233.0</ele>
        <time>2018-10-04T09:37:54Z</time>
      </trkpt>
      <trkpt lat="38.3198100" lon="-0.6908040">
        <ele>233.2</ele>
        <time>2018-10-04T09:37:55Z</time>
      </trkpt>
      <trkpt lat="38.3197990" lon="-0.6908740">
        <ele>233.4</ele>
        <time>2018-10-04T09:37:56Z</time>
      </trkpt>
      <trkpt lat="38.3197890" lon="-0.6909440">
        <ele>233.5</ele>
        <time>2018-10-04T09:37:57Z</time>
      </trkpt>
      <trkpt lat="38.3197790" lon="-0.6910130">
        <ele>233.6</ele>
        <time>2018-10-04T09:37:58Z</time>
      </trkpt>
      <trkpt lat="38.3197690" lon="-0.6910830">
        <ele>233.7</ele>
        <time>2018-10-04T09:37:59Z</time>
      </trkpt>
      <trkpt lat="38.3197570" lon="-0.6911520">
        <ele>233.8</ele>
        <time>2018-10-04T09:38:00Z</time>
      </trkpt>
      <trkpt lat="38.3197450" lon="-0.6912200">
        <ele>233.9</ele>
        <time>2018-10-04T09:38:01Z</time>
      </trkpt>
      <trkpt lat="38.3197330" lon="-0.6912870">
        <ele>234.0</ele>
        <time>2018-10-04T09:38:02Z</time>
      </trkpt>
      <trkpt lat="38.3197190" lon="-0.6913510">
        <ele>234.1</ele>
        <time>2018-10-04T09:38:03Z</time>
      </trkpt>
      <trkpt lat="38.3197060" lon="-0.6914140">
        <ele>234.2</ele>
        <time>2018-10-04T09:38:04Z</time>
      </trkpt>
      <trkpt lat="38.3196950" lon="-0.6914760">
        <ele>234.4</ele>
        <time>2018-10-04T09:38:05Z</time>
      </trkpt>
      <trkpt lat="38.3196840" lon="-0.6915350">
        <ele>234.5</ele>
        <time>2018-10-04T09:38:06Z</time>
      </trkpt>
      <trkpt lat="38.3196720" lon="-0.6915950">
        <ele>234.7</ele>
        <time>2018-10-04T09:38:07Z</time>
      </trkpt>
      <trkpt lat="38.3196610" lon="-0.6916540">
        <ele>234.9</ele>
        <time>2018-10-04T09:38:08Z</time>
      </trkpt>
      <trkpt lat="38.3196480" lon="-0.6917130">
        <ele>235.1</ele>
        <time>2018-10-04T09:38:09Z</time>
      </trkpt>
      <trkpt lat="38.3196360" lon="-0.6917700">
        <ele>235.3</ele>
        <time>2018-10-04T09:38:10Z</time>
      </trkpt>
      <trkpt lat="38.3196210" lon="-0.6918290">
        <ele>235.6</ele>
        <time>2018-10-04T09:38:11Z</time>
      </trkpt>
      <trkpt lat="38.3196000" lon="-0.6918850">
        <ele>235.8</ele>
        <time>2018-10-04T09:38:12Z</time>
      </trkpt>
      <trkpt lat="38.3195780" lon="-0.6919410">
        <ele>236.0</ele>
        <time>2018-10-04T09:38:13Z</time>
      </trkpt>
      <trkpt lat="38.3195560" lon="-0.6919950">
        <ele>236.2</ele>
        <time>2018-10-04T09:38:14Z</time>
      </trkpt>
      <trkpt lat="38.3195320" lon="-0.6920500">
        <ele>236.5</ele>
        <time>2018-10-04T09:38:15Z</time>
      </trkpt>
      <trkpt lat="38.3195080" lon="-0.6921050">
        <ele>236.7</ele>
        <time>2018-10-04T09:38:16Z</time>
      </trkpt>
      <trkpt lat="38.3194860" lon="-0.6921620">
        <ele>236.9</ele>
        <time>2018-10-04T09:38:17Z</time>
      </trkpt>
      <trkpt lat="38.3194680" lon="-0.6922220">
        <ele>237.2</ele>
        <time>2018-10-04T09:38:18Z</time>
      </trkpt>
      <trkpt lat="38.3194550" lon="-0.6922850">
        <ele>237.4</ele>
        <time>2018-10-04T09:38:19Z</time>
      </trkpt>
      <trkpt lat="38.3194440" lon="-0.6923480">
        <ele>237.6</ele>
        <time>2018-10-04T09:38:20Z</time>
      </trkpt>
      <trkpt lat="38.3194370" lon="-0.6924110">
        <ele>237.9</ele>
        <time>2018-10-04T09:38:21Z</time>
      </trkpt>
      <trkpt lat="38.3194320" lon="-0.6924730">
        <ele>238.1</ele>
        <time>2018-10-04T09:38:22Z</time>
      </trkpt>
      <trkpt lat="38.3194250" lon="-0.6925330">
        <ele>238.3</ele>
        <time>2018-10-04T09:38:23Z</time>
      </trkpt>
      <trkpt lat="38.3194170" lon="-0.6925920">
        <ele>238.5</ele>
        <time>2018-10-04T09:38:24Z</time>
      </trkpt>
      <trkpt lat="38.3194090" lon="-0.6926500">
        <ele>238.7</ele>
        <time>2018-10-04T09:38:25Z</time>
      </trkpt>
      <trkpt lat="38.3194010" lon="-0.6927070">
        <ele>238.9</ele>
        <time>2018-10-04T09:38:26Z</time>
      </trkpt>
      <trkpt lat="38.3193940" lon="-0.6927650">
        <ele>239.1</ele>
        <time>2018-10-04T09:38:27Z</time>
      </trkpt>
      <trkpt lat="38.3193900" lon="-0.6928210">
        <ele>239.2</ele>
        <time>2018-10-04T09:38:28Z</time>
      </trkpt>
      <trkpt lat="38.3193850" lon="-0.6928770">
        <ele>239.4</ele>
        <time>2018-10-04T09:38:29Z</time>
      </trkpt>
      <trkpt lat="38.3193790" lon="-0.6929320">
        <ele>239.5</ele>
        <time>2018-10-04T09:38:30Z</time>
      </trkpt>
      <trkpt lat="38.3193710" lon="-0.6929850">
        <ele>239.6</ele>
        <time>2018-10-04T09:38:31Z</time>
      </trkpt>
      <trkpt lat="38.3193640" lon="-0.6930390">
        <ele>239.6</ele>
        <time>2018-10-04T09:38:32Z</time>
      </trkpt>
      <trkpt lat="38.3193550" lon="-0.6930930">
        <ele>239.7</ele>
        <time>2018-10-04T09:38:33Z</time>
      </trkpt>
      <trkpt lat="38.3193440" lon="-0.6931480">
        <ele>239.8</ele>
        <time>2018-10-04T09:38:34Z</time>
      </trkpt>
      <trkpt lat="38.3193330" lon="-0.6932030">
        <ele>239.8</ele>
        <time>2018-10-04T09:38:35Z</time>
      </trkpt>
      <trkpt lat="38.3193210" lon="-0.6932560">
        <ele>239.9</ele>
        <time>2018-10-04T09:38:36Z</time>
      </trkpt>
      <trkpt lat="38.3193070" lon="-0.6933070">
        <ele>239.9</ele>
        <time>2018-10-04T09:38:37Z</time>
      </trkpt>
      <trkpt lat="38.3192900" lon="-0.6933560">
        <ele>240.0</ele>
        <time>2018-10-04T09:38:38Z</time>
      </trkpt>
      <trkpt lat="38.3192710" lon="-0.6934050">
        <ele>240.0</ele>
        <time>2018-10-04T09:38:39Z</time>
      </trkpt>
      <trkpt lat="38.3192470" lon="-0.6934520">
        <ele>240.1</ele>
        <time>2018-10-04T09:38:40Z</time>
      </trkpt>
      <trkpt lat="38.3192170" lon="-0.6934890">
        <ele>240.1</ele>
        <time>2018-10-04T09:38:41Z</time>
      </trkpt>
      <trkpt lat="38.3191770" lon="-0.6935170">
        <ele>240.2</ele>
        <time>2018-10-04T09:38:42Z</time>
      </trkpt>
      <trkpt lat="38.3191350" lon="-0.6935350">
        <ele>240.3</ele>
        <time>2018-10-04T09:38:43Z</time>
      </trkpt>
      <trkpt lat="38.3190910" lon="-0.6935470">
        <ele>240.3</ele>
        <time>2018-10-04T09:38:44Z</time>
      </trkpt>
      <trkpt lat="38.3190460" lon="-0.6935550">
        <ele>240.4</ele>
        <time>2018-10-04T09:38:45Z</time>
      </trkpt>
      <trkpt lat="38.3189990" lon="-0.6935610">
        <ele>240.4</ele>
        <time>2018-10-04T09:38:46Z</time>
      </trkpt>
      <trkpt lat="38.3189520" lon="-0.6935640">
        <ele>240.5</ele>
        <time>2018-10-04T09:38:47Z</time>
      </trkpt>
      <trkpt lat="38.3189040" lon="-0.6935650">
        <ele>240.6</ele>
        <time>2018-10-04T09:38:48Z</time>
      </trkpt>
      <trkpt lat="38.3188540" lon="-0.6935660">
        <ele>240.7</ele>
        <time>2018-10-04T09:38:49Z</time>
      </trkpt>
      <trkpt lat="38.3188050" lon="-0.6935660">
        <ele>240.7</ele>
        <time>2018-10-04T09:38:50Z</time>
      </trkpt>
      <trkpt lat="38.3187540" lon="-0.6935670">
        <ele>240.8</ele>
        <time>2018-10-04T09:38:51Z</time>
      </trkpt>
      <trkpt lat="38.3187000" lon="-0.6935660">
        <ele>240.9</ele>
        <time>2018-10-04T09:38:52Z</time>
      </trkpt>
      <trkpt lat="38.3186480" lon="-0.6935640">
        <ele>241.0</ele>
        <time>2018-10-04T09:38:53Z</time>
      </trkpt>
      <trkpt lat="38.3185960" lon="-0.6935630">
        <ele>241.1</ele>
        <time>2018-10-04T09:38:54Z</time>
      </trkpt>
      <trkpt lat="38.3185440" lon="-0.6935650">
        <ele>241.2</ele>
        <time>2018-10-04T09:38:55Z</time>
      </trkpt>
      <trkpt lat="38.3184920" lon="-0.6935680">
        <ele>241.3</ele>
        <time>2018-10-04T09:38:56Z</time>
      </trkpt>
      <trkpt lat="38.3184390" lon="-0.6935730">
        <ele>241.4</ele>
        <time>2018-10-04T09:38:57Z</time>
      </trkpt>
      <trkpt lat="38.3183850" lon="-0.6935790">
        <ele>241.5</ele>
        <time>2018-10-04T09:38:58Z</time>
      </trkpt>
      <trkpt lat="38.3183310" lon="-0.6935830">
        <ele>241.6</ele>
        <time>2018-10-04T09:38:59Z</time>
      </trkpt>
      <trkpt lat="38.3182760" lon="-0.6935840">
        <ele>241.7</ele>
        <time>2018-10-04T09:39:00Z</time>
      </trkpt>
      <trkpt lat="38.3182210" lon="-0.6935850">
        <ele>241.9</ele>
        <time>2018-10-04T09:39:01Z</time>
      </trkpt>
      <trkpt lat="38.3181670" lon="-0.6935860">
        <ele>242.1</ele>
        <time>2018-10-04T09:39:02Z</time>
      </trkpt>
      <trkpt lat="38.3181140" lon="-0.6935880">
        <ele>242.4</ele>
        <time>2018-10-04T09:39:03Z</time>
      </trkpt>
      <trkpt lat="38.3180600" lon="-0.6935940">
        <ele>243.0</ele>
        <time>2018-10-04T09:39:04Z</time>
      </trkpt>
      <trkpt lat="38.3180080" lon="-0.6936020">
        <ele>242.9</ele>
        <time>2018-10-04T09:39:05Z</time>
      </trkpt>
      <trkpt lat="38.3179570" lon="-0.6936170">
        <ele>242.9</ele>
        <time>2018-10-04T09:39:06Z</time>
      </trkpt>
      <trkpt lat="38.3179090" lon="-0.6936370">
        <ele>242.8</ele>
        <time>2018-10-04T09:39:07Z</time>
      </trkpt>
      <trkpt lat="38.3178640" lon="-0.6936620">
        <ele>242.8</ele>
        <time>2018-10-04T09:39:08Z</time>
      </trkpt>
      <trkpt lat="38.3178200" lon="-0.6936870">
        <ele>242.9</ele>
        <time>2018-10-04T09:39:09Z</time>
      </trkpt>
      <trkpt lat="38.3177790" lon="-0.6937120">
        <ele>243.0</ele>
        <time>2018-10-04T09:39:10Z</time>
      </trkpt>
      <trkpt lat="38.3177410" lon="-0.6937360">
        <ele>243.1</ele>
        <time>2018-10-04T09:39:11Z</time>
      </trkpt>
      <trkpt lat="38.3177050" lon="-0.6937580">
        <ele>243.2</ele>
        <time>2018-10-04T09:39:12Z</time>
      </trkpt>
      <trkpt lat="38.3176710" lon="-0.6937810">
        <ele>243.2</ele>
        <time>2018-10-04T09:39:13Z</time>
      </trkpt>
      <trkpt lat="38.3176350" lon="-0.6938050">
        <ele>243.3</ele>
        <time>2018-10-04T09:39:14Z</time>
      </trkpt>
      <trkpt lat="38.3175980" lon="-0.6938260">
        <ele>243.4</ele>
        <time>2018-10-04T09:39:15Z</time>
      </trkpt>
      <trkpt lat="38.3175590" lon="-0.6938460">
        <ele>243.5</ele>
        <time>2018-10-04T09:39:16Z</time>
      </trkpt>
      <trkpt lat="38.3175230" lon="-0.6938680">
        <ele>243.6</ele>
        <time>2018-10-04T09:39:17Z</time>
      </trkpt>
      <trkpt lat="38.3174870" lon="-0.6938920">
        <ele>243.7</ele>
        <time>2018-10-04T09:39:18Z</time>
      </trkpt>
      <trkpt lat="38.3174510" lon="-0.6939140">
        <ele>243.8</ele>
        <time>2018-10-04T09:39:19Z</time>
      </trkpt>
      <trkpt lat="38.3174150" lon="-0.6939330">
        <ele>243.9</ele>
        <time>2018-10-04T09:39:20Z</time>
      </trkpt>
      <trkpt lat="38.3173840" lon="-0.6939490">
        <ele>244.0</ele>
        <time>2018-10-04T09:39:21Z</time>
      </trkpt>
      <trkpt lat="38.3173530" lon="-0.6939630">
        <ele>244.1</ele>
        <time>2018-10-04T09:39:22Z</time>
      </trkpt>
      <trkpt lat="38.3173210" lon="-0.6939760">
        <ele>244.2</ele>
        <time>2018-10-04T09:39:23Z</time>
      </trkpt>
      <trkpt lat="38.3172870" lon="-0.6939880">
        <ele>244.3</ele>
        <time>2018-10-04T09:39:24Z</time>
      </trkpt>
      <trkpt lat="38.3172520" lon="-0.6939990">
        <ele>244.4</ele>
        <time>2018-10-04T09:39:25Z</time>
      </trkpt>
      <trkpt lat="38.3172180" lon="-0.6940120">
        <ele>244.5</ele>
        <time>2018-10-04T09:39:26Z</time>
      </trkpt>
      <trkpt lat="38.3171820" lon="-0.6940240">
        <ele>244.6</ele>
        <time>2018-10-04T09:39:27Z</time>
      </trkpt>
      <trkpt lat="38.3171450" lon="-0.6940330">
        <ele>244.7</ele>
        <time>2018-10-04T09:39:28Z</time>
      </trkpt>
      <trkpt lat="38.3171080" lon="-0.6940400">
        <ele>244.8</ele>
        <time>2018-10-04T09:39:29Z</time>
      </trkpt>
      <trkpt lat="38.3170700" lon="-0.6940450">
        <ele>244.9</ele>
        <time>2018-10-04T09:39:30Z</time>
      </trkpt>
      <trkpt lat="38.3170320" lon="-0.6940460">
        <ele>245.0</ele>
        <time>2018-10-04T09:39:31Z</time>
      </trkpt>
      <trkpt lat="38.3169930" lon="-0.6940470">
        <ele>245.1</ele>
        <time>2018-10-04T09:39:32Z</time>
      </trkpt>
      <trkpt lat="38.3169530" lon="-0.6940420">
        <ele>245.3</ele>
        <time>2018-10-04T09:39:33Z</time>
      </trkpt>
      <trkpt lat="38.3169120" lon="-0.6940330">
        <ele>245.4</ele>
        <time>2018-10-04T09:39:34Z</time>
      </trkpt>
      <trkpt lat="38.3168700" lon="-0.6940200">
        <ele>245.5</ele>
        <time>2018-10-04T09:39:35Z</time>
      </trkpt>
      <trkpt lat="38.3168280" lon="-0.6940030">
        <ele>245.6</ele>
        <time>2018-10-04T09:39:36Z</time>
      </trkpt>
      <trkpt lat="38.3167870" lon="-0.6939820">
        <ele>245.6</ele>
        <time>2018-10-04T09:39:37Z</time>
      </trkpt>
      <trkpt lat="38.3167430" lon="-0.6939620">
        <ele>245.6</ele>
        <time>2018-10-04T09:39:38Z</time>
      </trkpt>
      <trkpt lat="38.3166970" lon="-0.6939430">
        <ele>245.6</ele>
        <time>2018-10-04T09:39:39Z</time>
      </trkpt>
      <trkpt lat="38.3166510" lon="-0.6939220">
        <ele>245.5</ele>
        <time>2018-10-04T09:39:40Z</time>
      </trkpt>
      <trkpt lat="38.3166030" lon="-0.6938980">
        <ele>245.4</ele>
        <time>2018-10-04T09:39:41Z</time>
      </trkpt>
      <trkpt lat="38.3165540" lon="-0.6938720">
        <ele>245.3</ele>
        <time>2018-10-04T09:39:42Z</time>
      </trkpt>
      <trkpt lat="38.3165030" lon="-0.6938430">
        <ele>245.2</ele>
        <time>2018-10-04T09:39:43Z</time>
      </trkpt>
      <trkpt lat="38.3164500" lon="-0.6938140">
        <ele>245.1</ele>
        <time>2018-10-04T09:39:44Z</time>
      </trkpt>
      <trkpt lat="38.3163930" lon="-0.6937820">
        <ele>244.9</ele>
        <time>2018-10-04T09:39:45Z</time>
      </trkpt>
      <trkpt lat="38.3163300" lon="-0.6937490">
        <ele>244.7</ele>
        <time>2018-10-04T09:39:46Z</time>
      </trkpt>
      <trkpt lat="38.3162640" lon="-0.6937180">
        <ele>244.4</ele>
        <time>2018-10-04T09:39:47Z</time>
      </trkpt>
      <trkpt lat="38.3161930" lon="-0.6936900">
        <ele>244.1</ele>
        <time>2018-10-04T09:39:48Z</time>
      </trkpt>
      <trkpt lat="38.3161200" lon="-0.6936600">
        <ele>243.6</ele>
        <time>2018-10-04T09:39:49Z</time>
      </trkpt>
      <trkpt lat="38.3160470" lon="-0.6936290">
        <ele>243.2</ele>
        <time>2018-10-04T09:39:50Z</time>
      </trkpt>
      <trkpt lat="38.3159740" lon="-0.6935970">
        <ele>242.7</ele>
        <time>2018-10-04T09:39:51Z</time>
      </trkpt>
      <trkpt lat="38.3159010" lon="-0.6935660">
        <ele>242.2</ele>
        <time>2018-10-04T09:39:52Z</time>
      </trkpt>
      <trkpt lat="38.3158260" lon="-0.6935370">
        <ele>241.7</ele>
        <time>2018-10-04T09:39:53Z</time>
      </trkpt>
      <trkpt lat="38.3157510" lon="-0.6935090">
        <ele>241.2</ele>
        <time>2018-10-04T09:39:54Z</time>
      </trkpt>
      <trkpt lat="38.3156760" lon="-0.6934810">
        <ele>240.7</ele>
        <time>2018-10-04T09:39:55Z</time>
      </trkpt>
      <trkpt lat="38.3156000" lon="-0.6934550">
        <ele>240.2</ele>
        <time>2018-10-04T09:39:56Z</time>
      </trkpt>
      <trkpt lat="38.3155200" lon="-0.6934340">
        <ele>239.7</ele>
        <time>2018-10-04T09:39:57Z</time>
      </trkpt>
      <trkpt lat="38.3154370" lon="-0.6934250">
        <ele>239.1</ele>
        <time>2018-10-04T09:39:58Z</time>
      </trkpt>
      <trkpt lat="38.3153520" lon="-0.6934390">
        <ele>238.6</ele>
        <time>2018-10-04T09:39:59Z</time>
      </trkpt>
      <trkpt lat="38.3152610" lon="-0.6934710">
        <ele>238.0</ele>
        <time>2018-10-04T09:40:00Z</time>
      </trkpt>
      <trkpt lat="38.3151630" lon="-0.6935000">
        <ele>237.9</ele>
        <time>2018-10-04T09:40:01Z</time>
      </trkpt>
      <trkpt lat="38.3150660" lon="-0.6935200">
        <ele>237.6</ele>
        <time>2018-10-04T09:40:02Z</time>
      </trkpt>
      <trkpt lat="38.3149660" lon="-0.6935320">
        <ele>237.1</ele>
        <time>2018-10-04T09:40:03Z</time>
      </trkpt>
      <trkpt lat="38.3148670" lon="-0.6935410">
        <ele>236.4</ele>
        <time>2018-10-04T09:40:04Z</time>
      </trkpt>
      <trkpt lat="38.3147700" lon="-0.6935480">
        <ele>235.8</ele>
        <time>2018-10-04T09:40:05Z</time>
      </trkpt>
      <trkpt lat="38.3146740" lon="-0.6935550">
        <ele>235.1</ele>
        <time>2018-10-04T09:40:06Z</time>
      </trkpt>
      <trkpt lat="38.3145790" lon="-0.6935630">
        <ele>234.4</ele>
        <time>2018-10-04T09:40:07Z</time>
      </trkpt>
      <trkpt lat="38.3144860" lon="-0.6935680">
        <ele>233.7</ele>
        <time>2018-10-04T09:40:08Z</time>
      </trkpt>
      <trkpt lat="38.3143940" lon="-0.6935670">
        <ele>233.3</ele>
        <time>2018-10-04T09:40:09Z</time>
      </trkpt>
      <trkpt lat="38.3143040" lon="-0.6935620">
        <ele>232.8</ele>
        <time>2018-10-04T09:40:10Z</time>
      </trkpt>
      <trkpt lat="38.3142140" lon="-0.6935540">
        <ele>232.2</ele>
        <time>2018-10-04T09:40:11Z</time>
      </trkpt>
      <trkpt lat="38.3141240" lon="-0.6935380">
        <ele>231.5</ele>
        <time>2018-10-04T09:40:12Z</time>
      </trkpt>
      <trkpt lat="38.3140350" lon="-0.6935130">
        <ele>231.0</ele>
        <time>2018-10-04T09:40:13Z</time>
      </trkpt>
      <trkpt lat="38.3139470" lon="-0.6934820">
        <ele>230.6</ele>
        <time>2018-10-04T09:40:14Z</time>
      </trkpt>
      <trkpt lat="38.3138620" lon="-0.6934450">
        <ele>230.1</ele>
        <time>2018-10-04T09:40:15Z</time>
      </trkpt>
      <trkpt lat="38.3137780" lon="-0.6934060">
        <ele>229.4</ele>
        <time>2018-10-04T09:40:16Z</time>
      </trkpt>
      <trkpt lat="38.3136950" lon="-0.6933690">
        <ele>228.5</ele>
        <time>2018-10-04T09:40:17Z</time>
      </trkpt>
      <trkpt lat="38.3136120" lon="-0.6933340">
        <ele>227.6</ele>
        <time>2018-10-04T09:40:18Z</time>
      </trkpt>
      <trkpt lat="38.3135260" lon="-0.6933160">
        <ele>226.8</ele>
        <time>2018-10-04T09:40:19Z</time>
      </trkpt>
      <trkpt lat="38.3134390" lon="-0.6933130">
        <ele>226.4</ele>
        <time>2018-10-04T09:40:20Z</time>
      </trkpt>
      <trkpt lat="38.3133500" lon="-0.6933230">
        <ele>226.1</ele>
        <time>2018-10-04T09:40:21Z</time>
      </trkpt>
      <trkpt lat="38.3132620" lon="-0.6933530">
        <ele>225.7</ele>
        <time>2018-10-04T09:40:22Z</time>
      </trkpt>
      <trkpt lat="38.3131870" lon="-0.6934030">
        <ele>225.1</ele>
        <time>2018-10-04T09:40:23Z</time>
      </trkpt>
      <trkpt lat="38.3131200" lon="-0.6934610">
        <ele>224.6</ele>
        <time>2018-10-04T09:40:24Z</time>
      </trkpt>
      <trkpt lat="38.3130700" lon="-0.6935340">
        <ele>224.1</ele>
        <time>2018-10-04T09:40:25Z</time>
      </trkpt>
      <trkpt lat="38.3130410" lon="-0.6936060">
        <ele>223.8</ele>
        <time>2018-10-04T09:40:26Z</time>
      </trkpt>
      <trkpt lat="38.3129980" lon="-0.6936640">
        <ele>223.5</ele>
        <time>2018-10-04T09:40:27Z</time>
      </trkpt>
      <trkpt lat="38.3129590" lon="-0.6936870">
        <ele>223.3</ele>
        <time>2018-10-04T09:40:28Z</time>
      </trkpt>
      <trkpt lat="38.3129010" lon="-0.6936900">
        <ele>222.9</ele>
        <time>2018-10-04T09:40:29Z</time>
      </trkpt>
      <trkpt lat="38.3128410" lon="-0.6936720">
        <ele>222.4</ele>
        <time>2018-10-04T09:40:30Z</time>
      </trkpt>
      <trkpt lat="38.3127820" lon="-0.6936460">
        <ele>221.9</ele>
        <time>2018-10-04T09:40:31Z</time>
      </trkpt>
      <trkpt lat="38.3127230" lon="-0.6936100">
        <ele>221.4</ele>
        <time>2018-10-04T09:40:32Z</time>
      </trkpt>
      <trkpt lat="38.3126600" lon="-0.6935710">
        <ele>220.8</ele>
        <time>2018-10-04T09:40:33Z</time>
      </trkpt>
      <trkpt lat="38.3125950" lon="-0.6935300">
        <ele>220.2</ele>
        <time>2018-10-04T09:40:34Z</time>
      </trkpt>
      <trkpt lat="38.3125280" lon="-0.6935020">
        <ele>219.6</ele>
        <time>2018-10-04T09:40:35Z</time>
      </trkpt>
      <trkpt lat="38.3124630" lon="-0.6935020">
        <ele>219.0</ele>
        <time>2018-10-04T09:40:36Z</time>
      </trkpt>
      <trkpt lat="38.3124110" lon="-0.6935320">
        <ele>218.5</ele>
        <time>2018-10-04T09:40:37Z</time>
      </trkpt>
      <trkpt lat="38.3123650" lon="-0.6935950">
        <ele>217.9</ele>
        <time>2018-10-04T09:40:38Z</time>
      </trkpt>
      <trkpt lat="38.3123480" lon="-0.6936680">
        <ele>217.4</ele>
        <time>2018-10-04T09:40:39Z</time>
      </trkpt>
      <trkpt lat="38.3123450" lon="-0.6937410">
        <ele>217.1</ele>
        <time>2018-10-04T09:40:40Z</time>
      </trkpt>
      <trkpt lat="38.3123160" lon="-0.6938120">
        <ele>216.8</ele>
        <time>2018-10-04T09:40:41Z</time>
      </trkpt>
      <trkpt lat="38.3122680" lon="-0.6938630">
        <ele>216.7</ele>
        <time>2018-10-04T09:40:42Z</time>
      </trkpt>
      <trkpt lat="38.3122040" lon="-0.6938940">
        <ele>216.5</ele>
        <time>2018-10-04T09:40:43Z</time>
      </trkpt>
      <trkpt lat="38.3121310" lon="-0.6938930">
        <ele>216.2</ele>
        <time>2018-10-04T09:40:44Z</time>
      </trkpt>
      <trkpt lat="38.3120580" lon="-0.6938700">
        <ele>215.8</ele>
        <time>2018-10-04T09:40:45Z</time>
      </trkpt>
      <trkpt lat="38.3119940" lon="-0.6938240">
        <ele>215.3</ele>
        <time>2018-10-04T09:40:46Z</time>
      </trkpt>
      <trkpt lat="38.3119320" lon="-0.6937680">
        <ele>214.8</ele>
        <time>2018-10-04T09:40:47Z</time>
      </trkpt>
      <trkpt lat="38.3118740" lon="-0.6937090">
        <ele>214.4</ele>
        <time>2018-10-04T09:40:48Z</time>
      </trkpt>
      <trkpt lat="38.3118110" lon="-0.6936530">
        <ele>214.0</ele>
        <time>2018-10-04T09:40:49Z</time>
      </trkpt>
      <trkpt lat="38.3117500" lon="-0.6935960">
        <ele>213.6</ele>
        <time>2018-10-04T09:40:50Z</time>
      </trkpt>
      <trkpt lat="38.3116860" lon="-0.6935400">
        <ele>213.1</ele>
        <time>2018-10-04T09:40:51Z</time>
      </trkpt>
      <trkpt lat="38.3116210" lon="-0.6934850">
        <ele>212.5</ele>
        <time>2018-10-04T09:40:52Z</time>
      </trkpt>
      <trkpt lat="38.3115590" lon="-0.6934250">
        <ele>212.1</ele>
        <time>2018-10-04T09:40:53Z</time>
      </trkpt>
      <trkpt lat="38.3115000" lon="-0.6933550">
        <ele>211.8</ele>
        <time>2018-10-04T09:40:54Z</time>
      </trkpt>
      <trkpt lat="38.3114490" lon="-0.6932750">
        <ele>211.3</ele>
        <time>2018-10-04T09:40:55Z</time>
      </trkpt>
      <trkpt lat="38.3113980" lon="-0.6931970">
        <ele>210.8</ele>
        <time>2018-10-04T09:40:56Z</time>
      </trkpt>
      <trkpt lat="38.3113450" lon="-0.6931200">
        <ele>210.2</ele>
        <time>2018-10-04T09:40:57Z</time>
      </trkpt>
      <trkpt lat="38.3112820" lon="-0.6930530">
        <ele>209.6</ele>
        <time>2018-10-04T09:40:58Z</time>
      </trkpt>
      <trkpt lat="38.3112120" lon="-0.6929920">
        <ele>208.9</ele>
        <time>2018-10-04T09:40:59Z</time>
      </trkpt>
      <trkpt lat="38.3111380" lon="-0.6929350">
        <ele>208.2</ele>
        <time>2018-10-04T09:41:00Z</time>
      </trkpt>
      <trkpt lat="38.3110560" lon="-0.6928870">
        <ele>207.5</ele>
        <time>2018-10-04T09:41:01Z</time>
      </trkpt>
      <trkpt lat="38.3109680" lon="-0.6928530">
        <ele>207.1</ele>
        <time>2018-10-04T09:41:02Z</time>
      </trkpt>
      <trkpt lat="38.3108790" lon="-0.6928280">
        <ele>206.9</ele>
        <time>2018-10-04T09:41:03Z</time>
      </trkpt>
      <trkpt lat="38.3107940" lon="-0.6928130">
        <ele>206.5</ele>
        <time>2018-10-04T09:41:04Z</time>
      </trkpt>
      <trkpt lat="38.3107210" lon="-0.6928160">
        <ele>206.1</ele>
        <time>2018-10-04T09:41:05Z</time>
      </trkpt>
      <trkpt lat="38.3106530" lon="-0.6928330">
        <ele>205.5</ele>
        <time>2018-10-04T09:41:06Z</time>
      </trkpt>
      <trkpt lat="38.3105870" lon="-0.6928340">
        <ele>205.0</ele>
        <time>2018-10-04T09:41:07Z</time>
      </trkpt>
      <trkpt lat="38.3105290" lon="-0.6928140">
        <ele>204.7</ele>
        <time>2018-10-04T09:41:08Z</time>
      </trkpt>
      <trkpt lat="38.3104760" lon="-0.6927800">
        <ele>204.4</ele>
        <time>2018-10-04T09:41:09Z</time>
      </trkpt>
      <trkpt lat="38.3104350" lon="-0.6927290">
        <ele>204.1</ele>
        <time>2018-10-04T09:41:10Z</time>
      </trkpt>
      <trkpt lat="38.3104080" lon="-0.6926630">
        <ele>203.8</ele>
        <time>2018-10-04T09:41:11Z</time>
      </trkpt>
      <trkpt lat="38.3103970" lon="-0.6925840">
        <ele>203.3</ele>
        <time>2018-10-04T09:41:12Z</time>
      </trkpt>
      <trkpt lat="38.3103960" lon="-0.6924980">
        <ele>202.8</ele>
        <time>2018-10-04T09:41:13Z</time>
      </trkpt>
      <trkpt lat="38.3103890" lon="-0.6924060">
        <ele>202.3</ele>
        <time>2018-10-04T09:41:14Z</time>
      </trkpt>
      <trkpt lat="38.3103670" lon="-0.6923220">
        <ele>201.8</ele>
        <time>2018-10-04T09:41:15Z</time>
      </trkpt>
      <trkpt lat="38.3103240" lon="-0.6922510">
        <ele>201.2</ele>
        <time>2018-10-04T09:41:16Z</time>
      </trkpt>
      <trkpt lat="38.3102560" lon="-0.6922000">
        <ele>200.7</ele>
        <time>2018-10-04T09:41:17Z</time>
      </trkpt>
      <trkpt lat="38.3101820" lon="-0.6921610">
        <ele>200.2</ele>
        <time>2018-10-04T09:41:18Z</time>
      </trkpt>
      <trkpt lat="38.3101110" lon="-0.6921170">
        <ele>199.9</ele>
        <time>2018-10-04T09:41:19Z</time>
      </trkpt>
      <trkpt lat="38.3100410" lon="-0.6920650">
        <ele>199.8</ele>
        <time>2018-10-04T09:41:20Z</time>
      </trkpt>
      <trkpt lat="38.3099770" lon="-0.6920050">
        <ele>199.7</ele>
        <time>2018-10-04T09:41:21Z</time>
      </trkpt>
      <trkpt lat="38.3099160" lon="-0.6919400">
        <ele>199.7</ele>
        <time>2018-10-04T09:41:22Z</time>
      </trkpt>
      <trkpt lat="38.3098560" lon="-0.6918730">
        <ele>199.6</ele>
        <time>2018-10-04T09:41:23Z</time>
      </trkpt>
      <trkpt lat="38.3098000" lon="-0.6918020">
        <ele>199.5</ele>
        <time>2018-10-04T09:41:24Z</time>
      </trkpt>
      <trkpt lat="38.3097460" lon="-0.6917360">
        <ele>199.4</ele>
        <time>2018-10-04T09:41:25Z</time>
      </trkpt>
      <trkpt lat="38.3096880" lon="-0.6916800">
        <ele>199.1</ele>
        <time>2018-10-04T09:41:26Z</time>
      </trkpt>
      <trkpt lat="38.3096250" lon="-0.6916470">
        <ele>198.8</ele>
        <time>2018-10-04T09:41:27Z</time>
      </trkpt>
      <trkpt lat="38.3095600" lon="-0.6916250">
        <ele>198.2</ele>
        <time>2018-10-04T09:41:28Z</time>
      </trkpt>
      <trkpt lat="38.3094930" lon="-0.6916000">
        <ele>197.6</ele>
        <time>2018-10-04T09:41:29Z</time>
      </trkpt>
      <trkpt lat="38.3094220" lon="-0.6915760">
        <ele>197.1</ele>
        <time>2018-10-04T09:41:30Z</time>
      </trkpt>
      <trkpt lat="38.3093450" lon="-0.6915660">
        <ele>196.5</ele>
        <time>2018-10-04T09:41:31Z</time>
      </trkpt>
      <trkpt lat="38.3092650" lon="-0.6915790">
        <ele>195.9</ele>
        <time>2018-10-04T09:41:32Z</time>
      </trkpt>
      <trkpt lat="38.3091830" lon="-0.6915970">
        <ele>195.3</ele>
        <time>2018-10-04T09:41:33Z</time>
      </trkpt>
      <trkpt lat="38.3091000" lon="-0.6916200">
        <ele>194.9</ele>
        <time>2018-10-04T09:41:34Z</time>
      </trkpt>
      <trkpt lat="38.3090160" lon="-0.6916450">
        <ele>194.7</ele>
        <time>2018-10-04T09:41:35Z</time>
      </trkpt>
      <trkpt lat="38.3089320" lon="-0.6916690">
        <ele>194.5</ele>
        <time>2018-10-04T09:41:36Z</time>
      </trkpt>
      <trkpt lat="38.3088480" lon="-0.6916870">
        <ele>194.1</ele>
        <time>2018-10-04T09:41:37Z</time>
      </trkpt>
      <trkpt lat="38.3087660" lon="-0.6916890">
        <ele>193.5</ele>
        <time>2018-10-04T09:41:38Z</time>
      </trkpt>
      <trkpt lat="38.3086860" lon="-0.6916780">
        <ele>192.7</ele>
        <time>2018-10-04T09:41:39Z</time>
      </trkpt>
      <trkpt lat="38.3086080" lon="-0.6916530">
        <ele>191.6</ele>
        <time>2018-10-04T09:41:40Z</time>
      </trkpt>
      <trkpt lat="38.3085260" lon="-0.6916170">
        <ele>190.4</ele>
        <time>2018-10-04T09:41:41Z</time>
      </trkpt>
      <trkpt lat="38.3084420" lon="-0.6915800">
        <ele>189.3</ele>
        <time>2018-10-04T09:41:42Z</time>
      </trkpt>
      <trkpt lat="38.3083600" lon="-0.6915640">
        <ele>188.5</ele>
        <time>2018-10-04T09:41:43Z</time>
      </trkpt>
      <trkpt lat="38.3082780" lon="-0.6915760">
        <ele>187.8</ele>
        <time>2018-10-04T09:41:44Z</time>
      </trkpt>
      <trkpt lat="38.3081990" lon="-0.6915970">
        <ele>187.3</ele>
        <time>2018-10-04T09:41:45Z</time>
      </trkpt>
      <trkpt lat="38.3081260" lon="-0.6915940">
        <ele>187.0</ele>
        <time>2018-10-04T09:41:46Z</time>
      </trkpt>
      <trkpt lat="38.3080610" lon="-0.6915630">
        <ele>186.7</ele>
        <time>2018-10-04T09:41:47Z</time>
      </trkpt>
      <trkpt lat="38.3080020" lon="-0.6915180">
        <ele>186.2</ele>
        <time>2018-10-04T09:41:48Z</time>
      </trkpt>
      <trkpt lat="38.3079460" lon="-0.6914660">
        <ele>185.8</ele>
        <time>2018-10-04T09:41:49Z</time>
      </trkpt>
      <trkpt lat="38.3078940" lon="-0.6914060">
        <ele>185.4</ele>
        <time>2018-10-04T09:41:50Z</time>
      </trkpt>
      <trkpt lat="38.3078460" lon="-0.6913370">
        <ele>185.0</ele>
        <time>2018-10-04T09:41:51Z</time>
      </trkpt>
      <trkpt lat="38.3078000" lon="-0.6912650">
        <ele>184.8</ele>
        <time>2018-10-04T09:41:52Z</time>
      </trkpt>
      <trkpt lat="38.3077540" lon="-0.6911910">
        <ele>184.4</ele>
        <time>2018-10-04T09:41:53Z</time>
      </trkpt>
      <trkpt lat="38.3077030" lon="-0.6911240">
        <ele>184.0</ele>
        <time>2018-10-04T09:41:54Z</time>
      </trkpt>
      <trkpt lat="38.3076460" lon="-0.6910640">
        <ele>183.5</ele>
        <time>2018-10-04T09:41:55Z</time>
      </trkpt>
      <trkpt lat="38.3075780" lon="-0.6910240">
        <ele>183.1</ele>
        <time>2018-10-04T09:41:56Z</time>
      </trkpt>
      <trkpt lat="38.3075080" lon="-0.6910020">
        <ele>182.7</ele>
        <time>2018-10-04T09:41:57Z</time>
      </trkpt>
      <trkpt lat="38.3074520" lon="-0.6909720">
        <ele>182.5</ele>
        <time>2018-10-04T09:41:58Z</time>
      </trkpt>
      <trkpt lat="38.3074050" lon="-0.6909200">
        <ele>182.4</ele>
        <time>2018-10-04T09:41:59Z</time>
      </trkpt>
      <trkpt lat="38.3073680" lon="-0.6908550">
        <ele>182.3</ele>
        <time>2018-10-04T09:42:00Z</time>
      </trkpt>
      <trkpt lat="38.3073340" lon="-0.6907820">
        <ele>182.2</ele>
        <time>2018-10-04T09:42:01Z</time>
      </trkpt>
      <trkpt lat="38.3072980" lon="-0.6907060">
        <ele>182.2</ele>
        <time>2018-10-04T09:42:02Z</time>
      </trkpt>
      <trkpt lat="38.3072530" lon="-0.6906480">
        <ele>182.1</ele>
        <time>2018-10-04T09:42:03Z</time>
      </trkpt>
      <trkpt lat="38.3072030" lon="-0.6906270">
        <ele>182.1</ele>
        <time>2018-10-04T09:42:04Z</time>
      </trkpt>
      <trkpt lat="38.3071420" lon="-0.6906290">
        <ele>182.1</ele>
        <time>2018-10-04T09:42:05Z</time>
      </trkpt>
      <trkpt lat="38.3070870" lon="-0.6906460">
        <ele>182.0</ele>
        <time>2018-10-04T09:42:06Z</time>
      </trkpt>
      <trkpt lat="38.3070320" lon="-0.6906560">
        <ele>182.0</ele>
        <time>2018-10-04T09:42:07Z</time>
      </trkpt>
      <trkpt lat="38.3069810" lon="-0.6906450">
        <ele>182.0</ele>
        <time>2018-10-04T09:42:08Z</time>
      </trkpt>
      <trkpt lat="38.3069370" lon="-0.6906270">
        <ele>181.9</ele>
        <time>2018-10-04T09:42:09Z</time>
      </trkpt>
      <trkpt lat="38.3068950" lon="-0.6906070">
        <ele>181.8</ele>
        <time>2018-10-04T09:42:10Z</time>
      </trkpt>
      <trkpt lat="38.3068530" lon="-0.6905900">
        <ele>181.7</ele>
        <time>2018-10-04T09:42:11Z</time>
      </trkpt>
      <trkpt lat="38.3068060" lon="-0.6905940">
        <ele>181.5</ele>
        <time>2018-10-04T09:42:12Z</time>
      </trkpt>
      <trkpt lat="38.3067580" lon="-0.6906170">
        <ele>181.3</ele>
        <time>2018-10-04T09:42:13Z</time>
      </trkpt>
      <trkpt lat="38.3067000" lon="-0.6906410">
        <ele>180.8</ele>
        <time>2018-10-04T09:42:14Z</time>
      </trkpt>
      <trkpt lat="38.3066370" lon="-0.6906470">
        <ele>180.4</ele>
        <time>2018-10-04T09:42:15Z</time>
      </trkpt>
      <trkpt lat="38.3065740" lon="-0.6906220">
        <ele>179.9</ele>
        <time>2018-10-04T09:42:16Z</time>
      </trkpt>
      <trkpt lat="38.3065210" lon="-0.6905700">
        <ele>179.4</ele>
        <time>2018-10-04T09:42:17Z</time>
      </trkpt>
      <trkpt lat="38.3064670" lon="-0.6905130">
        <ele>178.9</ele>
        <time>2018-10-04T09:42:18Z</time>
      </trkpt>
      <trkpt lat="38.3064110" lon="-0.6904580">
        <ele>178.5</ele>
        <time>2018-10-04T09:42:19Z</time>
      </trkpt>
      <trkpt lat="38.3063520" lon="-0.6904070">
        <ele>178.1</ele>
        <time>2018-10-04T09:42:20Z</time>
      </trkpt>
      <trkpt lat="38.3062890" lon="-0.6903590">
        <ele>177.6</ele>
        <time>2018-10-04T09:42:21Z</time>
      </trkpt>
      <trkpt lat="38.3062220" lon="-0.6903220">
        <ele>177.0</ele>
        <time>2018-10-04T09:42:22Z</time>
      </trkpt>
      <trkpt lat="38.3061500" lon="-0.6902990">
        <ele>176.5</ele>
        <time>2018-10-04T09:42:23Z</time>
      </trkpt>
      <trkpt lat="38.3060720" lon="-0.6902850">
        <ele>175.9</ele>
        <time>2018-10-04T09:42:24Z</time>
      </trkpt>
      <trkpt lat="38.3059910" lon="-0.6902710">
        <ele>175.4</ele>
        <time>2018-10-04T09:42:25Z</time>
      </trkpt>
      <trkpt lat="38.3059090" lon="-0.6902560">
        <ele>174.8</ele>
        <time>2018-10-04T09:42:26Z</time>
      </trkpt>
      <trkpt lat="38.3058250" lon="-0.6902450">
        <ele>174.2</ele>
        <time>2018-10-04T09:42:27Z</time>
      </trkpt>
      <trkpt lat="38.3057470" lon="-0.6902490">
        <ele>173.5</ele>
        <time>2018-10-04T09:42:28Z</time>
      </trkpt>
      <trkpt lat="38.3056770" lon="-0.6902790">
        <ele>172.8</ele>
        <time>2018-10-04T09:42:29Z</time>
      </trkpt>
      <trkpt lat="38.3056080" lon="-0.6903160">
        <ele>172.1</ele>
        <time>2018-10-04T09:42:30Z</time>
      </trkpt>
      <trkpt lat="38.3055300" lon="-0.6903440">
        <ele>171.4</ele>
        <time>2018-10-04T09:42:31Z</time>
      </trkpt>
      <trkpt lat="38.3054450" lon="-0.6903660">
        <ele>170.9</ele>
        <time>2018-10-04T09:42:32Z</time>
      </trkpt>
      <trkpt lat="38.3053580" lon="-0.6903850">
        <ele>170.6</ele>
        <time>2018-10-04T09:42:33Z</time>
      </trkpt>
      <trkpt lat="38.3052720" lon="-0.6904080">
        <ele>170.4</ele>
        <time>2018-10-04T09:42:34Z</time>
      </trkpt>
      <trkpt lat="38.3051860" lon="-0.6904260">
        <ele>170.2</ele>
        <time>2018-10-04T09:42:35Z</time>
      </trkpt>
      <trkpt lat="38.3050980" lon="-0.6904320">
        <ele>170.1</ele>
        <time>2018-10-04T09:42:36Z</time>
      </trkpt>
      <trkpt lat="38.3050160" lon="-0.6904320">
        <ele>170.0</ele>
        <time>2018-10-04T09:42:37Z</time>
      </trkpt>
      <trkpt lat="38.3049390" lon="-0.6904330">
        <ele>169.9</ele>
        <time>2018-10-04T09:42:38Z</time>
      </trkpt>
      <trkpt lat="38.3048650" lon="-0.6904340">
        <ele>169.9</ele>
        <time>2018-10-04T09:42:39Z</time>
      </trkpt>
      <trkpt lat="38.3047910" lon="-0.6904340">
        <ele>169.8</ele>
        <time>2018-10-04T09:42:40Z</time>
      </trkpt>
      <trkpt lat="38.3047160" lon="-0.6904290">
        <ele>169.7</ele>
        <time>2018-10-04T09:42:41Z</time>
      </trkpt>
      <trkpt lat="38.3046410" lon="-0.6904260">
        <ele>169.6</ele>
        <time>2018-10-04T09:42:42Z</time>
      </trkpt>
      <trkpt lat="38.3045650" lon="-0.6904210">
        <ele>169.5</ele>
        <time>2018-10-04T09:42:43Z</time>
      </trkpt>
      <trkpt lat="38.3044890" lon="-0.6904110">
        <ele>169.4</ele>
        <time>2018-10-04T09:42:44Z</time>
      </trkpt>
      <trkpt lat="38.3044130" lon="-0.6904020">
        <ele>169.2</ele>
        <time>2018-10-04T09:42:45Z</time>
      </trkpt>
      <trkpt lat="38.3043370" lon="-0.6903930">
        <ele>168.9</ele>
        <time>2018-10-04T09:42:46Z</time>
      </trkpt>
      <trkpt lat="38.3042600" lon="-0.6903800">
        <ele>168.7</ele>
        <time>2018-10-04T09:42:47Z</time>
      </trkpt>
      <trkpt lat="38.3041830" lon="-0.6903670">
        <ele>168.3</ele>
        <time>2018-10-04T09:42:48Z</time>
      </trkpt>
      <trkpt lat="38.3041020" lon="-0.6903600">
        <ele>168.1</ele>
        <time>2018-10-04T09:42:49Z</time>
      </trkpt>
      <trkpt lat="38.3040200" lon="-0.6903520">
        <ele>167.8</ele>
        <time>2018-10-04T09:42:50Z</time>
      </trkpt>
      <trkpt lat="38.3039360" lon="-0.6903460">
        <ele>167.6</ele>
        <time>2018-10-04T09:42:51Z</time>
      </trkpt>
      <trkpt lat="38.3038530" lon="-0.6903440">
        <ele>167.3</ele>
        <time>2018-10-04T09:42:52Z</time>
      </trkpt>
      <trkpt lat="38.3037710" lon="-0.6903450">
        <ele>167.0</ele>
        <time>2018-10-04T09:42:53Z</time>
      </trkpt>
      <trkpt lat="38.3036880" lon="-0.6903510">
        <ele>166.8</ele>
        <time>2018-10-04T09:42:54Z</time>
      </trkpt>
      <trkpt lat="38.3036070" lon="-0.6903650">
        <ele>166.5</ele>
        <time>2018-10-04T09:42:55Z</time>
      </trkpt>
      <trkpt lat="38.3035240" lon="-0.6903820">
        <ele>166.1</ele>
        <time>2018-10-04T09:42:56Z</time>
      </trkpt>
      <trkpt lat="38.3034380" lon="-0.6903910">
        <ele>165.7</ele>
        <time>2018-10-04T09:42:57Z</time>
      </trkpt>
      <trkpt lat="38.3033490" lon="-0.6903930">
        <ele>165.2</ele>
        <time>2018-10-04T09:42:58Z</time>
      </trkpt>
      <trkpt lat="38.3032560" lon="-0.6903950">
        <ele>164.6</ele>
        <time>2018-10-04T09:42:59Z</time>
      </trkpt>
      <trkpt lat="38.3031600" lon="-0.6903900">
        <ele>164.2</ele>
        <time>2018-10-04T09:43:00Z</time>
      </trkpt>
      <trkpt lat="38.3030600" lon="-0.6903840">
        <ele>163.8</ele>
        <time>2018-10-04T09:43:01Z</time>
      </trkpt>
      <trkpt lat="38.3029580" lon="-0.6903780">
        <ele>163.7</ele>
        <time>2018-10-04T09:43:02Z</time>
      </trkpt>
      <trkpt lat="38.3028550" lon="-0.6903730">
        <ele>163.7</ele>
        <time>2018-10-04T09:43:03Z</time>
      </trkpt>
      <trkpt lat="38.3027540" lon="-0.6903760">
        <ele>163.7</ele>
        <time>2018-10-04T09:43:04Z</time>
      </trkpt>
      <trkpt lat="38.3026560" lon="-0.6903840">
        <ele>163.7</ele>
        <time>2018-10-04T09:43:05Z</time>
      </trkpt>
      <trkpt lat="38.3025620" lon="-0.6903950">
        <ele>163.8</ele>
        <time>2018-10-04T09:43:06Z</time>
      </trkpt>
      <trkpt lat="38.3024740" lon="-0.6904030">
        <ele>164.0</ele>
        <time>2018-10-04T09:43:07Z</time>
      </trkpt>
      <trkpt lat="38.3023930" lon="-0.6904080">
        <ele>163.6</ele>
        <time>2018-10-04T09:43:08Z</time>
      </trkpt>
      <trkpt lat="38.3023090" lon="-0.6904150">
        <ele>163.1</ele>
        <time>2018-10-04T09:43:09Z</time>
      </trkpt>
      <trkpt lat="38.3022250" lon="-0.6904190">
        <ele>162.7</ele>
        <time>2018-10-04T09:43:10Z</time>
      </trkpt>
      <trkpt lat="38.3021380" lon="-0.6904180">
        <ele>162.2</ele>
        <time>2018-10-04T09:43:11Z</time>
      </trkpt>
      <trkpt lat="38.3020480" lon="-0.6904160">
        <ele>161.8</ele>
        <time>2018-10-04T09:43:12Z</time>
      </trkpt>
      <trkpt lat="38.3019570" lon="-0.6904080">
        <ele>161.3</ele>
        <time>2018-10-04T09:43:13Z</time>
      </trkpt>
      <trkpt lat="38.3018680" lon="-0.6903950">
        <ele>160.9</ele>
        <time>2018-10-04T09:43:14Z</time>
      </trkpt>
      <trkpt lat="38.3017780" lon="-0.6903830">
        <ele>160.5</ele>
        <time>2018-10-04T09:43:15Z</time>
      </trkpt>
      <trkpt lat="38.3016890" lon="-0.6903750">
        <ele>160.1</ele>
        <time>2018-10-04T09:43:16Z</time>
      </trkpt>
      <trkpt lat="38.3016010" lon="-0.6903730">
        <ele>159.6</ele>
        <time>2018-10-04T09:43:17Z</time>
      </trkpt>
      <trkpt lat="38.3015140" lon="-0.6903790">
        <ele>159.0</ele>
        <time>2018-10-04T09:43:18Z</time>
      </trkpt>
      <trkpt lat="38.3014290" lon="-0.6903860">
        <ele>158.5</ele>
        <time>2018-10-04T09:43:19Z</time>
      </trkpt>
      <trkpt lat="38.3013470" lon="-0.6903980">
        <ele>158.0</ele>
        <time>2018-10-04T09:43:20Z</time>
      </trkpt>
      <trkpt lat="38.3012670" lon="-0.6904070">
        <ele>157.6</ele>
        <time>2018-10-04T09:43:21Z</time>
      </trkpt>
      <trkpt lat="38.3011880" lon="-0.6904120">
        <ele>157.3</ele>
        <time>2018-10-04T09:43:22Z</time>
      </trkpt>
      <trkpt lat="38.3011110" lon="-0.6904080">
        <ele>156.9</ele>
        <time>2018-10-04T09:43:23Z</time>
      </trkpt>
      <trkpt lat="38.3010380" lon="-0.6903980">
        <ele>156.6</ele>
        <time>2018-10-04T09:43:24Z</time>
      </trkpt>
      <trkpt lat="38.3009710" lon="-0.6903870">
        <ele>156.3</ele>
        <time>2018-10-04T09:43:25Z</time>
      </trkpt>
      <trkpt lat="38.3009050" lon="-0.6903780">
        <ele>156.0</ele>
        <time>2018-10-04T09:43:26Z</time>
      </trkpt>
      <trkpt lat="38.3008370" lon="-0.6903740">
        <ele>155.7</ele>
        <time>2018-10-04T09:43:27Z</time>
      </trkpt>
      <trkpt lat="38.3007700" lon="-0.6903720">
        <ele>155.4</ele>
        <time>2018-10-04T09:43:28Z</time>
      </trkpt>
      <trkpt lat="38.3007030" lon="-0.6903750">
        <ele>155.2</ele>
        <time>2018-10-04T09:43:29Z</time>
      </trkpt>
      <trkpt lat="38.3006360" lon="-0.6903790">
        <ele>154.9</ele>
        <time>2018-10-04T09:43:30Z</time>
      </trkpt>
      <trkpt lat="38.3005700" lon="-0.6903840">
        <ele>154.7</ele>
        <time>2018-10-04T09:43:31Z</time>
      </trkpt>
      <trkpt lat="38.3005040" lon="-0.6903900">
        <ele>154.6</ele>
        <time>2018-10-04T09:43:32Z</time>
      </trkpt>
      <trkpt lat="38.3004400" lon="-0.6903990">
        <ele>154.5</ele>
        <time>2018-10-04T09:43:33Z</time>
      </trkpt>
      <trkpt lat="38.3003780" lon="-0.6904090">
        <ele>154.3</ele>
        <time>2018-10-04T09:43:34Z</time>
      </trkpt>
      <trkpt lat="38.3003190" lon="-0.6904240">
        <ele>154.2</ele>
        <time>2018-10-04T09:43:35Z</time>
      </trkpt>
      <trkpt lat="38.3002720" lon="-0.6904450">
        <ele>154.1</ele>
        <time>2018-10-04T09:43:36Z</time>
      </trkpt>
      <trkpt lat="38.3002460" lon="-0.6904790">
        <ele>154.0</ele>
        <time>2018-10-04T09:43:37Z</time>
      </trkpt>
      <trkpt lat="38.3002270" lon="-0.6905220">
        <ele>154.1</ele>
        <time>2018-10-04T09:43:38Z</time>
      </trkpt>
      <trkpt lat="38.3002080" lon="-0.6905790">
        <ele>154.3</ele>
        <time>2018-10-04T09:43:39Z</time>
      </trkpt>
      <trkpt lat="38.3001900" lon="-0.6906430">
        <ele>154.6</ele>
        <time>2018-10-04T09:43:40Z</time>
      </trkpt>
      <trkpt lat="38.3001730" lon="-0.6907090">
        <ele>154.7</ele>
        <time>2018-10-04T09:43:41Z</time>
      </trkpt>
      <trkpt lat="38.3001550" lon="-0.6907750">
        <ele>154.9</ele>
        <time>2018-10-04T09:43:42Z</time>
      </trkpt>
      <trkpt lat="38.3001390" lon="-0.6908410">
        <ele>155.0</ele>
        <time>2018-10-04T09:43:43Z</time>
      </trkpt>
      <trkpt lat="38.3001330" lon="-0.6909030">
        <ele>155.2</ele>
        <time>2018-10-04T09:43:44Z</time>
      </trkpt>
      <trkpt lat="38.3001450" lon="-0.6909510">
        <ele>155.4</ele>
        <time>2018-10-04T09:43:45Z</time>
      </trkpt>
      <trkpt lat="38.3001550" lon="-0.6909940">
        <ele>155.6</ele>
        <time>2018-10-04T09:43:46Z</time>
      </trkpt>
      <trkpt lat="38.3001630" lon="-0.6910340">
        <ele>155.8</ele>
        <time>2018-10-04T09:43:47Z</time>
      </trkpt>
      <trkpt lat="38.3001700" lon="-0.6910740">
        <ele>156.1</ele>
        <time>2018-10-04T09:43:48Z</time>
      </trkpt>
      <trkpt lat="38.3001790" lon="-0.6911090">
        <ele>156.3</ele>
        <time>2018-10-04T09:43:49Z</time>
      </trkpt>
      <trkpt lat="38.3001860" lon="-0.6911420">
        <ele>156.5</ele>
        <time>2018-10-04T09:43:50Z</time>
      </trkpt>
      <trkpt lat="38.3001940" lon="-0.6911740">
        <ele>156.7</ele>
        <time>2018-10-04T09:43:51Z</time>
      </trkpt>
      <trkpt lat="38.3002020" lon="-0.6912040">
        <ele>156.9</ele>
        <time>2018-10-04T09:43:52Z</time>
      </trkpt>
      <trkpt lat="38.3002090" lon="-0.6912330">
        <ele>157.1</ele>
        <time>2018-10-04T09:43:53Z</time>
      </trkpt>
      <trkpt lat="38.3002150" lon="-0.6912620">
        <ele>157.3</ele>
        <time>2018-10-04T09:43:54Z</time>
      </trkpt>
      <trkpt lat="38.3002210" lon="-0.6912890">
        <ele>157.5</ele>
        <time>2018-10-04T09:43:55Z</time>
      </trkpt>
      <trkpt lat="38.3002240" lon="-0.6913180">
        <ele>157.7</ele>
        <time>2018-10-04T09:43:56Z</time>
      </trkpt>
      <trkpt lat="38.3002260" lon="-0.6913480">
        <ele>158.0</ele>
        <time>2018-10-04T09:43:57Z</time>
      </trkpt>
      <trkpt lat="38.3002280" lon="-0.6913760">
        <ele>158.2</ele>
        <time>2018-10-04T09:43:58Z</time>
      </trkpt>
      <trkpt lat="38.3002290" lon="-0.6914010">
        <ele>158.4</ele>
        <time>2018-10-04T09:43:59Z</time>
      </trkpt>
      <trkpt lat="38.3002320" lon="-0.6914260">
        <ele>158.5</ele>
        <time>2018-10-04T09:44:00Z</time>
      </trkpt>
      <trkpt lat="38.3002340" lon="-0.6914500">
        <ele>158.7</ele>
        <time>2018-10-04T09:44:01Z</time>
      </trkpt>
      <trkpt lat="38.3002390" lon="-0.6914730">
        <ele>158.9</ele>
        <time>2018-10-04T09:44:02Z</time>
      </trkpt>
      <trkpt lat="38.3002480" lon="-0.6914980">
        <ele>159.1</ele>
        <time>2018-10-04T09:44:03Z</time>
      </trkpt>
      <trkpt lat="38.3002590" lon="-0.6915240">
        <ele>159.3</ele>
        <time>2018-10-04T09:44:04Z</time>
      </trkpt>
      <trkpt lat="38.3002710" lon="-0.6915490">
        <ele>159.5</ele>
        <time>2018-10-04T09:44:05Z</time>
      </trkpt>
      <trkpt lat="38.3002800" lon="-0.6915780">
        <ele>159.7</ele>
        <time>2018-10-04T09:44:06Z</time>
      </trkpt>
      <trkpt lat="38.3002910" lon="-0.6916060">
        <ele>159.9</ele>
        <time>2018-10-04T09:44:07Z</time>
      </trkpt>
      <trkpt lat="38.3002990" lon="-0.6916320">
        <ele>160.1</ele>
        <time>2018-10-04T09:44:08Z</time>
      </trkpt>
      <trkpt lat="38.3003050" lon="-0.6916570">
        <ele>160.3</ele>
        <time>2018-10-04T09:44:09Z</time>
      </trkpt>
      <trkpt lat="38.3003120" lon="-0.6916810">
        <ele>160.5</ele>
        <time>2018-10-04T09:44:10Z</time>
      </trkpt>
      <trkpt lat="38.3003150" lon="-0.6917110">
        <ele>160.7</ele>
        <time>2018-10-04T09:44:11Z</time>
      </trkpt>
      <trkpt lat="38.3003210" lon="-0.6917440">
        <ele>160.9</ele>
        <time>2018-10-04T09:44:12Z</time>
      </trkpt>
      <trkpt lat="38.3003270" lon="-0.6917820">
        <ele>161.0</ele>
        <time>2018-10-04T09:44:13Z</time>
      </trkpt>
      <trkpt lat="38.3003330" lon="-0.6918230">
        <ele>161.2</ele>
        <time>2018-10-04T09:44:14Z</time>
      </trkpt>
      <trkpt lat="38.3003380" lon="-0.6918680">
        <ele>161.3</ele>
        <time>2018-10-04T09:44:15Z</time>
      </trkpt>
      <trkpt lat="38.3003410" lon="-0.6919160">
        <ele>161.4</ele>
        <time>2018-10-04T09:44:16Z</time>
      </trkpt>
      <trkpt lat="38.3003420" lon="-0.6919650">
        <ele>161.6</ele>
        <time>2018-10-04T09:44:17Z</time>
      </trkpt>
      <trkpt lat="38.3003360" lon="-0.6920150">
        <ele>161.8</ele>
        <time>2018-10-04T09:44:18Z</time>
      </trkpt>
      <trkpt lat="38.3003260" lon="-0.6920650">
        <ele>162.1</ele>
        <time>2018-10-04T09:44:19Z</time>
      </trkpt>
      <trkpt lat="38.3003120" lon="-0.6921140">
        <ele>162.3</ele>
        <time>2018-10-04T09:44:20Z</time>
      </trkpt>
      <trkpt lat="38.3002910" lon="-0.6921580">
        <ele>162.5</ele>
        <time>2018-10-04T09:44:21Z</time>
      </trkpt>
      <trkpt lat="38.3002660" lon="-0.6921980">
        <ele>162.7</ele>
        <time>2018-10-04T09:44:22Z</time>
      </trkpt>
      <trkpt lat="38.3002390" lon="-0.6922370">
        <ele>162.8</ele>
        <time>2018-10-04T09:44:23Z</time>
      </trkpt>
      <trkpt lat="38.3002130" lon="-0.6922740">
        <ele>162.9</ele>
        <time>2018-10-04T09:44:24Z</time>
      </trkpt>
      <trkpt lat="38.3001880" lon="-0.6923070">
        <ele>163.0</ele>
        <time>2018-10-04T09:44:25Z</time>
      </trkpt>
      <trkpt lat="38.3001650" lon="-0.6923360">
        <ele>163.0</ele>
        <time>2018-10-04T09:44:26Z</time>
      </trkpt>
      <trkpt lat="38.3001380" lon="-0.6923620">
        <ele>163.1</ele>
        <time>2018-10-04T09:44:27Z</time>
      </trkpt>
      <trkpt lat="38.3001110" lon="-0.6923860">
        <ele>163.1</ele>
        <time>2018-10-04T09:44:28Z</time>
      </trkpt>
      <trkpt lat="38.3000790" lon="-0.6924080">
        <ele>163.1</ele>
        <time>2018-10-04T09:44:29Z</time>
      </trkpt>
      <trkpt lat="38.3000500" lon="-0.6924270">
        <ele>163.0</ele>
        <time>2018-10-04T09:44:30Z</time>
      </trkpt>
      <trkpt lat="38.3000250" lon="-0.6924400">
        <ele>163.0</ele>
        <time>2018-10-04T09:44:31Z</time>
      </trkpt>
      <trkpt lat="38.3000010" lon="-0.6924480">
        <ele>163.0</ele>
        <time>2018-10-04T09:44:32Z</time>
      </trkpt>
      <trkpt lat="38.2999750" lon="-0.6924580">
        <ele>162.9</ele>
        <time>2018-10-04T09:44:33Z</time>
      </trkpt>
      <trkpt lat="38.2999440" lon="-0.6924660">
        <ele>162.9</ele>
        <time>2018-10-04T09:44:34Z</time>
      </trkpt>
      <trkpt lat="38.2999090" lon="-0.6924740">
        <ele>162.8</ele>
        <time>2018-10-04T09:44:35Z</time>
      </trkpt>
      <trkpt lat="38.2998750" lon="-0.6924820">
        <ele>162.8</ele>
        <time>2018-10-04T09:44:36Z</time>
      </trkpt>
      <trkpt lat="38.2998400" lon="-0.6924900">
        <ele>162.7</ele>
        <time>2018-10-04T09:44:37Z</time>
      </trkpt>
      <trkpt lat="38.2998040" lon="-0.6924980">
        <ele>162.7</ele>
        <time>2018-10-04T09:44:38Z</time>
      </trkpt>
      <trkpt lat="38.2997660" lon="-0.6925050">
        <ele>162.7</ele>
        <time>2018-10-04T09:44:39Z</time>
      </trkpt>
      <trkpt lat="38.2997280" lon="-0.6925130">
        <ele>162.7</ele>
        <time>2018-10-04T09:44:40Z</time>
      </trkpt>
      <trkpt lat="38.2996880" lon="-0.6925220">
        <ele>162.7</ele>
        <time>2018-10-04T09:44:41Z</time>
      </trkpt>
      <trkpt lat="38.2996480" lon="-0.6925310">
        <ele>162.7</ele>
        <time>2018-10-04T09:44:42Z</time>
      </trkpt>
      <trkpt lat="38.2996050" lon="-0.6925450">
        <ele>162.8</ele>
        <time>2018-10-04T09:44:43Z</time>
      </trkpt>
      <trkpt lat="38.2995600" lon="-0.6925640">
        <ele>162.8</ele>
        <time>2018-10-04T09:44:44Z</time>
      </trkpt>
      <trkpt lat="38.2995150" lon="-0.6925870">
        <ele>162.8</ele>
        <time>2018-10-04T09:44:45Z</time>
      </trkpt>
      <trkpt lat="38.2994690" lon="-0.6926050">
        <ele>162.9</ele>
        <time>2018-10-04T09:44:46Z</time>
      </trkpt>
      <trkpt lat="38.2994240" lon="-0.6926180">
        <ele>162.9</ele>
        <time>2018-10-04T09:44:47Z</time>
      </trkpt>
      <trkpt lat="38.2993780" lon="-0.6926310">
        <ele>162.9</ele>
        <time>2018-10-04T09:44:48Z</time>
      </trkpt>
      <trkpt lat="38.2993290" lon="-0.6926440">
        <ele>163.0</ele>
        <time>2018-10-04T09:44:49Z</time>
      </trkpt>
      <trkpt lat="38.2992790" lon="-0.6926520">
        <ele>163.0</ele>
        <time>2018-10-04T09:44:50Z</time>
      </trkpt>
      <trkpt lat="38.2992290" lon="-0.6926600">
        <ele>162.9</ele>
        <time>2018-10-04T09:44:51Z</time>
      </trkpt>
      <trkpt lat="38.2991810" lon="-0.6926740">
        <ele>162.7</ele>
        <time>2018-10-04T09:44:52Z</time>
      </trkpt>
      <trkpt lat="38.2991330" lon="-0.6926920">
        <ele>162.5</ele>
        <time>2018-10-04T09:44:53Z</time>
      </trkpt>
      <trkpt lat="38.2990840" lon="-0.6927090">
        <ele>162.4</ele>
        <time>2018-10-04T09:44:54Z</time>
      </trkpt>
      <trkpt lat="38.2990330" lon="-0.6927240">
        <ele>162.1</ele>
        <time>2018-10-04T09:44:55Z</time>
      </trkpt>
      <trkpt lat="38.2989840" lon="-0.6927410">
        <ele>161.8</ele>
        <time>2018-10-04T09:44:56Z</time>
      </trkpt>
      <trkpt lat="38.2989340" lon="-0.6927580">
        <ele>161.6</ele>
        <time>2018-10-04T09:44:57Z</time>
      </trkpt>
      <trkpt lat="38.2988830" lon="-0.6927750">
        <ele>161.3</ele>
        <time>2018-10-04T09:44:58Z</time>
      </trkpt>
      <trkpt lat="38.2988330" lon="-0.6927920">
        <ele>161.0</ele>
        <time>2018-10-04T09:44:59Z</time>
      </trkpt>
      <trkpt lat="38.2987810" lon="-0.6928060">
        <ele>160.6</ele>
        <time>2018-10-04T09:45:00Z</time>
      </trkpt>
      <trkpt lat="38.2987280" lon="-0.6928160">
        <ele>160.3</ele>
        <time>2018-10-04T09:45:01Z</time>
      </trkpt>
      <trkpt lat="38.2986720" lon="-0.6928160">
        <ele>160.0</ele>
        <time>2018-10-04T09:45:02Z</time>
      </trkpt>
      <trkpt lat="38.2986140" lon="-0.6928040">
        <ele>159.7</ele>
        <time>2018-10-04T09:45:03Z</time>
      </trkpt>
      <trkpt lat="38.2985540" lon="-0.6927770">
        <ele>159.3</ele>
        <time>2018-10-04T09:45:04Z</time>
      </trkpt>
      <trkpt lat="38.2984990" lon="-0.6927360">
        <ele>158.8</ele>
        <time>2018-10-04T09:45:05Z</time>
      </trkpt>
      <trkpt lat="38.2984490" lon="-0.6926860">
        <ele>158.4</ele>
        <time>2018-10-04T09:45:06Z</time>
      </trkpt>
      <trkpt lat="38.2984030" lon="-0.6926300">
        <ele>158.0</ele>
        <time>2018-10-04T09:45:07Z</time>
      </trkpt>
      <trkpt lat="38.2983600" lon="-0.6925700">
        <ele>157.6</ele>
        <time>2018-10-04T09:45:08Z</time>
      </trkpt>
      <trkpt lat="38.2983160" lon="-0.6925090">
        <ele>157.3</ele>
        <time>2018-10-04T09:45:09Z</time>
      </trkpt>
      <trkpt lat="38.2982710" lon="-0.6924470">
        <ele>157.0</ele>
        <time>2018-10-04T09:45:10Z</time>
      </trkpt>
      <trkpt lat="38.2982220" lon="-0.6923840">
        <ele>156.6</ele>
        <time>2018-10-04T09:45:11Z</time>
      </trkpt>
      <trkpt lat="38.2981670" lon="-0.6923240">
        <ele>156.2</ele>
        <time>2018-10-04T09:45:12Z</time>
      </trkpt>
      <trkpt lat="38.2981050" lon="-0.6922680">
        <ele>156.0</ele>
        <time>2018-10-04T09:45:13Z</time>
      </trkpt>
      <trkpt lat="38.2980390" lon="-0.6922100">
        <ele>155.9</ele>
        <time>2018-10-04T09:45:14Z</time>
      </trkpt>
      <trkpt lat="38.2979720" lon="-0.6921490">
        <ele>155.6</ele>
        <time>2018-10-04T09:45:15Z</time>
      </trkpt>
      <trkpt lat="38.2979070" lon="-0.6920810">
        <ele>155.2</ele>
        <time>2018-10-04T09:45:16Z</time>
      </trkpt>
      <trkpt lat="38.2978440" lon="-0.6920070">
        <ele>154.8</ele>
        <time>2018-10-04T09:45:17Z</time>
      </trkpt>
      <trkpt lat="38.2977870" lon="-0.6919240">
        <ele>154.6</ele>
        <time>2018-10-04T09:45:18Z</time>
      </trkpt>
      <trkpt lat="38.2977340" lon="-0.6918360">
        <ele>154.1</ele>
        <time>2018-10-04T09:45:19Z</time>
      </trkpt>
      <trkpt lat="38.2976880" lon="-0.6917420">
        <ele>153.6</ele>
        <time>2018-10-04T09:45:20Z</time>
      </trkpt>
      <trkpt lat="38.2976500" lon="-0.6916420">
        <ele>153.2</ele>
        <time>2018-10-04T09:45:21Z</time>
      </trkpt>
      <trkpt lat="38.2976230" lon="-0.6915360">
        <ele>152.9</ele>
        <time>2018-10-04T09:45:22Z</time>
      </trkpt>
      <trkpt lat="38.2975930" lon="-0.6914310">
        <ele>152.3</ele>
        <time>2018-10-04T09:45:23Z</time>
      </trkpt>
      <trkpt lat="38.2975560" lon="-0.6913290">
        <ele>151.6</ele>
        <time>2018-10-04T09:45:24Z</time>
      </trkpt>
      <trkpt lat="38.2975110" lon="-0.6912290">
        <ele>150.7</ele>
        <time>2018-10-04T09:45:25Z</time>
      </trkpt>
      <trkpt lat="38.2974710" lon="-0.6911450">
        <ele>149.8</ele>
        <time>2018-10-04T09:45:26Z</time>
      </trkpt>
      <trkpt lat="38.2974390" lon="-0.6910860">
        <ele>149.1</ele>
        <time>2018-10-04T09:45:27Z</time>
      </trkpt>
      <trkpt lat="38.2974100" lon="-0.6910450">
        <ele>149.0</ele>
        <time>2018-10-04T09:45:28Z</time>
      </trkpt>
      <trkpt lat="38.2973750" lon="-0.6910260">
        <ele>148.8</ele>
        <time>2018-10-04T09:45:29Z</time>
      </trkpt>
      <trkpt lat="38.2973360" lon="-0.6910170">
        <ele>148.6</ele>
        <time>2018-10-04T09:45:30Z</time>
      </trkpt>
      <trkpt lat="38.2972930" lon="-0.6910250">
        <ele>148.4</ele>
        <time>2018-10-04T09:45:31Z</time>
      </trkpt>
      <trkpt lat="38.2972450" lon="-0.6910410">
        <ele>148.3</ele>
        <time>2018-10-04T09:45:32Z</time>
      </trkpt>
      <trkpt lat="38.2971900" lon="-0.6910560">
        <ele>148.1</ele>
        <time>2018-10-04T09:45:33Z</time>
      </trkpt>
      <trkpt lat="38.2971320" lon="-0.6910740">
        <ele>147.9</ele>
        <time>2018-10-04T09:45:34Z</time>
      </trkpt>
      <trkpt lat="38.2970710" lon="-0.6910960">
        <ele>147.6</ele>
        <time>2018-10-04T09:45:35Z</time>
      </trkpt>
      <trkpt lat="38.2970060" lon="-0.6911200">
        <ele>147.2</ele>
        <time>2018-10-04T09:45:36Z</time>
      </trkpt>
      <trkpt lat="38.2969370" lon="-0.6911460">
        <ele>146.8</ele>
        <time>2018-10-04T09:45:37Z</time>
      </trkpt>
      <trkpt lat="38.2968670" lon="-0.6911710">
        <ele>146.6</ele>
        <time>2018-10-04T09:45:38Z</time>
      </trkpt>
      <trkpt lat="38.2967950" lon="-0.6911970">
        <ele>146.4</ele>
        <time>2018-10-04T09:45:39Z</time>
      </trkpt>
      <trkpt lat="38.2967220" lon="-0.6912220">
        <ele>146.2</ele>
        <time>2018-10-04T09:45:40Z</time>
      </trkpt>
      <trkpt lat="38.2966490" lon="-0.6912480">
        <ele>145.9</ele>
        <time>2018-10-04T09:45:41Z</time>
      </trkpt>
      <trkpt lat="38.2965770" lon="-0.6912770">
        <ele>145.7</ele>
        <time>2018-10-04T09:45:42Z</time>
      </trkpt>
      <trkpt lat="38.2965040" lon="-0.6913040">
        <ele>145.4</ele>
        <time>2018-10-04T09:45:43Z</time>
      </trkpt>
      <trkpt lat="38.2964320" lon="-0.6913310">
        <ele>145.1</ele>
        <time>2018-10-04T09:45:44Z</time>
      </trkpt>
      <trkpt lat="38.2963590" lon="-0.6913580">
        <ele>145.0</ele>
        <time>2018-10-04T09:45:45Z</time>
      </trkpt>
      <trkpt lat="38.2962870" lon="-0.6913860">
        <ele>145.0</ele>
        <time>2018-10-04T09:45:46Z</time>
      </trkpt>
      <trkpt lat="38.2962120" lon="-0.6914150">
        <ele>145.0</ele>
        <time>2018-10-04T09:45:47Z</time>
      </trkpt>
      <trkpt lat="38.2961380" lon="-0.6914440">
        <ele>145.0</ele>
        <time>2018-10-04T09:45:48Z</time>
      </trkpt>
      <trkpt lat="38.2960630" lon="-0.6914720">
        <ele>145.0</ele>
        <time>2018-10-04T09:45:49Z</time>
      </trkpt>
      <trkpt lat="38.2959880" lon="-0.6914990">
        <ele>145.0</ele>
        <time>2018-10-04T09:45:50Z</time>
      </trkpt>
      <trkpt lat="38.2959120" lon="-0.6915280">
        <ele>145.0</ele>
        <time>2018-10-04T09:45:51Z</time>
      </trkpt>
      <trkpt lat="38.2958370" lon="-0.6915610">
        <ele>144.9</ele>
        <time>2018-10-04T09:45:52Z</time>
      </trkpt>
      <trkpt lat="38.2957610" lon="-0.6915970">
        <ele>144.9</ele>
        <time>2018-10-04T09:45:53Z</time>
      </trkpt>
      <trkpt lat="38.2956840" lon="-0.6916350">
        <ele>144.6</ele>
        <time>2018-10-04T09:45:54Z</time>
      </trkpt>
      <trkpt lat="38.2956080" lon="-0.6916750">
        <ele>144.4</ele>
        <time>2018-10-04T09:45:55Z</time>
      </trkpt>
      <trkpt lat="38.2955320" lon="-0.6917180">
        <ele>144.1</ele>
        <time>2018-10-04T09:45:56Z</time>
      </trkpt>
      <trkpt lat="38.2954570" lon="-0.6917610">
        <ele>143.8</ele>
        <time>2018-10-04T09:45:57Z</time>
      </trkpt>
      <trkpt lat="38.2953810" lon="-0.6918020">
        <ele>143.5</ele>
        <time>2018-10-04T09:45:58Z</time>
      </trkpt>
      <trkpt lat="38.2953040" lon="-0.6918440">
        <ele>143.4</ele>
        <time>2018-10-04T09:45:59Z</time>
      </trkpt>
      <trkpt lat="38.2952270" lon="-0.6918850">
        <ele>143.3</ele>
        <time>2018-10-04T09:46:00Z</time>
      </trkpt>
      <trkpt lat="38.2951490" lon="-0.6919250">
        <ele>143.1</ele>
        <time>2018-10-04T09:46:01Z</time>
      </trkpt>
      <trkpt lat="38.2950720" lon="-0.6919630">
        <ele>143.0</ele>
        <time>2018-10-04T09:46:02Z</time>
      </trkpt>
      <trkpt lat="38.2949950" lon="-0.6920030">
        <ele>142.8</ele>
        <time>2018-10-04T09:46:03Z</time>
      </trkpt>
      <trkpt lat="38.2949210" lon="-0.6920420">
        <ele>142.5</ele>
        <time>2018-10-04T09:46:04Z</time>
      </trkpt>
      <trkpt lat="38.2948470" lon="-0.6920790">
        <ele>142.2</ele>
        <time>2018-10-04T09:46:05Z</time>
      </trkpt>
      <trkpt lat="38.2947710" lon="-0.6921160">
        <ele>141.8</ele>
        <time>2018-10-04T09:46:06Z</time>
      </trkpt>
      <trkpt lat="38.2946960" lon="-0.6921520">
        <ele>141.5</ele>
        <time>2018-10-04T09:46:07Z</time>
      </trkpt>
      <trkpt lat="38.2946180" lon="-0.6921870">
        <ele>141.2</ele>
        <time>2018-10-04T09:46:08Z</time>
      </trkpt>
      <trkpt lat="38.2945370" lon="-0.6922220">
        <ele>140.9</ele>
        <time>2018-10-04T09:46:09Z</time>
      </trkpt>
      <trkpt lat="38.2944530" lon="-0.6922590">
        <ele>140.5</ele>
        <time>2018-10-04T09:46:10Z</time>
      </trkpt>
      <trkpt lat="38.2943670" lon="-0.6923030">
        <ele>140.1</ele>
        <time>2018-10-04T09:46:11Z</time>
      </trkpt>
      <trkpt lat="38.2942800" lon="-0.6923590">
        <ele>139.5</ele>
        <time>2018-10-04T09:46:12Z</time>
      </trkpt>
      <trkpt lat="38.2941950" lon="-0.6924290">
        <ele>138.8</ele>
        <time>2018-10-04T09:46:13Z</time>
      </trkpt>
      <trkpt lat="38.2941130" lon="-0.6925100">
        <ele>137.9</ele>
        <time>2018-10-04T09:46:14Z</time>
      </trkpt>
      <trkpt lat="38.2940300" lon="-0.6925970">
        <ele>137.0</ele>
        <time>2018-10-04T09:46:15Z</time>
      </trkpt>
      <trkpt lat="38.2939410" lon="-0.6926790">
        <ele>136.0</ele>
        <time>2018-10-04T09:46:16Z</time>
      </trkpt>
      <trkpt lat="38.2938430" lon="-0.6927500">
        <ele>135.0</ele>
        <time>2018-10-04T09:46:17Z</time>
      </trkpt>
      <trkpt lat="38.2937370" lon="-0.6928070">
        <ele>133.9</ele>
        <time>2018-10-04T09:46:18Z</time>
      </trkpt>
      <trkpt lat="38.2936290" lon="-0.6928580">
        <ele>133.0</ele>
        <time>2018-10-04T09:46:19Z</time>
      </trkpt>
      <trkpt lat="38.2935210" lon="-0.6929020">
        <ele>132.8</ele>
        <time>2018-10-04T09:46:20Z</time>
      </trkpt>
      <trkpt lat="38.2934140" lon="-0.6929440">
        <ele>132.6</ele>
        <time>2018-10-04T09:46:21Z</time>
      </trkpt>
      <trkpt lat="38.2933090" lon="-0.6929870">
        <ele>132.4</ele>
        <time>2018-10-04T09:46:22Z</time>
      </trkpt>
      <trkpt lat="38.2932100" lon="-0.6930300">
        <ele>132.2</ele>
        <time>2018-10-04T09:46:23Z</time>
      </trkpt>
      <trkpt lat="38.2931380" lon="-0.6930400">
        <ele>132.1</ele>
        <time>2018-10-04T09:46:24Z</time>
      </trkpt>
      <trkpt lat="38.2930570" lon="-0.6930660">
        <ele>132.0</ele>
        <time>2018-10-04T09:46:25Z</time>
      </trkpt>
      <trkpt lat="38.2929780" lon="-0.6930910">
        <ele>131.8</ele>
        <time>2018-10-04T09:46:26Z</time>
      </trkpt>
      <trkpt lat="38.2929010" lon="-0.6931160">
        <ele>131.5</ele>
        <time>2018-10-04T09:46:27Z</time>
      </trkpt>
      <trkpt lat="38.2928290" lon="-0.6931390">
        <ele>131.3</ele>
        <time>2018-10-04T09:46:28Z</time>
      </trkpt>
      <trkpt lat="38.2927610" lon="-0.6931600">
        <ele>131.0</ele>
        <time>2018-10-04T09:46:29Z</time>
      </trkpt>
      <trkpt lat="38.2926970" lon="-0.6931810">
        <ele>130.8</ele>
        <time>2018-10-04T09:46:30Z</time>
      </trkpt>
      <trkpt lat="38.2926370" lon="-0.6932020">
        <ele>130.5</ele>
        <time>2018-10-04T09:46:31Z</time>
      </trkpt>
      <trkpt lat="38.2925800" lon="-0.6932240">
        <ele>130.2</ele>
        <time>2018-10-04T09:46:32Z</time>
      </trkpt>
      <trkpt lat="38.2925240" lon="-0.6932450">
        <ele>129.9</ele>
        <time>2018-10-04T09:46:33Z</time>
      </trkpt>
      <trkpt lat="38.2924690" lon="-0.6932660">
        <ele>129.7</ele>
        <time>2018-10-04T09:46:34Z</time>
      </trkpt>
      <trkpt lat="38.2924160" lon="-0.6932880">
        <ele>129.4</ele>
        <time>2018-10-04T09:46:35Z</time>
      </trkpt>
      <trkpt lat="38.2923630" lon="-0.6933110">
        <ele>129.2</ele>
        <time>2018-10-04T09:46:36Z</time>
      </trkpt>
      <trkpt lat="38.2923090" lon="-0.6933340">
        <ele>129.0</ele>
        <time>2018-10-04T09:46:37Z</time>
      </trkpt>
      <trkpt lat="38.2922540" lon="-0.6933580">
        <ele>128.7</ele>
        <time>2018-10-04T09:46:38Z</time>
      </trkpt>
      <trkpt lat="38.2921980" lon="-0.6933850">
        <ele>128.3</ele>
        <time>2018-10-04T09:46:39Z</time>
      </trkpt>
      <trkpt lat="38.2921410" lon="-0.6934140">
        <ele>128.0</ele>
        <time>2018-10-04T09:46:40Z</time>
      </trkpt>
      <trkpt lat="38.2920820" lon="-0.6934440">
        <ele>127.8</ele>
        <time>2018-10-04T09:46:41Z</time>
      </trkpt>
      <trkpt lat="38.2920230" lon="-0.6934780">
        <ele>127.5</ele>
        <time>2018-10-04T09:46:42Z</time>
      </trkpt>
      <trkpt lat="38.2919640" lon="-0.6935140">
        <ele>127.3</ele>
        <time>2018-10-04T09:46:43Z</time>
      </trkpt>
      <trkpt lat="38.2919040" lon="-0.6935510">
        <ele>127.1</ele>
        <time>2018-10-04T09:46:44Z</time>
      </trkpt>
      <trkpt lat="38.2918430" lon="-0.6935900">
        <ele>126.8</ele>
        <time>2018-10-04T09:46:45Z</time>
      </trkpt>
      <trkpt lat="38.2917820" lon="-0.6936290">
        <ele>126.3</ele>
        <time>2018-10-04T09:46:46Z</time>
      </trkpt>
      <trkpt lat="38.2917200" lon="-0.6936690">
        <ele>126.1</ele>
        <time>2018-10-04T09:46:47Z</time>
      </trkpt>
      <trkpt lat="38.2916590" lon="-0.6937110">
        <ele>125.9</ele>
        <time>2018-10-04T09:46:48Z</time>
      </trkpt>
      <trkpt lat="38.2915990" lon="-0.6937540">
        <ele>125.7</ele>
        <time>2018-10-04T09:46:49Z</time>
      </trkpt>
      <trkpt lat="38.2915370" lon="-0.6937970">
        <ele>125.5</ele>
        <time>2018-10-04T09:46:50Z</time>
      </trkpt>
      <trkpt lat="38.2914750" lon="-0.6938380">
        <ele>125.3</ele>
        <time>2018-10-04T09:46:51Z</time>
      </trkpt>
      <trkpt lat="38.2914120" lon="-0.6938810">
        <ele>125.1</ele>
        <time>2018-10-04T09:46:52Z</time>
      </trkpt>
      <trkpt lat="38.2913490" lon="-0.6939240">
        <ele>124.9</ele>
        <time>2018-10-04T09:46:53Z</time>
      </trkpt>
      <trkpt lat="38.2912860" lon="-0.6939680">
        <ele>124.7</ele>
        <time>2018-10-04T09:46:54Z</time>
      </trkpt>
      <trkpt lat="38.2912210" lon="-0.6940110">
        <ele>124.4</ele>
        <time>2018-10-04T09:46:55Z</time>
      </trkpt>
      <trkpt lat="38.2911550" lon="-0.6940540">
        <ele>124.2</ele>
        <time>2018-10-04T09:46:56Z</time>
      </trkpt>
      <trkpt lat="38.2910880" lon="-0.6941000">
        <ele>123.9</ele>
        <time>2018-10-04T09:46:57Z</time>
      </trkpt>
      <trkpt lat="38.2910210" lon="-0.6941500">
        <ele>123.7</ele>
        <time>2018-10-04T09:46:58Z</time>
      </trkpt>
      <trkpt lat="38.2909540" lon="-0.6942030">
        <ele>123.4</ele>
        <time>2018-10-04T09:46:59Z</time>
      </trkpt>
      <trkpt lat="38.2908870" lon="-0.6942600">
        <ele>123.0</ele>
        <time>2018-10-04T09:47:00Z</time>
      </trkpt>
      <trkpt lat="38.2908190" lon="-0.6943260">
        <ele>121.6</ele>
        <time>2018-10-04T09:47:01Z</time>
      </trkpt>
      <trkpt lat="38.2907480" lon="-0.6943980">
        <ele>120.0</ele>
        <time>2018-10-04T09:47:02Z</time>
      </trkpt>
      <trkpt lat="38.2906760" lon="-0.6944720">
        <ele>119.6</ele>
        <time>2018-10-04T09:47:03Z</time>
      </trkpt>
      <trkpt lat="38.2906000" lon="-0.6945470">
        <ele>119.3</ele>
        <time>2018-10-04T09:47:04Z</time>
      </trkpt>
      <trkpt lat="38.2905210" lon="-0.6946220">
        <ele>118.9</ele>
        <time>2018-10-04T09:47:05Z</time>
      </trkpt>
      <trkpt lat="38.2904380" lon="-0.6946940">
        <ele>118.5</ele>
        <time>2018-10-04T09:47:06Z</time>
      </trkpt>
      <trkpt lat="38.2903510" lon="-0.6947610">
        <ele>118.0</ele>
        <time>2018-10-04T09:47:07Z</time>
      </trkpt>
      <trkpt lat="38.2902640" lon="-0.6948230">
        <ele>117.6</ele>
        <time>2018-10-04T09:47:08Z</time>
      </trkpt>
      <trkpt lat="38.2901770" lon="-0.6948780">
        <ele>117.1</ele>
        <time>2018-10-04T09:47:09Z</time>
      </trkpt>
      <trkpt lat="38.2900920" lon="-0.6949280">
        <ele>116.7</ele>
        <time>2018-10-04T09:47:10Z</time>
      </trkpt>
      <trkpt lat="38.2900060" lon="-0.6949740">
        <ele>116.3</ele>
        <time>2018-10-04T09:47:11Z</time>
      </trkpt>
      <trkpt lat="38.2899220" lon="-0.6950220">
        <ele>116.1</ele>
        <time>2018-10-04T09:47:12Z</time>
      </trkpt>
      <trkpt lat="38.2898410" lon="-0.6950690">
        <ele>115.9</ele>
        <time>2018-10-04T09:47:13Z</time>
      </trkpt>
      <trkpt lat="38.2897620" lon="-0.6951170">
        <ele>115.7</ele>
        <time>2018-10-04T09:47:14Z</time>
      </trkpt>
      <trkpt lat="38.2896840" lon="-0.6951660">
        <ele>115.4</ele>
        <time>2018-10-04T09:47:15Z</time>
      </trkpt>
      <trkpt lat="38.2896060" lon="-0.6952140">
        <ele>115.1</ele>
        <time>2018-10-04T09:47:16Z</time>
      </trkpt>
      <trkpt lat="38.2895290" lon="-0.6952640">
        <ele>114.8</ele>
        <time>2018-10-04T09:47:17Z</time>
      </trkpt>
      <trkpt lat="38.2894520" lon="-0.6953120">
        <ele>114.6</ele>
        <time>2018-10-04T09:47:18Z</time>
      </trkpt>
      <trkpt lat="38.2893750" lon="-0.6953570">
        <ele>114.6</ele>
        <time>2018-10-04T09:47:19Z</time>
      </trkpt>
      <trkpt lat="38.2892980" lon="-0.6953990">
        <ele>114.5</ele>
        <time>2018-10-04T09:47:20Z</time>
      </trkpt>
      <trkpt lat="38.2892210" lon="-0.6954400">
        <ele>114.5</ele>
        <time>2018-10-04T09:47:21Z</time>
      </trkpt>
      <trkpt lat="38.2891450" lon="-0.6954830">
        <ele>114.5</ele>
        <time>2018-10-04T09:47:22Z</time>
      </trkpt>
      <trkpt lat="38.2890670" lon="-0.6955260">
        <ele>114.5</ele>
        <time>2018-10-04T09:47:23Z</time>
      </trkpt>
      <trkpt lat="38.2889910" lon="-0.6955720">
        <ele>114.4</ele>
        <time>2018-10-04T09:47:24Z</time>
      </trkpt>
      <trkpt lat="38.2889150" lon="-0.6956200">
        <ele>114.4</ele>
        <time>2018-10-04T09:47:25Z</time>
      </trkpt>
      <trkpt lat="38.2888420" lon="-0.6956750">
        <ele>114.4</ele>
        <time>2018-10-04T09:47:26Z</time>
      </trkpt>
      <trkpt lat="38.2887710" lon="-0.6957380">
        <ele>114.3</ele>
        <time>2018-10-04T09:47:27Z</time>
      </trkpt>
      <trkpt lat="38.2887070" lon="-0.6958080">
        <ele>114.2</ele>
        <time>2018-10-04T09:47:28Z</time>
      </trkpt>
      <trkpt lat="38.2886450" lon="-0.6958860">
        <ele>114.0</ele>
        <time>2018-10-04T09:47:29Z</time>
      </trkpt>
      <trkpt lat="38.2885870" lon="-0.6959680">
        <ele>113.8</ele>
        <time>2018-10-04T09:47:30Z</time>
      </trkpt>
      <trkpt lat="38.2885340" lon="-0.6960520">
        <ele>113.6</ele>
        <time>2018-10-04T09:47:31Z</time>
      </trkpt>
      <trkpt lat="38.2884860" lon="-0.6961410">
        <ele>113.3</ele>
        <time>2018-10-04T09:47:32Z</time>
      </trkpt>
      <trkpt lat="38.2884460" lon="-0.6962330">
        <ele>113.2</ele>
        <time>2018-10-04T09:47:33Z</time>
      </trkpt>
      <trkpt lat="38.2884060" lon="-0.6963250">
        <ele>113.0</ele>
        <time>2018-10-04T09:47:34Z</time>
      </trkpt>
      <trkpt lat="38.2883620" lon="-0.6964190">
        <ele>112.8</ele>
        <time>2018-10-04T09:47:35Z</time>
      </trkpt>
      <trkpt lat="38.2883010" lon="-0.6965050">
        <ele>112.5</ele>
        <time>2018-10-04T09:47:36Z</time>
      </trkpt>
      <trkpt lat="38.2882310" lon="-0.6965700">
        <ele>112.2</ele>
        <time>2018-10-04T09:47:37Z</time>
      </trkpt>
      <trkpt lat="38.2881500" lon="-0.6966160">
        <ele>111.8</ele>
        <time>2018-10-04T09:47:38Z</time>
      </trkpt>
      <trkpt lat="38.2880610" lon="-0.6966210">
        <ele>111.5</ele>
        <time>2018-10-04T09:47:39Z</time>
      </trkpt>
      <trkpt lat="38.2879790" lon="-0.6965890">
        <ele>111.1</ele>
        <time>2018-10-04T09:47:40Z</time>
      </trkpt>
      <trkpt lat="38.2879000" lon="-0.6965370">
        <ele>110.7</ele>
        <time>2018-10-04T09:47:41Z</time>
      </trkpt>
      <trkpt lat="38.2878200" lon="-0.6964870">
        <ele>110.3</ele>
        <time>2018-10-04T09:47:42Z</time>
      </trkpt>
      <trkpt lat="38.2877370" lon="-0.6964520">
        <ele>109.8</ele>
        <time>2018-10-04T09:47:43Z</time>
      </trkpt>
      <trkpt lat="38.2876500" lon="-0.6964500">
        <ele>109.4</ele>
        <time>2018-10-04T09:47:44Z</time>
      </trkpt>
      <trkpt lat="38.2875660" lon="-0.6964700">
        <ele>109.0</ele>
        <time>2018-10-04T09:47:45Z</time>
      </trkpt>
      <trkpt lat="38.2874900" lon="-0.6965120">
        <ele>108.7</ele>
        <time>2018-10-04T09:47:46Z</time>
      </trkpt>
      <trkpt lat="38.2874160" lon="-0.6965580">
        <ele>108.4</ele>
        <time>2018-10-04T09:47:47Z</time>
      </trkpt>
      <trkpt lat="38.2873410" lon="-0.6966000">
        <ele>108.3</ele>
        <time>2018-10-04T09:47:48Z</time>
      </trkpt>
      <trkpt lat="38.2872680" lon="-0.6966440">
        <ele>108.1</ele>
        <time>2018-10-04T09:47:49Z</time>
      </trkpt>
      <trkpt lat="38.2871950" lon="-0.6966840">
        <ele>108.1</ele>
        <time>2018-10-04T09:47:50Z</time>
      </trkpt>
      <trkpt lat="38.2871210" lon="-0.6967200">
        <ele>107.9</ele>
        <time>2018-10-04T09:47:51Z</time>
      </trkpt>
      <trkpt lat="38.2870480" lon="-0.6967480">
        <ele>107.8</ele>
        <time>2018-10-04T09:47:52Z</time>
      </trkpt>
      <trkpt lat="38.2869740" lon="-0.6967720">
        <ele>107.6</ele>
        <time>2018-10-04T09:47:53Z</time>
      </trkpt>
      <trkpt lat="38.2869000" lon="-0.6967920">
        <ele>107.5</ele>
        <time>2018-10-04T09:47:54Z</time>
      </trkpt>
      <trkpt lat="38.2868250" lon="-0.6968060">
        <ele>107.3</ele>
        <time>2018-10-04T09:47:55Z</time>
      </trkpt>
      <trkpt lat="38.2867500" lon="-0.6968160">
        <ele>107.2</ele>
        <time>2018-10-04T09:47:56Z</time>
      </trkpt>
      <trkpt lat="38.2866750" lon="-0.6968230">
        <ele>107.1</ele>
        <time>2018-10-04T09:47:57Z</time>
      </trkpt>
      <trkpt lat="38.2866010" lon="-0.6968290">
        <ele>107.1</ele>
        <time>2018-10-04T09:47:58Z</time>
      </trkpt>
      <trkpt lat="38.2865260" lon="-0.6968380">
        <ele>107.1</ele>
        <time>2018-10-04T09:47:59Z</time>
      </trkpt>
      <trkpt lat="38.2864530" lon="-0.6968490">
        <ele>107.1</ele>
        <time>2018-10-04T09:48:00Z</time>
      </trkpt>
      <trkpt lat="38.2863790" lon="-0.6968590">
        <ele>107.1</ele>
        <time>2018-10-04T09:48:01Z</time>
      </trkpt>
      <trkpt lat="38.2863070" lon="-0.6968710">
        <ele>107.1</ele>
        <time>2018-10-04T09:48:02Z</time>
      </trkpt>
      <trkpt lat="38.2862350" lon="-0.6968870">
        <ele>107.1</ele>
        <time>2018-10-04T09:48:03Z</time>
      </trkpt>
      <trkpt lat="38.2861680" lon="-0.6969170">
        <ele>107.1</ele>
        <time>2018-10-04T09:48:04Z</time>
      </trkpt>
      <trkpt lat="38.2861020" lon="-0.6969530">
        <ele>107.1</ele>
        <time>2018-10-04T09:48:05Z</time>
      </trkpt>
      <trkpt lat="38.2860390" lon="-0.6969930">
        <ele>107.2</ele>
        <time>2018-10-04T09:48:06Z</time>
      </trkpt>
      <trkpt lat="38.2859750" lon="-0.6970310">
        <ele>107.2</ele>
        <time>2018-10-04T09:48:07Z</time>
      </trkpt>
      <trkpt lat="38.2859120" lon="-0.6970660">
        <ele>107.2</ele>
        <time>2018-10-04T09:48:08Z</time>
      </trkpt>
      <trkpt lat="38.2858510" lon="-0.6971040">
        <ele>107.2</ele>
        <time>2018-10-04T09:48:09Z</time>
      </trkpt>
      <trkpt lat="38.2857900" lon="-0.6971440">
        <ele>107.2</ele>
        <time>2018-10-04T09:48:10Z</time>
      </trkpt>
      <trkpt lat="38.2857300" lon="-0.6971840">
        <ele>107.3</ele>
        <time>2018-10-04T09:48:11Z</time>
      </trkpt>
      <trkpt lat="38.2856700" lon="-0.6972250">
        <ele>107.3</ele>
        <time>2018-10-04T09:48:12Z</time>
      </trkpt>
      <trkpt lat="38.2856110" lon="-0.6972680">
        <ele>107.3</ele>
        <time>2018-10-04T09:48:13Z</time>
      </trkpt>
      <trkpt lat="38.2855520" lon="-0.6973110">
        <ele>107.3</ele>
        <time>2018-10-04T09:48:14Z</time>
      </trkpt>
      <trkpt lat="38.2854920" lon="-0.6973530">
        <ele>107.3</ele>
        <time>2018-10-04T09:48:15Z</time>
      </trkpt>
      <trkpt lat="38.2854300" lon="-0.6973940">
        <ele>107.3</ele>
        <time>2018-10-04T09:48:16Z</time>
      </trkpt>
      <trkpt lat="38.2853630" lon="-0.6974300">
        <ele>107.3</ele>
        <time>2018-10-04T09:48:17Z</time>
      </trkpt>
      <trkpt lat="38.2852900" lon="-0.6974620">
        <ele>107.3</ele>
        <time>2018-10-04T09:48:18Z</time>
      </trkpt>
      <trkpt lat="38.2852130" lon="-0.6974900">
        <ele>107.3</ele>
        <time>2018-10-04T09:48:19Z</time>
      </trkpt>
      <trkpt lat="38.2851310" lon="-0.6975110">
        <ele>107.2</ele>
        <time>2018-10-04T09:48:20Z</time>
      </trkpt>
      <trkpt lat="38.2850460" lon="-0.6975190">
        <ele>107.1</ele>
        <time>2018-10-04T09:48:21Z</time>
      </trkpt>
      <trkpt lat="38.2849570" lon="-0.6975180">
        <ele>106.9</ele>
        <time>2018-10-04T09:48:22Z</time>
      </trkpt>
      <trkpt lat="38.2848680" lon="-0.6975110">
        <ele>106.6</ele>
        <time>2018-10-04T09:48:23Z</time>
      </trkpt>
      <trkpt lat="38.2847770" lon="-0.6975030">
        <ele>106.3</ele>
        <time>2018-10-04T09:48:24Z</time>
      </trkpt>
      <trkpt lat="38.2846850" lon="-0.6974950">
        <ele>106.0</ele>
        <time>2018-10-04T09:48:25Z</time>
      </trkpt>
      <trkpt lat="38.2845900" lon="-0.6974900">
        <ele>105.7</ele>
        <time>2018-10-04T09:48:26Z</time>
      </trkpt>
      <trkpt lat="38.2844960" lon="-0.6974900">
        <ele>105.4</ele>
        <time>2018-10-04T09:48:27Z</time>
      </trkpt>
      <trkpt lat="38.2844060" lon="-0.6974920">
        <ele>105.1</ele>
        <time>2018-10-04T09:48:28Z</time>
      </trkpt>
      <trkpt lat="38.2843200" lon="-0.6974910">
        <ele>104.6</ele>
        <time>2018-10-04T09:48:29Z</time>
      </trkpt>
      <trkpt lat="38.2842400" lon="-0.6974880">
        <ele>104.2</ele>
        <time>2018-10-04T09:48:30Z</time>
      </trkpt>
      <trkpt lat="38.2841640" lon="-0.6974790">
        <ele>103.9</ele>
        <time>2018-10-04T09:48:31Z</time>
      </trkpt>
      <trkpt lat="38.2840890" lon="-0.6974700">
        <ele>103.9</ele>
        <time>2018-10-04T09:48:32Z</time>
      </trkpt>
      <trkpt lat="38.2840250" lon="-0.6974570">
        <ele>103.8</ele>
        <time>2018-10-04T09:48:33Z</time>
      </trkpt>
      <trkpt lat="38.2839640" lon="-0.6974450">
        <ele>103.8</ele>
        <time>2018-10-04T09:48:34Z</time>
      </trkpt>
      <trkpt lat="38.2839190" lon="-0.6974230">
        <ele>103.8</ele>
        <time>2018-10-04T09:48:35Z</time>
      </trkpt>
      <trkpt lat="38.2838730" lon="-0.6974030">
        <ele>103.8</ele>
        <time>2018-10-04T09:48:36Z</time>
      </trkpt>
      <trkpt lat="38.2838250" lon="-0.6973870">
        <ele>103.8</ele>
        <time>2018-10-04T09:48:37Z</time>
      </trkpt>
      <trkpt lat="38.2837810" lon="-0.6973660">
        <ele>103.8</ele>
        <time>2018-10-04T09:48:38Z</time>
      </trkpt>
      <trkpt lat="38.2837340" lon="-0.6973480">
        <ele>103.8</ele>
        <time>2018-10-04T09:48:39Z</time>
      </trkpt>
      <trkpt lat="38.2836880" lon="-0.6973290">
        <ele>103.8</ele>
        <time>2018-10-04T09:48:40Z</time>
      </trkpt>
      <trkpt lat="38.2836360" lon="-0.6973110">
        <ele>103.8</ele>
        <time>2018-10-04T09:48:41Z</time>
      </trkpt>
      <trkpt lat="38.2835830" lon="-0.6972920">
        <ele>103.7</ele>
        <time>2018-10-04T09:48:42Z</time>
      </trkpt>
      <trkpt lat="38.2835230" lon="-0.6972760">
        <ele>103.7</ele>
        <time>2018-10-04T09:48:43Z</time>
      </trkpt>
      <trkpt lat="38.2834670" lon="-0.6972580">
        <ele>103.7</ele>
        <time>2018-10-04T09:48:44Z</time>
      </trkpt>
      <trkpt lat="38.2834090" lon="-0.6972420">
        <ele>103.6</ele>
        <time>2018-10-04T09:48:45Z</time>
      </trkpt>
      <trkpt lat="38.2833440" lon="-0.6972310">
        <ele>103.6</ele>
        <time>2018-10-04T09:48:46Z</time>
      </trkpt>
      <trkpt lat="38.2832790" lon="-0.6972230">
        <ele>103.5</ele>
        <time>2018-10-04T09:48:47Z</time>
      </trkpt>
      <trkpt lat="38.2832150" lon="-0.6972140">
        <ele>103.5</ele>
        <time>2018-10-04T09:48:48Z</time>
      </trkpt>
      <trkpt lat="38.2831500" lon="-0.6972020">
        <ele>103.4</ele>
        <time>2018-10-04T09:48:49Z</time>
      </trkpt>
      <trkpt lat="38.2830840" lon="-0.6971870">
        <ele>103.3</ele>
        <time>2018-10-04T09:48:50Z</time>
      </trkpt>
      <trkpt lat="38.2830200" lon="-0.6971700">
        <ele>103.2</ele>
        <time>2018-10-04T09:48:51Z</time>
      </trkpt>
      <trkpt lat="38.2829550" lon="-0.6971530">
        <ele>103.0</ele>
        <time>2018-10-04T09:48:52Z</time>
      </trkpt>
      <trkpt lat="38.2828890" lon="-0.6971350">
        <ele>102.9</ele>
        <time>2018-10-04T09:48:53Z</time>
      </trkpt>
      <trkpt lat="38.2828230" lon="-0.6971150">
        <ele>102.9</ele>
        <time>2018-10-04T09:48:54Z</time>
      </trkpt>
      <trkpt lat="38.2827570" lon="-0.6970990">
        <ele>102.8</ele>
        <time>2018-10-04T09:48:55Z</time>
      </trkpt>
      <trkpt lat="38.2826910" lon="-0.6970840">
        <ele>102.7</ele>
        <time>2018-10-04T09:48:56Z</time>
      </trkpt>
      <trkpt lat="38.2826250" lon="-0.6970700">
        <ele>102.6</ele>
        <time>2018-10-04T09:48:57Z</time>
      </trkpt>
      <trkpt lat="38.2825600" lon="-0.6970580">
        <ele>102.4</ele>
        <time>2018-10-04T09:48:58Z</time>
      </trkpt>
      <trkpt lat="38.2824970" lon="-0.6970440">
        <ele>102.3</ele>
        <time>2018-10-04T09:48:59Z</time>
      </trkpt>
      <trkpt lat="38.2824360" lon="-0.6970280">
        <ele>102.2</ele>
        <time>2018-10-04T09:49:00Z</time>
      </trkpt>
      <trkpt lat="38.2823760" lon="-0.6970130">
        <ele>102.0</ele>
        <time>2018-10-04T09:49:01Z</time>
      </trkpt>
      <trkpt lat="38.2823140" lon="-0.6969960">
        <ele>102.0</ele>
        <time>2018-10-04T09:49:02Z</time>
      </trkpt>
      <trkpt lat="38.2822510" lon="-0.6969760">
        <ele>102.1</ele>
        <time>2018-10-04T09:49:03Z</time>
      </trkpt>
      <trkpt lat="38.2821900" lon="-0.6969490">
        <ele>102.1</ele>
        <time>2018-10-04T09:49:04Z</time>
      </trkpt>
      <trkpt lat="38.2821290" lon="-0.6969190">
        <ele>102.1</ele>
        <time>2018-10-04T09:49:05Z</time>
      </trkpt>
      <trkpt lat="38.2820670" lon="-0.6968880">
        <ele>102.1</ele>
        <time>2018-10-04T09:49:06Z</time>
      </trkpt>
      <trkpt lat="38.2820060" lon="-0.6968580">
        <ele>102.2</ele>
        <time>2018-10-04T09:49:07Z</time>
      </trkpt>
      <trkpt lat="38.2819440" lon="-0.6968300">
        <ele>102.2</ele>
        <time>2018-10-04T09:49:08Z</time>
      </trkpt>
      <trkpt lat="38.2818810" lon="-0.6968060">
        <ele>102.2</ele>
        <time>2018-10-04T09:49:09Z</time>
      </trkpt>
      <trkpt lat="38.2818180" lon="-0.6967840">
        <ele>102.2</ele>
        <time>2018-10-04T09:49:10Z</time>
      </trkpt>
      <trkpt lat="38.2817540" lon="-0.6967670">
        <ele>102.2</ele>
        <time>2018-10-04T09:49:11Z</time>
      </trkpt>
      <trkpt lat="38.2816900" lon="-0.6967520">
        <ele>102.1</ele>
        <time>2018-10-04T09:49:12Z</time>
      </trkpt>
      <trkpt lat="38.2816270" lon="-0.6967390">
        <ele>102.0</ele>
        <time>2018-10-04T09:49:13Z</time>
      </trkpt>
      <trkpt lat="38.2815630" lon="-0.6967280">
        <ele>102.0</ele>
        <time>2018-10-04T09:49:14Z</time>
      </trkpt>
      <trkpt lat="38.2815000" lon="-0.6967160">
        <ele>102.0</ele>
        <time>2018-10-04T09:49:15Z</time>
      </trkpt>
      <trkpt lat="38.2814360" lon="-0.6967070">
        <ele>102.0</ele>
        <time>2018-10-04T09:49:16Z</time>
      </trkpt>
      <trkpt lat="38.2813720" lon="-0.6966980">
        <ele>102.0</ele>
        <time>2018-10-04T09:49:17Z</time>
      </trkpt>
      <trkpt lat="38.2813080" lon="-0.6966950">
        <ele>102.0</ele>
        <time>2018-10-04T09:49:18Z</time>
      </trkpt>
      <trkpt lat="38.2812440" lon="-0.6966980">
        <ele>102.0</ele>
        <time>2018-10-04T09:49:19Z</time>
      </trkpt>
      <trkpt lat="38.2811780" lon="-0.6967030">
        <ele>102.0</ele>
        <time>2018-10-04T09:49:20Z</time>
      </trkpt>
      <trkpt lat="38.2811120" lon="-0.6967070">
        <ele>102.1</ele>
        <time>2018-10-04T09:49:21Z</time>
      </trkpt>
      <trkpt lat="38.2810440" lon="-0.6967090">
        <ele>102.1</ele>
        <time>2018-10-04T09:49:22Z</time>
      </trkpt>
      <trkpt lat="38.2809750" lon="-0.6967090">
        <ele>102.1</ele>
        <time>2018-10-04T09:49:23Z</time>
      </trkpt>
      <trkpt lat="38.2809050" lon="-0.6967080">
        <ele>102.0</ele>
        <time>2018-10-04T09:49:24Z</time>
      </trkpt>
      <trkpt lat="38.2808350" lon="-0.6967070">
        <ele>101.9</ele>
        <time>2018-10-04T09:49:25Z</time>
      </trkpt>
      <trkpt lat="38.2807630" lon="-0.6967060">
        <ele>101.8</ele>
        <time>2018-10-04T09:49:26Z</time>
      </trkpt>
      <trkpt lat="38.2806900" lon="-0.6967050">
        <ele>101.6</ele>
        <time>2018-10-04T09:49:27Z</time>
      </trkpt>
      <trkpt lat="38.2806160" lon="-0.6967070">
        <ele>101.4</ele>
        <time>2018-10-04T09:49:28Z</time>
      </trkpt>
      <trkpt lat="38.2805430" lon="-0.6967050">
        <ele>101.3</ele>
        <time>2018-10-04T09:49:29Z</time>
      </trkpt>
      <trkpt lat="38.2804720" lon="-0.6967010">
        <ele>101.1</ele>
        <time>2018-10-04T09:49:30Z</time>
      </trkpt>
      <trkpt lat="38.2804000" lon="-0.6966950">
        <ele>101.0</ele>
        <time>2018-10-04T09:49:31Z</time>
      </trkpt>
      <trkpt lat="38.2803300" lon="-0.6966920">
        <ele>101.0</ele>
        <time>2018-10-04T09:49:32Z</time>
      </trkpt>
      <trkpt lat="38.2802600" lon="-0.6966910">
        <ele>101.0</ele>
        <time>2018-10-04T09:49:33Z</time>
      </trkpt>
      <trkpt lat="38.2801930" lon="-0.6967000">
        <ele>101.0</ele>
        <time>2018-10-04T09:49:34Z</time>
      </trkpt>
      <trkpt lat="38.2801280" lon="-0.6967260">
        <ele>101.0</ele>
        <time>2018-10-04T09:49:35Z</time>
      </trkpt>
      <trkpt lat="38.2800700" lon="-0.6967760">
        <ele>101.0</ele>
        <time>2018-10-04T09:49:36Z</time>
      </trkpt>
      <trkpt lat="38.2800090" lon="-0.6968220">
        <ele>99.3</ele>
        <time>2018-10-04T09:49:37Z</time>
      </trkpt>
      <trkpt lat="38.2799410" lon="-0.6968530">
        <ele>97.7</ele>
        <time>2018-10-04T09:49:38Z</time>
      </trkpt>
      <trkpt lat="38.2798690" lon="-0.6968710">
        <ele>96.1</ele>
        <time>2018-10-04T09:49:39Z</time>
      </trkpt>
      <trkpt lat="38.2797950" lon="-0.6968770">
        <ele>96.0</ele>
        <time>2018-10-04T09:49:40Z</time>
      </trkpt>
      <trkpt lat="38.2797220" lon="-0.6968670">
        <ele>96.0</ele>
        <time>2018-10-04T09:49:41Z</time>
      </trkpt>
      <trkpt lat="38.2796500" lon="-0.6968410">
        <ele>96.0</ele>
        <time>2018-10-04T09:49:42Z</time>
      </trkpt>
      <trkpt lat="38.2795830" lon="-0.6968000">
        <ele>96.0</ele>
        <time>2018-10-04T09:49:43Z</time>
      </trkpt>
      <trkpt lat="38.2795260" lon="-0.6967390">
        <ele>96.5</ele>
        <time>2018-10-04T09:49:44Z</time>
      </trkpt>
      <trkpt lat="38.2794820" lon="-0.6966620">
        <ele>97.5</ele>
        <time>2018-10-04T09:49:45Z</time>
      </trkpt>
      <trkpt lat="38.2794480" lon="-0.6965760">
        <ele>98.4</ele>
        <time>2018-10-04T09:49:46Z</time>
      </trkpt>
      <trkpt lat="38.2794340" lon="-0.6964810">
        <ele>99.0</ele>
        <time>2018-10-04T09:49:47Z</time>
      </trkpt>
      <trkpt lat="38.2794280" lon="-0.6963870">
        <ele>99.0</ele>
        <time>2018-10-04T09:49:48Z</time>
      </trkpt>
      <trkpt lat="38.2794390" lon="-0.6962930">
        <ele>99.0</ele>
        <time>2018-10-04T09:49:49Z</time>
      </trkpt>
      <trkpt lat="38.2794710" lon="-0.6962090">
        <ele>99.0</ele>
        <time>2018-10-04T09:49:50Z</time>
      </trkpt>
      <trkpt lat="38.2795210" lon="-0.6961420">
        <ele>99.0</ele>
        <time>2018-10-04T09:49:51Z</time>
      </trkpt>
      <trkpt lat="38.2795800" lon="-0.6960820">
        <ele>99.0</ele>
        <time>2018-10-04T09:49:52Z</time>
      </trkpt>
      <trkpt lat="38.2796380" lon="-0.6960230">
        <ele>99.0</ele>
        <time>2018-10-04T09:49:53Z</time>
      </trkpt>
      <trkpt lat="38.2796880" lon="-0.6959520">
        <ele>99.0</ele>
        <time>2018-10-04T09:49:54Z</time>
      </trkpt>
      <trkpt lat="38.2797130" lon="-0.6958620">
        <ele>99.0</ele>
        <time>2018-10-04T09:49:55Z</time>
      </trkpt>
      <trkpt lat="38.2797180" lon="-0.6957730">
        <ele>99.0</ele>
        <time>2018-10-04T09:49:56Z</time>
      </trkpt>
      <trkpt lat="38.2797220" lon="-0.6956790">
        <ele>99.0</ele>
        <time>2018-10-04T09:49:57Z</time>
      </trkpt>
      <trkpt lat="38.2797260" lon="-0.6955840">
        <ele>99.0</ele>
        <time>2018-10-04T09:49:58Z</time>
      </trkpt>
      <trkpt lat="38.2797320" lon="-0.6954880">
        <ele>99.0</ele>
        <time>2018-10-04T09:49:59Z</time>
      </trkpt>
      <trkpt lat="38.2797360" lon="-0.6953910">
        <ele>99.0</ele>
        <time>2018-10-04T09:50:00Z</time>
      </trkpt>
      <trkpt lat="38.2797420" lon="-0.6952930">
        <ele>98.9</ele>
        <time>2018-10-04T09:50:01Z</time>
      </trkpt>
      <trkpt lat="38.2797480" lon="-0.6951940">
        <ele>98.9</ele>
        <time>2018-10-04T09:50:02Z</time>
      </trkpt>
      <trkpt lat="38.2797540" lon="-0.6950940">
        <ele>98.9</ele>
        <time>2018-10-04T09:50:03Z</time>
      </trkpt>
      <trkpt lat="38.2797600" lon="-0.6949930">
        <ele>98.9</ele>
        <time>2018-10-04T09:50:04Z</time>
      </trkpt>
      <trkpt lat="38.2797660" lon="-0.6948930">
        <ele>98.9</ele>
        <time>2018-10-04T09:50:05Z</time>
      </trkpt>
      <trkpt lat="38.2797730" lon="-0.6947930">
        <ele>98.9</ele>
        <time>2018-10-04T09:50:06Z</time>
      </trkpt>
      <trkpt lat="38.2797820" lon="-0.6946930">
        <ele>98.9</ele>
        <time>2018-10-04T09:50:07Z</time>
      </trkpt>
      <trkpt lat="38.2797890" lon="-0.6945920">
        <ele>98.9</ele>
        <time>2018-10-04T09:50:08Z</time>
      </trkpt>
      <trkpt lat="38.2797940" lon="-0.6944910">
        <ele>98.9</ele>
        <time>2018-10-04T09:50:09Z</time>
      </trkpt>
      <trkpt lat="38.2798000" lon="-0.6943910">
        <ele>98.9</ele>
        <time>2018-10-04T09:50:10Z</time>
      </trkpt>
      <trkpt lat="38.2798050" lon="-0.6942900">
        <ele>98.9</ele>
        <time>2018-10-04T09:50:11Z</time>
      </trkpt>
      <trkpt lat="38.2798120" lon="-0.6941880">
        <ele>98.9</ele>
        <time>2018-10-04T09:50:12Z</time>
      </trkpt>
      <trkpt lat="38.2798170" lon="-0.6940870">
        <ele>98.9</ele>
        <time>2018-10-04T09:50:13Z</time>
      </trkpt>
      <trkpt lat="38.2798230" lon="-0.6939860">
        <ele>99.0</ele>
        <time>2018-10-04T09:50:14Z</time>
      </trkpt>
      <trkpt lat="38.2798300" lon="-0.6938850">
        <ele>99.2</ele>
        <time>2018-10-04T09:50:15Z</time>
      </trkpt>
      <trkpt lat="38.2798360" lon="-0.6937850">
        <ele>99.4</ele>
        <time>2018-10-04T09:50:16Z</time>
      </trkpt>
      <trkpt lat="38.2798420" lon="-0.6936850">
        <ele>99.8</ele>
        <time>2018-10-04T09:50:17Z</time>
      </trkpt>
      <trkpt lat="38.2798490" lon="-0.6935850">
        <ele>100.2</ele>
        <time>2018-10-04T09:50:18Z</time>
      </trkpt>
      <trkpt lat="38.2798550" lon="-0.6934870">
        <ele>100.5</ele>
        <time>2018-10-04T09:50:19Z</time>
      </trkpt>
      <trkpt lat="38.2798630" lon="-0.6933880">
        <ele>100.7</ele>
        <time>2018-10-04T09:50:20Z</time>
      </trkpt>
      <trkpt lat="38.2798710" lon="-0.6932900">
        <ele>100.9</ele>
        <time>2018-10-04T09:50:21Z</time>
      </trkpt>
      <trkpt lat="38.2798790" lon="-0.6931920">
        <ele>101.0</ele>
        <time>2018-10-04T09:50:22Z</time>
      </trkpt>
      <trkpt lat="38.2798880" lon="-0.6930950">
        <ele>101.0</ele>
        <time>2018-10-04T09:50:23Z</time>
      </trkpt>
      <trkpt lat="38.2798980" lon="-0.6929980">
        <ele>101.0</ele>
        <time>2018-10-04T09:50:24Z</time>
      </trkpt>
      <trkpt lat="38.2799110" lon="-0.6929020">
        <ele>101.0</ele>
        <time>2018-10-04T09:50:25Z</time>
      </trkpt>
      <trkpt lat="38.2799260" lon="-0.6928080">
        <ele>101.0</ele>
        <time>2018-10-04T09:50:26Z</time>
      </trkpt>
      <trkpt lat="38.2799430" lon="-0.6927140">
        <ele>101.0</ele>
        <time>2018-10-04T09:50:27Z</time>
      </trkpt>
      <trkpt lat="38.2799610" lon="-0.6926210">
        <ele>101.0</ele>
        <time>2018-10-04T09:50:28Z</time>
      </trkpt>
      <trkpt lat="38.2799800" lon="-0.6925280">
        <ele>101.0</ele>
        <time>2018-10-04T09:50:29Z</time>
      </trkpt>
      <trkpt lat="38.2800010" lon="-0.6924360">
        <ele>101.0</ele>
        <time>2018-10-04T09:50:30Z</time>
      </trkpt>
      <trkpt lat="38.2800250" lon="-0.6923460">
        <ele>101.0</ele>
        <time>2018-10-04T09:50:31Z</time>
      </trkpt>
      <trkpt lat="38.2800520" lon="-0.6922560">
        <ele>101.0</ele>
        <time>2018-10-04T09:50:32Z</time>
      </trkpt>
      <trkpt lat="38.2800800" lon="-0.6921670">
        <ele>101.0</ele>
        <time>2018-10-04T09:50:33Z</time>
      </trkpt>
      <trkpt lat="38.2801080" lon="-0.6920790">
        <ele>100.9</ele>
        <time>2018-10-04T09:50:34Z</time>
      </trkpt>
      <trkpt lat="38.2801370" lon="-0.6919920">
        <ele>100.9</ele>
        <time>2018-10-04T09:50:35Z</time>
      </trkpt>
      <trkpt lat="38.2801660" lon="-0.6919050">
        <ele>100.9</ele>
        <time>2018-10-04T09:50:36Z</time>
      </trkpt>
      <trkpt lat="38.2801970" lon="-0.6918190">
        <ele>100.9</ele>
        <time>2018-10-04T09:50:37Z</time>
      </trkpt>
      <trkpt lat="38.2802260" lon="-0.6917310">
        <ele>100.9</ele>
        <time>2018-10-04T09:50:38Z</time>
      </trkpt>
      <trkpt lat="38.2802550" lon="-0.6916450">
        <ele>100.9</ele>
        <time>2018-10-04T09:50:39Z</time>
      </trkpt>
      <trkpt lat="38.2802830" lon="-0.6915590">
        <ele>100.9</ele>
        <time>2018-10-04T09:50:40Z</time>
      </trkpt>
      <trkpt lat="38.2803130" lon="-0.6914720">
        <ele>100.9</ele>
        <time>2018-10-04T09:50:41Z</time>
      </trkpt>
      <trkpt lat="38.2803430" lon="-0.6913860">
        <ele>100.9</ele>
        <time>2018-10-04T09:50:42Z</time>
      </trkpt>
      <trkpt lat="38.2803730" lon="-0.6913000">
        <ele>100.9</ele>
        <time>2018-10-04T09:50:43Z</time>
      </trkpt>
      <trkpt lat="38.2804020" lon="-0.6912150">
        <ele>100.9</ele>
        <time>2018-10-04T09:50:44Z</time>
      </trkpt>
      <trkpt lat="38.2804320" lon="-0.6911290">
        <ele>100.9</ele>
        <time>2018-10-04T09:50:45Z</time>
      </trkpt>
      <trkpt lat="38.2804620" lon="-0.6910440">
        <ele>100.9</ele>
        <time>2018-10-04T09:50:46Z</time>
      </trkpt>
      <trkpt lat="38.2804900" lon="-0.6909610">
        <ele>100.9</ele>
        <time>2018-10-04T09:50:47Z</time>
      </trkpt>
      <trkpt lat="38.2805180" lon="-0.6908770">
        <ele>100.9</ele>
        <time>2018-10-04T09:50:48Z</time>
      </trkpt>
      <trkpt lat="38.2805480" lon="-0.6907950">
        <ele>100.9</ele>
        <time>2018-10-04T09:50:49Z</time>
      </trkpt>
      <trkpt lat="38.2805790" lon="-0.6907140">
        <ele>100.9</ele>
        <time>2018-10-04T09:50:50Z</time>
      </trkpt>
      <trkpt lat="38.2806100" lon="-0.6906310">
        <ele>100.9</ele>
        <time>2018-10-04T09:50:51Z</time>
      </trkpt>
      <trkpt lat="38.2806380" lon="-0.6905490">
        <ele>100.9</ele>
        <time>2018-10-04T09:50:52Z</time>
      </trkpt>
      <trkpt lat="38.2806650" lon="-0.6904650">
        <ele>100.9</ele>
        <time>2018-10-04T09:50:53Z</time>
      </trkpt>
      <trkpt lat="38.2806930" lon="-0.6903840">
        <ele>100.9</ele>
        <time>2018-10-04T09:50:54Z</time>
      </trkpt>
      <trkpt lat="38.2807220" lon="-0.6903040">
        <ele>100.9</ele>
        <time>2018-10-04T09:50:55Z</time>
      </trkpt>
      <trkpt lat="38.2807510" lon="-0.6902240">
        <ele>100.9</ele>
        <time>2018-10-04T09:50:56Z</time>
      </trkpt>
      <trkpt lat="38.2807790" lon="-0.6901450">
        <ele>101.0</ele>
        <time>2018-10-04T09:50:57Z</time>
      </trkpt>
      <trkpt lat="38.2808060" lon="-0.6900630">
        <ele>101.2</ele>
        <time>2018-10-04T09:50:58Z</time>
      </trkpt>
      <trkpt lat="38.2808200" lon="-0.6899780">
        <ele>101.4</ele>
        <time>2018-10-04T09:50:59Z</time>
      </trkpt>
      <trkpt lat="38.2808070" lon="-0.6898890">
        <ele>101.8</ele>
        <time>2018-10-04T09:51:00Z</time>
      </trkpt>
      <trkpt lat="38.2807820" lon="-0.6898070">
        <ele>102.0</ele>
        <time>2018-10-04T09:51:01Z</time>
      </trkpt>
      <trkpt lat="38.2807520" lon="-0.6897250">
        <ele>102.0</ele>
        <time>2018-10-04T09:51:02Z</time>
      </trkpt>
      <trkpt lat="38.2807300" lon="-0.6896380">
        <ele>102.0</ele>
        <time>2018-10-04T09:51:03Z</time>
      </trkpt>
      <trkpt lat="38.2807220" lon="-0.6895460">
        <ele>102.0</ele>
        <time>2018-10-04T09:51:04Z</time>
      </trkpt>
      <trkpt lat="38.2807270" lon="-0.6894530">
        <ele>102.0</ele>
        <time>2018-10-04T09:51:05Z</time>
      </trkpt>
      <trkpt lat="38.2807450" lon="-0.6893660">
        <ele>102.0</ele>
        <time>2018-10-04T09:51:06Z</time>
      </trkpt>
      <trkpt lat="38.2807790" lon="-0.6892880">
        <ele>102.0</ele>
        <time>2018-10-04T09:51:07Z</time>
      </trkpt>
      <trkpt lat="38.2808240" lon="-0.6892200">
        <ele>102.2</ele>
        <time>2018-10-04T09:51:08Z</time>
      </trkpt>
      <trkpt lat="38.2808780" lon="-0.6891610">
        <ele>102.5</ele>
        <time>2018-10-04T09:51:09Z</time>
      </trkpt>
      <trkpt lat="38.2809350" lon="-0.6891070">
        <ele>102.8</ele>
        <time>2018-10-04T09:51:10Z</time>
      </trkpt>
      <trkpt lat="38.2809930" lon="-0.6890560">
        <ele>103.0</ele>
        <time>2018-10-04T09:51:11Z</time>
      </trkpt>
      <trkpt lat="38.2810480" lon="-0.6890000">
        <ele>103.0</ele>
        <time>2018-10-04T09:51:12Z</time>
      </trkpt>
      <trkpt lat="38.2810980" lon="-0.6889350">
        <ele>103.0</ele>
        <time>2018-10-04T09:51:13Z</time>
      </trkpt>
      <trkpt lat="38.2811370" lon="-0.6888570">
        <ele>103.0</ele>
        <time>2018-10-04T09:51:14Z</time>
      </trkpt>
      <trkpt lat="38.2811680" lon="-0.6887760">
        <ele>102.9</ele>
        <time>2018-10-04T09:51:15Z</time>
      </trkpt>
      <trkpt lat="38.2811960" lon="-0.6886940">
        <ele>102.9</ele>
        <time>2018-10-04T09:51:16Z</time>
      </trkpt>
      <trkpt lat="38.2812250" lon="-0.6886100">
        <ele>102.9</ele>
        <time>2018-10-04T09:51:17Z</time>
      </trkpt>
      <trkpt lat="38.2812550" lon="-0.6885270">
        <ele>102.9</ele>
        <time>2018-10-04T09:51:18Z</time>
      </trkpt>
      <trkpt lat="38.2812860" lon="-0.6884430">
        <ele>102.9</ele>
        <time>2018-10-04T09:51:19Z</time>
      </trkpt>
      <trkpt lat="38.2813150" lon="-0.6883580">
        <ele>102.9</ele>
        <time>2018-10-04T09:51:20Z</time>
      </trkpt>
      <trkpt lat="38.2813430" lon="-0.6882740">
        <ele>102.9</ele>
        <time>2018-10-04T09:51:21Z</time>
      </trkpt>
      <trkpt lat="38.2813720" lon="-0.6881890">
        <ele>102.8</ele>
        <time>2018-10-04T09:51:22Z</time>
      </trkpt>
      <trkpt lat="38.2814010" lon="-0.6881050">
        <ele>102.8</ele>
        <time>2018-10-04T09:51:23Z</time>
      </trkpt>
      <trkpt lat="38.2814300" lon="-0.6880200">
        <ele>102.8</ele>
        <time>2018-10-04T09:51:24Z</time>
      </trkpt>
      <trkpt lat="38.2814600" lon="-0.6879360">
        <ele>102.8</ele>
        <time>2018-10-04T09:51:25Z</time>
      </trkpt>
      <trkpt lat="38.2814880" lon="-0.6878520">
        <ele>102.8</ele>
        <time>2018-10-04T09:51:26Z</time>
      </trkpt>
      <trkpt lat="38.2815180" lon="-0.6877680">
        <ele>102.8</ele>
        <time>2018-10-04T09:51:27Z</time>
      </trkpt>
      <trkpt lat="38.2815480" lon="-0.6876840">
        <ele>102.8</ele>
        <time>2018-10-04T09:51:28Z</time>
      </trkpt>
      <trkpt lat="38.2815780" lon="-0.6875990">
        <ele>102.7</ele>
        <time>2018-10-04T09:51:29Z</time>
      </trkpt>
      <trkpt lat="38.2816080" lon="-0.6875150">
        <ele>102.7</ele>
        <time>2018-10-04T09:51:30Z</time>
      </trkpt>
      <trkpt lat="38.2816380" lon="-0.6874300">
        <ele>102.7</ele>
        <time>2018-10-04T09:51:31Z</time>
      </trkpt>
      <trkpt lat="38.2816680" lon="-0.6873460">
        <ele>102.7</ele>
        <time>2018-10-04T09:51:32Z</time>
      </trkpt>
      <trkpt lat="38.2816980" lon="-0.6872620">
        <ele>102.7</ele>
        <time>2018-10-04T09:51:33Z</time>
      </trkpt>
      <trkpt lat="38.2817260" lon="-0.6871780">
        <ele>102.7</ele>
        <time>2018-10-04T09:51:34Z</time>
      </trkpt>
      <trkpt lat="38.2817540" lon="-0.6870940">
        <ele>102.7</ele>
        <time>2018-10-04T09:51:35Z</time>
      </trkpt>
      <trkpt lat="38.2817800" lon="-0.6870090">
        <ele>102.6</ele>
        <time>2018-10-04T09:51:36Z</time>
      </trkpt>
      <trkpt lat="38.2818060" lon="-0.6869240">
        <ele>102.6</ele>
        <time>2018-10-04T09:51:37Z</time>
      </trkpt>
      <trkpt lat="38.2818310" lon="-0.6868380">
        <ele>102.6</ele>
        <time>2018-10-04T09:51:38Z</time>
      </trkpt>
      <trkpt lat="38.2818580" lon="-0.6867530">
        <ele>102.6</ele>
        <time>2018-10-04T09:51:39Z</time>
      </trkpt>
      <trkpt lat="38.2818830" lon="-0.6866670">
        <ele>102.6</ele>
        <time>2018-10-04T09:51:40Z</time>
      </trkpt>
      <trkpt lat="38.2819080" lon="-0.6865800">
        <ele>102.6</ele>
        <time>2018-10-04T09:51:41Z</time>
      </trkpt>
      <trkpt lat="38.2819320" lon="-0.6864940">
        <ele>102.6</ele>
        <time>2018-10-04T09:51:42Z</time>
      </trkpt>
      <trkpt lat="38.2819550" lon="-0.6864070">
        <ele>102.6</ele>
        <time>2018-10-04T09:51:43Z</time>
      </trkpt>
      <trkpt lat="38.2819780" lon="-0.6863190">
        <ele>102.5</ele>
        <time>2018-10-04T09:51:44Z</time>
      </trkpt>
      <trkpt lat="38.2820000" lon="-0.6862320">
        <ele>102.5</ele>
        <time>2018-10-04T09:51:45Z</time>
      </trkpt>
      <trkpt lat="38.2820220" lon="-0.6861450">
        <ele>102.5</ele>
        <time>2018-10-04T09:51:46Z</time>
      </trkpt>
      <trkpt lat="38.2820430" lon="-0.6860560">
        <ele>102.5</ele>
        <time>2018-10-04T09:51:47Z</time>
      </trkpt>
      <trkpt lat="38.2820640" lon="-0.6859680">
        <ele>102.5</ele>
        <time>2018-10-04T09:51:48Z</time>
      </trkpt>
      <trkpt lat="38.2820840" lon="-0.6858790">
        <ele>102.5</ele>
        <time>2018-10-04T09:51:49Z</time>
      </trkpt>
      <trkpt lat="38.2821040" lon="-0.6857890">
        <ele>102.5</ele>
        <time>2018-10-04T09:51:50Z</time>
      </trkpt>
      <trkpt lat="38.2821230" lon="-0.6856990">
        <ele>102.4</ele>
        <time>2018-10-04T09:51:51Z</time>
      </trkpt>
      <trkpt lat="38.2821410" lon="-0.6856070">
        <ele>102.4</ele>
        <time>2018-10-04T09:51:52Z</time>
      </trkpt>
      <trkpt lat="38.2821590" lon="-0.6855150">
        <ele>102.4</ele>
        <time>2018-10-04T09:51:53Z</time>
      </trkpt>
      <trkpt lat="38.2821770" lon="-0.6854230">
        <ele>102.4</ele>
        <time>2018-10-04T09:51:54Z</time>
      </trkpt>
      <trkpt lat="38.2821940" lon="-0.6853310">
        <ele>102.4</ele>
        <time>2018-10-04T09:51:55Z</time>
      </trkpt>
      <trkpt lat="38.2822110" lon="-0.6852380">
        <ele>102.3</ele>
        <time>2018-10-04T09:51:56Z</time>
      </trkpt>
      <trkpt lat="38.2822290" lon="-0.6851450">
        <ele>102.3</ele>
        <time>2018-10-04T09:51:57Z</time>
      </trkpt>
      <trkpt lat="38.2822450" lon="-0.6850510">
        <ele>102.2</ele>
        <time>2018-10-04T09:51:58Z</time>
      </trkpt>
      <trkpt lat="38.2822590" lon="-0.6849570">
        <ele>102.0</ele>
        <time>2018-10-04T09:51:59Z</time>
      </trkpt>
      <trkpt lat="38.2822730" lon="-0.6848630">
        <ele>101.8</ele>
        <time>2018-10-04T09:52:00Z</time>
      </trkpt>
      <trkpt lat="38.2822860" lon="-0.6847690">
        <ele>101.5</ele>
        <time>2018-10-04T09:52:01Z</time>
      </trkpt>
      <trkpt lat="38.2822990" lon="-0.6846750">
        <ele>101.2</ele>
        <time>2018-10-04T09:52:02Z</time>
      </trkpt>
      <trkpt lat="38.2823100" lon="-0.6845810">
        <ele>101.0</ele>
        <time>2018-10-04T09:52:03Z</time>
      </trkpt>
      <trkpt lat="38.2823210" lon="-0.6844860">
        <ele>100.7</ele>
        <time>2018-10-04T09:52:04Z</time>
      </trkpt>
      <trkpt lat="38.2823320" lon="-0.6843910">
        <ele>100.5</ele>
        <time>2018-10-04T09:52:05Z</time>
      </trkpt>
      <trkpt lat="38.2823430" lon="-0.6842970">
        <ele>100.4</ele>
        <time>2018-10-04T09:52:06Z</time>
      </trkpt>
      <trkpt lat="38.2823530" lon="-0.6842020">
        <ele>100.3</ele>
        <time>2018-10-04T09:52:07Z</time>
      </trkpt>
      <trkpt lat="38.2823630" lon="-0.6841080">
        <ele>100.2</ele>
        <time>2018-10-04T09:52:08Z</time>
      </trkpt>
      <trkpt lat="38.2823740" lon="-0.6840150">
        <ele>100.2</ele>
        <time>2018-10-04T09:52:09Z</time>
      </trkpt>
      <trkpt lat="38.2823840" lon="-0.6839220">
        <ele>100.2</ele>
        <time>2018-10-04T09:52:10Z</time>
      </trkpt>
      <trkpt lat="38.2823910" lon="-0.6838290">
        <ele>100.2</ele>
        <time>2018-10-04T09:52:11Z</time>
      </trkpt>
      <trkpt lat="38.2823980" lon="-0.6837370">
        <ele>100.2</ele>
        <time>2018-10-04T09:52:12Z</time>
      </trkpt>
      <trkpt lat="38.2824030" lon="-0.6836450">
        <ele>100.2</ele>
        <time>2018-10-04T09:52:13Z</time>
      </trkpt>
      <trkpt lat="38.2824080" lon="-0.6835530">
        <ele>100.1</ele>
        <time>2018-10-04T09:52:14Z</time>
      </trkpt>
      <trkpt lat="38.2824140" lon="-0.6834640">
        <ele>100.1</ele>
        <time>2018-10-04T09:52:15Z</time>
      </trkpt>
      <trkpt lat="38.2824180" lon="-0.6833770">
        <ele>100.1</ele>
        <time>2018-10-04T09:52:16Z</time>
      </trkpt>
      <trkpt lat="38.2824220" lon="-0.6832910">
        <ele>100.1</ele>
        <time>2018-10-04T09:52:17Z</time>
      </trkpt>
      <trkpt lat="38.2824250" lon="-0.6832070">
        <ele>100.1</ele>
        <time>2018-10-04T09:52:18Z</time>
      </trkpt>
      <trkpt lat="38.2824260" lon="-0.6831240">
        <ele>100.1</ele>
        <time>2018-10-04T09:52:19Z</time>
      </trkpt>
      <trkpt lat="38.2824260" lon="-0.6830430">
        <ele>100.1</ele>
        <time>2018-10-04T09:52:20Z</time>
      </trkpt>
      <trkpt lat="38.2824190" lon="-0.6829620">
        <ele>100.0</ele>
        <time>2018-10-04T09:52:21Z</time>
      </trkpt>
      <trkpt lat="38.2823960" lon="-0.6828920">
        <ele>100.0</ele>
        <time>2018-10-04T09:52:22Z</time>
      </trkpt>
      <trkpt lat="38.2823560" lon="-0.6828300">
        <ele>100.0</ele>
        <time>2018-10-04T09:52:23Z</time>
      </trkpt>
      <trkpt lat="38.2823060" lon="-0.6827770">
        <ele>100.0</ele>
        <time>2018-10-04T09:52:24Z</time>
      </trkpt>
      <trkpt lat="38.2822490" lon="-0.6827320">
        <ele>100.0</ele>
        <time>2018-10-04T09:52:25Z</time>
      </trkpt>
      <trkpt lat="38.2821890" lon="-0.6826930">
        <ele>100.0</ele>
        <time>2018-10-04T09:52:26Z</time>
      </trkpt>
      <trkpt lat="38.2821230" lon="-0.6826740">
        <ele>99.8</ele>
        <time>2018-10-04T09:52:27Z</time>
      </trkpt>
      <trkpt lat="38.2820530" lon="-0.6826700">
        <ele>99.6</ele>
        <time>2018-10-04T09:52:28Z</time>
      </trkpt>
      <trkpt lat="38.2819820" lon="-0.6826740">
        <ele>99.4</ele>
        <time>2018-10-04T09:52:29Z</time>
      </trkpt>
      <trkpt lat="38.2819140" lon="-0.6826870">
        <ele>99.2</ele>
        <time>2018-10-04T09:52:30Z</time>
      </trkpt>
      <trkpt lat="38.2818450" lon="-0.6827050">
        <ele>99.0</ele>
        <time>2018-10-04T09:52:31Z</time>
      </trkpt>
      <trkpt lat="38.2817750" lon="-0.6827260">
        <ele>98.7</ele>
        <time>2018-10-04T09:52:32Z</time>
      </trkpt>
      <trkpt lat="38.2817060" lon="-0.6827500">
        <ele>98.5</ele>
        <time>2018-10-04T09:52:33Z</time>
      </trkpt>
      <trkpt lat="38.2816360" lon="-0.6827780">
        <ele>98.3</ele>
        <time>2018-10-04T09:52:34Z</time>
      </trkpt>
      <trkpt lat="38.2815660" lon="-0.6828010">
        <ele>98.0</ele>
        <time>2018-10-04T09:52:35Z</time>
      </trkpt>
      <trkpt lat="38.2814950" lon="-0.6828180">
        <ele>98.0</ele>
        <time>2018-10-04T09:52:36Z</time>
      </trkpt>
      <trkpt lat="38.2814220" lon="-0.6828310">
        <ele>97.9</ele>
        <time>2018-10-04T09:52:37Z</time>
      </trkpt>
      <trkpt lat="38.2813490" lon="-0.6828370">
        <ele>97.8</ele>
        <time>2018-10-04T09:52:38Z</time>
      </trkpt>
      <trkpt lat="38.2812760" lon="-0.6828410">
        <ele>97.7</ele>
        <time>2018-10-04T09:52:39Z</time>
      </trkpt>
      <trkpt lat="38.2812020" lon="-0.6828420">
        <ele>97.4</ele>
        <time>2018-10-04T09:52:40Z</time>
      </trkpt>
      <trkpt lat="38.2811290" lon="-0.6828420">
        <ele>97.1</ele>
        <time>2018-10-04T09:52:41Z</time>
      </trkpt>
      <trkpt lat="38.2810550" lon="-0.6828390">
        <ele>96.8</ele>
        <time>2018-10-04T09:52:42Z</time>
      </trkpt>
      <trkpt lat="38.2809800" lon="-0.6828320">
        <ele>96.5</ele>
        <time>2018-10-04T09:52:43Z</time>
      </trkpt>
      <trkpt lat="38.2809060" lon="-0.6828190">
        <ele>96.2</ele>
        <time>2018-10-04T09:52:44Z</time>
      </trkpt>
      <trkpt lat="38.2808320" lon="-0.6828020">
        <ele>96.0</ele>
        <time>2018-10-04T09:52:45Z</time>
      </trkpt>
      <trkpt lat="38.2807590" lon="-0.6827820">
        <ele>95.8</ele>
        <time>2018-10-04T09:52:46Z</time>
      </trkpt>
      <trkpt lat="38.2806860" lon="-0.6827600">
        <ele>95.7</ele>
        <time>2018-10-04T09:52:47Z</time>
      </trkpt>
      <trkpt lat="38.2806130" lon="-0.6827360">
        <ele>95.6</ele>
        <time>2018-10-04T09:52:48Z</time>
      </trkpt>
      <trkpt lat="38.2805410" lon="-0.6827090">
        <ele>95.6</ele>
        <time>2018-10-04T09:52:49Z</time>
      </trkpt>
      <trkpt lat="38.2804690" lon="-0.6826810">
        <ele>95.6</ele>
        <time>2018-10-04T09:52:50Z</time>
      </trkpt>
      <trkpt lat="38.2803970" lon="-0.6826520">
        <ele>95.6</ele>
        <time>2018-10-04T09:52:51Z</time>
      </trkpt>
      <trkpt lat="38.2803250" lon="-0.6826220">
        <ele>95.5</ele>
        <time>2018-10-04T09:52:52Z</time>
      </trkpt>
      <trkpt lat="38.2802530" lon="-0.6825940">
        <ele>95.5</ele>
        <time>2018-10-04T09:52:53Z</time>
      </trkpt>
      <trkpt lat="38.2801820" lon="-0.6825640">
        <ele>95.5</ele>
        <time>2018-10-04T09:52:54Z</time>
      </trkpt>
      <trkpt lat="38.2801110" lon="-0.6825360">
        <ele>95.5</ele>
        <time>2018-10-04T09:52:55Z</time>
      </trkpt>
      <trkpt lat="38.2800390" lon="-0.6825080">
        <ele>95.5</ele>
        <time>2018-10-04T09:52:56Z</time>
      </trkpt>
      <trkpt lat="38.2799680" lon="-0.6824780">
        <ele>95.5</ele>
        <time>2018-10-04T09:52:57Z</time>
      </trkpt>
      <trkpt lat="38.2798980" lon="-0.6824470">
        <ele>95.4</ele>
        <time>2018-10-04T09:52:58Z</time>
      </trkpt>
      <trkpt lat="38.2798270" lon="-0.6824170">
        <ele>95.4</ele>
        <time>2018-10-04T09:52:59Z</time>
      </trkpt>
      <trkpt lat="38.2797550" lon="-0.6823890">
        <ele>95.4</ele>
        <time>2018-10-04T09:53:00Z</time>
      </trkpt>
      <trkpt lat="38.2796840" lon="-0.6823610">
        <ele>95.4</ele>
        <time>2018-10-04T09:53:01Z</time>
      </trkpt>
      <trkpt lat="38.2796130" lon="-0.6823310">
        <ele>95.4</ele>
        <time>2018-10-04T09:53:02Z</time>
      </trkpt>
      <trkpt lat="38.2795420" lon="-0.6823030">
        <ele>95.4</ele>
        <time>2018-10-04T09:53:03Z</time>
      </trkpt>
      <trkpt lat="38.2794710" lon="-0.6822740">
        <ele>95.4</ele>
        <time>2018-10-04T09:53:04Z</time>
      </trkpt>
      <trkpt lat="38.2794010" lon="-0.6822460">
        <ele>95.3</ele>
        <time>2018-10-04T09:53:05Z</time>
      </trkpt>
      <trkpt lat="38.2793310" lon="-0.6822170">
        <ele>95.3</ele>
        <time>2018-10-04T09:53:06Z</time>
      </trkpt>
      <trkpt lat="38.2792600" lon="-0.6821880">
        <ele>95.3</ele>
        <time>2018-10-04T09:53:07Z</time>
      </trkpt>
      <trkpt lat="38.2791910" lon="-0.6821590">
        <ele>95.3</ele>
        <time>2018-10-04T09:53:08Z</time>
      </trkpt>
      <trkpt lat="38.2791220" lon="-0.6821320">
        <ele>95.3</ele>
        <time>2018-10-04T09:53:09Z</time>
      </trkpt>
      <trkpt lat="38.2790520" lon="-0.6821060">
        <ele>95.3</ele>
        <time>2018-10-04T09:53:10Z</time>
      </trkpt>
      <trkpt lat="38.2789820" lon="-0.6820800">
        <ele>95.2</ele>
        <time>2018-10-04T09:53:11Z</time>
      </trkpt>
      <trkpt lat="38.2789140" lon="-0.6820520">
        <ele>95.2</ele>
        <time>2018-10-04T09:53:12Z</time>
      </trkpt>
      <trkpt lat="38.2788450" lon="-0.6820260">
        <ele>95.2</ele>
        <time>2018-10-04T09:53:13Z</time>
      </trkpt>
      <trkpt lat="38.2787770" lon="-0.6819990">
        <ele>95.1</ele>
        <time>2018-10-04T09:53:14Z</time>
      </trkpt>
      <trkpt lat="38.2787090" lon="-0.6819700">
        <ele>95.0</ele>
        <time>2018-10-04T09:53:15Z</time>
      </trkpt>
      <trkpt lat="38.2786410" lon="-0.6819430">
        <ele>94.9</ele>
        <time>2018-10-04T09:53:16Z</time>
      </trkpt>
      <trkpt lat="38.2785740" lon="-0.6819150">
        <ele>94.7</ele>
        <time>2018-10-04T09:53:17Z</time>
      </trkpt>
      <trkpt lat="38.2785070" lon="-0.6818880">
        <ele>94.4</ele>
        <time>2018-10-04T09:53:18Z</time>
      </trkpt>
      <trkpt lat="38.2784380" lon="-0.6818610">
        <ele>94.2</ele>
        <time>2018-10-04T09:53:19Z</time>
      </trkpt>
      <trkpt lat="38.2783710" lon="-0.6818340">
        <ele>93.9</ele>
        <time>2018-10-04T09:53:20Z</time>
      </trkpt>
      <trkpt lat="38.2783030" lon="-0.6818060">
        <ele>93.6</ele>
        <time>2018-10-04T09:53:21Z</time>
      </trkpt>
      <trkpt lat="38.2782350" lon="-0.6817790">
        <ele>93.4</ele>
        <time>2018-10-04T09:53:22Z</time>
      </trkpt>
      <trkpt lat="38.2781660" lon="-0.6817510">
        <ele>93.2</ele>
        <time>2018-10-04T09:53:23Z</time>
      </trkpt>
      <trkpt lat="38.2780960" lon="-0.6817250">
        <ele>93.1</ele>
        <time>2018-10-04T09:53:24Z</time>
      </trkpt>
      <trkpt lat="38.2780250" lon="-0.6817080">
        <ele>93.1</ele>
        <time>2018-10-04T09:53:25Z</time>
      </trkpt>
      <trkpt lat="38.2779530" lon="-0.6817140">
        <ele>93.0</ele>
        <time>2018-10-04T09:53:26Z</time>
      </trkpt>
      <trkpt lat="38.2778830" lon="-0.6817380">
        <ele>93.1</ele>
        <time>2018-10-04T09:53:27Z</time>
      </trkpt>
      <trkpt lat="38.2778100" lon="-0.6817600">
        <ele>93.2</ele>
        <time>2018-10-04T09:53:28Z</time>
      </trkpt>
      <trkpt lat="38.2777360" lon="-0.6817590">
        <ele>93.2</ele>
        <time>2018-10-04T09:53:29Z</time>
      </trkpt>
      <trkpt lat="38.2776610" lon="-0.6817370">
        <ele>93.1</ele>
        <time>2018-10-04T09:53:30Z</time>
      </trkpt>
      <trkpt lat="38.2775930" lon="-0.6816940">
        <ele>93.1</ele>
        <time>2018-10-04T09:53:31Z</time>
      </trkpt>
      <trkpt lat="38.2775370" lon="-0.6816300">
        <ele>93.0</ele>
        <time>2018-10-04T09:53:32Z</time>
      </trkpt>
      <trkpt lat="38.2774920" lon="-0.6815530">
        <ele>93.0</ele>
        <time>2018-10-04T09:53:33Z</time>
      </trkpt>
      <trkpt lat="38.2774650" lon="-0.6814620">
        <ele>92.9</ele>
        <time>2018-10-04T09:53:34Z</time>
      </trkpt>
      <trkpt lat="38.2774270" lon="-0.6813790">
        <ele>93.0</ele>
        <time>2018-10-04T09:53:35Z</time>
      </trkpt>
      <trkpt lat="38.2773700" lon="-0.6813130">
        <ele>93.0</ele>
        <time>2018-10-04T09:53:36Z</time>
      </trkpt>
      <trkpt lat="38.2773100" lon="-0.6812700">
        <ele>93.0</ele>
        <time>2018-10-04T09:53:37Z</time>
      </trkpt>
      <trkpt lat="38.2772350" lon="-0.6812430">
        <ele>93.0</ele>
        <time>2018-10-04T09:53:38Z</time>
      </trkpt>
      <trkpt lat="38.2771590" lon="-0.6812170">
        <ele>93.0</ele>
        <time>2018-10-04T09:53:39Z</time>
      </trkpt>
      <trkpt lat="38.2770860" lon="-0.6811880">
        <ele>93.1</ele>
        <time>2018-10-04T09:53:40Z</time>
      </trkpt>
      <trkpt lat="38.2770120" lon="-0.6811600">
        <ele>93.1</ele>
        <time>2018-10-04T09:53:41Z</time>
      </trkpt>
      <trkpt lat="38.2769400" lon="-0.6811310">
        <ele>93.0</ele>
        <time>2018-10-04T09:53:42Z</time>
      </trkpt>
      <trkpt lat="38.2768670" lon="-0.6811020">
        <ele>92.8</ele>
        <time>2018-10-04T09:53:43Z</time>
      </trkpt>
      <trkpt lat="38.2767930" lon="-0.6810750">
        <ele>92.5</ele>
        <time>2018-10-04T09:53:44Z</time>
      </trkpt>
      <trkpt lat="38.2767210" lon="-0.6810450">
        <ele>92.2</ele>
        <time>2018-10-04T09:53:45Z</time>
      </trkpt>
      <trkpt lat="38.2766490" lon="-0.6810130">
        <ele>91.9</ele>
        <time>2018-10-04T09:53:46Z</time>
      </trkpt>
      <trkpt lat="38.2765760" lon="-0.6809820">
        <ele>91.7</ele>
        <time>2018-10-04T09:53:47Z</time>
      </trkpt>
      <trkpt lat="38.2765030" lon="-0.6809530">
        <ele>91.6</ele>
        <time>2018-10-04T09:53:48Z</time>
      </trkpt>
      <trkpt lat="38.2764300" lon="-0.6809240">
        <ele>91.6</ele>
        <time>2018-10-04T09:53:49Z</time>
      </trkpt>
      <trkpt lat="38.2763570" lon="-0.6808930">
        <ele>91.6</ele>
        <time>2018-10-04T09:53:50Z</time>
      </trkpt>
      <trkpt lat="38.2762840" lon="-0.6808630">
        <ele>91.7</ele>
        <time>2018-10-04T09:53:51Z</time>
      </trkpt>
      <trkpt lat="38.2762110" lon="-0.6808330">
        <ele>91.8</ele>
        <time>2018-10-04T09:53:52Z</time>
      </trkpt>
      <trkpt lat="38.2761390" lon="-0.6808020">
        <ele>91.8</ele>
        <time>2018-10-04T09:53:53Z</time>
      </trkpt>
      <trkpt lat="38.2760670" lon="-0.6807720">
        <ele>91.9</ele>
        <time>2018-10-04T09:53:54Z</time>
      </trkpt>
      <trkpt lat="38.2759940" lon="-0.6807420">
        <ele>91.9</ele>
        <time>2018-10-04T09:53:55Z</time>
      </trkpt>
      <trkpt lat="38.2759220" lon="-0.6807140">
        <ele>92.0</ele>
        <time>2018-10-04T09:53:56Z</time>
      </trkpt>
      <trkpt lat="38.2758500" lon="-0.6806840">
        <ele>92.1</ele>
        <time>2018-10-04T09:53:57Z</time>
      </trkpt>
      <trkpt lat="38.2757780" lon="-0.6806540">
        <ele>92.2</ele>
        <time>2018-10-04T09:53:58Z</time>
      </trkpt>
      <trkpt lat="38.2757050" lon="-0.6806260">
        <ele>92.3</ele>
        <time>2018-10-04T09:53:59Z</time>
      </trkpt>
      <trkpt lat="38.2756330" lon="-0.6805960">
        <ele>92.3</ele>
        <time>2018-10-04T09:54:00Z</time>
      </trkpt>
      <trkpt lat="38.2755610" lon="-0.6805660">
        <ele>92.4</ele>
        <time>2018-10-04T09:54:01Z</time>
      </trkpt>
      <trkpt lat="38.2754890" lon="-0.6805370">
        <ele>92.5</ele>
        <time>2018-10-04T09:54:02Z</time>
      </trkpt>
      <trkpt lat="38.2754190" lon="-0.6805090">
        <ele>92.5</ele>
        <time>2018-10-04T09:54:03Z</time>
      </trkpt>
      <trkpt lat="38.2753490" lon="-0.6804830">
        <ele>92.5</ele>
        <time>2018-10-04T09:54:04Z</time>
      </trkpt>
      <trkpt lat="38.2752800" lon="-0.6804550">
        <ele>92.5</ele>
        <time>2018-10-04T09:54:05Z</time>
      </trkpt>
      <trkpt lat="38.2752150" lon="-0.6804280">
        <ele>92.3</ele>
        <time>2018-10-04T09:54:06Z</time>
      </trkpt>
      <trkpt lat="38.2751490" lon="-0.6804010">
        <ele>92.0</ele>
        <time>2018-10-04T09:54:07Z</time>
      </trkpt>
      <trkpt lat="38.2750840" lon="-0.6803740">
        <ele>91.7</ele>
        <time>2018-10-04T09:54:08Z</time>
      </trkpt>
      <trkpt lat="38.2750210" lon="-0.6803470">
        <ele>91.4</ele>
        <time>2018-10-04T09:54:09Z</time>
      </trkpt>
      <trkpt lat="38.2749560" lon="-0.6803230">
        <ele>91.0</ele>
        <time>2018-10-04T09:54:10Z</time>
      </trkpt>
      <trkpt lat="38.2748890" lon="-0.6803130">
        <ele>91.0</ele>
        <time>2018-10-04T09:54:11Z</time>
      </trkpt>
      <trkpt lat="38.2748230" lon="-0.6803400">
        <ele>91.0</ele>
        <time>2018-10-04T09:54:12Z</time>
      </trkpt>
      <trkpt lat="38.2747690" lon="-0.6803940">
        <ele>91.0</ele>
        <time>2018-10-04T09:54:13Z</time>
      </trkpt>
      <trkpt lat="38.2747370" lon="-0.6804840">
        <ele>90.8</ele>
        <time>2018-10-04T09:54:14Z</time>
      </trkpt>
      <trkpt lat="38.2747170" lon="-0.6805700">
        <ele>90.6</ele>
        <time>2018-10-04T09:54:15Z</time>
      </trkpt>
      <trkpt lat="38.2747030" lon="-0.6806550">
        <ele>90.4</ele>
        <time>2018-10-04T09:54:16Z</time>
      </trkpt>
      <trkpt lat="38.2746860" lon="-0.6807460">
        <ele>90.1</ele>
        <time>2018-10-04T09:54:17Z</time>
      </trkpt>
      <trkpt lat="38.2746680" lon="-0.6808370">
        <ele>89.8</ele>
        <time>2018-10-04T09:54:18Z</time>
      </trkpt>
      <trkpt lat="38.2746500" lon="-0.6809280">
        <ele>89.6</ele>
        <time>2018-10-04T09:54:19Z</time>
      </trkpt>
      <trkpt lat="38.2746340" lon="-0.6810190">
        <ele>89.3</ele>
        <time>2018-10-04T09:54:20Z</time>
      </trkpt>
      <trkpt lat="38.2746180" lon="-0.6811090">
        <ele>89.1</ele>
        <time>2018-10-04T09:54:21Z</time>
      </trkpt>
      <trkpt lat="38.2746020" lon="-0.6811990">
        <ele>89.0</ele>
        <time>2018-10-04T09:54:22Z</time>
      </trkpt>
      <trkpt lat="38.2745870" lon="-0.6812890">
        <ele>88.9</ele>
        <time>2018-10-04T09:54:23Z</time>
      </trkpt>
      <trkpt lat="38.2745750" lon="-0.6813800">
        <ele>88.7</ele>
        <time>2018-10-04T09:54:24Z</time>
      </trkpt>
      <trkpt lat="38.2745620" lon="-0.6814690">
        <ele>88.6</ele>
        <time>2018-10-04T09:54:25Z</time>
      </trkpt>
      <trkpt lat="38.2745470" lon="-0.6815580">
        <ele>88.5</ele>
        <time>2018-10-04T09:54:26Z</time>
      </trkpt>
      <trkpt lat="38.2745320" lon="-0.6816460">
        <ele>88.4</ele>
        <time>2018-10-04T09:54:27Z</time>
      </trkpt>
      <trkpt lat="38.2745170" lon="-0.6817340">
        <ele>88.3</ele>
        <time>2018-10-04T09:54:28Z</time>
      </trkpt>
      <trkpt lat="38.2745020" lon="-0.6818220">
        <ele>88.2</ele>
        <time>2018-10-04T09:54:29Z</time>
      </trkpt>
      <trkpt lat="38.2744870" lon="-0.6819100">
        <ele>87.9</ele>
        <time>2018-10-04T09:54:30Z</time>
      </trkpt>
      <trkpt lat="38.2744710" lon="-0.6819970">
        <ele>87.8</ele>
        <time>2018-10-04T09:54:31Z</time>
      </trkpt>
      <trkpt lat="38.2744560" lon="-0.6820850">
        <ele>87.6</ele>
        <time>2018-10-04T09:54:32Z</time>
      </trkpt>
      <trkpt lat="38.2744410" lon="-0.6821730">
        <ele>87.5</ele>
        <time>2018-10-04T09:54:33Z</time>
      </trkpt>
      <trkpt lat="38.2744260" lon="-0.6822620">
        <ele>87.4</ele>
        <time>2018-10-04T09:54:34Z</time>
      </trkpt>
      <trkpt lat="38.2744120" lon="-0.6823500">
        <ele>87.2</ele>
        <time>2018-10-04T09:54:35Z</time>
      </trkpt>
      <trkpt lat="38.2743980" lon="-0.6824400">
        <ele>87.1</ele>
        <time>2018-10-04T09:54:36Z</time>
      </trkpt>
      <trkpt lat="38.2743830" lon="-0.6825310">
        <ele>86.9</ele>
        <time>2018-10-04T09:54:37Z</time>
      </trkpt>
      <trkpt lat="38.2743680" lon="-0.6826220">
        <ele>86.8</ele>
        <time>2018-10-04T09:54:38Z</time>
      </trkpt>
      <trkpt lat="38.2743520" lon="-0.6827120">
        <ele>86.6</ele>
        <time>2018-10-04T09:54:39Z</time>
      </trkpt>
      <trkpt lat="38.2743360" lon="-0.6828020">
        <ele>86.5</ele>
        <time>2018-10-04T09:54:40Z</time>
      </trkpt>
      <trkpt lat="38.2743190" lon="-0.6828950">
        <ele>86.3</ele>
        <time>2018-10-04T09:54:41Z</time>
      </trkpt>
      <trkpt lat="38.2743040" lon="-0.6829870">
        <ele>86.2</ele>
        <time>2018-10-04T09:54:42Z</time>
      </trkpt>
      <trkpt lat="38.2742890" lon="-0.6830810">
        <ele>86.0</ele>
        <time>2018-10-04T09:54:43Z</time>
      </trkpt>
      <trkpt lat="38.2742730" lon="-0.6831750">
        <ele>86.7</ele>
        <time>2018-10-04T09:54:44Z</time>
      </trkpt>
      <trkpt lat="38.2742570" lon="-0.6832690">
        <ele>87.1</ele>
        <time>2018-10-04T09:54:45Z</time>
      </trkpt>
      <trkpt lat="38.2742410" lon="-0.6833640">
        <ele>87.5</ele>
        <time>2018-10-04T09:54:46Z</time>
      </trkpt>
      <trkpt lat="38.2742250" lon="-0.6834580">
        <ele>87.9</ele>
        <time>2018-10-04T09:54:47Z</time>
      </trkpt>
      <trkpt lat="38.2742090" lon="-0.6835520">
        <ele>88.3</ele>
        <time>2018-10-04T09:54:48Z</time>
      </trkpt>
      <trkpt lat="38.2741920" lon="-0.6836460">
        <ele>88.7</ele>
        <time>2018-10-04T09:54:49Z</time>
      </trkpt>
      <trkpt lat="38.2741760" lon="-0.6837400">
        <ele>89.1</ele>
        <time>2018-10-04T09:54:50Z</time>
      </trkpt>
      <trkpt lat="38.2741610" lon="-0.6838340">
        <ele>89.4</ele>
        <time>2018-10-04T09:54:51Z</time>
      </trkpt>
      <trkpt lat="38.2741440" lon="-0.6839260">
        <ele>89.7</ele>
        <time>2018-10-04T09:54:52Z</time>
      </trkpt>
      <trkpt lat="38.2741280" lon="-0.6840170">
        <ele>89.9</ele>
        <time>2018-10-04T09:54:53Z</time>
      </trkpt>
      <trkpt lat="38.2741120" lon="-0.6841080">
        <ele>90.2</ele>
        <time>2018-10-04T09:54:54Z</time>
      </trkpt>
      <trkpt lat="38.2740960" lon="-0.6841980">
        <ele>90.5</ele>
        <time>2018-10-04T09:54:55Z</time>
      </trkpt>
      <trkpt lat="38.2740810" lon="-0.6842880">
        <ele>90.7</ele>
        <time>2018-10-04T09:54:56Z</time>
      </trkpt>
      <trkpt lat="38.2740660" lon="-0.6843780">
        <ele>90.9</ele>
        <time>2018-10-04T09:54:57Z</time>
      </trkpt>
      <trkpt lat="38.2740520" lon="-0.6844690">
        <ele>91.2</ele>
        <time>2018-10-04T09:54:58Z</time>
      </trkpt>
      <trkpt lat="38.2740380" lon="-0.6845590">
        <ele>91.4</ele>
        <time>2018-10-04T09:54:59Z</time>
      </trkpt>
      <trkpt lat="38.2740240" lon="-0.6846490">
        <ele>91.7</ele>
        <time>2018-10-04T09:55:00Z</time>
      </trkpt>
      <trkpt lat="38.2740090" lon="-0.6847380">
        <ele>91.9</ele>
        <time>2018-10-04T09:55:01Z</time>
      </trkpt>
      <trkpt lat="38.2739940" lon="-0.6848270">
        <ele>92.2</ele>
        <time>2018-10-04T09:55:02Z</time>
      </trkpt>
      <trkpt lat="38.2739780" lon="-0.6849160">
        <ele>92.5</ele>
        <time>2018-10-04T09:55:03Z</time>
      </trkpt>
      <trkpt lat="38.2739640" lon="-0.6850060">
        <ele>92.7</ele>
        <time>2018-10-04T09:55:04Z</time>
      </trkpt>
      <trkpt lat="38.2739490" lon="-0.6850960">
        <ele>93.0</ele>
        <time>2018-10-04T09:55:05Z</time>
      </trkpt>
      <trkpt lat="38.2739330" lon="-0.6851860">
        <ele>92.9</ele>
        <time>2018-10-04T09:55:06Z</time>
      </trkpt>
      <trkpt lat="38.2739180" lon="-0.6852770">
        <ele>92.8</ele>
        <time>2018-10-04T09:55:07Z</time>
      </trkpt>
      <trkpt lat="38.2739020" lon="-0.6853670">
        <ele>92.7</ele>
        <time>2018-10-04T09:55:08Z</time>
      </trkpt>
      <trkpt lat="38.2738860" lon="-0.6854590">
        <ele>92.7</ele>
        <time>2018-10-04T09:55:09Z</time>
      </trkpt>
      <trkpt lat="38.2738720" lon="-0.6855510">
        <ele>92.6</ele>
        <time>2018-10-04T09:55:10Z</time>
      </trkpt>
      <trkpt lat="38.2738570" lon="-0.6856440">
        <ele>92.6</ele>
        <time>2018-10-04T09:55:11Z</time>
      </trkpt>
      <trkpt lat="38.2738410" lon="-0.6857370">
        <ele>92.5</ele>
        <time>2018-10-04T09:55:12Z</time>
      </trkpt>
      <trkpt lat="38.2738250" lon="-0.6858310">
        <ele>92.4</ele>
        <time>2018-10-04T09:55:13Z</time>
      </trkpt>
      <trkpt lat="38.2738090" lon="-0.6859230">
        <ele>92.4</ele>
        <time>2018-10-04T09:55:14Z</time>
      </trkpt>
      <trkpt lat="38.2737940" lon="-0.6860170">
        <ele>92.3</ele>
        <time>2018-10-04T09:55:15Z</time>
      </trkpt>
      <trkpt lat="38.2737780" lon="-0.6861100">
        <ele>92.2</ele>
        <time>2018-10-04T09:55:16Z</time>
      </trkpt>
      <trkpt lat="38.2737630" lon="-0.6862030">
        <ele>92.2</ele>
        <time>2018-10-04T09:55:17Z</time>
      </trkpt>
      <trkpt lat="38.2737470" lon="-0.6862960">
        <ele>92.1</ele>
        <time>2018-10-04T09:55:18Z</time>
      </trkpt>
      <trkpt lat="38.2737310" lon="-0.6863880">
        <ele>92.0</ele>
        <time>2018-10-04T09:55:19Z</time>
      </trkpt>
      <trkpt lat="38.2737150" lon="-0.6864820">
        <ele>91.9</ele>
        <time>2018-10-04T09:55:20Z</time>
      </trkpt>
      <trkpt lat="38.2736980" lon="-0.6865740">
        <ele>91.9</ele>
        <time>2018-10-04T09:55:21Z</time>
      </trkpt>
      <trkpt lat="38.2736820" lon="-0.6866660">
        <ele>91.8</ele>
        <time>2018-10-04T09:55:22Z</time>
      </trkpt>
      <trkpt lat="38.2736670" lon="-0.6867590">
        <ele>91.7</ele>
        <time>2018-10-04T09:55:23Z</time>
      </trkpt>
      <trkpt lat="38.2736500" lon="-0.6868510">
        <ele>91.7</ele>
        <time>2018-10-04T09:55:24Z</time>
      </trkpt>
      <trkpt lat="38.2736340" lon="-0.6869420">
        <ele>91.6</ele>
        <time>2018-10-04T09:55:25Z</time>
      </trkpt>
      <trkpt lat="38.2736180" lon="-0.6870340">
        <ele>91.6</ele>
        <time>2018-10-04T09:55:26Z</time>
      </trkpt>
      <trkpt lat="38.2736020" lon="-0.6871250">
        <ele>91.5</ele>
        <time>2018-10-04T09:55:27Z</time>
      </trkpt>
      <trkpt lat="38.2735770" lon="-0.6872110">
        <ele>91.5</ele>
        <time>2018-10-04T09:55:28Z</time>
      </trkpt>
      <trkpt lat="38.2735490" lon="-0.6872960">
        <ele>91.5</ele>
        <time>2018-10-04T09:55:29Z</time>
      </trkpt>
      <trkpt lat="38.2735240" lon="-0.6873840">
        <ele>91.4</ele>
        <time>2018-10-04T09:55:30Z</time>
      </trkpt>
      <trkpt lat="38.2735070" lon="-0.6874710">
        <ele>91.4</ele>
        <time>2018-10-04T09:55:31Z</time>
      </trkpt>
      <trkpt lat="38.2734930" lon="-0.6875580">
        <ele>91.4</ele>
        <time>2018-10-04T09:55:32Z</time>
      </trkpt>
      <trkpt lat="38.2734760" lon="-0.6876450">
        <ele>91.3</ele>
        <time>2018-10-04T09:55:33Z</time>
      </trkpt>
      <trkpt lat="38.2734610" lon="-0.6877280">
        <ele>91.3</ele>
        <time>2018-10-04T09:55:34Z</time>
      </trkpt>
      <trkpt lat="38.2734450" lon="-0.6878090">
        <ele>91.2</ele>
        <time>2018-10-04T09:55:35Z</time>
      </trkpt>
      <trkpt lat="38.2734290" lon="-0.6878840">
        <ele>91.2</ele>
        <time>2018-10-04T09:55:36Z</time>
      </trkpt>
      <trkpt lat="38.2734140" lon="-0.6879700">
        <ele>91.1</ele>
        <time>2018-10-04T09:55:37Z</time>
      </trkpt>
      <trkpt lat="38.2734090" lon="-0.6879950">
        <ele>91.1</ele>
        <time>2018-10-04T09:55:38Z</time>
      </trkpt>
      <trkpt lat="38.2734050" lon="-0.6880210">
        <ele>91.1</ele>
        <time>2018-10-04T09:56:05Z</time>
      </trkpt>
      <trkpt lat="38.2734000" lon="-0.6880460">
        <ele>91.1</ele>
        <time>2018-10-04T09:56:06Z</time>
      </trkpt>
      <trkpt lat="38.2733960" lon="-0.6880720">
        <ele>91.0</ele>
        <time>2018-10-04T09:56:07Z</time>
      </trkpt>
      <trkpt lat="38.2733910" lon="-0.6880970">
        <ele>91.0</ele>
        <time>2018-10-04T09:56:08Z</time>
      </trkpt>
      <trkpt lat="38.2733870" lon="-0.6881230">
        <ele>91.0</ele>
        <time>2018-10-04T09:56:09Z</time>
      </trkpt>
      <trkpt lat="38.2733730" lon="-0.6881780">
        <ele>90.3</ele>
        <time>2018-10-04T09:56:10Z</time>
      </trkpt>
      <trkpt lat="38.2733570" lon="-0.6882440">
        <ele>89.6</ele>
        <time>2018-10-04T09:56:11Z</time>
      </trkpt>
      <trkpt lat="38.2733340" lon="-0.6883040">
        <ele>86.0</ele>
        <time>2018-10-04T09:56:12Z</time>
      </trkpt>
      <trkpt lat="38.2732960" lon="-0.6883450">
        <ele>87.3</ele>
        <time>2018-10-04T09:56:13Z</time>
      </trkpt>
      <trkpt lat="38.2732500" lon="-0.6883610">
        <ele>88.5</ele>
        <time>2018-10-04T09:56:14Z</time>
      </trkpt>
      <trkpt lat="38.2732050" lon="-0.6883320">
        <ele>89.8</ele>
        <time>2018-10-04T09:56:15Z</time>
      </trkpt>
      <trkpt lat="38.2731910" lon="-0.6883110">
        <ele>90.4</ele>
        <time>2018-10-04T09:56:16Z</time>
      </trkpt>
      <trkpt lat="38.2731770" lon="-0.6882890">
        <ele>90.9</ele>
        <time>2018-10-04T09:57:27Z</time>
      </trkpt>
      <trkpt lat="38.2731620" lon="-0.6882680">
        <ele>91.0</ele>
        <time>2018-10-04T09:57:28Z</time>
      </trkpt>
      <trkpt lat="38.2731480" lon="-0.6882470">
        <ele>91.0</ele>
        <time>2018-10-04T09:57:29Z</time>
      </trkpt>
      <trkpt lat="38.2731340" lon="-0.6882260">
        <ele>91.0</ele>
        <time>2018-10-04T09:57:30Z</time>
      </trkpt>
      <trkpt lat="38.2731260" lon="-0.6881840">
        <ele>91.0</ele>
        <time>2018-10-04T09:57:31Z</time>
      </trkpt>
      <trkpt lat="38.2731290" lon="-0.6881070">
        <ele>91.0</ele>
        <time>2018-10-04T09:57:32Z</time>
      </trkpt>
      <trkpt lat="38.2731340" lon="-0.6880370">
        <ele>91.0</ele>
        <time>2018-10-04T09:57:33Z</time>
      </trkpt>
      <trkpt lat="38.2731420" lon="-0.6879620">
        <ele>91.0</ele>
        <time>2018-10-04T09:57:34Z</time>
      </trkpt>
      <trkpt lat="38.2731490" lon="-0.6878870">
        <ele>91.0</ele>
        <time>2018-10-04T09:57:35Z</time>
      </trkpt>
      <trkpt lat="38.2731590" lon="-0.6878130">
        <ele>91.0</ele>
        <time>2018-10-04T09:57:36Z</time>
      </trkpt>
      <trkpt lat="38.2731710" lon="-0.6877330">
        <ele>91.0</ele>
        <time>2018-10-04T09:57:37Z</time>
      </trkpt>
      <trkpt lat="38.2731820" lon="-0.6876530">
        <ele>91.0</ele>
        <time>2018-10-04T09:57:38Z</time>
      </trkpt>
      <trkpt lat="38.2731920" lon="-0.6875730">
        <ele>91.0</ele>
        <time>2018-10-04T09:57:39Z</time>
      </trkpt>
      <trkpt lat="38.2732070" lon="-0.6874910">
        <ele>91.0</ele>
        <time>2018-10-04T09:57:40Z</time>
      </trkpt>
      <trkpt lat="38.2732200" lon="-0.6874080">
        <ele>91.2</ele>
        <time>2018-10-04T09:57:41Z</time>
      </trkpt>
      <trkpt lat="38.2732340" lon="-0.6873260">
        <ele>91.4</ele>
        <time>2018-10-04T09:57:42Z</time>
      </trkpt>
      <trkpt lat="38.2732510" lon="-0.6872440">
        <ele>91.5</ele>
        <time>2018-10-04T09:57:43Z</time>
      </trkpt>
      <trkpt lat="38.2732640" lon="-0.6871600">
        <ele>91.7</ele>
        <time>2018-10-04T09:57:44Z</time>
      </trkpt>
      <trkpt lat="38.2732780" lon="-0.6870750">
        <ele>91.8</ele>
        <time>2018-10-04T09:57:45Z</time>
      </trkpt>
      <trkpt lat="38.2732880" lon="-0.6869900">
        <ele>92.0</ele>
        <time>2018-10-04T09:57:46Z</time>
      </trkpt>
      <trkpt lat="38.2732980" lon="-0.6869050">
        <ele>91.8</ele>
        <time>2018-10-04T09:57:47Z</time>
      </trkpt>
      <trkpt lat="38.2733100" lon="-0.6868200">
        <ele>91.5</ele>
        <time>2018-10-04T09:57:48Z</time>
      </trkpt>
      <trkpt lat="38.2733240" lon="-0.6867350">
        <ele>91.3</ele>
        <time>2018-10-04T09:57:49Z</time>
      </trkpt>
      <trkpt lat="38.2733390" lon="-0.6866500">
        <ele>91.2</ele>
        <time>2018-10-04T09:57:50Z</time>
      </trkpt>
      <trkpt lat="38.2733530" lon="-0.6865650">
        <ele>91.0</ele>
        <time>2018-10-04T09:57:51Z</time>
      </trkpt>
      <trkpt lat="38.2733700" lon="-0.6864790">
        <ele>91.3</ele>
        <time>2018-10-04T09:57:52Z</time>
      </trkpt>
      <trkpt lat="38.2733840" lon="-0.6863970">
        <ele>91.3</ele>
        <time>2018-10-04T09:57:53Z</time>
      </trkpt>
      <trkpt lat="38.2733980" lon="-0.6863150">
        <ele>91.5</ele>
        <time>2018-10-04T09:57:54Z</time>
      </trkpt>
      <trkpt lat="38.2734110" lon="-0.6862320">
        <ele>91.8</ele>
        <time>2018-10-04T09:57:55Z</time>
      </trkpt>
      <trkpt lat="38.2734270" lon="-0.6861490">
        <ele>91.8</ele>
        <time>2018-10-04T09:57:56Z</time>
      </trkpt>
      <trkpt lat="38.2734420" lon="-0.6860630">
        <ele>92.0</ele>
        <time>2018-10-04T09:57:57Z</time>
      </trkpt>
      <trkpt lat="38.2734540" lon="-0.6859760">
        <ele>92.0</ele>
        <time>2018-10-04T09:57:58Z</time>
      </trkpt>
      <trkpt lat="38.2734620" lon="-0.6858900">
        <ele>92.3</ele>
        <time>2018-10-04T09:57:59Z</time>
      </trkpt>
      <trkpt lat="38.2734780" lon="-0.6858020">
        <ele>92.7</ele>
        <time>2018-10-04T09:58:00Z</time>
      </trkpt>
      <trkpt lat="38.2734940" lon="-0.6857190">
        <ele>93.0</ele>
        <time>2018-10-04T09:58:01Z</time>
      </trkpt>
      <trkpt lat="38.2735050" lon="-0.6856340">
        <ele>93.4</ele>
        <time>2018-10-04T09:58:02Z</time>
      </trkpt>
      <trkpt lat="38.2735190" lon="-0.6855510">
        <ele>93.7</ele>
        <time>2018-10-04T09:58:03Z</time>
      </trkpt>
      <trkpt lat="38.2735320" lon="-0.6854670">
        <ele>94.1</ele>
        <time>2018-10-04T09:58:04Z</time>
      </trkpt>
      <trkpt lat="38.2735450" lon="-0.6853850">
        <ele>94.4</ele>
        <time>2018-10-04T09:58:05Z</time>
      </trkpt>
      <trkpt lat="38.2735590" lon="-0.6853040">
        <ele>94.8</ele>
        <time>2018-10-04T09:58:06Z</time>
      </trkpt>
      <trkpt lat="38.2735750" lon="-0.6852240">
        <ele>95.2</ele>
        <time>2018-10-04T09:58:07Z</time>
      </trkpt>
      <trkpt lat="38.2735910" lon="-0.6851450">
        <ele>95.6</ele>
        <time>2018-10-04T09:58:08Z</time>
      </trkpt>
      <trkpt lat="38.2736030" lon="-0.6850650">
        <ele>96.0</ele>
        <time>2018-10-04T09:58:09Z</time>
      </trkpt>
      <trkpt lat="38.2736040" lon="-0.6849800">
        <ele>96.9</ele>
        <time>2018-10-04T09:58:10Z</time>
      </trkpt>
      <trkpt lat="38.2736040" lon="-0.6849010">
        <ele>96.7</ele>
        <time>2018-10-04T09:58:11Z</time>
      </trkpt>
      <trkpt lat="38.2736030" lon="-0.6848270">
        <ele>96.4</ele>
        <time>2018-10-04T09:58:12Z</time>
      </trkpt>
      <trkpt lat="38.2735860" lon="-0.6847670">
        <ele>96.2</ele>
        <time>2018-10-04T09:58:13Z</time>
      </trkpt>
      <trkpt lat="38.2735670" lon="-0.6847110">
        <ele>95.8</ele>
        <time>2018-10-04T09:58:14Z</time>
      </trkpt>
      <trkpt lat="38.2735640" lon="-0.6846490">
        <ele>95.2</ele>
        <time>2018-10-04T09:58:15Z</time>
      </trkpt>
      <trkpt lat="38.2735480" lon="-0.6845980">
        <ele>94.8</ele>
        <time>2018-10-04T09:58:16Z</time>
      </trkpt>
      <trkpt lat="38.2735480" lon="-0.6845980">
        <ele>94.8</ele>
        <time>2018-10-04T09:58:17Z</time>
      </trkpt>
      <trkpt lat="38.2735170" lon="-0.6845480">
        <ele>93.9</ele>
        <time>2018-10-04T09:58:18Z</time>
      </trkpt>
      <trkpt lat="38.2732790" lon="-0.6846340">
        <ele>91.0</ele>
        <time>2018-10-04T09:58:19Z</time>
      </trkpt>
      <trkpt lat="38.2732020" lon="-0.6846320">
        <ele>90.9</ele>
        <time>2018-10-04T09:58:20Z</time>
      </trkpt>
      <trkpt lat="38.2731400" lon="-0.6846050">
        <ele>90.7</ele>
        <time>2018-10-04T09:58:21Z</time>
      </trkpt>
      <trkpt lat="38.2730770" lon="-0.6845800">
        <ele>90.7</ele>
        <time>2018-10-04T09:58:22Z</time>
      </trkpt>
      <trkpt lat="38.2730190" lon="-0.6845620">
        <ele>90.9</ele>
        <time>2018-10-04T09:58:23Z</time>
      </trkpt>
      <trkpt lat="38.2730190" lon="-0.6845620">
        <ele>90.9</ele>
        <time>2018-10-04T09:58:24Z</time>
      </trkpt>
      <trkpt lat="38.2730190" lon="-0.6845620">
        <ele>90.9</ele>
        <time>2018-10-04T09:58:25Z</time>
      </trkpt>
      <trkpt lat="38.2728440" lon="-0.6844760">
        <ele>91.0</ele>
        <time>2018-10-04T09:58:26Z</time>
      </trkpt>
      <trkpt lat="38.2728150" lon="-0.6844420">
        <ele>91.7</ele>
        <time>2018-10-04T09:58:27Z</time>
      </trkpt>
      <trkpt lat="38.2727890" lon="-0.6844170">
        <ele>92.0</ele>
        <time>2018-10-04T09:58:28Z</time>
      </trkpt>
      <trkpt lat="38.2727790" lon="-0.6843830">
        <ele>92.2</ele>
        <time>2018-10-04T09:58:29Z</time>
      </trkpt>
      <trkpt lat="38.2727820" lon="-0.6843400">
        <ele>92.4</ele>
        <time>2018-10-04T09:58:30Z</time>
      </trkpt>
      <trkpt lat="38.2727740" lon="-0.6843050">
        <ele>92.6</ele>
        <time>2018-10-04T09:58:31Z</time>
      </trkpt>
      <trkpt lat="38.2727790" lon="-0.6842700">
        <ele>92.7</ele>
        <time>2018-10-04T09:58:32Z</time>
      </trkpt>
      <trkpt lat="38.2727740" lon="-0.6842170">
        <ele>93.0</ele>
        <time>2018-10-04T09:58:33Z</time>
      </trkpt>
      <trkpt lat="38.2727740" lon="-0.6841510">
        <ele>93.1</ele>
        <time>2018-10-04T09:58:34Z</time>
      </trkpt>
      <trkpt lat="38.2727730" lon="-0.6841080">
        <ele>93.2</ele>
        <time>2018-10-04T09:58:35Z</time>
      </trkpt>
      <trkpt lat="38.2727860" lon="-0.6840430">
        <ele>93.3</ele>
        <time>2018-10-04T09:58:36Z</time>
      </trkpt>
      <trkpt lat="38.2727960" lon="-0.6839860">
        <ele>93.3</ele>
        <time>2018-10-04T09:58:37Z</time>
      </trkpt>
      <trkpt lat="38.2728120" lon="-0.6839320">
        <ele>93.4</ele>
        <time>2018-10-04T09:58:38Z</time>
      </trkpt>
      <trkpt lat="38.2728400" lon="-0.6838730">
        <ele>93.4</ele>
        <time>2018-10-04T09:58:39Z</time>
      </trkpt>
      <trkpt lat="38.2728540" lon="-0.6838220">
        <ele>93.3</ele>
        <time>2018-10-04T09:58:40Z</time>
      </trkpt>
      <trkpt lat="38.2728650" lon="-0.6837700">
        <ele>93.0</ele>
        <time>2018-10-04T09:58:41Z</time>
      </trkpt>
      <trkpt lat="38.2729050" lon="-0.6836780">
        <ele>92.6</ele>
        <time>2018-10-04T09:58:42Z</time>
      </trkpt>
      <trkpt lat="38.2729390" lon="-0.6836160">
        <ele>92.5</ele>
        <time>2018-10-04T09:58:43Z</time>
      </trkpt>
      <trkpt lat="38.2729780" lon="-0.6835910">
        <ele>92.4</ele>
        <time>2018-10-04T09:58:44Z</time>
      </trkpt>
      <trkpt lat="38.2730170" lon="-0.6835820">
        <ele>92.4</ele>
        <time>2018-10-04T09:58:45Z</time>
      </trkpt>
      <trkpt lat="38.2730590" lon="-0.6835950">
        <ele>92.3</ele>
        <time>2018-10-04T09:58:46Z</time>
      </trkpt>
      <trkpt lat="38.2731130" lon="-0.6836060">
        <ele>93.2</ele>
        <time>2018-10-04T09:58:47Z</time>
      </trkpt>
      <trkpt lat="38.2731660" lon="-0.6836200">
        <ele>94.1</ele>
        <time>2018-10-04T09:58:48Z</time>
      </trkpt>
      <trkpt lat="38.2732120" lon="-0.6836390">
        <ele>95.0</ele>
        <time>2018-10-04T09:58:49Z</time>
      </trkpt>
      <trkpt lat="38.2732580" lon="-0.6836580">
        <ele>95.8</ele>
        <time>2018-10-04T09:58:50Z</time>
      </trkpt>
      <trkpt lat="38.2732950" lon="-0.6836830">
        <ele>96.3</ele>
        <time>2018-10-04T09:58:51Z</time>
      </trkpt>
      <trkpt lat="38.2733540" lon="-0.6836870">
        <ele>97.2</ele>
        <time>2018-10-04T09:58:52Z</time>
      </trkpt>
      <trkpt lat="38.2734050" lon="-0.6836950">
        <ele>98.0</ele>
        <time>2018-10-04T09:58:53Z</time>
      </trkpt>
      <trkpt lat="38.2734590" lon="-0.6837060">
        <ele>98.0</ele>
        <time>2018-10-04T09:58:54Z</time>
      </trkpt>
      <trkpt lat="38.2735150" lon="-0.6837180">
        <ele>98.0</ele>
        <time>2018-10-04T09:58:55Z</time>
      </trkpt>
      <trkpt lat="38.2735640" lon="-0.6837340">
        <ele>98.0</ele>
        <time>2018-10-04T09:58:56Z</time>
      </trkpt>
      <trkpt lat="38.2736110" lon="-0.6837520">
        <ele>98.0</ele>
        <time>2018-10-04T09:58:57Z</time>
      </trkpt>
      <trkpt lat="38.2736570" lon="-0.6837600">
        <ele>98.0</ele>
        <time>2018-10-04T09:58:58Z</time>
      </trkpt>
      <trkpt lat="38.2736940" lon="-0.6837420">
        <ele>98.0</ele>
        <time>2018-10-04T09:58:59Z</time>
      </trkpt>
      <trkpt lat="38.2737180" lon="-0.6836930">
        <ele>98.0</ele>
        <time>2018-10-04T09:59:00Z</time>
      </trkpt>
      <trkpt lat="38.2737270" lon="-0.6836420">
        <ele>98.0</ele>
        <time>2018-10-04T09:59:01Z</time>
      </trkpt>
      <trkpt lat="38.2737290" lon="-0.6835890">
        <ele>98.0</ele>
        <time>2018-10-04T09:59:02Z</time>
      </trkpt>
      <trkpt lat="38.2737290" lon="-0.6835340">
        <ele>96.4</ele>
        <time>2018-10-04T09:59:03Z</time>
      </trkpt>
      <trkpt lat="38.2737350" lon="-0.6834740">
        <ele>96.3</ele>
        <time>2018-10-04T09:59:04Z</time>
      </trkpt>
      <trkpt lat="38.2737420" lon="-0.6834170">
        <ele>96.1</ele>
        <time>2018-10-04T09:59:05Z</time>
      </trkpt>
      <trkpt lat="38.2737520" lon="-0.6833600">
        <ele>96.0</ele>
        <time>2018-10-04T09:59:06Z</time>
      </trkpt>
      <trkpt lat="38.2737630" lon="-0.6833030">
        <ele>95.8</ele>
        <time>2018-10-04T09:59:07Z</time>
      </trkpt>
      <trkpt lat="38.2737730" lon="-0.6832430">
        <ele>95.7</ele>
        <time>2018-10-04T09:59:08Z</time>
      </trkpt>
      <trkpt lat="38.2737810" lon="-0.6831830">
        <ele>95.5</ele>
        <time>2018-10-04T09:59:09Z</time>
      </trkpt>
      <trkpt lat="38.2737920" lon="-0.6831240">
        <ele>95.4</ele>
        <time>2018-10-04T09:59:10Z</time>
      </trkpt>
      <trkpt lat="38.2738020" lon="-0.6830700">
        <ele>95.2</ele>
        <time>2018-10-04T09:59:11Z</time>
      </trkpt>
      <trkpt lat="38.2738210" lon="-0.6830460">
        <ele>95.1</ele>
        <time>2018-10-04T09:59:12Z</time>
      </trkpt>
      <trkpt lat="38.2738220" lon="-0.6830690">
        <ele>95.1</ele>
        <time>2018-10-04T09:59:13Z</time>
      </trkpt>
      <trkpt lat="38.2738230" lon="-0.6830920">
        <ele>95.0</ele>
        <time>2018-10-04T09:59:14Z</time>
      </trkpt>
      <trkpt lat="38.2738240" lon="-0.6831150">
        <ele>94.9</ele>
        <time>2018-10-04T09:59:15Z</time>
      </trkpt>
      <trkpt lat="38.2738240" lon="-0.6831380">
        <ele>94.9</ele>
        <time>2018-10-04T09:59:16Z</time>
      </trkpt>
      <trkpt lat="38.2738250" lon="-0.6831610">
        <ele>94.8</ele>
        <time>2018-10-04T09:59:17Z</time>
      </trkpt>
      <trkpt lat="38.2738260" lon="-0.6831840">
        <ele>94.7</ele>
        <time>2018-10-04T09:59:18Z</time>
      </trkpt>
      <trkpt lat="38.2738270" lon="-0.6832070">
        <ele>94.7</ele>
        <time>2018-10-04T09:59:19Z</time>
      </trkpt>
      <trkpt lat="38.2738210" lon="-0.6832510">
        <ele>94.6</ele>
        <time>2018-10-04T09:59:20Z</time>
      </trkpt>
      <trkpt lat="38.2738160" lon="-0.6832970">
        <ele>94.4</ele>
        <time>2018-10-04T09:59:21Z</time>
      </trkpt>
    </trkseg>
  </trk>
</gpx>
